<?xml version="1.0" encoding="UTF-8" standalone="no" ?>
<gpx xmlns="http://www.topografix.com/GPX/1/1" xmlns:xsi="http://www.w3.org/2001/XMLSchema-instance" xsi:schemaLocation="http://www.topografix.com/GPX/1/1 http://www.topografix.com/GPX/1/1/gpx.xsd" version="1.1" creator="VisuGPX - https://www.visugpx.com">
  <metadata>
    <name>E 1303</name>
  </metadata>
  <trk>
    <name><![CDATA[Ily avait des velos partout....😃😀]]></name>
    <trkseg>
      <trkpt lat="49.28647" lon="-0.11908">
        <ele>4.7</ele>
        <time>2023-09-03T05:21:29Z</time>
      </trkpt>
      <trkpt lat="49.28648" lon="-0.11915">
        <ele>4.7</ele>
        <time>2023-09-03T05:21:31Z</time>
      </trkpt>
      <trkpt lat="49.28648" lon="-0.11916">
        <ele>4.7</ele>
        <time>2023-09-03T05:21:32Z</time>
      </trkpt>
      <trkpt lat="49.28648" lon="-0.11917">
        <ele>4.7</ele>
        <time>2023-09-03T05:21:33Z</time>
      </trkpt>
      <trkpt lat="49.28648" lon="-0.11917">
        <ele>4.7</ele>
        <time>2023-09-03T05:21:34Z</time>
      </trkpt>
      <trkpt lat="49.28648" lon="-0.11917">
        <ele>4.7</ele>
        <time>2023-09-03T05:21:35Z</time>
      </trkpt>
      <trkpt lat="49.28648" lon="-0.11917">
        <ele>4.7</ele>
        <time>2023-09-03T05:21:36Z</time>
      </trkpt>
      <trkpt lat="49.28648" lon="-0.11917">
        <ele>4.7</ele>
        <time>2023-09-03T05:21:37Z</time>
      </trkpt>
      <trkpt lat="49.28648" lon="-0.11917">
        <ele>4.7</ele>
        <time>2023-09-03T05:21:38Z</time>
      </trkpt>
      <trkpt lat="49.28648" lon="-0.11917">
        <ele>4.7</ele>
        <time>2023-09-03T05:21:39Z</time>
      </trkpt>
      <trkpt lat="49.28648" lon="-0.11917">
        <ele>4.7</ele>
        <time>2023-09-03T05:21:40Z</time>
      </trkpt>
      <trkpt lat="49.28648" lon="-0.11917">
        <ele>4.7</ele>
        <time>2023-09-03T05:21:41Z</time>
      </trkpt>
      <trkpt lat="49.28648" lon="-0.11917">
        <ele>4.7</ele>
        <time>2023-09-03T05:21:42Z</time>
      </trkpt>
      <trkpt lat="49.28648" lon="-0.11917">
        <ele>4.7</ele>
        <time>2023-09-03T05:21:43Z</time>
      </trkpt>
      <trkpt lat="49.28648" lon="-0.11918">
        <ele>4.7</ele>
        <time>2023-09-03T05:32:41Z</time>
      </trkpt>
      <trkpt lat="49.28647" lon="-0.11916">
        <ele>4.7</ele>
        <time>2023-09-03T05:32:42Z</time>
      </trkpt>
      <trkpt lat="49.28646" lon="-0.11915">
        <ele>4.7</ele>
        <time>2023-09-03T05:32:43Z</time>
      </trkpt>
      <trkpt lat="49.28645" lon="-0.11913">
        <ele>4.7</ele>
        <time>2023-09-03T05:32:44Z</time>
      </trkpt>
      <trkpt lat="49.28645" lon="-0.11911">
        <ele>4.7</ele>
        <time>2023-09-03T05:32:45Z</time>
      </trkpt>
      <trkpt lat="49.28645" lon="-0.11908">
        <ele>4.7</ele>
        <time>2023-09-03T05:32:46Z</time>
      </trkpt>
      <trkpt lat="49.28644" lon="-0.11905">
        <ele>4.7</ele>
        <time>2023-09-03T05:32:47Z</time>
      </trkpt>
      <trkpt lat="49.28644" lon="-0.11901">
        <ele>4.7</ele>
        <time>2023-09-03T05:32:48Z</time>
      </trkpt>
      <trkpt lat="49.28645" lon="-0.11899">
        <ele>4.7</ele>
        <time>2023-09-03T05:32:49Z</time>
      </trkpt>
      <trkpt lat="49.28644" lon="-0.11893">
        <ele>4.7</ele>
        <time>2023-09-03T05:32:50Z</time>
      </trkpt>
      <trkpt lat="49.28644" lon="-0.11891">
        <ele>4.7</ele>
        <time>2023-09-03T05:32:51Z</time>
      </trkpt>
      <trkpt lat="49.28644" lon="-0.11887">
        <ele>4.8</ele>
        <time>2023-09-03T05:32:52Z</time>
      </trkpt>
      <trkpt lat="49.28642" lon="-0.11882">
        <ele>4.8</ele>
        <time>2023-09-03T05:32:53Z</time>
      </trkpt>
      <trkpt lat="49.2864" lon="-0.11878">
        <ele>4.8</ele>
        <time>2023-09-03T05:32:54Z</time>
      </trkpt>
      <trkpt lat="49.28638" lon="-0.11874">
        <ele>4.8</ele>
        <time>2023-09-03T05:32:55Z</time>
      </trkpt>
      <trkpt lat="49.28636" lon="-0.11869">
        <ele>4.8</ele>
        <time>2023-09-03T05:32:56Z</time>
      </trkpt>
      <trkpt lat="49.28633" lon="-0.11865">
        <ele>4.8</ele>
        <time>2023-09-03T05:32:57Z</time>
      </trkpt>
      <trkpt lat="49.28631" lon="-0.11861">
        <ele>4.8</ele>
        <time>2023-09-03T05:32:58Z</time>
      </trkpt>
      <trkpt lat="49.2863" lon="-0.11856">
        <ele>4.8</ele>
        <time>2023-09-03T05:32:59Z</time>
      </trkpt>
      <trkpt lat="49.28628" lon="-0.11851">
        <ele>4.8</ele>
        <time>2023-09-03T05:33:00Z</time>
      </trkpt>
      <trkpt lat="49.28627" lon="-0.11846">
        <ele>4.8</ele>
        <time>2023-09-03T05:33:01Z</time>
      </trkpt>
      <trkpt lat="49.28628" lon="-0.11841">
        <ele>4.8</ele>
        <time>2023-09-03T05:33:02Z</time>
      </trkpt>
      <trkpt lat="49.28628" lon="-0.11835">
        <ele>4.8</ele>
        <time>2023-09-03T05:33:03Z</time>
      </trkpt>
      <trkpt lat="49.28629" lon="-0.1183">
        <ele>4.8</ele>
        <time>2023-09-03T05:33:04Z</time>
      </trkpt>
      <trkpt lat="49.28629" lon="-0.11825">
        <ele>4.8</ele>
        <time>2023-09-03T05:33:05Z</time>
      </trkpt>
      <trkpt lat="49.2863" lon="-0.11821">
        <ele>4.8</ele>
        <time>2023-09-03T05:33:06Z</time>
      </trkpt>
      <trkpt lat="49.28632" lon="-0.11816">
        <ele>4.8</ele>
        <time>2023-09-03T05:33:07Z</time>
      </trkpt>
      <trkpt lat="49.28633" lon="-0.11812">
        <ele>4.9</ele>
        <time>2023-09-03T05:33:08Z</time>
      </trkpt>
      <trkpt lat="49.28634" lon="-0.11806">
        <ele>4.9</ele>
        <time>2023-09-03T05:33:09Z</time>
      </trkpt>
      <trkpt lat="49.28634" lon="-0.118">
        <ele>4.9</ele>
        <time>2023-09-03T05:33:10Z</time>
      </trkpt>
      <trkpt lat="49.28635" lon="-0.11795">
        <ele>5</ele>
        <time>2023-09-03T05:33:11Z</time>
      </trkpt>
      <trkpt lat="49.28636" lon="-0.11789">
        <ele>5</ele>
        <time>2023-09-03T05:33:12Z</time>
      </trkpt>
      <trkpt lat="49.28637" lon="-0.11784">
        <ele>5</ele>
        <time>2023-09-03T05:33:13Z</time>
      </trkpt>
      <trkpt lat="49.28638" lon="-0.1178">
        <ele>5</ele>
        <time>2023-09-03T05:33:14Z</time>
      </trkpt>
      <trkpt lat="49.28639" lon="-0.11775">
        <ele>5.1</ele>
        <time>2023-09-03T05:33:15Z</time>
      </trkpt>
      <trkpt lat="49.28639" lon="-0.11771">
        <ele>5.1</ele>
        <time>2023-09-03T05:33:16Z</time>
      </trkpt>
      <trkpt lat="49.2864" lon="-0.11766">
        <ele>5.1</ele>
        <time>2023-09-03T05:33:17Z</time>
      </trkpt>
      <trkpt lat="49.28641" lon="-0.11762">
        <ele>5.1</ele>
        <time>2023-09-03T05:33:18Z</time>
      </trkpt>
      <trkpt lat="49.28642" lon="-0.11757">
        <ele>5.1</ele>
        <time>2023-09-03T05:33:19Z</time>
      </trkpt>
      <trkpt lat="49.28643" lon="-0.11753">
        <ele>5.1</ele>
        <time>2023-09-03T05:33:20Z</time>
      </trkpt>
      <trkpt lat="49.28644" lon="-0.11749">
        <ele>5.1</ele>
        <time>2023-09-03T05:33:21Z</time>
      </trkpt>
      <trkpt lat="49.28645" lon="-0.11745">
        <ele>5.2</ele>
        <time>2023-09-03T05:33:22Z</time>
      </trkpt>
      <trkpt lat="49.28647" lon="-0.1174">
        <ele>5.2</ele>
        <time>2023-09-03T05:33:23Z</time>
      </trkpt>
      <trkpt lat="49.28648" lon="-0.11736">
        <ele>5.2</ele>
        <time>2023-09-03T05:33:24Z</time>
      </trkpt>
      <trkpt lat="49.28649" lon="-0.11732">
        <ele>5.2</ele>
        <time>2023-09-03T05:33:25Z</time>
      </trkpt>
      <trkpt lat="49.2865" lon="-0.11728">
        <ele>5.2</ele>
        <time>2023-09-03T05:33:26Z</time>
      </trkpt>
      <trkpt lat="49.2865" lon="-0.11723">
        <ele>5.2</ele>
        <time>2023-09-03T05:33:27Z</time>
      </trkpt>
      <trkpt lat="49.28651" lon="-0.11719">
        <ele>5.2</ele>
        <time>2023-09-03T05:33:28Z</time>
      </trkpt>
      <trkpt lat="49.28652" lon="-0.11715">
        <ele>5.2</ele>
        <time>2023-09-03T05:33:29Z</time>
      </trkpt>
      <trkpt lat="49.28653" lon="-0.11711">
        <ele>5.2</ele>
        <time>2023-09-03T05:33:30Z</time>
      </trkpt>
      <trkpt lat="49.28653" lon="-0.11707">
        <ele>5.2</ele>
        <time>2023-09-03T05:33:31Z</time>
      </trkpt>
      <trkpt lat="49.28654" lon="-0.11701">
        <ele>5.2</ele>
        <time>2023-09-03T05:33:32Z</time>
      </trkpt>
      <trkpt lat="49.28655" lon="-0.11699">
        <ele>5.2</ele>
        <time>2023-09-03T05:33:33Z</time>
      </trkpt>
      <trkpt lat="49.28655" lon="-0.11695">
        <ele>5.2</ele>
        <time>2023-09-03T05:33:34Z</time>
      </trkpt>
      <trkpt lat="49.28656" lon="-0.11691">
        <ele>5.2</ele>
        <time>2023-09-03T05:33:35Z</time>
      </trkpt>
      <trkpt lat="49.28656" lon="-0.11687">
        <ele>5.2</ele>
        <time>2023-09-03T05:33:36Z</time>
      </trkpt>
      <trkpt lat="49.28656" lon="-0.11681">
        <ele>5.2</ele>
        <time>2023-09-03T05:33:37Z</time>
      </trkpt>
      <trkpt lat="49.28657" lon="-0.11679">
        <ele>5.2</ele>
        <time>2023-09-03T05:33:38Z</time>
      </trkpt>
      <trkpt lat="49.28658" lon="-0.11675">
        <ele>5.3</ele>
        <time>2023-09-03T05:33:39Z</time>
      </trkpt>
      <trkpt lat="49.2866" lon="-0.11671">
        <ele>5.3</ele>
        <time>2023-09-03T05:33:40Z</time>
      </trkpt>
      <trkpt lat="49.28662" lon="-0.11668">
        <ele>5.2</ele>
        <time>2023-09-03T05:33:41Z</time>
      </trkpt>
      <trkpt lat="49.28665" lon="-0.11665">
        <ele>5.2</ele>
        <time>2023-09-03T05:33:42Z</time>
      </trkpt>
      <trkpt lat="49.28666" lon="-0.11664">
        <ele>5.2</ele>
        <time>2023-09-03T05:33:43Z</time>
      </trkpt>
      <trkpt lat="49.28667" lon="-0.11663">
        <ele>5.2</ele>
        <time>2023-09-03T05:33:44Z</time>
      </trkpt>
      <trkpt lat="49.28668" lon="-0.11663">
        <ele>5.2</ele>
        <time>2023-09-03T05:33:45Z</time>
      </trkpt>
      <trkpt lat="49.28668" lon="-0.11663">
        <ele>5.2</ele>
        <time>2023-09-03T05:33:46Z</time>
      </trkpt>
      <trkpt lat="49.28669" lon="-0.11663">
        <ele>5.2</ele>
        <time>2023-09-03T05:33:47Z</time>
      </trkpt>
      <trkpt lat="49.28669" lon="-0.11663">
        <ele>5.2</ele>
        <time>2023-09-03T05:33:48Z</time>
      </trkpt>
      <trkpt lat="49.28669" lon="-0.11662">
        <ele>5.1</ele>
        <time>2023-09-03T05:33:49Z</time>
      </trkpt>
      <trkpt lat="49.2867" lon="-0.11662">
        <ele>5.1</ele>
        <time>2023-09-03T05:33:50Z</time>
      </trkpt>
      <trkpt lat="49.2867" lon="-0.11662">
        <ele>5.1</ele>
        <time>2023-09-03T05:33:51Z</time>
      </trkpt>
      <trkpt lat="49.28671" lon="-0.11662">
        <ele>5.1</ele>
        <time>2023-09-03T05:33:52Z</time>
      </trkpt>
      <trkpt lat="49.28671" lon="-0.11662">
        <ele>5.1</ele>
        <time>2023-09-03T05:33:53Z</time>
      </trkpt>
      <trkpt lat="49.28672" lon="-0.11662">
        <ele>5.1</ele>
        <time>2023-09-03T05:33:54Z</time>
      </trkpt>
      <trkpt lat="49.28672" lon="-0.11662">
        <ele>5.1</ele>
        <time>2023-09-03T05:33:55Z</time>
      </trkpt>
      <trkpt lat="49.28672" lon="-0.11662">
        <ele>5.1</ele>
        <time>2023-09-03T05:34:09Z</time>
      </trkpt>
      <trkpt lat="49.28673" lon="-0.11661">
        <ele>5.1</ele>
        <time>2023-09-03T05:34:10Z</time>
      </trkpt>
      <trkpt lat="49.28673" lon="-0.11661">
        <ele>5.1</ele>
        <time>2023-09-03T05:34:11Z</time>
      </trkpt>
      <trkpt lat="49.28676" lon="-0.11659">
        <ele>4.9</ele>
        <time>2023-09-03T05:34:12Z</time>
      </trkpt>
      <trkpt lat="49.28677" lon="-0.11659">
        <ele>4.9</ele>
        <time>2023-09-03T05:34:13Z</time>
      </trkpt>
      <trkpt lat="49.2868" lon="-0.11655">
        <ele>4.9</ele>
        <time>2023-09-03T05:34:14Z</time>
      </trkpt>
      <trkpt lat="49.28681" lon="-0.11654">
        <ele>4.9</ele>
        <time>2023-09-03T05:34:15Z</time>
      </trkpt>
      <trkpt lat="49.28682" lon="-0.11648">
        <ele>4.9</ele>
        <time>2023-09-03T05:34:16Z</time>
      </trkpt>
      <trkpt lat="49.28682" lon="-0.11646">
        <ele>4.9</ele>
        <time>2023-09-03T05:34:17Z</time>
      </trkpt>
      <trkpt lat="49.28682" lon="-0.11642">
        <ele>4.9</ele>
        <time>2023-09-03T05:34:18Z</time>
      </trkpt>
      <trkpt lat="49.28682" lon="-0.11637">
        <ele>4.9</ele>
        <time>2023-09-03T05:34:19Z</time>
      </trkpt>
      <trkpt lat="49.28682" lon="-0.11632">
        <ele>4.9</ele>
        <time>2023-09-03T05:34:20Z</time>
      </trkpt>
      <trkpt lat="49.28682" lon="-0.11626">
        <ele>4.9</ele>
        <time>2023-09-03T05:34:21Z</time>
      </trkpt>
      <trkpt lat="49.28682" lon="-0.1162">
        <ele>4.9</ele>
        <time>2023-09-03T05:34:22Z</time>
      </trkpt>
      <trkpt lat="49.28682" lon="-0.11614">
        <ele>4.9</ele>
        <time>2023-09-03T05:34:23Z</time>
      </trkpt>
      <trkpt lat="49.28682" lon="-0.11606">
        <ele>4.9</ele>
        <time>2023-09-03T05:34:24Z</time>
      </trkpt>
      <trkpt lat="49.28681" lon="-0.11599">
        <ele>4.9</ele>
        <time>2023-09-03T05:34:25Z</time>
      </trkpt>
      <trkpt lat="49.28681" lon="-0.11591">
        <ele>4.9</ele>
        <time>2023-09-03T05:34:26Z</time>
      </trkpt>
      <trkpt lat="49.2868" lon="-0.11584">
        <ele>4.9</ele>
        <time>2023-09-03T05:34:27Z</time>
      </trkpt>
      <trkpt lat="49.2868" lon="-0.11576">
        <ele>4.9</ele>
        <time>2023-09-03T05:34:28Z</time>
      </trkpt>
      <trkpt lat="49.28679" lon="-0.11568">
        <ele>4.9</ele>
        <time>2023-09-03T05:34:29Z</time>
      </trkpt>
      <trkpt lat="49.28679" lon="-0.11561">
        <ele>4.9</ele>
        <time>2023-09-03T05:34:30Z</time>
      </trkpt>
      <trkpt lat="49.28678" lon="-0.11554">
        <ele>4.8</ele>
        <time>2023-09-03T05:34:31Z</time>
      </trkpt>
      <trkpt lat="49.28677" lon="-0.11547">
        <ele>4.8</ele>
        <time>2023-09-03T05:34:32Z</time>
      </trkpt>
      <trkpt lat="49.28676" lon="-0.1154">
        <ele>4.8</ele>
        <time>2023-09-03T05:34:33Z</time>
      </trkpt>
      <trkpt lat="49.28675" lon="-0.11534">
        <ele>4.8</ele>
        <time>2023-09-03T05:34:34Z</time>
      </trkpt>
      <trkpt lat="49.28674" lon="-0.11527">
        <ele>4.8</ele>
        <time>2023-09-03T05:34:35Z</time>
      </trkpt>
      <trkpt lat="49.28673" lon="-0.11519">
        <ele>4.8</ele>
        <time>2023-09-03T05:34:36Z</time>
      </trkpt>
      <trkpt lat="49.28672" lon="-0.11512">
        <ele>4.9</ele>
        <time>2023-09-03T05:34:37Z</time>
      </trkpt>
      <trkpt lat="49.2867" lon="-0.11505">
        <ele>4.9</ele>
        <time>2023-09-03T05:34:38Z</time>
      </trkpt>
      <trkpt lat="49.28667" lon="-0.11498">
        <ele>4.9</ele>
        <time>2023-09-03T05:34:39Z</time>
      </trkpt>
      <trkpt lat="49.28665" lon="-0.11491">
        <ele>4.9</ele>
        <time>2023-09-03T05:34:40Z</time>
      </trkpt>
      <trkpt lat="49.28664" lon="-0.11484">
        <ele>4.9</ele>
        <time>2023-09-03T05:34:41Z</time>
      </trkpt>
      <trkpt lat="49.28662" lon="-0.11477">
        <ele>4.9</ele>
        <time>2023-09-03T05:34:42Z</time>
      </trkpt>
      <trkpt lat="49.2866" lon="-0.1147">
        <ele>4.9</ele>
        <time>2023-09-03T05:34:43Z</time>
      </trkpt>
      <trkpt lat="49.28658" lon="-0.11463">
        <ele>4.9</ele>
        <time>2023-09-03T05:34:44Z</time>
      </trkpt>
      <trkpt lat="49.28656" lon="-0.11456">
        <ele>4.9</ele>
        <time>2023-09-03T05:34:45Z</time>
      </trkpt>
      <trkpt lat="49.28654" lon="-0.11449">
        <ele>4.9</ele>
        <time>2023-09-03T05:34:46Z</time>
      </trkpt>
      <trkpt lat="49.28652" lon="-0.11442">
        <ele>4.9</ele>
        <time>2023-09-03T05:34:47Z</time>
      </trkpt>
      <trkpt lat="49.2865" lon="-0.11435">
        <ele>4.9</ele>
        <time>2023-09-03T05:34:48Z</time>
      </trkpt>
      <trkpt lat="49.28648" lon="-0.11428">
        <ele>4.9</ele>
        <time>2023-09-03T05:34:49Z</time>
      </trkpt>
      <trkpt lat="49.28646" lon="-0.11421">
        <ele>5</ele>
        <time>2023-09-03T05:34:50Z</time>
      </trkpt>
      <trkpt lat="49.28644" lon="-0.11414">
        <ele>5</ele>
        <time>2023-09-03T05:34:51Z</time>
      </trkpt>
      <trkpt lat="49.28641" lon="-0.11408">
        <ele>5</ele>
        <time>2023-09-03T05:34:52Z</time>
      </trkpt>
      <trkpt lat="49.28639" lon="-0.11401">
        <ele>5</ele>
        <time>2023-09-03T05:34:53Z</time>
      </trkpt>
      <trkpt lat="49.28637" lon="-0.11394">
        <ele>5</ele>
        <time>2023-09-03T05:34:54Z</time>
      </trkpt>
      <trkpt lat="49.28636" lon="-0.11387">
        <ele>5.1</ele>
        <time>2023-09-03T05:34:55Z</time>
      </trkpt>
      <trkpt lat="49.28633" lon="-0.11381">
        <ele>5.1</ele>
        <time>2023-09-03T05:34:56Z</time>
      </trkpt>
      <trkpt lat="49.28632" lon="-0.11374">
        <ele>5.1</ele>
        <time>2023-09-03T05:34:57Z</time>
      </trkpt>
      <trkpt lat="49.2863" lon="-0.11368">
        <ele>5.1</ele>
        <time>2023-09-03T05:34:58Z</time>
      </trkpt>
      <trkpt lat="49.28628" lon="-0.11363">
        <ele>5.2</ele>
        <time>2023-09-03T05:34:59Z</time>
      </trkpt>
      <trkpt lat="49.28627" lon="-0.11357">
        <ele>5.2</ele>
        <time>2023-09-03T05:35:00Z</time>
      </trkpt>
      <trkpt lat="49.28625" lon="-0.1135">
        <ele>5.2</ele>
        <time>2023-09-03T05:35:01Z</time>
      </trkpt>
      <trkpt lat="49.28623" lon="-0.11345">
        <ele>5.3</ele>
        <time>2023-09-03T05:35:02Z</time>
      </trkpt>
      <trkpt lat="49.28622" lon="-0.1134">
        <ele>5.3</ele>
        <time>2023-09-03T05:35:03Z</time>
      </trkpt>
      <trkpt lat="49.28621" lon="-0.11335">
        <ele>5.4</ele>
        <time>2023-09-03T05:35:04Z</time>
      </trkpt>
      <trkpt lat="49.2862" lon="-0.1133">
        <ele>5.4</ele>
        <time>2023-09-03T05:35:05Z</time>
      </trkpt>
      <trkpt lat="49.28619" lon="-0.11326">
        <ele>5.4</ele>
        <time>2023-09-03T05:35:06Z</time>
      </trkpt>
      <trkpt lat="49.28618" lon="-0.11322">
        <ele>5.5</ele>
        <time>2023-09-03T05:35:07Z</time>
      </trkpt>
      <trkpt lat="49.28616" lon="-0.11318">
        <ele>5.5</ele>
        <time>2023-09-03T05:35:08Z</time>
      </trkpt>
      <trkpt lat="49.28615" lon="-0.11313">
        <ele>5.5</ele>
        <time>2023-09-03T05:35:09Z</time>
      </trkpt>
      <trkpt lat="49.28614" lon="-0.11308">
        <ele>5.5</ele>
        <time>2023-09-03T05:35:10Z</time>
      </trkpt>
      <trkpt lat="49.28612" lon="-0.11303">
        <ele>5.6</ele>
        <time>2023-09-03T05:35:11Z</time>
      </trkpt>
      <trkpt lat="49.28611" lon="-0.11298">
        <ele>5.6</ele>
        <time>2023-09-03T05:35:12Z</time>
      </trkpt>
      <trkpt lat="49.2861" lon="-0.11294">
        <ele>5.6</ele>
        <time>2023-09-03T05:35:13Z</time>
      </trkpt>
      <trkpt lat="49.28609" lon="-0.1129">
        <ele>5.6</ele>
        <time>2023-09-03T05:35:14Z</time>
      </trkpt>
      <trkpt lat="49.28608" lon="-0.11285">
        <ele>5.6</ele>
        <time>2023-09-03T05:35:15Z</time>
      </trkpt>
      <trkpt lat="49.28607" lon="-0.1128">
        <ele>5.6</ele>
        <time>2023-09-03T05:35:16Z</time>
      </trkpt>
      <trkpt lat="49.28605" lon="-0.11275">
        <ele>5.7</ele>
        <time>2023-09-03T05:35:17Z</time>
      </trkpt>
      <trkpt lat="49.28604" lon="-0.1127">
        <ele>5.7</ele>
        <time>2023-09-03T05:35:18Z</time>
      </trkpt>
      <trkpt lat="49.28603" lon="-0.11265">
        <ele>5.7</ele>
        <time>2023-09-03T05:35:19Z</time>
      </trkpt>
      <trkpt lat="49.28601" lon="-0.11259">
        <ele>5.7</ele>
        <time>2023-09-03T05:35:20Z</time>
      </trkpt>
      <trkpt lat="49.28598" lon="-0.11254">
        <ele>5.8</ele>
        <time>2023-09-03T05:35:21Z</time>
      </trkpt>
      <trkpt lat="49.28595" lon="-0.1125">
        <ele>5.8</ele>
        <time>2023-09-03T05:35:22Z</time>
      </trkpt>
      <trkpt lat="49.28593" lon="-0.11245">
        <ele>5.9</ele>
        <time>2023-09-03T05:35:23Z</time>
      </trkpt>
      <trkpt lat="49.28592" lon="-0.11239">
        <ele>6</ele>
        <time>2023-09-03T05:35:24Z</time>
      </trkpt>
      <trkpt lat="49.28591" lon="-0.11232">
        <ele>6.1</ele>
        <time>2023-09-03T05:35:25Z</time>
      </trkpt>
      <trkpt lat="49.28591" lon="-0.11226">
        <ele>6.3</ele>
        <time>2023-09-03T05:35:26Z</time>
      </trkpt>
      <trkpt lat="49.2859" lon="-0.11219">
        <ele>6.4</ele>
        <time>2023-09-03T05:35:27Z</time>
      </trkpt>
      <trkpt lat="49.28589" lon="-0.11213">
        <ele>6.4</ele>
        <time>2023-09-03T05:35:28Z</time>
      </trkpt>
      <trkpt lat="49.28587" lon="-0.11208">
        <ele>6.4</ele>
        <time>2023-09-03T05:35:29Z</time>
      </trkpt>
      <trkpt lat="49.28586" lon="-0.11202">
        <ele>6.4</ele>
        <time>2023-09-03T05:35:30Z</time>
      </trkpt>
      <trkpt lat="49.28584" lon="-0.11196">
        <ele>6.4</ele>
        <time>2023-09-03T05:35:31Z</time>
      </trkpt>
      <trkpt lat="49.28583" lon="-0.1119">
        <ele>6.4</ele>
        <time>2023-09-03T05:35:32Z</time>
      </trkpt>
      <trkpt lat="49.28582" lon="-0.11184">
        <ele>6.4</ele>
        <time>2023-09-03T05:35:33Z</time>
      </trkpt>
      <trkpt lat="49.2858" lon="-0.11178">
        <ele>6.4</ele>
        <time>2023-09-03T05:35:34Z</time>
      </trkpt>
      <trkpt lat="49.28578" lon="-0.11172">
        <ele>6.4</ele>
        <time>2023-09-03T05:35:35Z</time>
      </trkpt>
      <trkpt lat="49.28577" lon="-0.11166">
        <ele>6.4</ele>
        <time>2023-09-03T05:35:36Z</time>
      </trkpt>
      <trkpt lat="49.28575" lon="-0.1116">
        <ele>6.4</ele>
        <time>2023-09-03T05:35:37Z</time>
      </trkpt>
      <trkpt lat="49.28574" lon="-0.11154">
        <ele>6.4</ele>
        <time>2023-09-03T05:35:38Z</time>
      </trkpt>
      <trkpt lat="49.28572" lon="-0.11149">
        <ele>6.3</ele>
        <time>2023-09-03T05:35:39Z</time>
      </trkpt>
      <trkpt lat="49.28571" lon="-0.11143">
        <ele>6.3</ele>
        <time>2023-09-03T05:35:40Z</time>
      </trkpt>
      <trkpt lat="49.28569" lon="-0.11137">
        <ele>6.3</ele>
        <time>2023-09-03T05:35:41Z</time>
      </trkpt>
      <trkpt lat="49.28568" lon="-0.1113">
        <ele>6.3</ele>
        <time>2023-09-03T05:35:42Z</time>
      </trkpt>
      <trkpt lat="49.28567" lon="-0.11124">
        <ele>6.2</ele>
        <time>2023-09-03T05:35:43Z</time>
      </trkpt>
      <trkpt lat="49.28565" lon="-0.11119">
        <ele>6.2</ele>
        <time>2023-09-03T05:35:44Z</time>
      </trkpt>
      <trkpt lat="49.28563" lon="-0.11113">
        <ele>6.2</ele>
        <time>2023-09-03T05:35:45Z</time>
      </trkpt>
      <trkpt lat="49.28561" lon="-0.11106">
        <ele>6.1</ele>
        <time>2023-09-03T05:35:46Z</time>
      </trkpt>
      <trkpt lat="49.28559" lon="-0.11099">
        <ele>6.1</ele>
        <time>2023-09-03T05:35:47Z</time>
      </trkpt>
      <trkpt lat="49.28557" lon="-0.11092">
        <ele>6</ele>
        <time>2023-09-03T05:35:48Z</time>
      </trkpt>
      <trkpt lat="49.28555" lon="-0.11085">
        <ele>6</ele>
        <time>2023-09-03T05:35:49Z</time>
      </trkpt>
      <trkpt lat="49.28553" lon="-0.11078">
        <ele>5.9</ele>
        <time>2023-09-03T05:35:50Z</time>
      </trkpt>
      <trkpt lat="49.28551" lon="-0.11071">
        <ele>5.8</ele>
        <time>2023-09-03T05:35:51Z</time>
      </trkpt>
      <trkpt lat="49.2855" lon="-0.11064">
        <ele>5.8</ele>
        <time>2023-09-03T05:35:52Z</time>
      </trkpt>
      <trkpt lat="49.28548" lon="-0.11057">
        <ele>5.7</ele>
        <time>2023-09-03T05:35:53Z</time>
      </trkpt>
      <trkpt lat="49.28547" lon="-0.1105">
        <ele>5.7</ele>
        <time>2023-09-03T05:35:54Z</time>
      </trkpt>
      <trkpt lat="49.28545" lon="-0.11043">
        <ele>5.6</ele>
        <time>2023-09-03T05:35:55Z</time>
      </trkpt>
      <trkpt lat="49.28543" lon="-0.11035">
        <ele>5.6</ele>
        <time>2023-09-03T05:35:56Z</time>
      </trkpt>
      <trkpt lat="49.28542" lon="-0.11028">
        <ele>5.5</ele>
        <time>2023-09-03T05:35:57Z</time>
      </trkpt>
      <trkpt lat="49.2854" lon="-0.1102">
        <ele>5.4</ele>
        <time>2023-09-03T05:35:58Z</time>
      </trkpt>
      <trkpt lat="49.28538" lon="-0.11013">
        <ele>5.4</ele>
        <time>2023-09-03T05:35:59Z</time>
      </trkpt>
      <trkpt lat="49.28536" lon="-0.11006">
        <ele>5.3</ele>
        <time>2023-09-03T05:36:00Z</time>
      </trkpt>
      <trkpt lat="49.28534" lon="-0.10998">
        <ele>5.2</ele>
        <time>2023-09-03T05:36:01Z</time>
      </trkpt>
      <trkpt lat="49.28533" lon="-0.1099">
        <ele>5.2</ele>
        <time>2023-09-03T05:36:02Z</time>
      </trkpt>
      <trkpt lat="49.28531" lon="-0.10981">
        <ele>5.1</ele>
        <time>2023-09-03T05:36:03Z</time>
      </trkpt>
      <trkpt lat="49.2853" lon="-0.10973">
        <ele>5.1</ele>
        <time>2023-09-03T05:36:04Z</time>
      </trkpt>
      <trkpt lat="49.28529" lon="-0.10965">
        <ele>5</ele>
        <time>2023-09-03T05:36:05Z</time>
      </trkpt>
      <trkpt lat="49.28527" lon="-0.10957">
        <ele>5</ele>
        <time>2023-09-03T05:36:06Z</time>
      </trkpt>
      <trkpt lat="49.28526" lon="-0.10949">
        <ele>4.9</ele>
        <time>2023-09-03T05:36:07Z</time>
      </trkpt>
      <trkpt lat="49.28526" lon="-0.10942">
        <ele>4.9</ele>
        <time>2023-09-03T05:36:08Z</time>
      </trkpt>
      <trkpt lat="49.28525" lon="-0.10936">
        <ele>4.9</ele>
        <time>2023-09-03T05:36:09Z</time>
      </trkpt>
      <trkpt lat="49.28524" lon="-0.10929">
        <ele>4.9</ele>
        <time>2023-09-03T05:36:10Z</time>
      </trkpt>
      <trkpt lat="49.28524" lon="-0.10923">
        <ele>4.9</ele>
        <time>2023-09-03T05:36:11Z</time>
      </trkpt>
      <trkpt lat="49.28524" lon="-0.10916">
        <ele>4.8</ele>
        <time>2023-09-03T05:36:12Z</time>
      </trkpt>
      <trkpt lat="49.28525" lon="-0.10911">
        <ele>4.8</ele>
        <time>2023-09-03T05:36:13Z</time>
      </trkpt>
      <trkpt lat="49.28525" lon="-0.10904">
        <ele>4.8</ele>
        <time>2023-09-03T05:36:14Z</time>
      </trkpt>
      <trkpt lat="49.28524" lon="-0.10897">
        <ele>4.9</ele>
        <time>2023-09-03T05:36:15Z</time>
      </trkpt>
      <trkpt lat="49.28523" lon="-0.10891">
        <ele>4.9</ele>
        <time>2023-09-03T05:36:16Z</time>
      </trkpt>
      <trkpt lat="49.28523" lon="-0.10884">
        <ele>4.9</ele>
        <time>2023-09-03T05:36:17Z</time>
      </trkpt>
      <trkpt lat="49.28523" lon="-0.10878">
        <ele>4.9</ele>
        <time>2023-09-03T05:36:18Z</time>
      </trkpt>
      <trkpt lat="49.28523" lon="-0.10871">
        <ele>4.8</ele>
        <time>2023-09-03T05:36:19Z</time>
      </trkpt>
      <trkpt lat="49.28523" lon="-0.10865">
        <ele>4.8</ele>
        <time>2023-09-03T05:36:20Z</time>
      </trkpt>
      <trkpt lat="49.28523" lon="-0.10859">
        <ele>4.8</ele>
        <time>2023-09-03T05:36:21Z</time>
      </trkpt>
      <trkpt lat="49.28524" lon="-0.10854">
        <ele>4.8</ele>
        <time>2023-09-03T05:36:22Z</time>
      </trkpt>
      <trkpt lat="49.28526" lon="-0.10849">
        <ele>4.8</ele>
        <time>2023-09-03T05:36:23Z</time>
      </trkpt>
      <trkpt lat="49.28529" lon="-0.10846">
        <ele>4.7</ele>
        <time>2023-09-03T05:36:24Z</time>
      </trkpt>
      <trkpt lat="49.28533" lon="-0.10844">
        <ele>4.7</ele>
        <time>2023-09-03T05:36:25Z</time>
      </trkpt>
      <trkpt lat="49.28537" lon="-0.10841">
        <ele>4.7</ele>
        <time>2023-09-03T05:36:26Z</time>
      </trkpt>
      <trkpt lat="49.28542" lon="-0.10839">
        <ele>4.7</ele>
        <time>2023-09-03T05:36:27Z</time>
      </trkpt>
      <trkpt lat="49.28547" lon="-0.10836">
        <ele>4.7</ele>
        <time>2023-09-03T05:36:28Z</time>
      </trkpt>
      <trkpt lat="49.28551" lon="-0.10834">
        <ele>4.7</ele>
        <time>2023-09-03T05:36:29Z</time>
      </trkpt>
      <trkpt lat="49.28556" lon="-0.10832">
        <ele>4.7</ele>
        <time>2023-09-03T05:36:30Z</time>
      </trkpt>
      <trkpt lat="49.2856" lon="-0.10829">
        <ele>4.7</ele>
        <time>2023-09-03T05:36:31Z</time>
      </trkpt>
      <trkpt lat="49.28564" lon="-0.10827">
        <ele>4.7</ele>
        <time>2023-09-03T05:36:32Z</time>
      </trkpt>
      <trkpt lat="49.28568" lon="-0.10824">
        <ele>4.7</ele>
        <time>2023-09-03T05:36:33Z</time>
      </trkpt>
      <trkpt lat="49.28572" lon="-0.10822">
        <ele>4.7</ele>
        <time>2023-09-03T05:36:34Z</time>
      </trkpt>
      <trkpt lat="49.28577" lon="-0.1082">
        <ele>4.7</ele>
        <time>2023-09-03T05:36:35Z</time>
      </trkpt>
      <trkpt lat="49.28581" lon="-0.10818">
        <ele>4.7</ele>
        <time>2023-09-03T05:36:36Z</time>
      </trkpt>
      <trkpt lat="49.28585" lon="-0.10816">
        <ele>4.7</ele>
        <time>2023-09-03T05:36:37Z</time>
      </trkpt>
      <trkpt lat="49.2859" lon="-0.10814">
        <ele>4.8</ele>
        <time>2023-09-03T05:36:38Z</time>
      </trkpt>
      <trkpt lat="49.28594" lon="-0.10811">
        <ele>4.8</ele>
        <time>2023-09-03T05:36:39Z</time>
      </trkpt>
      <trkpt lat="49.28599" lon="-0.10809">
        <ele>4.8</ele>
        <time>2023-09-03T05:36:40Z</time>
      </trkpt>
      <trkpt lat="49.28603" lon="-0.10805">
        <ele>4.8</ele>
        <time>2023-09-03T05:36:41Z</time>
      </trkpt>
      <trkpt lat="49.28607" lon="-0.10801">
        <ele>4.8</ele>
        <time>2023-09-03T05:36:42Z</time>
      </trkpt>
      <trkpt lat="49.28611" lon="-0.10796">
        <ele>4.8</ele>
        <time>2023-09-03T05:36:43Z</time>
      </trkpt>
      <trkpt lat="49.28612" lon="-0.10789">
        <ele>4.8</ele>
        <time>2023-09-03T05:36:44Z</time>
      </trkpt>
      <trkpt lat="49.28614" lon="-0.10783">
        <ele>4.8</ele>
        <time>2023-09-03T05:36:45Z</time>
      </trkpt>
      <trkpt lat="49.28617" lon="-0.10776">
        <ele>4.8</ele>
        <time>2023-09-03T05:36:46Z</time>
      </trkpt>
      <trkpt lat="49.2862" lon="-0.10769">
        <ele>4.8</ele>
        <time>2023-09-03T05:36:47Z</time>
      </trkpt>
      <trkpt lat="49.28623" lon="-0.10763">
        <ele>4.8</ele>
        <time>2023-09-03T05:36:48Z</time>
      </trkpt>
      <trkpt lat="49.28627" lon="-0.10757">
        <ele>4.8</ele>
        <time>2023-09-03T05:36:49Z</time>
      </trkpt>
      <trkpt lat="49.28631" lon="-0.10752">
        <ele>4.8</ele>
        <time>2023-09-03T05:36:50Z</time>
      </trkpt>
      <trkpt lat="49.28635" lon="-0.10747">
        <ele>4.7</ele>
        <time>2023-09-03T05:36:51Z</time>
      </trkpt>
      <trkpt lat="49.28639" lon="-0.10743">
        <ele>4.7</ele>
        <time>2023-09-03T05:36:52Z</time>
      </trkpt>
      <trkpt lat="49.28643" lon="-0.10739">
        <ele>4.7</ele>
        <time>2023-09-03T05:36:53Z</time>
      </trkpt>
      <trkpt lat="49.28647" lon="-0.10736">
        <ele>4.7</ele>
        <time>2023-09-03T05:36:54Z</time>
      </trkpt>
      <trkpt lat="49.28651" lon="-0.10732">
        <ele>4.7</ele>
        <time>2023-09-03T05:36:55Z</time>
      </trkpt>
      <trkpt lat="49.28655" lon="-0.10729">
        <ele>4.7</ele>
        <time>2023-09-03T05:36:56Z</time>
      </trkpt>
      <trkpt lat="49.28659" lon="-0.10726">
        <ele>4.7</ele>
        <time>2023-09-03T05:36:57Z</time>
      </trkpt>
      <trkpt lat="49.28663" lon="-0.10723">
        <ele>4.6</ele>
        <time>2023-09-03T05:36:58Z</time>
      </trkpt>
      <trkpt lat="49.28668" lon="-0.10721">
        <ele>4.6</ele>
        <time>2023-09-03T05:36:59Z</time>
      </trkpt>
      <trkpt lat="49.28673" lon="-0.1072">
        <ele>4.6</ele>
        <time>2023-09-03T05:37:00Z</time>
      </trkpt>
      <trkpt lat="49.28679" lon="-0.10718">
        <ele>4.6</ele>
        <time>2023-09-03T05:37:01Z</time>
      </trkpt>
      <trkpt lat="49.28683" lon="-0.10713">
        <ele>4.6</ele>
        <time>2023-09-03T05:37:02Z</time>
      </trkpt>
      <trkpt lat="49.28688" lon="-0.10708">
        <ele>4.6</ele>
        <time>2023-09-03T05:37:03Z</time>
      </trkpt>
      <trkpt lat="49.28692" lon="-0.10702">
        <ele>4.5</ele>
        <time>2023-09-03T05:37:04Z</time>
      </trkpt>
      <trkpt lat="49.28696" lon="-0.10696">
        <ele>4.5</ele>
        <time>2023-09-03T05:37:05Z</time>
      </trkpt>
      <trkpt lat="49.287" lon="-0.10691">
        <ele>4.5</ele>
        <time>2023-09-03T05:37:06Z</time>
      </trkpt>
      <trkpt lat="49.28705" lon="-0.10685">
        <ele>4.5</ele>
        <time>2023-09-03T05:37:07Z</time>
      </trkpt>
      <trkpt lat="49.28709" lon="-0.10679">
        <ele>4.4</ele>
        <time>2023-09-03T05:37:08Z</time>
      </trkpt>
      <trkpt lat="49.28713" lon="-0.10673">
        <ele>4.4</ele>
        <time>2023-09-03T05:37:09Z</time>
      </trkpt>
      <trkpt lat="49.28717" lon="-0.10666">
        <ele>4.4</ele>
        <time>2023-09-03T05:37:10Z</time>
      </trkpt>
      <trkpt lat="49.2872" lon="-0.1066">
        <ele>4.3</ele>
        <time>2023-09-03T05:37:11Z</time>
      </trkpt>
      <trkpt lat="49.28724" lon="-0.10654">
        <ele>4.3</ele>
        <time>2023-09-03T05:37:12Z</time>
      </trkpt>
      <trkpt lat="49.28727" lon="-0.10647">
        <ele>4.3</ele>
        <time>2023-09-03T05:37:13Z</time>
      </trkpt>
      <trkpt lat="49.28731" lon="-0.1064">
        <ele>4.3</ele>
        <time>2023-09-03T05:37:14Z</time>
      </trkpt>
      <trkpt lat="49.28734" lon="-0.10633">
        <ele>4.3</ele>
        <time>2023-09-03T05:37:15Z</time>
      </trkpt>
      <trkpt lat="49.28737" lon="-0.10626">
        <ele>4.3</ele>
        <time>2023-09-03T05:37:16Z</time>
      </trkpt>
      <trkpt lat="49.28741" lon="-0.1062">
        <ele>4.3</ele>
        <time>2023-09-03T05:37:17Z</time>
      </trkpt>
      <trkpt lat="49.28744" lon="-0.10614">
        <ele>4.3</ele>
        <time>2023-09-03T05:37:18Z</time>
      </trkpt>
      <trkpt lat="49.28747" lon="-0.10609">
        <ele>4.3</ele>
        <time>2023-09-03T05:37:19Z</time>
      </trkpt>
      <trkpt lat="49.2875" lon="-0.10604">
        <ele>4.3</ele>
        <time>2023-09-03T05:37:20Z</time>
      </trkpt>
      <trkpt lat="49.28753" lon="-0.10598">
        <ele>4.3</ele>
        <time>2023-09-03T05:37:21Z</time>
      </trkpt>
      <trkpt lat="49.28755" lon="-0.10593">
        <ele>4.3</ele>
        <time>2023-09-03T05:37:22Z</time>
      </trkpt>
      <trkpt lat="49.28758" lon="-0.10588">
        <ele>4.3</ele>
        <time>2023-09-03T05:37:23Z</time>
      </trkpt>
      <trkpt lat="49.2876" lon="-0.10581">
        <ele>4.3</ele>
        <time>2023-09-03T05:37:24Z</time>
      </trkpt>
      <trkpt lat="49.28761" lon="-0.10574">
        <ele>4.3</ele>
        <time>2023-09-03T05:37:25Z</time>
      </trkpt>
      <trkpt lat="49.28763" lon="-0.10567">
        <ele>4.2</ele>
        <time>2023-09-03T05:37:26Z</time>
      </trkpt>
      <trkpt lat="49.28764" lon="-0.1056">
        <ele>4.3</ele>
        <time>2023-09-03T05:37:27Z</time>
      </trkpt>
      <trkpt lat="49.28767" lon="-0.10553">
        <ele>4.3</ele>
        <time>2023-09-03T05:37:28Z</time>
      </trkpt>
      <trkpt lat="49.2877" lon="-0.10545">
        <ele>4.3</ele>
        <time>2023-09-03T05:37:29Z</time>
      </trkpt>
      <trkpt lat="49.28773" lon="-0.10538">
        <ele>4.2</ele>
        <time>2023-09-03T05:37:30Z</time>
      </trkpt>
      <trkpt lat="49.28776" lon="-0.10532">
        <ele>4.2</ele>
        <time>2023-09-03T05:37:31Z</time>
      </trkpt>
      <trkpt lat="49.28779" lon="-0.10525">
        <ele>4.1</ele>
        <time>2023-09-03T05:37:32Z</time>
      </trkpt>
      <trkpt lat="49.28782" lon="-0.10519">
        <ele>4.1</ele>
        <time>2023-09-03T05:37:33Z</time>
      </trkpt>
      <trkpt lat="49.28785" lon="-0.10513">
        <ele>4</ele>
        <time>2023-09-03T05:37:34Z</time>
      </trkpt>
      <trkpt lat="49.28788" lon="-0.10506">
        <ele>4</ele>
        <time>2023-09-03T05:37:35Z</time>
      </trkpt>
      <trkpt lat="49.28791" lon="-0.105">
        <ele>3.9</ele>
        <time>2023-09-03T05:37:36Z</time>
      </trkpt>
      <trkpt lat="49.28795" lon="-0.10493">
        <ele>3.9</ele>
        <time>2023-09-03T05:37:37Z</time>
      </trkpt>
      <trkpt lat="49.28798" lon="-0.10487">
        <ele>3.9</ele>
        <time>2023-09-03T05:37:38Z</time>
      </trkpt>
      <trkpt lat="49.28802" lon="-0.10481">
        <ele>3.9</ele>
        <time>2023-09-03T05:37:39Z</time>
      </trkpt>
      <trkpt lat="49.28806" lon="-0.10475">
        <ele>3.9</ele>
        <time>2023-09-03T05:37:40Z</time>
      </trkpt>
      <trkpt lat="49.2881" lon="-0.1047">
        <ele>3.9</ele>
        <time>2023-09-03T05:37:41Z</time>
      </trkpt>
      <trkpt lat="49.28813" lon="-0.10464">
        <ele>3.9</ele>
        <time>2023-09-03T05:37:42Z</time>
      </trkpt>
      <trkpt lat="49.28817" lon="-0.10457">
        <ele>3.9</ele>
        <time>2023-09-03T05:37:43Z</time>
      </trkpt>
      <trkpt lat="49.2882" lon="-0.10452">
        <ele>3.9</ele>
        <time>2023-09-03T05:37:44Z</time>
      </trkpt>
      <trkpt lat="49.28824" lon="-0.10446">
        <ele>3.9</ele>
        <time>2023-09-03T05:37:45Z</time>
      </trkpt>
      <trkpt lat="49.28828" lon="-0.1044">
        <ele>3.9</ele>
        <time>2023-09-03T05:37:46Z</time>
      </trkpt>
      <trkpt lat="49.28832" lon="-0.10435">
        <ele>3.9</ele>
        <time>2023-09-03T05:37:47Z</time>
      </trkpt>
      <trkpt lat="49.28835" lon="-0.10429">
        <ele>3.9</ele>
        <time>2023-09-03T05:37:48Z</time>
      </trkpt>
      <trkpt lat="49.28839" lon="-0.10422">
        <ele>3.9</ele>
        <time>2023-09-03T05:37:49Z</time>
      </trkpt>
      <trkpt lat="49.28843" lon="-0.10416">
        <ele>3.9</ele>
        <time>2023-09-03T05:37:50Z</time>
      </trkpt>
      <trkpt lat="49.28847" lon="-0.1041">
        <ele>4</ele>
        <time>2023-09-03T05:37:51Z</time>
      </trkpt>
      <trkpt lat="49.28851" lon="-0.10404">
        <ele>4</ele>
        <time>2023-09-03T05:37:52Z</time>
      </trkpt>
      <trkpt lat="49.28855" lon="-0.10397">
        <ele>4</ele>
        <time>2023-09-03T05:37:53Z</time>
      </trkpt>
      <trkpt lat="49.28859" lon="-0.10391">
        <ele>4</ele>
        <time>2023-09-03T05:37:54Z</time>
      </trkpt>
      <trkpt lat="49.28864" lon="-0.10386">
        <ele>4</ele>
        <time>2023-09-03T05:37:55Z</time>
      </trkpt>
      <trkpt lat="49.28868" lon="-0.10381">
        <ele>4.1</ele>
        <time>2023-09-03T05:37:56Z</time>
      </trkpt>
      <trkpt lat="49.28873" lon="-0.10376">
        <ele>4.1</ele>
        <time>2023-09-03T05:37:57Z</time>
      </trkpt>
      <trkpt lat="49.28878" lon="-0.10371">
        <ele>4.1</ele>
        <time>2023-09-03T05:37:58Z</time>
      </trkpt>
      <trkpt lat="49.28882" lon="-0.10367">
        <ele>4.1</ele>
        <time>2023-09-03T05:37:59Z</time>
      </trkpt>
      <trkpt lat="49.28887" lon="-0.10364">
        <ele>4.1</ele>
        <time>2023-09-03T05:38:00Z</time>
      </trkpt>
      <trkpt lat="49.28891" lon="-0.10359">
        <ele>4.2</ele>
        <time>2023-09-03T05:38:01Z</time>
      </trkpt>
      <trkpt lat="49.28896" lon="-0.10355">
        <ele>4.2</ele>
        <time>2023-09-03T05:38:02Z</time>
      </trkpt>
      <trkpt lat="49.28901" lon="-0.10351">
        <ele>4.2</ele>
        <time>2023-09-03T05:38:03Z</time>
      </trkpt>
      <trkpt lat="49.28905" lon="-0.10347">
        <ele>4.2</ele>
        <time>2023-09-03T05:38:04Z</time>
      </trkpt>
      <trkpt lat="49.2891" lon="-0.10342">
        <ele>4.2</ele>
        <time>2023-09-03T05:38:05Z</time>
      </trkpt>
      <trkpt lat="49.28915" lon="-0.10337">
        <ele>4.2</ele>
        <time>2023-09-03T05:38:06Z</time>
      </trkpt>
      <trkpt lat="49.28919" lon="-0.10332">
        <ele>4.2</ele>
        <time>2023-09-03T05:38:07Z</time>
      </trkpt>
      <trkpt lat="49.28923" lon="-0.10328">
        <ele>4.2</ele>
        <time>2023-09-03T05:38:08Z</time>
      </trkpt>
      <trkpt lat="49.28928" lon="-0.10323">
        <ele>4.2</ele>
        <time>2023-09-03T05:38:09Z</time>
      </trkpt>
      <trkpt lat="49.28932" lon="-0.10318">
        <ele>4.2</ele>
        <time>2023-09-03T05:38:10Z</time>
      </trkpt>
      <trkpt lat="49.28936" lon="-0.10312">
        <ele>4.2</ele>
        <time>2023-09-03T05:38:11Z</time>
      </trkpt>
      <trkpt lat="49.28939" lon="-0.10306">
        <ele>4.2</ele>
        <time>2023-09-03T05:38:12Z</time>
      </trkpt>
      <trkpt lat="49.28942" lon="-0.10301">
        <ele>4.2</ele>
        <time>2023-09-03T05:38:13Z</time>
      </trkpt>
      <trkpt lat="49.28945" lon="-0.10294">
        <ele>4.2</ele>
        <time>2023-09-03T05:38:14Z</time>
      </trkpt>
      <trkpt lat="49.28948" lon="-0.10287">
        <ele>4.2</ele>
        <time>2023-09-03T05:38:15Z</time>
      </trkpt>
      <trkpt lat="49.28951" lon="-0.1028">
        <ele>4.2</ele>
        <time>2023-09-03T05:38:16Z</time>
      </trkpt>
      <trkpt lat="49.28954" lon="-0.10274">
        <ele>4.2</ele>
        <time>2023-09-03T05:38:17Z</time>
      </trkpt>
      <trkpt lat="49.28957" lon="-0.10267">
        <ele>4.1</ele>
        <time>2023-09-03T05:38:18Z</time>
      </trkpt>
      <trkpt lat="49.2896" lon="-0.1026">
        <ele>4.1</ele>
        <time>2023-09-03T05:38:19Z</time>
      </trkpt>
      <trkpt lat="49.28963" lon="-0.10254">
        <ele>4.2</ele>
        <time>2023-09-03T05:38:20Z</time>
      </trkpt>
      <trkpt lat="49.28967" lon="-0.10249">
        <ele>4.2</ele>
        <time>2023-09-03T05:38:21Z</time>
      </trkpt>
      <trkpt lat="49.28972" lon="-0.10245">
        <ele>4.2</ele>
        <time>2023-09-03T05:38:22Z</time>
      </trkpt>
      <trkpt lat="49.28977" lon="-0.1024">
        <ele>4.2</ele>
        <time>2023-09-03T05:38:23Z</time>
      </trkpt>
      <trkpt lat="49.28981" lon="-0.10233">
        <ele>4.2</ele>
        <time>2023-09-03T05:38:24Z</time>
      </trkpt>
      <trkpt lat="49.28986" lon="-0.10227">
        <ele>4.2</ele>
        <time>2023-09-03T05:38:25Z</time>
      </trkpt>
      <trkpt lat="49.2899" lon="-0.10221">
        <ele>4.2</ele>
        <time>2023-09-03T05:38:26Z</time>
      </trkpt>
      <trkpt lat="49.28994" lon="-0.10215">
        <ele>4.2</ele>
        <time>2023-09-03T05:38:27Z</time>
      </trkpt>
      <trkpt lat="49.28999" lon="-0.10208">
        <ele>4.2</ele>
        <time>2023-09-03T05:38:28Z</time>
      </trkpt>
      <trkpt lat="49.29003" lon="-0.10202">
        <ele>4.2</ele>
        <time>2023-09-03T05:38:29Z</time>
      </trkpt>
      <trkpt lat="49.29007" lon="-0.10195">
        <ele>4.2</ele>
        <time>2023-09-03T05:38:30Z</time>
      </trkpt>
      <trkpt lat="49.29011" lon="-0.10189">
        <ele>4.2</ele>
        <time>2023-09-03T05:38:31Z</time>
      </trkpt>
      <trkpt lat="49.29015" lon="-0.10183">
        <ele>4.3</ele>
        <time>2023-09-03T05:38:32Z</time>
      </trkpt>
      <trkpt lat="49.2902" lon="-0.10177">
        <ele>4.3</ele>
        <time>2023-09-03T05:38:33Z</time>
      </trkpt>
      <trkpt lat="49.29025" lon="-0.10171">
        <ele>4.3</ele>
        <time>2023-09-03T05:38:34Z</time>
      </trkpt>
      <trkpt lat="49.2903" lon="-0.10166">
        <ele>4.4</ele>
        <time>2023-09-03T05:38:35Z</time>
      </trkpt>
      <trkpt lat="49.29034" lon="-0.10161">
        <ele>4.4</ele>
        <time>2023-09-03T05:38:36Z</time>
      </trkpt>
      <trkpt lat="49.29039" lon="-0.10156">
        <ele>4.4</ele>
        <time>2023-09-03T05:38:37Z</time>
      </trkpt>
      <trkpt lat="49.29043" lon="-0.10152">
        <ele>4.5</ele>
        <time>2023-09-03T05:38:38Z</time>
      </trkpt>
      <trkpt lat="49.29048" lon="-0.10147">
        <ele>4.5</ele>
        <time>2023-09-03T05:38:39Z</time>
      </trkpt>
      <trkpt lat="49.29052" lon="-0.10141">
        <ele>4.5</ele>
        <time>2023-09-03T05:38:40Z</time>
      </trkpt>
      <trkpt lat="49.29057" lon="-0.10136">
        <ele>4.5</ele>
        <time>2023-09-03T05:38:41Z</time>
      </trkpt>
      <trkpt lat="49.29061" lon="-0.10131">
        <ele>4.5</ele>
        <time>2023-09-03T05:38:42Z</time>
      </trkpt>
      <trkpt lat="49.29065" lon="-0.10125">
        <ele>4.5</ele>
        <time>2023-09-03T05:38:43Z</time>
      </trkpt>
      <trkpt lat="49.2907" lon="-0.1012">
        <ele>4.5</ele>
        <time>2023-09-03T05:38:44Z</time>
      </trkpt>
      <trkpt lat="49.29073" lon="-0.10115">
        <ele>4.5</ele>
        <time>2023-09-03T05:38:45Z</time>
      </trkpt>
      <trkpt lat="49.29077" lon="-0.10109">
        <ele>4.5</ele>
        <time>2023-09-03T05:38:46Z</time>
      </trkpt>
      <trkpt lat="49.2908" lon="-0.10104">
        <ele>4.5</ele>
        <time>2023-09-03T05:38:47Z</time>
      </trkpt>
      <trkpt lat="49.29084" lon="-0.10098">
        <ele>4.5</ele>
        <time>2023-09-03T05:38:48Z</time>
      </trkpt>
      <trkpt lat="49.29088" lon="-0.10092">
        <ele>4.5</ele>
        <time>2023-09-03T05:38:49Z</time>
      </trkpt>
      <trkpt lat="49.29092" lon="-0.10086">
        <ele>4.5</ele>
        <time>2023-09-03T05:38:50Z</time>
      </trkpt>
      <trkpt lat="49.29095" lon="-0.10081">
        <ele>4.5</ele>
        <time>2023-09-03T05:38:51Z</time>
      </trkpt>
      <trkpt lat="49.29098" lon="-0.10076">
        <ele>4.5</ele>
        <time>2023-09-03T05:38:52Z</time>
      </trkpt>
      <trkpt lat="49.29102" lon="-0.1007">
        <ele>4.5</ele>
        <time>2023-09-03T05:38:53Z</time>
      </trkpt>
      <trkpt lat="49.29105" lon="-0.10065">
        <ele>4.5</ele>
        <time>2023-09-03T05:38:54Z</time>
      </trkpt>
      <trkpt lat="49.29109" lon="-0.1006">
        <ele>4.5</ele>
        <time>2023-09-03T05:38:55Z</time>
      </trkpt>
      <trkpt lat="49.29112" lon="-0.10055">
        <ele>4.5</ele>
        <time>2023-09-03T05:38:56Z</time>
      </trkpt>
      <trkpt lat="49.29116" lon="-0.1005">
        <ele>4.5</ele>
        <time>2023-09-03T05:38:57Z</time>
      </trkpt>
      <trkpt lat="49.29119" lon="-0.10044">
        <ele>4.5</ele>
        <time>2023-09-03T05:38:58Z</time>
      </trkpt>
      <trkpt lat="49.29122" lon="-0.10038">
        <ele>4.5</ele>
        <time>2023-09-03T05:38:59Z</time>
      </trkpt>
      <trkpt lat="49.29125" lon="-0.10033">
        <ele>4.5</ele>
        <time>2023-09-03T05:39:00Z</time>
      </trkpt>
      <trkpt lat="49.29128" lon="-0.10028">
        <ele>4.4</ele>
        <time>2023-09-03T05:39:01Z</time>
      </trkpt>
      <trkpt lat="49.29131" lon="-0.10022">
        <ele>4.4</ele>
        <time>2023-09-03T05:39:02Z</time>
      </trkpt>
      <trkpt lat="49.29133" lon="-0.10018">
        <ele>4.4</ele>
        <time>2023-09-03T05:39:03Z</time>
      </trkpt>
      <trkpt lat="49.29136" lon="-0.10014">
        <ele>4.4</ele>
        <time>2023-09-03T05:39:04Z</time>
      </trkpt>
      <trkpt lat="49.29139" lon="-0.10013">
        <ele>4.4</ele>
        <time>2023-09-03T05:39:05Z</time>
      </trkpt>
      <trkpt lat="49.29142" lon="-0.10014">
        <ele>4.5</ele>
        <time>2023-09-03T05:39:06Z</time>
      </trkpt>
      <trkpt lat="49.29146" lon="-0.10016">
        <ele>4.5</ele>
        <time>2023-09-03T05:39:07Z</time>
      </trkpt>
      <trkpt lat="49.29147" lon="-0.10017">
        <ele>4.5</ele>
        <time>2023-09-03T05:39:08Z</time>
      </trkpt>
      <trkpt lat="49.29149" lon="-0.10019">
        <ele>4.5</ele>
        <time>2023-09-03T05:39:09Z</time>
      </trkpt>
      <trkpt lat="49.2915" lon="-0.1002">
        <ele>4.5</ele>
        <time>2023-09-03T05:39:10Z</time>
      </trkpt>
      <trkpt lat="49.29152" lon="-0.10021">
        <ele>4.5</ele>
        <time>2023-09-03T05:39:11Z</time>
      </trkpt>
      <trkpt lat="49.29153" lon="-0.10021">
        <ele>4.5</ele>
        <time>2023-09-03T05:39:12Z</time>
      </trkpt>
      <trkpt lat="49.29153" lon="-0.10022">
        <ele>4.5</ele>
        <time>2023-09-03T05:39:13Z</time>
      </trkpt>
      <trkpt lat="49.29154" lon="-0.10022">
        <ele>4.5</ele>
        <time>2023-09-03T05:39:14Z</time>
      </trkpt>
      <trkpt lat="49.29155" lon="-0.10022">
        <ele>4.5</ele>
        <time>2023-09-03T05:39:15Z</time>
      </trkpt>
      <trkpt lat="49.29157" lon="-0.10021">
        <ele>4.5</ele>
        <time>2023-09-03T05:39:16Z</time>
      </trkpt>
      <trkpt lat="49.29159" lon="-0.10018">
        <ele>4.5</ele>
        <time>2023-09-03T05:39:17Z</time>
      </trkpt>
      <trkpt lat="49.2916" lon="-0.10017">
        <ele>4.5</ele>
        <time>2023-09-03T05:39:18Z</time>
      </trkpt>
      <trkpt lat="49.29162" lon="-0.10012">
        <ele>4.5</ele>
        <time>2023-09-03T05:39:19Z</time>
      </trkpt>
      <trkpt lat="49.29163" lon="-0.1001">
        <ele>4.6</ele>
        <time>2023-09-03T05:39:20Z</time>
      </trkpt>
      <trkpt lat="49.29165" lon="-0.10007">
        <ele>4.6</ele>
        <time>2023-09-03T05:39:21Z</time>
      </trkpt>
      <trkpt lat="49.29168" lon="-0.10002">
        <ele>4.6</ele>
        <time>2023-09-03T05:39:22Z</time>
      </trkpt>
      <trkpt lat="49.29171" lon="-0.09997">
        <ele>4.6</ele>
        <time>2023-09-03T05:39:23Z</time>
      </trkpt>
      <trkpt lat="49.29174" lon="-0.09991">
        <ele>4.6</ele>
        <time>2023-09-03T05:39:24Z</time>
      </trkpt>
      <trkpt lat="49.29178" lon="-0.09985">
        <ele>4.7</ele>
        <time>2023-09-03T05:39:25Z</time>
      </trkpt>
      <trkpt lat="49.29181" lon="-0.09978">
        <ele>4.7</ele>
        <time>2023-09-03T05:39:26Z</time>
      </trkpt>
      <trkpt lat="49.29184" lon="-0.09972">
        <ele>4.7</ele>
        <time>2023-09-03T05:39:27Z</time>
      </trkpt>
      <trkpt lat="49.29187" lon="-0.09967">
        <ele>4.8</ele>
        <time>2023-09-03T05:39:28Z</time>
      </trkpt>
      <trkpt lat="49.2919" lon="-0.09961">
        <ele>4.8</ele>
        <time>2023-09-03T05:39:29Z</time>
      </trkpt>
      <trkpt lat="49.29193" lon="-0.09954">
        <ele>4.9</ele>
        <time>2023-09-03T05:39:30Z</time>
      </trkpt>
      <trkpt lat="49.29197" lon="-0.09947">
        <ele>4.9</ele>
        <time>2023-09-03T05:39:31Z</time>
      </trkpt>
      <trkpt lat="49.292" lon="-0.09939">
        <ele>4.9</ele>
        <time>2023-09-03T05:39:32Z</time>
      </trkpt>
      <trkpt lat="49.29204" lon="-0.09932">
        <ele>5</ele>
        <time>2023-09-03T05:39:33Z</time>
      </trkpt>
      <trkpt lat="49.29207" lon="-0.09925">
        <ele>5</ele>
        <time>2023-09-03T05:39:34Z</time>
      </trkpt>
      <trkpt lat="49.29211" lon="-0.09918">
        <ele>5.1</ele>
        <time>2023-09-03T05:39:35Z</time>
      </trkpt>
      <trkpt lat="49.29214" lon="-0.09911">
        <ele>5.1</ele>
        <time>2023-09-03T05:39:36Z</time>
      </trkpt>
      <trkpt lat="49.29217" lon="-0.09904">
        <ele>5.1</ele>
        <time>2023-09-03T05:39:37Z</time>
      </trkpt>
      <trkpt lat="49.29221" lon="-0.09897">
        <ele>5.1</ele>
        <time>2023-09-03T05:39:38Z</time>
      </trkpt>
      <trkpt lat="49.29224" lon="-0.0989">
        <ele>5.2</ele>
        <time>2023-09-03T05:39:39Z</time>
      </trkpt>
      <trkpt lat="49.29227" lon="-0.09881">
        <ele>5.2</ele>
        <time>2023-09-03T05:39:40Z</time>
      </trkpt>
      <trkpt lat="49.2923" lon="-0.09873">
        <ele>5.2</ele>
        <time>2023-09-03T05:39:41Z</time>
      </trkpt>
      <trkpt lat="49.29233" lon="-0.09865">
        <ele>5.2</ele>
        <time>2023-09-03T05:39:42Z</time>
      </trkpt>
      <trkpt lat="49.29235" lon="-0.09857">
        <ele>5.2</ele>
        <time>2023-09-03T05:39:43Z</time>
      </trkpt>
      <trkpt lat="49.29238" lon="-0.09848">
        <ele>5.2</ele>
        <time>2023-09-03T05:39:44Z</time>
      </trkpt>
      <trkpt lat="49.29241" lon="-0.0984">
        <ele>5.2</ele>
        <time>2023-09-03T05:39:45Z</time>
      </trkpt>
      <trkpt lat="49.29243" lon="-0.09831">
        <ele>5.2</ele>
        <time>2023-09-03T05:39:46Z</time>
      </trkpt>
      <trkpt lat="49.29247" lon="-0.09822">
        <ele>5.2</ele>
        <time>2023-09-03T05:39:47Z</time>
      </trkpt>
      <trkpt lat="49.29249" lon="-0.09814">
        <ele>5.2</ele>
        <time>2023-09-03T05:39:48Z</time>
      </trkpt>
      <trkpt lat="49.29252" lon="-0.09805">
        <ele>5.2</ele>
        <time>2023-09-03T05:39:49Z</time>
      </trkpt>
      <trkpt lat="49.29255" lon="-0.09796">
        <ele>5.1</ele>
        <time>2023-09-03T05:39:50Z</time>
      </trkpt>
      <trkpt lat="49.29257" lon="-0.09787">
        <ele>5.1</ele>
        <time>2023-09-03T05:39:51Z</time>
      </trkpt>
      <trkpt lat="49.2926" lon="-0.09778">
        <ele>5.1</ele>
        <time>2023-09-03T05:39:52Z</time>
      </trkpt>
      <trkpt lat="49.29263" lon="-0.09769">
        <ele>5.1</ele>
        <time>2023-09-03T05:39:53Z</time>
      </trkpt>
      <trkpt lat="49.29265" lon="-0.09761">
        <ele>5.1</ele>
        <time>2023-09-03T05:39:54Z</time>
      </trkpt>
      <trkpt lat="49.29268" lon="-0.09752">
        <ele>5.1</ele>
        <time>2023-09-03T05:39:55Z</time>
      </trkpt>
      <trkpt lat="49.2927" lon="-0.09743">
        <ele>5.1</ele>
        <time>2023-09-03T05:39:56Z</time>
      </trkpt>
      <trkpt lat="49.29273" lon="-0.09734">
        <ele>5</ele>
        <time>2023-09-03T05:39:57Z</time>
      </trkpt>
      <trkpt lat="49.29276" lon="-0.09725">
        <ele>5</ele>
        <time>2023-09-03T05:39:58Z</time>
      </trkpt>
      <trkpt lat="49.29279" lon="-0.09716">
        <ele>4.9</ele>
        <time>2023-09-03T05:39:59Z</time>
      </trkpt>
      <trkpt lat="49.29281" lon="-0.09707">
        <ele>4.9</ele>
        <time>2023-09-03T05:40:00Z</time>
      </trkpt>
      <trkpt lat="49.29284" lon="-0.09698">
        <ele>4.8</ele>
        <time>2023-09-03T05:40:01Z</time>
      </trkpt>
      <trkpt lat="49.29287" lon="-0.09689">
        <ele>4.8</ele>
        <time>2023-09-03T05:40:02Z</time>
      </trkpt>
      <trkpt lat="49.29289" lon="-0.0968">
        <ele>4.7</ele>
        <time>2023-09-03T05:40:03Z</time>
      </trkpt>
      <trkpt lat="49.29292" lon="-0.0967">
        <ele>4.7</ele>
        <time>2023-09-03T05:40:04Z</time>
      </trkpt>
      <trkpt lat="49.29295" lon="-0.09661">
        <ele>4.6</ele>
        <time>2023-09-03T05:40:05Z</time>
      </trkpt>
      <trkpt lat="49.29298" lon="-0.09651">
        <ele>4.6</ele>
        <time>2023-09-03T05:40:06Z</time>
      </trkpt>
      <trkpt lat="49.29301" lon="-0.09642">
        <ele>4.6</ele>
        <time>2023-09-03T05:40:07Z</time>
      </trkpt>
      <trkpt lat="49.29304" lon="-0.09632">
        <ele>4.6</ele>
        <time>2023-09-03T05:40:08Z</time>
      </trkpt>
      <trkpt lat="49.29307" lon="-0.09623">
        <ele>4.6</ele>
        <time>2023-09-03T05:40:09Z</time>
      </trkpt>
      <trkpt lat="49.2931" lon="-0.09614">
        <ele>4.7</ele>
        <time>2023-09-03T05:40:10Z</time>
      </trkpt>
      <trkpt lat="49.29312" lon="-0.09605">
        <ele>4.7</ele>
        <time>2023-09-03T05:40:11Z</time>
      </trkpt>
      <trkpt lat="49.29315" lon="-0.09596">
        <ele>4.7</ele>
        <time>2023-09-03T05:40:12Z</time>
      </trkpt>
      <trkpt lat="49.29317" lon="-0.09588">
        <ele>4.7</ele>
        <time>2023-09-03T05:40:13Z</time>
      </trkpt>
      <trkpt lat="49.2932" lon="-0.0958">
        <ele>4.6</ele>
        <time>2023-09-03T05:40:14Z</time>
      </trkpt>
      <trkpt lat="49.29322" lon="-0.09571">
        <ele>4.6</ele>
        <time>2023-09-03T05:40:15Z</time>
      </trkpt>
      <trkpt lat="49.29325" lon="-0.09563">
        <ele>4.5</ele>
        <time>2023-09-03T05:40:16Z</time>
      </trkpt>
      <trkpt lat="49.29327" lon="-0.09554">
        <ele>4.5</ele>
        <time>2023-09-03T05:40:17Z</time>
      </trkpt>
      <trkpt lat="49.29329" lon="-0.09545">
        <ele>4.5</ele>
        <time>2023-09-03T05:40:18Z</time>
      </trkpt>
      <trkpt lat="49.29332" lon="-0.09536">
        <ele>4.5</ele>
        <time>2023-09-03T05:40:19Z</time>
      </trkpt>
      <trkpt lat="49.29335" lon="-0.09527">
        <ele>4.5</ele>
        <time>2023-09-03T05:40:20Z</time>
      </trkpt>
      <trkpt lat="49.29337" lon="-0.09518">
        <ele>4.6</ele>
        <time>2023-09-03T05:40:21Z</time>
      </trkpt>
      <trkpt lat="49.2934" lon="-0.09509">
        <ele>4.6</ele>
        <time>2023-09-03T05:40:22Z</time>
      </trkpt>
      <trkpt lat="49.29342" lon="-0.09499">
        <ele>4.7</ele>
        <time>2023-09-03T05:40:23Z</time>
      </trkpt>
      <trkpt lat="49.29345" lon="-0.0949">
        <ele>4.7</ele>
        <time>2023-09-03T05:40:24Z</time>
      </trkpt>
      <trkpt lat="49.29347" lon="-0.09481">
        <ele>4.7</ele>
        <time>2023-09-03T05:40:25Z</time>
      </trkpt>
      <trkpt lat="49.2935" lon="-0.09473">
        <ele>4.7</ele>
        <time>2023-09-03T05:40:26Z</time>
      </trkpt>
      <trkpt lat="49.29353" lon="-0.09464">
        <ele>4.7</ele>
        <time>2023-09-03T05:40:27Z</time>
      </trkpt>
      <trkpt lat="49.29355" lon="-0.09456">
        <ele>4.7</ele>
        <time>2023-09-03T05:40:28Z</time>
      </trkpt>
      <trkpt lat="49.29358" lon="-0.09448">
        <ele>4.7</ele>
        <time>2023-09-03T05:40:29Z</time>
      </trkpt>
      <trkpt lat="49.29361" lon="-0.09439">
        <ele>4.6</ele>
        <time>2023-09-03T05:40:30Z</time>
      </trkpt>
      <trkpt lat="49.29363" lon="-0.09431">
        <ele>4.6</ele>
        <time>2023-09-03T05:40:31Z</time>
      </trkpt>
      <trkpt lat="49.29366" lon="-0.09422">
        <ele>4.5</ele>
        <time>2023-09-03T05:40:32Z</time>
      </trkpt>
      <trkpt lat="49.29368" lon="-0.09413">
        <ele>4.5</ele>
        <time>2023-09-03T05:40:33Z</time>
      </trkpt>
      <trkpt lat="49.2937" lon="-0.09405">
        <ele>4.5</ele>
        <time>2023-09-03T05:40:34Z</time>
      </trkpt>
      <trkpt lat="49.29373" lon="-0.09397">
        <ele>4.4</ele>
        <time>2023-09-03T05:40:35Z</time>
      </trkpt>
      <trkpt lat="49.29375" lon="-0.09388">
        <ele>4.4</ele>
        <time>2023-09-03T05:40:36Z</time>
      </trkpt>
      <trkpt lat="49.29377" lon="-0.0938">
        <ele>4.4</ele>
        <time>2023-09-03T05:40:37Z</time>
      </trkpt>
      <trkpt lat="49.2938" lon="-0.09371">
        <ele>4.4</ele>
        <time>2023-09-03T05:40:38Z</time>
      </trkpt>
      <trkpt lat="49.29382" lon="-0.09363">
        <ele>4.4</ele>
        <time>2023-09-03T05:40:39Z</time>
      </trkpt>
      <trkpt lat="49.29384" lon="-0.09355">
        <ele>4.5</ele>
        <time>2023-09-03T05:40:40Z</time>
      </trkpt>
      <trkpt lat="49.29387" lon="-0.09348">
        <ele>4.5</ele>
        <time>2023-09-03T05:40:41Z</time>
      </trkpt>
      <trkpt lat="49.29389" lon="-0.09341">
        <ele>4.6</ele>
        <time>2023-09-03T05:40:42Z</time>
      </trkpt>
      <trkpt lat="49.29391" lon="-0.09334">
        <ele>4.6</ele>
        <time>2023-09-03T05:40:43Z</time>
      </trkpt>
      <trkpt lat="49.29392" lon="-0.09328">
        <ele>4.7</ele>
        <time>2023-09-03T05:40:44Z</time>
      </trkpt>
      <trkpt lat="49.29393" lon="-0.09322">
        <ele>4.7</ele>
        <time>2023-09-03T05:40:45Z</time>
      </trkpt>
      <trkpt lat="49.29395" lon="-0.09316">
        <ele>4.7</ele>
        <time>2023-09-03T05:40:46Z</time>
      </trkpt>
      <trkpt lat="49.29396" lon="-0.09309">
        <ele>4.8</ele>
        <time>2023-09-03T05:40:47Z</time>
      </trkpt>
      <trkpt lat="49.29398" lon="-0.09303">
        <ele>4.8</ele>
        <time>2023-09-03T05:40:48Z</time>
      </trkpt>
      <trkpt lat="49.294" lon="-0.09297">
        <ele>4.8</ele>
        <time>2023-09-03T05:40:49Z</time>
      </trkpt>
      <trkpt lat="49.29401" lon="-0.09292">
        <ele>4.8</ele>
        <time>2023-09-03T05:40:50Z</time>
      </trkpt>
      <trkpt lat="49.29403" lon="-0.09286">
        <ele>4.8</ele>
        <time>2023-09-03T05:40:51Z</time>
      </trkpt>
      <trkpt lat="49.29405" lon="-0.0928">
        <ele>4.8</ele>
        <time>2023-09-03T05:40:52Z</time>
      </trkpt>
      <trkpt lat="49.29407" lon="-0.09274">
        <ele>4.8</ele>
        <time>2023-09-03T05:40:53Z</time>
      </trkpt>
      <trkpt lat="49.29409" lon="-0.09268">
        <ele>4.9</ele>
        <time>2023-09-03T05:40:54Z</time>
      </trkpt>
      <trkpt lat="49.2941" lon="-0.09261">
        <ele>4.9</ele>
        <time>2023-09-03T05:40:55Z</time>
      </trkpt>
      <trkpt lat="49.29411" lon="-0.09254">
        <ele>4.9</ele>
        <time>2023-09-03T05:40:56Z</time>
      </trkpt>
      <trkpt lat="49.29412" lon="-0.09246">
        <ele>4.9</ele>
        <time>2023-09-03T05:40:57Z</time>
      </trkpt>
      <trkpt lat="49.29413" lon="-0.09239">
        <ele>4.9</ele>
        <time>2023-09-03T05:40:58Z</time>
      </trkpt>
      <trkpt lat="49.29416" lon="-0.09232">
        <ele>4.9</ele>
        <time>2023-09-03T05:40:59Z</time>
      </trkpt>
      <trkpt lat="49.29418" lon="-0.09223">
        <ele>4.9</ele>
        <time>2023-09-03T05:41:00Z</time>
      </trkpt>
      <trkpt lat="49.29421" lon="-0.09215">
        <ele>4.8</ele>
        <time>2023-09-03T05:41:01Z</time>
      </trkpt>
      <trkpt lat="49.29423" lon="-0.09207">
        <ele>4.8</ele>
        <time>2023-09-03T05:41:02Z</time>
      </trkpt>
      <trkpt lat="49.29426" lon="-0.09199">
        <ele>4.8</ele>
        <time>2023-09-03T05:41:03Z</time>
      </trkpt>
      <trkpt lat="49.29428" lon="-0.09191">
        <ele>4.7</ele>
        <time>2023-09-03T05:41:04Z</time>
      </trkpt>
      <trkpt lat="49.29431" lon="-0.09183">
        <ele>4.7</ele>
        <time>2023-09-03T05:41:05Z</time>
      </trkpt>
      <trkpt lat="49.29433" lon="-0.09175">
        <ele>4.7</ele>
        <time>2023-09-03T05:41:06Z</time>
      </trkpt>
      <trkpt lat="49.29435" lon="-0.09168">
        <ele>4.6</ele>
        <time>2023-09-03T05:41:07Z</time>
      </trkpt>
      <trkpt lat="49.29437" lon="-0.0916">
        <ele>4.6</ele>
        <time>2023-09-03T05:41:08Z</time>
      </trkpt>
      <trkpt lat="49.2944" lon="-0.09152">
        <ele>4.6</ele>
        <time>2023-09-03T05:41:09Z</time>
      </trkpt>
      <trkpt lat="49.29443" lon="-0.09145">
        <ele>4.6</ele>
        <time>2023-09-03T05:41:10Z</time>
      </trkpt>
      <trkpt lat="49.29446" lon="-0.09137">
        <ele>4.7</ele>
        <time>2023-09-03T05:41:11Z</time>
      </trkpt>
      <trkpt lat="49.29448" lon="-0.0913">
        <ele>4.7</ele>
        <time>2023-09-03T05:41:12Z</time>
      </trkpt>
      <trkpt lat="49.2945" lon="-0.09124">
        <ele>4.7</ele>
        <time>2023-09-03T05:41:13Z</time>
      </trkpt>
      <trkpt lat="49.29452" lon="-0.09117">
        <ele>4.8</ele>
        <time>2023-09-03T05:41:14Z</time>
      </trkpt>
      <trkpt lat="49.29454" lon="-0.09112">
        <ele>4.8</ele>
        <time>2023-09-03T05:41:15Z</time>
      </trkpt>
      <trkpt lat="49.29456" lon="-0.09108">
        <ele>4.8</ele>
        <time>2023-09-03T05:41:16Z</time>
      </trkpt>
      <trkpt lat="49.29457" lon="-0.09106">
        <ele>4.8</ele>
        <time>2023-09-03T05:41:17Z</time>
      </trkpt>
      <trkpt lat="49.29457" lon="-0.09104">
        <ele>4.8</ele>
        <time>2023-09-03T05:41:18Z</time>
      </trkpt>
      <trkpt lat="49.29458" lon="-0.09101">
        <ele>4.8</ele>
        <time>2023-09-03T05:41:19Z</time>
      </trkpt>
      <trkpt lat="49.29459" lon="-0.091">
        <ele>4.8</ele>
        <time>2023-09-03T05:41:20Z</time>
      </trkpt>
      <trkpt lat="49.29459" lon="-0.09099">
        <ele>4.8</ele>
        <time>2023-09-03T05:41:21Z</time>
      </trkpt>
      <trkpt lat="49.29459" lon="-0.09097">
        <ele>4.9</ele>
        <time>2023-09-03T05:41:22Z</time>
      </trkpt>
      <trkpt lat="49.2946" lon="-0.09095">
        <ele>4.9</ele>
        <time>2023-09-03T05:41:23Z</time>
      </trkpt>
      <trkpt lat="49.2946" lon="-0.09093">
        <ele>4.9</ele>
        <time>2023-09-03T05:41:24Z</time>
      </trkpt>
      <trkpt lat="49.29461" lon="-0.09092">
        <ele>4.9</ele>
        <time>2023-09-03T05:41:25Z</time>
      </trkpt>
      <trkpt lat="49.29461" lon="-0.0909">
        <ele>4.9</ele>
        <time>2023-09-03T05:41:26Z</time>
      </trkpt>
      <trkpt lat="49.29462" lon="-0.09089">
        <ele>4.9</ele>
        <time>2023-09-03T05:41:27Z</time>
      </trkpt>
      <trkpt lat="49.29463" lon="-0.09087">
        <ele>4.9</ele>
        <time>2023-09-03T05:41:28Z</time>
      </trkpt>
      <trkpt lat="49.29463" lon="-0.09086">
        <ele>4.9</ele>
        <time>2023-09-03T05:41:29Z</time>
      </trkpt>
      <trkpt lat="49.29463" lon="-0.09084">
        <ele>4.9</ele>
        <time>2023-09-03T05:41:30Z</time>
      </trkpt>
      <trkpt lat="49.29463" lon="-0.09083">
        <ele>4.9</ele>
        <time>2023-09-03T05:41:31Z</time>
      </trkpt>
      <trkpt lat="49.29463" lon="-0.09081">
        <ele>4.9</ele>
        <time>2023-09-03T05:41:32Z</time>
      </trkpt>
      <trkpt lat="49.29463" lon="-0.09079">
        <ele>4.9</ele>
        <time>2023-09-03T05:41:33Z</time>
      </trkpt>
      <trkpt lat="49.29464" lon="-0.09076">
        <ele>4.9</ele>
        <time>2023-09-03T05:41:34Z</time>
      </trkpt>
      <trkpt lat="49.29464" lon="-0.09073">
        <ele>4.9</ele>
        <time>2023-09-03T05:41:35Z</time>
      </trkpt>
      <trkpt lat="49.29464" lon="-0.09071">
        <ele>4.9</ele>
        <time>2023-09-03T05:41:36Z</time>
      </trkpt>
      <trkpt lat="49.29462" lon="-0.09069">
        <ele>4.9</ele>
        <time>2023-09-03T05:41:37Z</time>
      </trkpt>
      <trkpt lat="49.2946" lon="-0.09069">
        <ele>5.2</ele>
        <time>2023-09-03T05:41:38Z</time>
      </trkpt>
      <trkpt lat="49.29459" lon="-0.09069">
        <ele>5.3</ele>
        <time>2023-09-03T05:41:39Z</time>
      </trkpt>
      <trkpt lat="49.29458" lon="-0.0907">
        <ele>5.3</ele>
        <time>2023-09-03T05:41:40Z</time>
      </trkpt>
      <trkpt lat="49.29456" lon="-0.0907">
        <ele>5.5</ele>
        <time>2023-09-03T05:41:41Z</time>
      </trkpt>
      <trkpt lat="49.29455" lon="-0.09069">
        <ele>5.4</ele>
        <time>2023-09-03T05:41:42Z</time>
      </trkpt>
      <trkpt lat="49.29453" lon="-0.09068">
        <ele>5.4</ele>
        <time>2023-09-03T05:41:43Z</time>
      </trkpt>
      <trkpt lat="49.29453" lon="-0.09064">
        <ele>5.4</ele>
        <time>2023-09-03T05:41:44Z</time>
      </trkpt>
      <trkpt lat="49.29453" lon="-0.09062">
        <ele>5.4</ele>
        <time>2023-09-03T05:41:45Z</time>
      </trkpt>
      <trkpt lat="49.29454" lon="-0.09061">
        <ele>5.4</ele>
        <time>2023-09-03T05:41:46Z</time>
      </trkpt>
      <trkpt lat="49.29455" lon="-0.09055">
        <ele>5.4</ele>
        <time>2023-09-03T05:41:47Z</time>
      </trkpt>
      <trkpt lat="49.29455" lon="-0.09052">
        <ele>5.4</ele>
        <time>2023-09-03T05:41:48Z</time>
      </trkpt>
      <trkpt lat="49.29455" lon="-0.09047">
        <ele>5.4</ele>
        <time>2023-09-03T05:41:49Z</time>
      </trkpt>
      <trkpt lat="49.29457" lon="-0.09042">
        <ele>5.4</ele>
        <time>2023-09-03T05:41:50Z</time>
      </trkpt>
      <trkpt lat="49.29458" lon="-0.09037">
        <ele>5.4</ele>
        <time>2023-09-03T05:41:51Z</time>
      </trkpt>
      <trkpt lat="49.2946" lon="-0.09032">
        <ele>5.4</ele>
        <time>2023-09-03T05:41:52Z</time>
      </trkpt>
      <trkpt lat="49.29461" lon="-0.09026">
        <ele>5.4</ele>
        <time>2023-09-03T05:41:53Z</time>
      </trkpt>
      <trkpt lat="49.29463" lon="-0.09019">
        <ele>5.4</ele>
        <time>2023-09-03T05:41:54Z</time>
      </trkpt>
      <trkpt lat="49.29465" lon="-0.09012">
        <ele>5.4</ele>
        <time>2023-09-03T05:41:55Z</time>
      </trkpt>
      <trkpt lat="49.29469" lon="-0.09004">
        <ele>5.5</ele>
        <time>2023-09-03T05:41:56Z</time>
      </trkpt>
      <trkpt lat="49.29472" lon="-0.08996">
        <ele>5.5</ele>
        <time>2023-09-03T05:41:57Z</time>
      </trkpt>
      <trkpt lat="49.29475" lon="-0.08988">
        <ele>5.5</ele>
        <time>2023-09-03T05:41:58Z</time>
      </trkpt>
      <trkpt lat="49.29478" lon="-0.0898">
        <ele>5.4</ele>
        <time>2023-09-03T05:41:59Z</time>
      </trkpt>
      <trkpt lat="49.29482" lon="-0.08972">
        <ele>5.4</ele>
        <time>2023-09-03T05:42:00Z</time>
      </trkpt>
      <trkpt lat="49.29484" lon="-0.08964">
        <ele>5.4</ele>
        <time>2023-09-03T05:42:01Z</time>
      </trkpt>
      <trkpt lat="49.29487" lon="-0.08955">
        <ele>5.3</ele>
        <time>2023-09-03T05:42:02Z</time>
      </trkpt>
      <trkpt lat="49.2949" lon="-0.08947">
        <ele>5.3</ele>
        <time>2023-09-03T05:42:03Z</time>
      </trkpt>
      <trkpt lat="49.29492" lon="-0.08938">
        <ele>5.3</ele>
        <time>2023-09-03T05:42:04Z</time>
      </trkpt>
      <trkpt lat="49.29495" lon="-0.08929">
        <ele>5.3</ele>
        <time>2023-09-03T05:42:05Z</time>
      </trkpt>
      <trkpt lat="49.29498" lon="-0.08921">
        <ele>5.3</ele>
        <time>2023-09-03T05:42:06Z</time>
      </trkpt>
      <trkpt lat="49.29501" lon="-0.08912">
        <ele>5.2</ele>
        <time>2023-09-03T05:42:07Z</time>
      </trkpt>
      <trkpt lat="49.29504" lon="-0.08904">
        <ele>5.2</ele>
        <time>2023-09-03T05:42:08Z</time>
      </trkpt>
      <trkpt lat="49.29507" lon="-0.08895">
        <ele>5.2</ele>
        <time>2023-09-03T05:42:09Z</time>
      </trkpt>
      <trkpt lat="49.29511" lon="-0.08888">
        <ele>5.1</ele>
        <time>2023-09-03T05:42:10Z</time>
      </trkpt>
      <trkpt lat="49.29514" lon="-0.0888">
        <ele>5.1</ele>
        <time>2023-09-03T05:42:11Z</time>
      </trkpt>
      <trkpt lat="49.29518" lon="-0.08873">
        <ele>5</ele>
        <time>2023-09-03T05:42:12Z</time>
      </trkpt>
      <trkpt lat="49.29522" lon="-0.08865">
        <ele>5</ele>
        <time>2023-09-03T05:42:13Z</time>
      </trkpt>
      <trkpt lat="49.29525" lon="-0.08858">
        <ele>5</ele>
        <time>2023-09-03T05:42:14Z</time>
      </trkpt>
      <trkpt lat="49.29529" lon="-0.08851">
        <ele>4.9</ele>
        <time>2023-09-03T05:42:15Z</time>
      </trkpt>
      <trkpt lat="49.29533" lon="-0.08843">
        <ele>4.9</ele>
        <time>2023-09-03T05:42:16Z</time>
      </trkpt>
      <trkpt lat="49.29537" lon="-0.08837">
        <ele>4.9</ele>
        <time>2023-09-03T05:42:17Z</time>
      </trkpt>
      <trkpt lat="49.29541" lon="-0.0883">
        <ele>4.9</ele>
        <time>2023-09-03T05:42:18Z</time>
      </trkpt>
      <trkpt lat="49.29545" lon="-0.08824">
        <ele>4.9</ele>
        <time>2023-09-03T05:42:19Z</time>
      </trkpt>
      <trkpt lat="49.29549" lon="-0.08818">
        <ele>4.9</ele>
        <time>2023-09-03T05:42:20Z</time>
      </trkpt>
      <trkpt lat="49.29553" lon="-0.08812">
        <ele>4.9</ele>
        <time>2023-09-03T05:42:21Z</time>
      </trkpt>
      <trkpt lat="49.29558" lon="-0.08806">
        <ele>5</ele>
        <time>2023-09-03T05:42:22Z</time>
      </trkpt>
      <trkpt lat="49.29562" lon="-0.088">
        <ele>5</ele>
        <time>2023-09-03T05:42:23Z</time>
      </trkpt>
      <trkpt lat="49.29567" lon="-0.08794">
        <ele>5</ele>
        <time>2023-09-03T05:42:24Z</time>
      </trkpt>
      <trkpt lat="49.29572" lon="-0.08789">
        <ele>5</ele>
        <time>2023-09-03T05:42:25Z</time>
      </trkpt>
      <trkpt lat="49.29576" lon="-0.08784">
        <ele>5.1</ele>
        <time>2023-09-03T05:42:26Z</time>
      </trkpt>
      <trkpt lat="49.29581" lon="-0.08779">
        <ele>5.1</ele>
        <time>2023-09-03T05:42:27Z</time>
      </trkpt>
      <trkpt lat="49.29586" lon="-0.08774">
        <ele>5.1</ele>
        <time>2023-09-03T05:42:28Z</time>
      </trkpt>
      <trkpt lat="49.2959" lon="-0.08769">
        <ele>5.2</ele>
        <time>2023-09-03T05:42:29Z</time>
      </trkpt>
      <trkpt lat="49.29595" lon="-0.08765">
        <ele>5.2</ele>
        <time>2023-09-03T05:42:30Z</time>
      </trkpt>
      <trkpt lat="49.296" lon="-0.0876">
        <ele>5.2</ele>
        <time>2023-09-03T05:42:31Z</time>
      </trkpt>
      <trkpt lat="49.29604" lon="-0.08756">
        <ele>5.2</ele>
        <time>2023-09-03T05:42:32Z</time>
      </trkpt>
      <trkpt lat="49.29609" lon="-0.08752">
        <ele>5.3</ele>
        <time>2023-09-03T05:42:33Z</time>
      </trkpt>
      <trkpt lat="49.29615" lon="-0.08748">
        <ele>5.3</ele>
        <time>2023-09-03T05:42:34Z</time>
      </trkpt>
      <trkpt lat="49.2962" lon="-0.08744">
        <ele>5.3</ele>
        <time>2023-09-03T05:42:35Z</time>
      </trkpt>
      <trkpt lat="49.29625" lon="-0.0874">
        <ele>5.2</ele>
        <time>2023-09-03T05:42:36Z</time>
      </trkpt>
      <trkpt lat="49.29631" lon="-0.08736">
        <ele>5.2</ele>
        <time>2023-09-03T05:42:37Z</time>
      </trkpt>
      <trkpt lat="49.29636" lon="-0.08731">
        <ele>5.2</ele>
        <time>2023-09-03T05:42:38Z</time>
      </trkpt>
      <trkpt lat="49.29641" lon="-0.08727">
        <ele>5.2</ele>
        <time>2023-09-03T05:42:39Z</time>
      </trkpt>
      <trkpt lat="49.29646" lon="-0.08722">
        <ele>5.1</ele>
        <time>2023-09-03T05:42:40Z</time>
      </trkpt>
      <trkpt lat="49.29652" lon="-0.08718">
        <ele>5.1</ele>
        <time>2023-09-03T05:42:41Z</time>
      </trkpt>
      <trkpt lat="49.29657" lon="-0.08714">
        <ele>5.1</ele>
        <time>2023-09-03T05:42:42Z</time>
      </trkpt>
      <trkpt lat="49.29663" lon="-0.0871">
        <ele>5.1</ele>
        <time>2023-09-03T05:42:43Z</time>
      </trkpt>
      <trkpt lat="49.29669" lon="-0.08706">
        <ele>5.1</ele>
        <time>2023-09-03T05:42:44Z</time>
      </trkpt>
      <trkpt lat="49.29674" lon="-0.08702">
        <ele>5.1</ele>
        <time>2023-09-03T05:42:45Z</time>
      </trkpt>
      <trkpt lat="49.2968" lon="-0.08698">
        <ele>5.1</ele>
        <time>2023-09-03T05:42:46Z</time>
      </trkpt>
      <trkpt lat="49.29685" lon="-0.08694">
        <ele>5</ele>
        <time>2023-09-03T05:42:47Z</time>
      </trkpt>
      <trkpt lat="49.2969" lon="-0.08689">
        <ele>5</ele>
        <time>2023-09-03T05:42:48Z</time>
      </trkpt>
      <trkpt lat="49.29695" lon="-0.08685">
        <ele>5</ele>
        <time>2023-09-03T05:42:49Z</time>
      </trkpt>
      <trkpt lat="49.297" lon="-0.08681">
        <ele>5</ele>
        <time>2023-09-03T05:42:50Z</time>
      </trkpt>
      <trkpt lat="49.29704" lon="-0.08676">
        <ele>5.1</ele>
        <time>2023-09-03T05:42:51Z</time>
      </trkpt>
      <trkpt lat="49.29709" lon="-0.08672">
        <ele>5.1</ele>
        <time>2023-09-03T05:42:52Z</time>
      </trkpt>
      <trkpt lat="49.29713" lon="-0.08668">
        <ele>5.1</ele>
        <time>2023-09-03T05:42:53Z</time>
      </trkpt>
      <trkpt lat="49.29717" lon="-0.08663">
        <ele>5.1</ele>
        <time>2023-09-03T05:42:54Z</time>
      </trkpt>
      <trkpt lat="49.29722" lon="-0.08659">
        <ele>5.1</ele>
        <time>2023-09-03T05:42:55Z</time>
      </trkpt>
      <trkpt lat="49.29727" lon="-0.08654">
        <ele>5.2</ele>
        <time>2023-09-03T05:42:56Z</time>
      </trkpt>
      <trkpt lat="49.29732" lon="-0.08649">
        <ele>5.2</ele>
        <time>2023-09-03T05:42:57Z</time>
      </trkpt>
      <trkpt lat="49.29737" lon="-0.08644">
        <ele>5.2</ele>
        <time>2023-09-03T05:42:58Z</time>
      </trkpt>
      <trkpt lat="49.29742" lon="-0.0864">
        <ele>5.2</ele>
        <time>2023-09-03T05:42:59Z</time>
      </trkpt>
      <trkpt lat="49.29747" lon="-0.08635">
        <ele>5.2</ele>
        <time>2023-09-03T05:43:00Z</time>
      </trkpt>
      <trkpt lat="49.29752" lon="-0.0863">
        <ele>5.2</ele>
        <time>2023-09-03T05:43:01Z</time>
      </trkpt>
      <trkpt lat="49.29757" lon="-0.08625">
        <ele>5.2</ele>
        <time>2023-09-03T05:43:02Z</time>
      </trkpt>
      <trkpt lat="49.29762" lon="-0.0862">
        <ele>5.3</ele>
        <time>2023-09-03T05:43:03Z</time>
      </trkpt>
      <trkpt lat="49.29768" lon="-0.08615">
        <ele>5.3</ele>
        <time>2023-09-03T05:43:04Z</time>
      </trkpt>
      <trkpt lat="49.29773" lon="-0.0861">
        <ele>5.3</ele>
        <time>2023-09-03T05:43:05Z</time>
      </trkpt>
      <trkpt lat="49.29778" lon="-0.08605">
        <ele>5.3</ele>
        <time>2023-09-03T05:43:06Z</time>
      </trkpt>
      <trkpt lat="49.29783" lon="-0.086">
        <ele>5.3</ele>
        <time>2023-09-03T05:43:07Z</time>
      </trkpt>
      <trkpt lat="49.29787" lon="-0.08595">
        <ele>5.3</ele>
        <time>2023-09-03T05:43:08Z</time>
      </trkpt>
      <trkpt lat="49.29792" lon="-0.08591">
        <ele>5.3</ele>
        <time>2023-09-03T05:43:09Z</time>
      </trkpt>
      <trkpt lat="49.29797" lon="-0.08586">
        <ele>5.3</ele>
        <time>2023-09-03T05:43:10Z</time>
      </trkpt>
      <trkpt lat="49.29801" lon="-0.08581">
        <ele>5.3</ele>
        <time>2023-09-03T05:43:11Z</time>
      </trkpt>
      <trkpt lat="49.29807" lon="-0.08576">
        <ele>5.3</ele>
        <time>2023-09-03T05:43:12Z</time>
      </trkpt>
      <trkpt lat="49.29812" lon="-0.08571">
        <ele>5.3</ele>
        <time>2023-09-03T05:43:13Z</time>
      </trkpt>
      <trkpt lat="49.29818" lon="-0.08567">
        <ele>5.3</ele>
        <time>2023-09-03T05:43:14Z</time>
      </trkpt>
      <trkpt lat="49.29823" lon="-0.08562">
        <ele>5.4</ele>
        <time>2023-09-03T05:43:15Z</time>
      </trkpt>
      <trkpt lat="49.29828" lon="-0.08557">
        <ele>5.4</ele>
        <time>2023-09-03T05:43:16Z</time>
      </trkpt>
      <trkpt lat="49.29833" lon="-0.08553">
        <ele>5.4</ele>
        <time>2023-09-03T05:43:17Z</time>
      </trkpt>
      <trkpt lat="49.29838" lon="-0.08548">
        <ele>5.5</ele>
        <time>2023-09-03T05:43:18Z</time>
      </trkpt>
      <trkpt lat="49.29843" lon="-0.08543">
        <ele>5.5</ele>
        <time>2023-09-03T05:43:19Z</time>
      </trkpt>
      <trkpt lat="49.29848" lon="-0.08539">
        <ele>5.5</ele>
        <time>2023-09-03T05:43:20Z</time>
      </trkpt>
      <trkpt lat="49.29852" lon="-0.08534">
        <ele>5.5</ele>
        <time>2023-09-03T05:43:21Z</time>
      </trkpt>
      <trkpt lat="49.29857" lon="-0.08529">
        <ele>5.5</ele>
        <time>2023-09-03T05:43:22Z</time>
      </trkpt>
      <trkpt lat="49.29861" lon="-0.08524">
        <ele>5.6</ele>
        <time>2023-09-03T05:43:23Z</time>
      </trkpt>
      <trkpt lat="49.29866" lon="-0.08519">
        <ele>5.6</ele>
        <time>2023-09-03T05:43:24Z</time>
      </trkpt>
      <trkpt lat="49.2987" lon="-0.08514">
        <ele>5.6</ele>
        <time>2023-09-03T05:43:25Z</time>
      </trkpt>
      <trkpt lat="49.29875" lon="-0.08509">
        <ele>5.6</ele>
        <time>2023-09-03T05:43:26Z</time>
      </trkpt>
      <trkpt lat="49.29879" lon="-0.08505">
        <ele>5.7</ele>
        <time>2023-09-03T05:43:27Z</time>
      </trkpt>
      <trkpt lat="49.29884" lon="-0.08501">
        <ele>5.7</ele>
        <time>2023-09-03T05:43:28Z</time>
      </trkpt>
      <trkpt lat="49.29888" lon="-0.08496">
        <ele>5.7</ele>
        <time>2023-09-03T05:43:29Z</time>
      </trkpt>
      <trkpt lat="49.29891" lon="-0.08492">
        <ele>5.7</ele>
        <time>2023-09-03T05:43:30Z</time>
      </trkpt>
      <trkpt lat="49.29894" lon="-0.08489">
        <ele>5.8</ele>
        <time>2023-09-03T05:43:31Z</time>
      </trkpt>
      <trkpt lat="49.29898" lon="-0.08486">
        <ele>5.8</ele>
        <time>2023-09-03T05:43:32Z</time>
      </trkpt>
      <trkpt lat="49.29901" lon="-0.08482">
        <ele>5.8</ele>
        <time>2023-09-03T05:43:33Z</time>
      </trkpt>
      <trkpt lat="49.29903" lon="-0.08479">
        <ele>5.9</ele>
        <time>2023-09-03T05:43:34Z</time>
      </trkpt>
      <trkpt lat="49.29906" lon="-0.08476">
        <ele>5.9</ele>
        <time>2023-09-03T05:43:35Z</time>
      </trkpt>
      <trkpt lat="49.2991" lon="-0.08473">
        <ele>6</ele>
        <time>2023-09-03T05:43:36Z</time>
      </trkpt>
      <trkpt lat="49.29913" lon="-0.08469">
        <ele>6</ele>
        <time>2023-09-03T05:43:37Z</time>
      </trkpt>
      <trkpt lat="49.29917" lon="-0.08465">
        <ele>6</ele>
        <time>2023-09-03T05:43:38Z</time>
      </trkpt>
      <trkpt lat="49.29921" lon="-0.0846">
        <ele>6</ele>
        <time>2023-09-03T05:43:39Z</time>
      </trkpt>
      <trkpt lat="49.29925" lon="-0.08456">
        <ele>6</ele>
        <time>2023-09-03T05:43:40Z</time>
      </trkpt>
      <trkpt lat="49.29928" lon="-0.08451">
        <ele>6</ele>
        <time>2023-09-03T05:43:41Z</time>
      </trkpt>
      <trkpt lat="49.29931" lon="-0.08447">
        <ele>6.1</ele>
        <time>2023-09-03T05:43:42Z</time>
      </trkpt>
      <trkpt lat="49.29933" lon="-0.08444">
        <ele>6.1</ele>
        <time>2023-09-03T05:43:43Z</time>
      </trkpt>
      <trkpt lat="49.29935" lon="-0.08441">
        <ele>6.1</ele>
        <time>2023-09-03T05:43:44Z</time>
      </trkpt>
      <trkpt lat="49.29938" lon="-0.08437">
        <ele>6.1</ele>
        <time>2023-09-03T05:43:45Z</time>
      </trkpt>
      <trkpt lat="49.29938" lon="-0.08436">
        <ele>6.1</ele>
        <time>2023-09-03T05:43:46Z</time>
      </trkpt>
      <trkpt lat="49.29941" lon="-0.08433">
        <ele>6.1</ele>
        <time>2023-09-03T05:43:47Z</time>
      </trkpt>
      <trkpt lat="49.29941" lon="-0.08432">
        <ele>6.1</ele>
        <time>2023-09-03T05:43:48Z</time>
      </trkpt>
      <trkpt lat="49.29943" lon="-0.08431">
        <ele>6.1</ele>
        <time>2023-09-03T05:43:49Z</time>
      </trkpt>
      <trkpt lat="49.29944" lon="-0.08431">
        <ele>6.1</ele>
        <time>2023-09-03T05:43:50Z</time>
      </trkpt>
      <trkpt lat="49.29944" lon="-0.08431">
        <ele>6.2</ele>
        <time>2023-09-03T05:43:51Z</time>
      </trkpt>
      <trkpt lat="49.29945" lon="-0.08432">
        <ele>6.2</ele>
        <time>2023-09-03T05:43:52Z</time>
      </trkpt>
      <trkpt lat="49.29945" lon="-0.08432">
        <ele>6.2</ele>
        <time>2023-09-03T05:43:53Z</time>
      </trkpt>
      <trkpt lat="49.29945" lon="-0.08433">
        <ele>6.2</ele>
        <time>2023-09-03T05:43:54Z</time>
      </trkpt>
      <trkpt lat="49.29946" lon="-0.08434">
        <ele>6.2</ele>
        <time>2023-09-03T05:43:55Z</time>
      </trkpt>
      <trkpt lat="49.29946" lon="-0.08434">
        <ele>6.2</ele>
        <time>2023-09-03T05:43:56Z</time>
      </trkpt>
      <trkpt lat="49.29946" lon="-0.08434">
        <ele>6.2</ele>
        <time>2023-09-03T05:43:57Z</time>
      </trkpt>
      <trkpt lat="49.29945" lon="-0.08434">
        <ele>6.2</ele>
        <time>2023-09-03T05:43:58Z</time>
      </trkpt>
      <trkpt lat="49.29946" lon="-0.08433">
        <ele>6.2</ele>
        <time>2023-09-03T05:43:59Z</time>
      </trkpt>
      <trkpt lat="49.29947" lon="-0.08432">
        <ele>6.2</ele>
        <time>2023-09-03T05:44:00Z</time>
      </trkpt>
      <trkpt lat="49.29947" lon="-0.08431">
        <ele>6.2</ele>
        <time>2023-09-03T05:44:01Z</time>
      </trkpt>
      <trkpt lat="49.29949" lon="-0.0843">
        <ele>6.2</ele>
        <time>2023-09-03T05:44:02Z</time>
      </trkpt>
      <trkpt lat="49.2995" lon="-0.08429">
        <ele>6.2</ele>
        <time>2023-09-03T05:44:03Z</time>
      </trkpt>
      <trkpt lat="49.29951" lon="-0.08427">
        <ele>6.2</ele>
        <time>2023-09-03T05:44:04Z</time>
      </trkpt>
      <trkpt lat="49.29952" lon="-0.08424">
        <ele>6.2</ele>
        <time>2023-09-03T05:44:05Z</time>
      </trkpt>
      <trkpt lat="49.29953" lon="-0.08421">
        <ele>6.3</ele>
        <time>2023-09-03T05:44:06Z</time>
      </trkpt>
      <trkpt lat="49.29954" lon="-0.08419">
        <ele>6.3</ele>
        <time>2023-09-03T05:44:07Z</time>
      </trkpt>
      <trkpt lat="49.29956" lon="-0.08413">
        <ele>6.3</ele>
        <time>2023-09-03T05:44:08Z</time>
      </trkpt>
      <trkpt lat="49.29956" lon="-0.08411">
        <ele>6.3</ele>
        <time>2023-09-03T05:44:09Z</time>
      </trkpt>
      <trkpt lat="49.29958" lon="-0.08406">
        <ele>6.3</ele>
        <time>2023-09-03T05:44:10Z</time>
      </trkpt>
      <trkpt lat="49.2996" lon="-0.08402">
        <ele>6.4</ele>
        <time>2023-09-03T05:44:11Z</time>
      </trkpt>
      <trkpt lat="49.29962" lon="-0.08399">
        <ele>6.4</ele>
        <time>2023-09-03T05:44:12Z</time>
      </trkpt>
      <trkpt lat="49.29964" lon="-0.08395">
        <ele>6.5</ele>
        <time>2023-09-03T05:44:13Z</time>
      </trkpt>
      <trkpt lat="49.29966" lon="-0.08391">
        <ele>6.5</ele>
        <time>2023-09-03T05:44:14Z</time>
      </trkpt>
      <trkpt lat="49.29968" lon="-0.08388">
        <ele>6.5</ele>
        <time>2023-09-03T05:44:15Z</time>
      </trkpt>
      <trkpt lat="49.29972" lon="-0.08385">
        <ele>6.4</ele>
        <time>2023-09-03T05:44:16Z</time>
      </trkpt>
      <trkpt lat="49.29975" lon="-0.08383">
        <ele>6.4</ele>
        <time>2023-09-03T05:44:17Z</time>
      </trkpt>
      <trkpt lat="49.29978" lon="-0.08381">
        <ele>6.4</ele>
        <time>2023-09-03T05:44:18Z</time>
      </trkpt>
      <trkpt lat="49.29981" lon="-0.08379">
        <ele>6.3</ele>
        <time>2023-09-03T05:44:19Z</time>
      </trkpt>
      <trkpt lat="49.29985" lon="-0.08377">
        <ele>6.3</ele>
        <time>2023-09-03T05:44:20Z</time>
      </trkpt>
      <trkpt lat="49.29988" lon="-0.08374">
        <ele>6.2</ele>
        <time>2023-09-03T05:44:21Z</time>
      </trkpt>
      <trkpt lat="49.29992" lon="-0.08371">
        <ele>6.2</ele>
        <time>2023-09-03T05:44:22Z</time>
      </trkpt>
      <trkpt lat="49.29996" lon="-0.08367">
        <ele>6.1</ele>
        <time>2023-09-03T05:44:23Z</time>
      </trkpt>
      <trkpt lat="49.3" lon="-0.08363">
        <ele>6.1</ele>
        <time>2023-09-03T05:44:24Z</time>
      </trkpt>
      <trkpt lat="49.30004" lon="-0.08359">
        <ele>6</ele>
        <time>2023-09-03T05:44:25Z</time>
      </trkpt>
      <trkpt lat="49.30009" lon="-0.08355">
        <ele>5.9</ele>
        <time>2023-09-03T05:44:26Z</time>
      </trkpt>
      <trkpt lat="49.30013" lon="-0.08351">
        <ele>5.9</ele>
        <time>2023-09-03T05:44:27Z</time>
      </trkpt>
      <trkpt lat="49.30017" lon="-0.08347">
        <ele>5.8</ele>
        <time>2023-09-03T05:44:28Z</time>
      </trkpt>
      <trkpt lat="49.30021" lon="-0.08342">
        <ele>5.7</ele>
        <time>2023-09-03T05:44:29Z</time>
      </trkpt>
      <trkpt lat="49.30026" lon="-0.08339">
        <ele>5.7</ele>
        <time>2023-09-03T05:44:30Z</time>
      </trkpt>
      <trkpt lat="49.3003" lon="-0.08335">
        <ele>5.7</ele>
        <time>2023-09-03T05:44:31Z</time>
      </trkpt>
      <trkpt lat="49.30035" lon="-0.08331">
        <ele>5.7</ele>
        <time>2023-09-03T05:44:32Z</time>
      </trkpt>
      <trkpt lat="49.30039" lon="-0.08327">
        <ele>5.7</ele>
        <time>2023-09-03T05:44:33Z</time>
      </trkpt>
      <trkpt lat="49.30043" lon="-0.08323">
        <ele>5.7</ele>
        <time>2023-09-03T05:44:34Z</time>
      </trkpt>
      <trkpt lat="49.30047" lon="-0.08318">
        <ele>5.7</ele>
        <time>2023-09-03T05:44:35Z</time>
      </trkpt>
      <trkpt lat="49.3005" lon="-0.08314">
        <ele>5.7</ele>
        <time>2023-09-03T05:44:36Z</time>
      </trkpt>
      <trkpt lat="49.30053" lon="-0.08311">
        <ele>5.7</ele>
        <time>2023-09-03T05:44:37Z</time>
      </trkpt>
      <trkpt lat="49.30056" lon="-0.08308">
        <ele>5.7</ele>
        <time>2023-09-03T05:44:38Z</time>
      </trkpt>
      <trkpt lat="49.30059" lon="-0.08305">
        <ele>5.8</ele>
        <time>2023-09-03T05:44:39Z</time>
      </trkpt>
      <trkpt lat="49.3006" lon="-0.08304">
        <ele>5.8</ele>
        <time>2023-09-03T05:44:40Z</time>
      </trkpt>
      <trkpt lat="49.30063" lon="-0.08301">
        <ele>5.8</ele>
        <time>2023-09-03T05:44:41Z</time>
      </trkpt>
      <trkpt lat="49.30064" lon="-0.083">
        <ele>5.8</ele>
        <time>2023-09-03T05:44:42Z</time>
      </trkpt>
      <trkpt lat="49.30067" lon="-0.08298">
        <ele>5.8</ele>
        <time>2023-09-03T05:44:43Z</time>
      </trkpt>
      <trkpt lat="49.30067" lon="-0.08297">
        <ele>5.8</ele>
        <time>2023-09-03T05:44:44Z</time>
      </trkpt>
      <trkpt lat="49.30071" lon="-0.08293">
        <ele>5.9</ele>
        <time>2023-09-03T05:44:45Z</time>
      </trkpt>
      <trkpt lat="49.30072" lon="-0.08292">
        <ele>5.9</ele>
        <time>2023-09-03T05:44:46Z</time>
      </trkpt>
      <trkpt lat="49.30075" lon="-0.0829">
        <ele>5.9</ele>
        <time>2023-09-03T05:44:47Z</time>
      </trkpt>
      <trkpt lat="49.30078" lon="-0.08287">
        <ele>5.9</ele>
        <time>2023-09-03T05:44:48Z</time>
      </trkpt>
      <trkpt lat="49.30081" lon="-0.08284">
        <ele>5.9</ele>
        <time>2023-09-03T05:44:49Z</time>
      </trkpt>
      <trkpt lat="49.30084" lon="-0.0828">
        <ele>5.9</ele>
        <time>2023-09-03T05:44:50Z</time>
      </trkpt>
      <trkpt lat="49.30088" lon="-0.08276">
        <ele>5.9</ele>
        <time>2023-09-03T05:44:51Z</time>
      </trkpt>
      <trkpt lat="49.30091" lon="-0.08271">
        <ele>5.9</ele>
        <time>2023-09-03T05:44:52Z</time>
      </trkpt>
      <trkpt lat="49.30095" lon="-0.08266">
        <ele>5.9</ele>
        <time>2023-09-03T05:44:53Z</time>
      </trkpt>
      <trkpt lat="49.30099" lon="-0.08262">
        <ele>5.9</ele>
        <time>2023-09-03T05:44:54Z</time>
      </trkpt>
      <trkpt lat="49.30103" lon="-0.08259">
        <ele>5.9</ele>
        <time>2023-09-03T05:44:55Z</time>
      </trkpt>
      <trkpt lat="49.30108" lon="-0.08255">
        <ele>5.8</ele>
        <time>2023-09-03T05:44:56Z</time>
      </trkpt>
      <trkpt lat="49.30112" lon="-0.08251">
        <ele>5.8</ele>
        <time>2023-09-03T05:44:57Z</time>
      </trkpt>
      <trkpt lat="49.30115" lon="-0.08248">
        <ele>5.8</ele>
        <time>2023-09-03T05:44:58Z</time>
      </trkpt>
      <trkpt lat="49.30119" lon="-0.08244">
        <ele>5.8</ele>
        <time>2023-09-03T05:44:59Z</time>
      </trkpt>
      <trkpt lat="49.30122" lon="-0.0824">
        <ele>5.8</ele>
        <time>2023-09-03T05:45:00Z</time>
      </trkpt>
      <trkpt lat="49.30127" lon="-0.08235">
        <ele>5.8</ele>
        <time>2023-09-03T05:45:01Z</time>
      </trkpt>
      <trkpt lat="49.30131" lon="-0.0823">
        <ele>5.8</ele>
        <time>2023-09-03T05:45:02Z</time>
      </trkpt>
      <trkpt lat="49.30136" lon="-0.08226">
        <ele>5.9</ele>
        <time>2023-09-03T05:45:03Z</time>
      </trkpt>
      <trkpt lat="49.3014" lon="-0.08222">
        <ele>5.9</ele>
        <time>2023-09-03T05:45:04Z</time>
      </trkpt>
      <trkpt lat="49.30145" lon="-0.08217">
        <ele>5.9</ele>
        <time>2023-09-03T05:45:05Z</time>
      </trkpt>
      <trkpt lat="49.30149" lon="-0.08213">
        <ele>5.9</ele>
        <time>2023-09-03T05:45:06Z</time>
      </trkpt>
      <trkpt lat="49.30153" lon="-0.08208">
        <ele>5.9</ele>
        <time>2023-09-03T05:45:07Z</time>
      </trkpt>
      <trkpt lat="49.30157" lon="-0.08204">
        <ele>6</ele>
        <time>2023-09-03T05:45:08Z</time>
      </trkpt>
      <trkpt lat="49.30161" lon="-0.082">
        <ele>6</ele>
        <time>2023-09-03T05:45:09Z</time>
      </trkpt>
      <trkpt lat="49.30164" lon="-0.08196">
        <ele>6</ele>
        <time>2023-09-03T05:45:10Z</time>
      </trkpt>
      <trkpt lat="49.30167" lon="-0.08193">
        <ele>6</ele>
        <time>2023-09-03T05:45:11Z</time>
      </trkpt>
      <trkpt lat="49.3017" lon="-0.0819">
        <ele>6</ele>
        <time>2023-09-03T05:45:12Z</time>
      </trkpt>
      <trkpt lat="49.30173" lon="-0.08186">
        <ele>6</ele>
        <time>2023-09-03T05:45:13Z</time>
      </trkpt>
      <trkpt lat="49.30177" lon="-0.08181">
        <ele>6.1</ele>
        <time>2023-09-03T05:45:14Z</time>
      </trkpt>
      <trkpt lat="49.3018" lon="-0.08176">
        <ele>6.1</ele>
        <time>2023-09-03T05:45:15Z</time>
      </trkpt>
      <trkpt lat="49.30183" lon="-0.08171">
        <ele>6.1</ele>
        <time>2023-09-03T05:45:16Z</time>
      </trkpt>
      <trkpt lat="49.30186" lon="-0.08165">
        <ele>6.1</ele>
        <time>2023-09-03T05:45:17Z</time>
      </trkpt>
      <trkpt lat="49.30188" lon="-0.08159">
        <ele>6.1</ele>
        <time>2023-09-03T05:45:18Z</time>
      </trkpt>
      <trkpt lat="49.30191" lon="-0.08153">
        <ele>6.2</ele>
        <time>2023-09-03T05:45:19Z</time>
      </trkpt>
      <trkpt lat="49.30193" lon="-0.08147">
        <ele>6.2</ele>
        <time>2023-09-03T05:45:20Z</time>
      </trkpt>
      <trkpt lat="49.30196" lon="-0.0814">
        <ele>6.3</ele>
        <time>2023-09-03T05:45:21Z</time>
      </trkpt>
      <trkpt lat="49.30198" lon="-0.08134">
        <ele>6.3</ele>
        <time>2023-09-03T05:45:22Z</time>
      </trkpt>
      <trkpt lat="49.30201" lon="-0.08128">
        <ele>6.4</ele>
        <time>2023-09-03T05:45:23Z</time>
      </trkpt>
      <trkpt lat="49.30203" lon="-0.08122">
        <ele>6.4</ele>
        <time>2023-09-03T05:45:24Z</time>
      </trkpt>
      <trkpt lat="49.30206" lon="-0.08116">
        <ele>6.5</ele>
        <time>2023-09-03T05:45:25Z</time>
      </trkpt>
      <trkpt lat="49.30208" lon="-0.08109">
        <ele>6.6</ele>
        <time>2023-09-03T05:45:26Z</time>
      </trkpt>
      <trkpt lat="49.3021" lon="-0.08103">
        <ele>6.6</ele>
        <time>2023-09-03T05:45:27Z</time>
      </trkpt>
      <trkpt lat="49.30212" lon="-0.08097">
        <ele>6.7</ele>
        <time>2023-09-03T05:45:28Z</time>
      </trkpt>
      <trkpt lat="49.30214" lon="-0.0809">
        <ele>6.8</ele>
        <time>2023-09-03T05:45:29Z</time>
      </trkpt>
      <trkpt lat="49.30216" lon="-0.08083">
        <ele>6.8</ele>
        <time>2023-09-03T05:45:30Z</time>
      </trkpt>
      <trkpt lat="49.30219" lon="-0.08077">
        <ele>6.9</ele>
        <time>2023-09-03T05:45:31Z</time>
      </trkpt>
      <trkpt lat="49.30221" lon="-0.0807">
        <ele>6.9</ele>
        <time>2023-09-03T05:45:32Z</time>
      </trkpt>
      <trkpt lat="49.30223" lon="-0.08064">
        <ele>7</ele>
        <time>2023-09-03T05:45:33Z</time>
      </trkpt>
      <trkpt lat="49.30226" lon="-0.08057">
        <ele>7.1</ele>
        <time>2023-09-03T05:45:34Z</time>
      </trkpt>
      <trkpt lat="49.30228" lon="-0.0805">
        <ele>7.2</ele>
        <time>2023-09-03T05:45:35Z</time>
      </trkpt>
      <trkpt lat="49.30231" lon="-0.08043">
        <ele>7.2</ele>
        <time>2023-09-03T05:45:36Z</time>
      </trkpt>
      <trkpt lat="49.30234" lon="-0.08037">
        <ele>7.3</ele>
        <time>2023-09-03T05:45:37Z</time>
      </trkpt>
      <trkpt lat="49.30236" lon="-0.0803">
        <ele>7.4</ele>
        <time>2023-09-03T05:45:38Z</time>
      </trkpt>
      <trkpt lat="49.30238" lon="-0.08024">
        <ele>7.5</ele>
        <time>2023-09-03T05:45:39Z</time>
      </trkpt>
      <trkpt lat="49.30239" lon="-0.08017">
        <ele>7.5</ele>
        <time>2023-09-03T05:45:40Z</time>
      </trkpt>
      <trkpt lat="49.30241" lon="-0.0801">
        <ele>7.6</ele>
        <time>2023-09-03T05:45:41Z</time>
      </trkpt>
      <trkpt lat="49.30241" lon="-0.08003">
        <ele>7.7</ele>
        <time>2023-09-03T05:45:42Z</time>
      </trkpt>
      <trkpt lat="49.30239" lon="-0.07996">
        <ele>7.8</ele>
        <time>2023-09-03T05:45:43Z</time>
      </trkpt>
      <trkpt lat="49.30236" lon="-0.07989">
        <ele>7.8</ele>
        <time>2023-09-03T05:45:44Z</time>
      </trkpt>
      <trkpt lat="49.30231" lon="-0.07983">
        <ele>7.9</ele>
        <time>2023-09-03T05:45:45Z</time>
      </trkpt>
      <trkpt lat="49.30227" lon="-0.07976">
        <ele>8</ele>
        <time>2023-09-03T05:45:46Z</time>
      </trkpt>
      <trkpt lat="49.30223" lon="-0.07971">
        <ele>8.1</ele>
        <time>2023-09-03T05:45:47Z</time>
      </trkpt>
      <trkpt lat="49.30218" lon="-0.07965">
        <ele>8.2</ele>
        <time>2023-09-03T05:45:48Z</time>
      </trkpt>
      <trkpt lat="49.30215" lon="-0.07959">
        <ele>8.2</ele>
        <time>2023-09-03T05:45:49Z</time>
      </trkpt>
      <trkpt lat="49.30211" lon="-0.07954">
        <ele>8.3</ele>
        <time>2023-09-03T05:45:50Z</time>
      </trkpt>
      <trkpt lat="49.30207" lon="-0.07948">
        <ele>8.4</ele>
        <time>2023-09-03T05:45:51Z</time>
      </trkpt>
      <trkpt lat="49.30203" lon="-0.07942">
        <ele>8.5</ele>
        <time>2023-09-03T05:45:52Z</time>
      </trkpt>
      <trkpt lat="49.30199" lon="-0.07936">
        <ele>8.6</ele>
        <time>2023-09-03T05:45:53Z</time>
      </trkpt>
      <trkpt lat="49.30195" lon="-0.07929">
        <ele>8.7</ele>
        <time>2023-09-03T05:45:54Z</time>
      </trkpt>
      <trkpt lat="49.30191" lon="-0.07923">
        <ele>8.8</ele>
        <time>2023-09-03T05:45:55Z</time>
      </trkpt>
      <trkpt lat="49.30188" lon="-0.07917">
        <ele>8.9</ele>
        <time>2023-09-03T05:45:56Z</time>
      </trkpt>
      <trkpt lat="49.30185" lon="-0.07911">
        <ele>9</ele>
        <time>2023-09-03T05:45:57Z</time>
      </trkpt>
      <trkpt lat="49.30182" lon="-0.07905">
        <ele>9.1</ele>
        <time>2023-09-03T05:45:58Z</time>
      </trkpt>
      <trkpt lat="49.30179" lon="-0.079">
        <ele>9.2</ele>
        <time>2023-09-03T05:45:59Z</time>
      </trkpt>
      <trkpt lat="49.30177" lon="-0.07896">
        <ele>9.3</ele>
        <time>2023-09-03T05:46:00Z</time>
      </trkpt>
      <trkpt lat="49.30175" lon="-0.07891">
        <ele>9.4</ele>
        <time>2023-09-03T05:46:01Z</time>
      </trkpt>
      <trkpt lat="49.30171" lon="-0.07887">
        <ele>9.5</ele>
        <time>2023-09-03T05:46:02Z</time>
      </trkpt>
      <trkpt lat="49.30167" lon="-0.07883">
        <ele>9.5</ele>
        <time>2023-09-03T05:46:03Z</time>
      </trkpt>
      <trkpt lat="49.30164" lon="-0.07878">
        <ele>9.6</ele>
        <time>2023-09-03T05:46:04Z</time>
      </trkpt>
      <trkpt lat="49.30161" lon="-0.07873">
        <ele>9.6</ele>
        <time>2023-09-03T05:46:05Z</time>
      </trkpt>
      <trkpt lat="49.30158" lon="-0.07868">
        <ele>9.6</ele>
        <time>2023-09-03T05:46:06Z</time>
      </trkpt>
      <trkpt lat="49.30154" lon="-0.07862">
        <ele>9.7</ele>
        <time>2023-09-03T05:46:07Z</time>
      </trkpt>
      <trkpt lat="49.30151" lon="-0.07856">
        <ele>9.7</ele>
        <time>2023-09-03T05:46:08Z</time>
      </trkpt>
      <trkpt lat="49.30147" lon="-0.0785">
        <ele>9.8</ele>
        <time>2023-09-03T05:46:09Z</time>
      </trkpt>
      <trkpt lat="49.30144" lon="-0.07844">
        <ele>9.9</ele>
        <time>2023-09-03T05:46:10Z</time>
      </trkpt>
      <trkpt lat="49.30141" lon="-0.07838">
        <ele>9.9</ele>
        <time>2023-09-03T05:46:11Z</time>
      </trkpt>
      <trkpt lat="49.30137" lon="-0.07832">
        <ele>10</ele>
        <time>2023-09-03T05:46:12Z</time>
      </trkpt>
      <trkpt lat="49.30133" lon="-0.07826">
        <ele>10.1</ele>
        <time>2023-09-03T05:46:13Z</time>
      </trkpt>
      <trkpt lat="49.3013" lon="-0.0782">
        <ele>10.1</ele>
        <time>2023-09-03T05:46:14Z</time>
      </trkpt>
      <trkpt lat="49.30126" lon="-0.07814">
        <ele>10.2</ele>
        <time>2023-09-03T05:46:15Z</time>
      </trkpt>
      <trkpt lat="49.30123" lon="-0.07807">
        <ele>10.2</ele>
        <time>2023-09-03T05:46:16Z</time>
      </trkpt>
      <trkpt lat="49.3012" lon="-0.07801">
        <ele>10.3</ele>
        <time>2023-09-03T05:46:17Z</time>
      </trkpt>
      <trkpt lat="49.30116" lon="-0.07795">
        <ele>10.3</ele>
        <time>2023-09-03T05:46:18Z</time>
      </trkpt>
      <trkpt lat="49.30112" lon="-0.07789">
        <ele>10.4</ele>
        <time>2023-09-03T05:46:19Z</time>
      </trkpt>
      <trkpt lat="49.30109" lon="-0.07782">
        <ele>10.4</ele>
        <time>2023-09-03T05:46:20Z</time>
      </trkpt>
      <trkpt lat="49.30105" lon="-0.07776">
        <ele>10.5</ele>
        <time>2023-09-03T05:46:21Z</time>
      </trkpt>
      <trkpt lat="49.30102" lon="-0.07769">
        <ele>10.5</ele>
        <time>2023-09-03T05:46:22Z</time>
      </trkpt>
      <trkpt lat="49.30098" lon="-0.07762">
        <ele>10.6</ele>
        <time>2023-09-03T05:46:23Z</time>
      </trkpt>
      <trkpt lat="49.30095" lon="-0.07755">
        <ele>10.6</ele>
        <time>2023-09-03T05:46:24Z</time>
      </trkpt>
      <trkpt lat="49.30093" lon="-0.07747">
        <ele>10.7</ele>
        <time>2023-09-03T05:46:25Z</time>
      </trkpt>
      <trkpt lat="49.3009" lon="-0.0774">
        <ele>10.7</ele>
        <time>2023-09-03T05:46:26Z</time>
      </trkpt>
      <trkpt lat="49.30088" lon="-0.07732">
        <ele>10.8</ele>
        <time>2023-09-03T05:46:27Z</time>
      </trkpt>
      <trkpt lat="49.30085" lon="-0.07724">
        <ele>10.9</ele>
        <time>2023-09-03T05:46:28Z</time>
      </trkpt>
      <trkpt lat="49.30082" lon="-0.07717">
        <ele>10.9</ele>
        <time>2023-09-03T05:46:29Z</time>
      </trkpt>
      <trkpt lat="49.3008" lon="-0.07709">
        <ele>11</ele>
        <time>2023-09-03T05:46:30Z</time>
      </trkpt>
      <trkpt lat="49.30078" lon="-0.07703">
        <ele>11.1</ele>
        <time>2023-09-03T05:46:31Z</time>
      </trkpt>
      <trkpt lat="49.30076" lon="-0.07696">
        <ele>11.2</ele>
        <time>2023-09-03T05:46:32Z</time>
      </trkpt>
      <trkpt lat="49.30074" lon="-0.0769">
        <ele>11.2</ele>
        <time>2023-09-03T05:46:33Z</time>
      </trkpt>
      <trkpt lat="49.30072" lon="-0.07683">
        <ele>11.3</ele>
        <time>2023-09-03T05:46:34Z</time>
      </trkpt>
      <trkpt lat="49.30071" lon="-0.07676">
        <ele>11.4</ele>
        <time>2023-09-03T05:46:35Z</time>
      </trkpt>
      <trkpt lat="49.30069" lon="-0.07669">
        <ele>11.4</ele>
        <time>2023-09-03T05:46:36Z</time>
      </trkpt>
      <trkpt lat="49.30068" lon="-0.07661">
        <ele>11.5</ele>
        <time>2023-09-03T05:46:37Z</time>
      </trkpt>
      <trkpt lat="49.30067" lon="-0.07653">
        <ele>11.6</ele>
        <time>2023-09-03T05:46:38Z</time>
      </trkpt>
      <trkpt lat="49.30066" lon="-0.07645">
        <ele>11.6</ele>
        <time>2023-09-03T05:46:39Z</time>
      </trkpt>
      <trkpt lat="49.30066" lon="-0.07638">
        <ele>11.7</ele>
        <time>2023-09-03T05:46:40Z</time>
      </trkpt>
      <trkpt lat="49.30065" lon="-0.07629">
        <ele>11.7</ele>
        <time>2023-09-03T05:46:41Z</time>
      </trkpt>
      <trkpt lat="49.30064" lon="-0.07621">
        <ele>11.7</ele>
        <time>2023-09-03T05:46:42Z</time>
      </trkpt>
      <trkpt lat="49.30063" lon="-0.07613">
        <ele>11.8</ele>
        <time>2023-09-03T05:46:43Z</time>
      </trkpt>
      <trkpt lat="49.30061" lon="-0.07605">
        <ele>11.9</ele>
        <time>2023-09-03T05:46:44Z</time>
      </trkpt>
      <trkpt lat="49.30061" lon="-0.07597">
        <ele>12</ele>
        <time>2023-09-03T05:46:45Z</time>
      </trkpt>
      <trkpt lat="49.3006" lon="-0.07589">
        <ele>12.1</ele>
        <time>2023-09-03T05:46:46Z</time>
      </trkpt>
      <trkpt lat="49.3006" lon="-0.07583">
        <ele>12.2</ele>
        <time>2023-09-03T05:46:47Z</time>
      </trkpt>
      <trkpt lat="49.3006" lon="-0.07577">
        <ele>12.3</ele>
        <time>2023-09-03T05:46:48Z</time>
      </trkpt>
      <trkpt lat="49.30059" lon="-0.07571">
        <ele>12.4</ele>
        <time>2023-09-03T05:46:49Z</time>
      </trkpt>
      <trkpt lat="49.30059" lon="-0.07566">
        <ele>12.5</ele>
        <time>2023-09-03T05:46:50Z</time>
      </trkpt>
      <trkpt lat="49.30059" lon="-0.0756">
        <ele>12.7</ele>
        <time>2023-09-03T05:46:51Z</time>
      </trkpt>
      <trkpt lat="49.30059" lon="-0.07555">
        <ele>12.8</ele>
        <time>2023-09-03T05:46:52Z</time>
      </trkpt>
      <trkpt lat="49.3006" lon="-0.07549">
        <ele>12.9</ele>
        <time>2023-09-03T05:46:53Z</time>
      </trkpt>
      <trkpt lat="49.3006" lon="-0.07544">
        <ele>13</ele>
        <time>2023-09-03T05:46:54Z</time>
      </trkpt>
      <trkpt lat="49.3006" lon="-0.07538">
        <ele>13.1</ele>
        <time>2023-09-03T05:46:55Z</time>
      </trkpt>
      <trkpt lat="49.3006" lon="-0.07531">
        <ele>13.2</ele>
        <time>2023-09-03T05:46:56Z</time>
      </trkpt>
      <trkpt lat="49.3006" lon="-0.07525">
        <ele>13.5</ele>
        <time>2023-09-03T05:46:57Z</time>
      </trkpt>
      <trkpt lat="49.30061" lon="-0.07518">
        <ele>13.8</ele>
        <time>2023-09-03T05:46:58Z</time>
      </trkpt>
      <trkpt lat="49.30062" lon="-0.07512">
        <ele>14</ele>
        <time>2023-09-03T05:46:59Z</time>
      </trkpt>
      <trkpt lat="49.30062" lon="-0.07505">
        <ele>14.2</ele>
        <time>2023-09-03T05:47:00Z</time>
      </trkpt>
      <trkpt lat="49.30062" lon="-0.07498">
        <ele>14.4</ele>
        <time>2023-09-03T05:47:01Z</time>
      </trkpt>
      <trkpt lat="49.30061" lon="-0.07491">
        <ele>14.5</ele>
        <time>2023-09-03T05:47:02Z</time>
      </trkpt>
      <trkpt lat="49.30061" lon="-0.07484">
        <ele>14.6</ele>
        <time>2023-09-03T05:47:03Z</time>
      </trkpt>
      <trkpt lat="49.3006" lon="-0.07477">
        <ele>14.8</ele>
        <time>2023-09-03T05:47:04Z</time>
      </trkpt>
      <trkpt lat="49.30059" lon="-0.0747">
        <ele>14.9</ele>
        <time>2023-09-03T05:47:05Z</time>
      </trkpt>
      <trkpt lat="49.30058" lon="-0.07464">
        <ele>15.1</ele>
        <time>2023-09-03T05:47:06Z</time>
      </trkpt>
      <trkpt lat="49.30057" lon="-0.07457">
        <ele>15.2</ele>
        <time>2023-09-03T05:47:07Z</time>
      </trkpt>
      <trkpt lat="49.30056" lon="-0.07451">
        <ele>15.3</ele>
        <time>2023-09-03T05:47:08Z</time>
      </trkpt>
      <trkpt lat="49.30055" lon="-0.07445">
        <ele>15.6</ele>
        <time>2023-09-03T05:47:09Z</time>
      </trkpt>
      <trkpt lat="49.30054" lon="-0.07439">
        <ele>15.8</ele>
        <time>2023-09-03T05:47:10Z</time>
      </trkpt>
      <trkpt lat="49.30054" lon="-0.07434">
        <ele>16</ele>
        <time>2023-09-03T05:47:11Z</time>
      </trkpt>
      <trkpt lat="49.30053" lon="-0.0743">
        <ele>16.2</ele>
        <time>2023-09-03T05:47:12Z</time>
      </trkpt>
      <trkpt lat="49.30051" lon="-0.07426">
        <ele>16.4</ele>
        <time>2023-09-03T05:47:13Z</time>
      </trkpt>
      <trkpt lat="49.30049" lon="-0.07423">
        <ele>16.6</ele>
        <time>2023-09-03T05:47:14Z</time>
      </trkpt>
      <trkpt lat="49.30046" lon="-0.07422">
        <ele>16.7</ele>
        <time>2023-09-03T05:47:15Z</time>
      </trkpt>
      <trkpt lat="49.30042" lon="-0.07422">
        <ele>16.6</ele>
        <time>2023-09-03T05:47:16Z</time>
      </trkpt>
      <trkpt lat="49.30038" lon="-0.07424">
        <ele>16.4</ele>
        <time>2023-09-03T05:47:17Z</time>
      </trkpt>
      <trkpt lat="49.30035" lon="-0.07426">
        <ele>16.3</ele>
        <time>2023-09-03T05:47:18Z</time>
      </trkpt>
      <trkpt lat="49.30031" lon="-0.07428">
        <ele>16.1</ele>
        <time>2023-09-03T05:47:19Z</time>
      </trkpt>
      <trkpt lat="49.30026" lon="-0.07431">
        <ele>16</ele>
        <time>2023-09-03T05:47:20Z</time>
      </trkpt>
      <trkpt lat="49.30021" lon="-0.07433">
        <ele>16</ele>
        <time>2023-09-03T05:47:21Z</time>
      </trkpt>
      <trkpt lat="49.30017" lon="-0.07436">
        <ele>16</ele>
        <time>2023-09-03T05:47:22Z</time>
      </trkpt>
      <trkpt lat="49.30012" lon="-0.07438">
        <ele>16</ele>
        <time>2023-09-03T05:47:23Z</time>
      </trkpt>
      <trkpt lat="49.30007" lon="-0.07441">
        <ele>16</ele>
        <time>2023-09-03T05:47:24Z</time>
      </trkpt>
      <trkpt lat="49.30002" lon="-0.07444">
        <ele>16</ele>
        <time>2023-09-03T05:47:25Z</time>
      </trkpt>
      <trkpt lat="49.29996" lon="-0.07446">
        <ele>16</ele>
        <time>2023-09-03T05:47:26Z</time>
      </trkpt>
      <trkpt lat="49.29991" lon="-0.07447">
        <ele>16</ele>
        <time>2023-09-03T05:47:27Z</time>
      </trkpt>
      <trkpt lat="49.29987" lon="-0.07447">
        <ele>15.9</ele>
        <time>2023-09-03T05:47:28Z</time>
      </trkpt>
      <trkpt lat="49.29981" lon="-0.07447">
        <ele>15.9</ele>
        <time>2023-09-03T05:47:29Z</time>
      </trkpt>
      <trkpt lat="49.29976" lon="-0.07446">
        <ele>15.9</ele>
        <time>2023-09-03T05:47:30Z</time>
      </trkpt>
      <trkpt lat="49.29971" lon="-0.07444">
        <ele>15.8</ele>
        <time>2023-09-03T05:47:31Z</time>
      </trkpt>
      <trkpt lat="49.29967" lon="-0.07442">
        <ele>15.8</ele>
        <time>2023-09-03T05:47:32Z</time>
      </trkpt>
      <trkpt lat="49.29963" lon="-0.0744">
        <ele>15.8</ele>
        <time>2023-09-03T05:47:33Z</time>
      </trkpt>
      <trkpt lat="49.2996" lon="-0.07435">
        <ele>15.7</ele>
        <time>2023-09-03T05:47:34Z</time>
      </trkpt>
      <trkpt lat="49.29956" lon="-0.07431">
        <ele>15.7</ele>
        <time>2023-09-03T05:47:35Z</time>
      </trkpt>
      <trkpt lat="49.29952" lon="-0.07426">
        <ele>15.6</ele>
        <time>2023-09-03T05:47:36Z</time>
      </trkpt>
      <trkpt lat="49.29948" lon="-0.07421">
        <ele>15.6</ele>
        <time>2023-09-03T05:47:37Z</time>
      </trkpt>
      <trkpt lat="49.29946" lon="-0.07414">
        <ele>15.6</ele>
        <time>2023-09-03T05:47:38Z</time>
      </trkpt>
      <trkpt lat="49.29944" lon="-0.07407">
        <ele>15.6</ele>
        <time>2023-09-03T05:47:39Z</time>
      </trkpt>
      <trkpt lat="49.29942" lon="-0.074">
        <ele>15.6</ele>
        <time>2023-09-03T05:47:40Z</time>
      </trkpt>
      <trkpt lat="49.2994" lon="-0.07393">
        <ele>15.6</ele>
        <time>2023-09-03T05:47:41Z</time>
      </trkpt>
      <trkpt lat="49.29938" lon="-0.07387">
        <ele>15.5</ele>
        <time>2023-09-03T05:47:42Z</time>
      </trkpt>
      <trkpt lat="49.29936" lon="-0.0738">
        <ele>15.5</ele>
        <time>2023-09-03T05:47:43Z</time>
      </trkpt>
      <trkpt lat="49.29934" lon="-0.07373">
        <ele>15.5</ele>
        <time>2023-09-03T05:47:44Z</time>
      </trkpt>
      <trkpt lat="49.29931" lon="-0.07366">
        <ele>15.5</ele>
        <time>2023-09-03T05:47:45Z</time>
      </trkpt>
      <trkpt lat="49.29929" lon="-0.07359">
        <ele>15.4</ele>
        <time>2023-09-03T05:47:46Z</time>
      </trkpt>
      <trkpt lat="49.29926" lon="-0.07353">
        <ele>15.4</ele>
        <time>2023-09-03T05:47:47Z</time>
      </trkpt>
      <trkpt lat="49.29924" lon="-0.07347">
        <ele>15.4</ele>
        <time>2023-09-03T05:47:48Z</time>
      </trkpt>
      <trkpt lat="49.29921" lon="-0.0734">
        <ele>15.3</ele>
        <time>2023-09-03T05:47:49Z</time>
      </trkpt>
      <trkpt lat="49.29918" lon="-0.07334">
        <ele>15.3</ele>
        <time>2023-09-03T05:47:50Z</time>
      </trkpt>
      <trkpt lat="49.29915" lon="-0.07329">
        <ele>15.3</ele>
        <time>2023-09-03T05:47:51Z</time>
      </trkpt>
      <trkpt lat="49.29912" lon="-0.07324">
        <ele>15.2</ele>
        <time>2023-09-03T05:47:52Z</time>
      </trkpt>
      <trkpt lat="49.29909" lon="-0.07319">
        <ele>15.2</ele>
        <time>2023-09-03T05:47:53Z</time>
      </trkpt>
      <trkpt lat="49.29905" lon="-0.07314">
        <ele>15.1</ele>
        <time>2023-09-03T05:47:54Z</time>
      </trkpt>
      <trkpt lat="49.29901" lon="-0.0731">
        <ele>15.1</ele>
        <time>2023-09-03T05:47:55Z</time>
      </trkpt>
      <trkpt lat="49.29897" lon="-0.07305">
        <ele>15</ele>
        <time>2023-09-03T05:47:56Z</time>
      </trkpt>
      <trkpt lat="49.29892" lon="-0.073">
        <ele>15</ele>
        <time>2023-09-03T05:47:57Z</time>
      </trkpt>
      <trkpt lat="49.29887" lon="-0.07295">
        <ele>14.9</ele>
        <time>2023-09-03T05:47:58Z</time>
      </trkpt>
      <trkpt lat="49.29883" lon="-0.0729">
        <ele>14.9</ele>
        <time>2023-09-03T05:47:59Z</time>
      </trkpt>
      <trkpt lat="49.29878" lon="-0.07285">
        <ele>14.8</ele>
        <time>2023-09-03T05:48:00Z</time>
      </trkpt>
      <trkpt lat="49.29874" lon="-0.0728">
        <ele>14.8</ele>
        <time>2023-09-03T05:48:01Z</time>
      </trkpt>
      <trkpt lat="49.29869" lon="-0.07276">
        <ele>14.7</ele>
        <time>2023-09-03T05:48:02Z</time>
      </trkpt>
      <trkpt lat="49.29865" lon="-0.07271">
        <ele>14.7</ele>
        <time>2023-09-03T05:48:03Z</time>
      </trkpt>
      <trkpt lat="49.2986" lon="-0.07265">
        <ele>14.6</ele>
        <time>2023-09-03T05:48:04Z</time>
      </trkpt>
      <trkpt lat="49.29856" lon="-0.0726">
        <ele>14.6</ele>
        <time>2023-09-03T05:48:05Z</time>
      </trkpt>
      <trkpt lat="49.29852" lon="-0.07256">
        <ele>14.6</ele>
        <time>2023-09-03T05:48:06Z</time>
      </trkpt>
      <trkpt lat="49.29847" lon="-0.0725">
        <ele>14.6</ele>
        <time>2023-09-03T05:48:07Z</time>
      </trkpt>
      <trkpt lat="49.29842" lon="-0.07245">
        <ele>14.6</ele>
        <time>2023-09-03T05:48:08Z</time>
      </trkpt>
      <trkpt lat="49.29838" lon="-0.07241">
        <ele>14.6</ele>
        <time>2023-09-03T05:48:09Z</time>
      </trkpt>
      <trkpt lat="49.29833" lon="-0.07236">
        <ele>14.6</ele>
        <time>2023-09-03T05:48:10Z</time>
      </trkpt>
      <trkpt lat="49.29829" lon="-0.07232">
        <ele>14.6</ele>
        <time>2023-09-03T05:48:11Z</time>
      </trkpt>
      <trkpt lat="49.29825" lon="-0.07227">
        <ele>14.5</ele>
        <time>2023-09-03T05:48:12Z</time>
      </trkpt>
      <trkpt lat="49.29821" lon="-0.07222">
        <ele>14.5</ele>
        <time>2023-09-03T05:48:13Z</time>
      </trkpt>
      <trkpt lat="49.29817" lon="-0.07218">
        <ele>14.5</ele>
        <time>2023-09-03T05:48:14Z</time>
      </trkpt>
      <trkpt lat="49.29813" lon="-0.07213">
        <ele>14.4</ele>
        <time>2023-09-03T05:48:15Z</time>
      </trkpt>
      <trkpt lat="49.29809" lon="-0.07209">
        <ele>14.4</ele>
        <time>2023-09-03T05:48:16Z</time>
      </trkpt>
      <trkpt lat="49.29804" lon="-0.07205">
        <ele>14.4</ele>
        <time>2023-09-03T05:48:17Z</time>
      </trkpt>
      <trkpt lat="49.298" lon="-0.07201">
        <ele>14.4</ele>
        <time>2023-09-03T05:48:18Z</time>
      </trkpt>
      <trkpt lat="49.29795" lon="-0.07196">
        <ele>14.4</ele>
        <time>2023-09-03T05:48:19Z</time>
      </trkpt>
      <trkpt lat="49.2979" lon="-0.07192">
        <ele>14.4</ele>
        <time>2023-09-03T05:48:20Z</time>
      </trkpt>
      <trkpt lat="49.29786" lon="-0.07187">
        <ele>14.4</ele>
        <time>2023-09-03T05:48:21Z</time>
      </trkpt>
      <trkpt lat="49.29781" lon="-0.07184">
        <ele>14.4</ele>
        <time>2023-09-03T05:48:22Z</time>
      </trkpt>
      <trkpt lat="49.29776" lon="-0.07181">
        <ele>14.5</ele>
        <time>2023-09-03T05:48:23Z</time>
      </trkpt>
      <trkpt lat="49.2977" lon="-0.07178">
        <ele>14.5</ele>
        <time>2023-09-03T05:48:24Z</time>
      </trkpt>
      <trkpt lat="49.29765" lon="-0.07177">
        <ele>14.5</ele>
        <time>2023-09-03T05:48:25Z</time>
      </trkpt>
      <trkpt lat="49.29759" lon="-0.07175">
        <ele>14.6</ele>
        <time>2023-09-03T05:48:26Z</time>
      </trkpt>
      <trkpt lat="49.29753" lon="-0.07175">
        <ele>14.6</ele>
        <time>2023-09-03T05:48:27Z</time>
      </trkpt>
      <trkpt lat="49.29748" lon="-0.07174">
        <ele>14.7</ele>
        <time>2023-09-03T05:48:28Z</time>
      </trkpt>
      <trkpt lat="49.29742" lon="-0.07172">
        <ele>14.8</ele>
        <time>2023-09-03T05:48:29Z</time>
      </trkpt>
      <trkpt lat="49.29737" lon="-0.07171">
        <ele>14.8</ele>
        <time>2023-09-03T05:48:30Z</time>
      </trkpt>
      <trkpt lat="49.29731" lon="-0.07169">
        <ele>14.9</ele>
        <time>2023-09-03T05:48:31Z</time>
      </trkpt>
      <trkpt lat="49.29726" lon="-0.07166">
        <ele>15</ele>
        <time>2023-09-03T05:48:32Z</time>
      </trkpt>
      <trkpt lat="49.29721" lon="-0.07163">
        <ele>15</ele>
        <time>2023-09-03T05:48:33Z</time>
      </trkpt>
      <trkpt lat="49.29717" lon="-0.0716">
        <ele>15.1</ele>
        <time>2023-09-03T05:48:34Z</time>
      </trkpt>
      <trkpt lat="49.29713" lon="-0.07155">
        <ele>15.1</ele>
        <time>2023-09-03T05:48:35Z</time>
      </trkpt>
      <trkpt lat="49.29708" lon="-0.0715">
        <ele>15.2</ele>
        <time>2023-09-03T05:48:36Z</time>
      </trkpt>
      <trkpt lat="49.29704" lon="-0.07144">
        <ele>15.2</ele>
        <time>2023-09-03T05:48:37Z</time>
      </trkpt>
      <trkpt lat="49.297" lon="-0.07139">
        <ele>15.3</ele>
        <time>2023-09-03T05:48:38Z</time>
      </trkpt>
      <trkpt lat="49.29695" lon="-0.07134">
        <ele>15.3</ele>
        <time>2023-09-03T05:48:39Z</time>
      </trkpt>
      <trkpt lat="49.2969" lon="-0.07129">
        <ele>15.4</ele>
        <time>2023-09-03T05:48:40Z</time>
      </trkpt>
      <trkpt lat="49.29686" lon="-0.07124">
        <ele>15.4</ele>
        <time>2023-09-03T05:48:41Z</time>
      </trkpt>
      <trkpt lat="49.29682" lon="-0.07119">
        <ele>15.5</ele>
        <time>2023-09-03T05:48:42Z</time>
      </trkpt>
      <trkpt lat="49.29677" lon="-0.07114">
        <ele>15.6</ele>
        <time>2023-09-03T05:48:43Z</time>
      </trkpt>
      <trkpt lat="49.29673" lon="-0.07109">
        <ele>15.6</ele>
        <time>2023-09-03T05:48:44Z</time>
      </trkpt>
      <trkpt lat="49.29668" lon="-0.07104">
        <ele>15.7</ele>
        <time>2023-09-03T05:48:45Z</time>
      </trkpt>
      <trkpt lat="49.29664" lon="-0.07099">
        <ele>15.7</ele>
        <time>2023-09-03T05:48:46Z</time>
      </trkpt>
      <trkpt lat="49.29659" lon="-0.07093">
        <ele>15.8</ele>
        <time>2023-09-03T05:48:47Z</time>
      </trkpt>
      <trkpt lat="49.29655" lon="-0.07088">
        <ele>15.8</ele>
        <time>2023-09-03T05:48:48Z</time>
      </trkpt>
      <trkpt lat="49.2965" lon="-0.07083">
        <ele>15.9</ele>
        <time>2023-09-03T05:48:49Z</time>
      </trkpt>
      <trkpt lat="49.29646" lon="-0.07078">
        <ele>15.9</ele>
        <time>2023-09-03T05:48:50Z</time>
      </trkpt>
      <trkpt lat="49.29641" lon="-0.07073">
        <ele>15.9</ele>
        <time>2023-09-03T05:48:51Z</time>
      </trkpt>
      <trkpt lat="49.29637" lon="-0.07068">
        <ele>15.9</ele>
        <time>2023-09-03T05:48:52Z</time>
      </trkpt>
      <trkpt lat="49.29632" lon="-0.07064">
        <ele>16</ele>
        <time>2023-09-03T05:48:53Z</time>
      </trkpt>
      <trkpt lat="49.29628" lon="-0.07059">
        <ele>16</ele>
        <time>2023-09-03T05:48:54Z</time>
      </trkpt>
      <trkpt lat="49.29624" lon="-0.07055">
        <ele>16.1</ele>
        <time>2023-09-03T05:48:55Z</time>
      </trkpt>
      <trkpt lat="49.2962" lon="-0.0705">
        <ele>16.1</ele>
        <time>2023-09-03T05:48:56Z</time>
      </trkpt>
      <trkpt lat="49.29617" lon="-0.07045">
        <ele>16.2</ele>
        <time>2023-09-03T05:48:57Z</time>
      </trkpt>
      <trkpt lat="49.29613" lon="-0.07041">
        <ele>16.2</ele>
        <time>2023-09-03T05:48:58Z</time>
      </trkpt>
      <trkpt lat="49.29609" lon="-0.07036">
        <ele>16.3</ele>
        <time>2023-09-03T05:48:59Z</time>
      </trkpt>
      <trkpt lat="49.29605" lon="-0.07031">
        <ele>16.3</ele>
        <time>2023-09-03T05:49:00Z</time>
      </trkpt>
      <trkpt lat="49.29601" lon="-0.07027">
        <ele>16.4</ele>
        <time>2023-09-03T05:49:01Z</time>
      </trkpt>
      <trkpt lat="49.29597" lon="-0.07022">
        <ele>16.5</ele>
        <time>2023-09-03T05:49:02Z</time>
      </trkpt>
      <trkpt lat="49.29593" lon="-0.07017">
        <ele>16.5</ele>
        <time>2023-09-03T05:49:03Z</time>
      </trkpt>
      <trkpt lat="49.29589" lon="-0.07011">
        <ele>16.6</ele>
        <time>2023-09-03T05:49:04Z</time>
      </trkpt>
      <trkpt lat="49.29585" lon="-0.07006">
        <ele>16.6</ele>
        <time>2023-09-03T05:49:05Z</time>
      </trkpt>
      <trkpt lat="49.29581" lon="-0.07">
        <ele>16.7</ele>
        <time>2023-09-03T05:49:06Z</time>
      </trkpt>
      <trkpt lat="49.29577" lon="-0.06995">
        <ele>16.8</ele>
        <time>2023-09-03T05:49:07Z</time>
      </trkpt>
      <trkpt lat="49.29572" lon="-0.0699">
        <ele>16.8</ele>
        <time>2023-09-03T05:49:08Z</time>
      </trkpt>
      <trkpt lat="49.29568" lon="-0.06985">
        <ele>16.9</ele>
        <time>2023-09-03T05:49:09Z</time>
      </trkpt>
      <trkpt lat="49.29564" lon="-0.06979">
        <ele>16.9</ele>
        <time>2023-09-03T05:49:10Z</time>
      </trkpt>
      <trkpt lat="49.29561" lon="-0.06973">
        <ele>17</ele>
        <time>2023-09-03T05:49:11Z</time>
      </trkpt>
      <trkpt lat="49.29557" lon="-0.06967">
        <ele>17</ele>
        <time>2023-09-03T05:49:12Z</time>
      </trkpt>
      <trkpt lat="49.29554" lon="-0.06961">
        <ele>17.1</ele>
        <time>2023-09-03T05:49:13Z</time>
      </trkpt>
      <trkpt lat="49.2955" lon="-0.06956">
        <ele>17.1</ele>
        <time>2023-09-03T05:49:14Z</time>
      </trkpt>
      <trkpt lat="49.29546" lon="-0.0695">
        <ele>17.2</ele>
        <time>2023-09-03T05:49:15Z</time>
      </trkpt>
      <trkpt lat="49.29542" lon="-0.06945">
        <ele>17.3</ele>
        <time>2023-09-03T05:49:16Z</time>
      </trkpt>
      <trkpt lat="49.29538" lon="-0.06939">
        <ele>17.3</ele>
        <time>2023-09-03T05:49:17Z</time>
      </trkpt>
      <trkpt lat="49.29534" lon="-0.06933">
        <ele>17.4</ele>
        <time>2023-09-03T05:49:18Z</time>
      </trkpt>
      <trkpt lat="49.29531" lon="-0.06926">
        <ele>17.4</ele>
        <time>2023-09-03T05:49:19Z</time>
      </trkpt>
      <trkpt lat="49.29527" lon="-0.06919">
        <ele>17.5</ele>
        <time>2023-09-03T05:49:20Z</time>
      </trkpt>
      <trkpt lat="49.29524" lon="-0.06912">
        <ele>17.5</ele>
        <time>2023-09-03T05:49:21Z</time>
      </trkpt>
      <trkpt lat="49.2952" lon="-0.06905">
        <ele>17.6</ele>
        <time>2023-09-03T05:49:22Z</time>
      </trkpt>
      <trkpt lat="49.29516" lon="-0.06898">
        <ele>17.7</ele>
        <time>2023-09-03T05:49:23Z</time>
      </trkpt>
      <trkpt lat="49.29513" lon="-0.06892">
        <ele>17.7</ele>
        <time>2023-09-03T05:49:24Z</time>
      </trkpt>
      <trkpt lat="49.29509" lon="-0.06885">
        <ele>17.8</ele>
        <time>2023-09-03T05:49:25Z</time>
      </trkpt>
      <trkpt lat="49.29507" lon="-0.06878">
        <ele>17.9</ele>
        <time>2023-09-03T05:49:26Z</time>
      </trkpt>
      <trkpt lat="49.29504" lon="-0.06871">
        <ele>17.9</ele>
        <time>2023-09-03T05:49:27Z</time>
      </trkpt>
      <trkpt lat="49.29501" lon="-0.06864">
        <ele>18</ele>
        <time>2023-09-03T05:49:28Z</time>
      </trkpt>
      <trkpt lat="49.29498" lon="-0.06858">
        <ele>18</ele>
        <time>2023-09-03T05:49:29Z</time>
      </trkpt>
      <trkpt lat="49.29495" lon="-0.06851">
        <ele>18.1</ele>
        <time>2023-09-03T05:49:30Z</time>
      </trkpt>
      <trkpt lat="49.29493" lon="-0.06844">
        <ele>18.2</ele>
        <time>2023-09-03T05:49:31Z</time>
      </trkpt>
      <trkpt lat="49.2949" lon="-0.06837">
        <ele>18.3</ele>
        <time>2023-09-03T05:49:32Z</time>
      </trkpt>
      <trkpt lat="49.29488" lon="-0.0683">
        <ele>18.4</ele>
        <time>2023-09-03T05:49:33Z</time>
      </trkpt>
      <trkpt lat="49.29485" lon="-0.06823">
        <ele>18.4</ele>
        <time>2023-09-03T05:49:34Z</time>
      </trkpt>
      <trkpt lat="49.29483" lon="-0.06816">
        <ele>18.5</ele>
        <time>2023-09-03T05:49:35Z</time>
      </trkpt>
      <trkpt lat="49.29481" lon="-0.06809">
        <ele>18.6</ele>
        <time>2023-09-03T05:49:36Z</time>
      </trkpt>
      <trkpt lat="49.29479" lon="-0.06801">
        <ele>18.7</ele>
        <time>2023-09-03T05:49:37Z</time>
      </trkpt>
      <trkpt lat="49.29478" lon="-0.06794">
        <ele>18.7</ele>
        <time>2023-09-03T05:49:38Z</time>
      </trkpt>
      <trkpt lat="49.29477" lon="-0.06786">
        <ele>18.8</ele>
        <time>2023-09-03T05:49:39Z</time>
      </trkpt>
      <trkpt lat="49.29475" lon="-0.06779">
        <ele>18.9</ele>
        <time>2023-09-03T05:49:40Z</time>
      </trkpt>
      <trkpt lat="49.29474" lon="-0.0677">
        <ele>19</ele>
        <time>2023-09-03T05:49:41Z</time>
      </trkpt>
      <trkpt lat="49.29473" lon="-0.06762">
        <ele>19.1</ele>
        <time>2023-09-03T05:49:42Z</time>
      </trkpt>
      <trkpt lat="49.29473" lon="-0.06755">
        <ele>19.3</ele>
        <time>2023-09-03T05:49:43Z</time>
      </trkpt>
      <trkpt lat="49.29472" lon="-0.06747">
        <ele>19.4</ele>
        <time>2023-09-03T05:49:44Z</time>
      </trkpt>
      <trkpt lat="49.29472" lon="-0.0674">
        <ele>19.5</ele>
        <time>2023-09-03T05:49:45Z</time>
      </trkpt>
      <trkpt lat="49.29471" lon="-0.06733">
        <ele>19.6</ele>
        <time>2023-09-03T05:49:46Z</time>
      </trkpt>
      <trkpt lat="49.2947" lon="-0.06727">
        <ele>19.7</ele>
        <time>2023-09-03T05:49:47Z</time>
      </trkpt>
      <trkpt lat="49.2947" lon="-0.06721">
        <ele>19.9</ele>
        <time>2023-09-03T05:49:48Z</time>
      </trkpt>
      <trkpt lat="49.29469" lon="-0.06715">
        <ele>20</ele>
        <time>2023-09-03T05:49:49Z</time>
      </trkpt>
      <trkpt lat="49.29467" lon="-0.06711">
        <ele>20.1</ele>
        <time>2023-09-03T05:49:50Z</time>
      </trkpt>
      <trkpt lat="49.29465" lon="-0.06706">
        <ele>20.2</ele>
        <time>2023-09-03T05:49:51Z</time>
      </trkpt>
      <trkpt lat="49.29465" lon="-0.067">
        <ele>20.3</ele>
        <time>2023-09-03T05:49:52Z</time>
      </trkpt>
      <trkpt lat="49.29466" lon="-0.06693">
        <ele>20.4</ele>
        <time>2023-09-03T05:49:53Z</time>
      </trkpt>
      <trkpt lat="49.29469" lon="-0.06688">
        <ele>20.5</ele>
        <time>2023-09-03T05:49:54Z</time>
      </trkpt>
      <trkpt lat="49.29471" lon="-0.06682">
        <ele>20.5</ele>
        <time>2023-09-03T05:49:55Z</time>
      </trkpt>
      <trkpt lat="49.29474" lon="-0.06675">
        <ele>20.6</ele>
        <time>2023-09-03T05:49:56Z</time>
      </trkpt>
      <trkpt lat="49.29475" lon="-0.06667">
        <ele>20.7</ele>
        <time>2023-09-03T05:49:57Z</time>
      </trkpt>
      <trkpt lat="49.29476" lon="-0.06659">
        <ele>20.8</ele>
        <time>2023-09-03T05:49:58Z</time>
      </trkpt>
      <trkpt lat="49.29477" lon="-0.06651">
        <ele>20.9</ele>
        <time>2023-09-03T05:49:59Z</time>
      </trkpt>
      <trkpt lat="49.29478" lon="-0.06644">
        <ele>20.9</ele>
        <time>2023-09-03T05:50:00Z</time>
      </trkpt>
      <trkpt lat="49.2948" lon="-0.06636">
        <ele>21</ele>
        <time>2023-09-03T05:50:01Z</time>
      </trkpt>
      <trkpt lat="49.29482" lon="-0.06629">
        <ele>21.1</ele>
        <time>2023-09-03T05:50:02Z</time>
      </trkpt>
      <trkpt lat="49.29483" lon="-0.06621">
        <ele>21.2</ele>
        <time>2023-09-03T05:50:03Z</time>
      </trkpt>
      <trkpt lat="49.29485" lon="-0.06613">
        <ele>21.3</ele>
        <time>2023-09-03T05:50:04Z</time>
      </trkpt>
      <trkpt lat="49.29486" lon="-0.06606">
        <ele>21.4</ele>
        <time>2023-09-03T05:50:05Z</time>
      </trkpt>
      <trkpt lat="49.29488" lon="-0.06599">
        <ele>21.5</ele>
        <time>2023-09-03T05:50:06Z</time>
      </trkpt>
      <trkpt lat="49.2949" lon="-0.06592">
        <ele>21.6</ele>
        <time>2023-09-03T05:50:07Z</time>
      </trkpt>
      <trkpt lat="49.29491" lon="-0.06584">
        <ele>21.7</ele>
        <time>2023-09-03T05:50:08Z</time>
      </trkpt>
      <trkpt lat="49.29493" lon="-0.06576">
        <ele>21.7</ele>
        <time>2023-09-03T05:50:09Z</time>
      </trkpt>
      <trkpt lat="49.29495" lon="-0.06569">
        <ele>21.8</ele>
        <time>2023-09-03T05:50:10Z</time>
      </trkpt>
      <trkpt lat="49.29496" lon="-0.06562">
        <ele>21.8</ele>
        <time>2023-09-03T05:50:11Z</time>
      </trkpt>
      <trkpt lat="49.29497" lon="-0.06554">
        <ele>21.9</ele>
        <time>2023-09-03T05:50:12Z</time>
      </trkpt>
      <trkpt lat="49.29499" lon="-0.06546">
        <ele>21.9</ele>
        <time>2023-09-03T05:50:13Z</time>
      </trkpt>
      <trkpt lat="49.29501" lon="-0.06538">
        <ele>21.9</ele>
        <time>2023-09-03T05:50:14Z</time>
      </trkpt>
      <trkpt lat="49.29502" lon="-0.0653">
        <ele>22</ele>
        <time>2023-09-03T05:50:15Z</time>
      </trkpt>
      <trkpt lat="49.29504" lon="-0.06522">
        <ele>22</ele>
        <time>2023-09-03T05:50:16Z</time>
      </trkpt>
      <trkpt lat="49.29506" lon="-0.06514">
        <ele>22</ele>
        <time>2023-09-03T05:50:17Z</time>
      </trkpt>
      <trkpt lat="49.29508" lon="-0.06506">
        <ele>22</ele>
        <time>2023-09-03T05:50:18Z</time>
      </trkpt>
      <trkpt lat="49.29509" lon="-0.06497">
        <ele>22</ele>
        <time>2023-09-03T05:50:19Z</time>
      </trkpt>
      <trkpt lat="49.29511" lon="-0.0649">
        <ele>22</ele>
        <time>2023-09-03T05:50:20Z</time>
      </trkpt>
      <trkpt lat="49.29513" lon="-0.06482">
        <ele>22</ele>
        <time>2023-09-03T05:50:21Z</time>
      </trkpt>
      <trkpt lat="49.29514" lon="-0.06473">
        <ele>22</ele>
        <time>2023-09-03T05:50:22Z</time>
      </trkpt>
      <trkpt lat="49.29516" lon="-0.06465">
        <ele>22</ele>
        <time>2023-09-03T05:50:23Z</time>
      </trkpt>
      <trkpt lat="49.29518" lon="-0.06457">
        <ele>22</ele>
        <time>2023-09-03T05:50:24Z</time>
      </trkpt>
      <trkpt lat="49.2952" lon="-0.06449">
        <ele>22.1</ele>
        <time>2023-09-03T05:50:25Z</time>
      </trkpt>
      <trkpt lat="49.29521" lon="-0.06441">
        <ele>22.1</ele>
        <time>2023-09-03T05:50:26Z</time>
      </trkpt>
      <trkpt lat="49.29523" lon="-0.06433">
        <ele>22.1</ele>
        <time>2023-09-03T05:50:27Z</time>
      </trkpt>
      <trkpt lat="49.29524" lon="-0.06425">
        <ele>22.1</ele>
        <time>2023-09-03T05:50:28Z</time>
      </trkpt>
      <trkpt lat="49.29525" lon="-0.06417">
        <ele>22.1</ele>
        <time>2023-09-03T05:50:29Z</time>
      </trkpt>
      <trkpt lat="49.29527" lon="-0.06409">
        <ele>22.2</ele>
        <time>2023-09-03T05:50:30Z</time>
      </trkpt>
      <trkpt lat="49.29529" lon="-0.06401">
        <ele>22.2</ele>
        <time>2023-09-03T05:50:31Z</time>
      </trkpt>
      <trkpt lat="49.2953" lon="-0.06394">
        <ele>22.2</ele>
        <time>2023-09-03T05:50:32Z</time>
      </trkpt>
      <trkpt lat="49.29532" lon="-0.06387">
        <ele>22.2</ele>
        <time>2023-09-03T05:50:33Z</time>
      </trkpt>
      <trkpt lat="49.29534" lon="-0.0638">
        <ele>22.2</ele>
        <time>2023-09-03T05:50:34Z</time>
      </trkpt>
      <trkpt lat="49.29536" lon="-0.06372">
        <ele>22.3</ele>
        <time>2023-09-03T05:50:35Z</time>
      </trkpt>
      <trkpt lat="49.29539" lon="-0.06366">
        <ele>22.3</ele>
        <time>2023-09-03T05:50:36Z</time>
      </trkpt>
      <trkpt lat="49.29542" lon="-0.06359">
        <ele>22.3</ele>
        <time>2023-09-03T05:50:37Z</time>
      </trkpt>
      <trkpt lat="49.29545" lon="-0.06352">
        <ele>22.3</ele>
        <time>2023-09-03T05:50:38Z</time>
      </trkpt>
      <trkpt lat="49.29549" lon="-0.06346">
        <ele>22.4</ele>
        <time>2023-09-03T05:50:39Z</time>
      </trkpt>
      <trkpt lat="49.29552" lon="-0.0634">
        <ele>22.4</ele>
        <time>2023-09-03T05:50:40Z</time>
      </trkpt>
      <trkpt lat="49.29556" lon="-0.06333">
        <ele>22.4</ele>
        <time>2023-09-03T05:50:41Z</time>
      </trkpt>
      <trkpt lat="49.29559" lon="-0.06326">
        <ele>22.4</ele>
        <time>2023-09-03T05:50:42Z</time>
      </trkpt>
      <trkpt lat="49.29562" lon="-0.06319">
        <ele>22.4</ele>
        <time>2023-09-03T05:50:43Z</time>
      </trkpt>
      <trkpt lat="49.29565" lon="-0.06311">
        <ele>22.4</ele>
        <time>2023-09-03T05:50:44Z</time>
      </trkpt>
      <trkpt lat="49.29568" lon="-0.06303">
        <ele>22.5</ele>
        <time>2023-09-03T05:50:45Z</time>
      </trkpt>
      <trkpt lat="49.29571" lon="-0.06296">
        <ele>22.5</ele>
        <time>2023-09-03T05:50:46Z</time>
      </trkpt>
      <trkpt lat="49.29573" lon="-0.06288">
        <ele>22.5</ele>
        <time>2023-09-03T05:50:47Z</time>
      </trkpt>
      <trkpt lat="49.29575" lon="-0.06279">
        <ele>22.6</ele>
        <time>2023-09-03T05:50:48Z</time>
      </trkpt>
      <trkpt lat="49.29576" lon="-0.0627">
        <ele>22.7</ele>
        <time>2023-09-03T05:50:49Z</time>
      </trkpt>
      <trkpt lat="49.29576" lon="-0.06262">
        <ele>22.8</ele>
        <time>2023-09-03T05:50:50Z</time>
      </trkpt>
      <trkpt lat="49.29576" lon="-0.06254">
        <ele>22.9</ele>
        <time>2023-09-03T05:50:51Z</time>
      </trkpt>
      <trkpt lat="49.29576" lon="-0.06247">
        <ele>23</ele>
        <time>2023-09-03T05:50:52Z</time>
      </trkpt>
      <trkpt lat="49.29576" lon="-0.06239">
        <ele>23.1</ele>
        <time>2023-09-03T05:50:53Z</time>
      </trkpt>
      <trkpt lat="49.29576" lon="-0.06231">
        <ele>23.2</ele>
        <time>2023-09-03T05:50:54Z</time>
      </trkpt>
      <trkpt lat="49.29576" lon="-0.06224">
        <ele>23.3</ele>
        <time>2023-09-03T05:50:55Z</time>
      </trkpt>
      <trkpt lat="49.29576" lon="-0.06217">
        <ele>23.4</ele>
        <time>2023-09-03T05:50:56Z</time>
      </trkpt>
      <trkpt lat="49.29576" lon="-0.06209">
        <ele>23.5</ele>
        <time>2023-09-03T05:50:57Z</time>
      </trkpt>
      <trkpt lat="49.29576" lon="-0.06201">
        <ele>23.6</ele>
        <time>2023-09-03T05:50:58Z</time>
      </trkpt>
      <trkpt lat="49.29576" lon="-0.06193">
        <ele>23.7</ele>
        <time>2023-09-03T05:50:59Z</time>
      </trkpt>
      <trkpt lat="49.29575" lon="-0.06185">
        <ele>23.8</ele>
        <time>2023-09-03T05:51:00Z</time>
      </trkpt>
      <trkpt lat="49.29574" lon="-0.06177">
        <ele>23.9</ele>
        <time>2023-09-03T05:51:01Z</time>
      </trkpt>
      <trkpt lat="49.29573" lon="-0.06169">
        <ele>24</ele>
        <time>2023-09-03T05:51:02Z</time>
      </trkpt>
      <trkpt lat="49.29572" lon="-0.06161">
        <ele>24.1</ele>
        <time>2023-09-03T05:51:03Z</time>
      </trkpt>
      <trkpt lat="49.29572" lon="-0.06153">
        <ele>24.2</ele>
        <time>2023-09-03T05:51:04Z</time>
      </trkpt>
      <trkpt lat="49.29571" lon="-0.06145">
        <ele>24.3</ele>
        <time>2023-09-03T05:51:05Z</time>
      </trkpt>
      <trkpt lat="49.2957" lon="-0.06136">
        <ele>24.4</ele>
        <time>2023-09-03T05:51:06Z</time>
      </trkpt>
      <trkpt lat="49.2957" lon="-0.06128">
        <ele>24.5</ele>
        <time>2023-09-03T05:51:07Z</time>
      </trkpt>
      <trkpt lat="49.29569" lon="-0.0612">
        <ele>24.6</ele>
        <time>2023-09-03T05:51:08Z</time>
      </trkpt>
      <trkpt lat="49.29568" lon="-0.06112">
        <ele>24.7</ele>
        <time>2023-09-03T05:51:09Z</time>
      </trkpt>
      <trkpt lat="49.29568" lon="-0.06104">
        <ele>24.7</ele>
        <time>2023-09-03T05:51:10Z</time>
      </trkpt>
      <trkpt lat="49.29567" lon="-0.06097">
        <ele>24.8</ele>
        <time>2023-09-03T05:51:11Z</time>
      </trkpt>
      <trkpt lat="49.29566" lon="-0.06089">
        <ele>24.9</ele>
        <time>2023-09-03T05:51:12Z</time>
      </trkpt>
      <trkpt lat="49.29566" lon="-0.06083">
        <ele>25</ele>
        <time>2023-09-03T05:51:13Z</time>
      </trkpt>
      <trkpt lat="49.29565" lon="-0.06076">
        <ele>25.1</ele>
        <time>2023-09-03T05:51:14Z</time>
      </trkpt>
      <trkpt lat="49.29564" lon="-0.0607">
        <ele>25.2</ele>
        <time>2023-09-03T05:51:15Z</time>
      </trkpt>
      <trkpt lat="49.29564" lon="-0.06063">
        <ele>25.3</ele>
        <time>2023-09-03T05:51:16Z</time>
      </trkpt>
      <trkpt lat="49.29564" lon="-0.06056">
        <ele>25.4</ele>
        <time>2023-09-03T05:51:17Z</time>
      </trkpt>
      <trkpt lat="49.29563" lon="-0.06048">
        <ele>25.5</ele>
        <time>2023-09-03T05:51:18Z</time>
      </trkpt>
      <trkpt lat="49.29563" lon="-0.06041">
        <ele>25.6</ele>
        <time>2023-09-03T05:51:19Z</time>
      </trkpt>
      <trkpt lat="49.29563" lon="-0.06033">
        <ele>25.7</ele>
        <time>2023-09-03T05:51:20Z</time>
      </trkpt>
      <trkpt lat="49.29562" lon="-0.06025">
        <ele>25.8</ele>
        <time>2023-09-03T05:51:21Z</time>
      </trkpt>
      <trkpt lat="49.29562" lon="-0.06017">
        <ele>25.9</ele>
        <time>2023-09-03T05:51:22Z</time>
      </trkpt>
      <trkpt lat="49.29562" lon="-0.06009">
        <ele>26</ele>
        <time>2023-09-03T05:51:23Z</time>
      </trkpt>
      <trkpt lat="49.29561" lon="-0.06002">
        <ele>26.1</ele>
        <time>2023-09-03T05:51:24Z</time>
      </trkpt>
      <trkpt lat="49.29561" lon="-0.05995">
        <ele>26.1</ele>
        <time>2023-09-03T05:51:25Z</time>
      </trkpt>
      <trkpt lat="49.29561" lon="-0.05987">
        <ele>26.2</ele>
        <time>2023-09-03T05:51:26Z</time>
      </trkpt>
      <trkpt lat="49.29561" lon="-0.05979">
        <ele>26.2</ele>
        <time>2023-09-03T05:51:27Z</time>
      </trkpt>
      <trkpt lat="49.2956" lon="-0.05971">
        <ele>26.2</ele>
        <time>2023-09-03T05:51:28Z</time>
      </trkpt>
      <trkpt lat="49.2956" lon="-0.05963">
        <ele>26.2</ele>
        <time>2023-09-03T05:51:29Z</time>
      </trkpt>
      <trkpt lat="49.2956" lon="-0.05955">
        <ele>26.2</ele>
        <time>2023-09-03T05:51:30Z</time>
      </trkpt>
      <trkpt lat="49.2956" lon="-0.05946">
        <ele>26.2</ele>
        <time>2023-09-03T05:51:31Z</time>
      </trkpt>
      <trkpt lat="49.29559" lon="-0.05938">
        <ele>26.3</ele>
        <time>2023-09-03T05:51:32Z</time>
      </trkpt>
      <trkpt lat="49.29559" lon="-0.0593">
        <ele>26.3</ele>
        <time>2023-09-03T05:51:33Z</time>
      </trkpt>
      <trkpt lat="49.29559" lon="-0.05921">
        <ele>26.3</ele>
        <time>2023-09-03T05:51:34Z</time>
      </trkpt>
      <trkpt lat="49.29559" lon="-0.05913">
        <ele>26.4</ele>
        <time>2023-09-03T05:51:35Z</time>
      </trkpt>
      <trkpt lat="49.29559" lon="-0.05904">
        <ele>26.4</ele>
        <time>2023-09-03T05:51:36Z</time>
      </trkpt>
      <trkpt lat="49.29559" lon="-0.05896">
        <ele>26.4</ele>
        <time>2023-09-03T05:51:37Z</time>
      </trkpt>
      <trkpt lat="49.29559" lon="-0.05887">
        <ele>26.5</ele>
        <time>2023-09-03T05:51:38Z</time>
      </trkpt>
      <trkpt lat="49.29558" lon="-0.05878">
        <ele>26.5</ele>
        <time>2023-09-03T05:51:39Z</time>
      </trkpt>
      <trkpt lat="49.29557" lon="-0.0587">
        <ele>26.6</ele>
        <time>2023-09-03T05:51:40Z</time>
      </trkpt>
      <trkpt lat="49.29556" lon="-0.05861">
        <ele>26.6</ele>
        <time>2023-09-03T05:51:41Z</time>
      </trkpt>
      <trkpt lat="49.29555" lon="-0.05853">
        <ele>26.7</ele>
        <time>2023-09-03T05:51:42Z</time>
      </trkpt>
      <trkpt lat="49.29554" lon="-0.05845">
        <ele>26.8</ele>
        <time>2023-09-03T05:51:43Z</time>
      </trkpt>
      <trkpt lat="49.29553" lon="-0.05837">
        <ele>26.8</ele>
        <time>2023-09-03T05:51:44Z</time>
      </trkpt>
      <trkpt lat="49.29552" lon="-0.05829">
        <ele>26.8</ele>
        <time>2023-09-03T05:51:45Z</time>
      </trkpt>
      <trkpt lat="49.29551" lon="-0.05821">
        <ele>26.9</ele>
        <time>2023-09-03T05:51:46Z</time>
      </trkpt>
      <trkpt lat="49.2955" lon="-0.05813">
        <ele>27</ele>
        <time>2023-09-03T05:51:47Z</time>
      </trkpt>
      <trkpt lat="49.29548" lon="-0.05805">
        <ele>27</ele>
        <time>2023-09-03T05:51:48Z</time>
      </trkpt>
      <trkpt lat="49.29547" lon="-0.05797">
        <ele>27.1</ele>
        <time>2023-09-03T05:51:49Z</time>
      </trkpt>
      <trkpt lat="49.29547" lon="-0.05789">
        <ele>27.1</ele>
        <time>2023-09-03T05:51:50Z</time>
      </trkpt>
      <trkpt lat="49.29546" lon="-0.05781">
        <ele>27.2</ele>
        <time>2023-09-03T05:51:51Z</time>
      </trkpt>
      <trkpt lat="49.29545" lon="-0.05773">
        <ele>27.2</ele>
        <time>2023-09-03T05:51:52Z</time>
      </trkpt>
      <trkpt lat="49.29545" lon="-0.05765">
        <ele>27.3</ele>
        <time>2023-09-03T05:51:53Z</time>
      </trkpt>
      <trkpt lat="49.29545" lon="-0.05757">
        <ele>27.3</ele>
        <time>2023-09-03T05:51:54Z</time>
      </trkpt>
      <trkpt lat="49.29544" lon="-0.05749">
        <ele>27.4</ele>
        <time>2023-09-03T05:51:55Z</time>
      </trkpt>
      <trkpt lat="49.29543" lon="-0.05741">
        <ele>27.4</ele>
        <time>2023-09-03T05:51:56Z</time>
      </trkpt>
      <trkpt lat="49.29542" lon="-0.05734">
        <ele>27.5</ele>
        <time>2023-09-03T05:51:57Z</time>
      </trkpt>
      <trkpt lat="49.29541" lon="-0.05725">
        <ele>27.5</ele>
        <time>2023-09-03T05:51:58Z</time>
      </trkpt>
      <trkpt lat="49.29539" lon="-0.05717">
        <ele>27.6</ele>
        <time>2023-09-03T05:51:59Z</time>
      </trkpt>
      <trkpt lat="49.29537" lon="-0.05709">
        <ele>27.6</ele>
        <time>2023-09-03T05:52:00Z</time>
      </trkpt>
      <trkpt lat="49.29536" lon="-0.05702">
        <ele>27.7</ele>
        <time>2023-09-03T05:52:01Z</time>
      </trkpt>
      <trkpt lat="49.29533" lon="-0.05695">
        <ele>27.8</ele>
        <time>2023-09-03T05:52:02Z</time>
      </trkpt>
      <trkpt lat="49.29532" lon="-0.05687">
        <ele>27.9</ele>
        <time>2023-09-03T05:52:03Z</time>
      </trkpt>
      <trkpt lat="49.2953" lon="-0.05679">
        <ele>27.9</ele>
        <time>2023-09-03T05:52:04Z</time>
      </trkpt>
      <trkpt lat="49.29528" lon="-0.05672">
        <ele>28</ele>
        <time>2023-09-03T05:52:05Z</time>
      </trkpt>
      <trkpt lat="49.29526" lon="-0.05665">
        <ele>28.1</ele>
        <time>2023-09-03T05:52:06Z</time>
      </trkpt>
      <trkpt lat="49.29524" lon="-0.05657">
        <ele>28.2</ele>
        <time>2023-09-03T05:52:07Z</time>
      </trkpt>
      <trkpt lat="49.29522" lon="-0.0565">
        <ele>28.3</ele>
        <time>2023-09-03T05:52:08Z</time>
      </trkpt>
      <trkpt lat="49.29521" lon="-0.05643">
        <ele>28.3</ele>
        <time>2023-09-03T05:52:09Z</time>
      </trkpt>
      <trkpt lat="49.29519" lon="-0.05636">
        <ele>28.4</ele>
        <time>2023-09-03T05:52:10Z</time>
      </trkpt>
      <trkpt lat="49.29517" lon="-0.05629">
        <ele>28.4</ele>
        <time>2023-09-03T05:52:11Z</time>
      </trkpt>
      <trkpt lat="49.29515" lon="-0.05622">
        <ele>28.5</ele>
        <time>2023-09-03T05:52:12Z</time>
      </trkpt>
      <trkpt lat="49.29514" lon="-0.05615">
        <ele>28.6</ele>
        <time>2023-09-03T05:52:13Z</time>
      </trkpt>
      <trkpt lat="49.29512" lon="-0.05608">
        <ele>28.7</ele>
        <time>2023-09-03T05:52:14Z</time>
      </trkpt>
      <trkpt lat="49.2951" lon="-0.056">
        <ele>28.8</ele>
        <time>2023-09-03T05:52:15Z</time>
      </trkpt>
      <trkpt lat="49.29509" lon="-0.05593">
        <ele>29</ele>
        <time>2023-09-03T05:52:16Z</time>
      </trkpt>
      <trkpt lat="49.29507" lon="-0.05585">
        <ele>29.1</ele>
        <time>2023-09-03T05:52:17Z</time>
      </trkpt>
      <trkpt lat="49.29506" lon="-0.05578">
        <ele>29.2</ele>
        <time>2023-09-03T05:52:18Z</time>
      </trkpt>
      <trkpt lat="49.29504" lon="-0.05571">
        <ele>29.3</ele>
        <time>2023-09-03T05:52:19Z</time>
      </trkpt>
      <trkpt lat="49.29503" lon="-0.05563">
        <ele>29.5</ele>
        <time>2023-09-03T05:52:20Z</time>
      </trkpt>
      <trkpt lat="49.29502" lon="-0.05556">
        <ele>29.6</ele>
        <time>2023-09-03T05:52:21Z</time>
      </trkpt>
      <trkpt lat="49.29501" lon="-0.05549">
        <ele>29.8</ele>
        <time>2023-09-03T05:52:22Z</time>
      </trkpt>
      <trkpt lat="49.295" lon="-0.05542">
        <ele>29.9</ele>
        <time>2023-09-03T05:52:23Z</time>
      </trkpt>
      <trkpt lat="49.29498" lon="-0.05534">
        <ele>30.1</ele>
        <time>2023-09-03T05:52:24Z</time>
      </trkpt>
      <trkpt lat="49.29498" lon="-0.05527">
        <ele>30.3</ele>
        <time>2023-09-03T05:52:25Z</time>
      </trkpt>
      <trkpt lat="49.29498" lon="-0.05519">
        <ele>30.4</ele>
        <time>2023-09-03T05:52:26Z</time>
      </trkpt>
      <trkpt lat="49.29498" lon="-0.05512">
        <ele>30.6</ele>
        <time>2023-09-03T05:52:27Z</time>
      </trkpt>
      <trkpt lat="49.29497" lon="-0.05505">
        <ele>30.8</ele>
        <time>2023-09-03T05:52:28Z</time>
      </trkpt>
      <trkpt lat="49.29497" lon="-0.05497">
        <ele>31</ele>
        <time>2023-09-03T05:52:29Z</time>
      </trkpt>
      <trkpt lat="49.29496" lon="-0.0549">
        <ele>31.1</ele>
        <time>2023-09-03T05:52:30Z</time>
      </trkpt>
      <trkpt lat="49.29496" lon="-0.05483">
        <ele>31.3</ele>
        <time>2023-09-03T05:52:31Z</time>
      </trkpt>
      <trkpt lat="49.29495" lon="-0.05475">
        <ele>31.5</ele>
        <time>2023-09-03T05:52:32Z</time>
      </trkpt>
      <trkpt lat="49.29494" lon="-0.05468">
        <ele>31.6</ele>
        <time>2023-09-03T05:52:33Z</time>
      </trkpt>
      <trkpt lat="49.29493" lon="-0.05461">
        <ele>31.8</ele>
        <time>2023-09-03T05:52:34Z</time>
      </trkpt>
      <trkpt lat="49.29493" lon="-0.05454">
        <ele>32</ele>
        <time>2023-09-03T05:52:35Z</time>
      </trkpt>
      <trkpt lat="49.29492" lon="-0.05447">
        <ele>32.1</ele>
        <time>2023-09-03T05:52:36Z</time>
      </trkpt>
      <trkpt lat="49.29492" lon="-0.05439">
        <ele>32.3</ele>
        <time>2023-09-03T05:52:37Z</time>
      </trkpt>
      <trkpt lat="49.29491" lon="-0.05432">
        <ele>32.5</ele>
        <time>2023-09-03T05:52:38Z</time>
      </trkpt>
      <trkpt lat="49.29491" lon="-0.05425">
        <ele>32.6</ele>
        <time>2023-09-03T05:52:39Z</time>
      </trkpt>
      <trkpt lat="49.2949" lon="-0.05419">
        <ele>32.8</ele>
        <time>2023-09-03T05:52:40Z</time>
      </trkpt>
      <trkpt lat="49.29489" lon="-0.05412">
        <ele>33</ele>
        <time>2023-09-03T05:52:41Z</time>
      </trkpt>
      <trkpt lat="49.29489" lon="-0.05404">
        <ele>33.2</ele>
        <time>2023-09-03T05:52:42Z</time>
      </trkpt>
      <trkpt lat="49.29488" lon="-0.05397">
        <ele>33.4</ele>
        <time>2023-09-03T05:52:43Z</time>
      </trkpt>
      <trkpt lat="49.29487" lon="-0.0539">
        <ele>33.7</ele>
        <time>2023-09-03T05:52:44Z</time>
      </trkpt>
      <trkpt lat="49.29486" lon="-0.05384">
        <ele>33.9</ele>
        <time>2023-09-03T05:52:45Z</time>
      </trkpt>
      <trkpt lat="49.29485" lon="-0.05377">
        <ele>34.1</ele>
        <time>2023-09-03T05:52:46Z</time>
      </trkpt>
      <trkpt lat="49.29484" lon="-0.0537">
        <ele>34.3</ele>
        <time>2023-09-03T05:52:47Z</time>
      </trkpt>
      <trkpt lat="49.29482" lon="-0.05363">
        <ele>34.5</ele>
        <time>2023-09-03T05:52:48Z</time>
      </trkpt>
      <trkpt lat="49.29481" lon="-0.05357">
        <ele>34.7</ele>
        <time>2023-09-03T05:52:49Z</time>
      </trkpt>
      <trkpt lat="49.29479" lon="-0.0535">
        <ele>34.8</ele>
        <time>2023-09-03T05:52:50Z</time>
      </trkpt>
      <trkpt lat="49.29478" lon="-0.05343">
        <ele>35</ele>
        <time>2023-09-03T05:52:51Z</time>
      </trkpt>
      <trkpt lat="49.29476" lon="-0.05336">
        <ele>35.1</ele>
        <time>2023-09-03T05:52:52Z</time>
      </trkpt>
      <trkpt lat="49.29474" lon="-0.05329">
        <ele>35.2</ele>
        <time>2023-09-03T05:52:53Z</time>
      </trkpt>
      <trkpt lat="49.29471" lon="-0.05323">
        <ele>35.4</ele>
        <time>2023-09-03T05:52:54Z</time>
      </trkpt>
      <trkpt lat="49.29469" lon="-0.05316">
        <ele>35.5</ele>
        <time>2023-09-03T05:52:55Z</time>
      </trkpt>
      <trkpt lat="49.29467" lon="-0.05309">
        <ele>35.6</ele>
        <time>2023-09-03T05:52:56Z</time>
      </trkpt>
      <trkpt lat="49.29464" lon="-0.05302">
        <ele>35.8</ele>
        <time>2023-09-03T05:52:57Z</time>
      </trkpt>
      <trkpt lat="49.29461" lon="-0.05296">
        <ele>36</ele>
        <time>2023-09-03T05:52:58Z</time>
      </trkpt>
      <trkpt lat="49.29458" lon="-0.05289">
        <ele>36.1</ele>
        <time>2023-09-03T05:52:59Z</time>
      </trkpt>
      <trkpt lat="49.29455" lon="-0.05283">
        <ele>36.3</ele>
        <time>2023-09-03T05:53:00Z</time>
      </trkpt>
      <trkpt lat="49.29453" lon="-0.05276">
        <ele>36.4</ele>
        <time>2023-09-03T05:53:01Z</time>
      </trkpt>
      <trkpt lat="49.29451" lon="-0.05269">
        <ele>36.5</ele>
        <time>2023-09-03T05:53:02Z</time>
      </trkpt>
      <trkpt lat="49.29448" lon="-0.05262">
        <ele>36.6</ele>
        <time>2023-09-03T05:53:03Z</time>
      </trkpt>
      <trkpt lat="49.29445" lon="-0.05256">
        <ele>36.8</ele>
        <time>2023-09-03T05:53:04Z</time>
      </trkpt>
      <trkpt lat="49.29442" lon="-0.0525">
        <ele>36.9</ele>
        <time>2023-09-03T05:53:05Z</time>
      </trkpt>
      <trkpt lat="49.29439" lon="-0.05243">
        <ele>37</ele>
        <time>2023-09-03T05:53:06Z</time>
      </trkpt>
      <trkpt lat="49.29436" lon="-0.05237">
        <ele>37.1</ele>
        <time>2023-09-03T05:53:07Z</time>
      </trkpt>
      <trkpt lat="49.29433" lon="-0.0523">
        <ele>37.2</ele>
        <time>2023-09-03T05:53:08Z</time>
      </trkpt>
      <trkpt lat="49.2943" lon="-0.05224">
        <ele>37.4</ele>
        <time>2023-09-03T05:53:09Z</time>
      </trkpt>
      <trkpt lat="49.29427" lon="-0.05217">
        <ele>37.5</ele>
        <time>2023-09-03T05:53:10Z</time>
      </trkpt>
      <trkpt lat="49.29424" lon="-0.05211">
        <ele>37.6</ele>
        <time>2023-09-03T05:53:11Z</time>
      </trkpt>
      <trkpt lat="49.29422" lon="-0.05205">
        <ele>37.7</ele>
        <time>2023-09-03T05:53:12Z</time>
      </trkpt>
      <trkpt lat="49.29419" lon="-0.05199">
        <ele>37.8</ele>
        <time>2023-09-03T05:53:13Z</time>
      </trkpt>
      <trkpt lat="49.29416" lon="-0.05192">
        <ele>37.9</ele>
        <time>2023-09-03T05:53:14Z</time>
      </trkpt>
      <trkpt lat="49.29414" lon="-0.05186">
        <ele>38</ele>
        <time>2023-09-03T05:53:15Z</time>
      </trkpt>
      <trkpt lat="49.29411" lon="-0.05179">
        <ele>38.1</ele>
        <time>2023-09-03T05:53:16Z</time>
      </trkpt>
      <trkpt lat="49.29409" lon="-0.05172">
        <ele>38.2</ele>
        <time>2023-09-03T05:53:17Z</time>
      </trkpt>
      <trkpt lat="49.29407" lon="-0.05165">
        <ele>38.3</ele>
        <time>2023-09-03T05:53:18Z</time>
      </trkpt>
      <trkpt lat="49.29405" lon="-0.05157">
        <ele>38.4</ele>
        <time>2023-09-03T05:53:19Z</time>
      </trkpt>
      <trkpt lat="49.29403" lon="-0.0515">
        <ele>38.5</ele>
        <time>2023-09-03T05:53:20Z</time>
      </trkpt>
      <trkpt lat="49.29401" lon="-0.05143">
        <ele>38.5</ele>
        <time>2023-09-03T05:53:21Z</time>
      </trkpt>
      <trkpt lat="49.294" lon="-0.05136">
        <ele>38.6</ele>
        <time>2023-09-03T05:53:22Z</time>
      </trkpt>
      <trkpt lat="49.29398" lon="-0.05128">
        <ele>38.6</ele>
        <time>2023-09-03T05:53:23Z</time>
      </trkpt>
      <trkpt lat="49.29397" lon="-0.05121">
        <ele>38.5</ele>
        <time>2023-09-03T05:53:24Z</time>
      </trkpt>
      <trkpt lat="49.29395" lon="-0.05113">
        <ele>38.5</ele>
        <time>2023-09-03T05:53:25Z</time>
      </trkpt>
      <trkpt lat="49.29394" lon="-0.05105">
        <ele>38.5</ele>
        <time>2023-09-03T05:53:26Z</time>
      </trkpt>
      <trkpt lat="49.29392" lon="-0.05097">
        <ele>38.4</ele>
        <time>2023-09-03T05:53:27Z</time>
      </trkpt>
      <trkpt lat="49.29391" lon="-0.05089">
        <ele>38.3</ele>
        <time>2023-09-03T05:53:28Z</time>
      </trkpt>
      <trkpt lat="49.29389" lon="-0.05081">
        <ele>38.2</ele>
        <time>2023-09-03T05:53:29Z</time>
      </trkpt>
      <trkpt lat="49.29387" lon="-0.05073">
        <ele>38.1</ele>
        <time>2023-09-03T05:53:30Z</time>
      </trkpt>
      <trkpt lat="49.29385" lon="-0.05065">
        <ele>38</ele>
        <time>2023-09-03T05:53:31Z</time>
      </trkpt>
      <trkpt lat="49.29383" lon="-0.05056">
        <ele>37.8</ele>
        <time>2023-09-03T05:53:32Z</time>
      </trkpt>
      <trkpt lat="49.2938" lon="-0.05048">
        <ele>37.7</ele>
        <time>2023-09-03T05:53:33Z</time>
      </trkpt>
      <trkpt lat="49.29378" lon="-0.05039">
        <ele>37.5</ele>
        <time>2023-09-03T05:53:34Z</time>
      </trkpt>
      <trkpt lat="49.29375" lon="-0.05031">
        <ele>37.4</ele>
        <time>2023-09-03T05:53:35Z</time>
      </trkpt>
      <trkpt lat="49.29373" lon="-0.05022">
        <ele>37.2</ele>
        <time>2023-09-03T05:53:36Z</time>
      </trkpt>
      <trkpt lat="49.2937" lon="-0.05013">
        <ele>37.1</ele>
        <time>2023-09-03T05:53:37Z</time>
      </trkpt>
      <trkpt lat="49.29367" lon="-0.05005">
        <ele>37</ele>
        <time>2023-09-03T05:53:38Z</time>
      </trkpt>
      <trkpt lat="49.29364" lon="-0.04996">
        <ele>36.9</ele>
        <time>2023-09-03T05:53:39Z</time>
      </trkpt>
      <trkpt lat="49.29362" lon="-0.04987">
        <ele>36.7</ele>
        <time>2023-09-03T05:53:40Z</time>
      </trkpt>
      <trkpt lat="49.29359" lon="-0.04979">
        <ele>36.6</ele>
        <time>2023-09-03T05:53:41Z</time>
      </trkpt>
      <trkpt lat="49.29356" lon="-0.0497">
        <ele>36.4</ele>
        <time>2023-09-03T05:53:42Z</time>
      </trkpt>
      <trkpt lat="49.29352" lon="-0.04961">
        <ele>36.3</ele>
        <time>2023-09-03T05:53:43Z</time>
      </trkpt>
      <trkpt lat="49.29348" lon="-0.04953">
        <ele>36.1</ele>
        <time>2023-09-03T05:53:44Z</time>
      </trkpt>
      <trkpt lat="49.29345" lon="-0.04944">
        <ele>36</ele>
        <time>2023-09-03T05:53:45Z</time>
      </trkpt>
      <trkpt lat="49.29341" lon="-0.04936">
        <ele>35.8</ele>
        <time>2023-09-03T05:53:46Z</time>
      </trkpt>
      <trkpt lat="49.29337" lon="-0.04928">
        <ele>35.7</ele>
        <time>2023-09-03T05:53:47Z</time>
      </trkpt>
      <trkpt lat="49.29333" lon="-0.0492">
        <ele>35.7</ele>
        <time>2023-09-03T05:53:48Z</time>
      </trkpt>
      <trkpt lat="49.29329" lon="-0.04914">
        <ele>35.6</ele>
        <time>2023-09-03T05:53:49Z</time>
      </trkpt>
      <trkpt lat="49.29326" lon="-0.04907">
        <ele>35.6</ele>
        <time>2023-09-03T05:53:50Z</time>
      </trkpt>
      <trkpt lat="49.29322" lon="-0.049">
        <ele>35.6</ele>
        <time>2023-09-03T05:53:51Z</time>
      </trkpt>
      <trkpt lat="49.29319" lon="-0.04893">
        <ele>35.7</ele>
        <time>2023-09-03T05:53:52Z</time>
      </trkpt>
      <trkpt lat="49.29316" lon="-0.04887">
        <ele>35.8</ele>
        <time>2023-09-03T05:53:53Z</time>
      </trkpt>
      <trkpt lat="49.2931" lon="-0.04879">
        <ele>35.9</ele>
        <time>2023-09-03T05:53:55Z</time>
      </trkpt>
      <trkpt lat="49.29305" lon="-0.04876">
        <ele>36</ele>
        <time>2023-09-03T05:53:56Z</time>
      </trkpt>
      <trkpt lat="49.29301" lon="-0.04876">
        <ele>35.9</ele>
        <time>2023-09-03T05:53:57Z</time>
      </trkpt>
      <trkpt lat="49.29297" lon="-0.04877">
        <ele>35.9</ele>
        <time>2023-09-03T05:53:58Z</time>
      </trkpt>
      <trkpt lat="49.29293" lon="-0.04879">
        <ele>36</ele>
        <time>2023-09-03T05:53:59Z</time>
      </trkpt>
      <trkpt lat="49.29289" lon="-0.04881">
        <ele>36</ele>
        <time>2023-09-03T05:54:00Z</time>
      </trkpt>
      <trkpt lat="49.29286" lon="-0.04883">
        <ele>36.1</ele>
        <time>2023-09-03T05:54:01Z</time>
      </trkpt>
      <trkpt lat="49.29283" lon="-0.04885">
        <ele>36.1</ele>
        <time>2023-09-03T05:54:02Z</time>
      </trkpt>
      <trkpt lat="49.29281" lon="-0.04887">
        <ele>36.2</ele>
        <time>2023-09-03T05:54:03Z</time>
      </trkpt>
      <trkpt lat="49.29278" lon="-0.04889">
        <ele>36.3</ele>
        <time>2023-09-03T05:54:04Z</time>
      </trkpt>
      <trkpt lat="49.29274" lon="-0.04892">
        <ele>36.4</ele>
        <time>2023-09-03T05:54:05Z</time>
      </trkpt>
      <trkpt lat="49.29273" lon="-0.04892">
        <ele>36.4</ele>
        <time>2023-09-03T05:54:06Z</time>
      </trkpt>
      <trkpt lat="49.29271" lon="-0.04894">
        <ele>36.5</ele>
        <time>2023-09-03T05:54:07Z</time>
      </trkpt>
      <trkpt lat="49.29267" lon="-0.04897">
        <ele>36.7</ele>
        <time>2023-09-03T05:54:08Z</time>
      </trkpt>
      <trkpt lat="49.29266" lon="-0.04898">
        <ele>36.7</ele>
        <time>2023-09-03T05:54:09Z</time>
      </trkpt>
      <trkpt lat="49.29263" lon="-0.04901">
        <ele>36.9</ele>
        <time>2023-09-03T05:54:10Z</time>
      </trkpt>
      <trkpt lat="49.29262" lon="-0.04902">
        <ele>37</ele>
        <time>2023-09-03T05:54:11Z</time>
      </trkpt>
      <trkpt lat="49.29259" lon="-0.04904">
        <ele>37.1</ele>
        <time>2023-09-03T05:54:12Z</time>
      </trkpt>
      <trkpt lat="49.29258" lon="-0.04904">
        <ele>37.2</ele>
        <time>2023-09-03T05:54:13Z</time>
      </trkpt>
      <trkpt lat="49.29254" lon="-0.04905">
        <ele>37.4</ele>
        <time>2023-09-03T05:54:14Z</time>
      </trkpt>
      <trkpt lat="49.29253" lon="-0.04906">
        <ele>37.5</ele>
        <time>2023-09-03T05:54:15Z</time>
      </trkpt>
      <trkpt lat="49.2925" lon="-0.04907">
        <ele>37.7</ele>
        <time>2023-09-03T05:54:16Z</time>
      </trkpt>
      <trkpt lat="49.29249" lon="-0.04908">
        <ele>37.8</ele>
        <time>2023-09-03T05:54:17Z</time>
      </trkpt>
      <trkpt lat="49.29245" lon="-0.0491">
        <ele>38.2</ele>
        <time>2023-09-03T05:54:18Z</time>
      </trkpt>
      <trkpt lat="49.29244" lon="-0.0491">
        <ele>38.3</ele>
        <time>2023-09-03T05:54:19Z</time>
      </trkpt>
      <trkpt lat="49.29241" lon="-0.04912">
        <ele>38.6</ele>
        <time>2023-09-03T05:54:20Z</time>
      </trkpt>
      <trkpt lat="49.2924" lon="-0.04913">
        <ele>38.6</ele>
        <time>2023-09-03T05:54:21Z</time>
      </trkpt>
      <trkpt lat="49.29236" lon="-0.04913">
        <ele>38.9</ele>
        <time>2023-09-03T05:54:22Z</time>
      </trkpt>
      <trkpt lat="49.29235" lon="-0.04912">
        <ele>39</ele>
        <time>2023-09-03T05:54:23Z</time>
      </trkpt>
      <trkpt lat="49.29231" lon="-0.04913">
        <ele>39.3</ele>
        <time>2023-09-03T05:54:24Z</time>
      </trkpt>
      <trkpt lat="49.2923" lon="-0.04914">
        <ele>39.4</ele>
        <time>2023-09-03T05:54:25Z</time>
      </trkpt>
      <trkpt lat="49.29227" lon="-0.04916">
        <ele>39.6</ele>
        <time>2023-09-03T05:54:26Z</time>
      </trkpt>
      <trkpt lat="49.29226" lon="-0.04917">
        <ele>39.7</ele>
        <time>2023-09-03T05:54:27Z</time>
      </trkpt>
      <trkpt lat="49.29223" lon="-0.04918">
        <ele>39.8</ele>
        <time>2023-09-03T05:54:28Z</time>
      </trkpt>
      <trkpt lat="49.29219" lon="-0.04917">
        <ele>40</ele>
        <time>2023-09-03T05:54:29Z</time>
      </trkpt>
      <trkpt lat="49.29218" lon="-0.04916">
        <ele>40</ele>
        <time>2023-09-03T05:54:30Z</time>
      </trkpt>
      <trkpt lat="49.29215" lon="-0.04912">
        <ele>40.1</ele>
        <time>2023-09-03T05:54:31Z</time>
      </trkpt>
      <trkpt lat="49.29211" lon="-0.04908">
        <ele>40.1</ele>
        <time>2023-09-03T05:54:32Z</time>
      </trkpt>
      <trkpt lat="49.29208" lon="-0.04904">
        <ele>40.1</ele>
        <time>2023-09-03T05:54:33Z</time>
      </trkpt>
      <trkpt lat="49.29206" lon="-0.04901">
        <ele>40.1</ele>
        <time>2023-09-03T05:54:34Z</time>
      </trkpt>
      <trkpt lat="49.29204" lon="-0.04897">
        <ele>40.1</ele>
        <time>2023-09-03T05:54:35Z</time>
      </trkpt>
      <trkpt lat="49.29202" lon="-0.04894">
        <ele>40</ele>
        <time>2023-09-03T05:54:36Z</time>
      </trkpt>
      <trkpt lat="49.29201" lon="-0.04892">
        <ele>40</ele>
        <time>2023-09-03T05:54:37Z</time>
      </trkpt>
      <trkpt lat="49.292" lon="-0.04891">
        <ele>40</ele>
        <time>2023-09-03T05:54:38Z</time>
      </trkpt>
      <trkpt lat="49.29199" lon="-0.04891">
        <ele>40</ele>
        <time>2023-09-03T05:54:39Z</time>
      </trkpt>
      <trkpt lat="49.29199" lon="-0.04891">
        <ele>40</ele>
        <time>2023-09-03T05:54:40Z</time>
      </trkpt>
      <trkpt lat="49.29199" lon="-0.0489">
        <ele>40</ele>
        <time>2023-09-03T05:54:41Z</time>
      </trkpt>
      <trkpt lat="49.29198" lon="-0.0489">
        <ele>40</ele>
        <time>2023-09-03T05:54:42Z</time>
      </trkpt>
      <trkpt lat="49.29198" lon="-0.04889">
        <ele>40</ele>
        <time>2023-09-03T05:54:43Z</time>
      </trkpt>
      <trkpt lat="49.29198" lon="-0.04888">
        <ele>40</ele>
        <time>2023-09-03T05:54:44Z</time>
      </trkpt>
      <trkpt lat="49.29198" lon="-0.04887">
        <ele>40</ele>
        <time>2023-09-03T05:54:45Z</time>
      </trkpt>
      <trkpt lat="49.29197" lon="-0.04886">
        <ele>40</ele>
        <time>2023-09-03T05:54:46Z</time>
      </trkpt>
      <trkpt lat="49.29197" lon="-0.04886">
        <ele>39.9</ele>
        <time>2023-09-03T05:54:47Z</time>
      </trkpt>
      <trkpt lat="49.29197" lon="-0.04885">
        <ele>39.9</ele>
        <time>2023-09-03T05:54:48Z</time>
      </trkpt>
      <trkpt lat="49.29197" lon="-0.04884">
        <ele>39.9</ele>
        <time>2023-09-03T05:54:49Z</time>
      </trkpt>
      <trkpt lat="49.29197" lon="-0.04883">
        <ele>39.9</ele>
        <time>2023-09-03T05:56:05Z</time>
      </trkpt>
      <trkpt lat="49.29196" lon="-0.04882">
        <ele>39.9</ele>
        <time>2023-09-03T05:56:06Z</time>
      </trkpt>
      <trkpt lat="49.29196" lon="-0.04881">
        <ele>39.9</ele>
        <time>2023-09-03T05:56:07Z</time>
      </trkpt>
      <trkpt lat="49.29195" lon="-0.04875">
        <ele>39.8</ele>
        <time>2023-09-03T05:56:08Z</time>
      </trkpt>
      <trkpt lat="49.29194" lon="-0.04867">
        <ele>39.6</ele>
        <time>2023-09-03T05:56:09Z</time>
      </trkpt>
      <trkpt lat="49.29193" lon="-0.04859">
        <ele>39.4</ele>
        <time>2023-09-03T05:56:10Z</time>
      </trkpt>
      <trkpt lat="49.29193" lon="-0.0485">
        <ele>39.2</ele>
        <time>2023-09-03T05:56:11Z</time>
      </trkpt>
      <trkpt lat="49.29192" lon="-0.04842">
        <ele>39</ele>
        <time>2023-09-03T05:56:12Z</time>
      </trkpt>
      <trkpt lat="49.29191" lon="-0.04833">
        <ele>38.9</ele>
        <time>2023-09-03T05:56:13Z</time>
      </trkpt>
      <trkpt lat="49.2919" lon="-0.04825">
        <ele>38.8</ele>
        <time>2023-09-03T05:56:14Z</time>
      </trkpt>
      <trkpt lat="49.29189" lon="-0.04816">
        <ele>38.7</ele>
        <time>2023-09-03T05:56:15Z</time>
      </trkpt>
      <trkpt lat="49.29188" lon="-0.04807">
        <ele>38.6</ele>
        <time>2023-09-03T05:56:16Z</time>
      </trkpt>
      <trkpt lat="49.29187" lon="-0.04799">
        <ele>38.6</ele>
        <time>2023-09-03T05:56:17Z</time>
      </trkpt>
      <trkpt lat="49.29186" lon="-0.0479">
        <ele>38.6</ele>
        <time>2023-09-03T05:56:18Z</time>
      </trkpt>
      <trkpt lat="49.29186" lon="-0.04781">
        <ele>38.6</ele>
        <time>2023-09-03T05:56:19Z</time>
      </trkpt>
      <trkpt lat="49.29185" lon="-0.04772">
        <ele>38.6</ele>
        <time>2023-09-03T05:56:20Z</time>
      </trkpt>
      <trkpt lat="49.29184" lon="-0.04764">
        <ele>38.7</ele>
        <time>2023-09-03T05:56:21Z</time>
      </trkpt>
      <trkpt lat="49.29183" lon="-0.04756">
        <ele>38.7</ele>
        <time>2023-09-03T05:56:22Z</time>
      </trkpt>
      <trkpt lat="49.29181" lon="-0.04749">
        <ele>38.8</ele>
        <time>2023-09-03T05:56:23Z</time>
      </trkpt>
      <trkpt lat="49.2918" lon="-0.04742">
        <ele>38.9</ele>
        <time>2023-09-03T05:56:24Z</time>
      </trkpt>
      <trkpt lat="49.29177" lon="-0.04734">
        <ele>39.1</ele>
        <time>2023-09-03T05:56:25Z</time>
      </trkpt>
      <trkpt lat="49.29175" lon="-0.04727">
        <ele>39.2</ele>
        <time>2023-09-03T05:56:26Z</time>
      </trkpt>
      <trkpt lat="49.29172" lon="-0.04721">
        <ele>39.4</ele>
        <time>2023-09-03T05:56:27Z</time>
      </trkpt>
      <trkpt lat="49.2917" lon="-0.04715">
        <ele>39.6</ele>
        <time>2023-09-03T05:56:28Z</time>
      </trkpt>
      <trkpt lat="49.29167" lon="-0.0471">
        <ele>39.7</ele>
        <time>2023-09-03T05:56:29Z</time>
      </trkpt>
      <trkpt lat="49.29163" lon="-0.04705">
        <ele>39.9</ele>
        <time>2023-09-03T05:56:30Z</time>
      </trkpt>
      <trkpt lat="49.29159" lon="-0.04702">
        <ele>40.1</ele>
        <time>2023-09-03T05:56:31Z</time>
      </trkpt>
      <trkpt lat="49.29156" lon="-0.04698">
        <ele>40.3</ele>
        <time>2023-09-03T05:56:32Z</time>
      </trkpt>
      <trkpt lat="49.29153" lon="-0.04695">
        <ele>40.5</ele>
        <time>2023-09-03T05:56:33Z</time>
      </trkpt>
      <trkpt lat="49.2915" lon="-0.04693">
        <ele>40.7</ele>
        <time>2023-09-03T05:56:34Z</time>
      </trkpt>
      <trkpt lat="49.29147" lon="-0.0469">
        <ele>40.9</ele>
        <time>2023-09-03T05:56:35Z</time>
      </trkpt>
      <trkpt lat="49.29144" lon="-0.04687">
        <ele>41.1</ele>
        <time>2023-09-03T05:56:36Z</time>
      </trkpt>
      <trkpt lat="49.29141" lon="-0.04684">
        <ele>41.4</ele>
        <time>2023-09-03T05:56:37Z</time>
      </trkpt>
      <trkpt lat="49.29138" lon="-0.04682">
        <ele>41.6</ele>
        <time>2023-09-03T05:56:38Z</time>
      </trkpt>
      <trkpt lat="49.29135" lon="-0.0468">
        <ele>41.8</ele>
        <time>2023-09-03T05:56:39Z</time>
      </trkpt>
      <trkpt lat="49.29132" lon="-0.04677">
        <ele>42.1</ele>
        <time>2023-09-03T05:56:40Z</time>
      </trkpt>
      <trkpt lat="49.29131" lon="-0.04675">
        <ele>42.2</ele>
        <time>2023-09-03T05:56:41Z</time>
      </trkpt>
      <trkpt lat="49.29128" lon="-0.04672">
        <ele>42.5</ele>
        <time>2023-09-03T05:56:42Z</time>
      </trkpt>
      <trkpt lat="49.29126" lon="-0.0467">
        <ele>42.7</ele>
        <time>2023-09-03T05:56:43Z</time>
      </trkpt>
      <trkpt lat="49.29124" lon="-0.04667">
        <ele>42.9</ele>
        <time>2023-09-03T05:56:44Z</time>
      </trkpt>
      <trkpt lat="49.29122" lon="-0.04663">
        <ele>43.1</ele>
        <time>2023-09-03T05:56:45Z</time>
      </trkpt>
      <trkpt lat="49.29119" lon="-0.04659">
        <ele>43.4</ele>
        <time>2023-09-03T05:56:46Z</time>
      </trkpt>
      <trkpt lat="49.29118" lon="-0.04658">
        <ele>43.5</ele>
        <time>2023-09-03T05:56:47Z</time>
      </trkpt>
      <trkpt lat="49.29115" lon="-0.04655">
        <ele>43.7</ele>
        <time>2023-09-03T05:56:48Z</time>
      </trkpt>
      <trkpt lat="49.29113" lon="-0.04651">
        <ele>43.9</ele>
        <time>2023-09-03T05:56:49Z</time>
      </trkpt>
      <trkpt lat="49.2911" lon="-0.04648">
        <ele>44.1</ele>
        <time>2023-09-03T05:56:50Z</time>
      </trkpt>
      <trkpt lat="49.29108" lon="-0.04645">
        <ele>44.3</ele>
        <time>2023-09-03T05:56:51Z</time>
      </trkpt>
      <trkpt lat="49.29105" lon="-0.04642">
        <ele>44.6</ele>
        <time>2023-09-03T05:56:52Z</time>
      </trkpt>
      <trkpt lat="49.29103" lon="-0.04639">
        <ele>44.7</ele>
        <time>2023-09-03T05:56:53Z</time>
      </trkpt>
      <trkpt lat="49.291" lon="-0.04636">
        <ele>45</ele>
        <time>2023-09-03T05:56:54Z</time>
      </trkpt>
      <trkpt lat="49.29099" lon="-0.04634">
        <ele>45</ele>
        <time>2023-09-03T05:56:55Z</time>
      </trkpt>
      <trkpt lat="49.29096" lon="-0.04631">
        <ele>45.3</ele>
        <time>2023-09-03T05:56:56Z</time>
      </trkpt>
      <trkpt lat="49.29095" lon="-0.0463">
        <ele>45.3</ele>
        <time>2023-09-03T05:56:57Z</time>
      </trkpt>
      <trkpt lat="49.29092" lon="-0.04627">
        <ele>45.5</ele>
        <time>2023-09-03T05:56:58Z</time>
      </trkpt>
      <trkpt lat="49.29089" lon="-0.04624">
        <ele>45.7</ele>
        <time>2023-09-03T05:56:59Z</time>
      </trkpt>
      <trkpt lat="49.29087" lon="-0.0462">
        <ele>45.9</ele>
        <time>2023-09-03T05:57:00Z</time>
      </trkpt>
      <trkpt lat="49.29084" lon="-0.04616">
        <ele>46.2</ele>
        <time>2023-09-03T05:57:01Z</time>
      </trkpt>
      <trkpt lat="49.29081" lon="-0.04612">
        <ele>46.4</ele>
        <time>2023-09-03T05:57:02Z</time>
      </trkpt>
      <trkpt lat="49.29079" lon="-0.04608">
        <ele>46.6</ele>
        <time>2023-09-03T05:57:03Z</time>
      </trkpt>
      <trkpt lat="49.29077" lon="-0.04604">
        <ele>46.8</ele>
        <time>2023-09-03T05:57:04Z</time>
      </trkpt>
      <trkpt lat="49.29074" lon="-0.04601">
        <ele>47</ele>
        <time>2023-09-03T05:57:05Z</time>
      </trkpt>
      <trkpt lat="49.29071" lon="-0.04597">
        <ele>47.3</ele>
        <time>2023-09-03T05:57:06Z</time>
      </trkpt>
      <trkpt lat="49.29068" lon="-0.04594">
        <ele>47.5</ele>
        <time>2023-09-03T05:57:07Z</time>
      </trkpt>
      <trkpt lat="49.29066" lon="-0.04591">
        <ele>47.7</ele>
        <time>2023-09-03T05:57:08Z</time>
      </trkpt>
      <trkpt lat="49.29063" lon="-0.04589">
        <ele>47.9</ele>
        <time>2023-09-03T05:57:09Z</time>
      </trkpt>
      <trkpt lat="49.2906" lon="-0.04586">
        <ele>48.1</ele>
        <time>2023-09-03T05:57:10Z</time>
      </trkpt>
      <trkpt lat="49.29057" lon="-0.04583">
        <ele>48.3</ele>
        <time>2023-09-03T05:57:11Z</time>
      </trkpt>
      <trkpt lat="49.29054" lon="-0.0458">
        <ele>48.5</ele>
        <time>2023-09-03T05:57:12Z</time>
      </trkpt>
      <trkpt lat="49.29051" lon="-0.04577">
        <ele>48.7</ele>
        <time>2023-09-03T05:57:13Z</time>
      </trkpt>
      <trkpt lat="49.29048" lon="-0.04574">
        <ele>48.9</ele>
        <time>2023-09-03T05:57:14Z</time>
      </trkpt>
      <trkpt lat="49.29046" lon="-0.04571">
        <ele>49.1</ele>
        <time>2023-09-03T05:57:15Z</time>
      </trkpt>
      <trkpt lat="49.29043" lon="-0.04568">
        <ele>49.3</ele>
        <time>2023-09-03T05:57:16Z</time>
      </trkpt>
      <trkpt lat="49.2904" lon="-0.04566">
        <ele>49.5</ele>
        <time>2023-09-03T05:57:17Z</time>
      </trkpt>
      <trkpt lat="49.29037" lon="-0.04564">
        <ele>49.7</ele>
        <time>2023-09-03T05:57:18Z</time>
      </trkpt>
      <trkpt lat="49.29034" lon="-0.0456">
        <ele>50</ele>
        <time>2023-09-03T05:57:19Z</time>
      </trkpt>
      <trkpt lat="49.29031" lon="-0.04556">
        <ele>50.2</ele>
        <time>2023-09-03T05:57:20Z</time>
      </trkpt>
      <trkpt lat="49.29029" lon="-0.04553">
        <ele>50.5</ele>
        <time>2023-09-03T05:57:21Z</time>
      </trkpt>
      <trkpt lat="49.29026" lon="-0.0455">
        <ele>50.7</ele>
        <time>2023-09-03T05:57:22Z</time>
      </trkpt>
      <trkpt lat="49.29023" lon="-0.04547">
        <ele>50.9</ele>
        <time>2023-09-03T05:57:23Z</time>
      </trkpt>
      <trkpt lat="49.29021" lon="-0.04544">
        <ele>51.1</ele>
        <time>2023-09-03T05:57:24Z</time>
      </trkpt>
      <trkpt lat="49.29018" lon="-0.04541">
        <ele>51.4</ele>
        <time>2023-09-03T05:57:25Z</time>
      </trkpt>
      <trkpt lat="49.29016" lon="-0.04538">
        <ele>51.6</ele>
        <time>2023-09-03T05:57:26Z</time>
      </trkpt>
      <trkpt lat="49.29012" lon="-0.04534">
        <ele>51.8</ele>
        <time>2023-09-03T05:57:27Z</time>
      </trkpt>
      <trkpt lat="49.2901" lon="-0.04531">
        <ele>52.1</ele>
        <time>2023-09-03T05:57:28Z</time>
      </trkpt>
      <trkpt lat="49.29007" lon="-0.04528">
        <ele>52.3</ele>
        <time>2023-09-03T05:57:29Z</time>
      </trkpt>
      <trkpt lat="49.29004" lon="-0.04525">
        <ele>52.6</ele>
        <time>2023-09-03T05:57:30Z</time>
      </trkpt>
      <trkpt lat="49.29001" lon="-0.04522">
        <ele>52.8</ele>
        <time>2023-09-03T05:57:31Z</time>
      </trkpt>
      <trkpt lat="49.28998" lon="-0.04519">
        <ele>53.1</ele>
        <time>2023-09-03T05:57:32Z</time>
      </trkpt>
      <trkpt lat="49.28996" lon="-0.04517">
        <ele>53.3</ele>
        <time>2023-09-03T05:57:33Z</time>
      </trkpt>
      <trkpt lat="49.28992" lon="-0.04515">
        <ele>53.6</ele>
        <time>2023-09-03T05:57:34Z</time>
      </trkpt>
      <trkpt lat="49.28989" lon="-0.04512">
        <ele>53.8</ele>
        <time>2023-09-03T05:57:35Z</time>
      </trkpt>
      <trkpt lat="49.28986" lon="-0.0451">
        <ele>54.1</ele>
        <time>2023-09-03T05:57:36Z</time>
      </trkpt>
      <trkpt lat="49.28982" lon="-0.04508">
        <ele>54.4</ele>
        <time>2023-09-03T05:57:37Z</time>
      </trkpt>
      <trkpt lat="49.28979" lon="-0.04505">
        <ele>54.6</ele>
        <time>2023-09-03T05:57:38Z</time>
      </trkpt>
      <trkpt lat="49.28976" lon="-0.04503">
        <ele>54.9</ele>
        <time>2023-09-03T05:57:39Z</time>
      </trkpt>
      <trkpt lat="49.28972" lon="-0.045">
        <ele>55.2</ele>
        <time>2023-09-03T05:57:40Z</time>
      </trkpt>
      <trkpt lat="49.2897" lon="-0.04497">
        <ele>55.4</ele>
        <time>2023-09-03T05:57:41Z</time>
      </trkpt>
      <trkpt lat="49.28967" lon="-0.04494">
        <ele>55.6</ele>
        <time>2023-09-03T05:57:42Z</time>
      </trkpt>
      <trkpt lat="49.28965" lon="-0.04491">
        <ele>55.8</ele>
        <time>2023-09-03T05:57:43Z</time>
      </trkpt>
      <trkpt lat="49.28962" lon="-0.04489">
        <ele>56</ele>
        <time>2023-09-03T05:57:44Z</time>
      </trkpt>
      <trkpt lat="49.28959" lon="-0.04486">
        <ele>56.2</ele>
        <time>2023-09-03T05:57:45Z</time>
      </trkpt>
      <trkpt lat="49.28957" lon="-0.04483">
        <ele>56.5</ele>
        <time>2023-09-03T05:57:46Z</time>
      </trkpt>
      <trkpt lat="49.28954" lon="-0.0448">
        <ele>56.7</ele>
        <time>2023-09-03T05:57:47Z</time>
      </trkpt>
      <trkpt lat="49.28951" lon="-0.04477">
        <ele>57</ele>
        <time>2023-09-03T05:57:48Z</time>
      </trkpt>
      <trkpt lat="49.28948" lon="-0.04475">
        <ele>57.2</ele>
        <time>2023-09-03T05:57:49Z</time>
      </trkpt>
      <trkpt lat="49.28946" lon="-0.04472">
        <ele>57.4</ele>
        <time>2023-09-03T05:57:50Z</time>
      </trkpt>
      <trkpt lat="49.28943" lon="-0.04469">
        <ele>57.7</ele>
        <time>2023-09-03T05:57:51Z</time>
      </trkpt>
      <trkpt lat="49.28941" lon="-0.04467">
        <ele>57.9</ele>
        <time>2023-09-03T05:57:52Z</time>
      </trkpt>
      <trkpt lat="49.28938" lon="-0.04465">
        <ele>58.1</ele>
        <time>2023-09-03T05:57:53Z</time>
      </trkpt>
      <trkpt lat="49.28935" lon="-0.04462">
        <ele>58.4</ele>
        <time>2023-09-03T05:57:54Z</time>
      </trkpt>
      <trkpt lat="49.28933" lon="-0.0446">
        <ele>58.6</ele>
        <time>2023-09-03T05:57:55Z</time>
      </trkpt>
      <trkpt lat="49.2893" lon="-0.04457">
        <ele>58.9</ele>
        <time>2023-09-03T05:57:56Z</time>
      </trkpt>
      <trkpt lat="49.28927" lon="-0.04453">
        <ele>59.2</ele>
        <time>2023-09-03T05:57:57Z</time>
      </trkpt>
      <trkpt lat="49.28925" lon="-0.0445">
        <ele>59.5</ele>
        <time>2023-09-03T05:57:58Z</time>
      </trkpt>
      <trkpt lat="49.28923" lon="-0.04447">
        <ele>59.7</ele>
        <time>2023-09-03T05:57:59Z</time>
      </trkpt>
      <trkpt lat="49.2892" lon="-0.04443">
        <ele>60</ele>
        <time>2023-09-03T05:58:00Z</time>
      </trkpt>
      <trkpt lat="49.28918" lon="-0.04441">
        <ele>60.1</ele>
        <time>2023-09-03T05:58:01Z</time>
      </trkpt>
      <trkpt lat="49.28916" lon="-0.04438">
        <ele>60.4</ele>
        <time>2023-09-03T05:58:02Z</time>
      </trkpt>
      <trkpt lat="49.28913" lon="-0.04435">
        <ele>60.7</ele>
        <time>2023-09-03T05:58:03Z</time>
      </trkpt>
      <trkpt lat="49.2891" lon="-0.04432">
        <ele>61</ele>
        <time>2023-09-03T05:58:04Z</time>
      </trkpt>
      <trkpt lat="49.28906" lon="-0.04429">
        <ele>61.3</ele>
        <time>2023-09-03T05:58:05Z</time>
      </trkpt>
      <trkpt lat="49.28903" lon="-0.04426">
        <ele>61.6</ele>
        <time>2023-09-03T05:58:06Z</time>
      </trkpt>
      <trkpt lat="49.28901" lon="-0.04424">
        <ele>61.9</ele>
        <time>2023-09-03T05:58:07Z</time>
      </trkpt>
      <trkpt lat="49.28898" lon="-0.04421">
        <ele>62.1</ele>
        <time>2023-09-03T05:58:08Z</time>
      </trkpt>
      <trkpt lat="49.28895" lon="-0.04418">
        <ele>62.4</ele>
        <time>2023-09-03T05:58:09Z</time>
      </trkpt>
      <trkpt lat="49.28891" lon="-0.04416">
        <ele>62.8</ele>
        <time>2023-09-03T05:58:10Z</time>
      </trkpt>
      <trkpt lat="49.28888" lon="-0.04413">
        <ele>63.1</ele>
        <time>2023-09-03T05:58:11Z</time>
      </trkpt>
      <trkpt lat="49.28885" lon="-0.0441">
        <ele>63.4</ele>
        <time>2023-09-03T05:58:12Z</time>
      </trkpt>
      <trkpt lat="49.28882" lon="-0.04407">
        <ele>63.7</ele>
        <time>2023-09-03T05:58:13Z</time>
      </trkpt>
      <trkpt lat="49.28879" lon="-0.04404">
        <ele>63.9</ele>
        <time>2023-09-03T05:58:14Z</time>
      </trkpt>
      <trkpt lat="49.28876" lon="-0.04401">
        <ele>64.2</ele>
        <time>2023-09-03T05:58:15Z</time>
      </trkpt>
      <trkpt lat="49.28874" lon="-0.04398">
        <ele>64.4</ele>
        <time>2023-09-03T05:58:16Z</time>
      </trkpt>
      <trkpt lat="49.28871" lon="-0.04395">
        <ele>64.7</ele>
        <time>2023-09-03T05:58:17Z</time>
      </trkpt>
      <trkpt lat="49.28868" lon="-0.04392">
        <ele>64.9</ele>
        <time>2023-09-03T05:58:18Z</time>
      </trkpt>
      <trkpt lat="49.28866" lon="-0.04389">
        <ele>65.2</ele>
        <time>2023-09-03T05:58:19Z</time>
      </trkpt>
      <trkpt lat="49.28863" lon="-0.04386">
        <ele>65.5</ele>
        <time>2023-09-03T05:58:20Z</time>
      </trkpt>
      <trkpt lat="49.28861" lon="-0.04383">
        <ele>65.8</ele>
        <time>2023-09-03T05:58:21Z</time>
      </trkpt>
      <trkpt lat="49.28858" lon="-0.04381">
        <ele>66</ele>
        <time>2023-09-03T05:58:22Z</time>
      </trkpt>
      <trkpt lat="49.28856" lon="-0.04378">
        <ele>66.3</ele>
        <time>2023-09-03T05:58:23Z</time>
      </trkpt>
      <trkpt lat="49.28853" lon="-0.04375">
        <ele>66.5</ele>
        <time>2023-09-03T05:58:24Z</time>
      </trkpt>
      <trkpt lat="49.28851" lon="-0.04372">
        <ele>66.8</ele>
        <time>2023-09-03T05:58:25Z</time>
      </trkpt>
      <trkpt lat="49.28849" lon="-0.0437">
        <ele>67</ele>
        <time>2023-09-03T05:58:26Z</time>
      </trkpt>
      <trkpt lat="49.28846" lon="-0.04367">
        <ele>67.3</ele>
        <time>2023-09-03T05:58:27Z</time>
      </trkpt>
      <trkpt lat="49.28844" lon="-0.04364">
        <ele>67.5</ele>
        <time>2023-09-03T05:58:28Z</time>
      </trkpt>
      <trkpt lat="49.28841" lon="-0.04361">
        <ele>67.8</ele>
        <time>2023-09-03T05:58:29Z</time>
      </trkpt>
      <trkpt lat="49.28839" lon="-0.04358">
        <ele>68.1</ele>
        <time>2023-09-03T05:58:30Z</time>
      </trkpt>
      <trkpt lat="49.28837" lon="-0.04356">
        <ele>68.3</ele>
        <time>2023-09-03T05:58:31Z</time>
      </trkpt>
      <trkpt lat="49.28834" lon="-0.04353">
        <ele>68.6</ele>
        <time>2023-09-03T05:58:32Z</time>
      </trkpt>
      <trkpt lat="49.28833" lon="-0.04352">
        <ele>68.7</ele>
        <time>2023-09-03T05:58:33Z</time>
      </trkpt>
      <trkpt lat="49.2883" lon="-0.0435">
        <ele>68.9</ele>
        <time>2023-09-03T05:58:34Z</time>
      </trkpt>
      <trkpt lat="49.28828" lon="-0.04348">
        <ele>69.1</ele>
        <time>2023-09-03T05:58:35Z</time>
      </trkpt>
      <trkpt lat="49.28825" lon="-0.04344">
        <ele>69.4</ele>
        <time>2023-09-03T05:58:36Z</time>
      </trkpt>
      <trkpt lat="49.28824" lon="-0.04343">
        <ele>69.5</ele>
        <time>2023-09-03T05:58:37Z</time>
      </trkpt>
      <trkpt lat="49.28821" lon="-0.0434">
        <ele>69.7</ele>
        <time>2023-09-03T05:58:38Z</time>
      </trkpt>
      <trkpt lat="49.2882" lon="-0.04339">
        <ele>69.8</ele>
        <time>2023-09-03T05:58:39Z</time>
      </trkpt>
      <trkpt lat="49.28817" lon="-0.04335">
        <ele>70.1</ele>
        <time>2023-09-03T05:58:40Z</time>
      </trkpt>
      <trkpt lat="49.28816" lon="-0.04334">
        <ele>70.2</ele>
        <time>2023-09-03T05:58:41Z</time>
      </trkpt>
      <trkpt lat="49.28813" lon="-0.04331">
        <ele>70.4</ele>
        <time>2023-09-03T05:58:42Z</time>
      </trkpt>
      <trkpt lat="49.28809" lon="-0.04327">
        <ele>70.7</ele>
        <time>2023-09-03T05:58:43Z</time>
      </trkpt>
      <trkpt lat="49.28806" lon="-0.04322">
        <ele>71</ele>
        <time>2023-09-03T05:58:44Z</time>
      </trkpt>
      <trkpt lat="49.28801" lon="-0.04316">
        <ele>71.4</ele>
        <time>2023-09-03T05:58:45Z</time>
      </trkpt>
      <trkpt lat="49.28799" lon="-0.04314">
        <ele>71.5</ele>
        <time>2023-09-03T05:58:46Z</time>
      </trkpt>
      <trkpt lat="49.28795" lon="-0.04311">
        <ele>71.9</ele>
        <time>2023-09-03T05:58:47Z</time>
      </trkpt>
      <trkpt lat="49.28793" lon="-0.04308">
        <ele>72.1</ele>
        <time>2023-09-03T05:58:48Z</time>
      </trkpt>
      <trkpt lat="49.2879" lon="-0.04305">
        <ele>72.4</ele>
        <time>2023-09-03T05:58:49Z</time>
      </trkpt>
      <trkpt lat="49.28787" lon="-0.04302">
        <ele>72.6</ele>
        <time>2023-09-03T05:58:50Z</time>
      </trkpt>
      <trkpt lat="49.28784" lon="-0.04298">
        <ele>72.9</ele>
        <time>2023-09-03T05:58:51Z</time>
      </trkpt>
      <trkpt lat="49.28782" lon="-0.04295">
        <ele>73.2</ele>
        <time>2023-09-03T05:58:52Z</time>
      </trkpt>
      <trkpt lat="49.2878" lon="-0.04291">
        <ele>73.4</ele>
        <time>2023-09-03T05:58:53Z</time>
      </trkpt>
      <trkpt lat="49.28777" lon="-0.04288">
        <ele>73.7</ele>
        <time>2023-09-03T05:58:54Z</time>
      </trkpt>
      <trkpt lat="49.28774" lon="-0.04285">
        <ele>73.9</ele>
        <time>2023-09-03T05:58:55Z</time>
      </trkpt>
      <trkpt lat="49.28772" lon="-0.04282">
        <ele>74.2</ele>
        <time>2023-09-03T05:58:56Z</time>
      </trkpt>
      <trkpt lat="49.28769" lon="-0.04279">
        <ele>74.4</ele>
        <time>2023-09-03T05:58:57Z</time>
      </trkpt>
      <trkpt lat="49.28766" lon="-0.04276">
        <ele>74.6</ele>
        <time>2023-09-03T05:58:58Z</time>
      </trkpt>
      <trkpt lat="49.28763" lon="-0.04273">
        <ele>74.9</ele>
        <time>2023-09-03T05:58:59Z</time>
      </trkpt>
      <trkpt lat="49.28761" lon="-0.0427">
        <ele>75.1</ele>
        <time>2023-09-03T05:59:00Z</time>
      </trkpt>
      <trkpt lat="49.28758" lon="-0.04267">
        <ele>75.3</ele>
        <time>2023-09-03T05:59:01Z</time>
      </trkpt>
      <trkpt lat="49.28755" lon="-0.04265">
        <ele>75.5</ele>
        <time>2023-09-03T05:59:02Z</time>
      </trkpt>
      <trkpt lat="49.28751" lon="-0.04262">
        <ele>75.8</ele>
        <time>2023-09-03T05:59:03Z</time>
      </trkpt>
      <trkpt lat="49.28747" lon="-0.04259">
        <ele>76.1</ele>
        <time>2023-09-03T05:59:04Z</time>
      </trkpt>
      <trkpt lat="49.28744" lon="-0.04257">
        <ele>76.3</ele>
        <time>2023-09-03T05:59:05Z</time>
      </trkpt>
      <trkpt lat="49.28741" lon="-0.04254">
        <ele>76.5</ele>
        <time>2023-09-03T05:59:06Z</time>
      </trkpt>
      <trkpt lat="49.28737" lon="-0.04251">
        <ele>76.7</ele>
        <time>2023-09-03T05:59:07Z</time>
      </trkpt>
      <trkpt lat="49.28734" lon="-0.04248">
        <ele>76.9</ele>
        <time>2023-09-03T05:59:08Z</time>
      </trkpt>
      <trkpt lat="49.28731" lon="-0.04245">
        <ele>77.2</ele>
        <time>2023-09-03T05:59:09Z</time>
      </trkpt>
      <trkpt lat="49.28728" lon="-0.04242">
        <ele>77.3</ele>
        <time>2023-09-03T05:59:10Z</time>
      </trkpt>
      <trkpt lat="49.28725" lon="-0.04239">
        <ele>77.5</ele>
        <time>2023-09-03T05:59:11Z</time>
      </trkpt>
      <trkpt lat="49.28721" lon="-0.04236">
        <ele>77.7</ele>
        <time>2023-09-03T05:59:12Z</time>
      </trkpt>
      <trkpt lat="49.28718" lon="-0.04233">
        <ele>77.9</ele>
        <time>2023-09-03T05:59:13Z</time>
      </trkpt>
      <trkpt lat="49.28715" lon="-0.04231">
        <ele>78.1</ele>
        <time>2023-09-03T05:59:14Z</time>
      </trkpt>
      <trkpt lat="49.28712" lon="-0.04228">
        <ele>78.3</ele>
        <time>2023-09-03T05:59:15Z</time>
      </trkpt>
      <trkpt lat="49.28709" lon="-0.04225">
        <ele>78.5</ele>
        <time>2023-09-03T05:59:16Z</time>
      </trkpt>
      <trkpt lat="49.28706" lon="-0.04222">
        <ele>78.7</ele>
        <time>2023-09-03T05:59:17Z</time>
      </trkpt>
      <trkpt lat="49.28703" lon="-0.04219">
        <ele>78.8</ele>
        <time>2023-09-03T05:59:18Z</time>
      </trkpt>
      <trkpt lat="49.287" lon="-0.04215">
        <ele>79.1</ele>
        <time>2023-09-03T05:59:19Z</time>
      </trkpt>
      <trkpt lat="49.28697" lon="-0.04212">
        <ele>79.3</ele>
        <time>2023-09-03T05:59:20Z</time>
      </trkpt>
      <trkpt lat="49.28695" lon="-0.04209">
        <ele>79.4</ele>
        <time>2023-09-03T05:59:21Z</time>
      </trkpt>
      <trkpt lat="49.28691" lon="-0.04207">
        <ele>79.7</ele>
        <time>2023-09-03T05:59:22Z</time>
      </trkpt>
      <trkpt lat="49.28688" lon="-0.04204">
        <ele>79.8</ele>
        <time>2023-09-03T05:59:23Z</time>
      </trkpt>
      <trkpt lat="49.28685" lon="-0.04201">
        <ele>80</ele>
        <time>2023-09-03T05:59:24Z</time>
      </trkpt>
      <trkpt lat="49.28683" lon="-0.04198">
        <ele>80.2</ele>
        <time>2023-09-03T05:59:25Z</time>
      </trkpt>
      <trkpt lat="49.2868" lon="-0.04195">
        <ele>80.5</ele>
        <time>2023-09-03T05:59:26Z</time>
      </trkpt>
      <trkpt lat="49.28677" lon="-0.04192">
        <ele>80.7</ele>
        <time>2023-09-03T05:59:27Z</time>
      </trkpt>
      <trkpt lat="49.28674" lon="-0.04189">
        <ele>80.9</ele>
        <time>2023-09-03T05:59:28Z</time>
      </trkpt>
      <trkpt lat="49.28671" lon="-0.04186">
        <ele>81.1</ele>
        <time>2023-09-03T05:59:29Z</time>
      </trkpt>
      <trkpt lat="49.28668" lon="-0.04183">
        <ele>81.3</ele>
        <time>2023-09-03T05:59:30Z</time>
      </trkpt>
      <trkpt lat="49.28665" lon="-0.0418">
        <ele>81.6</ele>
        <time>2023-09-03T05:59:31Z</time>
      </trkpt>
      <trkpt lat="49.28661" lon="-0.04177">
        <ele>81.8</ele>
        <time>2023-09-03T05:59:32Z</time>
      </trkpt>
      <trkpt lat="49.28658" lon="-0.04174">
        <ele>82</ele>
        <time>2023-09-03T05:59:33Z</time>
      </trkpt>
      <trkpt lat="49.28655" lon="-0.04171">
        <ele>82.2</ele>
        <time>2023-09-03T05:59:34Z</time>
      </trkpt>
      <trkpt lat="49.28652" lon="-0.04168">
        <ele>82.4</ele>
        <time>2023-09-03T05:59:35Z</time>
      </trkpt>
      <trkpt lat="49.28649" lon="-0.04165">
        <ele>82.6</ele>
        <time>2023-09-03T05:59:36Z</time>
      </trkpt>
      <trkpt lat="49.28646" lon="-0.04162">
        <ele>82.8</ele>
        <time>2023-09-03T05:59:37Z</time>
      </trkpt>
      <trkpt lat="49.28643" lon="-0.04159">
        <ele>83</ele>
        <time>2023-09-03T05:59:38Z</time>
      </trkpt>
      <trkpt lat="49.2864" lon="-0.04156">
        <ele>83.2</ele>
        <time>2023-09-03T05:59:39Z</time>
      </trkpt>
      <trkpt lat="49.28637" lon="-0.04153">
        <ele>83.5</ele>
        <time>2023-09-03T05:59:40Z</time>
      </trkpt>
      <trkpt lat="49.28634" lon="-0.04149">
        <ele>83.7</ele>
        <time>2023-09-03T05:59:41Z</time>
      </trkpt>
      <trkpt lat="49.28631" lon="-0.04146">
        <ele>83.9</ele>
        <time>2023-09-03T05:59:42Z</time>
      </trkpt>
      <trkpt lat="49.28628" lon="-0.04143">
        <ele>84.1</ele>
        <time>2023-09-03T05:59:43Z</time>
      </trkpt>
      <trkpt lat="49.28625" lon="-0.04141">
        <ele>84.2</ele>
        <time>2023-09-03T05:59:44Z</time>
      </trkpt>
      <trkpt lat="49.28622" lon="-0.04138">
        <ele>84.4</ele>
        <time>2023-09-03T05:59:45Z</time>
      </trkpt>
      <trkpt lat="49.28619" lon="-0.04134">
        <ele>84.6</ele>
        <time>2023-09-03T05:59:46Z</time>
      </trkpt>
      <trkpt lat="49.28616" lon="-0.04131">
        <ele>84.8</ele>
        <time>2023-09-03T05:59:47Z</time>
      </trkpt>
      <trkpt lat="49.28613" lon="-0.04128">
        <ele>85</ele>
        <time>2023-09-03T05:59:48Z</time>
      </trkpt>
      <trkpt lat="49.2861" lon="-0.04125">
        <ele>85.2</ele>
        <time>2023-09-03T05:59:49Z</time>
      </trkpt>
      <trkpt lat="49.28607" lon="-0.04122">
        <ele>85.4</ele>
        <time>2023-09-03T05:59:50Z</time>
      </trkpt>
      <trkpt lat="49.28604" lon="-0.04119">
        <ele>85.5</ele>
        <time>2023-09-03T05:59:51Z</time>
      </trkpt>
      <trkpt lat="49.286" lon="-0.04115">
        <ele>85.7</ele>
        <time>2023-09-03T05:59:52Z</time>
      </trkpt>
      <trkpt lat="49.28597" lon="-0.04112">
        <ele>85.9</ele>
        <time>2023-09-03T05:59:53Z</time>
      </trkpt>
      <trkpt lat="49.28594" lon="-0.04109">
        <ele>86.1</ele>
        <time>2023-09-03T05:59:54Z</time>
      </trkpt>
      <trkpt lat="49.28591" lon="-0.04106">
        <ele>86.3</ele>
        <time>2023-09-03T05:59:55Z</time>
      </trkpt>
      <trkpt lat="49.28588" lon="-0.04103">
        <ele>86.4</ele>
        <time>2023-09-03T05:59:56Z</time>
      </trkpt>
      <trkpt lat="49.28585" lon="-0.041">
        <ele>86.6</ele>
        <time>2023-09-03T05:59:57Z</time>
      </trkpt>
      <trkpt lat="49.28582" lon="-0.04098">
        <ele>86.8</ele>
        <time>2023-09-03T05:59:58Z</time>
      </trkpt>
      <trkpt lat="49.28579" lon="-0.04094">
        <ele>86.9</ele>
        <time>2023-09-03T05:59:59Z</time>
      </trkpt>
      <trkpt lat="49.28576" lon="-0.04091">
        <ele>87.1</ele>
        <time>2023-09-03T06:00:00Z</time>
      </trkpt>
      <trkpt lat="49.28573" lon="-0.04089">
        <ele>87.2</ele>
        <time>2023-09-03T06:00:01Z</time>
      </trkpt>
      <trkpt lat="49.2857" lon="-0.04086">
        <ele>87.4</ele>
        <time>2023-09-03T06:00:02Z</time>
      </trkpt>
      <trkpt lat="49.28566" lon="-0.04082">
        <ele>87.6</ele>
        <time>2023-09-03T06:00:03Z</time>
      </trkpt>
      <trkpt lat="49.28563" lon="-0.04079">
        <ele>87.8</ele>
        <time>2023-09-03T06:00:04Z</time>
      </trkpt>
      <trkpt lat="49.2856" lon="-0.04076">
        <ele>88</ele>
        <time>2023-09-03T06:00:05Z</time>
      </trkpt>
      <trkpt lat="49.28557" lon="-0.04073">
        <ele>88.2</ele>
        <time>2023-09-03T06:00:06Z</time>
      </trkpt>
      <trkpt lat="49.28554" lon="-0.0407">
        <ele>88.4</ele>
        <time>2023-09-03T06:00:07Z</time>
      </trkpt>
      <trkpt lat="49.28551" lon="-0.04068">
        <ele>88.6</ele>
        <time>2023-09-03T06:00:08Z</time>
      </trkpt>
      <trkpt lat="49.28547" lon="-0.04065">
        <ele>88.8</ele>
        <time>2023-09-03T06:00:09Z</time>
      </trkpt>
      <trkpt lat="49.28544" lon="-0.04062">
        <ele>89</ele>
        <time>2023-09-03T06:00:10Z</time>
      </trkpt>
      <trkpt lat="49.28541" lon="-0.04059">
        <ele>89.2</ele>
        <time>2023-09-03T06:00:11Z</time>
      </trkpt>
      <trkpt lat="49.28538" lon="-0.04056">
        <ele>89.3</ele>
        <time>2023-09-03T06:00:12Z</time>
      </trkpt>
      <trkpt lat="49.28535" lon="-0.04053">
        <ele>89.5</ele>
        <time>2023-09-03T06:00:13Z</time>
      </trkpt>
      <trkpt lat="49.28532" lon="-0.04049">
        <ele>89.7</ele>
        <time>2023-09-03T06:00:14Z</time>
      </trkpt>
      <trkpt lat="49.28529" lon="-0.04046">
        <ele>89.9</ele>
        <time>2023-09-03T06:00:15Z</time>
      </trkpt>
      <trkpt lat="49.28526" lon="-0.04042">
        <ele>90.1</ele>
        <time>2023-09-03T06:00:16Z</time>
      </trkpt>
      <trkpt lat="49.28524" lon="-0.04038">
        <ele>90.3</ele>
        <time>2023-09-03T06:00:17Z</time>
      </trkpt>
      <trkpt lat="49.28521" lon="-0.04035">
        <ele>90.5</ele>
        <time>2023-09-03T06:00:18Z</time>
      </trkpt>
      <trkpt lat="49.28517" lon="-0.04032">
        <ele>90.7</ele>
        <time>2023-09-03T06:00:19Z</time>
      </trkpt>
      <trkpt lat="49.28514" lon="-0.04028">
        <ele>90.9</ele>
        <time>2023-09-03T06:00:20Z</time>
      </trkpt>
      <trkpt lat="49.28511" lon="-0.04025">
        <ele>91.1</ele>
        <time>2023-09-03T06:00:21Z</time>
      </trkpt>
      <trkpt lat="49.28508" lon="-0.04022">
        <ele>91.3</ele>
        <time>2023-09-03T06:00:22Z</time>
      </trkpt>
      <trkpt lat="49.28505" lon="-0.04019">
        <ele>91.5</ele>
        <time>2023-09-03T06:00:23Z</time>
      </trkpt>
      <trkpt lat="49.28503" lon="-0.04016">
        <ele>91.6</ele>
        <time>2023-09-03T06:00:24Z</time>
      </trkpt>
      <trkpt lat="49.285" lon="-0.04012">
        <ele>91.8</ele>
        <time>2023-09-03T06:00:25Z</time>
      </trkpt>
      <trkpt lat="49.28497" lon="-0.04009">
        <ele>92</ele>
        <time>2023-09-03T06:00:26Z</time>
      </trkpt>
      <trkpt lat="49.28494" lon="-0.04005">
        <ele>92.2</ele>
        <time>2023-09-03T06:00:27Z</time>
      </trkpt>
      <trkpt lat="49.28491" lon="-0.04001">
        <ele>92.4</ele>
        <time>2023-09-03T06:00:28Z</time>
      </trkpt>
      <trkpt lat="49.28488" lon="-0.03997">
        <ele>92.6</ele>
        <time>2023-09-03T06:00:29Z</time>
      </trkpt>
      <trkpt lat="49.28485" lon="-0.03993">
        <ele>92.8</ele>
        <time>2023-09-03T06:00:30Z</time>
      </trkpt>
      <trkpt lat="49.28483" lon="-0.03989">
        <ele>92.9</ele>
        <time>2023-09-03T06:00:31Z</time>
      </trkpt>
      <trkpt lat="49.2848" lon="-0.03985">
        <ele>93.1</ele>
        <time>2023-09-03T06:00:32Z</time>
      </trkpt>
      <trkpt lat="49.28477" lon="-0.03981">
        <ele>93.3</ele>
        <time>2023-09-03T06:00:33Z</time>
      </trkpt>
      <trkpt lat="49.28475" lon="-0.03977">
        <ele>93.4</ele>
        <time>2023-09-03T06:00:34Z</time>
      </trkpt>
      <trkpt lat="49.28472" lon="-0.03973">
        <ele>93.6</ele>
        <time>2023-09-03T06:00:35Z</time>
      </trkpt>
      <trkpt lat="49.28469" lon="-0.03969">
        <ele>93.7</ele>
        <time>2023-09-03T06:00:36Z</time>
      </trkpt>
      <trkpt lat="49.28466" lon="-0.03965">
        <ele>93.9</ele>
        <time>2023-09-03T06:00:37Z</time>
      </trkpt>
      <trkpt lat="49.28464" lon="-0.03961">
        <ele>94</ele>
        <time>2023-09-03T06:00:38Z</time>
      </trkpt>
      <trkpt lat="49.28461" lon="-0.03958">
        <ele>94.2</ele>
        <time>2023-09-03T06:00:39Z</time>
      </trkpt>
      <trkpt lat="49.28458" lon="-0.03954">
        <ele>94.3</ele>
        <time>2023-09-03T06:00:40Z</time>
      </trkpt>
      <trkpt lat="49.28456" lon="-0.0395">
        <ele>94.5</ele>
        <time>2023-09-03T06:00:41Z</time>
      </trkpt>
      <trkpt lat="49.28453" lon="-0.03946">
        <ele>94.6</ele>
        <time>2023-09-03T06:00:42Z</time>
      </trkpt>
      <trkpt lat="49.2845" lon="-0.03943">
        <ele>94.7</ele>
        <time>2023-09-03T06:00:43Z</time>
      </trkpt>
      <trkpt lat="49.28448" lon="-0.03939">
        <ele>94.9</ele>
        <time>2023-09-03T06:00:44Z</time>
      </trkpt>
      <trkpt lat="49.28445" lon="-0.03936">
        <ele>95</ele>
        <time>2023-09-03T06:00:45Z</time>
      </trkpt>
      <trkpt lat="49.28443" lon="-0.03932">
        <ele>95.1</ele>
        <time>2023-09-03T06:00:46Z</time>
      </trkpt>
      <trkpt lat="49.28441" lon="-0.03929">
        <ele>95.2</ele>
        <time>2023-09-03T06:00:47Z</time>
      </trkpt>
      <trkpt lat="49.28438" lon="-0.03926">
        <ele>95.4</ele>
        <time>2023-09-03T06:00:48Z</time>
      </trkpt>
      <trkpt lat="49.28436" lon="-0.03923">
        <ele>95.4</ele>
        <time>2023-09-03T06:00:49Z</time>
      </trkpt>
      <trkpt lat="49.28434" lon="-0.0392">
        <ele>95.5</ele>
        <time>2023-09-03T06:00:50Z</time>
      </trkpt>
      <trkpt lat="49.28432" lon="-0.03917">
        <ele>95.6</ele>
        <time>2023-09-03T06:00:51Z</time>
      </trkpt>
      <trkpt lat="49.28429" lon="-0.03913">
        <ele>95.7</ele>
        <time>2023-09-03T06:00:52Z</time>
      </trkpt>
      <trkpt lat="49.28428" lon="-0.03911">
        <ele>95.8</ele>
        <time>2023-09-03T06:00:53Z</time>
      </trkpt>
      <trkpt lat="49.28426" lon="-0.03906">
        <ele>96</ele>
        <time>2023-09-03T06:00:54Z</time>
      </trkpt>
      <trkpt lat="49.28426" lon="-0.03905">
        <ele>96.1</ele>
        <time>2023-09-03T06:00:55Z</time>
      </trkpt>
      <trkpt lat="49.28423" lon="-0.03901">
        <ele>96.3</ele>
        <time>2023-09-03T06:00:56Z</time>
      </trkpt>
      <trkpt lat="49.28423" lon="-0.03899">
        <ele>96.3</ele>
        <time>2023-09-03T06:00:57Z</time>
      </trkpt>
      <trkpt lat="49.28421" lon="-0.03895">
        <ele>96.5</ele>
        <time>2023-09-03T06:00:58Z</time>
      </trkpt>
      <trkpt lat="49.2842" lon="-0.03894">
        <ele>96.6</ele>
        <time>2023-09-03T06:00:59Z</time>
      </trkpt>
      <trkpt lat="49.28417" lon="-0.0389">
        <ele>96.8</ele>
        <time>2023-09-03T06:01:00Z</time>
      </trkpt>
      <trkpt lat="49.28416" lon="-0.03889">
        <ele>96.9</ele>
        <time>2023-09-03T06:01:01Z</time>
      </trkpt>
      <trkpt lat="49.28413" lon="-0.03886">
        <ele>97.1</ele>
        <time>2023-09-03T06:01:02Z</time>
      </trkpt>
      <trkpt lat="49.28412" lon="-0.03885">
        <ele>97.2</ele>
        <time>2023-09-03T06:01:03Z</time>
      </trkpt>
      <trkpt lat="49.28409" lon="-0.03882">
        <ele>97.4</ele>
        <time>2023-09-03T06:01:04Z</time>
      </trkpt>
      <trkpt lat="49.28408" lon="-0.03881">
        <ele>97.5</ele>
        <time>2023-09-03T06:01:05Z</time>
      </trkpt>
      <trkpt lat="49.28406" lon="-0.03877">
        <ele>97.7</ele>
        <time>2023-09-03T06:01:06Z</time>
      </trkpt>
      <trkpt lat="49.28404" lon="-0.03874">
        <ele>97.9</ele>
        <time>2023-09-03T06:01:07Z</time>
      </trkpt>
      <trkpt lat="49.28402" lon="-0.0387">
        <ele>98.1</ele>
        <time>2023-09-03T06:01:08Z</time>
      </trkpt>
      <trkpt lat="49.284" lon="-0.03867">
        <ele>98.3</ele>
        <time>2023-09-03T06:01:09Z</time>
      </trkpt>
      <trkpt lat="49.28398" lon="-0.03863">
        <ele>98.5</ele>
        <time>2023-09-03T06:01:10Z</time>
      </trkpt>
      <trkpt lat="49.28397" lon="-0.03859">
        <ele>98.7</ele>
        <time>2023-09-03T06:01:11Z</time>
      </trkpt>
      <trkpt lat="49.28395" lon="-0.03856">
        <ele>99</ele>
        <time>2023-09-03T06:01:12Z</time>
      </trkpt>
      <trkpt lat="49.28392" lon="-0.03852">
        <ele>99.2</ele>
        <time>2023-09-03T06:01:13Z</time>
      </trkpt>
      <trkpt lat="49.2839" lon="-0.03849">
        <ele>99.4</ele>
        <time>2023-09-03T06:01:14Z</time>
      </trkpt>
      <trkpt lat="49.28389" lon="-0.03846">
        <ele>99.7</ele>
        <time>2023-09-03T06:01:15Z</time>
      </trkpt>
      <trkpt lat="49.28386" lon="-0.03842">
        <ele>100</ele>
        <time>2023-09-03T06:01:16Z</time>
      </trkpt>
      <trkpt lat="49.28385" lon="-0.0384">
        <ele>100.1</ele>
        <time>2023-09-03T06:01:17Z</time>
      </trkpt>
      <trkpt lat="49.28383" lon="-0.03837">
        <ele>100.3</ele>
        <time>2023-09-03T06:01:18Z</time>
      </trkpt>
      <trkpt lat="49.28381" lon="-0.03834">
        <ele>100.6</ele>
        <time>2023-09-03T06:01:19Z</time>
      </trkpt>
      <trkpt lat="49.28379" lon="-0.03831">
        <ele>100.8</ele>
        <time>2023-09-03T06:01:20Z</time>
      </trkpt>
      <trkpt lat="49.28377" lon="-0.03828">
        <ele>101.1</ele>
        <time>2023-09-03T06:01:21Z</time>
      </trkpt>
      <trkpt lat="49.28375" lon="-0.03824">
        <ele>101.3</ele>
        <time>2023-09-03T06:01:22Z</time>
      </trkpt>
      <trkpt lat="49.28373" lon="-0.0382">
        <ele>101.6</ele>
        <time>2023-09-03T06:01:23Z</time>
      </trkpt>
      <trkpt lat="49.28372" lon="-0.03818">
        <ele>101.8</ele>
        <time>2023-09-03T06:01:24Z</time>
      </trkpt>
      <trkpt lat="49.28369" lon="-0.03814">
        <ele>102.1</ele>
        <time>2023-09-03T06:01:25Z</time>
      </trkpt>
      <trkpt lat="49.28368" lon="-0.03812">
        <ele>102.2</ele>
        <time>2023-09-03T06:01:26Z</time>
      </trkpt>
      <trkpt lat="49.28366" lon="-0.03809">
        <ele>102.5</ele>
        <time>2023-09-03T06:01:27Z</time>
      </trkpt>
      <trkpt lat="49.28365" lon="-0.03807">
        <ele>102.6</ele>
        <time>2023-09-03T06:01:28Z</time>
      </trkpt>
      <trkpt lat="49.28363" lon="-0.03804">
        <ele>102.9</ele>
        <time>2023-09-03T06:01:29Z</time>
      </trkpt>
      <trkpt lat="49.28361" lon="-0.038">
        <ele>103.1</ele>
        <time>2023-09-03T06:01:30Z</time>
      </trkpt>
      <trkpt lat="49.28359" lon="-0.03797">
        <ele>103.4</ele>
        <time>2023-09-03T06:01:31Z</time>
      </trkpt>
      <trkpt lat="49.28357" lon="-0.03793">
        <ele>103.7</ele>
        <time>2023-09-03T06:01:32Z</time>
      </trkpt>
      <trkpt lat="49.28356" lon="-0.03792">
        <ele>103.7</ele>
        <time>2023-09-03T06:01:33Z</time>
      </trkpt>
      <trkpt lat="49.28353" lon="-0.03788">
        <ele>104.1</ele>
        <time>2023-09-03T06:01:34Z</time>
      </trkpt>
      <trkpt lat="49.28352" lon="-0.03787">
        <ele>104.2</ele>
        <time>2023-09-03T06:01:35Z</time>
      </trkpt>
      <trkpt lat="49.2835" lon="-0.03784">
        <ele>104.4</ele>
        <time>2023-09-03T06:01:36Z</time>
      </trkpt>
      <trkpt lat="49.28348" lon="-0.0378">
        <ele>104.7</ele>
        <time>2023-09-03T06:01:37Z</time>
      </trkpt>
      <trkpt lat="49.28345" lon="-0.03776">
        <ele>105</ele>
        <time>2023-09-03T06:01:38Z</time>
      </trkpt>
      <trkpt lat="49.28343" lon="-0.03774">
        <ele>105.2</ele>
        <time>2023-09-03T06:01:39Z</time>
      </trkpt>
      <trkpt lat="49.28341" lon="-0.03771">
        <ele>105.4</ele>
        <time>2023-09-03T06:01:40Z</time>
      </trkpt>
      <trkpt lat="49.28339" lon="-0.03768">
        <ele>105.7</ele>
        <time>2023-09-03T06:01:41Z</time>
      </trkpt>
      <trkpt lat="49.28336" lon="-0.03764">
        <ele>105.7</ele>
        <time>2023-09-03T06:01:42Z</time>
      </trkpt>
      <trkpt lat="49.28335" lon="-0.03763">
        <ele>105.7</ele>
        <time>2023-09-03T06:01:43Z</time>
      </trkpt>
      <trkpt lat="49.28333" lon="-0.0376">
        <ele>105.9</ele>
        <time>2023-09-03T06:01:44Z</time>
      </trkpt>
      <trkpt lat="49.2833" lon="-0.03758">
        <ele>106.1</ele>
        <time>2023-09-03T06:01:45Z</time>
      </trkpt>
      <trkpt lat="49.28328" lon="-0.03755">
        <ele>106.3</ele>
        <time>2023-09-03T06:01:46Z</time>
      </trkpt>
      <trkpt lat="49.28326" lon="-0.03753">
        <ele>106.5</ele>
        <time>2023-09-03T06:01:47Z</time>
      </trkpt>
      <trkpt lat="49.28324" lon="-0.0375">
        <ele>106.7</ele>
        <time>2023-09-03T06:01:48Z</time>
      </trkpt>
      <trkpt lat="49.28321" lon="-0.03746">
        <ele>107</ele>
        <time>2023-09-03T06:01:49Z</time>
      </trkpt>
      <trkpt lat="49.2832" lon="-0.03745">
        <ele>107.1</ele>
        <time>2023-09-03T06:01:50Z</time>
      </trkpt>
      <trkpt lat="49.28317" lon="-0.03741">
        <ele>107.4</ele>
        <time>2023-09-03T06:01:51Z</time>
      </trkpt>
      <trkpt lat="49.28316" lon="-0.0374">
        <ele>107.5</ele>
        <time>2023-09-03T06:01:52Z</time>
      </trkpt>
      <trkpt lat="49.28313" lon="-0.03737">
        <ele>107.7</ele>
        <time>2023-09-03T06:01:53Z</time>
      </trkpt>
      <trkpt lat="49.28311" lon="-0.03734">
        <ele>107.9</ele>
        <time>2023-09-03T06:01:54Z</time>
      </trkpt>
      <trkpt lat="49.28308" lon="-0.03731">
        <ele>108.2</ele>
        <time>2023-09-03T06:01:55Z</time>
      </trkpt>
      <trkpt lat="49.28306" lon="-0.0373">
        <ele>108.3</ele>
        <time>2023-09-03T06:01:56Z</time>
      </trkpt>
      <trkpt lat="49.28304" lon="-0.03728">
        <ele>108.5</ele>
        <time>2023-09-03T06:01:57Z</time>
      </trkpt>
      <trkpt lat="49.28301" lon="-0.03725">
        <ele>108.7</ele>
        <time>2023-09-03T06:01:58Z</time>
      </trkpt>
      <trkpt lat="49.28299" lon="-0.03723">
        <ele>108.9</ele>
        <time>2023-09-03T06:01:59Z</time>
      </trkpt>
      <trkpt lat="49.28296" lon="-0.0372">
        <ele>109.1</ele>
        <time>2023-09-03T06:02:00Z</time>
      </trkpt>
      <trkpt lat="49.28293" lon="-0.03717">
        <ele>109.3</ele>
        <time>2023-09-03T06:02:01Z</time>
      </trkpt>
      <trkpt lat="49.28291" lon="-0.03714">
        <ele>109.5</ele>
        <time>2023-09-03T06:02:02Z</time>
      </trkpt>
      <trkpt lat="49.28288" lon="-0.03711">
        <ele>109.7</ele>
        <time>2023-09-03T06:02:03Z</time>
      </trkpt>
      <trkpt lat="49.28285" lon="-0.03708">
        <ele>109.9</ele>
        <time>2023-09-03T06:02:04Z</time>
      </trkpt>
      <trkpt lat="49.28283" lon="-0.03705">
        <ele>110.1</ele>
        <time>2023-09-03T06:02:05Z</time>
      </trkpt>
      <trkpt lat="49.2828" lon="-0.03702">
        <ele>110.3</ele>
        <time>2023-09-03T06:02:06Z</time>
      </trkpt>
      <trkpt lat="49.28278" lon="-0.03698">
        <ele>110.5</ele>
        <time>2023-09-03T06:02:07Z</time>
      </trkpt>
      <trkpt lat="49.28275" lon="-0.03695">
        <ele>110.8</ele>
        <time>2023-09-03T06:02:08Z</time>
      </trkpt>
      <trkpt lat="49.28272" lon="-0.03692">
        <ele>111</ele>
        <time>2023-09-03T06:02:09Z</time>
      </trkpt>
      <trkpt lat="49.28269" lon="-0.03689">
        <ele>111.1</ele>
        <time>2023-09-03T06:02:10Z</time>
      </trkpt>
      <trkpt lat="49.28266" lon="-0.03686">
        <ele>111.3</ele>
        <time>2023-09-03T06:02:11Z</time>
      </trkpt>
      <trkpt lat="49.28264" lon="-0.03684">
        <ele>111.5</ele>
        <time>2023-09-03T06:02:12Z</time>
      </trkpt>
      <trkpt lat="49.28261" lon="-0.03681">
        <ele>111.6</ele>
        <time>2023-09-03T06:02:13Z</time>
      </trkpt>
      <trkpt lat="49.28258" lon="-0.03678">
        <ele>111.8</ele>
        <time>2023-09-03T06:02:14Z</time>
      </trkpt>
      <trkpt lat="49.28255" lon="-0.03674">
        <ele>112</ele>
        <time>2023-09-03T06:02:15Z</time>
      </trkpt>
      <trkpt lat="49.28252" lon="-0.0367">
        <ele>112.2</ele>
        <time>2023-09-03T06:02:16Z</time>
      </trkpt>
      <trkpt lat="49.28249" lon="-0.03666">
        <ele>112.3</ele>
        <time>2023-09-03T06:02:17Z</time>
      </trkpt>
      <trkpt lat="49.28246" lon="-0.03663">
        <ele>112.5</ele>
        <time>2023-09-03T06:02:18Z</time>
      </trkpt>
      <trkpt lat="49.28243" lon="-0.0366">
        <ele>112.7</ele>
        <time>2023-09-03T06:02:19Z</time>
      </trkpt>
      <trkpt lat="49.2824" lon="-0.03656">
        <ele>112.8</ele>
        <time>2023-09-03T06:02:20Z</time>
      </trkpt>
      <trkpt lat="49.28237" lon="-0.03652">
        <ele>113</ele>
        <time>2023-09-03T06:02:21Z</time>
      </trkpt>
      <trkpt lat="49.28234" lon="-0.03647">
        <ele>113.2</ele>
        <time>2023-09-03T06:02:22Z</time>
      </trkpt>
      <trkpt lat="49.28231" lon="-0.03643">
        <ele>113.3</ele>
        <time>2023-09-03T06:02:23Z</time>
      </trkpt>
      <trkpt lat="49.28229" lon="-0.03638">
        <ele>113.5</ele>
        <time>2023-09-03T06:02:24Z</time>
      </trkpt>
      <trkpt lat="49.28227" lon="-0.03634">
        <ele>113.7</ele>
        <time>2023-09-03T06:02:25Z</time>
      </trkpt>
      <trkpt lat="49.28224" lon="-0.0363">
        <ele>113.9</ele>
        <time>2023-09-03T06:02:26Z</time>
      </trkpt>
      <trkpt lat="49.28222" lon="-0.03626">
        <ele>114</ele>
        <time>2023-09-03T06:02:27Z</time>
      </trkpt>
      <trkpt lat="49.2822" lon="-0.03622">
        <ele>114.2</ele>
        <time>2023-09-03T06:02:28Z</time>
      </trkpt>
      <trkpt lat="49.28218" lon="-0.03619">
        <ele>114.4</ele>
        <time>2023-09-03T06:02:29Z</time>
      </trkpt>
      <trkpt lat="49.28215" lon="-0.03615">
        <ele>114.6</ele>
        <time>2023-09-03T06:02:30Z</time>
      </trkpt>
      <trkpt lat="49.28213" lon="-0.03611">
        <ele>114.7</ele>
        <time>2023-09-03T06:02:31Z</time>
      </trkpt>
      <trkpt lat="49.2821" lon="-0.03607">
        <ele>114.9</ele>
        <time>2023-09-03T06:02:32Z</time>
      </trkpt>
      <trkpt lat="49.28208" lon="-0.03603">
        <ele>115.1</ele>
        <time>2023-09-03T06:02:33Z</time>
      </trkpt>
      <trkpt lat="49.28205" lon="-0.036">
        <ele>115.2</ele>
        <time>2023-09-03T06:02:34Z</time>
      </trkpt>
      <trkpt lat="49.28203" lon="-0.03596">
        <ele>115.4</ele>
        <time>2023-09-03T06:02:35Z</time>
      </trkpt>
      <trkpt lat="49.282" lon="-0.03592">
        <ele>115.5</ele>
        <time>2023-09-03T06:02:36Z</time>
      </trkpt>
      <trkpt lat="49.28198" lon="-0.03588">
        <ele>115.6</ele>
        <time>2023-09-03T06:02:37Z</time>
      </trkpt>
      <trkpt lat="49.28196" lon="-0.03584">
        <ele>115.8</ele>
        <time>2023-09-03T06:02:38Z</time>
      </trkpt>
      <trkpt lat="49.28193" lon="-0.03581">
        <ele>115.9</ele>
        <time>2023-09-03T06:02:39Z</time>
      </trkpt>
      <trkpt lat="49.2819" lon="-0.03577">
        <ele>116</ele>
        <time>2023-09-03T06:02:40Z</time>
      </trkpt>
      <trkpt lat="49.28187" lon="-0.03573">
        <ele>116.2</ele>
        <time>2023-09-03T06:02:41Z</time>
      </trkpt>
      <trkpt lat="49.28184" lon="-0.0357">
        <ele>116.3</ele>
        <time>2023-09-03T06:02:42Z</time>
      </trkpt>
      <trkpt lat="49.28181" lon="-0.03566">
        <ele>116.4</ele>
        <time>2023-09-03T06:02:43Z</time>
      </trkpt>
      <trkpt lat="49.28177" lon="-0.03561">
        <ele>116.6</ele>
        <time>2023-09-03T06:02:44Z</time>
      </trkpt>
      <trkpt lat="49.28173" lon="-0.03555">
        <ele>116.8</ele>
        <time>2023-09-03T06:02:45Z</time>
      </trkpt>
      <trkpt lat="49.2817" lon="-0.03549">
        <ele>117</ele>
        <time>2023-09-03T06:02:46Z</time>
      </trkpt>
      <trkpt lat="49.28166" lon="-0.03543">
        <ele>117.1</ele>
        <time>2023-09-03T06:02:47Z</time>
      </trkpt>
      <trkpt lat="49.28163" lon="-0.03538">
        <ele>117.3</ele>
        <time>2023-09-03T06:02:48Z</time>
      </trkpt>
      <trkpt lat="49.28159" lon="-0.03533">
        <ele>117.4</ele>
        <time>2023-09-03T06:02:49Z</time>
      </trkpt>
      <trkpt lat="49.28156" lon="-0.03528">
        <ele>117.6</ele>
        <time>2023-09-03T06:02:50Z</time>
      </trkpt>
      <trkpt lat="49.28152" lon="-0.03523">
        <ele>117.7</ele>
        <time>2023-09-03T06:02:51Z</time>
      </trkpt>
      <trkpt lat="49.28149" lon="-0.03518">
        <ele>117.9</ele>
        <time>2023-09-03T06:02:52Z</time>
      </trkpt>
      <trkpt lat="49.28145" lon="-0.03513">
        <ele>118</ele>
        <time>2023-09-03T06:02:53Z</time>
      </trkpt>
      <trkpt lat="49.28142" lon="-0.0351">
        <ele>118.1</ele>
        <time>2023-09-03T06:02:54Z</time>
      </trkpt>
      <trkpt lat="49.28139" lon="-0.03506">
        <ele>118.2</ele>
        <time>2023-09-03T06:02:55Z</time>
      </trkpt>
      <trkpt lat="49.28136" lon="-0.03503">
        <ele>118.3</ele>
        <time>2023-09-03T06:02:56Z</time>
      </trkpt>
      <trkpt lat="49.28132" lon="-0.03499">
        <ele>118.4</ele>
        <time>2023-09-03T06:02:57Z</time>
      </trkpt>
      <trkpt lat="49.28128" lon="-0.03496">
        <ele>118.6</ele>
        <time>2023-09-03T06:02:58Z</time>
      </trkpt>
      <trkpt lat="49.28124" lon="-0.03495">
        <ele>118.7</ele>
        <time>2023-09-03T06:02:59Z</time>
      </trkpt>
      <trkpt lat="49.2812" lon="-0.03492">
        <ele>118.8</ele>
        <time>2023-09-03T06:03:00Z</time>
      </trkpt>
      <trkpt lat="49.28115" lon="-0.03489">
        <ele>118.9</ele>
        <time>2023-09-03T06:03:01Z</time>
      </trkpt>
      <trkpt lat="49.28111" lon="-0.03485">
        <ele>119</ele>
        <time>2023-09-03T06:03:02Z</time>
      </trkpt>
      <trkpt lat="49.28107" lon="-0.03482">
        <ele>119.1</ele>
        <time>2023-09-03T06:03:03Z</time>
      </trkpt>
      <trkpt lat="49.28102" lon="-0.03479">
        <ele>119.3</ele>
        <time>2023-09-03T06:03:04Z</time>
      </trkpt>
      <trkpt lat="49.28099" lon="-0.03477">
        <ele>119.4</ele>
        <time>2023-09-03T06:03:05Z</time>
      </trkpt>
      <trkpt lat="49.28095" lon="-0.03475">
        <ele>119.5</ele>
        <time>2023-09-03T06:03:06Z</time>
      </trkpt>
      <trkpt lat="49.28091" lon="-0.03473">
        <ele>119.6</ele>
        <time>2023-09-03T06:03:07Z</time>
      </trkpt>
      <trkpt lat="49.28087" lon="-0.0347">
        <ele>119.7</ele>
        <time>2023-09-03T06:03:08Z</time>
      </trkpt>
      <trkpt lat="49.28083" lon="-0.03467">
        <ele>119.8</ele>
        <time>2023-09-03T06:03:09Z</time>
      </trkpt>
      <trkpt lat="49.28079" lon="-0.03463">
        <ele>120</ele>
        <time>2023-09-03T06:03:10Z</time>
      </trkpt>
      <trkpt lat="49.28075" lon="-0.0346">
        <ele>120.1</ele>
        <time>2023-09-03T06:03:11Z</time>
      </trkpt>
      <trkpt lat="49.28071" lon="-0.03457">
        <ele>120.2</ele>
        <time>2023-09-03T06:03:12Z</time>
      </trkpt>
      <trkpt lat="49.28067" lon="-0.03454">
        <ele>120.3</ele>
        <time>2023-09-03T06:03:13Z</time>
      </trkpt>
      <trkpt lat="49.28063" lon="-0.03451">
        <ele>120.4</ele>
        <time>2023-09-03T06:03:14Z</time>
      </trkpt>
      <trkpt lat="49.28059" lon="-0.03448">
        <ele>120.5</ele>
        <time>2023-09-03T06:03:15Z</time>
      </trkpt>
      <trkpt lat="49.28054" lon="-0.03443">
        <ele>120.7</ele>
        <time>2023-09-03T06:03:16Z</time>
      </trkpt>
      <trkpt lat="49.2805" lon="-0.0344">
        <ele>120.8</ele>
        <time>2023-09-03T06:03:17Z</time>
      </trkpt>
      <trkpt lat="49.28046" lon="-0.03436">
        <ele>120.9</ele>
        <time>2023-09-03T06:03:18Z</time>
      </trkpt>
      <trkpt lat="49.28042" lon="-0.03433">
        <ele>121</ele>
        <time>2023-09-03T06:03:19Z</time>
      </trkpt>
      <trkpt lat="49.28038" lon="-0.03429">
        <ele>121.1</ele>
        <time>2023-09-03T06:03:20Z</time>
      </trkpt>
      <trkpt lat="49.28033" lon="-0.03426">
        <ele>121.2</ele>
        <time>2023-09-03T06:03:21Z</time>
      </trkpt>
      <trkpt lat="49.28029" lon="-0.03423">
        <ele>121.3</ele>
        <time>2023-09-03T06:03:22Z</time>
      </trkpt>
      <trkpt lat="49.28025" lon="-0.03419">
        <ele>121.4</ele>
        <time>2023-09-03T06:03:23Z</time>
      </trkpt>
      <trkpt lat="49.28021" lon="-0.03415">
        <ele>121.5</ele>
        <time>2023-09-03T06:03:24Z</time>
      </trkpt>
      <trkpt lat="49.28017" lon="-0.03411">
        <ele>121.6</ele>
        <time>2023-09-03T06:03:25Z</time>
      </trkpt>
      <trkpt lat="49.28013" lon="-0.03407">
        <ele>121.7</ele>
        <time>2023-09-03T06:03:26Z</time>
      </trkpt>
      <trkpt lat="49.28009" lon="-0.03403">
        <ele>121.8</ele>
        <time>2023-09-03T06:03:27Z</time>
      </trkpt>
      <trkpt lat="49.28005" lon="-0.03398">
        <ele>121.9</ele>
        <time>2023-09-03T06:03:28Z</time>
      </trkpt>
      <trkpt lat="49.28001" lon="-0.03393">
        <ele>122</ele>
        <time>2023-09-03T06:03:29Z</time>
      </trkpt>
      <trkpt lat="49.27997" lon="-0.03388">
        <ele>122.1</ele>
        <time>2023-09-03T06:03:30Z</time>
      </trkpt>
      <trkpt lat="49.27994" lon="-0.03384">
        <ele>122.2</ele>
        <time>2023-09-03T06:03:31Z</time>
      </trkpt>
      <trkpt lat="49.2799" lon="-0.03379">
        <ele>122.3</ele>
        <time>2023-09-03T06:03:32Z</time>
      </trkpt>
      <trkpt lat="49.27986" lon="-0.03375">
        <ele>122.3</ele>
        <time>2023-09-03T06:03:33Z</time>
      </trkpt>
      <trkpt lat="49.27982" lon="-0.03371">
        <ele>122.4</ele>
        <time>2023-09-03T06:03:34Z</time>
      </trkpt>
      <trkpt lat="49.27978" lon="-0.03366">
        <ele>122.5</ele>
        <time>2023-09-03T06:03:35Z</time>
      </trkpt>
      <trkpt lat="49.27974" lon="-0.03362">
        <ele>122.6</ele>
        <time>2023-09-03T06:03:36Z</time>
      </trkpt>
      <trkpt lat="49.27969" lon="-0.03357">
        <ele>122.7</ele>
        <time>2023-09-03T06:03:37Z</time>
      </trkpt>
      <trkpt lat="49.27965" lon="-0.03353">
        <ele>122.8</ele>
        <time>2023-09-03T06:03:38Z</time>
      </trkpt>
      <trkpt lat="49.2796" lon="-0.03348">
        <ele>122.8</ele>
        <time>2023-09-03T06:03:39Z</time>
      </trkpt>
      <trkpt lat="49.27956" lon="-0.03343">
        <ele>122.9</ele>
        <time>2023-09-03T06:03:40Z</time>
      </trkpt>
      <trkpt lat="49.27952" lon="-0.03339">
        <ele>123</ele>
        <time>2023-09-03T06:03:41Z</time>
      </trkpt>
      <trkpt lat="49.27948" lon="-0.03334">
        <ele>123</ele>
        <time>2023-09-03T06:03:42Z</time>
      </trkpt>
      <trkpt lat="49.27944" lon="-0.03329">
        <ele>123.1</ele>
        <time>2023-09-03T06:03:43Z</time>
      </trkpt>
      <trkpt lat="49.2794" lon="-0.03324">
        <ele>123.2</ele>
        <time>2023-09-03T06:03:44Z</time>
      </trkpt>
      <trkpt lat="49.27936" lon="-0.03319">
        <ele>123.3</ele>
        <time>2023-09-03T06:03:45Z</time>
      </trkpt>
      <trkpt lat="49.27932" lon="-0.03314">
        <ele>123.4</ele>
        <time>2023-09-03T06:03:46Z</time>
      </trkpt>
      <trkpt lat="49.27928" lon="-0.03309">
        <ele>123.5</ele>
        <time>2023-09-03T06:03:47Z</time>
      </trkpt>
      <trkpt lat="49.27924" lon="-0.03304">
        <ele>123.6</ele>
        <time>2023-09-03T06:03:48Z</time>
      </trkpt>
      <trkpt lat="49.2792" lon="-0.033">
        <ele>123.7</ele>
        <time>2023-09-03T06:03:49Z</time>
      </trkpt>
      <trkpt lat="49.27916" lon="-0.03294">
        <ele>123.7</ele>
        <time>2023-09-03T06:03:50Z</time>
      </trkpt>
      <trkpt lat="49.27912" lon="-0.03289">
        <ele>123.8</ele>
        <time>2023-09-03T06:03:51Z</time>
      </trkpt>
      <trkpt lat="49.27908" lon="-0.03284">
        <ele>123.8</ele>
        <time>2023-09-03T06:03:52Z</time>
      </trkpt>
      <trkpt lat="49.27905" lon="-0.03278">
        <ele>123.9</ele>
        <time>2023-09-03T06:03:53Z</time>
      </trkpt>
      <trkpt lat="49.27901" lon="-0.03273">
        <ele>124</ele>
        <time>2023-09-03T06:03:54Z</time>
      </trkpt>
      <trkpt lat="49.27897" lon="-0.03267">
        <ele>124.1</ele>
        <time>2023-09-03T06:03:55Z</time>
      </trkpt>
      <trkpt lat="49.27893" lon="-0.03262">
        <ele>124.2</ele>
        <time>2023-09-03T06:03:56Z</time>
      </trkpt>
      <trkpt lat="49.27889" lon="-0.03256">
        <ele>124.3</ele>
        <time>2023-09-03T06:03:57Z</time>
      </trkpt>
      <trkpt lat="49.27885" lon="-0.0325">
        <ele>124.4</ele>
        <time>2023-09-03T06:03:58Z</time>
      </trkpt>
      <trkpt lat="49.27882" lon="-0.03244">
        <ele>124.6</ele>
        <time>2023-09-03T06:03:59Z</time>
      </trkpt>
      <trkpt lat="49.2788" lon="-0.03238">
        <ele>124.7</ele>
        <time>2023-09-03T06:04:00Z</time>
      </trkpt>
      <trkpt lat="49.27877" lon="-0.03233">
        <ele>124.8</ele>
        <time>2023-09-03T06:04:01Z</time>
      </trkpt>
      <trkpt lat="49.27874" lon="-0.03227">
        <ele>125</ele>
        <time>2023-09-03T06:04:02Z</time>
      </trkpt>
      <trkpt lat="49.27871" lon="-0.03222">
        <ele>125.1</ele>
        <time>2023-09-03T06:04:03Z</time>
      </trkpt>
      <trkpt lat="49.27868" lon="-0.03216">
        <ele>125.3</ele>
        <time>2023-09-03T06:04:04Z</time>
      </trkpt>
      <trkpt lat="49.27865" lon="-0.0321">
        <ele>125.5</ele>
        <time>2023-09-03T06:04:05Z</time>
      </trkpt>
      <trkpt lat="49.27862" lon="-0.03205">
        <ele>125.6</ele>
        <time>2023-09-03T06:04:06Z</time>
      </trkpt>
      <trkpt lat="49.27859" lon="-0.03199">
        <ele>125.8</ele>
        <time>2023-09-03T06:04:07Z</time>
      </trkpt>
      <trkpt lat="49.27856" lon="-0.03193">
        <ele>125.9</ele>
        <time>2023-09-03T06:04:08Z</time>
      </trkpt>
      <trkpt lat="49.27853" lon="-0.03187">
        <ele>126.1</ele>
        <time>2023-09-03T06:04:09Z</time>
      </trkpt>
      <trkpt lat="49.27849" lon="-0.03182">
        <ele>126.3</ele>
        <time>2023-09-03T06:04:10Z</time>
      </trkpt>
      <trkpt lat="49.27846" lon="-0.03176">
        <ele>126.5</ele>
        <time>2023-09-03T06:04:11Z</time>
      </trkpt>
      <trkpt lat="49.27842" lon="-0.03171">
        <ele>126.7</ele>
        <time>2023-09-03T06:04:12Z</time>
      </trkpt>
      <trkpt lat="49.27839" lon="-0.03166">
        <ele>126.9</ele>
        <time>2023-09-03T06:04:13Z</time>
      </trkpt>
      <trkpt lat="49.27835" lon="-0.03161">
        <ele>127.1</ele>
        <time>2023-09-03T06:04:14Z</time>
      </trkpt>
      <trkpt lat="49.27832" lon="-0.03156">
        <ele>127.2</ele>
        <time>2023-09-03T06:04:15Z</time>
      </trkpt>
      <trkpt lat="49.27829" lon="-0.03151">
        <ele>127.4</ele>
        <time>2023-09-03T06:04:16Z</time>
      </trkpt>
      <trkpt lat="49.27825" lon="-0.03146">
        <ele>127.5</ele>
        <time>2023-09-03T06:04:17Z</time>
      </trkpt>
      <trkpt lat="49.27822" lon="-0.03142">
        <ele>127.7</ele>
        <time>2023-09-03T06:04:18Z</time>
      </trkpt>
      <trkpt lat="49.27818" lon="-0.03137">
        <ele>127.8</ele>
        <time>2023-09-03T06:04:19Z</time>
      </trkpt>
      <trkpt lat="49.27814" lon="-0.03133">
        <ele>128</ele>
        <time>2023-09-03T06:04:20Z</time>
      </trkpt>
      <trkpt lat="49.2781" lon="-0.03128">
        <ele>128.2</ele>
        <time>2023-09-03T06:04:21Z</time>
      </trkpt>
      <trkpt lat="49.27806" lon="-0.03123">
        <ele>128.4</ele>
        <time>2023-09-03T06:04:22Z</time>
      </trkpt>
      <trkpt lat="49.27802" lon="-0.03119">
        <ele>128.6</ele>
        <time>2023-09-03T06:04:23Z</time>
      </trkpt>
      <trkpt lat="49.27798" lon="-0.03115">
        <ele>128.7</ele>
        <time>2023-09-03T06:04:24Z</time>
      </trkpt>
      <trkpt lat="49.27794" lon="-0.0311">
        <ele>128.9</ele>
        <time>2023-09-03T06:04:25Z</time>
      </trkpt>
      <trkpt lat="49.2779" lon="-0.03106">
        <ele>129.1</ele>
        <time>2023-09-03T06:04:26Z</time>
      </trkpt>
      <trkpt lat="49.27786" lon="-0.03101">
        <ele>129.3</ele>
        <time>2023-09-03T06:04:27Z</time>
      </trkpt>
      <trkpt lat="49.27783" lon="-0.03097">
        <ele>129.4</ele>
        <time>2023-09-03T06:04:28Z</time>
      </trkpt>
      <trkpt lat="49.27779" lon="-0.03092">
        <ele>129.6</ele>
        <time>2023-09-03T06:04:29Z</time>
      </trkpt>
      <trkpt lat="49.27775" lon="-0.03087">
        <ele>129.7</ele>
        <time>2023-09-03T06:04:30Z</time>
      </trkpt>
      <trkpt lat="49.27771" lon="-0.03083">
        <ele>129.8</ele>
        <time>2023-09-03T06:04:31Z</time>
      </trkpt>
      <trkpt lat="49.27768" lon="-0.0308">
        <ele>130</ele>
        <time>2023-09-03T06:04:32Z</time>
      </trkpt>
      <trkpt lat="49.27765" lon="-0.03076">
        <ele>130.1</ele>
        <time>2023-09-03T06:04:33Z</time>
      </trkpt>
      <trkpt lat="49.27761" lon="-0.03073">
        <ele>130.2</ele>
        <time>2023-09-03T06:04:34Z</time>
      </trkpt>
      <trkpt lat="49.27758" lon="-0.0307">
        <ele>130.3</ele>
        <time>2023-09-03T06:04:35Z</time>
      </trkpt>
      <trkpt lat="49.27755" lon="-0.03066">
        <ele>130.4</ele>
        <time>2023-09-03T06:04:36Z</time>
      </trkpt>
      <trkpt lat="49.27751" lon="-0.03061">
        <ele>130.5</ele>
        <time>2023-09-03T06:04:37Z</time>
      </trkpt>
      <trkpt lat="49.27748" lon="-0.03058">
        <ele>130.7</ele>
        <time>2023-09-03T06:04:38Z</time>
      </trkpt>
      <trkpt lat="49.27745" lon="-0.03055">
        <ele>130.8</ele>
        <time>2023-09-03T06:04:39Z</time>
      </trkpt>
      <trkpt lat="49.27742" lon="-0.03051">
        <ele>130.9</ele>
        <time>2023-09-03T06:04:40Z</time>
      </trkpt>
      <trkpt lat="49.27739" lon="-0.03047">
        <ele>131</ele>
        <time>2023-09-03T06:04:41Z</time>
      </trkpt>
      <trkpt lat="49.27735" lon="-0.03042">
        <ele>131.1</ele>
        <time>2023-09-03T06:04:42Z</time>
      </trkpt>
      <trkpt lat="49.27732" lon="-0.03037">
        <ele>131.2</ele>
        <time>2023-09-03T06:04:43Z</time>
      </trkpt>
      <trkpt lat="49.27729" lon="-0.03031">
        <ele>131.3</ele>
        <time>2023-09-03T06:04:44Z</time>
      </trkpt>
      <trkpt lat="49.27726" lon="-0.03025">
        <ele>131.4</ele>
        <time>2023-09-03T06:04:45Z</time>
      </trkpt>
      <trkpt lat="49.27722" lon="-0.03019">
        <ele>131.6</ele>
        <time>2023-09-03T06:04:46Z</time>
      </trkpt>
      <trkpt lat="49.27719" lon="-0.03013">
        <ele>131.7</ele>
        <time>2023-09-03T06:04:47Z</time>
      </trkpt>
      <trkpt lat="49.27716" lon="-0.03008">
        <ele>131.9</ele>
        <time>2023-09-03T06:04:48Z</time>
      </trkpt>
      <trkpt lat="49.27712" lon="-0.03003">
        <ele>132</ele>
        <time>2023-09-03T06:04:49Z</time>
      </trkpt>
      <trkpt lat="49.27708" lon="-0.02997">
        <ele>132.1</ele>
        <time>2023-09-03T06:04:50Z</time>
      </trkpt>
      <trkpt lat="49.27705" lon="-0.02991">
        <ele>132.2</ele>
        <time>2023-09-03T06:04:51Z</time>
      </trkpt>
      <trkpt lat="49.27701" lon="-0.02985">
        <ele>132.2</ele>
        <time>2023-09-03T06:04:52Z</time>
      </trkpt>
      <trkpt lat="49.27697" lon="-0.02979">
        <ele>132.3</ele>
        <time>2023-09-03T06:04:53Z</time>
      </trkpt>
      <trkpt lat="49.27693" lon="-0.02973">
        <ele>132.4</ele>
        <time>2023-09-03T06:04:54Z</time>
      </trkpt>
      <trkpt lat="49.27689" lon="-0.02967">
        <ele>132.4</ele>
        <time>2023-09-03T06:04:55Z</time>
      </trkpt>
      <trkpt lat="49.27686" lon="-0.02962">
        <ele>132.5</ele>
        <time>2023-09-03T06:04:56Z</time>
      </trkpt>
      <trkpt lat="49.27682" lon="-0.02956">
        <ele>132.5</ele>
        <time>2023-09-03T06:04:57Z</time>
      </trkpt>
      <trkpt lat="49.27678" lon="-0.0295">
        <ele>132.5</ele>
        <time>2023-09-03T06:04:58Z</time>
      </trkpt>
      <trkpt lat="49.27675" lon="-0.02944">
        <ele>132.6</ele>
        <time>2023-09-03T06:04:59Z</time>
      </trkpt>
      <trkpt lat="49.27671" lon="-0.02938">
        <ele>132.6</ele>
        <time>2023-09-03T06:05:00Z</time>
      </trkpt>
      <trkpt lat="49.27667" lon="-0.02931">
        <ele>132.6</ele>
        <time>2023-09-03T06:05:01Z</time>
      </trkpt>
      <trkpt lat="49.27663" lon="-0.02925">
        <ele>132.7</ele>
        <time>2023-09-03T06:05:02Z</time>
      </trkpt>
      <trkpt lat="49.27657" lon="-0.0292">
        <ele>132.7</ele>
        <time>2023-09-03T06:05:03Z</time>
      </trkpt>
      <trkpt lat="49.27652" lon="-0.02915">
        <ele>132.8</ele>
        <time>2023-09-03T06:05:04Z</time>
      </trkpt>
      <trkpt lat="49.27647" lon="-0.02909">
        <ele>132.9</ele>
        <time>2023-09-03T06:05:05Z</time>
      </trkpt>
      <trkpt lat="49.27642" lon="-0.02904">
        <ele>133</ele>
        <time>2023-09-03T06:05:06Z</time>
      </trkpt>
      <trkpt lat="49.27637" lon="-0.029">
        <ele>133.2</ele>
        <time>2023-09-03T06:05:07Z</time>
      </trkpt>
      <trkpt lat="49.27633" lon="-0.02896">
        <ele>133.3</ele>
        <time>2023-09-03T06:05:08Z</time>
      </trkpt>
      <trkpt lat="49.27628" lon="-0.02892">
        <ele>133.3</ele>
        <time>2023-09-03T06:05:09Z</time>
      </trkpt>
      <trkpt lat="49.27623" lon="-0.02889">
        <ele>133.4</ele>
        <time>2023-09-03T06:05:10Z</time>
      </trkpt>
      <trkpt lat="49.27618" lon="-0.02884">
        <ele>133.5</ele>
        <time>2023-09-03T06:05:11Z</time>
      </trkpt>
      <trkpt lat="49.27613" lon="-0.02881">
        <ele>133.5</ele>
        <time>2023-09-03T06:05:12Z</time>
      </trkpt>
      <trkpt lat="49.27608" lon="-0.02877">
        <ele>133.6</ele>
        <time>2023-09-03T06:05:13Z</time>
      </trkpt>
      <trkpt lat="49.27603" lon="-0.02873">
        <ele>133.6</ele>
        <time>2023-09-03T06:05:14Z</time>
      </trkpt>
      <trkpt lat="49.27597" lon="-0.02869">
        <ele>133.6</ele>
        <time>2023-09-03T06:05:15Z</time>
      </trkpt>
      <trkpt lat="49.2759" lon="-0.02866">
        <ele>133.7</ele>
        <time>2023-09-03T06:05:16Z</time>
      </trkpt>
      <trkpt lat="49.27584" lon="-0.02863">
        <ele>133.7</ele>
        <time>2023-09-03T06:05:17Z</time>
      </trkpt>
      <trkpt lat="49.27579" lon="-0.0286">
        <ele>133.8</ele>
        <time>2023-09-03T06:05:18Z</time>
      </trkpt>
      <trkpt lat="49.27573" lon="-0.02857">
        <ele>133.9</ele>
        <time>2023-09-03T06:05:19Z</time>
      </trkpt>
      <trkpt lat="49.27568" lon="-0.02854">
        <ele>133.9</ele>
        <time>2023-09-03T06:05:20Z</time>
      </trkpt>
      <trkpt lat="49.27562" lon="-0.02851">
        <ele>134</ele>
        <time>2023-09-03T06:05:21Z</time>
      </trkpt>
      <trkpt lat="49.27556" lon="-0.02848">
        <ele>134</ele>
        <time>2023-09-03T06:05:22Z</time>
      </trkpt>
      <trkpt lat="49.27551" lon="-0.02846">
        <ele>134.1</ele>
        <time>2023-09-03T06:05:23Z</time>
      </trkpt>
      <trkpt lat="49.27545" lon="-0.02845">
        <ele>134.1</ele>
        <time>2023-09-03T06:05:24Z</time>
      </trkpt>
      <trkpt lat="49.2754" lon="-0.02845">
        <ele>134.1</ele>
        <time>2023-09-03T06:05:25Z</time>
      </trkpt>
      <trkpt lat="49.27533" lon="-0.02847">
        <ele>134.2</ele>
        <time>2023-09-03T06:05:26Z</time>
      </trkpt>
      <trkpt lat="49.27527" lon="-0.02851">
        <ele>134.3</ele>
        <time>2023-09-03T06:05:27Z</time>
      </trkpt>
      <trkpt lat="49.2752" lon="-0.02856">
        <ele>134.3</ele>
        <time>2023-09-03T06:05:28Z</time>
      </trkpt>
      <trkpt lat="49.27515" lon="-0.02862">
        <ele>134.4</ele>
        <time>2023-09-03T06:05:29Z</time>
      </trkpt>
      <trkpt lat="49.2751" lon="-0.02868">
        <ele>134.5</ele>
        <time>2023-09-03T06:05:30Z</time>
      </trkpt>
      <trkpt lat="49.27505" lon="-0.02874">
        <ele>134.5</ele>
        <time>2023-09-03T06:05:31Z</time>
      </trkpt>
      <trkpt lat="49.275" lon="-0.02881">
        <ele>134.5</ele>
        <time>2023-09-03T06:05:32Z</time>
      </trkpt>
      <trkpt lat="49.27495" lon="-0.02887">
        <ele>134.6</ele>
        <time>2023-09-03T06:05:33Z</time>
      </trkpt>
      <trkpt lat="49.2749" lon="-0.02892">
        <ele>134.6</ele>
        <time>2023-09-03T06:05:34Z</time>
      </trkpt>
      <trkpt lat="49.27485" lon="-0.02897">
        <ele>134.7</ele>
        <time>2023-09-03T06:05:35Z</time>
      </trkpt>
      <trkpt lat="49.2748" lon="-0.029">
        <ele>134.8</ele>
        <time>2023-09-03T06:05:36Z</time>
      </trkpt>
      <trkpt lat="49.27474" lon="-0.02903">
        <ele>134.9</ele>
        <time>2023-09-03T06:05:37Z</time>
      </trkpt>
      <trkpt lat="49.27468" lon="-0.02904">
        <ele>135</ele>
        <time>2023-09-03T06:05:38Z</time>
      </trkpt>
      <trkpt lat="49.27462" lon="-0.02904">
        <ele>135.2</ele>
        <time>2023-09-03T06:05:39Z</time>
      </trkpt>
      <trkpt lat="49.27455" lon="-0.02903">
        <ele>135.3</ele>
        <time>2023-09-03T06:05:40Z</time>
      </trkpt>
      <trkpt lat="49.27449" lon="-0.029">
        <ele>135.4</ele>
        <time>2023-09-03T06:05:41Z</time>
      </trkpt>
      <trkpt lat="49.27442" lon="-0.02896">
        <ele>135.6</ele>
        <time>2023-09-03T06:05:42Z</time>
      </trkpt>
      <trkpt lat="49.27437" lon="-0.02892">
        <ele>135.7</ele>
        <time>2023-09-03T06:05:43Z</time>
      </trkpt>
      <trkpt lat="49.27431" lon="-0.02889">
        <ele>135.8</ele>
        <time>2023-09-03T06:05:44Z</time>
      </trkpt>
      <trkpt lat="49.27426" lon="-0.02886">
        <ele>136</ele>
        <time>2023-09-03T06:05:45Z</time>
      </trkpt>
      <trkpt lat="49.27421" lon="-0.02882">
        <ele>136.1</ele>
        <time>2023-09-03T06:05:46Z</time>
      </trkpt>
      <trkpt lat="49.27416" lon="-0.02879">
        <ele>136.3</ele>
        <time>2023-09-03T06:05:47Z</time>
      </trkpt>
      <trkpt lat="49.27411" lon="-0.02875">
        <ele>136.5</ele>
        <time>2023-09-03T06:05:48Z</time>
      </trkpt>
      <trkpt lat="49.27406" lon="-0.02872">
        <ele>136.6</ele>
        <time>2023-09-03T06:05:49Z</time>
      </trkpt>
      <trkpt lat="49.27401" lon="-0.02868">
        <ele>136.8</ele>
        <time>2023-09-03T06:05:50Z</time>
      </trkpt>
      <trkpt lat="49.27396" lon="-0.02865">
        <ele>136.9</ele>
        <time>2023-09-03T06:05:51Z</time>
      </trkpt>
      <trkpt lat="49.2739" lon="-0.02862">
        <ele>137</ele>
        <time>2023-09-03T06:05:52Z</time>
      </trkpt>
      <trkpt lat="49.27385" lon="-0.02858">
        <ele>137.1</ele>
        <time>2023-09-03T06:05:53Z</time>
      </trkpt>
      <trkpt lat="49.2738" lon="-0.02856">
        <ele>137.3</ele>
        <time>2023-09-03T06:05:54Z</time>
      </trkpt>
      <trkpt lat="49.27375" lon="-0.02853">
        <ele>137.4</ele>
        <time>2023-09-03T06:05:55Z</time>
      </trkpt>
      <trkpt lat="49.27369" lon="-0.02851">
        <ele>137.6</ele>
        <time>2023-09-03T06:05:56Z</time>
      </trkpt>
      <trkpt lat="49.27364" lon="-0.02849">
        <ele>137.8</ele>
        <time>2023-09-03T06:05:57Z</time>
      </trkpt>
      <trkpt lat="49.27358" lon="-0.02848">
        <ele>138</ele>
        <time>2023-09-03T06:05:58Z</time>
      </trkpt>
      <trkpt lat="49.27353" lon="-0.02847">
        <ele>138.2</ele>
        <time>2023-09-03T06:05:59Z</time>
      </trkpt>
      <trkpt lat="49.27347" lon="-0.02847">
        <ele>138.4</ele>
        <time>2023-09-03T06:06:00Z</time>
      </trkpt>
      <trkpt lat="49.27342" lon="-0.02849">
        <ele>138.5</ele>
        <time>2023-09-03T06:06:01Z</time>
      </trkpt>
      <trkpt lat="49.27336" lon="-0.0285">
        <ele>138.7</ele>
        <time>2023-09-03T06:06:02Z</time>
      </trkpt>
      <trkpt lat="49.27331" lon="-0.02852">
        <ele>138.9</ele>
        <time>2023-09-03T06:06:03Z</time>
      </trkpt>
      <trkpt lat="49.27325" lon="-0.02855">
        <ele>139.1</ele>
        <time>2023-09-03T06:06:04Z</time>
      </trkpt>
      <trkpt lat="49.27321" lon="-0.02857">
        <ele>139.2</ele>
        <time>2023-09-03T06:06:05Z</time>
      </trkpt>
      <trkpt lat="49.27315" lon="-0.02859">
        <ele>139.4</ele>
        <time>2023-09-03T06:06:06Z</time>
      </trkpt>
      <trkpt lat="49.2731" lon="-0.02861">
        <ele>139.6</ele>
        <time>2023-09-03T06:06:07Z</time>
      </trkpt>
      <trkpt lat="49.27304" lon="-0.02862">
        <ele>139.8</ele>
        <time>2023-09-03T06:06:08Z</time>
      </trkpt>
      <trkpt lat="49.27298" lon="-0.02863">
        <ele>139.9</ele>
        <time>2023-09-03T06:06:09Z</time>
      </trkpt>
      <trkpt lat="49.27293" lon="-0.02862">
        <ele>140</ele>
        <time>2023-09-03T06:06:10Z</time>
      </trkpt>
      <trkpt lat="49.27287" lon="-0.02861">
        <ele>140.2</ele>
        <time>2023-09-03T06:06:11Z</time>
      </trkpt>
      <trkpt lat="49.27281" lon="-0.02859">
        <ele>140.2</ele>
        <time>2023-09-03T06:06:12Z</time>
      </trkpt>
      <trkpt lat="49.27275" lon="-0.02856">
        <ele>140.2</ele>
        <time>2023-09-03T06:06:13Z</time>
      </trkpt>
      <trkpt lat="49.27269" lon="-0.02853">
        <ele>140.2</ele>
        <time>2023-09-03T06:06:14Z</time>
      </trkpt>
      <trkpt lat="49.27263" lon="-0.0285">
        <ele>140.2</ele>
        <time>2023-09-03T06:06:15Z</time>
      </trkpt>
      <trkpt lat="49.27257" lon="-0.02847">
        <ele>140.3</ele>
        <time>2023-09-03T06:06:16Z</time>
      </trkpt>
      <trkpt lat="49.27252" lon="-0.02843">
        <ele>140.3</ele>
        <time>2023-09-03T06:06:17Z</time>
      </trkpt>
      <trkpt lat="49.27246" lon="-0.02839">
        <ele>140.3</ele>
        <time>2023-09-03T06:06:18Z</time>
      </trkpt>
      <trkpt lat="49.27241" lon="-0.02836">
        <ele>140.3</ele>
        <time>2023-09-03T06:06:19Z</time>
      </trkpt>
      <trkpt lat="49.27235" lon="-0.02833">
        <ele>140.3</ele>
        <time>2023-09-03T06:06:20Z</time>
      </trkpt>
      <trkpt lat="49.2723" lon="-0.02829">
        <ele>140.2</ele>
        <time>2023-09-03T06:06:21Z</time>
      </trkpt>
      <trkpt lat="49.27224" lon="-0.02826">
        <ele>140.2</ele>
        <time>2023-09-03T06:06:22Z</time>
      </trkpt>
      <trkpt lat="49.27218" lon="-0.02823">
        <ele>140.2</ele>
        <time>2023-09-03T06:06:23Z</time>
      </trkpt>
      <trkpt lat="49.27213" lon="-0.0282">
        <ele>140.2</ele>
        <time>2023-09-03T06:06:24Z</time>
      </trkpt>
      <trkpt lat="49.27208" lon="-0.02817">
        <ele>140.1</ele>
        <time>2023-09-03T06:06:25Z</time>
      </trkpt>
      <trkpt lat="49.27203" lon="-0.02814">
        <ele>140.1</ele>
        <time>2023-09-03T06:06:26Z</time>
      </trkpt>
      <trkpt lat="49.27198" lon="-0.02811">
        <ele>140.1</ele>
        <time>2023-09-03T06:06:27Z</time>
      </trkpt>
      <trkpt lat="49.27193" lon="-0.02808">
        <ele>140.1</ele>
        <time>2023-09-03T06:06:28Z</time>
      </trkpt>
      <trkpt lat="49.27188" lon="-0.02805">
        <ele>140.1</ele>
        <time>2023-09-03T06:06:29Z</time>
      </trkpt>
      <trkpt lat="49.27184" lon="-0.02803">
        <ele>140.2</ele>
        <time>2023-09-03T06:06:30Z</time>
      </trkpt>
      <trkpt lat="49.27181" lon="-0.02802">
        <ele>140.2</ele>
        <time>2023-09-03T06:06:31Z</time>
      </trkpt>
      <trkpt lat="49.27177" lon="-0.028">
        <ele>140.2</ele>
        <time>2023-09-03T06:06:32Z</time>
      </trkpt>
      <trkpt lat="49.27176" lon="-0.02799">
        <ele>140.2</ele>
        <time>2023-09-03T06:06:33Z</time>
      </trkpt>
      <trkpt lat="49.27174" lon="-0.02798">
        <ele>140.3</ele>
        <time>2023-09-03T06:06:34Z</time>
      </trkpt>
      <trkpt lat="49.27173" lon="-0.02796">
        <ele>140.3</ele>
        <time>2023-09-03T06:06:35Z</time>
      </trkpt>
      <trkpt lat="49.27172" lon="-0.02795">
        <ele>140.3</ele>
        <time>2023-09-03T06:06:36Z</time>
      </trkpt>
      <trkpt lat="49.27172" lon="-0.02795">
        <ele>140.3</ele>
        <time>2023-09-03T06:06:37Z</time>
      </trkpt>
      <trkpt lat="49.27172" lon="-0.02794">
        <ele>140.3</ele>
        <time>2023-09-03T06:06:38Z</time>
      </trkpt>
      <trkpt lat="49.27172" lon="-0.02793">
        <ele>140.3</ele>
        <time>2023-09-03T06:06:39Z</time>
      </trkpt>
      <trkpt lat="49.27171" lon="-0.02792">
        <ele>140.3</ele>
        <time>2023-09-03T06:06:40Z</time>
      </trkpt>
      <trkpt lat="49.27171" lon="-0.02792">
        <ele>140.3</ele>
        <time>2023-09-03T06:06:41Z</time>
      </trkpt>
      <trkpt lat="49.27171" lon="-0.02791">
        <ele>140.3</ele>
        <time>2023-09-03T06:06:42Z</time>
      </trkpt>
      <trkpt lat="49.27171" lon="-0.0279">
        <ele>140.3</ele>
        <time>2023-09-03T06:06:43Z</time>
      </trkpt>
      <trkpt lat="49.2717" lon="-0.0279">
        <ele>140.3</ele>
        <time>2023-09-03T06:06:44Z</time>
      </trkpt>
      <trkpt lat="49.2717" lon="-0.02789">
        <ele>140.3</ele>
        <time>2023-09-03T06:06:45Z</time>
      </trkpt>
      <trkpt lat="49.2717" lon="-0.02788">
        <ele>140.4</ele>
        <time>2023-09-03T06:06:46Z</time>
      </trkpt>
      <trkpt lat="49.2717" lon="-0.02787">
        <ele>140.4</ele>
        <time>2023-09-03T06:06:47Z</time>
      </trkpt>
      <trkpt lat="49.2717" lon="-0.02787">
        <ele>140.4</ele>
        <time>2023-09-03T06:06:55Z</time>
      </trkpt>
      <trkpt lat="49.27169" lon="-0.02786">
        <ele>140.4</ele>
        <time>2023-09-03T06:06:56Z</time>
      </trkpt>
      <trkpt lat="49.27169" lon="-0.02785">
        <ele>140.4</ele>
        <time>2023-09-03T06:06:57Z</time>
      </trkpt>
      <trkpt lat="49.27168" lon="-0.02781">
        <ele>140.4</ele>
        <time>2023-09-03T06:06:58Z</time>
      </trkpt>
      <trkpt lat="49.27168" lon="-0.02775">
        <ele>140.4</ele>
        <time>2023-09-03T06:06:59Z</time>
      </trkpt>
      <trkpt lat="49.27168" lon="-0.02773">
        <ele>140.4</ele>
        <time>2023-09-03T06:07:00Z</time>
      </trkpt>
      <trkpt lat="49.27168" lon="-0.02768">
        <ele>140.4</ele>
        <time>2023-09-03T06:07:01Z</time>
      </trkpt>
      <trkpt lat="49.27168" lon="-0.02761">
        <ele>140.4</ele>
        <time>2023-09-03T06:07:02Z</time>
      </trkpt>
      <trkpt lat="49.27169" lon="-0.02754">
        <ele>140.5</ele>
        <time>2023-09-03T06:07:03Z</time>
      </trkpt>
      <trkpt lat="49.2717" lon="-0.02747">
        <ele>140.5</ele>
        <time>2023-09-03T06:07:04Z</time>
      </trkpt>
      <trkpt lat="49.27171" lon="-0.02738">
        <ele>140.5</ele>
        <time>2023-09-03T06:07:05Z</time>
      </trkpt>
      <trkpt lat="49.27173" lon="-0.02729">
        <ele>140.6</ele>
        <time>2023-09-03T06:07:06Z</time>
      </trkpt>
      <trkpt lat="49.27175" lon="-0.02721">
        <ele>140.6</ele>
        <time>2023-09-03T06:07:07Z</time>
      </trkpt>
      <trkpt lat="49.27176" lon="-0.02712">
        <ele>140.7</ele>
        <time>2023-09-03T06:07:08Z</time>
      </trkpt>
      <trkpt lat="49.27178" lon="-0.02704">
        <ele>140.8</ele>
        <time>2023-09-03T06:07:09Z</time>
      </trkpt>
      <trkpt lat="49.2718" lon="-0.02695">
        <ele>140.8</ele>
        <time>2023-09-03T06:07:10Z</time>
      </trkpt>
      <trkpt lat="49.27181" lon="-0.02687">
        <ele>140.9</ele>
        <time>2023-09-03T06:07:11Z</time>
      </trkpt>
      <trkpt lat="49.27183" lon="-0.02678">
        <ele>141</ele>
        <time>2023-09-03T06:07:12Z</time>
      </trkpt>
      <trkpt lat="49.27185" lon="-0.0267">
        <ele>141</ele>
        <time>2023-09-03T06:07:13Z</time>
      </trkpt>
      <trkpt lat="49.27187" lon="-0.02661">
        <ele>141.1</ele>
        <time>2023-09-03T06:07:14Z</time>
      </trkpt>
      <trkpt lat="49.27189" lon="-0.02652">
        <ele>141.2</ele>
        <time>2023-09-03T06:07:15Z</time>
      </trkpt>
      <trkpt lat="49.27191" lon="-0.02643">
        <ele>141.3</ele>
        <time>2023-09-03T06:07:16Z</time>
      </trkpt>
      <trkpt lat="49.27192" lon="-0.02633">
        <ele>141.3</ele>
        <time>2023-09-03T06:07:17Z</time>
      </trkpt>
      <trkpt lat="49.27194" lon="-0.02623">
        <ele>141.4</ele>
        <time>2023-09-03T06:07:18Z</time>
      </trkpt>
      <trkpt lat="49.27196" lon="-0.02613">
        <ele>141.5</ele>
        <time>2023-09-03T06:07:19Z</time>
      </trkpt>
      <trkpt lat="49.27198" lon="-0.02603">
        <ele>141.5</ele>
        <time>2023-09-03T06:07:20Z</time>
      </trkpt>
      <trkpt lat="49.27201" lon="-0.02592">
        <ele>141.6</ele>
        <time>2023-09-03T06:07:21Z</time>
      </trkpt>
      <trkpt lat="49.27203" lon="-0.02582">
        <ele>141.7</ele>
        <time>2023-09-03T06:07:22Z</time>
      </trkpt>
      <trkpt lat="49.27205" lon="-0.02571">
        <ele>141.7</ele>
        <time>2023-09-03T06:07:23Z</time>
      </trkpt>
      <trkpt lat="49.27208" lon="-0.02561">
        <ele>141.8</ele>
        <time>2023-09-03T06:07:24Z</time>
      </trkpt>
      <trkpt lat="49.2721" lon="-0.02551">
        <ele>141.9</ele>
        <time>2023-09-03T06:07:25Z</time>
      </trkpt>
      <trkpt lat="49.27212" lon="-0.02541">
        <ele>141.9</ele>
        <time>2023-09-03T06:07:26Z</time>
      </trkpt>
      <trkpt lat="49.27215" lon="-0.02532">
        <ele>142</ele>
        <time>2023-09-03T06:07:27Z</time>
      </trkpt>
      <trkpt lat="49.27218" lon="-0.02522">
        <ele>142</ele>
        <time>2023-09-03T06:07:28Z</time>
      </trkpt>
      <trkpt lat="49.27221" lon="-0.02513">
        <ele>142</ele>
        <time>2023-09-03T06:07:29Z</time>
      </trkpt>
      <trkpt lat="49.27224" lon="-0.02503">
        <ele>142.1</ele>
        <time>2023-09-03T06:07:30Z</time>
      </trkpt>
      <trkpt lat="49.27227" lon="-0.02492">
        <ele>142.2</ele>
        <time>2023-09-03T06:07:31Z</time>
      </trkpt>
      <trkpt lat="49.27231" lon="-0.02482">
        <ele>142.3</ele>
        <time>2023-09-03T06:07:32Z</time>
      </trkpt>
      <trkpt lat="49.27235" lon="-0.02471">
        <ele>142.4</ele>
        <time>2023-09-03T06:07:33Z</time>
      </trkpt>
      <trkpt lat="49.27238" lon="-0.0246">
        <ele>142.5</ele>
        <time>2023-09-03T06:07:34Z</time>
      </trkpt>
      <trkpt lat="49.27242" lon="-0.02449">
        <ele>142.6</ele>
        <time>2023-09-03T06:07:35Z</time>
      </trkpt>
      <trkpt lat="49.27246" lon="-0.02438">
        <ele>142.7</ele>
        <time>2023-09-03T06:07:36Z</time>
      </trkpt>
      <trkpt lat="49.2725" lon="-0.02427">
        <ele>142.8</ele>
        <time>2023-09-03T06:07:37Z</time>
      </trkpt>
      <trkpt lat="49.27255" lon="-0.02417">
        <ele>142.8</ele>
        <time>2023-09-03T06:07:38Z</time>
      </trkpt>
      <trkpt lat="49.2726" lon="-0.02407">
        <ele>142.9</ele>
        <time>2023-09-03T06:07:39Z</time>
      </trkpt>
      <trkpt lat="49.27265" lon="-0.02397">
        <ele>142.9</ele>
        <time>2023-09-03T06:07:40Z</time>
      </trkpt>
      <trkpt lat="49.27269" lon="-0.02387">
        <ele>143</ele>
        <time>2023-09-03T06:07:41Z</time>
      </trkpt>
      <trkpt lat="49.27273" lon="-0.02378">
        <ele>143</ele>
        <time>2023-09-03T06:07:42Z</time>
      </trkpt>
      <trkpt lat="49.27277" lon="-0.02368">
        <ele>143.1</ele>
        <time>2023-09-03T06:07:43Z</time>
      </trkpt>
      <trkpt lat="49.27281" lon="-0.0236">
        <ele>143.1</ele>
        <time>2023-09-03T06:07:44Z</time>
      </trkpt>
      <trkpt lat="49.27285" lon="-0.02351">
        <ele>143.1</ele>
        <time>2023-09-03T06:07:45Z</time>
      </trkpt>
      <trkpt lat="49.27289" lon="-0.02342">
        <ele>143.1</ele>
        <time>2023-09-03T06:07:46Z</time>
      </trkpt>
      <trkpt lat="49.27293" lon="-0.02334">
        <ele>143.1</ele>
        <time>2023-09-03T06:07:47Z</time>
      </trkpt>
      <trkpt lat="49.27297" lon="-0.02324">
        <ele>143.1</ele>
        <time>2023-09-03T06:07:48Z</time>
      </trkpt>
      <trkpt lat="49.27301" lon="-0.02315">
        <ele>143.1</ele>
        <time>2023-09-03T06:07:49Z</time>
      </trkpt>
      <trkpt lat="49.27305" lon="-0.02306">
        <ele>143.2</ele>
        <time>2023-09-03T06:07:50Z</time>
      </trkpt>
      <trkpt lat="49.27309" lon="-0.02296">
        <ele>143.2</ele>
        <time>2023-09-03T06:07:51Z</time>
      </trkpt>
      <trkpt lat="49.27313" lon="-0.02286">
        <ele>143.2</ele>
        <time>2023-09-03T06:07:52Z</time>
      </trkpt>
      <trkpt lat="49.27318" lon="-0.02277">
        <ele>143.2</ele>
        <time>2023-09-03T06:07:53Z</time>
      </trkpt>
      <trkpt lat="49.27322" lon="-0.02267">
        <ele>143.2</ele>
        <time>2023-09-03T06:07:54Z</time>
      </trkpt>
      <trkpt lat="49.27326" lon="-0.02256">
        <ele>143.2</ele>
        <time>2023-09-03T06:07:55Z</time>
      </trkpt>
      <trkpt lat="49.27329" lon="-0.02246">
        <ele>143.1</ele>
        <time>2023-09-03T06:07:56Z</time>
      </trkpt>
      <trkpt lat="49.27333" lon="-0.02236">
        <ele>143.1</ele>
        <time>2023-09-03T06:07:57Z</time>
      </trkpt>
      <trkpt lat="49.27336" lon="-0.02226">
        <ele>143.1</ele>
        <time>2023-09-03T06:07:58Z</time>
      </trkpt>
      <trkpt lat="49.2734" lon="-0.02216">
        <ele>143</ele>
        <time>2023-09-03T06:07:59Z</time>
      </trkpt>
      <trkpt lat="49.27343" lon="-0.02205">
        <ele>143</ele>
        <time>2023-09-03T06:08:00Z</time>
      </trkpt>
      <trkpt lat="49.27346" lon="-0.02195">
        <ele>142.9</ele>
        <time>2023-09-03T06:08:01Z</time>
      </trkpt>
      <trkpt lat="49.2735" lon="-0.02183">
        <ele>142.8</ele>
        <time>2023-09-03T06:08:02Z</time>
      </trkpt>
      <trkpt lat="49.27353" lon="-0.02172">
        <ele>142.8</ele>
        <time>2023-09-03T06:08:03Z</time>
      </trkpt>
      <trkpt lat="49.27356" lon="-0.0216">
        <ele>142.7</ele>
        <time>2023-09-03T06:08:04Z</time>
      </trkpt>
      <trkpt lat="49.27358" lon="-0.02149">
        <ele>142.7</ele>
        <time>2023-09-03T06:08:05Z</time>
      </trkpt>
      <trkpt lat="49.27361" lon="-0.02137">
        <ele>142.7</ele>
        <time>2023-09-03T06:08:06Z</time>
      </trkpt>
      <trkpt lat="49.27364" lon="-0.02126">
        <ele>142.6</ele>
        <time>2023-09-03T06:08:07Z</time>
      </trkpt>
      <trkpt lat="49.27367" lon="-0.02115">
        <ele>142.6</ele>
        <time>2023-09-03T06:08:08Z</time>
      </trkpt>
      <trkpt lat="49.2737" lon="-0.02104">
        <ele>142.5</ele>
        <time>2023-09-03T06:08:09Z</time>
      </trkpt>
      <trkpt lat="49.27373" lon="-0.02093">
        <ele>142.5</ele>
        <time>2023-09-03T06:08:10Z</time>
      </trkpt>
      <trkpt lat="49.27376" lon="-0.02082">
        <ele>142.4</ele>
        <time>2023-09-03T06:08:11Z</time>
      </trkpt>
      <trkpt lat="49.27379" lon="-0.0207">
        <ele>142.4</ele>
        <time>2023-09-03T06:08:12Z</time>
      </trkpt>
      <trkpt lat="49.27382" lon="-0.02059">
        <ele>142.3</ele>
        <time>2023-09-03T06:08:13Z</time>
      </trkpt>
      <trkpt lat="49.27385" lon="-0.02047">
        <ele>142.3</ele>
        <time>2023-09-03T06:08:14Z</time>
      </trkpt>
      <trkpt lat="49.27389" lon="-0.02035">
        <ele>142.2</ele>
        <time>2023-09-03T06:08:15Z</time>
      </trkpt>
      <trkpt lat="49.27391" lon="-0.02024">
        <ele>142.2</ele>
        <time>2023-09-03T06:08:16Z</time>
      </trkpt>
      <trkpt lat="49.27394" lon="-0.02013">
        <ele>142.2</ele>
        <time>2023-09-03T06:08:17Z</time>
      </trkpt>
      <trkpt lat="49.27397" lon="-0.02003">
        <ele>142.1</ele>
        <time>2023-09-03T06:08:18Z</time>
      </trkpt>
      <trkpt lat="49.274" lon="-0.01992">
        <ele>142.1</ele>
        <time>2023-09-03T06:08:19Z</time>
      </trkpt>
      <trkpt lat="49.27403" lon="-0.01981">
        <ele>142.2</ele>
        <time>2023-09-03T06:08:20Z</time>
      </trkpt>
      <trkpt lat="49.27405" lon="-0.0197">
        <ele>142.2</ele>
        <time>2023-09-03T06:08:21Z</time>
      </trkpt>
      <trkpt lat="49.27408" lon="-0.0196">
        <ele>142.2</ele>
        <time>2023-09-03T06:08:22Z</time>
      </trkpt>
      <trkpt lat="49.27411" lon="-0.01949">
        <ele>142.3</ele>
        <time>2023-09-03T06:08:23Z</time>
      </trkpt>
      <trkpt lat="49.27414" lon="-0.01938">
        <ele>142.3</ele>
        <time>2023-09-03T06:08:24Z</time>
      </trkpt>
      <trkpt lat="49.27417" lon="-0.01926">
        <ele>142.3</ele>
        <time>2023-09-03T06:08:25Z</time>
      </trkpt>
      <trkpt lat="49.2742" lon="-0.01914">
        <ele>142.4</ele>
        <time>2023-09-03T06:08:26Z</time>
      </trkpt>
      <trkpt lat="49.27423" lon="-0.01903">
        <ele>142.4</ele>
        <time>2023-09-03T06:08:27Z</time>
      </trkpt>
      <trkpt lat="49.27426" lon="-0.01891">
        <ele>142.4</ele>
        <time>2023-09-03T06:08:28Z</time>
      </trkpt>
      <trkpt lat="49.27429" lon="-0.01879">
        <ele>142.5</ele>
        <time>2023-09-03T06:08:29Z</time>
      </trkpt>
      <trkpt lat="49.27432" lon="-0.01867">
        <ele>142.5</ele>
        <time>2023-09-03T06:08:30Z</time>
      </trkpt>
      <trkpt lat="49.27435" lon="-0.01856">
        <ele>142.5</ele>
        <time>2023-09-03T06:08:31Z</time>
      </trkpt>
      <trkpt lat="49.27438" lon="-0.01844">
        <ele>142.6</ele>
        <time>2023-09-03T06:08:32Z</time>
      </trkpt>
      <trkpt lat="49.27441" lon="-0.01834">
        <ele>142.6</ele>
        <time>2023-09-03T06:08:33Z</time>
      </trkpt>
      <trkpt lat="49.27444" lon="-0.01823">
        <ele>142.6</ele>
        <time>2023-09-03T06:08:34Z</time>
      </trkpt>
      <trkpt lat="49.27446" lon="-0.01813">
        <ele>142.6</ele>
        <time>2023-09-03T06:08:35Z</time>
      </trkpt>
      <trkpt lat="49.27449" lon="-0.01803">
        <ele>142.7</ele>
        <time>2023-09-03T06:08:36Z</time>
      </trkpt>
      <trkpt lat="49.27451" lon="-0.01793">
        <ele>142.7</ele>
        <time>2023-09-03T06:08:37Z</time>
      </trkpt>
      <trkpt lat="49.27454" lon="-0.01782">
        <ele>142.7</ele>
        <time>2023-09-03T06:08:38Z</time>
      </trkpt>
      <trkpt lat="49.27457" lon="-0.01772">
        <ele>142.7</ele>
        <time>2023-09-03T06:08:39Z</time>
      </trkpt>
      <trkpt lat="49.2746" lon="-0.01761">
        <ele>142.8</ele>
        <time>2023-09-03T06:08:40Z</time>
      </trkpt>
      <trkpt lat="49.27463" lon="-0.01749">
        <ele>142.8</ele>
        <time>2023-09-03T06:08:41Z</time>
      </trkpt>
      <trkpt lat="49.27465" lon="-0.01738">
        <ele>142.8</ele>
        <time>2023-09-03T06:08:42Z</time>
      </trkpt>
      <trkpt lat="49.27468" lon="-0.01728">
        <ele>142.8</ele>
        <time>2023-09-03T06:08:43Z</time>
      </trkpt>
      <trkpt lat="49.27471" lon="-0.01718">
        <ele>142.8</ele>
        <time>2023-09-03T06:08:44Z</time>
      </trkpt>
      <trkpt lat="49.27474" lon="-0.01708">
        <ele>142.9</ele>
        <time>2023-09-03T06:08:45Z</time>
      </trkpt>
      <trkpt lat="49.27477" lon="-0.01697">
        <ele>142.9</ele>
        <time>2023-09-03T06:08:46Z</time>
      </trkpt>
      <trkpt lat="49.27479" lon="-0.01687">
        <ele>143</ele>
        <time>2023-09-03T06:08:47Z</time>
      </trkpt>
      <trkpt lat="49.27482" lon="-0.01676">
        <ele>143</ele>
        <time>2023-09-03T06:08:48Z</time>
      </trkpt>
      <trkpt lat="49.27485" lon="-0.01666">
        <ele>143</ele>
        <time>2023-09-03T06:08:49Z</time>
      </trkpt>
      <trkpt lat="49.27488" lon="-0.01655">
        <ele>143.1</ele>
        <time>2023-09-03T06:08:50Z</time>
      </trkpt>
      <trkpt lat="49.27491" lon="-0.01643">
        <ele>143.1</ele>
        <time>2023-09-03T06:08:51Z</time>
      </trkpt>
      <trkpt lat="49.27494" lon="-0.01632">
        <ele>143.2</ele>
        <time>2023-09-03T06:08:52Z</time>
      </trkpt>
      <trkpt lat="49.27497" lon="-0.0162">
        <ele>143.2</ele>
        <time>2023-09-03T06:08:53Z</time>
      </trkpt>
      <trkpt lat="49.275" lon="-0.01609">
        <ele>143.2</ele>
        <time>2023-09-03T06:08:54Z</time>
      </trkpt>
      <trkpt lat="49.27503" lon="-0.01598">
        <ele>143.3</ele>
        <time>2023-09-03T06:08:55Z</time>
      </trkpt>
      <trkpt lat="49.27506" lon="-0.01587">
        <ele>143.3</ele>
        <time>2023-09-03T06:08:56Z</time>
      </trkpt>
      <trkpt lat="49.27509" lon="-0.01576">
        <ele>143.4</ele>
        <time>2023-09-03T06:08:57Z</time>
      </trkpt>
      <trkpt lat="49.27512" lon="-0.01565">
        <ele>143.4</ele>
        <time>2023-09-03T06:08:58Z</time>
      </trkpt>
      <trkpt lat="49.27515" lon="-0.01554">
        <ele>143.4</ele>
        <time>2023-09-03T06:08:59Z</time>
      </trkpt>
      <trkpt lat="49.27518" lon="-0.01543">
        <ele>143.5</ele>
        <time>2023-09-03T06:09:00Z</time>
      </trkpt>
      <trkpt lat="49.27521" lon="-0.01533">
        <ele>143.5</ele>
        <time>2023-09-03T06:09:01Z</time>
      </trkpt>
      <trkpt lat="49.27525" lon="-0.01522">
        <ele>143.5</ele>
        <time>2023-09-03T06:09:02Z</time>
      </trkpt>
      <trkpt lat="49.27528" lon="-0.01511">
        <ele>143.6</ele>
        <time>2023-09-03T06:09:03Z</time>
      </trkpt>
      <trkpt lat="49.27532" lon="-0.01501">
        <ele>143.6</ele>
        <time>2023-09-03T06:09:04Z</time>
      </trkpt>
      <trkpt lat="49.27535" lon="-0.0149">
        <ele>143.7</ele>
        <time>2023-09-03T06:09:05Z</time>
      </trkpt>
      <trkpt lat="49.27539" lon="-0.0148">
        <ele>143.7</ele>
        <time>2023-09-03T06:09:06Z</time>
      </trkpt>
      <trkpt lat="49.27542" lon="-0.0147">
        <ele>143.7</ele>
        <time>2023-09-03T06:09:07Z</time>
      </trkpt>
      <trkpt lat="49.27546" lon="-0.01459">
        <ele>143.7</ele>
        <time>2023-09-03T06:09:08Z</time>
      </trkpt>
      <trkpt lat="49.27551" lon="-0.01449">
        <ele>143.7</ele>
        <time>2023-09-03T06:09:09Z</time>
      </trkpt>
      <trkpt lat="49.27555" lon="-0.01439">
        <ele>143.7</ele>
        <time>2023-09-03T06:09:10Z</time>
      </trkpt>
      <trkpt lat="49.2756" lon="-0.01428">
        <ele>143.6</ele>
        <time>2023-09-03T06:09:11Z</time>
      </trkpt>
      <trkpt lat="49.27564" lon="-0.01417">
        <ele>143.6</ele>
        <time>2023-09-03T06:09:12Z</time>
      </trkpt>
      <trkpt lat="49.27569" lon="-0.01407">
        <ele>143.5</ele>
        <time>2023-09-03T06:09:13Z</time>
      </trkpt>
      <trkpt lat="49.27574" lon="-0.01396">
        <ele>143.4</ele>
        <time>2023-09-03T06:09:14Z</time>
      </trkpt>
      <trkpt lat="49.27579" lon="-0.01386">
        <ele>143.4</ele>
        <time>2023-09-03T06:09:15Z</time>
      </trkpt>
      <trkpt lat="49.27584" lon="-0.01377">
        <ele>143.3</ele>
        <time>2023-09-03T06:09:16Z</time>
      </trkpt>
      <trkpt lat="49.27589" lon="-0.01367">
        <ele>143.3</ele>
        <time>2023-09-03T06:09:17Z</time>
      </trkpt>
      <trkpt lat="49.27593" lon="-0.01357">
        <ele>143.2</ele>
        <time>2023-09-03T06:09:18Z</time>
      </trkpt>
      <trkpt lat="49.27599" lon="-0.01347">
        <ele>143.1</ele>
        <time>2023-09-03T06:09:19Z</time>
      </trkpt>
      <trkpt lat="49.27604" lon="-0.01338">
        <ele>143</ele>
        <time>2023-09-03T06:09:20Z</time>
      </trkpt>
      <trkpt lat="49.2761" lon="-0.01329">
        <ele>143</ele>
        <time>2023-09-03T06:09:21Z</time>
      </trkpt>
      <trkpt lat="49.27615" lon="-0.0132">
        <ele>142.9</ele>
        <time>2023-09-03T06:09:22Z</time>
      </trkpt>
      <trkpt lat="49.27621" lon="-0.01312">
        <ele>142.8</ele>
        <time>2023-09-03T06:09:23Z</time>
      </trkpt>
      <trkpt lat="49.27627" lon="-0.01304">
        <ele>142.7</ele>
        <time>2023-09-03T06:09:24Z</time>
      </trkpt>
      <trkpt lat="49.27632" lon="-0.01295">
        <ele>142.6</ele>
        <time>2023-09-03T06:09:25Z</time>
      </trkpt>
      <trkpt lat="49.27638" lon="-0.01286">
        <ele>142.5</ele>
        <time>2023-09-03T06:09:26Z</time>
      </trkpt>
      <trkpt lat="49.27644" lon="-0.01278">
        <ele>142.4</ele>
        <time>2023-09-03T06:09:27Z</time>
      </trkpt>
      <trkpt lat="49.2765" lon="-0.0127">
        <ele>142.3</ele>
        <time>2023-09-03T06:09:28Z</time>
      </trkpt>
      <trkpt lat="49.27657" lon="-0.01261">
        <ele>142.2</ele>
        <time>2023-09-03T06:09:29Z</time>
      </trkpt>
      <trkpt lat="49.27663" lon="-0.01252">
        <ele>142.1</ele>
        <time>2023-09-03T06:09:30Z</time>
      </trkpt>
      <trkpt lat="49.27669" lon="-0.01243">
        <ele>142</ele>
        <time>2023-09-03T06:09:31Z</time>
      </trkpt>
      <trkpt lat="49.27675" lon="-0.01234">
        <ele>141.8</ele>
        <time>2023-09-03T06:09:32Z</time>
      </trkpt>
      <trkpt lat="49.27681" lon="-0.01226">
        <ele>141.8</ele>
        <time>2023-09-03T06:09:33Z</time>
      </trkpt>
      <trkpt lat="49.27687" lon="-0.01217">
        <ele>141.7</ele>
        <time>2023-09-03T06:09:34Z</time>
      </trkpt>
      <trkpt lat="49.27693" lon="-0.01209">
        <ele>141.6</ele>
        <time>2023-09-03T06:09:35Z</time>
      </trkpt>
      <trkpt lat="49.277" lon="-0.01201">
        <ele>141.6</ele>
        <time>2023-09-03T06:09:36Z</time>
      </trkpt>
      <trkpt lat="49.27706" lon="-0.01192">
        <ele>141.5</ele>
        <time>2023-09-03T06:09:37Z</time>
      </trkpt>
      <trkpt lat="49.27712" lon="-0.01184">
        <ele>141.4</ele>
        <time>2023-09-03T06:09:38Z</time>
      </trkpt>
      <trkpt lat="49.27718" lon="-0.01175">
        <ele>141.3</ele>
        <time>2023-09-03T06:09:39Z</time>
      </trkpt>
      <trkpt lat="49.27724" lon="-0.01166">
        <ele>141.2</ele>
        <time>2023-09-03T06:09:40Z</time>
      </trkpt>
      <trkpt lat="49.2773" lon="-0.01157">
        <ele>141.2</ele>
        <time>2023-09-03T06:09:41Z</time>
      </trkpt>
      <trkpt lat="49.27737" lon="-0.01149">
        <ele>141.1</ele>
        <time>2023-09-03T06:09:42Z</time>
      </trkpt>
      <trkpt lat="49.27742" lon="-0.01139">
        <ele>141</ele>
        <time>2023-09-03T06:09:43Z</time>
      </trkpt>
      <trkpt lat="49.27748" lon="-0.0113">
        <ele>140.9</ele>
        <time>2023-09-03T06:09:44Z</time>
      </trkpt>
      <trkpt lat="49.27754" lon="-0.0112">
        <ele>140.8</ele>
        <time>2023-09-03T06:09:45Z</time>
      </trkpt>
      <trkpt lat="49.27759" lon="-0.01109">
        <ele>140.7</ele>
        <time>2023-09-03T06:09:46Z</time>
      </trkpt>
      <trkpt lat="49.27764" lon="-0.01099">
        <ele>140.7</ele>
        <time>2023-09-03T06:09:47Z</time>
      </trkpt>
      <trkpt lat="49.27769" lon="-0.01088">
        <ele>140.6</ele>
        <time>2023-09-03T06:09:48Z</time>
      </trkpt>
      <trkpt lat="49.27775" lon="-0.01078">
        <ele>140.5</ele>
        <time>2023-09-03T06:09:49Z</time>
      </trkpt>
      <trkpt lat="49.2778" lon="-0.01067">
        <ele>140.4</ele>
        <time>2023-09-03T06:09:50Z</time>
      </trkpt>
      <trkpt lat="49.27785" lon="-0.01056">
        <ele>140.3</ele>
        <time>2023-09-03T06:09:51Z</time>
      </trkpt>
      <trkpt lat="49.27789" lon="-0.01045">
        <ele>140.2</ele>
        <time>2023-09-03T06:09:52Z</time>
      </trkpt>
      <trkpt lat="49.27794" lon="-0.01033">
        <ele>140.1</ele>
        <time>2023-09-03T06:09:53Z</time>
      </trkpt>
      <trkpt lat="49.27798" lon="-0.01022">
        <ele>140</ele>
        <time>2023-09-03T06:09:54Z</time>
      </trkpt>
      <trkpt lat="49.27803" lon="-0.01011">
        <ele>139.9</ele>
        <time>2023-09-03T06:09:55Z</time>
      </trkpt>
      <trkpt lat="49.27807" lon="-0.01">
        <ele>139.8</ele>
        <time>2023-09-03T06:09:56Z</time>
      </trkpt>
      <trkpt lat="49.27811" lon="-0.00988">
        <ele>139.7</ele>
        <time>2023-09-03T06:09:57Z</time>
      </trkpt>
      <trkpt lat="49.27815" lon="-0.00977">
        <ele>139.6</ele>
        <time>2023-09-03T06:09:58Z</time>
      </trkpt>
      <trkpt lat="49.27819" lon="-0.00966">
        <ele>139.5</ele>
        <time>2023-09-03T06:09:59Z</time>
      </trkpt>
      <trkpt lat="49.27823" lon="-0.00954">
        <ele>139.4</ele>
        <time>2023-09-03T06:10:00Z</time>
      </trkpt>
      <trkpt lat="49.27826" lon="-0.00942">
        <ele>139.4</ele>
        <time>2023-09-03T06:10:01Z</time>
      </trkpt>
      <trkpt lat="49.27829" lon="-0.0093">
        <ele>139.3</ele>
        <time>2023-09-03T06:10:02Z</time>
      </trkpt>
      <trkpt lat="49.27833" lon="-0.00918">
        <ele>139.2</ele>
        <time>2023-09-03T06:10:03Z</time>
      </trkpt>
      <trkpt lat="49.27836" lon="-0.00906">
        <ele>139.1</ele>
        <time>2023-09-03T06:10:04Z</time>
      </trkpt>
      <trkpt lat="49.27838" lon="-0.00894">
        <ele>139.1</ele>
        <time>2023-09-03T06:10:05Z</time>
      </trkpt>
      <trkpt lat="49.27841" lon="-0.00882">
        <ele>139</ele>
        <time>2023-09-03T06:10:06Z</time>
      </trkpt>
      <trkpt lat="49.27843" lon="-0.00871">
        <ele>138.9</ele>
        <time>2023-09-03T06:10:07Z</time>
      </trkpt>
      <trkpt lat="49.27846" lon="-0.00859">
        <ele>138.9</ele>
        <time>2023-09-03T06:10:08Z</time>
      </trkpt>
      <trkpt lat="49.27848" lon="-0.00847">
        <ele>138.8</ele>
        <time>2023-09-03T06:10:09Z</time>
      </trkpt>
      <trkpt lat="49.2785" lon="-0.00835">
        <ele>138.8</ele>
        <time>2023-09-03T06:10:10Z</time>
      </trkpt>
      <trkpt lat="49.27851" lon="-0.00823">
        <ele>138.7</ele>
        <time>2023-09-03T06:10:11Z</time>
      </trkpt>
      <trkpt lat="49.27853" lon="-0.0081">
        <ele>138.6</ele>
        <time>2023-09-03T06:10:12Z</time>
      </trkpt>
      <trkpt lat="49.27855" lon="-0.00798">
        <ele>138.6</ele>
        <time>2023-09-03T06:10:13Z</time>
      </trkpt>
      <trkpt lat="49.27857" lon="-0.00785">
        <ele>138.5</ele>
        <time>2023-09-03T06:10:14Z</time>
      </trkpt>
      <trkpt lat="49.27858" lon="-0.00772">
        <ele>138.4</ele>
        <time>2023-09-03T06:10:15Z</time>
      </trkpt>
      <trkpt lat="49.27859" lon="-0.00759">
        <ele>138.4</ele>
        <time>2023-09-03T06:10:16Z</time>
      </trkpt>
      <trkpt lat="49.27861" lon="-0.00745">
        <ele>138.3</ele>
        <time>2023-09-03T06:10:17Z</time>
      </trkpt>
      <trkpt lat="49.27862" lon="-0.00733">
        <ele>138.3</ele>
        <time>2023-09-03T06:10:18Z</time>
      </trkpt>
      <trkpt lat="49.27864" lon="-0.0072">
        <ele>138.2</ele>
        <time>2023-09-03T06:10:19Z</time>
      </trkpt>
      <trkpt lat="49.27865" lon="-0.00708">
        <ele>138.2</ele>
        <time>2023-09-03T06:10:20Z</time>
      </trkpt>
      <trkpt lat="49.27867" lon="-0.00696">
        <ele>138.1</ele>
        <time>2023-09-03T06:10:21Z</time>
      </trkpt>
      <trkpt lat="49.27868" lon="-0.00684">
        <ele>138.1</ele>
        <time>2023-09-03T06:10:22Z</time>
      </trkpt>
      <trkpt lat="49.2787" lon="-0.00672">
        <ele>138</ele>
        <time>2023-09-03T06:10:23Z</time>
      </trkpt>
      <trkpt lat="49.27871" lon="-0.0066">
        <ele>138</ele>
        <time>2023-09-03T06:10:24Z</time>
      </trkpt>
      <trkpt lat="49.27872" lon="-0.00647">
        <ele>138</ele>
        <time>2023-09-03T06:10:25Z</time>
      </trkpt>
      <trkpt lat="49.27872" lon="-0.00635">
        <ele>138</ele>
        <time>2023-09-03T06:10:26Z</time>
      </trkpt>
      <trkpt lat="49.27873" lon="-0.00623">
        <ele>138</ele>
        <time>2023-09-03T06:10:27Z</time>
      </trkpt>
      <trkpt lat="49.27873" lon="-0.0061">
        <ele>138</ele>
        <time>2023-09-03T06:10:28Z</time>
      </trkpt>
      <trkpt lat="49.27874" lon="-0.00598">
        <ele>138</ele>
        <time>2023-09-03T06:10:29Z</time>
      </trkpt>
      <trkpt lat="49.27875" lon="-0.00585">
        <ele>137.9</ele>
        <time>2023-09-03T06:10:30Z</time>
      </trkpt>
      <trkpt lat="49.27875" lon="-0.00573">
        <ele>137.9</ele>
        <time>2023-09-03T06:10:31Z</time>
      </trkpt>
      <trkpt lat="49.27876" lon="-0.00562">
        <ele>138</ele>
        <time>2023-09-03T06:10:32Z</time>
      </trkpt>
      <trkpt lat="49.27876" lon="-0.0055">
        <ele>138</ele>
        <time>2023-09-03T06:10:33Z</time>
      </trkpt>
      <trkpt lat="49.27876" lon="-0.00538">
        <ele>138</ele>
        <time>2023-09-03T06:10:34Z</time>
      </trkpt>
      <trkpt lat="49.27876" lon="-0.00526">
        <ele>138.1</ele>
        <time>2023-09-03T06:10:35Z</time>
      </trkpt>
      <trkpt lat="49.27876" lon="-0.00514">
        <ele>138.2</ele>
        <time>2023-09-03T06:10:36Z</time>
      </trkpt>
      <trkpt lat="49.27876" lon="-0.00502">
        <ele>138.3</ele>
        <time>2023-09-03T06:10:37Z</time>
      </trkpt>
      <trkpt lat="49.27877" lon="-0.00491">
        <ele>138.4</ele>
        <time>2023-09-03T06:10:38Z</time>
      </trkpt>
      <trkpt lat="49.27878" lon="-0.00479">
        <ele>138.5</ele>
        <time>2023-09-03T06:10:39Z</time>
      </trkpt>
      <trkpt lat="49.27879" lon="-0.00468">
        <ele>138.6</ele>
        <time>2023-09-03T06:10:40Z</time>
      </trkpt>
      <trkpt lat="49.27881" lon="-0.00457">
        <ele>138.8</ele>
        <time>2023-09-03T06:10:41Z</time>
      </trkpt>
      <trkpt lat="49.27882" lon="-0.00445">
        <ele>139</ele>
        <time>2023-09-03T06:10:42Z</time>
      </trkpt>
      <trkpt lat="49.27884" lon="-0.00434">
        <ele>139.3</ele>
        <time>2023-09-03T06:10:43Z</time>
      </trkpt>
      <trkpt lat="49.27886" lon="-0.00424">
        <ele>139.5</ele>
        <time>2023-09-03T06:10:44Z</time>
      </trkpt>
      <trkpt lat="49.27888" lon="-0.00414">
        <ele>139.8</ele>
        <time>2023-09-03T06:10:45Z</time>
      </trkpt>
      <trkpt lat="49.2789" lon="-0.00404">
        <ele>140.1</ele>
        <time>2023-09-03T06:10:46Z</time>
      </trkpt>
      <trkpt lat="49.27892" lon="-0.00395">
        <ele>140.4</ele>
        <time>2023-09-03T06:10:47Z</time>
      </trkpt>
      <trkpt lat="49.27895" lon="-0.00386">
        <ele>140.7</ele>
        <time>2023-09-03T06:10:48Z</time>
      </trkpt>
      <trkpt lat="49.27897" lon="-0.00377">
        <ele>141</ele>
        <time>2023-09-03T06:10:49Z</time>
      </trkpt>
      <trkpt lat="49.279" lon="-0.00368">
        <ele>141.2</ele>
        <time>2023-09-03T06:10:50Z</time>
      </trkpt>
      <trkpt lat="49.27903" lon="-0.00361">
        <ele>141.5</ele>
        <time>2023-09-03T06:10:51Z</time>
      </trkpt>
      <trkpt lat="49.27906" lon="-0.00353">
        <ele>141.7</ele>
        <time>2023-09-03T06:10:52Z</time>
      </trkpt>
      <trkpt lat="49.27909" lon="-0.00346">
        <ele>141.8</ele>
        <time>2023-09-03T06:10:53Z</time>
      </trkpt>
      <trkpt lat="49.27913" lon="-0.00338">
        <ele>142</ele>
        <time>2023-09-03T06:10:54Z</time>
      </trkpt>
      <trkpt lat="49.27916" lon="-0.00331">
        <ele>142.3</ele>
        <time>2023-09-03T06:10:55Z</time>
      </trkpt>
      <trkpt lat="49.2792" lon="-0.00324">
        <ele>142.5</ele>
        <time>2023-09-03T06:10:56Z</time>
      </trkpt>
      <trkpt lat="49.27923" lon="-0.00317">
        <ele>142.8</ele>
        <time>2023-09-03T06:10:57Z</time>
      </trkpt>
      <trkpt lat="49.27927" lon="-0.0031">
        <ele>143</ele>
        <time>2023-09-03T06:10:58Z</time>
      </trkpt>
      <trkpt lat="49.27931" lon="-0.00303">
        <ele>143.3</ele>
        <time>2023-09-03T06:10:59Z</time>
      </trkpt>
      <trkpt lat="49.27935" lon="-0.00297">
        <ele>143.5</ele>
        <time>2023-09-03T06:11:00Z</time>
      </trkpt>
      <trkpt lat="49.2794" lon="-0.00291">
        <ele>143.8</ele>
        <time>2023-09-03T06:11:01Z</time>
      </trkpt>
      <trkpt lat="49.27944" lon="-0.00284">
        <ele>144</ele>
        <time>2023-09-03T06:11:02Z</time>
      </trkpt>
      <trkpt lat="49.27949" lon="-0.00277">
        <ele>144.3</ele>
        <time>2023-09-03T06:11:03Z</time>
      </trkpt>
      <trkpt lat="49.27953" lon="-0.00271">
        <ele>144.6</ele>
        <time>2023-09-03T06:11:04Z</time>
      </trkpt>
      <trkpt lat="49.27958" lon="-0.00265">
        <ele>144.8</ele>
        <time>2023-09-03T06:11:05Z</time>
      </trkpt>
      <trkpt lat="49.27963" lon="-0.00259">
        <ele>145</ele>
        <time>2023-09-03T06:11:06Z</time>
      </trkpt>
      <trkpt lat="49.27968" lon="-0.00252">
        <ele>145.2</ele>
        <time>2023-09-03T06:11:07Z</time>
      </trkpt>
      <trkpt lat="49.27973" lon="-0.00246">
        <ele>145.4</ele>
        <time>2023-09-03T06:11:08Z</time>
      </trkpt>
      <trkpt lat="49.27977" lon="-0.00239">
        <ele>145.5</ele>
        <time>2023-09-03T06:11:09Z</time>
      </trkpt>
      <trkpt lat="49.27982" lon="-0.00232">
        <ele>145.7</ele>
        <time>2023-09-03T06:11:10Z</time>
      </trkpt>
      <trkpt lat="49.27987" lon="-0.00225">
        <ele>145.9</ele>
        <time>2023-09-03T06:11:11Z</time>
      </trkpt>
      <trkpt lat="49.27992" lon="-0.00218">
        <ele>146.1</ele>
        <time>2023-09-03T06:11:12Z</time>
      </trkpt>
      <trkpt lat="49.27997" lon="-0.00212">
        <ele>146.2</ele>
        <time>2023-09-03T06:11:13Z</time>
      </trkpt>
      <trkpt lat="49.28002" lon="-0.00205">
        <ele>146.3</ele>
        <time>2023-09-03T06:11:14Z</time>
      </trkpt>
      <trkpt lat="49.28007" lon="-0.00199">
        <ele>146.5</ele>
        <time>2023-09-03T06:11:15Z</time>
      </trkpt>
      <trkpt lat="49.28011" lon="-0.00192">
        <ele>146.6</ele>
        <time>2023-09-03T06:11:16Z</time>
      </trkpt>
      <trkpt lat="49.28016" lon="-0.00186">
        <ele>146.7</ele>
        <time>2023-09-03T06:11:17Z</time>
      </trkpt>
      <trkpt lat="49.2802" lon="-0.00179">
        <ele>146.8</ele>
        <time>2023-09-03T06:11:18Z</time>
      </trkpt>
      <trkpt lat="49.28024" lon="-0.00173">
        <ele>146.9</ele>
        <time>2023-09-03T06:11:19Z</time>
      </trkpt>
      <trkpt lat="49.28029" lon="-0.00166">
        <ele>147</ele>
        <time>2023-09-03T06:11:20Z</time>
      </trkpt>
      <trkpt lat="49.28033" lon="-0.00159">
        <ele>147</ele>
        <time>2023-09-03T06:11:21Z</time>
      </trkpt>
      <trkpt lat="49.28038" lon="-0.00152">
        <ele>147.1</ele>
        <time>2023-09-03T06:11:22Z</time>
      </trkpt>
      <trkpt lat="49.28043" lon="-0.00144">
        <ele>147.1</ele>
        <time>2023-09-03T06:11:23Z</time>
      </trkpt>
      <trkpt lat="49.28048" lon="-0.00137">
        <ele>147.1</ele>
        <time>2023-09-03T06:11:24Z</time>
      </trkpt>
      <trkpt lat="49.28052" lon="-0.00129">
        <ele>147.1</ele>
        <time>2023-09-03T06:11:25Z</time>
      </trkpt>
      <trkpt lat="49.28057" lon="-0.00122">
        <ele>147.1</ele>
        <time>2023-09-03T06:11:26Z</time>
      </trkpt>
      <trkpt lat="49.28062" lon="-0.00115">
        <ele>147.1</ele>
        <time>2023-09-03T06:11:27Z</time>
      </trkpt>
      <trkpt lat="49.28067" lon="-0.00106">
        <ele>147.1</ele>
        <time>2023-09-03T06:11:28Z</time>
      </trkpt>
      <trkpt lat="49.28072" lon="-0.00098">
        <ele>147.1</ele>
        <time>2023-09-03T06:11:29Z</time>
      </trkpt>
      <trkpt lat="49.28077" lon="-0.0009">
        <ele>147</ele>
        <time>2023-09-03T06:11:30Z</time>
      </trkpt>
      <trkpt lat="49.28082" lon="-0.00083">
        <ele>147</ele>
        <time>2023-09-03T06:11:31Z</time>
      </trkpt>
      <trkpt lat="49.28087" lon="-0.00075">
        <ele>147</ele>
        <time>2023-09-03T06:11:32Z</time>
      </trkpt>
      <trkpt lat="49.28092" lon="-0.00067">
        <ele>147</ele>
        <time>2023-09-03T06:11:33Z</time>
      </trkpt>
      <trkpt lat="49.28097" lon="-0.0006">
        <ele>147</ele>
        <time>2023-09-03T06:11:34Z</time>
      </trkpt>
      <trkpt lat="49.28102" lon="-0.00052">
        <ele>147</ele>
        <time>2023-09-03T06:11:35Z</time>
      </trkpt>
      <trkpt lat="49.28107" lon="-0.00044">
        <ele>146.9</ele>
        <time>2023-09-03T06:11:36Z</time>
      </trkpt>
      <trkpt lat="49.28112" lon="-0.00037">
        <ele>146.9</ele>
        <time>2023-09-03T06:11:37Z</time>
      </trkpt>
      <trkpt lat="49.28116" lon="-0.00029">
        <ele>146.9</ele>
        <time>2023-09-03T06:11:38Z</time>
      </trkpt>
      <trkpt lat="49.28121" lon="-0.00021">
        <ele>146.8</ele>
        <time>2023-09-03T06:11:39Z</time>
      </trkpt>
      <trkpt lat="49.28125" lon="-0.00013">
        <ele>146.8</ele>
        <time>2023-09-03T06:11:40Z</time>
      </trkpt>
      <trkpt lat="49.28129" lon="-5.0E-5">
        <ele>146.7</ele>
        <time>2023-09-03T06:11:41Z</time>
      </trkpt>
      <trkpt lat="49.28132" lon="3.0E-5">
        <ele>146.7</ele>
        <time>2023-09-03T06:11:42Z</time>
      </trkpt>
      <trkpt lat="49.28134" lon="0.00012">
        <ele>146.7</ele>
        <time>2023-09-03T06:11:43Z</time>
      </trkpt>
      <trkpt lat="49.28136" lon="0.00021">
        <ele>146.7</ele>
        <time>2023-09-03T06:11:44Z</time>
      </trkpt>
      <trkpt lat="49.28139" lon="0.0003">
        <ele>146.6</ele>
        <time>2023-09-03T06:11:45Z</time>
      </trkpt>
      <trkpt lat="49.28143" lon="0.00038">
        <ele>146.6</ele>
        <time>2023-09-03T06:11:46Z</time>
      </trkpt>
      <trkpt lat="49.28149" lon="0.00043">
        <ele>146.5</ele>
        <time>2023-09-03T06:11:47Z</time>
      </trkpt>
      <trkpt lat="49.28155" lon="0.00048">
        <ele>146.5</ele>
        <time>2023-09-03T06:11:48Z</time>
      </trkpt>
      <trkpt lat="49.28162" lon="0.0005">
        <ele>146.2</ele>
        <time>2023-09-03T06:11:49Z</time>
      </trkpt>
      <trkpt lat="49.28169" lon="0.00054">
        <ele>146</ele>
        <time>2023-09-03T06:11:50Z</time>
      </trkpt>
      <trkpt lat="49.28175" lon="0.00061">
        <ele>145.7</ele>
        <time>2023-09-03T06:11:51Z</time>
      </trkpt>
      <trkpt lat="49.2818" lon="0.0007">
        <ele>145.4</ele>
        <time>2023-09-03T06:11:52Z</time>
      </trkpt>
      <trkpt lat="49.28186" lon="0.00078">
        <ele>145.2</ele>
        <time>2023-09-03T06:11:53Z</time>
      </trkpt>
      <trkpt lat="49.28192" lon="0.00087">
        <ele>144.9</ele>
        <time>2023-09-03T06:11:54Z</time>
      </trkpt>
      <trkpt lat="49.28198" lon="0.00096">
        <ele>144.6</ele>
        <time>2023-09-03T06:11:55Z</time>
      </trkpt>
      <trkpt lat="49.28204" lon="0.00104">
        <ele>144.4</ele>
        <time>2023-09-03T06:11:56Z</time>
      </trkpt>
      <trkpt lat="49.28209" lon="0.00112">
        <ele>144.2</ele>
        <time>2023-09-03T06:11:57Z</time>
      </trkpt>
      <trkpt lat="49.28214" lon="0.00119">
        <ele>144</ele>
        <time>2023-09-03T06:11:58Z</time>
      </trkpt>
      <trkpt lat="49.28219" lon="0.00126">
        <ele>143.8</ele>
        <time>2023-09-03T06:11:59Z</time>
      </trkpt>
      <trkpt lat="49.28223" lon="0.00132">
        <ele>143.6</ele>
        <time>2023-09-03T06:12:00Z</time>
      </trkpt>
      <trkpt lat="49.28226" lon="0.00137">
        <ele>143.5</ele>
        <time>2023-09-03T06:12:01Z</time>
      </trkpt>
      <trkpt lat="49.2823" lon="0.00142">
        <ele>143.4</ele>
        <time>2023-09-03T06:12:02Z</time>
      </trkpt>
      <trkpt lat="49.28233" lon="0.00147">
        <ele>143.2</ele>
        <time>2023-09-03T06:12:03Z</time>
      </trkpt>
      <trkpt lat="49.28237" lon="0.00151">
        <ele>143.1</ele>
        <time>2023-09-03T06:12:04Z</time>
      </trkpt>
      <trkpt lat="49.28241" lon="0.00157">
        <ele>143</ele>
        <time>2023-09-03T06:12:05Z</time>
      </trkpt>
      <trkpt lat="49.28245" lon="0.00161">
        <ele>142.8</ele>
        <time>2023-09-03T06:12:06Z</time>
      </trkpt>
      <trkpt lat="49.28249" lon="0.00167">
        <ele>142.7</ele>
        <time>2023-09-03T06:12:07Z</time>
      </trkpt>
      <trkpt lat="49.28254" lon="0.00172">
        <ele>142.5</ele>
        <time>2023-09-03T06:12:08Z</time>
      </trkpt>
      <trkpt lat="49.28258" lon="0.00178">
        <ele>142.4</ele>
        <time>2023-09-03T06:12:09Z</time>
      </trkpt>
      <trkpt lat="49.28262" lon="0.00185">
        <ele>142.2</ele>
        <time>2023-09-03T06:12:10Z</time>
      </trkpt>
      <trkpt lat="49.28267" lon="0.00191">
        <ele>142.1</ele>
        <time>2023-09-03T06:12:11Z</time>
      </trkpt>
      <trkpt lat="49.28272" lon="0.00198">
        <ele>141.9</ele>
        <time>2023-09-03T06:12:12Z</time>
      </trkpt>
      <trkpt lat="49.28277" lon="0.00204">
        <ele>141.8</ele>
        <time>2023-09-03T06:12:13Z</time>
      </trkpt>
      <trkpt lat="49.28282" lon="0.00211">
        <ele>141.6</ele>
        <time>2023-09-03T06:12:14Z</time>
      </trkpt>
      <trkpt lat="49.28287" lon="0.00218">
        <ele>141.5</ele>
        <time>2023-09-03T06:12:15Z</time>
      </trkpt>
      <trkpt lat="49.28292" lon="0.00225">
        <ele>141.3</ele>
        <time>2023-09-03T06:12:16Z</time>
      </trkpt>
      <trkpt lat="49.28297" lon="0.00233">
        <ele>141.2</ele>
        <time>2023-09-03T06:12:17Z</time>
      </trkpt>
      <trkpt lat="49.28302" lon="0.0024">
        <ele>141</ele>
        <time>2023-09-03T06:12:18Z</time>
      </trkpt>
      <trkpt lat="49.28307" lon="0.00248">
        <ele>140.9</ele>
        <time>2023-09-03T06:12:19Z</time>
      </trkpt>
      <trkpt lat="49.28313" lon="0.00255">
        <ele>140.7</ele>
        <time>2023-09-03T06:12:20Z</time>
      </trkpt>
      <trkpt lat="49.28318" lon="0.00263">
        <ele>140.5</ele>
        <time>2023-09-03T06:12:21Z</time>
      </trkpt>
      <trkpt lat="49.28323" lon="0.0027">
        <ele>140.4</ele>
        <time>2023-09-03T06:12:22Z</time>
      </trkpt>
      <trkpt lat="49.28328" lon="0.00278">
        <ele>140.2</ele>
        <time>2023-09-03T06:12:23Z</time>
      </trkpt>
      <trkpt lat="49.28333" lon="0.00286">
        <ele>140</ele>
        <time>2023-09-03T06:12:24Z</time>
      </trkpt>
      <trkpt lat="49.28338" lon="0.00294">
        <ele>139.9</ele>
        <time>2023-09-03T06:12:25Z</time>
      </trkpt>
      <trkpt lat="49.28343" lon="0.00302">
        <ele>139.7</ele>
        <time>2023-09-03T06:12:26Z</time>
      </trkpt>
      <trkpt lat="49.28349" lon="0.0031">
        <ele>139.5</ele>
        <time>2023-09-03T06:12:27Z</time>
      </trkpt>
      <trkpt lat="49.28354" lon="0.00317">
        <ele>139.3</ele>
        <time>2023-09-03T06:12:28Z</time>
      </trkpt>
      <trkpt lat="49.2836" lon="0.00325">
        <ele>139.1</ele>
        <time>2023-09-03T06:12:29Z</time>
      </trkpt>
      <trkpt lat="49.28365" lon="0.00333">
        <ele>139</ele>
        <time>2023-09-03T06:12:30Z</time>
      </trkpt>
      <trkpt lat="49.28371" lon="0.00341">
        <ele>138.8</ele>
        <time>2023-09-03T06:12:31Z</time>
      </trkpt>
      <trkpt lat="49.28376" lon="0.00349">
        <ele>138.6</ele>
        <time>2023-09-03T06:12:32Z</time>
      </trkpt>
      <trkpt lat="49.28381" lon="0.00358">
        <ele>138.5</ele>
        <time>2023-09-03T06:12:33Z</time>
      </trkpt>
      <trkpt lat="49.28387" lon="0.00366">
        <ele>138.4</ele>
        <time>2023-09-03T06:12:34Z</time>
      </trkpt>
      <trkpt lat="49.28393" lon="0.00375">
        <ele>138.4</ele>
        <time>2023-09-03T06:12:35Z</time>
      </trkpt>
      <trkpt lat="49.28399" lon="0.00383">
        <ele>138.2</ele>
        <time>2023-09-03T06:12:36Z</time>
      </trkpt>
      <trkpt lat="49.28405" lon="0.00391">
        <ele>138</ele>
        <time>2023-09-03T06:12:37Z</time>
      </trkpt>
      <trkpt lat="49.28411" lon="0.004">
        <ele>137.8</ele>
        <time>2023-09-03T06:12:38Z</time>
      </trkpt>
      <trkpt lat="49.28417" lon="0.00409">
        <ele>137.6</ele>
        <time>2023-09-03T06:12:39Z</time>
      </trkpt>
      <trkpt lat="49.28423" lon="0.00419">
        <ele>137.4</ele>
        <time>2023-09-03T06:12:40Z</time>
      </trkpt>
      <trkpt lat="49.28429" lon="0.00428">
        <ele>137.2</ele>
        <time>2023-09-03T06:12:41Z</time>
      </trkpt>
      <trkpt lat="49.28435" lon="0.00436">
        <ele>137</ele>
        <time>2023-09-03T06:12:42Z</time>
      </trkpt>
      <trkpt lat="49.28441" lon="0.00445">
        <ele>136.9</ele>
        <time>2023-09-03T06:12:43Z</time>
      </trkpt>
      <trkpt lat="49.28447" lon="0.00454">
        <ele>136.8</ele>
        <time>2023-09-03T06:12:44Z</time>
      </trkpt>
      <trkpt lat="49.28453" lon="0.00463">
        <ele>136.6</ele>
        <time>2023-09-03T06:12:45Z</time>
      </trkpt>
      <trkpt lat="49.2846" lon="0.00472">
        <ele>136.5</ele>
        <time>2023-09-03T06:12:46Z</time>
      </trkpt>
      <trkpt lat="49.28466" lon="0.00481">
        <ele>136.3</ele>
        <time>2023-09-03T06:12:47Z</time>
      </trkpt>
      <trkpt lat="49.28472" lon="0.00491">
        <ele>136.2</ele>
        <time>2023-09-03T06:12:48Z</time>
      </trkpt>
      <trkpt lat="49.28478" lon="0.005">
        <ele>136.1</ele>
        <time>2023-09-03T06:12:49Z</time>
      </trkpt>
      <trkpt lat="49.28485" lon="0.0051">
        <ele>135.9</ele>
        <time>2023-09-03T06:12:50Z</time>
      </trkpt>
      <trkpt lat="49.28491" lon="0.00519">
        <ele>135.8</ele>
        <time>2023-09-03T06:12:51Z</time>
      </trkpt>
      <trkpt lat="49.28497" lon="0.00528">
        <ele>135.7</ele>
        <time>2023-09-03T06:12:52Z</time>
      </trkpt>
      <trkpt lat="49.28503" lon="0.00537">
        <ele>135.6</ele>
        <time>2023-09-03T06:12:53Z</time>
      </trkpt>
      <trkpt lat="49.28509" lon="0.00546">
        <ele>135.5</ele>
        <time>2023-09-03T06:12:54Z</time>
      </trkpt>
      <trkpt lat="49.28515" lon="0.00555">
        <ele>135.4</ele>
        <time>2023-09-03T06:12:55Z</time>
      </trkpt>
      <trkpt lat="49.28521" lon="0.00564">
        <ele>135.3</ele>
        <time>2023-09-03T06:12:56Z</time>
      </trkpt>
      <trkpt lat="49.28527" lon="0.00573">
        <ele>135.1</ele>
        <time>2023-09-03T06:12:57Z</time>
      </trkpt>
      <trkpt lat="49.28533" lon="0.00583">
        <ele>135</ele>
        <time>2023-09-03T06:12:58Z</time>
      </trkpt>
      <trkpt lat="49.2854" lon="0.00592">
        <ele>135</ele>
        <time>2023-09-03T06:12:59Z</time>
      </trkpt>
      <trkpt lat="49.28546" lon="0.00602">
        <ele>134.9</ele>
        <time>2023-09-03T06:13:00Z</time>
      </trkpt>
      <trkpt lat="49.28553" lon="0.00611">
        <ele>134.9</ele>
        <time>2023-09-03T06:13:01Z</time>
      </trkpt>
      <trkpt lat="49.28559" lon="0.0062">
        <ele>134.8</ele>
        <time>2023-09-03T06:13:02Z</time>
      </trkpt>
      <trkpt lat="49.28565" lon="0.00629">
        <ele>134.7</ele>
        <time>2023-09-03T06:13:03Z</time>
      </trkpt>
      <trkpt lat="49.28571" lon="0.00638">
        <ele>134.7</ele>
        <time>2023-09-03T06:13:04Z</time>
      </trkpt>
      <trkpt lat="49.28577" lon="0.00647">
        <ele>134.6</ele>
        <time>2023-09-03T06:13:05Z</time>
      </trkpt>
      <trkpt lat="49.28584" lon="0.00656">
        <ele>134.5</ele>
        <time>2023-09-03T06:13:06Z</time>
      </trkpt>
      <trkpt lat="49.2859" lon="0.00665">
        <ele>134.5</ele>
        <time>2023-09-03T06:13:07Z</time>
      </trkpt>
      <trkpt lat="49.28596" lon="0.00674">
        <ele>134.4</ele>
        <time>2023-09-03T06:13:08Z</time>
      </trkpt>
      <trkpt lat="49.28602" lon="0.00683">
        <ele>134.3</ele>
        <time>2023-09-03T06:13:09Z</time>
      </trkpt>
      <trkpt lat="49.28608" lon="0.00691">
        <ele>134.3</ele>
        <time>2023-09-03T06:13:10Z</time>
      </trkpt>
      <trkpt lat="49.28614" lon="0.007">
        <ele>134.2</ele>
        <time>2023-09-03T06:13:11Z</time>
      </trkpt>
      <trkpt lat="49.2862" lon="0.00709">
        <ele>134.2</ele>
        <time>2023-09-03T06:13:12Z</time>
      </trkpt>
      <trkpt lat="49.28626" lon="0.00717">
        <ele>134.4</ele>
        <time>2023-09-03T06:13:13Z</time>
      </trkpt>
      <trkpt lat="49.28632" lon="0.00725">
        <ele>134.5</ele>
        <time>2023-09-03T06:13:14Z</time>
      </trkpt>
      <trkpt lat="49.28638" lon="0.00733">
        <ele>134.5</ele>
        <time>2023-09-03T06:13:15Z</time>
      </trkpt>
      <trkpt lat="49.28644" lon="0.00741">
        <ele>134.6</ele>
        <time>2023-09-03T06:13:16Z</time>
      </trkpt>
      <trkpt lat="49.2865" lon="0.00748">
        <ele>134.6</ele>
        <time>2023-09-03T06:13:17Z</time>
      </trkpt>
      <trkpt lat="49.28656" lon="0.00756">
        <ele>134.6</ele>
        <time>2023-09-03T06:13:18Z</time>
      </trkpt>
      <trkpt lat="49.28663" lon="0.00764">
        <ele>134.6</ele>
        <time>2023-09-03T06:13:19Z</time>
      </trkpt>
      <trkpt lat="49.28669" lon="0.00772">
        <ele>134.6</ele>
        <time>2023-09-03T06:13:20Z</time>
      </trkpt>
      <trkpt lat="49.28675" lon="0.00779">
        <ele>134.6</ele>
        <time>2023-09-03T06:13:21Z</time>
      </trkpt>
      <trkpt lat="49.28681" lon="0.00786">
        <ele>134.6</ele>
        <time>2023-09-03T06:13:22Z</time>
      </trkpt>
      <trkpt lat="49.28688" lon="0.00794">
        <ele>134.6</ele>
        <time>2023-09-03T06:13:23Z</time>
      </trkpt>
      <trkpt lat="49.28695" lon="0.00802">
        <ele>134.7</ele>
        <time>2023-09-03T06:13:24Z</time>
      </trkpt>
      <trkpt lat="49.28701" lon="0.00809">
        <ele>134.7</ele>
        <time>2023-09-03T06:13:25Z</time>
      </trkpt>
      <trkpt lat="49.28708" lon="0.00816">
        <ele>134.7</ele>
        <time>2023-09-03T06:13:26Z</time>
      </trkpt>
      <trkpt lat="49.28714" lon="0.00823">
        <ele>134.8</ele>
        <time>2023-09-03T06:13:27Z</time>
      </trkpt>
      <trkpt lat="49.2872" lon="0.0083">
        <ele>134.8</ele>
        <time>2023-09-03T06:13:28Z</time>
      </trkpt>
      <trkpt lat="49.28726" lon="0.00837">
        <ele>134.8</ele>
        <time>2023-09-03T06:13:29Z</time>
      </trkpt>
      <trkpt lat="49.28732" lon="0.00843">
        <ele>134.8</ele>
        <time>2023-09-03T06:13:30Z</time>
      </trkpt>
      <trkpt lat="49.28738" lon="0.0085">
        <ele>134.8</ele>
        <time>2023-09-03T06:13:31Z</time>
      </trkpt>
      <trkpt lat="49.28744" lon="0.00856">
        <ele>134.8</ele>
        <time>2023-09-03T06:13:32Z</time>
      </trkpt>
      <trkpt lat="49.28749" lon="0.00862">
        <ele>134.9</ele>
        <time>2023-09-03T06:13:33Z</time>
      </trkpt>
      <trkpt lat="49.28755" lon="0.00868">
        <ele>134.9</ele>
        <time>2023-09-03T06:13:34Z</time>
      </trkpt>
      <trkpt lat="49.2876" lon="0.00875">
        <ele>134.9</ele>
        <time>2023-09-03T06:13:35Z</time>
      </trkpt>
      <trkpt lat="49.28766" lon="0.00881">
        <ele>135</ele>
        <time>2023-09-03T06:13:36Z</time>
      </trkpt>
      <trkpt lat="49.28772" lon="0.00887">
        <ele>135</ele>
        <time>2023-09-03T06:13:37Z</time>
      </trkpt>
      <trkpt lat="49.28778" lon="0.00894">
        <ele>135</ele>
        <time>2023-09-03T06:13:38Z</time>
      </trkpt>
      <trkpt lat="49.28783" lon="0.009">
        <ele>135</ele>
        <time>2023-09-03T06:13:39Z</time>
      </trkpt>
      <trkpt lat="49.28789" lon="0.00907">
        <ele>135</ele>
        <time>2023-09-03T06:13:40Z</time>
      </trkpt>
      <trkpt lat="49.28795" lon="0.00913">
        <ele>135</ele>
        <time>2023-09-03T06:13:41Z</time>
      </trkpt>
      <trkpt lat="49.28801" lon="0.0092">
        <ele>135.1</ele>
        <time>2023-09-03T06:13:42Z</time>
      </trkpt>
      <trkpt lat="49.28807" lon="0.00926">
        <ele>135.1</ele>
        <time>2023-09-03T06:13:43Z</time>
      </trkpt>
      <trkpt lat="49.28813" lon="0.00933">
        <ele>135.1</ele>
        <time>2023-09-03T06:13:44Z</time>
      </trkpt>
      <trkpt lat="49.28818" lon="0.00939">
        <ele>135</ele>
        <time>2023-09-03T06:13:45Z</time>
      </trkpt>
      <trkpt lat="49.28824" lon="0.00946">
        <ele>135</ele>
        <time>2023-09-03T06:13:46Z</time>
      </trkpt>
      <trkpt lat="49.2883" lon="0.00952">
        <ele>134.9</ele>
        <time>2023-09-03T06:13:47Z</time>
      </trkpt>
      <trkpt lat="49.28836" lon="0.00958">
        <ele>134.9</ele>
        <time>2023-09-03T06:13:48Z</time>
      </trkpt>
      <trkpt lat="49.28842" lon="0.00965">
        <ele>134.9</ele>
        <time>2023-09-03T06:13:49Z</time>
      </trkpt>
      <trkpt lat="49.28848" lon="0.00972">
        <ele>134.8</ele>
        <time>2023-09-03T06:13:50Z</time>
      </trkpt>
      <trkpt lat="49.28855" lon="0.00979">
        <ele>134.8</ele>
        <time>2023-09-03T06:13:51Z</time>
      </trkpt>
      <trkpt lat="49.28862" lon="0.00985">
        <ele>134.6</ele>
        <time>2023-09-03T06:13:52Z</time>
      </trkpt>
      <trkpt lat="49.28868" lon="0.00992">
        <ele>134.5</ele>
        <time>2023-09-03T06:13:53Z</time>
      </trkpt>
      <trkpt lat="49.28874" lon="0.00999">
        <ele>134.4</ele>
        <time>2023-09-03T06:13:54Z</time>
      </trkpt>
      <trkpt lat="49.28881" lon="0.01005">
        <ele>134.3</ele>
        <time>2023-09-03T06:13:55Z</time>
      </trkpt>
      <trkpt lat="49.28888" lon="0.01011">
        <ele>134.2</ele>
        <time>2023-09-03T06:13:56Z</time>
      </trkpt>
      <trkpt lat="49.28894" lon="0.01019">
        <ele>134.2</ele>
        <time>2023-09-03T06:13:57Z</time>
      </trkpt>
      <trkpt lat="49.28901" lon="0.01026">
        <ele>134.1</ele>
        <time>2023-09-03T06:13:58Z</time>
      </trkpt>
      <trkpt lat="49.28907" lon="0.01033">
        <ele>134</ele>
        <time>2023-09-03T06:13:59Z</time>
      </trkpt>
      <trkpt lat="49.28914" lon="0.0104">
        <ele>133.9</ele>
        <time>2023-09-03T06:14:00Z</time>
      </trkpt>
      <trkpt lat="49.2892" lon="0.01047">
        <ele>133.8</ele>
        <time>2023-09-03T06:14:01Z</time>
      </trkpt>
      <trkpt lat="49.28927" lon="0.01055">
        <ele>133.7</ele>
        <time>2023-09-03T06:14:02Z</time>
      </trkpt>
      <trkpt lat="49.28933" lon="0.01063">
        <ele>133.5</ele>
        <time>2023-09-03T06:14:03Z</time>
      </trkpt>
      <trkpt lat="49.28938" lon="0.0107">
        <ele>133.4</ele>
        <time>2023-09-03T06:14:04Z</time>
      </trkpt>
      <trkpt lat="49.28944" lon="0.01079">
        <ele>133.2</ele>
        <time>2023-09-03T06:14:05Z</time>
      </trkpt>
      <trkpt lat="49.28949" lon="0.01087">
        <ele>133.1</ele>
        <time>2023-09-03T06:14:06Z</time>
      </trkpt>
      <trkpt lat="49.28954" lon="0.01097">
        <ele>132.9</ele>
        <time>2023-09-03T06:14:07Z</time>
      </trkpt>
      <trkpt lat="49.2896" lon="0.01107">
        <ele>132.8</ele>
        <time>2023-09-03T06:14:08Z</time>
      </trkpt>
      <trkpt lat="49.28965" lon="0.01116">
        <ele>132.7</ele>
        <time>2023-09-03T06:14:09Z</time>
      </trkpt>
      <trkpt lat="49.2897" lon="0.01125">
        <ele>132.6</ele>
        <time>2023-09-03T06:14:10Z</time>
      </trkpt>
      <trkpt lat="49.28975" lon="0.01135">
        <ele>132.4</ele>
        <time>2023-09-03T06:14:11Z</time>
      </trkpt>
      <trkpt lat="49.2898" lon="0.01144">
        <ele>132.3</ele>
        <time>2023-09-03T06:14:12Z</time>
      </trkpt>
      <trkpt lat="49.28986" lon="0.01154">
        <ele>132.2</ele>
        <time>2023-09-03T06:14:13Z</time>
      </trkpt>
      <trkpt lat="49.28991" lon="0.01163">
        <ele>132.1</ele>
        <time>2023-09-03T06:14:14Z</time>
      </trkpt>
      <trkpt lat="49.28995" lon="0.01172">
        <ele>132</ele>
        <time>2023-09-03T06:14:15Z</time>
      </trkpt>
      <trkpt lat="49.29001" lon="0.01181">
        <ele>131.9</ele>
        <time>2023-09-03T06:14:16Z</time>
      </trkpt>
      <trkpt lat="49.29006" lon="0.0119">
        <ele>131.9</ele>
        <time>2023-09-03T06:14:17Z</time>
      </trkpt>
      <trkpt lat="49.29011" lon="0.01198">
        <ele>131.8</ele>
        <time>2023-09-03T06:14:18Z</time>
      </trkpt>
      <trkpt lat="49.29016" lon="0.01206">
        <ele>131.8</ele>
        <time>2023-09-03T06:14:19Z</time>
      </trkpt>
      <trkpt lat="49.29022" lon="0.01215">
        <ele>131.8</ele>
        <time>2023-09-03T06:14:20Z</time>
      </trkpt>
      <trkpt lat="49.29028" lon="0.01222">
        <ele>131.8</ele>
        <time>2023-09-03T06:14:21Z</time>
      </trkpt>
      <trkpt lat="49.29033" lon="0.0123">
        <ele>131.8</ele>
        <time>2023-09-03T06:14:22Z</time>
      </trkpt>
      <trkpt lat="49.29039" lon="0.01238">
        <ele>131.8</ele>
        <time>2023-09-03T06:14:23Z</time>
      </trkpt>
      <trkpt lat="49.29045" lon="0.01245">
        <ele>131.8</ele>
        <time>2023-09-03T06:14:24Z</time>
      </trkpt>
      <trkpt lat="49.29051" lon="0.01252">
        <ele>131.8</ele>
        <time>2023-09-03T06:14:25Z</time>
      </trkpt>
      <trkpt lat="49.29057" lon="0.01258">
        <ele>131.8</ele>
        <time>2023-09-03T06:14:26Z</time>
      </trkpt>
      <trkpt lat="49.29063" lon="0.01265">
        <ele>131.8</ele>
        <time>2023-09-03T06:14:27Z</time>
      </trkpt>
      <trkpt lat="49.2907" lon="0.01271">
        <ele>131.8</ele>
        <time>2023-09-03T06:14:28Z</time>
      </trkpt>
      <trkpt lat="49.29076" lon="0.01277">
        <ele>131.8</ele>
        <time>2023-09-03T06:14:29Z</time>
      </trkpt>
      <trkpt lat="49.29083" lon="0.01283">
        <ele>131.8</ele>
        <time>2023-09-03T06:14:30Z</time>
      </trkpt>
      <trkpt lat="49.29089" lon="0.01289">
        <ele>131.9</ele>
        <time>2023-09-03T06:14:31Z</time>
      </trkpt>
      <trkpt lat="49.29096" lon="0.01295">
        <ele>132</ele>
        <time>2023-09-03T06:14:32Z</time>
      </trkpt>
      <trkpt lat="49.29102" lon="0.013">
        <ele>132</ele>
        <time>2023-09-03T06:14:33Z</time>
      </trkpt>
      <trkpt lat="49.29109" lon="0.01306">
        <ele>132.1</ele>
        <time>2023-09-03T06:14:34Z</time>
      </trkpt>
      <trkpt lat="49.29115" lon="0.01311">
        <ele>132.1</ele>
        <time>2023-09-03T06:14:35Z</time>
      </trkpt>
      <trkpt lat="49.29121" lon="0.01316">
        <ele>132.2</ele>
        <time>2023-09-03T06:14:36Z</time>
      </trkpt>
      <trkpt lat="49.29128" lon="0.01321">
        <ele>132.2</ele>
        <time>2023-09-03T06:14:37Z</time>
      </trkpt>
      <trkpt lat="49.29134" lon="0.01327">
        <ele>132.2</ele>
        <time>2023-09-03T06:14:38Z</time>
      </trkpt>
      <trkpt lat="49.2914" lon="0.01332">
        <ele>132.2</ele>
        <time>2023-09-03T06:14:39Z</time>
      </trkpt>
      <trkpt lat="49.29146" lon="0.01337">
        <ele>132.2</ele>
        <time>2023-09-03T06:14:40Z</time>
      </trkpt>
      <trkpt lat="49.29152" lon="0.01343">
        <ele>132.2</ele>
        <time>2023-09-03T06:14:41Z</time>
      </trkpt>
      <trkpt lat="49.29158" lon="0.01349">
        <ele>132.1</ele>
        <time>2023-09-03T06:14:42Z</time>
      </trkpt>
      <trkpt lat="49.29164" lon="0.01356">
        <ele>132.1</ele>
        <time>2023-09-03T06:14:43Z</time>
      </trkpt>
      <trkpt lat="49.2917" lon="0.01362">
        <ele>132</ele>
        <time>2023-09-03T06:14:44Z</time>
      </trkpt>
      <trkpt lat="49.29177" lon="0.01369">
        <ele>131.9</ele>
        <time>2023-09-03T06:14:45Z</time>
      </trkpt>
      <trkpt lat="49.29183" lon="0.01377">
        <ele>131.7</ele>
        <time>2023-09-03T06:14:46Z</time>
      </trkpt>
      <trkpt lat="49.29189" lon="0.01384">
        <ele>131.6</ele>
        <time>2023-09-03T06:14:47Z</time>
      </trkpt>
      <trkpt lat="49.29195" lon="0.01392">
        <ele>131.4</ele>
        <time>2023-09-03T06:14:48Z</time>
      </trkpt>
      <trkpt lat="49.29201" lon="0.014">
        <ele>131.3</ele>
        <time>2023-09-03T06:14:49Z</time>
      </trkpt>
      <trkpt lat="49.29206" lon="0.01409">
        <ele>131.1</ele>
        <time>2023-09-03T06:14:50Z</time>
      </trkpt>
      <trkpt lat="49.29212" lon="0.01417">
        <ele>131</ele>
        <time>2023-09-03T06:14:51Z</time>
      </trkpt>
      <trkpt lat="49.29217" lon="0.01426">
        <ele>130.9</ele>
        <time>2023-09-03T06:14:52Z</time>
      </trkpt>
      <trkpt lat="49.29222" lon="0.01434">
        <ele>130.7</ele>
        <time>2023-09-03T06:14:53Z</time>
      </trkpt>
      <trkpt lat="49.29227" lon="0.01443">
        <ele>130.6</ele>
        <time>2023-09-03T06:14:54Z</time>
      </trkpt>
      <trkpt lat="49.29233" lon="0.01452">
        <ele>130.4</ele>
        <time>2023-09-03T06:14:55Z</time>
      </trkpt>
      <trkpt lat="49.29238" lon="0.01461">
        <ele>130.3</ele>
        <time>2023-09-03T06:14:56Z</time>
      </trkpt>
      <trkpt lat="49.29243" lon="0.0147">
        <ele>130.1</ele>
        <time>2023-09-03T06:14:57Z</time>
      </trkpt>
      <trkpt lat="49.29248" lon="0.0148">
        <ele>129.9</ele>
        <time>2023-09-03T06:14:58Z</time>
      </trkpt>
      <trkpt lat="49.29253" lon="0.0149">
        <ele>129.8</ele>
        <time>2023-09-03T06:14:59Z</time>
      </trkpt>
      <trkpt lat="49.29258" lon="0.01499">
        <ele>129.6</ele>
        <time>2023-09-03T06:15:00Z</time>
      </trkpt>
      <trkpt lat="49.29264" lon="0.01508">
        <ele>129.5</ele>
        <time>2023-09-03T06:15:01Z</time>
      </trkpt>
      <trkpt lat="49.29269" lon="0.01517">
        <ele>129.4</ele>
        <time>2023-09-03T06:15:02Z</time>
      </trkpt>
      <trkpt lat="49.29274" lon="0.01526">
        <ele>129.2</ele>
        <time>2023-09-03T06:15:03Z</time>
      </trkpt>
      <trkpt lat="49.2928" lon="0.01536">
        <ele>129</ele>
        <time>2023-09-03T06:15:04Z</time>
      </trkpt>
      <trkpt lat="49.29285" lon="0.01545">
        <ele>128.8</ele>
        <time>2023-09-03T06:15:05Z</time>
      </trkpt>
      <trkpt lat="49.29291" lon="0.01555">
        <ele>128.6</ele>
        <time>2023-09-03T06:15:06Z</time>
      </trkpt>
      <trkpt lat="49.29297" lon="0.01565">
        <ele>128.5</ele>
        <time>2023-09-03T06:15:07Z</time>
      </trkpt>
      <trkpt lat="49.29302" lon="0.01576">
        <ele>128.3</ele>
        <time>2023-09-03T06:15:08Z</time>
      </trkpt>
      <trkpt lat="49.29308" lon="0.01586">
        <ele>128.1</ele>
        <time>2023-09-03T06:15:09Z</time>
      </trkpt>
      <trkpt lat="49.29313" lon="0.01597">
        <ele>128</ele>
        <time>2023-09-03T06:15:10Z</time>
      </trkpt>
      <trkpt lat="49.29319" lon="0.01607">
        <ele>127.9</ele>
        <time>2023-09-03T06:15:11Z</time>
      </trkpt>
      <trkpt lat="49.29324" lon="0.01618">
        <ele>127.8</ele>
        <time>2023-09-03T06:15:12Z</time>
      </trkpt>
      <trkpt lat="49.2933" lon="0.01629">
        <ele>127.8</ele>
        <time>2023-09-03T06:15:13Z</time>
      </trkpt>
      <trkpt lat="49.29335" lon="0.01639">
        <ele>127.8</ele>
        <time>2023-09-03T06:15:14Z</time>
      </trkpt>
      <trkpt lat="49.2934" lon="0.0165">
        <ele>127.9</ele>
        <time>2023-09-03T06:15:15Z</time>
      </trkpt>
      <trkpt lat="49.29345" lon="0.0166">
        <ele>128</ele>
        <time>2023-09-03T06:15:16Z</time>
      </trkpt>
      <trkpt lat="49.2935" lon="0.0167">
        <ele>128</ele>
        <time>2023-09-03T06:15:17Z</time>
      </trkpt>
      <trkpt lat="49.29354" lon="0.0168">
        <ele>128.1</ele>
        <time>2023-09-03T06:15:18Z</time>
      </trkpt>
      <trkpt lat="49.29359" lon="0.0169">
        <ele>128.3</ele>
        <time>2023-09-03T06:15:19Z</time>
      </trkpt>
      <trkpt lat="49.29363" lon="0.017">
        <ele>128.4</ele>
        <time>2023-09-03T06:15:20Z</time>
      </trkpt>
      <trkpt lat="49.29368" lon="0.0171">
        <ele>128.5</ele>
        <time>2023-09-03T06:15:21Z</time>
      </trkpt>
      <trkpt lat="49.29372" lon="0.0172">
        <ele>128.6</ele>
        <time>2023-09-03T06:15:22Z</time>
      </trkpt>
      <trkpt lat="49.29376" lon="0.01731">
        <ele>128.7</ele>
        <time>2023-09-03T06:15:23Z</time>
      </trkpt>
      <trkpt lat="49.2938" lon="0.01742">
        <ele>128.7</ele>
        <time>2023-09-03T06:15:24Z</time>
      </trkpt>
      <trkpt lat="49.29384" lon="0.01752">
        <ele>128.8</ele>
        <time>2023-09-03T06:15:25Z</time>
      </trkpt>
      <trkpt lat="49.29388" lon="0.01762">
        <ele>128.8</ele>
        <time>2023-09-03T06:15:26Z</time>
      </trkpt>
      <trkpt lat="49.29391" lon="0.01773">
        <ele>128.8</ele>
        <time>2023-09-03T06:15:27Z</time>
      </trkpt>
      <trkpt lat="49.29395" lon="0.01784">
        <ele>128.8</ele>
        <time>2023-09-03T06:15:28Z</time>
      </trkpt>
      <trkpt lat="49.29399" lon="0.01794">
        <ele>128.9</ele>
        <time>2023-09-03T06:15:29Z</time>
      </trkpt>
      <trkpt lat="49.29402" lon="0.01805">
        <ele>128.9</ele>
        <time>2023-09-03T06:15:30Z</time>
      </trkpt>
      <trkpt lat="49.29406" lon="0.01815">
        <ele>128.9</ele>
        <time>2023-09-03T06:15:31Z</time>
      </trkpt>
      <trkpt lat="49.2941" lon="0.01826">
        <ele>129</ele>
        <time>2023-09-03T06:15:32Z</time>
      </trkpt>
      <trkpt lat="49.29413" lon="0.01837">
        <ele>129</ele>
        <time>2023-09-03T06:15:33Z</time>
      </trkpt>
      <trkpt lat="49.29417" lon="0.01848">
        <ele>129.1</ele>
        <time>2023-09-03T06:15:34Z</time>
      </trkpt>
      <trkpt lat="49.29421" lon="0.01858">
        <ele>129.2</ele>
        <time>2023-09-03T06:15:35Z</time>
      </trkpt>
      <trkpt lat="49.29425" lon="0.01868">
        <ele>129.2</ele>
        <time>2023-09-03T06:15:36Z</time>
      </trkpt>
      <trkpt lat="49.29429" lon="0.01877">
        <ele>129.2</ele>
        <time>2023-09-03T06:15:37Z</time>
      </trkpt>
      <trkpt lat="49.29432" lon="0.01888">
        <ele>129.2</ele>
        <time>2023-09-03T06:15:38Z</time>
      </trkpt>
      <trkpt lat="49.29436" lon="0.01898">
        <ele>129.2</ele>
        <time>2023-09-03T06:15:39Z</time>
      </trkpt>
      <trkpt lat="49.2944" lon="0.01908">
        <ele>129.1</ele>
        <time>2023-09-03T06:15:40Z</time>
      </trkpt>
      <trkpt lat="49.29444" lon="0.01919">
        <ele>129.1</ele>
        <time>2023-09-03T06:15:41Z</time>
      </trkpt>
      <trkpt lat="49.29448" lon="0.0193">
        <ele>129</ele>
        <time>2023-09-03T06:15:42Z</time>
      </trkpt>
      <trkpt lat="49.29453" lon="0.01941">
        <ele>128.9</ele>
        <time>2023-09-03T06:15:43Z</time>
      </trkpt>
      <trkpt lat="49.29457" lon="0.01952">
        <ele>128.8</ele>
        <time>2023-09-03T06:15:44Z</time>
      </trkpt>
      <trkpt lat="49.29461" lon="0.01963">
        <ele>128.6</ele>
        <time>2023-09-03T06:15:45Z</time>
      </trkpt>
      <trkpt lat="49.29466" lon="0.01973">
        <ele>128.5</ele>
        <time>2023-09-03T06:15:46Z</time>
      </trkpt>
      <trkpt lat="49.29471" lon="0.01983">
        <ele>128.4</ele>
        <time>2023-09-03T06:15:47Z</time>
      </trkpt>
      <trkpt lat="49.29475" lon="0.01993">
        <ele>128.3</ele>
        <time>2023-09-03T06:15:48Z</time>
      </trkpt>
      <trkpt lat="49.2948" lon="0.02003">
        <ele>128.2</ele>
        <time>2023-09-03T06:15:49Z</time>
      </trkpt>
      <trkpt lat="49.29486" lon="0.02013">
        <ele>128</ele>
        <time>2023-09-03T06:15:50Z</time>
      </trkpt>
      <trkpt lat="49.29492" lon="0.02023">
        <ele>127.8</ele>
        <time>2023-09-03T06:15:51Z</time>
      </trkpt>
      <trkpt lat="49.29497" lon="0.02032">
        <ele>127.6</ele>
        <time>2023-09-03T06:15:52Z</time>
      </trkpt>
      <trkpt lat="49.29503" lon="0.02041">
        <ele>127.4</ele>
        <time>2023-09-03T06:15:53Z</time>
      </trkpt>
      <trkpt lat="49.29509" lon="0.02048">
        <ele>127.1</ele>
        <time>2023-09-03T06:15:54Z</time>
      </trkpt>
      <trkpt lat="49.29516" lon="0.02055">
        <ele>126.9</ele>
        <time>2023-09-03T06:15:55Z</time>
      </trkpt>
      <trkpt lat="49.29523" lon="0.02062">
        <ele>126.8</ele>
        <time>2023-09-03T06:15:56Z</time>
      </trkpt>
      <trkpt lat="49.2953" lon="0.02068">
        <ele>126.7</ele>
        <time>2023-09-03T06:15:57Z</time>
      </trkpt>
      <trkpt lat="49.29537" lon="0.02074">
        <ele>126.7</ele>
        <time>2023-09-03T06:15:58Z</time>
      </trkpt>
      <trkpt lat="49.29544" lon="0.0208">
        <ele>126.7</ele>
        <time>2023-09-03T06:15:59Z</time>
      </trkpt>
      <trkpt lat="49.2955" lon="0.02085">
        <ele>126.9</ele>
        <time>2023-09-03T06:16:00Z</time>
      </trkpt>
      <trkpt lat="49.29557" lon="0.0209">
        <ele>127</ele>
        <time>2023-09-03T06:16:01Z</time>
      </trkpt>
      <trkpt lat="49.29563" lon="0.02096">
        <ele>127.1</ele>
        <time>2023-09-03T06:16:02Z</time>
      </trkpt>
      <trkpt lat="49.2957" lon="0.02102">
        <ele>127.3</ele>
        <time>2023-09-03T06:16:03Z</time>
      </trkpt>
      <trkpt lat="49.29577" lon="0.02108">
        <ele>127.4</ele>
        <time>2023-09-03T06:16:04Z</time>
      </trkpt>
      <trkpt lat="49.29584" lon="0.02112">
        <ele>127.6</ele>
        <time>2023-09-03T06:16:05Z</time>
      </trkpt>
      <trkpt lat="49.29591" lon="0.02116">
        <ele>127.7</ele>
        <time>2023-09-03T06:16:06Z</time>
      </trkpt>
      <trkpt lat="49.29598" lon="0.02121">
        <ele>127.8</ele>
        <time>2023-09-03T06:16:07Z</time>
      </trkpt>
      <trkpt lat="49.29605" lon="0.02125">
        <ele>127.9</ele>
        <time>2023-09-03T06:16:08Z</time>
      </trkpt>
      <trkpt lat="49.29612" lon="0.0213">
        <ele>128</ele>
        <time>2023-09-03T06:16:09Z</time>
      </trkpt>
      <trkpt lat="49.29619" lon="0.02136">
        <ele>128.1</ele>
        <time>2023-09-03T06:16:10Z</time>
      </trkpt>
      <trkpt lat="49.29626" lon="0.02141">
        <ele>128.1</ele>
        <time>2023-09-03T06:16:11Z</time>
      </trkpt>
      <trkpt lat="49.29632" lon="0.02147">
        <ele>128.2</ele>
        <time>2023-09-03T06:16:12Z</time>
      </trkpt>
      <trkpt lat="49.29639" lon="0.02153">
        <ele>128.3</ele>
        <time>2023-09-03T06:16:13Z</time>
      </trkpt>
      <trkpt lat="49.29646" lon="0.02159">
        <ele>128.4</ele>
        <time>2023-09-03T06:16:14Z</time>
      </trkpt>
      <trkpt lat="49.29653" lon="0.02164">
        <ele>128.4</ele>
        <time>2023-09-03T06:16:15Z</time>
      </trkpt>
      <trkpt lat="49.29659" lon="0.0217">
        <ele>128.4</ele>
        <time>2023-09-03T06:16:16Z</time>
      </trkpt>
      <trkpt lat="49.29667" lon="0.02177">
        <ele>128.3</ele>
        <time>2023-09-03T06:16:17Z</time>
      </trkpt>
      <trkpt lat="49.29674" lon="0.02184">
        <ele>128.3</ele>
        <time>2023-09-03T06:16:18Z</time>
      </trkpt>
      <trkpt lat="49.29681" lon="0.02191">
        <ele>128.2</ele>
        <time>2023-09-03T06:16:19Z</time>
      </trkpt>
      <trkpt lat="49.29688" lon="0.02198">
        <ele>128.1</ele>
        <time>2023-09-03T06:16:20Z</time>
      </trkpt>
      <trkpt lat="49.29695" lon="0.02204">
        <ele>128</ele>
        <time>2023-09-03T06:16:21Z</time>
      </trkpt>
      <trkpt lat="49.29702" lon="0.0221">
        <ele>127.9</ele>
        <time>2023-09-03T06:16:22Z</time>
      </trkpt>
      <trkpt lat="49.2971" lon="0.02216">
        <ele>127.8</ele>
        <time>2023-09-03T06:16:23Z</time>
      </trkpt>
      <trkpt lat="49.29717" lon="0.02223">
        <ele>127.8</ele>
        <time>2023-09-03T06:16:24Z</time>
      </trkpt>
      <trkpt lat="49.29724" lon="0.02229">
        <ele>127.8</ele>
        <time>2023-09-03T06:16:25Z</time>
      </trkpt>
      <trkpt lat="49.29731" lon="0.02234">
        <ele>127.8</ele>
        <time>2023-09-03T06:16:26Z</time>
      </trkpt>
      <trkpt lat="49.29739" lon="0.0224">
        <ele>127.8</ele>
        <time>2023-09-03T06:16:27Z</time>
      </trkpt>
      <trkpt lat="49.29746" lon="0.02247">
        <ele>127.8</ele>
        <time>2023-09-03T06:16:28Z</time>
      </trkpt>
      <trkpt lat="49.29753" lon="0.02253">
        <ele>127.8</ele>
        <time>2023-09-03T06:16:29Z</time>
      </trkpt>
      <trkpt lat="49.29759" lon="0.02259">
        <ele>127.7</ele>
        <time>2023-09-03T06:16:30Z</time>
      </trkpt>
      <trkpt lat="49.29765" lon="0.02266">
        <ele>127.6</ele>
        <time>2023-09-03T06:16:31Z</time>
      </trkpt>
      <trkpt lat="49.29772" lon="0.02273">
        <ele>127.6</ele>
        <time>2023-09-03T06:16:32Z</time>
      </trkpt>
      <trkpt lat="49.29778" lon="0.0228">
        <ele>127.5</ele>
        <time>2023-09-03T06:16:33Z</time>
      </trkpt>
      <trkpt lat="49.29784" lon="0.02288">
        <ele>127.5</ele>
        <time>2023-09-03T06:16:34Z</time>
      </trkpt>
      <trkpt lat="49.2979" lon="0.02295">
        <ele>127.4</ele>
        <time>2023-09-03T06:16:35Z</time>
      </trkpt>
      <trkpt lat="49.29797" lon="0.02302">
        <ele>127.4</ele>
        <time>2023-09-03T06:16:36Z</time>
      </trkpt>
      <trkpt lat="49.29804" lon="0.0231">
        <ele>127.4</ele>
        <time>2023-09-03T06:16:37Z</time>
      </trkpt>
      <trkpt lat="49.2981" lon="0.02318">
        <ele>127.4</ele>
        <time>2023-09-03T06:16:38Z</time>
      </trkpt>
      <trkpt lat="49.29816" lon="0.02325">
        <ele>127.4</ele>
        <time>2023-09-03T06:16:39Z</time>
      </trkpt>
      <trkpt lat="49.29823" lon="0.02332">
        <ele>127.5</ele>
        <time>2023-09-03T06:16:40Z</time>
      </trkpt>
      <trkpt lat="49.29829" lon="0.0234">
        <ele>127.6</ele>
        <time>2023-09-03T06:16:41Z</time>
      </trkpt>
      <trkpt lat="49.29835" lon="0.02347">
        <ele>127.6</ele>
        <time>2023-09-03T06:16:42Z</time>
      </trkpt>
      <trkpt lat="49.29841" lon="0.02354">
        <ele>127.7</ele>
        <time>2023-09-03T06:16:43Z</time>
      </trkpt>
      <trkpt lat="49.29847" lon="0.0236">
        <ele>127.7</ele>
        <time>2023-09-03T06:16:44Z</time>
      </trkpt>
      <trkpt lat="49.29853" lon="0.02367">
        <ele>127.7</ele>
        <time>2023-09-03T06:16:45Z</time>
      </trkpt>
      <trkpt lat="49.2986" lon="0.02374">
        <ele>127.7</ele>
        <time>2023-09-03T06:16:46Z</time>
      </trkpt>
      <trkpt lat="49.29866" lon="0.0238">
        <ele>127.7</ele>
        <time>2023-09-03T06:16:47Z</time>
      </trkpt>
      <trkpt lat="49.29872" lon="0.02387">
        <ele>127.7</ele>
        <time>2023-09-03T06:16:48Z</time>
      </trkpt>
      <trkpt lat="49.29878" lon="0.02394">
        <ele>127.7</ele>
        <time>2023-09-03T06:16:49Z</time>
      </trkpt>
      <trkpt lat="49.29884" lon="0.02401">
        <ele>127.7</ele>
        <time>2023-09-03T06:16:50Z</time>
      </trkpt>
      <trkpt lat="49.29891" lon="0.02408">
        <ele>127.7</ele>
        <time>2023-09-03T06:16:51Z</time>
      </trkpt>
      <trkpt lat="49.29897" lon="0.02415">
        <ele>127.6</ele>
        <time>2023-09-03T06:16:52Z</time>
      </trkpt>
      <trkpt lat="49.29903" lon="0.02422">
        <ele>127.6</ele>
        <time>2023-09-03T06:16:53Z</time>
      </trkpt>
      <trkpt lat="49.29909" lon="0.02429">
        <ele>127.5</ele>
        <time>2023-09-03T06:16:54Z</time>
      </trkpt>
      <trkpt lat="49.29915" lon="0.02436">
        <ele>127.5</ele>
        <time>2023-09-03T06:16:55Z</time>
      </trkpt>
      <trkpt lat="49.29921" lon="0.02443">
        <ele>127.4</ele>
        <time>2023-09-03T06:16:56Z</time>
      </trkpt>
      <trkpt lat="49.29928" lon="0.0245">
        <ele>127.3</ele>
        <time>2023-09-03T06:16:57Z</time>
      </trkpt>
      <trkpt lat="49.29934" lon="0.02457">
        <ele>127.2</ele>
        <time>2023-09-03T06:16:58Z</time>
      </trkpt>
      <trkpt lat="49.29941" lon="0.02464">
        <ele>127.1</ele>
        <time>2023-09-03T06:16:59Z</time>
      </trkpt>
      <trkpt lat="49.29947" lon="0.02471">
        <ele>127</ele>
        <time>2023-09-03T06:17:00Z</time>
      </trkpt>
      <trkpt lat="49.29954" lon="0.02479">
        <ele>126.9</ele>
        <time>2023-09-03T06:17:01Z</time>
      </trkpt>
      <trkpt lat="49.2996" lon="0.02486">
        <ele>126.8</ele>
        <time>2023-09-03T06:17:02Z</time>
      </trkpt>
      <trkpt lat="49.29967" lon="0.02494">
        <ele>126.7</ele>
        <time>2023-09-03T06:17:03Z</time>
      </trkpt>
      <trkpt lat="49.29973" lon="0.02501">
        <ele>126.7</ele>
        <time>2023-09-03T06:17:04Z</time>
      </trkpt>
      <trkpt lat="49.2998" lon="0.02508">
        <ele>126.6</ele>
        <time>2023-09-03T06:17:05Z</time>
      </trkpt>
      <trkpt lat="49.29986" lon="0.02515">
        <ele>126.5</ele>
        <time>2023-09-03T06:17:06Z</time>
      </trkpt>
      <trkpt lat="49.29993" lon="0.02523">
        <ele>126.4</ele>
        <time>2023-09-03T06:17:07Z</time>
      </trkpt>
      <trkpt lat="49.29999" lon="0.0253">
        <ele>126.3</ele>
        <time>2023-09-03T06:17:08Z</time>
      </trkpt>
      <trkpt lat="49.30006" lon="0.02537">
        <ele>126.2</ele>
        <time>2023-09-03T06:17:09Z</time>
      </trkpt>
      <trkpt lat="49.30012" lon="0.02545">
        <ele>126.2</ele>
        <time>2023-09-03T06:17:10Z</time>
      </trkpt>
      <trkpt lat="49.30018" lon="0.02553">
        <ele>126.1</ele>
        <time>2023-09-03T06:17:11Z</time>
      </trkpt>
      <trkpt lat="49.30025" lon="0.0256">
        <ele>126</ele>
        <time>2023-09-03T06:17:12Z</time>
      </trkpt>
      <trkpt lat="49.30031" lon="0.02568">
        <ele>125.9</ele>
        <time>2023-09-03T06:17:13Z</time>
      </trkpt>
      <trkpt lat="49.30037" lon="0.02574">
        <ele>125.8</ele>
        <time>2023-09-03T06:17:14Z</time>
      </trkpt>
      <trkpt lat="49.30043" lon="0.02581">
        <ele>125.7</ele>
        <time>2023-09-03T06:17:15Z</time>
      </trkpt>
      <trkpt lat="49.3005" lon="0.02588">
        <ele>125.6</ele>
        <time>2023-09-03T06:17:16Z</time>
      </trkpt>
      <trkpt lat="49.30056" lon="0.02595">
        <ele>125.6</ele>
        <time>2023-09-03T06:17:17Z</time>
      </trkpt>
      <trkpt lat="49.30063" lon="0.02602">
        <ele>125.5</ele>
        <time>2023-09-03T06:17:18Z</time>
      </trkpt>
      <trkpt lat="49.3007" lon="0.02608">
        <ele>125.4</ele>
        <time>2023-09-03T06:17:19Z</time>
      </trkpt>
      <trkpt lat="49.30076" lon="0.02615">
        <ele>125.4</ele>
        <time>2023-09-03T06:17:20Z</time>
      </trkpt>
      <trkpt lat="49.30082" lon="0.02622">
        <ele>125.3</ele>
        <time>2023-09-03T06:17:21Z</time>
      </trkpt>
      <trkpt lat="49.30089" lon="0.0263">
        <ele>125.2</ele>
        <time>2023-09-03T06:17:22Z</time>
      </trkpt>
      <trkpt lat="49.30095" lon="0.02638">
        <ele>125</ele>
        <time>2023-09-03T06:17:23Z</time>
      </trkpt>
      <trkpt lat="49.30101" lon="0.02645">
        <ele>124.9</ele>
        <time>2023-09-03T06:17:24Z</time>
      </trkpt>
      <trkpt lat="49.30108" lon="0.02653">
        <ele>124.7</ele>
        <time>2023-09-03T06:17:25Z</time>
      </trkpt>
      <trkpt lat="49.30114" lon="0.0266">
        <ele>124.6</ele>
        <time>2023-09-03T06:17:26Z</time>
      </trkpt>
      <trkpt lat="49.30121" lon="0.02668">
        <ele>124.4</ele>
        <time>2023-09-03T06:17:27Z</time>
      </trkpt>
      <trkpt lat="49.30127" lon="0.02676">
        <ele>124.3</ele>
        <time>2023-09-03T06:17:28Z</time>
      </trkpt>
      <trkpt lat="49.30133" lon="0.02685">
        <ele>124.3</ele>
        <time>2023-09-03T06:17:29Z</time>
      </trkpt>
      <trkpt lat="49.30139" lon="0.02693">
        <ele>124.2</ele>
        <time>2023-09-03T06:17:30Z</time>
      </trkpt>
      <trkpt lat="49.30146" lon="0.02702">
        <ele>124.1</ele>
        <time>2023-09-03T06:17:31Z</time>
      </trkpt>
      <trkpt lat="49.30152" lon="0.0271">
        <ele>124</ele>
        <time>2023-09-03T06:17:32Z</time>
      </trkpt>
      <trkpt lat="49.30158" lon="0.02718">
        <ele>123.9</ele>
        <time>2023-09-03T06:17:33Z</time>
      </trkpt>
      <trkpt lat="49.30164" lon="0.02727">
        <ele>123.8</ele>
        <time>2023-09-03T06:17:34Z</time>
      </trkpt>
      <trkpt lat="49.3017" lon="0.02736">
        <ele>123.7</ele>
        <time>2023-09-03T06:17:35Z</time>
      </trkpt>
      <trkpt lat="49.30176" lon="0.02745">
        <ele>123.5</ele>
        <time>2023-09-03T06:17:36Z</time>
      </trkpt>
      <trkpt lat="49.30182" lon="0.02754">
        <ele>123.4</ele>
        <time>2023-09-03T06:17:37Z</time>
      </trkpt>
      <trkpt lat="49.30188" lon="0.02764">
        <ele>123.2</ele>
        <time>2023-09-03T06:17:38Z</time>
      </trkpt>
      <trkpt lat="49.30194" lon="0.02773">
        <ele>123</ele>
        <time>2023-09-03T06:17:39Z</time>
      </trkpt>
      <trkpt lat="49.302" lon="0.02783">
        <ele>122.9</ele>
        <time>2023-09-03T06:17:40Z</time>
      </trkpt>
      <trkpt lat="49.30206" lon="0.02793">
        <ele>122.7</ele>
        <time>2023-09-03T06:17:41Z</time>
      </trkpt>
      <trkpt lat="49.30212" lon="0.02803">
        <ele>122.5</ele>
        <time>2023-09-03T06:17:42Z</time>
      </trkpt>
      <trkpt lat="49.30218" lon="0.02812">
        <ele>122.4</ele>
        <time>2023-09-03T06:17:43Z</time>
      </trkpt>
      <trkpt lat="49.30224" lon="0.02822">
        <ele>122.3</ele>
        <time>2023-09-03T06:17:44Z</time>
      </trkpt>
      <trkpt lat="49.3023" lon="0.02832">
        <ele>122.1</ele>
        <time>2023-09-03T06:17:45Z</time>
      </trkpt>
      <trkpt lat="49.30235" lon="0.02842">
        <ele>122</ele>
        <time>2023-09-03T06:17:46Z</time>
      </trkpt>
      <trkpt lat="49.30241" lon="0.02852">
        <ele>121.9</ele>
        <time>2023-09-03T06:17:47Z</time>
      </trkpt>
      <trkpt lat="49.30247" lon="0.02862">
        <ele>121.8</ele>
        <time>2023-09-03T06:17:48Z</time>
      </trkpt>
      <trkpt lat="49.30252" lon="0.02873">
        <ele>121.7</ele>
        <time>2023-09-03T06:17:49Z</time>
      </trkpt>
      <trkpt lat="49.30258" lon="0.02884">
        <ele>121.5</ele>
        <time>2023-09-03T06:17:50Z</time>
      </trkpt>
      <trkpt lat="49.30263" lon="0.02895">
        <ele>121.4</ele>
        <time>2023-09-03T06:17:51Z</time>
      </trkpt>
      <trkpt lat="49.30269" lon="0.02907">
        <ele>121.3</ele>
        <time>2023-09-03T06:17:52Z</time>
      </trkpt>
      <trkpt lat="49.30274" lon="0.02917">
        <ele>121.1</ele>
        <time>2023-09-03T06:17:53Z</time>
      </trkpt>
      <trkpt lat="49.3028" lon="0.02928">
        <ele>121</ele>
        <time>2023-09-03T06:17:54Z</time>
      </trkpt>
      <trkpt lat="49.30285" lon="0.02938">
        <ele>120.9</ele>
        <time>2023-09-03T06:17:55Z</time>
      </trkpt>
      <trkpt lat="49.3029" lon="0.02948">
        <ele>120.8</ele>
        <time>2023-09-03T06:17:56Z</time>
      </trkpt>
      <trkpt lat="49.30296" lon="0.02958">
        <ele>120.7</ele>
        <time>2023-09-03T06:17:57Z</time>
      </trkpt>
      <trkpt lat="49.30301" lon="0.02968">
        <ele>120.5</ele>
        <time>2023-09-03T06:17:58Z</time>
      </trkpt>
      <trkpt lat="49.30307" lon="0.02978">
        <ele>120.3</ele>
        <time>2023-09-03T06:17:59Z</time>
      </trkpt>
      <trkpt lat="49.30312" lon="0.02989">
        <ele>120</ele>
        <time>2023-09-03T06:18:00Z</time>
      </trkpt>
      <trkpt lat="49.30318" lon="0.02999">
        <ele>119.7</ele>
        <time>2023-09-03T06:18:01Z</time>
      </trkpt>
      <trkpt lat="49.30324" lon="0.0301">
        <ele>119.4</ele>
        <time>2023-09-03T06:18:02Z</time>
      </trkpt>
      <trkpt lat="49.3033" lon="0.03021">
        <ele>119.2</ele>
        <time>2023-09-03T06:18:03Z</time>
      </trkpt>
      <trkpt lat="49.30335" lon="0.03033">
        <ele>118.9</ele>
        <time>2023-09-03T06:18:04Z</time>
      </trkpt>
      <trkpt lat="49.30341" lon="0.03044">
        <ele>118.6</ele>
        <time>2023-09-03T06:18:05Z</time>
      </trkpt>
      <trkpt lat="49.30347" lon="0.03055">
        <ele>118.3</ele>
        <time>2023-09-03T06:18:06Z</time>
      </trkpt>
      <trkpt lat="49.30353" lon="0.03067">
        <ele>117.9</ele>
        <time>2023-09-03T06:18:07Z</time>
      </trkpt>
      <trkpt lat="49.30359" lon="0.03078">
        <ele>117.6</ele>
        <time>2023-09-03T06:18:08Z</time>
      </trkpt>
      <trkpt lat="49.30365" lon="0.0309">
        <ele>117.2</ele>
        <time>2023-09-03T06:18:09Z</time>
      </trkpt>
      <trkpt lat="49.30371" lon="0.03102">
        <ele>116.7</ele>
        <time>2023-09-03T06:18:10Z</time>
      </trkpt>
      <trkpt lat="49.30376" lon="0.03115">
        <ele>116.1</ele>
        <time>2023-09-03T06:18:11Z</time>
      </trkpt>
      <trkpt lat="49.30382" lon="0.03128">
        <ele>115.5</ele>
        <time>2023-09-03T06:18:12Z</time>
      </trkpt>
      <trkpt lat="49.30387" lon="0.03142">
        <ele>114.8</ele>
        <time>2023-09-03T06:18:13Z</time>
      </trkpt>
      <trkpt lat="49.30393" lon="0.03156">
        <ele>114</ele>
        <time>2023-09-03T06:18:14Z</time>
      </trkpt>
      <trkpt lat="49.30398" lon="0.03171">
        <ele>113.2</ele>
        <time>2023-09-03T06:18:15Z</time>
      </trkpt>
      <trkpt lat="49.30404" lon="0.03185">
        <ele>112.2</ele>
        <time>2023-09-03T06:18:16Z</time>
      </trkpt>
      <trkpt lat="49.3041" lon="0.03201">
        <ele>111.2</ele>
        <time>2023-09-03T06:18:17Z</time>
      </trkpt>
      <trkpt lat="49.30416" lon="0.03216">
        <ele>110.2</ele>
        <time>2023-09-03T06:18:18Z</time>
      </trkpt>
      <trkpt lat="49.30421" lon="0.03232">
        <ele>109.1</ele>
        <time>2023-09-03T06:18:19Z</time>
      </trkpt>
      <trkpt lat="49.30426" lon="0.03249">
        <ele>107.9</ele>
        <time>2023-09-03T06:18:20Z</time>
      </trkpt>
      <trkpt lat="49.30429" lon="0.03268">
        <ele>106.6</ele>
        <time>2023-09-03T06:18:21Z</time>
      </trkpt>
      <trkpt lat="49.30433" lon="0.03287">
        <ele>105.4</ele>
        <time>2023-09-03T06:18:22Z</time>
      </trkpt>
      <trkpt lat="49.30437" lon="0.03306">
        <ele>103.9</ele>
        <time>2023-09-03T06:18:23Z</time>
      </trkpt>
      <trkpt lat="49.3044" lon="0.03326">
        <ele>102.2</ele>
        <time>2023-09-03T06:18:24Z</time>
      </trkpt>
      <trkpt lat="49.30444" lon="0.03347">
        <ele>100.4</ele>
        <time>2023-09-03T06:18:25Z</time>
      </trkpt>
      <trkpt lat="49.30447" lon="0.03369">
        <ele>98.4</ele>
        <time>2023-09-03T06:18:26Z</time>
      </trkpt>
      <trkpt lat="49.30451" lon="0.03392">
        <ele>96.4</ele>
        <time>2023-09-03T06:18:27Z</time>
      </trkpt>
      <trkpt lat="49.30456" lon="0.03415">
        <ele>94.7</ele>
        <time>2023-09-03T06:18:28Z</time>
      </trkpt>
      <trkpt lat="49.3046" lon="0.03438">
        <ele>93.1</ele>
        <time>2023-09-03T06:18:29Z</time>
      </trkpt>
      <trkpt lat="49.30464" lon="0.0346">
        <ele>91.7</ele>
        <time>2023-09-03T06:18:30Z</time>
      </trkpt>
      <trkpt lat="49.30469" lon="0.03481">
        <ele>90.3</ele>
        <time>2023-09-03T06:18:31Z</time>
      </trkpt>
      <trkpt lat="49.30474" lon="0.03503">
        <ele>89</ele>
        <time>2023-09-03T06:18:32Z</time>
      </trkpt>
      <trkpt lat="49.3048" lon="0.03525">
        <ele>87.6</ele>
        <time>2023-09-03T06:18:33Z</time>
      </trkpt>
      <trkpt lat="49.30485" lon="0.03546">
        <ele>86.4</ele>
        <time>2023-09-03T06:18:34Z</time>
      </trkpt>
      <trkpt lat="49.30489" lon="0.03568">
        <ele>85.1</ele>
        <time>2023-09-03T06:18:35Z</time>
      </trkpt>
      <trkpt lat="49.30493" lon="0.03591">
        <ele>83.6</ele>
        <time>2023-09-03T06:18:36Z</time>
      </trkpt>
      <trkpt lat="49.30497" lon="0.03613">
        <ele>82.1</ele>
        <time>2023-09-03T06:18:37Z</time>
      </trkpt>
      <trkpt lat="49.305" lon="0.03636">
        <ele>80.5</ele>
        <time>2023-09-03T06:18:38Z</time>
      </trkpt>
      <trkpt lat="49.30502" lon="0.03658">
        <ele>79</ele>
        <time>2023-09-03T06:18:39Z</time>
      </trkpt>
      <trkpt lat="49.30506" lon="0.0368">
        <ele>77.5</ele>
        <time>2023-09-03T06:18:40Z</time>
      </trkpt>
      <trkpt lat="49.3051" lon="0.03702">
        <ele>76.1</ele>
        <time>2023-09-03T06:18:41Z</time>
      </trkpt>
      <trkpt lat="49.30516" lon="0.03724">
        <ele>74.8</ele>
        <time>2023-09-03T06:18:42Z</time>
      </trkpt>
      <trkpt lat="49.30522" lon="0.03745">
        <ele>73.6</ele>
        <time>2023-09-03T06:18:43Z</time>
      </trkpt>
      <trkpt lat="49.30529" lon="0.03766">
        <ele>72.6</ele>
        <time>2023-09-03T06:18:44Z</time>
      </trkpt>
      <trkpt lat="49.30536" lon="0.03786">
        <ele>71.5</ele>
        <time>2023-09-03T06:18:45Z</time>
      </trkpt>
      <trkpt lat="49.30541" lon="0.03807">
        <ele>70.4</ele>
        <time>2023-09-03T06:18:46Z</time>
      </trkpt>
      <trkpt lat="49.30546" lon="0.03828">
        <ele>69.5</ele>
        <time>2023-09-03T06:18:47Z</time>
      </trkpt>
      <trkpt lat="49.30551" lon="0.03848">
        <ele>68.7</ele>
        <time>2023-09-03T06:18:48Z</time>
      </trkpt>
      <trkpt lat="49.30557" lon="0.03868">
        <ele>68.2</ele>
        <time>2023-09-03T06:18:49Z</time>
      </trkpt>
      <trkpt lat="49.30562" lon="0.03888">
        <ele>67.7</ele>
        <time>2023-09-03T06:18:50Z</time>
      </trkpt>
      <trkpt lat="49.30567" lon="0.03906">
        <ele>67.3</ele>
        <time>2023-09-03T06:18:51Z</time>
      </trkpt>
      <trkpt lat="49.30573" lon="0.03923">
        <ele>67.1</ele>
        <time>2023-09-03T06:18:52Z</time>
      </trkpt>
      <trkpt lat="49.30579" lon="0.03939">
        <ele>66.9</ele>
        <time>2023-09-03T06:18:53Z</time>
      </trkpt>
      <trkpt lat="49.30588" lon="0.03953">
        <ele>66.8</ele>
        <time>2023-09-03T06:18:54Z</time>
      </trkpt>
      <trkpt lat="49.30596" lon="0.03965">
        <ele>66.8</ele>
        <time>2023-09-03T06:18:55Z</time>
      </trkpt>
      <trkpt lat="49.30605" lon="0.03977">
        <ele>66.9</ele>
        <time>2023-09-03T06:18:56Z</time>
      </trkpt>
      <trkpt lat="49.30613" lon="0.03989">
        <ele>66.9</ele>
        <time>2023-09-03T06:18:57Z</time>
      </trkpt>
      <trkpt lat="49.30621" lon="0.04001">
        <ele>67</ele>
        <time>2023-09-03T06:18:58Z</time>
      </trkpt>
      <trkpt lat="49.30629" lon="0.04012">
        <ele>67.2</ele>
        <time>2023-09-03T06:18:59Z</time>
      </trkpt>
      <trkpt lat="49.30635" lon="0.04022">
        <ele>67.3</ele>
        <time>2023-09-03T06:19:00Z</time>
      </trkpt>
      <trkpt lat="49.30642" lon="0.04033">
        <ele>67.4</ele>
        <time>2023-09-03T06:19:01Z</time>
      </trkpt>
      <trkpt lat="49.30647" lon="0.04043">
        <ele>67.5</ele>
        <time>2023-09-03T06:19:02Z</time>
      </trkpt>
      <trkpt lat="49.30651" lon="0.04054">
        <ele>67.6</ele>
        <time>2023-09-03T06:19:03Z</time>
      </trkpt>
      <trkpt lat="49.30653" lon="0.04065">
        <ele>67.7</ele>
        <time>2023-09-03T06:19:04Z</time>
      </trkpt>
      <trkpt lat="49.30655" lon="0.04075">
        <ele>67.8</ele>
        <time>2023-09-03T06:19:05Z</time>
      </trkpt>
      <trkpt lat="49.30658" lon="0.04086">
        <ele>67.7</ele>
        <time>2023-09-03T06:19:06Z</time>
      </trkpt>
      <trkpt lat="49.30663" lon="0.04093">
        <ele>67.5</ele>
        <time>2023-09-03T06:19:07Z</time>
      </trkpt>
      <trkpt lat="49.3067" lon="0.04096">
        <ele>67.4</ele>
        <time>2023-09-03T06:19:08Z</time>
      </trkpt>
      <trkpt lat="49.30678" lon="0.04096">
        <ele>67.6</ele>
        <time>2023-09-03T06:19:09Z</time>
      </trkpt>
      <trkpt lat="49.30686" lon="0.04096">
        <ele>67.7</ele>
        <time>2023-09-03T06:19:10Z</time>
      </trkpt>
      <trkpt lat="49.30693" lon="0.04097">
        <ele>67.8</ele>
        <time>2023-09-03T06:19:11Z</time>
      </trkpt>
      <trkpt lat="49.307" lon="0.041">
        <ele>67.8</ele>
        <time>2023-09-03T06:19:12Z</time>
      </trkpt>
      <trkpt lat="49.30707" lon="0.04104">
        <ele>67.8</ele>
        <time>2023-09-03T06:19:13Z</time>
      </trkpt>
      <trkpt lat="49.30714" lon="0.04108">
        <ele>67.8</ele>
        <time>2023-09-03T06:19:14Z</time>
      </trkpt>
      <trkpt lat="49.30721" lon="0.04113">
        <ele>67.7</ele>
        <time>2023-09-03T06:19:15Z</time>
      </trkpt>
      <trkpt lat="49.30728" lon="0.04118">
        <ele>67.6</ele>
        <time>2023-09-03T06:19:16Z</time>
      </trkpt>
      <trkpt lat="49.30735" lon="0.04124">
        <ele>67.5</ele>
        <time>2023-09-03T06:19:17Z</time>
      </trkpt>
      <trkpt lat="49.30742" lon="0.0413">
        <ele>67.4</ele>
        <time>2023-09-03T06:19:18Z</time>
      </trkpt>
      <trkpt lat="49.30749" lon="0.04138">
        <ele>67.4</ele>
        <time>2023-09-03T06:19:19Z</time>
      </trkpt>
      <trkpt lat="49.30756" lon="0.04146">
        <ele>67.3</ele>
        <time>2023-09-03T06:19:20Z</time>
      </trkpt>
      <trkpt lat="49.30763" lon="0.04154">
        <ele>67.2</ele>
        <time>2023-09-03T06:19:21Z</time>
      </trkpt>
      <trkpt lat="49.30769" lon="0.04162">
        <ele>67.1</ele>
        <time>2023-09-03T06:19:22Z</time>
      </trkpt>
      <trkpt lat="49.30776" lon="0.0417">
        <ele>67</ele>
        <time>2023-09-03T06:19:23Z</time>
      </trkpt>
      <trkpt lat="49.30782" lon="0.04178">
        <ele>66.9</ele>
        <time>2023-09-03T06:19:24Z</time>
      </trkpt>
      <trkpt lat="49.30789" lon="0.04185">
        <ele>66.8</ele>
        <time>2023-09-03T06:19:25Z</time>
      </trkpt>
      <trkpt lat="49.30796" lon="0.04193">
        <ele>66.7</ele>
        <time>2023-09-03T06:19:26Z</time>
      </trkpt>
      <trkpt lat="49.30802" lon="0.042">
        <ele>66.6</ele>
        <time>2023-09-03T06:19:27Z</time>
      </trkpt>
      <trkpt lat="49.3081" lon="0.04208">
        <ele>66.5</ele>
        <time>2023-09-03T06:19:28Z</time>
      </trkpt>
      <trkpt lat="49.30817" lon="0.04216">
        <ele>66.4</ele>
        <time>2023-09-03T06:19:29Z</time>
      </trkpt>
      <trkpt lat="49.30823" lon="0.04224">
        <ele>66.3</ele>
        <time>2023-09-03T06:19:30Z</time>
      </trkpt>
      <trkpt lat="49.3083" lon="0.04232">
        <ele>66.2</ele>
        <time>2023-09-03T06:19:31Z</time>
      </trkpt>
      <trkpt lat="49.30837" lon="0.0424">
        <ele>66.1</ele>
        <time>2023-09-03T06:19:32Z</time>
      </trkpt>
      <trkpt lat="49.30844" lon="0.04247">
        <ele>65.9</ele>
        <time>2023-09-03T06:19:33Z</time>
      </trkpt>
      <trkpt lat="49.3085" lon="0.04254">
        <ele>65.8</ele>
        <time>2023-09-03T06:19:34Z</time>
      </trkpt>
      <trkpt lat="49.30856" lon="0.04261">
        <ele>65.6</ele>
        <time>2023-09-03T06:19:35Z</time>
      </trkpt>
      <trkpt lat="49.30863" lon="0.04268">
        <ele>65.5</ele>
        <time>2023-09-03T06:19:36Z</time>
      </trkpt>
      <trkpt lat="49.3087" lon="0.04276">
        <ele>65.3</ele>
        <time>2023-09-03T06:19:37Z</time>
      </trkpt>
      <trkpt lat="49.30877" lon="0.04283">
        <ele>65.1</ele>
        <time>2023-09-03T06:19:38Z</time>
      </trkpt>
      <trkpt lat="49.30884" lon="0.0429">
        <ele>64.9</ele>
        <time>2023-09-03T06:19:39Z</time>
      </trkpt>
      <trkpt lat="49.30891" lon="0.04298">
        <ele>64.7</ele>
        <time>2023-09-03T06:19:40Z</time>
      </trkpt>
      <trkpt lat="49.30899" lon="0.04305">
        <ele>64.5</ele>
        <time>2023-09-03T06:19:41Z</time>
      </trkpt>
      <trkpt lat="49.30905" lon="0.04313">
        <ele>64.3</ele>
        <time>2023-09-03T06:19:42Z</time>
      </trkpt>
      <trkpt lat="49.30912" lon="0.04321">
        <ele>64</ele>
        <time>2023-09-03T06:19:43Z</time>
      </trkpt>
      <trkpt lat="49.3092" lon="0.04329">
        <ele>63.8</ele>
        <time>2023-09-03T06:19:44Z</time>
      </trkpt>
      <trkpt lat="49.30927" lon="0.04337">
        <ele>63.5</ele>
        <time>2023-09-03T06:19:45Z</time>
      </trkpt>
      <trkpt lat="49.30934" lon="0.04344">
        <ele>63.3</ele>
        <time>2023-09-03T06:19:46Z</time>
      </trkpt>
      <trkpt lat="49.30941" lon="0.04352">
        <ele>63</ele>
        <time>2023-09-03T06:19:47Z</time>
      </trkpt>
      <trkpt lat="49.30948" lon="0.0436">
        <ele>62.8</ele>
        <time>2023-09-03T06:19:48Z</time>
      </trkpt>
      <trkpt lat="49.30956" lon="0.04368">
        <ele>62.7</ele>
        <time>2023-09-03T06:19:49Z</time>
      </trkpt>
      <trkpt lat="49.30963" lon="0.04376">
        <ele>62.5</ele>
        <time>2023-09-03T06:19:50Z</time>
      </trkpt>
      <trkpt lat="49.3097" lon="0.04384">
        <ele>62.3</ele>
        <time>2023-09-03T06:19:51Z</time>
      </trkpt>
      <trkpt lat="49.30977" lon="0.04392">
        <ele>62.1</ele>
        <time>2023-09-03T06:19:52Z</time>
      </trkpt>
      <trkpt lat="49.30984" lon="0.04399">
        <ele>61.9</ele>
        <time>2023-09-03T06:19:53Z</time>
      </trkpt>
      <trkpt lat="49.30992" lon="0.04407">
        <ele>61.8</ele>
        <time>2023-09-03T06:19:54Z</time>
      </trkpt>
      <trkpt lat="49.30999" lon="0.04415">
        <ele>61.6</ele>
        <time>2023-09-03T06:19:55Z</time>
      </trkpt>
      <trkpt lat="49.31006" lon="0.04422">
        <ele>61.5</ele>
        <time>2023-09-03T06:19:56Z</time>
      </trkpt>
      <trkpt lat="49.31014" lon="0.0443">
        <ele>61.4</ele>
        <time>2023-09-03T06:19:57Z</time>
      </trkpt>
      <trkpt lat="49.31021" lon="0.04436">
        <ele>61.3</ele>
        <time>2023-09-03T06:19:58Z</time>
      </trkpt>
      <trkpt lat="49.31029" lon="0.04444">
        <ele>61.2</ele>
        <time>2023-09-03T06:19:59Z</time>
      </trkpt>
      <trkpt lat="49.31036" lon="0.04451">
        <ele>61.1</ele>
        <time>2023-09-03T06:20:00Z</time>
      </trkpt>
      <trkpt lat="49.31044" lon="0.04458">
        <ele>61</ele>
        <time>2023-09-03T06:20:01Z</time>
      </trkpt>
      <trkpt lat="49.31051" lon="0.04465">
        <ele>60.9</ele>
        <time>2023-09-03T06:20:02Z</time>
      </trkpt>
      <trkpt lat="49.31059" lon="0.04472">
        <ele>60.8</ele>
        <time>2023-09-03T06:20:03Z</time>
      </trkpt>
      <trkpt lat="49.31066" lon="0.04479">
        <ele>60.7</ele>
        <time>2023-09-03T06:20:04Z</time>
      </trkpt>
      <trkpt lat="49.31074" lon="0.04487">
        <ele>60.6</ele>
        <time>2023-09-03T06:20:05Z</time>
      </trkpt>
      <trkpt lat="49.31081" lon="0.04494">
        <ele>60.5</ele>
        <time>2023-09-03T06:20:06Z</time>
      </trkpt>
      <trkpt lat="49.31089" lon="0.04502">
        <ele>60.4</ele>
        <time>2023-09-03T06:20:07Z</time>
      </trkpt>
      <trkpt lat="49.31096" lon="0.04509">
        <ele>60.4</ele>
        <time>2023-09-03T06:20:08Z</time>
      </trkpt>
      <trkpt lat="49.31103" lon="0.04516">
        <ele>60.3</ele>
        <time>2023-09-03T06:20:09Z</time>
      </trkpt>
      <trkpt lat="49.31111" lon="0.04523">
        <ele>60.3</ele>
        <time>2023-09-03T06:20:10Z</time>
      </trkpt>
      <trkpt lat="49.31118" lon="0.04529">
        <ele>60.3</ele>
        <time>2023-09-03T06:20:11Z</time>
      </trkpt>
      <trkpt lat="49.31126" lon="0.04536">
        <ele>60.2</ele>
        <time>2023-09-03T06:20:12Z</time>
      </trkpt>
      <trkpt lat="49.31133" lon="0.04543">
        <ele>60.2</ele>
        <time>2023-09-03T06:20:13Z</time>
      </trkpt>
      <trkpt lat="49.3114" lon="0.04549">
        <ele>60.1</ele>
        <time>2023-09-03T06:20:14Z</time>
      </trkpt>
      <trkpt lat="49.31148" lon="0.04556">
        <ele>60.1</ele>
        <time>2023-09-03T06:20:15Z</time>
      </trkpt>
      <trkpt lat="49.31156" lon="0.04562">
        <ele>60.1</ele>
        <time>2023-09-03T06:20:16Z</time>
      </trkpt>
      <trkpt lat="49.31163" lon="0.04568">
        <ele>60.1</ele>
        <time>2023-09-03T06:20:17Z</time>
      </trkpt>
      <trkpt lat="49.3117" lon="0.04574">
        <ele>60.1</ele>
        <time>2023-09-03T06:20:18Z</time>
      </trkpt>
      <trkpt lat="49.31178" lon="0.0458">
        <ele>60.1</ele>
        <time>2023-09-03T06:20:19Z</time>
      </trkpt>
      <trkpt lat="49.31185" lon="0.04587">
        <ele>60</ele>
        <time>2023-09-03T06:20:20Z</time>
      </trkpt>
      <trkpt lat="49.31193" lon="0.04593">
        <ele>59.8</ele>
        <time>2023-09-03T06:20:21Z</time>
      </trkpt>
      <trkpt lat="49.312" lon="0.046">
        <ele>59.6</ele>
        <time>2023-09-03T06:20:22Z</time>
      </trkpt>
      <trkpt lat="49.31208" lon="0.04606">
        <ele>59.5</ele>
        <time>2023-09-03T06:20:23Z</time>
      </trkpt>
      <trkpt lat="49.31215" lon="0.04613">
        <ele>59.4</ele>
        <time>2023-09-03T06:20:24Z</time>
      </trkpt>
      <trkpt lat="49.31223" lon="0.04618">
        <ele>59.3</ele>
        <time>2023-09-03T06:20:25Z</time>
      </trkpt>
      <trkpt lat="49.31231" lon="0.04625">
        <ele>59.1</ele>
        <time>2023-09-03T06:20:26Z</time>
      </trkpt>
      <trkpt lat="49.31239" lon="0.04632">
        <ele>58.9</ele>
        <time>2023-09-03T06:20:27Z</time>
      </trkpt>
      <trkpt lat="49.31246" lon="0.0464">
        <ele>58.7</ele>
        <time>2023-09-03T06:20:28Z</time>
      </trkpt>
      <trkpt lat="49.31253" lon="0.04648">
        <ele>58.5</ele>
        <time>2023-09-03T06:20:29Z</time>
      </trkpt>
      <trkpt lat="49.31261" lon="0.04655">
        <ele>58.3</ele>
        <time>2023-09-03T06:20:30Z</time>
      </trkpt>
      <trkpt lat="49.31269" lon="0.04663">
        <ele>58</ele>
        <time>2023-09-03T06:20:31Z</time>
      </trkpt>
      <trkpt lat="49.31277" lon="0.04672">
        <ele>57.8</ele>
        <time>2023-09-03T06:20:32Z</time>
      </trkpt>
      <trkpt lat="49.31284" lon="0.0468">
        <ele>57.5</ele>
        <time>2023-09-03T06:20:33Z</time>
      </trkpt>
      <trkpt lat="49.31292" lon="0.04688">
        <ele>57.2</ele>
        <time>2023-09-03T06:20:34Z</time>
      </trkpt>
      <trkpt lat="49.313" lon="0.04696">
        <ele>56.9</ele>
        <time>2023-09-03T06:20:35Z</time>
      </trkpt>
      <trkpt lat="49.31308" lon="0.04704">
        <ele>56.5</ele>
        <time>2023-09-03T06:20:36Z</time>
      </trkpt>
      <trkpt lat="49.31316" lon="0.04712">
        <ele>56</ele>
        <time>2023-09-03T06:20:37Z</time>
      </trkpt>
      <trkpt lat="49.31324" lon="0.04719">
        <ele>55.5</ele>
        <time>2023-09-03T06:20:38Z</time>
      </trkpt>
      <trkpt lat="49.31333" lon="0.04726">
        <ele>55</ele>
        <time>2023-09-03T06:20:39Z</time>
      </trkpt>
      <trkpt lat="49.31341" lon="0.04734">
        <ele>54.4</ele>
        <time>2023-09-03T06:20:40Z</time>
      </trkpt>
      <trkpt lat="49.31349" lon="0.04742">
        <ele>53.8</ele>
        <time>2023-09-03T06:20:41Z</time>
      </trkpt>
      <trkpt lat="49.31358" lon="0.04751">
        <ele>53.2</ele>
        <time>2023-09-03T06:20:42Z</time>
      </trkpt>
      <trkpt lat="49.31366" lon="0.04762">
        <ele>52.6</ele>
        <time>2023-09-03T06:20:43Z</time>
      </trkpt>
      <trkpt lat="49.31374" lon="0.04771">
        <ele>52</ele>
        <time>2023-09-03T06:20:44Z</time>
      </trkpt>
      <trkpt lat="49.31382" lon="0.04781">
        <ele>51.3</ele>
        <time>2023-09-03T06:20:45Z</time>
      </trkpt>
      <trkpt lat="49.31391" lon="0.04792">
        <ele>50.7</ele>
        <time>2023-09-03T06:20:46Z</time>
      </trkpt>
      <trkpt lat="49.31401" lon="0.04801">
        <ele>50.2</ele>
        <time>2023-09-03T06:20:47Z</time>
      </trkpt>
      <trkpt lat="49.3141" lon="0.04811">
        <ele>49.7</ele>
        <time>2023-09-03T06:20:48Z</time>
      </trkpt>
      <trkpt lat="49.31419" lon="0.04821">
        <ele>49.2</ele>
        <time>2023-09-03T06:20:49Z</time>
      </trkpt>
      <trkpt lat="49.31428" lon="0.04832">
        <ele>48.7</ele>
        <time>2023-09-03T06:20:50Z</time>
      </trkpt>
      <trkpt lat="49.31436" lon="0.04844">
        <ele>48.2</ele>
        <time>2023-09-03T06:20:51Z</time>
      </trkpt>
      <trkpt lat="49.31445" lon="0.04854">
        <ele>47.8</ele>
        <time>2023-09-03T06:20:52Z</time>
      </trkpt>
      <trkpt lat="49.31454" lon="0.04864">
        <ele>47.4</ele>
        <time>2023-09-03T06:20:53Z</time>
      </trkpt>
      <trkpt lat="49.31462" lon="0.04874">
        <ele>47</ele>
        <time>2023-09-03T06:20:54Z</time>
      </trkpt>
      <trkpt lat="49.31471" lon="0.04884">
        <ele>46.6</ele>
        <time>2023-09-03T06:20:55Z</time>
      </trkpt>
      <trkpt lat="49.3148" lon="0.04894">
        <ele>46.2</ele>
        <time>2023-09-03T06:20:56Z</time>
      </trkpt>
      <trkpt lat="49.31488" lon="0.04905">
        <ele>45.8</ele>
        <time>2023-09-03T06:20:57Z</time>
      </trkpt>
      <trkpt lat="49.31497" lon="0.04916">
        <ele>45.4</ele>
        <time>2023-09-03T06:20:58Z</time>
      </trkpt>
      <trkpt lat="49.31506" lon="0.04927">
        <ele>44.9</ele>
        <time>2023-09-03T06:20:59Z</time>
      </trkpt>
      <trkpt lat="49.31514" lon="0.04938">
        <ele>44.5</ele>
        <time>2023-09-03T06:21:00Z</time>
      </trkpt>
      <trkpt lat="49.31523" lon="0.04949">
        <ele>44.1</ele>
        <time>2023-09-03T06:21:01Z</time>
      </trkpt>
      <trkpt lat="49.31531" lon="0.0496">
        <ele>43.6</ele>
        <time>2023-09-03T06:21:02Z</time>
      </trkpt>
      <trkpt lat="49.31539" lon="0.04972">
        <ele>43.1</ele>
        <time>2023-09-03T06:21:03Z</time>
      </trkpt>
      <trkpt lat="49.31547" lon="0.04984">
        <ele>42.6</ele>
        <time>2023-09-03T06:21:04Z</time>
      </trkpt>
      <trkpt lat="49.31554" lon="0.04996">
        <ele>42.1</ele>
        <time>2023-09-03T06:21:05Z</time>
      </trkpt>
      <trkpt lat="49.31562" lon="0.05009">
        <ele>41.5</ele>
        <time>2023-09-03T06:21:06Z</time>
      </trkpt>
      <trkpt lat="49.3157" lon="0.05022">
        <ele>41</ele>
        <time>2023-09-03T06:21:07Z</time>
      </trkpt>
      <trkpt lat="49.31578" lon="0.05035">
        <ele>40.5</ele>
        <time>2023-09-03T06:21:08Z</time>
      </trkpt>
      <trkpt lat="49.31585" lon="0.05049">
        <ele>39.9</ele>
        <time>2023-09-03T06:21:09Z</time>
      </trkpt>
      <trkpt lat="49.31593" lon="0.05062">
        <ele>39.3</ele>
        <time>2023-09-03T06:21:10Z</time>
      </trkpt>
      <trkpt lat="49.31601" lon="0.05075">
        <ele>38.8</ele>
        <time>2023-09-03T06:21:11Z</time>
      </trkpt>
      <trkpt lat="49.31608" lon="0.05089">
        <ele>38.2</ele>
        <time>2023-09-03T06:21:12Z</time>
      </trkpt>
      <trkpt lat="49.31616" lon="0.05102">
        <ele>37.6</ele>
        <time>2023-09-03T06:21:13Z</time>
      </trkpt>
      <trkpt lat="49.31624" lon="0.05116">
        <ele>37</ele>
        <time>2023-09-03T06:21:14Z</time>
      </trkpt>
      <trkpt lat="49.31632" lon="0.05128">
        <ele>36.5</ele>
        <time>2023-09-03T06:21:15Z</time>
      </trkpt>
      <trkpt lat="49.3164" lon="0.05141">
        <ele>36.1</ele>
        <time>2023-09-03T06:21:16Z</time>
      </trkpt>
      <trkpt lat="49.31648" lon="0.05154">
        <ele>35.7</ele>
        <time>2023-09-03T06:21:17Z</time>
      </trkpt>
      <trkpt lat="49.31657" lon="0.05167">
        <ele>35.3</ele>
        <time>2023-09-03T06:21:18Z</time>
      </trkpt>
      <trkpt lat="49.31665" lon="0.0518">
        <ele>34.9</ele>
        <time>2023-09-03T06:21:19Z</time>
      </trkpt>
      <trkpt lat="49.31672" lon="0.05193">
        <ele>34.4</ele>
        <time>2023-09-03T06:21:20Z</time>
      </trkpt>
      <trkpt lat="49.3168" lon="0.05207">
        <ele>34</ele>
        <time>2023-09-03T06:21:21Z</time>
      </trkpt>
      <trkpt lat="49.31688" lon="0.0522">
        <ele>33.6</ele>
        <time>2023-09-03T06:21:22Z</time>
      </trkpt>
      <trkpt lat="49.31697" lon="0.05233">
        <ele>33.2</ele>
        <time>2023-09-03T06:21:23Z</time>
      </trkpt>
      <trkpt lat="49.31705" lon="0.05246">
        <ele>32.8</ele>
        <time>2023-09-03T06:21:24Z</time>
      </trkpt>
      <trkpt lat="49.31713" lon="0.05259">
        <ele>32.4</ele>
        <time>2023-09-03T06:21:25Z</time>
      </trkpt>
      <trkpt lat="49.3172" lon="0.05271">
        <ele>32.1</ele>
        <time>2023-09-03T06:21:26Z</time>
      </trkpt>
      <trkpt lat="49.31728" lon="0.05285">
        <ele>31.8</ele>
        <time>2023-09-03T06:21:27Z</time>
      </trkpt>
      <trkpt lat="49.31735" lon="0.05298">
        <ele>31.5</ele>
        <time>2023-09-03T06:21:28Z</time>
      </trkpt>
      <trkpt lat="49.31743" lon="0.05312">
        <ele>31.2</ele>
        <time>2023-09-03T06:21:29Z</time>
      </trkpt>
      <trkpt lat="49.3175" lon="0.05326">
        <ele>31</ele>
        <time>2023-09-03T06:21:30Z</time>
      </trkpt>
      <trkpt lat="49.31757" lon="0.0534">
        <ele>30.9</ele>
        <time>2023-09-03T06:21:31Z</time>
      </trkpt>
      <trkpt lat="49.31763" lon="0.05353">
        <ele>30.7</ele>
        <time>2023-09-03T06:21:32Z</time>
      </trkpt>
      <trkpt lat="49.3177" lon="0.05367">
        <ele>30.5</ele>
        <time>2023-09-03T06:21:33Z</time>
      </trkpt>
      <trkpt lat="49.31775" lon="0.05381">
        <ele>30.3</ele>
        <time>2023-09-03T06:21:34Z</time>
      </trkpt>
      <trkpt lat="49.31781" lon="0.05395">
        <ele>30.2</ele>
        <time>2023-09-03T06:21:35Z</time>
      </trkpt>
      <trkpt lat="49.31787" lon="0.05409">
        <ele>30.1</ele>
        <time>2023-09-03T06:21:36Z</time>
      </trkpt>
      <trkpt lat="49.31793" lon="0.05423">
        <ele>30</ele>
        <time>2023-09-03T06:21:37Z</time>
      </trkpt>
      <trkpt lat="49.31799" lon="0.05437">
        <ele>30</ele>
        <time>2023-09-03T06:21:38Z</time>
      </trkpt>
      <trkpt lat="49.31806" lon="0.05451">
        <ele>29.9</ele>
        <time>2023-09-03T06:21:39Z</time>
      </trkpt>
      <trkpt lat="49.31812" lon="0.05464">
        <ele>29.8</ele>
        <time>2023-09-03T06:21:40Z</time>
      </trkpt>
      <trkpt lat="49.31818" lon="0.05478">
        <ele>29.7</ele>
        <time>2023-09-03T06:21:41Z</time>
      </trkpt>
      <trkpt lat="49.31825" lon="0.05492">
        <ele>29.6</ele>
        <time>2023-09-03T06:21:42Z</time>
      </trkpt>
      <trkpt lat="49.31831" lon="0.05505">
        <ele>29.5</ele>
        <time>2023-09-03T06:21:43Z</time>
      </trkpt>
      <trkpt lat="49.31837" lon="0.05518">
        <ele>29.3</ele>
        <time>2023-09-03T06:21:44Z</time>
      </trkpt>
      <trkpt lat="49.31843" lon="0.05531">
        <ele>29</ele>
        <time>2023-09-03T06:21:45Z</time>
      </trkpt>
      <trkpt lat="49.31849" lon="0.05545">
        <ele>28.7</ele>
        <time>2023-09-03T06:21:46Z</time>
      </trkpt>
      <trkpt lat="49.31855" lon="0.05558">
        <ele>28.3</ele>
        <time>2023-09-03T06:21:47Z</time>
      </trkpt>
      <trkpt lat="49.31861" lon="0.05572">
        <ele>28</ele>
        <time>2023-09-03T06:21:48Z</time>
      </trkpt>
      <trkpt lat="49.31867" lon="0.05585">
        <ele>27.7</ele>
        <time>2023-09-03T06:21:49Z</time>
      </trkpt>
      <trkpt lat="49.31873" lon="0.05598">
        <ele>27.4</ele>
        <time>2023-09-03T06:21:50Z</time>
      </trkpt>
      <trkpt lat="49.31879" lon="0.05613">
        <ele>27.2</ele>
        <time>2023-09-03T06:21:51Z</time>
      </trkpt>
      <trkpt lat="49.31885" lon="0.05627">
        <ele>26.9</ele>
        <time>2023-09-03T06:21:52Z</time>
      </trkpt>
      <trkpt lat="49.31891" lon="0.05641">
        <ele>26.7</ele>
        <time>2023-09-03T06:21:53Z</time>
      </trkpt>
      <trkpt lat="49.31897" lon="0.05655">
        <ele>26.4</ele>
        <time>2023-09-03T06:21:54Z</time>
      </trkpt>
      <trkpt lat="49.31904" lon="0.05669">
        <ele>26.3</ele>
        <time>2023-09-03T06:21:55Z</time>
      </trkpt>
      <trkpt lat="49.3191" lon="0.05683">
        <ele>26</ele>
        <time>2023-09-03T06:21:56Z</time>
      </trkpt>
      <trkpt lat="49.31917" lon="0.05696">
        <ele>25.5</ele>
        <time>2023-09-03T06:21:57Z</time>
      </trkpt>
      <trkpt lat="49.31924" lon="0.05711">
        <ele>25</ele>
        <time>2023-09-03T06:21:58Z</time>
      </trkpt>
      <trkpt lat="49.31931" lon="0.05725">
        <ele>24.6</ele>
        <time>2023-09-03T06:21:59Z</time>
      </trkpt>
      <trkpt lat="49.31938" lon="0.05738">
        <ele>24.1</ele>
        <time>2023-09-03T06:22:00Z</time>
      </trkpt>
      <trkpt lat="49.31945" lon="0.05752">
        <ele>23.6</ele>
        <time>2023-09-03T06:22:01Z</time>
      </trkpt>
      <trkpt lat="49.31952" lon="0.05764">
        <ele>23.3</ele>
        <time>2023-09-03T06:22:02Z</time>
      </trkpt>
      <trkpt lat="49.3196" lon="0.05777">
        <ele>22.9</ele>
        <time>2023-09-03T06:22:03Z</time>
      </trkpt>
      <trkpt lat="49.31968" lon="0.05789">
        <ele>22.4</ele>
        <time>2023-09-03T06:22:04Z</time>
      </trkpt>
      <trkpt lat="49.31975" lon="0.05801">
        <ele>22</ele>
        <time>2023-09-03T06:22:05Z</time>
      </trkpt>
      <trkpt lat="49.31983" lon="0.05813">
        <ele>21.6</ele>
        <time>2023-09-03T06:22:06Z</time>
      </trkpt>
      <trkpt lat="49.31992" lon="0.05824">
        <ele>21.3</ele>
        <time>2023-09-03T06:22:07Z</time>
      </trkpt>
      <trkpt lat="49.32" lon="0.05836">
        <ele>21</ele>
        <time>2023-09-03T06:22:08Z</time>
      </trkpt>
      <trkpt lat="49.32008" lon="0.05849">
        <ele>20.7</ele>
        <time>2023-09-03T06:22:09Z</time>
      </trkpt>
      <trkpt lat="49.32016" lon="0.05861">
        <ele>20.5</ele>
        <time>2023-09-03T06:22:10Z</time>
      </trkpt>
      <trkpt lat="49.32024" lon="0.05873">
        <ele>20.4</ele>
        <time>2023-09-03T06:22:11Z</time>
      </trkpt>
      <trkpt lat="49.32032" lon="0.05884">
        <ele>20.3</ele>
        <time>2023-09-03T06:22:12Z</time>
      </trkpt>
      <trkpt lat="49.3204" lon="0.05896">
        <ele>20.4</ele>
        <time>2023-09-03T06:22:13Z</time>
      </trkpt>
      <trkpt lat="49.32048" lon="0.05907">
        <ele>20.4</ele>
        <time>2023-09-03T06:22:14Z</time>
      </trkpt>
      <trkpt lat="49.32055" lon="0.05918">
        <ele>20.4</ele>
        <time>2023-09-03T06:22:15Z</time>
      </trkpt>
      <trkpt lat="49.32063" lon="0.05928">
        <ele>20.4</ele>
        <time>2023-09-03T06:22:16Z</time>
      </trkpt>
      <trkpt lat="49.3207" lon="0.05939">
        <ele>20.4</ele>
        <time>2023-09-03T06:22:17Z</time>
      </trkpt>
      <trkpt lat="49.32078" lon="0.0595">
        <ele>20.4</ele>
        <time>2023-09-03T06:22:18Z</time>
      </trkpt>
      <trkpt lat="49.32086" lon="0.0596">
        <ele>20.4</ele>
        <time>2023-09-03T06:22:19Z</time>
      </trkpt>
      <trkpt lat="49.32094" lon="0.0597">
        <ele>20.4</ele>
        <time>2023-09-03T06:22:20Z</time>
      </trkpt>
      <trkpt lat="49.32101" lon="0.05981">
        <ele>20.3</ele>
        <time>2023-09-03T06:22:21Z</time>
      </trkpt>
      <trkpt lat="49.32109" lon="0.05991">
        <ele>20.2</ele>
        <time>2023-09-03T06:22:22Z</time>
      </trkpt>
      <trkpt lat="49.32117" lon="0.06002">
        <ele>20.2</ele>
        <time>2023-09-03T06:22:23Z</time>
      </trkpt>
      <trkpt lat="49.32124" lon="0.06012">
        <ele>20.2</ele>
        <time>2023-09-03T06:22:24Z</time>
      </trkpt>
      <trkpt lat="49.32131" lon="0.06023">
        <ele>20.3</ele>
        <time>2023-09-03T06:22:25Z</time>
      </trkpt>
      <trkpt lat="49.32139" lon="0.06034">
        <ele>20.3</ele>
        <time>2023-09-03T06:22:26Z</time>
      </trkpt>
      <trkpt lat="49.32146" lon="0.06045">
        <ele>20.3</ele>
        <time>2023-09-03T06:22:27Z</time>
      </trkpt>
      <trkpt lat="49.32153" lon="0.06055">
        <ele>20.3</ele>
        <time>2023-09-03T06:22:28Z</time>
      </trkpt>
      <trkpt lat="49.3216" lon="0.06066">
        <ele>20.2</ele>
        <time>2023-09-03T06:22:29Z</time>
      </trkpt>
      <trkpt lat="49.32167" lon="0.06077">
        <ele>20.2</ele>
        <time>2023-09-03T06:22:30Z</time>
      </trkpt>
      <trkpt lat="49.32173" lon="0.06087">
        <ele>20.1</ele>
        <time>2023-09-03T06:22:31Z</time>
      </trkpt>
      <trkpt lat="49.3218" lon="0.06098">
        <ele>20.1</ele>
        <time>2023-09-03T06:22:32Z</time>
      </trkpt>
      <trkpt lat="49.32187" lon="0.06108">
        <ele>20</ele>
        <time>2023-09-03T06:22:33Z</time>
      </trkpt>
      <trkpt lat="49.32194" lon="0.06118">
        <ele>19.9</ele>
        <time>2023-09-03T06:22:34Z</time>
      </trkpt>
      <trkpt lat="49.322" lon="0.06129">
        <ele>19.9</ele>
        <time>2023-09-03T06:22:35Z</time>
      </trkpt>
      <trkpt lat="49.32206" lon="0.06139">
        <ele>19.9</ele>
        <time>2023-09-03T06:22:36Z</time>
      </trkpt>
      <trkpt lat="49.32212" lon="0.06149">
        <ele>20</ele>
        <time>2023-09-03T06:22:37Z</time>
      </trkpt>
      <trkpt lat="49.32218" lon="0.0616">
        <ele>20</ele>
        <time>2023-09-03T06:22:38Z</time>
      </trkpt>
      <trkpt lat="49.32224" lon="0.06171">
        <ele>20</ele>
        <time>2023-09-03T06:22:39Z</time>
      </trkpt>
      <trkpt lat="49.32229" lon="0.06181">
        <ele>20</ele>
        <time>2023-09-03T06:22:40Z</time>
      </trkpt>
      <trkpt lat="49.32235" lon="0.06192">
        <ele>19.9</ele>
        <time>2023-09-03T06:22:41Z</time>
      </trkpt>
      <trkpt lat="49.32239" lon="0.06202">
        <ele>19.9</ele>
        <time>2023-09-03T06:22:42Z</time>
      </trkpt>
      <trkpt lat="49.32244" lon="0.06211">
        <ele>19.9</ele>
        <time>2023-09-03T06:22:43Z</time>
      </trkpt>
      <trkpt lat="49.32248" lon="0.0622">
        <ele>19.9</ele>
        <time>2023-09-03T06:22:44Z</time>
      </trkpt>
      <trkpt lat="49.32253" lon="0.06229">
        <ele>19.9</ele>
        <time>2023-09-03T06:22:45Z</time>
      </trkpt>
      <trkpt lat="49.32256" lon="0.06237">
        <ele>19.9</ele>
        <time>2023-09-03T06:22:46Z</time>
      </trkpt>
      <trkpt lat="49.3226" lon="0.06245">
        <ele>20</ele>
        <time>2023-09-03T06:22:47Z</time>
      </trkpt>
      <trkpt lat="49.32263" lon="0.06254">
        <ele>20</ele>
        <time>2023-09-03T06:22:48Z</time>
      </trkpt>
      <trkpt lat="49.32267" lon="0.06262">
        <ele>20</ele>
        <time>2023-09-03T06:22:49Z</time>
      </trkpt>
      <trkpt lat="49.3227" lon="0.0627">
        <ele>20</ele>
        <time>2023-09-03T06:22:50Z</time>
      </trkpt>
      <trkpt lat="49.32273" lon="0.06278">
        <ele>20.1</ele>
        <time>2023-09-03T06:22:51Z</time>
      </trkpt>
      <trkpt lat="49.32277" lon="0.06287">
        <ele>20.1</ele>
        <time>2023-09-03T06:22:52Z</time>
      </trkpt>
      <trkpt lat="49.3228" lon="0.06295">
        <ele>20.1</ele>
        <time>2023-09-03T06:22:53Z</time>
      </trkpt>
      <trkpt lat="49.32284" lon="0.06303">
        <ele>20.1</ele>
        <time>2023-09-03T06:22:54Z</time>
      </trkpt>
      <trkpt lat="49.32288" lon="0.06311">
        <ele>20.1</ele>
        <time>2023-09-03T06:22:55Z</time>
      </trkpt>
      <trkpt lat="49.32291" lon="0.0632">
        <ele>20</ele>
        <time>2023-09-03T06:22:56Z</time>
      </trkpt>
      <trkpt lat="49.32294" lon="0.06329">
        <ele>19.9</ele>
        <time>2023-09-03T06:22:57Z</time>
      </trkpt>
      <trkpt lat="49.32297" lon="0.06339">
        <ele>19.9</ele>
        <time>2023-09-03T06:22:58Z</time>
      </trkpt>
      <trkpt lat="49.323" lon="0.06349">
        <ele>19.8</ele>
        <time>2023-09-03T06:22:59Z</time>
      </trkpt>
      <trkpt lat="49.32303" lon="0.06359">
        <ele>19.7</ele>
        <time>2023-09-03T06:23:00Z</time>
      </trkpt>
      <trkpt lat="49.32305" lon="0.06369">
        <ele>19.6</ele>
        <time>2023-09-03T06:23:01Z</time>
      </trkpt>
      <trkpt lat="49.32308" lon="0.06379">
        <ele>19.5</ele>
        <time>2023-09-03T06:23:02Z</time>
      </trkpt>
      <trkpt lat="49.3231" lon="0.0639">
        <ele>19.4</ele>
        <time>2023-09-03T06:23:03Z</time>
      </trkpt>
      <trkpt lat="49.32312" lon="0.064">
        <ele>19.4</ele>
        <time>2023-09-03T06:23:04Z</time>
      </trkpt>
      <trkpt lat="49.32314" lon="0.0641">
        <ele>19.3</ele>
        <time>2023-09-03T06:23:05Z</time>
      </trkpt>
      <trkpt lat="49.32316" lon="0.06419">
        <ele>19.3</ele>
        <time>2023-09-03T06:23:06Z</time>
      </trkpt>
      <trkpt lat="49.32318" lon="0.06429">
        <ele>19.2</ele>
        <time>2023-09-03T06:23:07Z</time>
      </trkpt>
      <trkpt lat="49.3232" lon="0.06439">
        <ele>19.1</ele>
        <time>2023-09-03T06:23:08Z</time>
      </trkpt>
      <trkpt lat="49.32321" lon="0.06448">
        <ele>19.1</ele>
        <time>2023-09-03T06:23:09Z</time>
      </trkpt>
      <trkpt lat="49.32322" lon="0.06458">
        <ele>19</ele>
        <time>2023-09-03T06:23:10Z</time>
      </trkpt>
      <trkpt lat="49.32324" lon="0.06467">
        <ele>18.9</ele>
        <time>2023-09-03T06:23:11Z</time>
      </trkpt>
      <trkpt lat="49.32325" lon="0.06477">
        <ele>18.8</ele>
        <time>2023-09-03T06:23:12Z</time>
      </trkpt>
      <trkpt lat="49.32327" lon="0.06486">
        <ele>18.8</ele>
        <time>2023-09-03T06:23:13Z</time>
      </trkpt>
      <trkpt lat="49.32329" lon="0.06495">
        <ele>18.7</ele>
        <time>2023-09-03T06:23:14Z</time>
      </trkpt>
      <trkpt lat="49.32333" lon="0.06502">
        <ele>18.6</ele>
        <time>2023-09-03T06:23:15Z</time>
      </trkpt>
      <trkpt lat="49.32339" lon="0.0651">
        <ele>18.5</ele>
        <time>2023-09-03T06:23:16Z</time>
      </trkpt>
      <trkpt lat="49.32345" lon="0.06517">
        <ele>18.3</ele>
        <time>2023-09-03T06:23:17Z</time>
      </trkpt>
      <trkpt lat="49.32351" lon="0.06524">
        <ele>18.1</ele>
        <time>2023-09-03T06:23:18Z</time>
      </trkpt>
      <trkpt lat="49.32357" lon="0.06532">
        <ele>17.8</ele>
        <time>2023-09-03T06:23:19Z</time>
      </trkpt>
      <trkpt lat="49.32363" lon="0.0654">
        <ele>17.6</ele>
        <time>2023-09-03T06:23:20Z</time>
      </trkpt>
      <trkpt lat="49.32369" lon="0.06549">
        <ele>17.4</ele>
        <time>2023-09-03T06:23:21Z</time>
      </trkpt>
      <trkpt lat="49.32374" lon="0.06558">
        <ele>17.3</ele>
        <time>2023-09-03T06:23:22Z</time>
      </trkpt>
      <trkpt lat="49.3238" lon="0.06567">
        <ele>17.1</ele>
        <time>2023-09-03T06:23:23Z</time>
      </trkpt>
      <trkpt lat="49.32386" lon="0.06576">
        <ele>16.9</ele>
        <time>2023-09-03T06:23:24Z</time>
      </trkpt>
      <trkpt lat="49.32392" lon="0.06585">
        <ele>16.8</ele>
        <time>2023-09-03T06:23:25Z</time>
      </trkpt>
      <trkpt lat="49.32397" lon="0.06594">
        <ele>16.6</ele>
        <time>2023-09-03T06:23:26Z</time>
      </trkpt>
      <trkpt lat="49.32403" lon="0.06604">
        <ele>16.5</ele>
        <time>2023-09-03T06:23:27Z</time>
      </trkpt>
      <trkpt lat="49.32409" lon="0.06613">
        <ele>16.4</ele>
        <time>2023-09-03T06:23:28Z</time>
      </trkpt>
      <trkpt lat="49.32414" lon="0.06623">
        <ele>16.3</ele>
        <time>2023-09-03T06:23:29Z</time>
      </trkpt>
      <trkpt lat="49.32419" lon="0.06633">
        <ele>16.2</ele>
        <time>2023-09-03T06:23:30Z</time>
      </trkpt>
      <trkpt lat="49.32424" lon="0.06643">
        <ele>16.1</ele>
        <time>2023-09-03T06:23:31Z</time>
      </trkpt>
      <trkpt lat="49.32429" lon="0.06653">
        <ele>16</ele>
        <time>2023-09-03T06:23:32Z</time>
      </trkpt>
      <trkpt lat="49.32433" lon="0.06664">
        <ele>15.9</ele>
        <time>2023-09-03T06:23:33Z</time>
      </trkpt>
      <trkpt lat="49.32439" lon="0.06674">
        <ele>15.8</ele>
        <time>2023-09-03T06:23:34Z</time>
      </trkpt>
      <trkpt lat="49.32444" lon="0.06684">
        <ele>15.7</ele>
        <time>2023-09-03T06:23:35Z</time>
      </trkpt>
      <trkpt lat="49.32448" lon="0.06693">
        <ele>15.8</ele>
        <time>2023-09-03T06:23:36Z</time>
      </trkpt>
      <trkpt lat="49.32453" lon="0.06703">
        <ele>15.8</ele>
        <time>2023-09-03T06:23:37Z</time>
      </trkpt>
      <trkpt lat="49.32458" lon="0.06713">
        <ele>15.8</ele>
        <time>2023-09-03T06:23:38Z</time>
      </trkpt>
      <trkpt lat="49.32463" lon="0.06723">
        <ele>15.9</ele>
        <time>2023-09-03T06:23:39Z</time>
      </trkpt>
      <trkpt lat="49.32468" lon="0.06733">
        <ele>15.9</ele>
        <time>2023-09-03T06:23:40Z</time>
      </trkpt>
      <trkpt lat="49.32473" lon="0.06743">
        <ele>16</ele>
        <time>2023-09-03T06:23:41Z</time>
      </trkpt>
      <trkpt lat="49.32478" lon="0.06754">
        <ele>16</ele>
        <time>2023-09-03T06:23:42Z</time>
      </trkpt>
      <trkpt lat="49.32482" lon="0.06765">
        <ele>16</ele>
        <time>2023-09-03T06:23:43Z</time>
      </trkpt>
      <trkpt lat="49.32486" lon="0.06776">
        <ele>15.9</ele>
        <time>2023-09-03T06:23:44Z</time>
      </trkpt>
      <trkpt lat="49.3249" lon="0.06787">
        <ele>15.8</ele>
        <time>2023-09-03T06:23:45Z</time>
      </trkpt>
      <trkpt lat="49.32494" lon="0.06798">
        <ele>15.7</ele>
        <time>2023-09-03T06:23:46Z</time>
      </trkpt>
      <trkpt lat="49.32499" lon="0.06809">
        <ele>15.7</ele>
        <time>2023-09-03T06:23:47Z</time>
      </trkpt>
      <trkpt lat="49.32503" lon="0.06821">
        <ele>15.6</ele>
        <time>2023-09-03T06:23:48Z</time>
      </trkpt>
      <trkpt lat="49.32507" lon="0.06832">
        <ele>15.6</ele>
        <time>2023-09-03T06:23:49Z</time>
      </trkpt>
      <trkpt lat="49.3251" lon="0.06845">
        <ele>15.5</ele>
        <time>2023-09-03T06:23:50Z</time>
      </trkpt>
      <trkpt lat="49.32514" lon="0.06856">
        <ele>15.5</ele>
        <time>2023-09-03T06:23:51Z</time>
      </trkpt>
      <trkpt lat="49.32518" lon="0.06869">
        <ele>15.4</ele>
        <time>2023-09-03T06:23:52Z</time>
      </trkpt>
      <trkpt lat="49.32521" lon="0.06881">
        <ele>15.4</ele>
        <time>2023-09-03T06:23:53Z</time>
      </trkpt>
      <trkpt lat="49.32525" lon="0.06893">
        <ele>15.4</ele>
        <time>2023-09-03T06:23:54Z</time>
      </trkpt>
      <trkpt lat="49.32529" lon="0.06904">
        <ele>15.3</ele>
        <time>2023-09-03T06:23:55Z</time>
      </trkpt>
      <trkpt lat="49.32534" lon="0.06915">
        <ele>15.3</ele>
        <time>2023-09-03T06:23:56Z</time>
      </trkpt>
      <trkpt lat="49.32539" lon="0.06926">
        <ele>15.2</ele>
        <time>2023-09-03T06:23:57Z</time>
      </trkpt>
      <trkpt lat="49.32544" lon="0.06935">
        <ele>15.2</ele>
        <time>2023-09-03T06:23:58Z</time>
      </trkpt>
      <trkpt lat="49.32549" lon="0.06945">
        <ele>15.2</ele>
        <time>2023-09-03T06:23:59Z</time>
      </trkpt>
      <trkpt lat="49.32554" lon="0.06954">
        <ele>15.1</ele>
        <time>2023-09-03T06:24:00Z</time>
      </trkpt>
      <trkpt lat="49.32559" lon="0.06963">
        <ele>15</ele>
        <time>2023-09-03T06:24:01Z</time>
      </trkpt>
      <trkpt lat="49.32564" lon="0.06973">
        <ele>14.9</ele>
        <time>2023-09-03T06:24:02Z</time>
      </trkpt>
      <trkpt lat="49.3257" lon="0.06982">
        <ele>14.9</ele>
        <time>2023-09-03T06:24:03Z</time>
      </trkpt>
      <trkpt lat="49.32576" lon="0.06991">
        <ele>14.7</ele>
        <time>2023-09-03T06:24:04Z</time>
      </trkpt>
      <trkpt lat="49.32582" lon="0.07001">
        <ele>14.5</ele>
        <time>2023-09-03T06:24:05Z</time>
      </trkpt>
      <trkpt lat="49.32589" lon="0.0701">
        <ele>14.3</ele>
        <time>2023-09-03T06:24:06Z</time>
      </trkpt>
      <trkpt lat="49.32595" lon="0.0702">
        <ele>14.1</ele>
        <time>2023-09-03T06:24:07Z</time>
      </trkpt>
      <trkpt lat="49.32601" lon="0.07029">
        <ele>13.8</ele>
        <time>2023-09-03T06:24:08Z</time>
      </trkpt>
      <trkpt lat="49.32608" lon="0.07038">
        <ele>13.6</ele>
        <time>2023-09-03T06:24:09Z</time>
      </trkpt>
      <trkpt lat="49.32615" lon="0.07047">
        <ele>13.5</ele>
        <time>2023-09-03T06:24:10Z</time>
      </trkpt>
      <trkpt lat="49.32622" lon="0.07055">
        <ele>13.3</ele>
        <time>2023-09-03T06:24:11Z</time>
      </trkpt>
      <trkpt lat="49.32629" lon="0.07063">
        <ele>13.2</ele>
        <time>2023-09-03T06:24:12Z</time>
      </trkpt>
      <trkpt lat="49.32636" lon="0.07071">
        <ele>13</ele>
        <time>2023-09-03T06:24:13Z</time>
      </trkpt>
      <trkpt lat="49.32643" lon="0.07078">
        <ele>12.9</ele>
        <time>2023-09-03T06:24:14Z</time>
      </trkpt>
      <trkpt lat="49.3265" lon="0.07086">
        <ele>12.8</ele>
        <time>2023-09-03T06:24:15Z</time>
      </trkpt>
      <trkpt lat="49.32656" lon="0.07093">
        <ele>12.8</ele>
        <time>2023-09-03T06:24:16Z</time>
      </trkpt>
      <trkpt lat="49.32663" lon="0.071">
        <ele>12.7</ele>
        <time>2023-09-03T06:24:17Z</time>
      </trkpt>
      <trkpt lat="49.3267" lon="0.07108">
        <ele>12.6</ele>
        <time>2023-09-03T06:24:18Z</time>
      </trkpt>
      <trkpt lat="49.32676" lon="0.07115">
        <ele>12.6</ele>
        <time>2023-09-03T06:24:19Z</time>
      </trkpt>
      <trkpt lat="49.32681" lon="0.07124">
        <ele>12.6</ele>
        <time>2023-09-03T06:24:20Z</time>
      </trkpt>
      <trkpt lat="49.32686" lon="0.07132">
        <ele>12.6</ele>
        <time>2023-09-03T06:24:21Z</time>
      </trkpt>
      <trkpt lat="49.3269" lon="0.07141">
        <ele>12.6</ele>
        <time>2023-09-03T06:24:22Z</time>
      </trkpt>
      <trkpt lat="49.32695" lon="0.0715">
        <ele>12.6</ele>
        <time>2023-09-03T06:24:23Z</time>
      </trkpt>
      <trkpt lat="49.32699" lon="0.0716">
        <ele>12.6</ele>
        <time>2023-09-03T06:24:24Z</time>
      </trkpt>
      <trkpt lat="49.32704" lon="0.07169">
        <ele>12.5</ele>
        <time>2023-09-03T06:24:25Z</time>
      </trkpt>
      <trkpt lat="49.32708" lon="0.07178">
        <ele>12.5</ele>
        <time>2023-09-03T06:24:26Z</time>
      </trkpt>
      <trkpt lat="49.32712" lon="0.07188">
        <ele>12.5</ele>
        <time>2023-09-03T06:24:27Z</time>
      </trkpt>
      <trkpt lat="49.32715" lon="0.07198">
        <ele>12.6</ele>
        <time>2023-09-03T06:24:28Z</time>
      </trkpt>
      <trkpt lat="49.32719" lon="0.07209">
        <ele>12.8</ele>
        <time>2023-09-03T06:24:29Z</time>
      </trkpt>
      <trkpt lat="49.32722" lon="0.07218">
        <ele>13</ele>
        <time>2023-09-03T06:24:30Z</time>
      </trkpt>
      <trkpt lat="49.32726" lon="0.07227">
        <ele>13.2</ele>
        <time>2023-09-03T06:24:31Z</time>
      </trkpt>
      <trkpt lat="49.32728" lon="0.07237">
        <ele>13.4</ele>
        <time>2023-09-03T06:24:32Z</time>
      </trkpt>
      <trkpt lat="49.32731" lon="0.07247">
        <ele>13.6</ele>
        <time>2023-09-03T06:24:33Z</time>
      </trkpt>
      <trkpt lat="49.32734" lon="0.07257">
        <ele>13.9</ele>
        <time>2023-09-03T06:24:34Z</time>
      </trkpt>
      <trkpt lat="49.32737" lon="0.07267">
        <ele>14.1</ele>
        <time>2023-09-03T06:24:35Z</time>
      </trkpt>
      <trkpt lat="49.32739" lon="0.07277">
        <ele>14.3</ele>
        <time>2023-09-03T06:24:36Z</time>
      </trkpt>
      <trkpt lat="49.32741" lon="0.07287">
        <ele>14.6</ele>
        <time>2023-09-03T06:24:37Z</time>
      </trkpt>
      <trkpt lat="49.32743" lon="0.07298">
        <ele>14.7</ele>
        <time>2023-09-03T06:24:38Z</time>
      </trkpt>
      <trkpt lat="49.32745" lon="0.07308">
        <ele>14.9</ele>
        <time>2023-09-03T06:24:39Z</time>
      </trkpt>
      <trkpt lat="49.32748" lon="0.07319">
        <ele>15.1</ele>
        <time>2023-09-03T06:24:40Z</time>
      </trkpt>
      <trkpt lat="49.3275" lon="0.0733">
        <ele>15.1</ele>
        <time>2023-09-03T06:24:41Z</time>
      </trkpt>
      <trkpt lat="49.32751" lon="0.07341">
        <ele>15.2</ele>
        <time>2023-09-03T06:24:42Z</time>
      </trkpt>
      <trkpt lat="49.32753" lon="0.07353">
        <ele>15.1</ele>
        <time>2023-09-03T06:24:43Z</time>
      </trkpt>
      <trkpt lat="49.32754" lon="0.07365">
        <ele>15</ele>
        <time>2023-09-03T06:24:44Z</time>
      </trkpt>
      <trkpt lat="49.32756" lon="0.07377">
        <ele>14.9</ele>
        <time>2023-09-03T06:24:45Z</time>
      </trkpt>
      <trkpt lat="49.32758" lon="0.0739">
        <ele>14.7</ele>
        <time>2023-09-03T06:24:46Z</time>
      </trkpt>
      <trkpt lat="49.3276" lon="0.07402">
        <ele>14.5</ele>
        <time>2023-09-03T06:24:47Z</time>
      </trkpt>
      <trkpt lat="49.32762" lon="0.07415">
        <ele>14.3</ele>
        <time>2023-09-03T06:24:48Z</time>
      </trkpt>
      <trkpt lat="49.32764" lon="0.07427">
        <ele>14</ele>
        <time>2023-09-03T06:24:49Z</time>
      </trkpt>
      <trkpt lat="49.32766" lon="0.0744">
        <ele>13.8</ele>
        <time>2023-09-03T06:24:50Z</time>
      </trkpt>
      <trkpt lat="49.32768" lon="0.07453">
        <ele>13.5</ele>
        <time>2023-09-03T06:24:51Z</time>
      </trkpt>
      <trkpt lat="49.3277" lon="0.07467">
        <ele>13.2</ele>
        <time>2023-09-03T06:24:52Z</time>
      </trkpt>
      <trkpt lat="49.32772" lon="0.0748">
        <ele>12.9</ele>
        <time>2023-09-03T06:24:53Z</time>
      </trkpt>
      <trkpt lat="49.32774" lon="0.07494">
        <ele>12.6</ele>
        <time>2023-09-03T06:24:54Z</time>
      </trkpt>
      <trkpt lat="49.32776" lon="0.07507">
        <ele>12.3</ele>
        <time>2023-09-03T06:24:55Z</time>
      </trkpt>
      <trkpt lat="49.32778" lon="0.07521">
        <ele>12.1</ele>
        <time>2023-09-03T06:24:56Z</time>
      </trkpt>
      <trkpt lat="49.3278" lon="0.07535">
        <ele>11.9</ele>
        <time>2023-09-03T06:24:57Z</time>
      </trkpt>
      <trkpt lat="49.32782" lon="0.07548">
        <ele>11.7</ele>
        <time>2023-09-03T06:24:58Z</time>
      </trkpt>
      <trkpt lat="49.32784" lon="0.07562">
        <ele>11.5</ele>
        <time>2023-09-03T06:24:59Z</time>
      </trkpt>
      <trkpt lat="49.32786" lon="0.07576">
        <ele>11.2</ele>
        <time>2023-09-03T06:25:00Z</time>
      </trkpt>
      <trkpt lat="49.32788" lon="0.0759">
        <ele>10.9</ele>
        <time>2023-09-03T06:25:01Z</time>
      </trkpt>
      <trkpt lat="49.3279" lon="0.07604">
        <ele>10.7</ele>
        <time>2023-09-03T06:25:02Z</time>
      </trkpt>
      <trkpt lat="49.32791" lon="0.07618">
        <ele>10.4</ele>
        <time>2023-09-03T06:25:03Z</time>
      </trkpt>
      <trkpt lat="49.32793" lon="0.07632">
        <ele>10.2</ele>
        <time>2023-09-03T06:25:04Z</time>
      </trkpt>
      <trkpt lat="49.32794" lon="0.07647">
        <ele>10</ele>
        <time>2023-09-03T06:25:05Z</time>
      </trkpt>
      <trkpt lat="49.32795" lon="0.07661">
        <ele>9.9</ele>
        <time>2023-09-03T06:25:06Z</time>
      </trkpt>
      <trkpt lat="49.32797" lon="0.07676">
        <ele>9.8</ele>
        <time>2023-09-03T06:25:07Z</time>
      </trkpt>
      <trkpt lat="49.32798" lon="0.07691">
        <ele>9.7</ele>
        <time>2023-09-03T06:25:08Z</time>
      </trkpt>
      <trkpt lat="49.32799" lon="0.07705">
        <ele>9.6</ele>
        <time>2023-09-03T06:25:09Z</time>
      </trkpt>
      <trkpt lat="49.32799" lon="0.07719">
        <ele>9.5</ele>
        <time>2023-09-03T06:25:10Z</time>
      </trkpt>
      <trkpt lat="49.32799" lon="0.07733">
        <ele>9.4</ele>
        <time>2023-09-03T06:25:11Z</time>
      </trkpt>
      <trkpt lat="49.32799" lon="0.07746">
        <ele>9.3</ele>
        <time>2023-09-03T06:25:12Z</time>
      </trkpt>
      <trkpt lat="49.32799" lon="0.07759">
        <ele>9.2</ele>
        <time>2023-09-03T06:25:13Z</time>
      </trkpt>
      <trkpt lat="49.32798" lon="0.07772">
        <ele>9.2</ele>
        <time>2023-09-03T06:25:14Z</time>
      </trkpt>
      <trkpt lat="49.32798" lon="0.07785">
        <ele>9.1</ele>
        <time>2023-09-03T06:25:15Z</time>
      </trkpt>
      <trkpt lat="49.32797" lon="0.07798">
        <ele>9</ele>
        <time>2023-09-03T06:25:16Z</time>
      </trkpt>
      <trkpt lat="49.32796" lon="0.07812">
        <ele>8.8</ele>
        <time>2023-09-03T06:25:17Z</time>
      </trkpt>
      <trkpt lat="49.32795" lon="0.07825">
        <ele>8.7</ele>
        <time>2023-09-03T06:25:18Z</time>
      </trkpt>
      <trkpt lat="49.32794" lon="0.07839">
        <ele>8.6</ele>
        <time>2023-09-03T06:25:19Z</time>
      </trkpt>
      <trkpt lat="49.32793" lon="0.07852">
        <ele>8.6</ele>
        <time>2023-09-03T06:25:20Z</time>
      </trkpt>
      <trkpt lat="49.32792" lon="0.07866">
        <ele>8.5</ele>
        <time>2023-09-03T06:25:21Z</time>
      </trkpt>
      <trkpt lat="49.32791" lon="0.0788">
        <ele>8.6</ele>
        <time>2023-09-03T06:25:22Z</time>
      </trkpt>
      <trkpt lat="49.32791" lon="0.07894">
        <ele>8.6</ele>
        <time>2023-09-03T06:25:23Z</time>
      </trkpt>
      <trkpt lat="49.3279" lon="0.07908">
        <ele>8.6</ele>
        <time>2023-09-03T06:25:24Z</time>
      </trkpt>
      <trkpt lat="49.3279" lon="0.07921">
        <ele>8.5</ele>
        <time>2023-09-03T06:25:25Z</time>
      </trkpt>
      <trkpt lat="49.32789" lon="0.07935">
        <ele>8.5</ele>
        <time>2023-09-03T06:25:26Z</time>
      </trkpt>
      <trkpt lat="49.32788" lon="0.07948">
        <ele>8.4</ele>
        <time>2023-09-03T06:25:27Z</time>
      </trkpt>
      <trkpt lat="49.32787" lon="0.07962">
        <ele>8.3</ele>
        <time>2023-09-03T06:25:28Z</time>
      </trkpt>
      <trkpt lat="49.32787" lon="0.07975">
        <ele>8.3</ele>
        <time>2023-09-03T06:25:29Z</time>
      </trkpt>
      <trkpt lat="49.32786" lon="0.07989">
        <ele>8.2</ele>
        <time>2023-09-03T06:25:30Z</time>
      </trkpt>
      <trkpt lat="49.32785" lon="0.08001">
        <ele>8.1</ele>
        <time>2023-09-03T06:25:31Z</time>
      </trkpt>
      <trkpt lat="49.32785" lon="0.08014">
        <ele>8</ele>
        <time>2023-09-03T06:25:32Z</time>
      </trkpt>
      <trkpt lat="49.32784" lon="0.08027">
        <ele>8</ele>
        <time>2023-09-03T06:25:33Z</time>
      </trkpt>
      <trkpt lat="49.32783" lon="0.0804">
        <ele>7.9</ele>
        <time>2023-09-03T06:25:34Z</time>
      </trkpt>
      <trkpt lat="49.32782" lon="0.08053">
        <ele>7.8</ele>
        <time>2023-09-03T06:25:35Z</time>
      </trkpt>
      <trkpt lat="49.32781" lon="0.08066">
        <ele>7.8</ele>
        <time>2023-09-03T06:25:36Z</time>
      </trkpt>
      <trkpt lat="49.3278" lon="0.08079">
        <ele>7.7</ele>
        <time>2023-09-03T06:25:37Z</time>
      </trkpt>
      <trkpt lat="49.32779" lon="0.08093">
        <ele>7.6</ele>
        <time>2023-09-03T06:25:38Z</time>
      </trkpt>
      <trkpt lat="49.32778" lon="0.08106">
        <ele>7.5</ele>
        <time>2023-09-03T06:25:39Z</time>
      </trkpt>
      <trkpt lat="49.32778" lon="0.0812">
        <ele>7.5</ele>
        <time>2023-09-03T06:25:40Z</time>
      </trkpt>
      <trkpt lat="49.32777" lon="0.08134">
        <ele>7.4</ele>
        <time>2023-09-03T06:25:41Z</time>
      </trkpt>
      <trkpt lat="49.32776" lon="0.08147">
        <ele>7.3</ele>
        <time>2023-09-03T06:25:42Z</time>
      </trkpt>
      <trkpt lat="49.32776" lon="0.08161">
        <ele>7.3</ele>
        <time>2023-09-03T06:25:43Z</time>
      </trkpt>
      <trkpt lat="49.32775" lon="0.08174">
        <ele>7.2</ele>
        <time>2023-09-03T06:25:44Z</time>
      </trkpt>
      <trkpt lat="49.32774" lon="0.08188">
        <ele>7.1</ele>
        <time>2023-09-03T06:25:45Z</time>
      </trkpt>
      <trkpt lat="49.32773" lon="0.08201">
        <ele>7.1</ele>
        <time>2023-09-03T06:25:46Z</time>
      </trkpt>
      <trkpt lat="49.32772" lon="0.08215">
        <ele>7</ele>
        <time>2023-09-03T06:25:47Z</time>
      </trkpt>
      <trkpt lat="49.32772" lon="0.0823">
        <ele>7</ele>
        <time>2023-09-03T06:25:48Z</time>
      </trkpt>
      <trkpt lat="49.32771" lon="0.08244">
        <ele>6.9</ele>
        <time>2023-09-03T06:25:49Z</time>
      </trkpt>
      <trkpt lat="49.3277" lon="0.08258">
        <ele>6.9</ele>
        <time>2023-09-03T06:25:50Z</time>
      </trkpt>
      <trkpt lat="49.32769" lon="0.08273">
        <ele>6.8</ele>
        <time>2023-09-03T06:25:51Z</time>
      </trkpt>
      <trkpt lat="49.32768" lon="0.08287">
        <ele>6.7</ele>
        <time>2023-09-03T06:25:52Z</time>
      </trkpt>
      <trkpt lat="49.32768" lon="0.08301">
        <ele>6.7</ele>
        <time>2023-09-03T06:25:53Z</time>
      </trkpt>
      <trkpt lat="49.32767" lon="0.08316">
        <ele>6.6</ele>
        <time>2023-09-03T06:25:54Z</time>
      </trkpt>
      <trkpt lat="49.32767" lon="0.0833">
        <ele>6.5</ele>
        <time>2023-09-03T06:25:55Z</time>
      </trkpt>
      <trkpt lat="49.32766" lon="0.08345">
        <ele>6.4</ele>
        <time>2023-09-03T06:25:56Z</time>
      </trkpt>
      <trkpt lat="49.32766" lon="0.08359">
        <ele>6.3</ele>
        <time>2023-09-03T06:25:57Z</time>
      </trkpt>
      <trkpt lat="49.32765" lon="0.08373">
        <ele>6.3</ele>
        <time>2023-09-03T06:25:58Z</time>
      </trkpt>
      <trkpt lat="49.32764" lon="0.08387">
        <ele>6.2</ele>
        <time>2023-09-03T06:25:59Z</time>
      </trkpt>
      <trkpt lat="49.32763" lon="0.08401">
        <ele>6.2</ele>
        <time>2023-09-03T06:26:00Z</time>
      </trkpt>
      <trkpt lat="49.32763" lon="0.08415">
        <ele>6.2</ele>
        <time>2023-09-03T06:26:01Z</time>
      </trkpt>
      <trkpt lat="49.32762" lon="0.08429">
        <ele>6.1</ele>
        <time>2023-09-03T06:26:02Z</time>
      </trkpt>
      <trkpt lat="49.32761" lon="0.08443">
        <ele>6.1</ele>
        <time>2023-09-03T06:26:03Z</time>
      </trkpt>
      <trkpt lat="49.3276" lon="0.08456">
        <ele>6.1</ele>
        <time>2023-09-03T06:26:04Z</time>
      </trkpt>
      <trkpt lat="49.3276" lon="0.0847">
        <ele>6.1</ele>
        <time>2023-09-03T06:26:05Z</time>
      </trkpt>
      <trkpt lat="49.32759" lon="0.08483">
        <ele>6.2</ele>
        <time>2023-09-03T06:26:06Z</time>
      </trkpt>
      <trkpt lat="49.32758" lon="0.08497">
        <ele>6.3</ele>
        <time>2023-09-03T06:26:07Z</time>
      </trkpt>
      <trkpt lat="49.32757" lon="0.0851">
        <ele>6.4</ele>
        <time>2023-09-03T06:26:08Z</time>
      </trkpt>
      <trkpt lat="49.32756" lon="0.08522">
        <ele>6.5</ele>
        <time>2023-09-03T06:26:09Z</time>
      </trkpt>
      <trkpt lat="49.32755" lon="0.08533">
        <ele>6.7</ele>
        <time>2023-09-03T06:26:10Z</time>
      </trkpt>
      <trkpt lat="49.32754" lon="0.08544">
        <ele>6.8</ele>
        <time>2023-09-03T06:26:11Z</time>
      </trkpt>
      <trkpt lat="49.32753" lon="0.08554">
        <ele>7</ele>
        <time>2023-09-03T06:26:12Z</time>
      </trkpt>
      <trkpt lat="49.3275" lon="0.08564">
        <ele>7.1</ele>
        <time>2023-09-03T06:26:13Z</time>
      </trkpt>
      <trkpt lat="49.32748" lon="0.08573">
        <ele>7.3</ele>
        <time>2023-09-03T06:26:14Z</time>
      </trkpt>
      <trkpt lat="49.32745" lon="0.08581">
        <ele>7.4</ele>
        <time>2023-09-03T06:26:15Z</time>
      </trkpt>
      <trkpt lat="49.32742" lon="0.08589">
        <ele>7.4</ele>
        <time>2023-09-03T06:26:16Z</time>
      </trkpt>
      <trkpt lat="49.32741" lon="0.08598">
        <ele>7.1</ele>
        <time>2023-09-03T06:26:17Z</time>
      </trkpt>
      <trkpt lat="49.3274" lon="0.08607">
        <ele>7.1</ele>
        <time>2023-09-03T06:26:18Z</time>
      </trkpt>
      <trkpt lat="49.32742" lon="0.08615">
        <ele>7.1</ele>
        <time>2023-09-03T06:26:19Z</time>
      </trkpt>
      <trkpt lat="49.32747" lon="0.08621">
        <ele>7</ele>
        <time>2023-09-03T06:26:20Z</time>
      </trkpt>
      <trkpt lat="49.32753" lon="0.08623">
        <ele>7</ele>
        <time>2023-09-03T06:26:21Z</time>
      </trkpt>
      <trkpt lat="49.3276" lon="0.08621">
        <ele>7</ele>
        <time>2023-09-03T06:26:22Z</time>
      </trkpt>
      <trkpt lat="49.32767" lon="0.08617">
        <ele>7</ele>
        <time>2023-09-03T06:26:23Z</time>
      </trkpt>
      <trkpt lat="49.32773" lon="0.08609">
        <ele>7</ele>
        <time>2023-09-03T06:26:24Z</time>
      </trkpt>
      <trkpt lat="49.32779" lon="0.08601">
        <ele>7</ele>
        <time>2023-09-03T06:26:25Z</time>
      </trkpt>
      <trkpt lat="49.32786" lon="0.08595">
        <ele>6.9</ele>
        <time>2023-09-03T06:26:26Z</time>
      </trkpt>
      <trkpt lat="49.32793" lon="0.08592">
        <ele>6.9</ele>
        <time>2023-09-03T06:26:27Z</time>
      </trkpt>
      <trkpt lat="49.32802" lon="0.08591">
        <ele>6.9</ele>
        <time>2023-09-03T06:26:28Z</time>
      </trkpt>
      <trkpt lat="49.3281" lon="0.08591">
        <ele>6.9</ele>
        <time>2023-09-03T06:26:29Z</time>
      </trkpt>
      <trkpt lat="49.32819" lon="0.08592">
        <ele>6.8</ele>
        <time>2023-09-03T06:26:30Z</time>
      </trkpt>
      <trkpt lat="49.32828" lon="0.08592">
        <ele>6.8</ele>
        <time>2023-09-03T06:26:31Z</time>
      </trkpt>
      <trkpt lat="49.32837" lon="0.08592">
        <ele>6.8</ele>
        <time>2023-09-03T06:26:32Z</time>
      </trkpt>
      <trkpt lat="49.32846" lon="0.08592">
        <ele>6.8</ele>
        <time>2023-09-03T06:26:33Z</time>
      </trkpt>
      <trkpt lat="49.32854" lon="0.08592">
        <ele>6.8</ele>
        <time>2023-09-03T06:26:34Z</time>
      </trkpt>
      <trkpt lat="49.32863" lon="0.08591">
        <ele>6.8</ele>
        <time>2023-09-03T06:26:35Z</time>
      </trkpt>
      <trkpt lat="49.32871" lon="0.0859">
        <ele>6.9</ele>
        <time>2023-09-03T06:26:36Z</time>
      </trkpt>
      <trkpt lat="49.3288" lon="0.08589">
        <ele>6.9</ele>
        <time>2023-09-03T06:26:37Z</time>
      </trkpt>
      <trkpt lat="49.32888" lon="0.08588">
        <ele>6.9</ele>
        <time>2023-09-03T06:26:38Z</time>
      </trkpt>
      <trkpt lat="49.32896" lon="0.08586">
        <ele>6.9</ele>
        <time>2023-09-03T06:26:39Z</time>
      </trkpt>
      <trkpt lat="49.32904" lon="0.08584">
        <ele>6.9</ele>
        <time>2023-09-03T06:26:40Z</time>
      </trkpt>
      <trkpt lat="49.32913" lon="0.08582">
        <ele>7</ele>
        <time>2023-09-03T06:26:41Z</time>
      </trkpt>
      <trkpt lat="49.3292" lon="0.08579">
        <ele>7</ele>
        <time>2023-09-03T06:26:42Z</time>
      </trkpt>
      <trkpt lat="49.32928" lon="0.08577">
        <ele>7.1</ele>
        <time>2023-09-03T06:26:43Z</time>
      </trkpt>
      <trkpt lat="49.32935" lon="0.08574">
        <ele>7.2</ele>
        <time>2023-09-03T06:26:44Z</time>
      </trkpt>
      <trkpt lat="49.32941" lon="0.08571">
        <ele>7.2</ele>
        <time>2023-09-03T06:26:45Z</time>
      </trkpt>
      <trkpt lat="49.32947" lon="0.08569">
        <ele>7.2</ele>
        <time>2023-09-03T06:26:46Z</time>
      </trkpt>
      <trkpt lat="49.32953" lon="0.08567">
        <ele>7.2</ele>
        <time>2023-09-03T06:26:47Z</time>
      </trkpt>
      <trkpt lat="49.3296" lon="0.08565">
        <ele>7.3</ele>
        <time>2023-09-03T06:26:48Z</time>
      </trkpt>
      <trkpt lat="49.32967" lon="0.08564">
        <ele>7.3</ele>
        <time>2023-09-03T06:26:49Z</time>
      </trkpt>
      <trkpt lat="49.32974" lon="0.08565">
        <ele>7.3</ele>
        <time>2023-09-03T06:26:50Z</time>
      </trkpt>
      <trkpt lat="49.32981" lon="0.08569">
        <ele>7.4</ele>
        <time>2023-09-03T06:26:51Z</time>
      </trkpt>
      <trkpt lat="49.32988" lon="0.08575">
        <ele>7.4</ele>
        <time>2023-09-03T06:26:52Z</time>
      </trkpt>
      <trkpt lat="49.32993" lon="0.08584">
        <ele>7.4</ele>
        <time>2023-09-03T06:26:53Z</time>
      </trkpt>
      <trkpt lat="49.32997" lon="0.08595">
        <ele>7.2</ele>
        <time>2023-09-03T06:26:54Z</time>
      </trkpt>
      <trkpt lat="49.33001" lon="0.08606">
        <ele>7.1</ele>
        <time>2023-09-03T06:26:55Z</time>
      </trkpt>
      <trkpt lat="49.33004" lon="0.08618">
        <ele>7</ele>
        <time>2023-09-03T06:26:56Z</time>
      </trkpt>
      <trkpt lat="49.33008" lon="0.0863">
        <ele>6.9</ele>
        <time>2023-09-03T06:26:57Z</time>
      </trkpt>
      <trkpt lat="49.33011" lon="0.08642">
        <ele>6.9</ele>
        <time>2023-09-03T06:26:58Z</time>
      </trkpt>
      <trkpt lat="49.33016" lon="0.08653">
        <ele>6.9</ele>
        <time>2023-09-03T06:26:59Z</time>
      </trkpt>
      <trkpt lat="49.3302" lon="0.08664">
        <ele>6.9</ele>
        <time>2023-09-03T06:27:00Z</time>
      </trkpt>
      <trkpt lat="49.33025" lon="0.08675">
        <ele>6.9</ele>
        <time>2023-09-03T06:27:01Z</time>
      </trkpt>
      <trkpt lat="49.3303" lon="0.08686">
        <ele>6.9</ele>
        <time>2023-09-03T06:27:02Z</time>
      </trkpt>
      <trkpt lat="49.33035" lon="0.08697">
        <ele>7</ele>
        <time>2023-09-03T06:27:03Z</time>
      </trkpt>
      <trkpt lat="49.33041" lon="0.08707">
        <ele>7</ele>
        <time>2023-09-03T06:27:04Z</time>
      </trkpt>
      <trkpt lat="49.33046" lon="0.08717">
        <ele>7.1</ele>
        <time>2023-09-03T06:27:05Z</time>
      </trkpt>
      <trkpt lat="49.33052" lon="0.08726">
        <ele>7.1</ele>
        <time>2023-09-03T06:27:06Z</time>
      </trkpt>
      <trkpt lat="49.33057" lon="0.08736">
        <ele>7.2</ele>
        <time>2023-09-03T06:27:07Z</time>
      </trkpt>
      <trkpt lat="49.33063" lon="0.08745">
        <ele>7.2</ele>
        <time>2023-09-03T06:27:08Z</time>
      </trkpt>
      <trkpt lat="49.33069" lon="0.08754">
        <ele>7.3</ele>
        <time>2023-09-03T06:27:09Z</time>
      </trkpt>
      <trkpt lat="49.33074" lon="0.08763">
        <ele>7.5</ele>
        <time>2023-09-03T06:27:10Z</time>
      </trkpt>
      <trkpt lat="49.3308" lon="0.08772">
        <ele>7.7</ele>
        <time>2023-09-03T06:27:11Z</time>
      </trkpt>
      <trkpt lat="49.33086" lon="0.08781">
        <ele>8.1</ele>
        <time>2023-09-03T06:27:12Z</time>
      </trkpt>
      <trkpt lat="49.33092" lon="0.08791">
        <ele>8.4</ele>
        <time>2023-09-03T06:27:13Z</time>
      </trkpt>
      <trkpt lat="49.33098" lon="0.088">
        <ele>8.8</ele>
        <time>2023-09-03T06:27:14Z</time>
      </trkpt>
      <trkpt lat="49.33104" lon="0.08808">
        <ele>9.1</ele>
        <time>2023-09-03T06:27:15Z</time>
      </trkpt>
      <trkpt lat="49.3311" lon="0.08816">
        <ele>9.4</ele>
        <time>2023-09-03T06:27:16Z</time>
      </trkpt>
      <trkpt lat="49.33116" lon="0.08823">
        <ele>9.8</ele>
        <time>2023-09-03T06:27:17Z</time>
      </trkpt>
      <trkpt lat="49.33121" lon="0.0883">
        <ele>10.2</ele>
        <time>2023-09-03T06:27:18Z</time>
      </trkpt>
      <trkpt lat="49.33127" lon="0.08837">
        <ele>10.6</ele>
        <time>2023-09-03T06:27:19Z</time>
      </trkpt>
      <trkpt lat="49.33132" lon="0.08844">
        <ele>11</ele>
        <time>2023-09-03T06:27:20Z</time>
      </trkpt>
      <trkpt lat="49.33137" lon="0.08851">
        <ele>11.3</ele>
        <time>2023-09-03T06:27:21Z</time>
      </trkpt>
      <trkpt lat="49.33142" lon="0.08857">
        <ele>11.7</ele>
        <time>2023-09-03T06:27:22Z</time>
      </trkpt>
      <trkpt lat="49.33148" lon="0.08864">
        <ele>12.1</ele>
        <time>2023-09-03T06:27:23Z</time>
      </trkpt>
      <trkpt lat="49.33153" lon="0.08869">
        <ele>12.5</ele>
        <time>2023-09-03T06:27:24Z</time>
      </trkpt>
      <trkpt lat="49.33159" lon="0.08875">
        <ele>12.7</ele>
        <time>2023-09-03T06:27:25Z</time>
      </trkpt>
      <trkpt lat="49.33165" lon="0.0888">
        <ele>12.9</ele>
        <time>2023-09-03T06:27:26Z</time>
      </trkpt>
      <trkpt lat="49.3317" lon="0.08885">
        <ele>13</ele>
        <time>2023-09-03T06:27:27Z</time>
      </trkpt>
      <trkpt lat="49.33176" lon="0.0889">
        <ele>13.1</ele>
        <time>2023-09-03T06:27:28Z</time>
      </trkpt>
      <trkpt lat="49.33181" lon="0.08895">
        <ele>13.1</ele>
        <time>2023-09-03T06:27:29Z</time>
      </trkpt>
      <trkpt lat="49.33187" lon="0.08899">
        <ele>13</ele>
        <time>2023-09-03T06:27:30Z</time>
      </trkpt>
      <trkpt lat="49.33193" lon="0.08903">
        <ele>12.8</ele>
        <time>2023-09-03T06:27:31Z</time>
      </trkpt>
      <trkpt lat="49.33199" lon="0.08908">
        <ele>12.6</ele>
        <time>2023-09-03T06:27:32Z</time>
      </trkpt>
      <trkpt lat="49.33204" lon="0.08913">
        <ele>12.3</ele>
        <time>2023-09-03T06:27:33Z</time>
      </trkpt>
      <trkpt lat="49.33209" lon="0.08918">
        <ele>12</ele>
        <time>2023-09-03T06:27:34Z</time>
      </trkpt>
      <trkpt lat="49.33215" lon="0.08925">
        <ele>11.7</ele>
        <time>2023-09-03T06:27:35Z</time>
      </trkpt>
      <trkpt lat="49.33221" lon="0.08932">
        <ele>11.2</ele>
        <time>2023-09-03T06:27:36Z</time>
      </trkpt>
      <trkpt lat="49.33227" lon="0.08941">
        <ele>10.8</ele>
        <time>2023-09-03T06:27:37Z</time>
      </trkpt>
      <trkpt lat="49.33234" lon="0.08951">
        <ele>10.3</ele>
        <time>2023-09-03T06:27:38Z</time>
      </trkpt>
      <trkpt lat="49.3324" lon="0.08961">
        <ele>9.9</ele>
        <time>2023-09-03T06:27:39Z</time>
      </trkpt>
      <trkpt lat="49.33247" lon="0.08969">
        <ele>9.5</ele>
        <time>2023-09-03T06:27:40Z</time>
      </trkpt>
      <trkpt lat="49.33254" lon="0.08977">
        <ele>9.1</ele>
        <time>2023-09-03T06:27:41Z</time>
      </trkpt>
      <trkpt lat="49.33262" lon="0.08984">
        <ele>8.8</ele>
        <time>2023-09-03T06:27:42Z</time>
      </trkpt>
      <trkpt lat="49.33269" lon="0.0899">
        <ele>8.5</ele>
        <time>2023-09-03T06:27:43Z</time>
      </trkpt>
      <trkpt lat="49.33277" lon="0.08996">
        <ele>8.2</ele>
        <time>2023-09-03T06:27:44Z</time>
      </trkpt>
      <trkpt lat="49.33285" lon="0.09002">
        <ele>7.9</ele>
        <time>2023-09-03T06:27:45Z</time>
      </trkpt>
      <trkpt lat="49.33293" lon="0.09007">
        <ele>7.7</ele>
        <time>2023-09-03T06:27:46Z</time>
      </trkpt>
      <trkpt lat="49.33301" lon="0.09013">
        <ele>7.4</ele>
        <time>2023-09-03T06:27:47Z</time>
      </trkpt>
      <trkpt lat="49.33309" lon="0.09019">
        <ele>7.2</ele>
        <time>2023-09-03T06:27:48Z</time>
      </trkpt>
      <trkpt lat="49.33317" lon="0.09025">
        <ele>7.1</ele>
        <time>2023-09-03T06:27:49Z</time>
      </trkpt>
      <trkpt lat="49.33326" lon="0.0903">
        <ele>6.9</ele>
        <time>2023-09-03T06:27:50Z</time>
      </trkpt>
      <trkpt lat="49.33334" lon="0.09035">
        <ele>6.8</ele>
        <time>2023-09-03T06:27:51Z</time>
      </trkpt>
      <trkpt lat="49.33342" lon="0.0904">
        <ele>6.7</ele>
        <time>2023-09-03T06:27:52Z</time>
      </trkpt>
      <trkpt lat="49.3335" lon="0.09043">
        <ele>6.5</ele>
        <time>2023-09-03T06:27:53Z</time>
      </trkpt>
      <trkpt lat="49.33359" lon="0.09047">
        <ele>6.4</ele>
        <time>2023-09-03T06:27:54Z</time>
      </trkpt>
      <trkpt lat="49.33367" lon="0.0905">
        <ele>6.4</ele>
        <time>2023-09-03T06:27:55Z</time>
      </trkpt>
      <trkpt lat="49.33376" lon="0.09052">
        <ele>6.3</ele>
        <time>2023-09-03T06:27:56Z</time>
      </trkpt>
      <trkpt lat="49.33385" lon="0.09055">
        <ele>6.3</ele>
        <time>2023-09-03T06:27:57Z</time>
      </trkpt>
      <trkpt lat="49.33393" lon="0.09059">
        <ele>6.3</ele>
        <time>2023-09-03T06:27:58Z</time>
      </trkpt>
      <trkpt lat="49.33401" lon="0.09062">
        <ele>6.4</ele>
        <time>2023-09-03T06:27:59Z</time>
      </trkpt>
      <trkpt lat="49.33408" lon="0.09066">
        <ele>6.4</ele>
        <time>2023-09-03T06:28:00Z</time>
      </trkpt>
      <trkpt lat="49.33416" lon="0.09071">
        <ele>6.5</ele>
        <time>2023-09-03T06:28:01Z</time>
      </trkpt>
      <trkpt lat="49.33424" lon="0.09077">
        <ele>6.5</ele>
        <time>2023-09-03T06:28:02Z</time>
      </trkpt>
      <trkpt lat="49.33432" lon="0.09084">
        <ele>6.6</ele>
        <time>2023-09-03T06:28:03Z</time>
      </trkpt>
      <trkpt lat="49.33439" lon="0.09091">
        <ele>6.6</ele>
        <time>2023-09-03T06:28:04Z</time>
      </trkpt>
      <trkpt lat="49.33447" lon="0.09098">
        <ele>6.6</ele>
        <time>2023-09-03T06:28:05Z</time>
      </trkpt>
      <trkpt lat="49.33455" lon="0.09106">
        <ele>6.6</ele>
        <time>2023-09-03T06:28:06Z</time>
      </trkpt>
      <trkpt lat="49.33463" lon="0.09113">
        <ele>6.6</ele>
        <time>2023-09-03T06:28:07Z</time>
      </trkpt>
      <trkpt lat="49.33471" lon="0.0912">
        <ele>6.6</ele>
        <time>2023-09-03T06:28:08Z</time>
      </trkpt>
      <trkpt lat="49.33479" lon="0.09127">
        <ele>6.6</ele>
        <time>2023-09-03T06:28:09Z</time>
      </trkpt>
      <trkpt lat="49.33487" lon="0.09134">
        <ele>6.6</ele>
        <time>2023-09-03T06:28:10Z</time>
      </trkpt>
      <trkpt lat="49.33494" lon="0.0914">
        <ele>6.7</ele>
        <time>2023-09-03T06:28:11Z</time>
      </trkpt>
      <trkpt lat="49.33502" lon="0.09146">
        <ele>6.7</ele>
        <time>2023-09-03T06:28:12Z</time>
      </trkpt>
      <trkpt lat="49.3351" lon="0.09152">
        <ele>6.7</ele>
        <time>2023-09-03T06:28:13Z</time>
      </trkpt>
      <trkpt lat="49.33517" lon="0.09157">
        <ele>6.7</ele>
        <time>2023-09-03T06:28:14Z</time>
      </trkpt>
      <trkpt lat="49.33525" lon="0.09162">
        <ele>6.6</ele>
        <time>2023-09-03T06:28:15Z</time>
      </trkpt>
      <trkpt lat="49.33533" lon="0.09166">
        <ele>6.6</ele>
        <time>2023-09-03T06:28:16Z</time>
      </trkpt>
      <trkpt lat="49.33542" lon="0.09171">
        <ele>6.6</ele>
        <time>2023-09-03T06:28:17Z</time>
      </trkpt>
      <trkpt lat="49.3355" lon="0.09175">
        <ele>6.5</ele>
        <time>2023-09-03T06:28:18Z</time>
      </trkpt>
      <trkpt lat="49.33558" lon="0.0918">
        <ele>6.5</ele>
        <time>2023-09-03T06:28:19Z</time>
      </trkpt>
      <trkpt lat="49.33567" lon="0.09184">
        <ele>6.5</ele>
        <time>2023-09-03T06:28:20Z</time>
      </trkpt>
      <trkpt lat="49.33575" lon="0.09188">
        <ele>6.4</ele>
        <time>2023-09-03T06:28:21Z</time>
      </trkpt>
      <trkpt lat="49.33583" lon="0.09193">
        <ele>6.4</ele>
        <time>2023-09-03T06:28:22Z</time>
      </trkpt>
      <trkpt lat="49.33591" lon="0.09197">
        <ele>6.4</ele>
        <time>2023-09-03T06:28:23Z</time>
      </trkpt>
      <trkpt lat="49.33599" lon="0.09201">
        <ele>6.4</ele>
        <time>2023-09-03T06:28:24Z</time>
      </trkpt>
      <trkpt lat="49.33607" lon="0.09205">
        <ele>6.3</ele>
        <time>2023-09-03T06:28:25Z</time>
      </trkpt>
      <trkpt lat="49.33615" lon="0.09209">
        <ele>6.3</ele>
        <time>2023-09-03T06:28:26Z</time>
      </trkpt>
      <trkpt lat="49.33623" lon="0.09212">
        <ele>6.2</ele>
        <time>2023-09-03T06:28:27Z</time>
      </trkpt>
      <trkpt lat="49.3363" lon="0.09215">
        <ele>6.1</ele>
        <time>2023-09-03T06:28:28Z</time>
      </trkpt>
      <trkpt lat="49.33637" lon="0.09217">
        <ele>6.1</ele>
        <time>2023-09-03T06:28:29Z</time>
      </trkpt>
      <trkpt lat="49.33644" lon="0.09217">
        <ele>6</ele>
        <time>2023-09-03T06:28:30Z</time>
      </trkpt>
      <trkpt lat="49.33651" lon="0.09218">
        <ele>6</ele>
        <time>2023-09-03T06:28:31Z</time>
      </trkpt>
      <trkpt lat="49.3366" lon="0.09219">
        <ele>5.9</ele>
        <time>2023-09-03T06:28:32Z</time>
      </trkpt>
      <trkpt lat="49.33668" lon="0.0922">
        <ele>5.9</ele>
        <time>2023-09-03T06:28:33Z</time>
      </trkpt>
      <trkpt lat="49.33676" lon="0.09221">
        <ele>5.9</ele>
        <time>2023-09-03T06:28:34Z</time>
      </trkpt>
      <trkpt lat="49.33684" lon="0.09223">
        <ele>5.9</ele>
        <time>2023-09-03T06:28:35Z</time>
      </trkpt>
      <trkpt lat="49.33691" lon="0.09225">
        <ele>6</ele>
        <time>2023-09-03T06:28:36Z</time>
      </trkpt>
      <trkpt lat="49.33698" lon="0.09227">
        <ele>6</ele>
        <time>2023-09-03T06:28:37Z</time>
      </trkpt>
      <trkpt lat="49.33704" lon="0.0923">
        <ele>6</ele>
        <time>2023-09-03T06:28:38Z</time>
      </trkpt>
      <trkpt lat="49.33711" lon="0.09233">
        <ele>6.1</ele>
        <time>2023-09-03T06:28:39Z</time>
      </trkpt>
      <trkpt lat="49.33718" lon="0.09235">
        <ele>6.1</ele>
        <time>2023-09-03T06:28:40Z</time>
      </trkpt>
      <trkpt lat="49.33724" lon="0.09238">
        <ele>6.1</ele>
        <time>2023-09-03T06:28:41Z</time>
      </trkpt>
      <trkpt lat="49.3373" lon="0.09241">
        <ele>6.2</ele>
        <time>2023-09-03T06:28:42Z</time>
      </trkpt>
      <trkpt lat="49.33736" lon="0.09245">
        <ele>6.2</ele>
        <time>2023-09-03T06:28:43Z</time>
      </trkpt>
      <trkpt lat="49.33741" lon="0.09251">
        <ele>6.2</ele>
        <time>2023-09-03T06:28:44Z</time>
      </trkpt>
      <trkpt lat="49.33746" lon="0.09257">
        <ele>6.1</ele>
        <time>2023-09-03T06:28:45Z</time>
      </trkpt>
      <trkpt lat="49.33751" lon="0.09263">
        <ele>6</ele>
        <time>2023-09-03T06:28:46Z</time>
      </trkpt>
      <trkpt lat="49.33756" lon="0.0927">
        <ele>5.8</ele>
        <time>2023-09-03T06:28:47Z</time>
      </trkpt>
      <trkpt lat="49.3376" lon="0.09278">
        <ele>5.5</ele>
        <time>2023-09-03T06:28:48Z</time>
      </trkpt>
      <trkpt lat="49.33764" lon="0.09287">
        <ele>5.4</ele>
        <time>2023-09-03T06:28:49Z</time>
      </trkpt>
      <trkpt lat="49.33767" lon="0.09296">
        <ele>5.3</ele>
        <time>2023-09-03T06:28:50Z</time>
      </trkpt>
      <trkpt lat="49.33769" lon="0.09306">
        <ele>5.3</ele>
        <time>2023-09-03T06:28:51Z</time>
      </trkpt>
      <trkpt lat="49.33771" lon="0.09315">
        <ele>5.2</ele>
        <time>2023-09-03T06:28:52Z</time>
      </trkpt>
      <trkpt lat="49.33773" lon="0.09325">
        <ele>5.2</ele>
        <time>2023-09-03T06:28:53Z</time>
      </trkpt>
      <trkpt lat="49.33776" lon="0.09335">
        <ele>5.1</ele>
        <time>2023-09-03T06:28:54Z</time>
      </trkpt>
      <trkpt lat="49.33778" lon="0.09346">
        <ele>5.1</ele>
        <time>2023-09-03T06:28:55Z</time>
      </trkpt>
      <trkpt lat="49.3378" lon="0.09357">
        <ele>5</ele>
        <time>2023-09-03T06:28:56Z</time>
      </trkpt>
      <trkpt lat="49.33783" lon="0.09368">
        <ele>5</ele>
        <time>2023-09-03T06:28:57Z</time>
      </trkpt>
      <trkpt lat="49.33786" lon="0.09379">
        <ele>4.9</ele>
        <time>2023-09-03T06:28:58Z</time>
      </trkpt>
      <trkpt lat="49.33789" lon="0.0939">
        <ele>4.8</ele>
        <time>2023-09-03T06:28:59Z</time>
      </trkpt>
      <trkpt lat="49.33791" lon="0.09402">
        <ele>4.8</ele>
        <time>2023-09-03T06:29:00Z</time>
      </trkpt>
      <trkpt lat="49.33794" lon="0.09414">
        <ele>4.8</ele>
        <time>2023-09-03T06:29:01Z</time>
      </trkpt>
      <trkpt lat="49.33796" lon="0.09425">
        <ele>4.9</ele>
        <time>2023-09-03T06:29:02Z</time>
      </trkpt>
      <trkpt lat="49.33799" lon="0.09437">
        <ele>4.8</ele>
        <time>2023-09-03T06:29:03Z</time>
      </trkpt>
      <trkpt lat="49.33802" lon="0.09449">
        <ele>4.8</ele>
        <time>2023-09-03T06:29:04Z</time>
      </trkpt>
      <trkpt lat="49.33804" lon="0.0946">
        <ele>4.8</ele>
        <time>2023-09-03T06:29:05Z</time>
      </trkpt>
      <trkpt lat="49.33807" lon="0.09472">
        <ele>4.7</ele>
        <time>2023-09-03T06:29:06Z</time>
      </trkpt>
      <trkpt lat="49.3381" lon="0.09484">
        <ele>4.7</ele>
        <time>2023-09-03T06:29:07Z</time>
      </trkpt>
      <trkpt lat="49.33812" lon="0.09496">
        <ele>4.7</ele>
        <time>2023-09-03T06:29:08Z</time>
      </trkpt>
      <trkpt lat="49.33815" lon="0.09508">
        <ele>4.6</ele>
        <time>2023-09-03T06:29:09Z</time>
      </trkpt>
      <trkpt lat="49.33817" lon="0.09521">
        <ele>4.5</ele>
        <time>2023-09-03T06:29:10Z</time>
      </trkpt>
      <trkpt lat="49.3382" lon="0.09534">
        <ele>4.4</ele>
        <time>2023-09-03T06:29:11Z</time>
      </trkpt>
      <trkpt lat="49.33822" lon="0.09547">
        <ele>4.3</ele>
        <time>2023-09-03T06:29:12Z</time>
      </trkpt>
      <trkpt lat="49.33825" lon="0.0956">
        <ele>4.2</ele>
        <time>2023-09-03T06:29:13Z</time>
      </trkpt>
      <trkpt lat="49.33827" lon="0.09573">
        <ele>4.1</ele>
        <time>2023-09-03T06:29:14Z</time>
      </trkpt>
      <trkpt lat="49.3383" lon="0.09585">
        <ele>4.1</ele>
        <time>2023-09-03T06:29:15Z</time>
      </trkpt>
      <trkpt lat="49.33833" lon="0.09598">
        <ele>4.1</ele>
        <time>2023-09-03T06:29:16Z</time>
      </trkpt>
      <trkpt lat="49.33836" lon="0.09611">
        <ele>4.1</ele>
        <time>2023-09-03T06:29:17Z</time>
      </trkpt>
      <trkpt lat="49.33838" lon="0.09623">
        <ele>4.1</ele>
        <time>2023-09-03T06:29:18Z</time>
      </trkpt>
      <trkpt lat="49.3384" lon="0.09636">
        <ele>4.1</ele>
        <time>2023-09-03T06:29:19Z</time>
      </trkpt>
      <trkpt lat="49.33843" lon="0.09648">
        <ele>4.1</ele>
        <time>2023-09-03T06:29:20Z</time>
      </trkpt>
      <trkpt lat="49.33845" lon="0.0966">
        <ele>4.2</ele>
        <time>2023-09-03T06:29:21Z</time>
      </trkpt>
      <trkpt lat="49.33847" lon="0.09671">
        <ele>4.2</ele>
        <time>2023-09-03T06:29:22Z</time>
      </trkpt>
      <trkpt lat="49.3385" lon="0.09682">
        <ele>4.2</ele>
        <time>2023-09-03T06:29:23Z</time>
      </trkpt>
      <trkpt lat="49.33852" lon="0.09694">
        <ele>4.2</ele>
        <time>2023-09-03T06:29:24Z</time>
      </trkpt>
      <trkpt lat="49.33855" lon="0.09705">
        <ele>4.2</ele>
        <time>2023-09-03T06:29:25Z</time>
      </trkpt>
      <trkpt lat="49.33858" lon="0.09717">
        <ele>4.1</ele>
        <time>2023-09-03T06:29:26Z</time>
      </trkpt>
      <trkpt lat="49.33861" lon="0.09728">
        <ele>4.1</ele>
        <time>2023-09-03T06:29:27Z</time>
      </trkpt>
      <trkpt lat="49.33865" lon="0.09739">
        <ele>4</ele>
        <time>2023-09-03T06:29:28Z</time>
      </trkpt>
      <trkpt lat="49.33868" lon="0.0975">
        <ele>4</ele>
        <time>2023-09-03T06:29:29Z</time>
      </trkpt>
      <trkpt lat="49.3387" lon="0.09761">
        <ele>4</ele>
        <time>2023-09-03T06:29:30Z</time>
      </trkpt>
      <trkpt lat="49.33873" lon="0.09772">
        <ele>4</ele>
        <time>2023-09-03T06:29:31Z</time>
      </trkpt>
      <trkpt lat="49.33875" lon="0.09781">
        <ele>4</ele>
        <time>2023-09-03T06:29:32Z</time>
      </trkpt>
      <trkpt lat="49.33879" lon="0.09791">
        <ele>4.1</ele>
        <time>2023-09-03T06:29:33Z</time>
      </trkpt>
      <trkpt lat="49.33881" lon="0.098">
        <ele>4.1</ele>
        <time>2023-09-03T06:29:34Z</time>
      </trkpt>
      <trkpt lat="49.33884" lon="0.09809">
        <ele>4.2</ele>
        <time>2023-09-03T06:29:35Z</time>
      </trkpt>
      <trkpt lat="49.33887" lon="0.09819">
        <ele>4.3</ele>
        <time>2023-09-03T06:29:36Z</time>
      </trkpt>
      <trkpt lat="49.33889" lon="0.09829">
        <ele>4.4</ele>
        <time>2023-09-03T06:29:37Z</time>
      </trkpt>
      <trkpt lat="49.33891" lon="0.09839">
        <ele>4.5</ele>
        <time>2023-09-03T06:29:38Z</time>
      </trkpt>
      <trkpt lat="49.33893" lon="0.09846">
        <ele>4.5</ele>
        <time>2023-09-03T06:29:39Z</time>
      </trkpt>
      <trkpt lat="49.33894" lon="0.0985">
        <ele>4.5</ele>
        <time>2023-09-03T06:29:40Z</time>
      </trkpt>
      <trkpt lat="49.33895" lon="0.09855">
        <ele>4.5</ele>
        <time>2023-09-03T06:29:41Z</time>
      </trkpt>
      <trkpt lat="49.33895" lon="0.0986">
        <ele>4.5</ele>
        <time>2023-09-03T06:29:42Z</time>
      </trkpt>
      <trkpt lat="49.33896" lon="0.09867">
        <ele>4.5</ele>
        <time>2023-09-03T06:29:43Z</time>
      </trkpt>
      <trkpt lat="49.33896" lon="0.09874">
        <ele>4.6</ele>
        <time>2023-09-03T06:29:44Z</time>
      </trkpt>
      <trkpt lat="49.33896" lon="0.09881">
        <ele>4.6</ele>
        <time>2023-09-03T06:29:45Z</time>
      </trkpt>
      <trkpt lat="49.33895" lon="0.0989">
        <ele>4.6</ele>
        <time>2023-09-03T06:29:46Z</time>
      </trkpt>
      <trkpt lat="49.33896" lon="0.09899">
        <ele>4.7</ele>
        <time>2023-09-03T06:29:47Z</time>
      </trkpt>
      <trkpt lat="49.33899" lon="0.09908">
        <ele>4.8</ele>
        <time>2023-09-03T06:29:48Z</time>
      </trkpt>
      <trkpt lat="49.33902" lon="0.09915">
        <ele>4.8</ele>
        <time>2023-09-03T06:29:49Z</time>
      </trkpt>
      <trkpt lat="49.33907" lon="0.09924">
        <ele>4.9</ele>
        <time>2023-09-03T06:29:50Z</time>
      </trkpt>
      <trkpt lat="49.33911" lon="0.09933">
        <ele>4.9</ele>
        <time>2023-09-03T06:29:51Z</time>
      </trkpt>
      <trkpt lat="49.33914" lon="0.09943">
        <ele>4.9</ele>
        <time>2023-09-03T06:29:52Z</time>
      </trkpt>
      <trkpt lat="49.33917" lon="0.09954">
        <ele>5</ele>
        <time>2023-09-03T06:29:53Z</time>
      </trkpt>
      <trkpt lat="49.33921" lon="0.09964">
        <ele>5</ele>
        <time>2023-09-03T06:29:54Z</time>
      </trkpt>
      <trkpt lat="49.33923" lon="0.09975">
        <ele>5.1</ele>
        <time>2023-09-03T06:29:55Z</time>
      </trkpt>
      <trkpt lat="49.33926" lon="0.09987">
        <ele>5.1</ele>
        <time>2023-09-03T06:29:56Z</time>
      </trkpt>
      <trkpt lat="49.33928" lon="0.09998">
        <ele>5.2</ele>
        <time>2023-09-03T06:29:57Z</time>
      </trkpt>
      <trkpt lat="49.33931" lon="0.10009">
        <ele>5.2</ele>
        <time>2023-09-03T06:29:58Z</time>
      </trkpt>
      <trkpt lat="49.33933" lon="0.1002">
        <ele>5.3</ele>
        <time>2023-09-03T06:29:59Z</time>
      </trkpt>
      <trkpt lat="49.33935" lon="0.10029">
        <ele>5.3</ele>
        <time>2023-09-03T06:30:00Z</time>
      </trkpt>
      <trkpt lat="49.33938" lon="0.1004">
        <ele>5.3</ele>
        <time>2023-09-03T06:30:01Z</time>
      </trkpt>
      <trkpt lat="49.33941" lon="0.1005">
        <ele>5.4</ele>
        <time>2023-09-03T06:30:02Z</time>
      </trkpt>
      <trkpt lat="49.33944" lon="0.10062">
        <ele>5.3</ele>
        <time>2023-09-03T06:30:03Z</time>
      </trkpt>
      <trkpt lat="49.33947" lon="0.10073">
        <ele>5.2</ele>
        <time>2023-09-03T06:30:04Z</time>
      </trkpt>
      <trkpt lat="49.33949" lon="0.10084">
        <ele>5.1</ele>
        <time>2023-09-03T06:30:05Z</time>
      </trkpt>
      <trkpt lat="49.33952" lon="0.10095">
        <ele>5</ele>
        <time>2023-09-03T06:30:06Z</time>
      </trkpt>
      <trkpt lat="49.33955" lon="0.10106">
        <ele>5</ele>
        <time>2023-09-03T06:30:07Z</time>
      </trkpt>
      <trkpt lat="49.33958" lon="0.10117">
        <ele>5</ele>
        <time>2023-09-03T06:30:08Z</time>
      </trkpt>
      <trkpt lat="49.3396" lon="0.10129">
        <ele>5</ele>
        <time>2023-09-03T06:30:09Z</time>
      </trkpt>
      <trkpt lat="49.33963" lon="0.10141">
        <ele>5.1</ele>
        <time>2023-09-03T06:30:10Z</time>
      </trkpt>
      <trkpt lat="49.33966" lon="0.10152">
        <ele>5.2</ele>
        <time>2023-09-03T06:30:11Z</time>
      </trkpt>
      <trkpt lat="49.3397" lon="0.10163">
        <ele>5.4</ele>
        <time>2023-09-03T06:30:12Z</time>
      </trkpt>
      <trkpt lat="49.33974" lon="0.10173">
        <ele>5.5</ele>
        <time>2023-09-03T06:30:13Z</time>
      </trkpt>
      <trkpt lat="49.33977" lon="0.10183">
        <ele>5.6</ele>
        <time>2023-09-03T06:30:14Z</time>
      </trkpt>
      <trkpt lat="49.33979" lon="0.10194">
        <ele>5.6</ele>
        <time>2023-09-03T06:30:15Z</time>
      </trkpt>
      <trkpt lat="49.33982" lon="0.10204">
        <ele>5.6</ele>
        <time>2023-09-03T06:30:16Z</time>
      </trkpt>
      <trkpt lat="49.33984" lon="0.10215">
        <ele>5.7</ele>
        <time>2023-09-03T06:30:17Z</time>
      </trkpt>
      <trkpt lat="49.33987" lon="0.10225">
        <ele>5.8</ele>
        <time>2023-09-03T06:30:18Z</time>
      </trkpt>
      <trkpt lat="49.33989" lon="0.10234">
        <ele>5.8</ele>
        <time>2023-09-03T06:30:19Z</time>
      </trkpt>
      <trkpt lat="49.33991" lon="0.10242">
        <ele>5.8</ele>
        <time>2023-09-03T06:30:20Z</time>
      </trkpt>
      <trkpt lat="49.33994" lon="0.1025">
        <ele>5.8</ele>
        <time>2023-09-03T06:30:21Z</time>
      </trkpt>
      <trkpt lat="49.33996" lon="0.10257">
        <ele>5.8</ele>
        <time>2023-09-03T06:30:22Z</time>
      </trkpt>
      <trkpt lat="49.33998" lon="0.10264">
        <ele>5.8</ele>
        <time>2023-09-03T06:30:23Z</time>
      </trkpt>
      <trkpt lat="49.34" lon="0.1027">
        <ele>5.8</ele>
        <time>2023-09-03T06:30:24Z</time>
      </trkpt>
      <trkpt lat="49.34002" lon="0.10275">
        <ele>5.8</ele>
        <time>2023-09-03T06:30:25Z</time>
      </trkpt>
      <trkpt lat="49.34004" lon="0.10279">
        <ele>5.8</ele>
        <time>2023-09-03T06:30:26Z</time>
      </trkpt>
      <trkpt lat="49.34004" lon="0.1028">
        <ele>5.8</ele>
        <time>2023-09-03T06:30:27Z</time>
      </trkpt>
      <trkpt lat="49.34005" lon="0.1028">
        <ele>5.8</ele>
        <time>2023-09-03T06:30:28Z</time>
      </trkpt>
      <trkpt lat="49.34005" lon="0.10279">
        <ele>5.8</ele>
        <time>2023-09-03T06:30:29Z</time>
      </trkpt>
      <trkpt lat="49.34005" lon="0.10279">
        <ele>5.8</ele>
        <time>2023-09-03T06:30:30Z</time>
      </trkpt>
      <trkpt lat="49.34005" lon="0.10279">
        <ele>5.8</ele>
        <time>2023-09-03T06:30:31Z</time>
      </trkpt>
      <trkpt lat="49.34005" lon="0.10279">
        <ele>5.8</ele>
        <time>2023-09-03T06:30:32Z</time>
      </trkpt>
      <trkpt lat="49.34005" lon="0.10279">
        <ele>5.8</ele>
        <time>2023-09-03T06:30:33Z</time>
      </trkpt>
      <trkpt lat="49.34005" lon="0.10279">
        <ele>5.8</ele>
        <time>2023-09-03T06:30:34Z</time>
      </trkpt>
      <trkpt lat="49.34005" lon="0.10279">
        <ele>5.8</ele>
        <time>2023-09-03T06:30:35Z</time>
      </trkpt>
      <trkpt lat="49.34005" lon="0.10279">
        <ele>5.8</ele>
        <time>2023-09-03T06:30:36Z</time>
      </trkpt>
      <trkpt lat="49.34005" lon="0.10279">
        <ele>5.8</ele>
        <time>2023-09-03T06:30:37Z</time>
      </trkpt>
      <trkpt lat="49.34005" lon="0.10279">
        <ele>5.8</ele>
        <time>2023-09-03T06:30:38Z</time>
      </trkpt>
      <trkpt lat="49.34005" lon="0.10279">
        <ele>5.8</ele>
        <time>2023-09-03T06:30:39Z</time>
      </trkpt>
      <trkpt lat="49.34008" lon="0.10289">
        <ele>5.8</ele>
        <time>2023-09-03T06:31:22Z</time>
      </trkpt>
      <trkpt lat="49.34009" lon="0.10293">
        <ele>5.8</ele>
        <time>2023-09-03T06:31:23Z</time>
      </trkpt>
      <trkpt lat="49.3401" lon="0.10297">
        <ele>5.8</ele>
        <time>2023-09-03T06:31:24Z</time>
      </trkpt>
      <trkpt lat="49.34012" lon="0.10303">
        <ele>5.7</ele>
        <time>2023-09-03T06:31:25Z</time>
      </trkpt>
      <trkpt lat="49.34013" lon="0.10308">
        <ele>5.7</ele>
        <time>2023-09-03T06:31:26Z</time>
      </trkpt>
      <trkpt lat="49.34015" lon="0.10312">
        <ele>5.7</ele>
        <time>2023-09-03T06:31:27Z</time>
      </trkpt>
      <trkpt lat="49.34018" lon="0.10316">
        <ele>5.7</ele>
        <time>2023-09-03T06:31:28Z</time>
      </trkpt>
      <trkpt lat="49.3402" lon="0.10321">
        <ele>5.6</ele>
        <time>2023-09-03T06:31:29Z</time>
      </trkpt>
      <trkpt lat="49.34022" lon="0.10327">
        <ele>5.6</ele>
        <time>2023-09-03T06:31:30Z</time>
      </trkpt>
      <trkpt lat="49.34024" lon="0.10333">
        <ele>5.5</ele>
        <time>2023-09-03T06:31:31Z</time>
      </trkpt>
      <trkpt lat="49.34027" lon="0.10339">
        <ele>5.5</ele>
        <time>2023-09-03T06:31:32Z</time>
      </trkpt>
      <trkpt lat="49.3403" lon="0.10344">
        <ele>5.4</ele>
        <time>2023-09-03T06:31:33Z</time>
      </trkpt>
      <trkpt lat="49.34032" lon="0.10348">
        <ele>5.3</ele>
        <time>2023-09-03T06:31:34Z</time>
      </trkpt>
      <trkpt lat="49.34034" lon="0.10353">
        <ele>5.3</ele>
        <time>2023-09-03T06:31:35Z</time>
      </trkpt>
      <trkpt lat="49.34037" lon="0.10359">
        <ele>5.2</ele>
        <time>2023-09-03T06:31:36Z</time>
      </trkpt>
      <trkpt lat="49.3404" lon="0.10364">
        <ele>5.2</ele>
        <time>2023-09-03T06:31:37Z</time>
      </trkpt>
      <trkpt lat="49.34042" lon="0.10369">
        <ele>5.1</ele>
        <time>2023-09-03T06:31:38Z</time>
      </trkpt>
      <trkpt lat="49.34045" lon="0.10375">
        <ele>5.1</ele>
        <time>2023-09-03T06:31:39Z</time>
      </trkpt>
      <trkpt lat="49.34048" lon="0.1038">
        <ele>5</ele>
        <time>2023-09-03T06:31:40Z</time>
      </trkpt>
      <trkpt lat="49.34052" lon="0.10385">
        <ele>5</ele>
        <time>2023-09-03T06:31:41Z</time>
      </trkpt>
      <trkpt lat="49.34055" lon="0.10391">
        <ele>4.9</ele>
        <time>2023-09-03T06:31:42Z</time>
      </trkpt>
      <trkpt lat="49.34058" lon="0.10396">
        <ele>4.9</ele>
        <time>2023-09-03T06:31:43Z</time>
      </trkpt>
      <trkpt lat="49.34061" lon="0.10401">
        <ele>4.9</ele>
        <time>2023-09-03T06:31:44Z</time>
      </trkpt>
      <trkpt lat="49.34064" lon="0.10407">
        <ele>4.9</ele>
        <time>2023-09-03T06:31:45Z</time>
      </trkpt>
      <trkpt lat="49.34067" lon="0.10412">
        <ele>5</ele>
        <time>2023-09-03T06:31:46Z</time>
      </trkpt>
      <trkpt lat="49.34071" lon="0.10416">
        <ele>5</ele>
        <time>2023-09-03T06:31:47Z</time>
      </trkpt>
      <trkpt lat="49.34074" lon="0.1042">
        <ele>5.1</ele>
        <time>2023-09-03T06:31:48Z</time>
      </trkpt>
      <trkpt lat="49.34077" lon="0.10422">
        <ele>5.1</ele>
        <time>2023-09-03T06:31:49Z</time>
      </trkpt>
      <trkpt lat="49.34081" lon="0.10422">
        <ele>5.2</ele>
        <time>2023-09-03T06:31:50Z</time>
      </trkpt>
      <trkpt lat="49.34084" lon="0.10422">
        <ele>5.3</ele>
        <time>2023-09-03T06:31:51Z</time>
      </trkpt>
      <trkpt lat="49.34089" lon="0.1042">
        <ele>5.2</ele>
        <time>2023-09-03T06:31:52Z</time>
      </trkpt>
      <trkpt lat="49.34094" lon="0.10417">
        <ele>5.2</ele>
        <time>2023-09-03T06:31:53Z</time>
      </trkpt>
      <trkpt lat="49.34098" lon="0.10412">
        <ele>5.2</ele>
        <time>2023-09-03T06:31:54Z</time>
      </trkpt>
      <trkpt lat="49.34101" lon="0.10407">
        <ele>5.1</ele>
        <time>2023-09-03T06:31:55Z</time>
      </trkpt>
      <trkpt lat="49.34105" lon="0.10402">
        <ele>5.1</ele>
        <time>2023-09-03T06:31:56Z</time>
      </trkpt>
      <trkpt lat="49.34109" lon="0.10397">
        <ele>5.1</ele>
        <time>2023-09-03T06:31:57Z</time>
      </trkpt>
      <trkpt lat="49.34113" lon="0.10392">
        <ele>5.1</ele>
        <time>2023-09-03T06:31:58Z</time>
      </trkpt>
      <trkpt lat="49.34116" lon="0.10386">
        <ele>5.1</ele>
        <time>2023-09-03T06:31:59Z</time>
      </trkpt>
      <trkpt lat="49.3412" lon="0.10381">
        <ele>5.2</ele>
        <time>2023-09-03T06:32:00Z</time>
      </trkpt>
      <trkpt lat="49.34124" lon="0.10376">
        <ele>5.2</ele>
        <time>2023-09-03T06:32:01Z</time>
      </trkpt>
      <trkpt lat="49.34128" lon="0.1037">
        <ele>5.2</ele>
        <time>2023-09-03T06:32:02Z</time>
      </trkpt>
      <trkpt lat="49.34132" lon="0.10365">
        <ele>5.3</ele>
        <time>2023-09-03T06:32:03Z</time>
      </trkpt>
      <trkpt lat="49.34135" lon="0.10359">
        <ele>5.4</ele>
        <time>2023-09-03T06:32:04Z</time>
      </trkpt>
      <trkpt lat="49.34139" lon="0.10353">
        <ele>5.5</ele>
        <time>2023-09-03T06:32:05Z</time>
      </trkpt>
      <trkpt lat="49.34143" lon="0.10348">
        <ele>5.6</ele>
        <time>2023-09-03T06:32:06Z</time>
      </trkpt>
      <trkpt lat="49.34147" lon="0.10343">
        <ele>5.7</ele>
        <time>2023-09-03T06:32:07Z</time>
      </trkpt>
      <trkpt lat="49.3415" lon="0.10338">
        <ele>5.8</ele>
        <time>2023-09-03T06:32:08Z</time>
      </trkpt>
      <trkpt lat="49.34154" lon="0.10332">
        <ele>5.9</ele>
        <time>2023-09-03T06:32:09Z</time>
      </trkpt>
      <trkpt lat="49.34157" lon="0.10326">
        <ele>5.9</ele>
        <time>2023-09-03T06:32:10Z</time>
      </trkpt>
      <trkpt lat="49.34161" lon="0.1032">
        <ele>5.9</ele>
        <time>2023-09-03T06:32:11Z</time>
      </trkpt>
      <trkpt lat="49.34164" lon="0.10314">
        <ele>6</ele>
        <time>2023-09-03T06:32:12Z</time>
      </trkpt>
      <trkpt lat="49.34168" lon="0.10307">
        <ele>6</ele>
        <time>2023-09-03T06:32:13Z</time>
      </trkpt>
      <trkpt lat="49.34171" lon="0.10302">
        <ele>6</ele>
        <time>2023-09-03T06:32:14Z</time>
      </trkpt>
      <trkpt lat="49.34175" lon="0.10298">
        <ele>6</ele>
        <time>2023-09-03T06:32:15Z</time>
      </trkpt>
      <trkpt lat="49.34179" lon="0.10294">
        <ele>6</ele>
        <time>2023-09-03T06:32:16Z</time>
      </trkpt>
      <trkpt lat="49.34183" lon="0.1029">
        <ele>6.1</ele>
        <time>2023-09-03T06:32:17Z</time>
      </trkpt>
      <trkpt lat="49.34187" lon="0.10287">
        <ele>6.1</ele>
        <time>2023-09-03T06:32:18Z</time>
      </trkpt>
      <trkpt lat="49.34191" lon="0.10283">
        <ele>6.1</ele>
        <time>2023-09-03T06:32:19Z</time>
      </trkpt>
      <trkpt lat="49.34194" lon="0.10281">
        <ele>6.1</ele>
        <time>2023-09-03T06:32:20Z</time>
      </trkpt>
      <trkpt lat="49.34198" lon="0.10279">
        <ele>6.1</ele>
        <time>2023-09-03T06:32:21Z</time>
      </trkpt>
      <trkpt lat="49.34202" lon="0.10277">
        <ele>6.1</ele>
        <time>2023-09-03T06:32:22Z</time>
      </trkpt>
      <trkpt lat="49.34205" lon="0.10275">
        <ele>6</ele>
        <time>2023-09-03T06:32:23Z</time>
      </trkpt>
      <trkpt lat="49.34208" lon="0.10273">
        <ele>6</ele>
        <time>2023-09-03T06:32:24Z</time>
      </trkpt>
      <trkpt lat="49.3421" lon="0.10272">
        <ele>6</ele>
        <time>2023-09-03T06:32:25Z</time>
      </trkpt>
      <trkpt lat="49.34211" lon="0.10273">
        <ele>6</ele>
        <time>2023-09-03T06:32:26Z</time>
      </trkpt>
      <trkpt lat="49.34211" lon="0.10274">
        <ele>6</ele>
        <time>2023-09-03T06:32:27Z</time>
      </trkpt>
      <trkpt lat="49.34211" lon="0.10274">
        <ele>6</ele>
        <time>2023-09-03T06:32:28Z</time>
      </trkpt>
      <trkpt lat="49.3421" lon="0.10275">
        <ele>6</ele>
        <time>2023-09-03T06:32:29Z</time>
      </trkpt>
      <trkpt lat="49.3421" lon="0.10275">
        <ele>6</ele>
        <time>2023-09-03T06:32:30Z</time>
      </trkpt>
      <trkpt lat="49.34209" lon="0.10275">
        <ele>6</ele>
        <time>2023-09-03T06:32:31Z</time>
      </trkpt>
      <trkpt lat="49.34209" lon="0.10275">
        <ele>6</ele>
        <time>2023-09-03T06:32:32Z</time>
      </trkpt>
      <trkpt lat="49.34207" lon="0.10276">
        <ele>6</ele>
        <time>2023-09-03T06:32:33Z</time>
      </trkpt>
      <trkpt lat="49.34205" lon="0.10276">
        <ele>6</ele>
        <time>2023-09-03T06:32:34Z</time>
      </trkpt>
      <trkpt lat="49.34203" lon="0.10277">
        <ele>6.1</ele>
        <time>2023-09-03T06:32:35Z</time>
      </trkpt>
      <trkpt lat="49.34202" lon="0.10278">
        <ele>6.1</ele>
        <time>2023-09-03T06:32:36Z</time>
      </trkpt>
      <trkpt lat="49.342" lon="0.10278">
        <ele>6.1</ele>
        <time>2023-09-03T06:32:37Z</time>
      </trkpt>
      <trkpt lat="49.34198" lon="0.1028">
        <ele>6.1</ele>
        <time>2023-09-03T06:32:38Z</time>
      </trkpt>
      <trkpt lat="49.34195" lon="0.10283">
        <ele>6.1</ele>
        <time>2023-09-03T06:32:39Z</time>
      </trkpt>
      <trkpt lat="49.34194" lon="0.10284">
        <ele>6.1</ele>
        <time>2023-09-03T06:32:40Z</time>
      </trkpt>
      <trkpt lat="49.34192" lon="0.10287">
        <ele>6.1</ele>
        <time>2023-09-03T06:32:41Z</time>
      </trkpt>
      <trkpt lat="49.3419" lon="0.1029">
        <ele>6.1</ele>
        <time>2023-09-03T06:32:42Z</time>
      </trkpt>
      <trkpt lat="49.34187" lon="0.10293">
        <ele>6.1</ele>
        <time>2023-09-03T06:32:43Z</time>
      </trkpt>
      <trkpt lat="49.34185" lon="0.10295">
        <ele>6.1</ele>
        <time>2023-09-03T06:32:44Z</time>
      </trkpt>
      <trkpt lat="49.34182" lon="0.10298">
        <ele>6</ele>
        <time>2023-09-03T06:32:45Z</time>
      </trkpt>
      <trkpt lat="49.3418" lon="0.10301">
        <ele>6</ele>
        <time>2023-09-03T06:32:46Z</time>
      </trkpt>
      <trkpt lat="49.34177" lon="0.10304">
        <ele>6</ele>
        <time>2023-09-03T06:32:47Z</time>
      </trkpt>
      <trkpt lat="49.34175" lon="0.10306">
        <ele>6</ele>
        <time>2023-09-03T06:32:48Z</time>
      </trkpt>
      <trkpt lat="49.34172" lon="0.1031">
        <ele>6</ele>
        <time>2023-09-03T06:32:49Z</time>
      </trkpt>
      <trkpt lat="49.34169" lon="0.10313">
        <ele>6</ele>
        <time>2023-09-03T06:32:50Z</time>
      </trkpt>
      <trkpt lat="49.34166" lon="0.10316">
        <ele>6</ele>
        <time>2023-09-03T06:32:51Z</time>
      </trkpt>
      <trkpt lat="49.34163" lon="0.1032">
        <ele>5.9</ele>
        <time>2023-09-03T06:32:52Z</time>
      </trkpt>
      <trkpt lat="49.34161" lon="0.10323">
        <ele>5.9</ele>
        <time>2023-09-03T06:32:53Z</time>
      </trkpt>
      <trkpt lat="49.34158" lon="0.10326">
        <ele>5.9</ele>
        <time>2023-09-03T06:32:54Z</time>
      </trkpt>
      <trkpt lat="49.34155" lon="0.10329">
        <ele>5.9</ele>
        <time>2023-09-03T06:32:55Z</time>
      </trkpt>
      <trkpt lat="49.34151" lon="0.10333">
        <ele>5.8</ele>
        <time>2023-09-03T06:32:56Z</time>
      </trkpt>
      <trkpt lat="49.34148" lon="0.10337">
        <ele>5.7</ele>
        <time>2023-09-03T06:32:57Z</time>
      </trkpt>
      <trkpt lat="49.34145" lon="0.10342">
        <ele>5.6</ele>
        <time>2023-09-03T06:32:58Z</time>
      </trkpt>
      <trkpt lat="49.34141" lon="0.10349">
        <ele>5.5</ele>
        <time>2023-09-03T06:32:59Z</time>
      </trkpt>
      <trkpt lat="49.34137" lon="0.10356">
        <ele>5.4</ele>
        <time>2023-09-03T06:33:00Z</time>
      </trkpt>
      <trkpt lat="49.34134" lon="0.10362">
        <ele>5.3</ele>
        <time>2023-09-03T06:33:01Z</time>
      </trkpt>
      <trkpt lat="49.3413" lon="0.10368">
        <ele>5.3</ele>
        <time>2023-09-03T06:33:02Z</time>
      </trkpt>
      <trkpt lat="49.34126" lon="0.10374">
        <ele>5.2</ele>
        <time>2023-09-03T06:33:03Z</time>
      </trkpt>
      <trkpt lat="49.34122" lon="0.1038">
        <ele>5.2</ele>
        <time>2023-09-03T06:33:04Z</time>
      </trkpt>
      <trkpt lat="49.34119" lon="0.10386">
        <ele>5.1</ele>
        <time>2023-09-03T06:33:05Z</time>
      </trkpt>
      <trkpt lat="49.34115" lon="0.10392">
        <ele>5.1</ele>
        <time>2023-09-03T06:33:06Z</time>
      </trkpt>
      <trkpt lat="49.34111" lon="0.10397">
        <ele>5.1</ele>
        <time>2023-09-03T06:33:07Z</time>
      </trkpt>
      <trkpt lat="49.34107" lon="0.10402">
        <ele>5.1</ele>
        <time>2023-09-03T06:33:08Z</time>
      </trkpt>
      <trkpt lat="49.34103" lon="0.10407">
        <ele>5.1</ele>
        <time>2023-09-03T06:33:09Z</time>
      </trkpt>
      <trkpt lat="49.34099" lon="0.10411">
        <ele>5.2</ele>
        <time>2023-09-03T06:33:10Z</time>
      </trkpt>
      <trkpt lat="49.34095" lon="0.10414">
        <ele>5.2</ele>
        <time>2023-09-03T06:33:11Z</time>
      </trkpt>
      <trkpt lat="49.3409" lon="0.10416">
        <ele>5.2</ele>
        <time>2023-09-03T06:33:12Z</time>
      </trkpt>
      <trkpt lat="49.34086" lon="0.10416">
        <ele>5.2</ele>
        <time>2023-09-03T06:33:13Z</time>
      </trkpt>
      <trkpt lat="49.34083" lon="0.10414">
        <ele>5.1</ele>
        <time>2023-09-03T06:33:14Z</time>
      </trkpt>
      <trkpt lat="49.34079" lon="0.10411">
        <ele>5.1</ele>
        <time>2023-09-03T06:33:15Z</time>
      </trkpt>
      <trkpt lat="49.34076" lon="0.10407">
        <ele>5.1</ele>
        <time>2023-09-03T06:33:16Z</time>
      </trkpt>
      <trkpt lat="49.34073" lon="0.10404">
        <ele>5.1</ele>
        <time>2023-09-03T06:33:17Z</time>
      </trkpt>
      <trkpt lat="49.3407" lon="0.104">
        <ele>5</ele>
        <time>2023-09-03T06:33:18Z</time>
      </trkpt>
      <trkpt lat="49.34066" lon="0.10397">
        <ele>5</ele>
        <time>2023-09-03T06:33:19Z</time>
      </trkpt>
      <trkpt lat="49.34063" lon="0.10394">
        <ele>5</ele>
        <time>2023-09-03T06:33:20Z</time>
      </trkpt>
      <trkpt lat="49.34061" lon="0.10391">
        <ele>5</ele>
        <time>2023-09-03T06:33:21Z</time>
      </trkpt>
      <trkpt lat="49.34059" lon="0.10389">
        <ele>5</ele>
        <time>2023-09-03T06:33:22Z</time>
      </trkpt>
      <trkpt lat="49.34058" lon="0.10389">
        <ele>5</ele>
        <time>2023-09-03T06:33:23Z</time>
      </trkpt>
      <trkpt lat="49.34058" lon="0.1039">
        <ele>5</ele>
        <time>2023-09-03T06:33:24Z</time>
      </trkpt>
      <trkpt lat="49.34058" lon="0.1039">
        <ele>5</ele>
        <time>2023-09-03T06:33:25Z</time>
      </trkpt>
      <trkpt lat="49.34058" lon="0.10391">
        <ele>5</ele>
        <time>2023-09-03T06:33:26Z</time>
      </trkpt>
      <trkpt lat="49.34058" lon="0.10391">
        <ele>5</ele>
        <time>2023-09-03T06:33:27Z</time>
      </trkpt>
      <trkpt lat="49.34058" lon="0.10391">
        <ele>5</ele>
        <time>2023-09-03T06:33:28Z</time>
      </trkpt>
      <trkpt lat="49.34058" lon="0.10391">
        <ele>5</ele>
        <time>2023-09-03T06:33:29Z</time>
      </trkpt>
      <trkpt lat="49.34058" lon="0.10391">
        <ele>5</ele>
        <time>2023-09-03T06:33:30Z</time>
      </trkpt>
      <trkpt lat="49.34058" lon="0.10391">
        <ele>5</ele>
        <time>2023-09-03T06:33:31Z</time>
      </trkpt>
      <trkpt lat="49.34058" lon="0.1039">
        <ele>5</ele>
        <time>2023-09-03T06:33:32Z</time>
      </trkpt>
      <trkpt lat="49.34058" lon="0.10389">
        <ele>5</ele>
        <time>2023-09-03T06:33:33Z</time>
      </trkpt>
      <trkpt lat="49.34059" lon="0.1039">
        <ele>5</ele>
        <time>2023-09-03T06:33:34Z</time>
      </trkpt>
      <trkpt lat="49.34059" lon="0.10391">
        <ele>5</ele>
        <time>2023-09-03T06:33:35Z</time>
      </trkpt>
      <trkpt lat="49.34059" lon="0.10393">
        <ele>5</ele>
        <time>2023-09-03T06:33:36Z</time>
      </trkpt>
      <trkpt lat="49.3406" lon="0.10397">
        <ele>5</ele>
        <time>2023-09-03T06:33:37Z</time>
      </trkpt>
      <trkpt lat="49.34061" lon="0.10398">
        <ele>5</ele>
        <time>2023-09-03T06:33:38Z</time>
      </trkpt>
      <trkpt lat="49.34063" lon="0.10404">
        <ele>4.9</ele>
        <time>2023-09-03T06:33:39Z</time>
      </trkpt>
      <trkpt lat="49.34063" lon="0.10406">
        <ele>4.9</ele>
        <time>2023-09-03T06:33:40Z</time>
      </trkpt>
      <trkpt lat="49.34065" lon="0.1041">
        <ele>5</ele>
        <time>2023-09-03T06:33:41Z</time>
      </trkpt>
      <trkpt lat="49.34067" lon="0.10414">
        <ele>5</ele>
        <time>2023-09-03T06:33:42Z</time>
      </trkpt>
      <trkpt lat="49.34069" lon="0.10417">
        <ele>5</ele>
        <time>2023-09-03T06:33:43Z</time>
      </trkpt>
      <trkpt lat="49.34072" lon="0.10419">
        <ele>5</ele>
        <time>2023-09-03T06:33:44Z</time>
      </trkpt>
      <trkpt lat="49.34075" lon="0.10421">
        <ele>5.1</ele>
        <time>2023-09-03T06:33:45Z</time>
      </trkpt>
      <trkpt lat="49.34079" lon="0.10422">
        <ele>5.2</ele>
        <time>2023-09-03T06:33:46Z</time>
      </trkpt>
      <trkpt lat="49.34083" lon="0.10422">
        <ele>5.3</ele>
        <time>2023-09-03T06:33:47Z</time>
      </trkpt>
      <trkpt lat="49.34087" lon="0.10421">
        <ele>5.3</ele>
        <time>2023-09-03T06:33:48Z</time>
      </trkpt>
      <trkpt lat="49.3409" lon="0.1042">
        <ele>5.2</ele>
        <time>2023-09-03T06:33:49Z</time>
      </trkpt>
      <trkpt lat="49.34093" lon="0.10418">
        <ele>5.2</ele>
        <time>2023-09-03T06:33:50Z</time>
      </trkpt>
      <trkpt lat="49.34096" lon="0.10416">
        <ele>5.2</ele>
        <time>2023-09-03T06:33:51Z</time>
      </trkpt>
      <trkpt lat="49.34097" lon="0.10416">
        <ele>5.2</ele>
        <time>2023-09-03T06:33:52Z</time>
      </trkpt>
      <trkpt lat="49.34097" lon="0.10415">
        <ele>5.2</ele>
        <time>2023-09-03T06:33:53Z</time>
      </trkpt>
      <trkpt lat="49.34098" lon="0.10415">
        <ele>5.2</ele>
        <time>2023-09-03T06:33:54Z</time>
      </trkpt>
      <trkpt lat="49.34098" lon="0.10414">
        <ele>5.2</ele>
        <time>2023-09-03T06:33:55Z</time>
      </trkpt>
      <trkpt lat="49.34098" lon="0.10414">
        <ele>5.2</ele>
        <time>2023-09-03T06:33:56Z</time>
      </trkpt>
      <trkpt lat="49.34098" lon="0.10414">
        <ele>5.2</ele>
        <time>2023-09-03T06:33:57Z</time>
      </trkpt>
      <trkpt lat="49.34099" lon="0.10413">
        <ele>5.2</ele>
        <time>2023-09-03T06:33:58Z</time>
      </trkpt>
      <trkpt lat="49.34099" lon="0.10413">
        <ele>5.2</ele>
        <time>2023-09-03T06:33:59Z</time>
      </trkpt>
      <trkpt lat="49.34099" lon="0.10412">
        <ele>5.2</ele>
        <time>2023-09-03T06:34:00Z</time>
      </trkpt>
      <trkpt lat="49.341" lon="0.10412">
        <ele>5.2</ele>
        <time>2023-09-03T06:34:01Z</time>
      </trkpt>
      <trkpt lat="49.341" lon="0.10412">
        <ele>5.2</ele>
        <time>2023-09-03T06:34:02Z</time>
      </trkpt>
      <trkpt lat="49.341" lon="0.10411">
        <ele>5.2</ele>
        <time>2023-09-03T06:34:03Z</time>
      </trkpt>
      <trkpt lat="49.34101" lon="0.10411">
        <ele>5.2</ele>
        <time>2023-09-03T06:34:04Z</time>
      </trkpt>
      <trkpt lat="49.34101" lon="0.1041">
        <ele>5.2</ele>
        <time>2023-09-03T06:35:13Z</time>
      </trkpt>
      <trkpt lat="49.34101" lon="0.1041">
        <ele>5.2</ele>
        <time>2023-09-03T06:35:14Z</time>
      </trkpt>
      <trkpt lat="49.34102" lon="0.1041">
        <ele>5.1</ele>
        <time>2023-09-03T06:35:15Z</time>
      </trkpt>
      <trkpt lat="49.34103" lon="0.10406">
        <ele>5.1</ele>
        <time>2023-09-03T06:35:16Z</time>
      </trkpt>
      <trkpt lat="49.34104" lon="0.10405">
        <ele>5.1</ele>
        <time>2023-09-03T06:35:17Z</time>
      </trkpt>
      <trkpt lat="49.34107" lon="0.10401">
        <ele>5.1</ele>
        <time>2023-09-03T06:35:18Z</time>
      </trkpt>
      <trkpt lat="49.34108" lon="0.104">
        <ele>5.1</ele>
        <time>2023-09-03T06:35:19Z</time>
      </trkpt>
      <trkpt lat="49.3411" lon="0.10397">
        <ele>5.1</ele>
        <time>2023-09-03T06:35:20Z</time>
      </trkpt>
      <trkpt lat="49.34113" lon="0.10393">
        <ele>5.1</ele>
        <time>2023-09-03T06:35:21Z</time>
      </trkpt>
      <trkpt lat="49.34116" lon="0.1039">
        <ele>5.1</ele>
        <time>2023-09-03T06:35:22Z</time>
      </trkpt>
      <trkpt lat="49.34119" lon="0.10385">
        <ele>5.1</ele>
        <time>2023-09-03T06:35:23Z</time>
      </trkpt>
      <trkpt lat="49.34122" lon="0.10381">
        <ele>5.2</ele>
        <time>2023-09-03T06:35:24Z</time>
      </trkpt>
      <trkpt lat="49.34125" lon="0.10376">
        <ele>5.2</ele>
        <time>2023-09-03T06:35:25Z</time>
      </trkpt>
      <trkpt lat="49.34128" lon="0.10372">
        <ele>5.2</ele>
        <time>2023-09-03T06:35:26Z</time>
      </trkpt>
      <trkpt lat="49.3413" lon="0.10368">
        <ele>5.3</ele>
        <time>2023-09-03T06:35:27Z</time>
      </trkpt>
      <trkpt lat="49.34133" lon="0.10364">
        <ele>5.3</ele>
        <time>2023-09-03T06:35:28Z</time>
      </trkpt>
      <trkpt lat="49.34136" lon="0.1036">
        <ele>5.4</ele>
        <time>2023-09-03T06:35:29Z</time>
      </trkpt>
      <trkpt lat="49.34139" lon="0.10356">
        <ele>5.5</ele>
        <time>2023-09-03T06:35:30Z</time>
      </trkpt>
      <trkpt lat="49.34143" lon="0.10351">
        <ele>5.5</ele>
        <time>2023-09-03T06:35:31Z</time>
      </trkpt>
      <trkpt lat="49.34146" lon="0.10347">
        <ele>5.6</ele>
        <time>2023-09-03T06:35:32Z</time>
      </trkpt>
      <trkpt lat="49.34149" lon="0.10342">
        <ele>5.7</ele>
        <time>2023-09-03T06:35:33Z</time>
      </trkpt>
      <trkpt lat="49.34152" lon="0.10338">
        <ele>5.8</ele>
        <time>2023-09-03T06:35:34Z</time>
      </trkpt>
      <trkpt lat="49.34154" lon="0.10332">
        <ele>5.9</ele>
        <time>2023-09-03T06:35:35Z</time>
      </trkpt>
      <trkpt lat="49.34157" lon="0.10327">
        <ele>5.9</ele>
        <time>2023-09-03T06:35:36Z</time>
      </trkpt>
      <trkpt lat="49.3416" lon="0.10322">
        <ele>5.9</ele>
        <time>2023-09-03T06:35:37Z</time>
      </trkpt>
      <trkpt lat="49.34163" lon="0.10316">
        <ele>5.9</ele>
        <time>2023-09-03T06:35:38Z</time>
      </trkpt>
      <trkpt lat="49.34167" lon="0.10311">
        <ele>6</ele>
        <time>2023-09-03T06:35:39Z</time>
      </trkpt>
      <trkpt lat="49.34171" lon="0.10306">
        <ele>6</ele>
        <time>2023-09-03T06:35:40Z</time>
      </trkpt>
      <trkpt lat="49.34174" lon="0.10301">
        <ele>6</ele>
        <time>2023-09-03T06:35:41Z</time>
      </trkpt>
      <trkpt lat="49.34179" lon="0.10297">
        <ele>6</ele>
        <time>2023-09-03T06:35:42Z</time>
      </trkpt>
      <trkpt lat="49.34183" lon="0.10293">
        <ele>6.1</ele>
        <time>2023-09-03T06:35:43Z</time>
      </trkpt>
      <trkpt lat="49.34188" lon="0.10289">
        <ele>6.1</ele>
        <time>2023-09-03T06:35:44Z</time>
      </trkpt>
      <trkpt lat="49.34192" lon="0.10285">
        <ele>6.1</ele>
        <time>2023-09-03T06:35:45Z</time>
      </trkpt>
      <trkpt lat="49.34197" lon="0.10281">
        <ele>6.1</ele>
        <time>2023-09-03T06:35:46Z</time>
      </trkpt>
      <trkpt lat="49.34202" lon="0.10279">
        <ele>6.1</ele>
        <time>2023-09-03T06:35:47Z</time>
      </trkpt>
      <trkpt lat="49.34206" lon="0.10276">
        <ele>6</ele>
        <time>2023-09-03T06:35:48Z</time>
      </trkpt>
      <trkpt lat="49.34212" lon="0.10275">
        <ele>6</ele>
        <time>2023-09-03T06:35:49Z</time>
      </trkpt>
      <trkpt lat="49.34218" lon="0.10274">
        <ele>5.9</ele>
        <time>2023-09-03T06:35:50Z</time>
      </trkpt>
      <trkpt lat="49.34223" lon="0.10274">
        <ele>5.8</ele>
        <time>2023-09-03T06:35:51Z</time>
      </trkpt>
      <trkpt lat="49.34229" lon="0.10273">
        <ele>5.8</ele>
        <time>2023-09-03T06:35:52Z</time>
      </trkpt>
      <trkpt lat="49.34235" lon="0.10272">
        <ele>5.8</ele>
        <time>2023-09-03T06:35:53Z</time>
      </trkpt>
      <trkpt lat="49.34241" lon="0.1027">
        <ele>5.7</ele>
        <time>2023-09-03T06:35:54Z</time>
      </trkpt>
      <trkpt lat="49.34247" lon="0.10267">
        <ele>5.7</ele>
        <time>2023-09-03T06:35:55Z</time>
      </trkpt>
      <trkpt lat="49.34252" lon="0.10264">
        <ele>5.6</ele>
        <time>2023-09-03T06:35:56Z</time>
      </trkpt>
      <trkpt lat="49.34258" lon="0.10261">
        <ele>5.6</ele>
        <time>2023-09-03T06:35:57Z</time>
      </trkpt>
      <trkpt lat="49.34263" lon="0.10258">
        <ele>5.5</ele>
        <time>2023-09-03T06:35:58Z</time>
      </trkpt>
      <trkpt lat="49.34269" lon="0.10255">
        <ele>5.5</ele>
        <time>2023-09-03T06:35:59Z</time>
      </trkpt>
      <trkpt lat="49.34275" lon="0.10252">
        <ele>5.4</ele>
        <time>2023-09-03T06:36:00Z</time>
      </trkpt>
      <trkpt lat="49.3428" lon="0.10249">
        <ele>5.4</ele>
        <time>2023-09-03T06:36:01Z</time>
      </trkpt>
      <trkpt lat="49.34286" lon="0.10247">
        <ele>5.4</ele>
        <time>2023-09-03T06:36:02Z</time>
      </trkpt>
      <trkpt lat="49.34292" lon="0.10243">
        <ele>5.4</ele>
        <time>2023-09-03T06:36:03Z</time>
      </trkpt>
      <trkpt lat="49.34298" lon="0.1024">
        <ele>5.4</ele>
        <time>2023-09-03T06:36:04Z</time>
      </trkpt>
      <trkpt lat="49.34303" lon="0.10236">
        <ele>5.4</ele>
        <time>2023-09-03T06:36:05Z</time>
      </trkpt>
      <trkpt lat="49.34308" lon="0.10231">
        <ele>5.4</ele>
        <time>2023-09-03T06:36:06Z</time>
      </trkpt>
      <trkpt lat="49.34313" lon="0.10227">
        <ele>5.5</ele>
        <time>2023-09-03T06:36:07Z</time>
      </trkpt>
      <trkpt lat="49.34318" lon="0.10223">
        <ele>5.5</ele>
        <time>2023-09-03T06:36:08Z</time>
      </trkpt>
      <trkpt lat="49.34323" lon="0.10219">
        <ele>5.6</ele>
        <time>2023-09-03T06:36:09Z</time>
      </trkpt>
      <trkpt lat="49.34328" lon="0.10216">
        <ele>5.6</ele>
        <time>2023-09-03T06:36:10Z</time>
      </trkpt>
      <trkpt lat="49.34332" lon="0.10212">
        <ele>5.7</ele>
        <time>2023-09-03T06:36:11Z</time>
      </trkpt>
      <trkpt lat="49.34337" lon="0.10209">
        <ele>5.8</ele>
        <time>2023-09-03T06:36:12Z</time>
      </trkpt>
      <trkpt lat="49.34341" lon="0.10205">
        <ele>5.8</ele>
        <time>2023-09-03T06:36:13Z</time>
      </trkpt>
      <trkpt lat="49.34346" lon="0.10201">
        <ele>5.8</ele>
        <time>2023-09-03T06:36:14Z</time>
      </trkpt>
      <trkpt lat="49.34349" lon="0.10197">
        <ele>5.9</ele>
        <time>2023-09-03T06:36:15Z</time>
      </trkpt>
      <trkpt lat="49.34353" lon="0.10193">
        <ele>5.9</ele>
        <time>2023-09-03T06:36:16Z</time>
      </trkpt>
      <trkpt lat="49.34357" lon="0.10189">
        <ele>6</ele>
        <time>2023-09-03T06:36:17Z</time>
      </trkpt>
      <trkpt lat="49.34362" lon="0.10186">
        <ele>6.1</ele>
        <time>2023-09-03T06:36:18Z</time>
      </trkpt>
      <trkpt lat="49.34366" lon="0.10185">
        <ele>6.1</ele>
        <time>2023-09-03T06:36:19Z</time>
      </trkpt>
      <trkpt lat="49.34371" lon="0.10184">
        <ele>6.2</ele>
        <time>2023-09-03T06:36:20Z</time>
      </trkpt>
      <trkpt lat="49.34376" lon="0.10184">
        <ele>6.3</ele>
        <time>2023-09-03T06:36:21Z</time>
      </trkpt>
      <trkpt lat="49.3438" lon="0.10184">
        <ele>6.3</ele>
        <time>2023-09-03T06:36:22Z</time>
      </trkpt>
      <trkpt lat="49.34384" lon="0.10184">
        <ele>6.4</ele>
        <time>2023-09-03T06:36:23Z</time>
      </trkpt>
      <trkpt lat="49.34388" lon="0.10183">
        <ele>6.4</ele>
        <time>2023-09-03T06:36:24Z</time>
      </trkpt>
      <trkpt lat="49.34393" lon="0.10183">
        <ele>6.5</ele>
        <time>2023-09-03T06:36:25Z</time>
      </trkpt>
      <trkpt lat="49.34397" lon="0.10182">
        <ele>6.5</ele>
        <time>2023-09-03T06:36:26Z</time>
      </trkpt>
      <trkpt lat="49.34402" lon="0.10182">
        <ele>6.6</ele>
        <time>2023-09-03T06:36:27Z</time>
      </trkpt>
      <trkpt lat="49.34406" lon="0.10183">
        <ele>6.6</ele>
        <time>2023-09-03T06:36:28Z</time>
      </trkpt>
      <trkpt lat="49.3441" lon="0.10185">
        <ele>6.7</ele>
        <time>2023-09-03T06:36:29Z</time>
      </trkpt>
      <trkpt lat="49.34414" lon="0.10187">
        <ele>6.7</ele>
        <time>2023-09-03T06:36:30Z</time>
      </trkpt>
      <trkpt lat="49.34419" lon="0.10191">
        <ele>6.7</ele>
        <time>2023-09-03T06:36:31Z</time>
      </trkpt>
      <trkpt lat="49.34424" lon="0.10194">
        <ele>6.8</ele>
        <time>2023-09-03T06:36:32Z</time>
      </trkpt>
      <trkpt lat="49.34428" lon="0.10197">
        <ele>6.9</ele>
        <time>2023-09-03T06:36:33Z</time>
      </trkpt>
      <trkpt lat="49.34432" lon="0.102">
        <ele>6.9</ele>
        <time>2023-09-03T06:36:34Z</time>
      </trkpt>
      <trkpt lat="49.34436" lon="0.10203">
        <ele>7</ele>
        <time>2023-09-03T06:36:35Z</time>
      </trkpt>
      <trkpt lat="49.34439" lon="0.10206">
        <ele>7</ele>
        <time>2023-09-03T06:36:36Z</time>
      </trkpt>
      <trkpt lat="49.34442" lon="0.10209">
        <ele>7.1</ele>
        <time>2023-09-03T06:36:37Z</time>
      </trkpt>
      <trkpt lat="49.34446" lon="0.10212">
        <ele>7.2</ele>
        <time>2023-09-03T06:36:38Z</time>
      </trkpt>
      <trkpt lat="49.3445" lon="0.10215">
        <ele>7.3</ele>
        <time>2023-09-03T06:36:39Z</time>
      </trkpt>
      <trkpt lat="49.34455" lon="0.10218">
        <ele>7.4</ele>
        <time>2023-09-03T06:36:40Z</time>
      </trkpt>
      <trkpt lat="49.34458" lon="0.10221">
        <ele>7.5</ele>
        <time>2023-09-03T06:36:41Z</time>
      </trkpt>
      <trkpt lat="49.34461" lon="0.10224">
        <ele>7.6</ele>
        <time>2023-09-03T06:36:42Z</time>
      </trkpt>
      <trkpt lat="49.34464" lon="0.10229">
        <ele>7.7</ele>
        <time>2023-09-03T06:36:43Z</time>
      </trkpt>
      <trkpt lat="49.34466" lon="0.10234">
        <ele>7.8</ele>
        <time>2023-09-03T06:36:44Z</time>
      </trkpt>
      <trkpt lat="49.34469" lon="0.10239">
        <ele>7.8</ele>
        <time>2023-09-03T06:36:45Z</time>
      </trkpt>
      <trkpt lat="49.34471" lon="0.10244">
        <ele>7.9</ele>
        <time>2023-09-03T06:36:46Z</time>
      </trkpt>
      <trkpt lat="49.34472" lon="0.10249">
        <ele>7.9</ele>
        <time>2023-09-03T06:36:47Z</time>
      </trkpt>
      <trkpt lat="49.34473" lon="0.10254">
        <ele>8</ele>
        <time>2023-09-03T06:36:48Z</time>
      </trkpt>
      <trkpt lat="49.34476" lon="0.10258">
        <ele>8.1</ele>
        <time>2023-09-03T06:36:49Z</time>
      </trkpt>
      <trkpt lat="49.34476" lon="0.1026">
        <ele>8.1</ele>
        <time>2023-09-03T06:36:50Z</time>
      </trkpt>
      <trkpt lat="49.34478" lon="0.10262">
        <ele>8.2</ele>
        <time>2023-09-03T06:36:51Z</time>
      </trkpt>
      <trkpt lat="49.34478" lon="0.10263">
        <ele>8.2</ele>
        <time>2023-09-03T06:36:52Z</time>
      </trkpt>
      <trkpt lat="49.34478" lon="0.10263">
        <ele>8.2</ele>
        <time>2023-09-03T06:36:53Z</time>
      </trkpt>
      <trkpt lat="49.34478" lon="0.10263">
        <ele>8.2</ele>
        <time>2023-09-03T06:36:54Z</time>
      </trkpt>
      <trkpt lat="49.34478" lon="0.10264">
        <ele>8.2</ele>
        <time>2023-09-03T06:36:55Z</time>
      </trkpt>
      <trkpt lat="49.34479" lon="0.10264">
        <ele>8.2</ele>
        <time>2023-09-03T06:36:56Z</time>
      </trkpt>
      <trkpt lat="49.34479" lon="0.10265">
        <ele>8.2</ele>
        <time>2023-09-03T06:36:57Z</time>
      </trkpt>
      <trkpt lat="49.34479" lon="0.10265">
        <ele>8.3</ele>
        <time>2023-09-03T06:36:58Z</time>
      </trkpt>
      <trkpt lat="49.34479" lon="0.10266">
        <ele>8.3</ele>
        <time>2023-09-03T06:36:59Z</time>
      </trkpt>
      <trkpt lat="49.34479" lon="0.10266">
        <ele>8.3</ele>
        <time>2023-09-03T06:37:00Z</time>
      </trkpt>
      <trkpt lat="49.3448" lon="0.10266">
        <ele>8.3</ele>
        <time>2023-09-03T06:37:01Z</time>
      </trkpt>
      <trkpt lat="49.3448" lon="0.10267">
        <ele>8.3</ele>
        <time>2023-09-03T06:37:02Z</time>
      </trkpt>
      <trkpt lat="49.3448" lon="0.10267">
        <ele>8.3</ele>
        <time>2023-09-03T06:37:03Z</time>
      </trkpt>
      <trkpt lat="49.3448" lon="0.10268">
        <ele>8.3</ele>
        <time>2023-09-03T06:37:09Z</time>
      </trkpt>
      <trkpt lat="49.3448" lon="0.10268">
        <ele>8.3</ele>
        <time>2023-09-03T06:37:10Z</time>
      </trkpt>
      <trkpt lat="49.34481" lon="0.10269">
        <ele>8.3</ele>
        <time>2023-09-03T06:37:11Z</time>
      </trkpt>
      <trkpt lat="49.34483" lon="0.10273">
        <ele>8.5</ele>
        <time>2023-09-03T06:37:12Z</time>
      </trkpt>
      <trkpt lat="49.34483" lon="0.10275">
        <ele>8.5</ele>
        <time>2023-09-03T06:37:13Z</time>
      </trkpt>
      <trkpt lat="49.34485" lon="0.10278">
        <ele>8.6</ele>
        <time>2023-09-03T06:37:14Z</time>
      </trkpt>
      <trkpt lat="49.34486" lon="0.10283">
        <ele>8.6</ele>
        <time>2023-09-03T06:37:15Z</time>
      </trkpt>
      <trkpt lat="49.34488" lon="0.10287">
        <ele>8.7</ele>
        <time>2023-09-03T06:37:16Z</time>
      </trkpt>
      <trkpt lat="49.34491" lon="0.10292">
        <ele>8.9</ele>
        <time>2023-09-03T06:37:17Z</time>
      </trkpt>
      <trkpt lat="49.34493" lon="0.10297">
        <ele>9</ele>
        <time>2023-09-03T06:37:18Z</time>
      </trkpt>
      <trkpt lat="49.34495" lon="0.10302">
        <ele>9.1</ele>
        <time>2023-09-03T06:37:19Z</time>
      </trkpt>
      <trkpt lat="49.34497" lon="0.10308">
        <ele>9.3</ele>
        <time>2023-09-03T06:37:20Z</time>
      </trkpt>
      <trkpt lat="49.345" lon="0.10313">
        <ele>9.4</ele>
        <time>2023-09-03T06:37:21Z</time>
      </trkpt>
      <trkpt lat="49.34502" lon="0.10318">
        <ele>9.6</ele>
        <time>2023-09-03T06:37:22Z</time>
      </trkpt>
      <trkpt lat="49.34503" lon="0.10324">
        <ele>9.8</ele>
        <time>2023-09-03T06:37:23Z</time>
      </trkpt>
      <trkpt lat="49.34505" lon="0.10331">
        <ele>9.8</ele>
        <time>2023-09-03T06:37:24Z</time>
      </trkpt>
      <trkpt lat="49.34508" lon="0.10337">
        <ele>9.8</ele>
        <time>2023-09-03T06:37:25Z</time>
      </trkpt>
      <trkpt lat="49.34511" lon="0.10343">
        <ele>9.9</ele>
        <time>2023-09-03T06:37:26Z</time>
      </trkpt>
      <trkpt lat="49.34514" lon="0.10349">
        <ele>10.3</ele>
        <time>2023-09-03T06:37:27Z</time>
      </trkpt>
      <trkpt lat="49.34517" lon="0.10355">
        <ele>10.5</ele>
        <time>2023-09-03T06:37:28Z</time>
      </trkpt>
      <trkpt lat="49.3452" lon="0.10362">
        <ele>10.7</ele>
        <time>2023-09-03T06:37:29Z</time>
      </trkpt>
      <trkpt lat="49.34521" lon="0.10368">
        <ele>10.9</ele>
        <time>2023-09-03T06:37:30Z</time>
      </trkpt>
      <trkpt lat="49.34523" lon="0.10374">
        <ele>11.1</ele>
        <time>2023-09-03T06:37:31Z</time>
      </trkpt>
      <trkpt lat="49.34526" lon="0.10377">
        <ele>11.2</ele>
        <time>2023-09-03T06:37:32Z</time>
      </trkpt>
      <trkpt lat="49.34526" lon="0.10377">
        <ele>11.3</ele>
        <time>2023-09-03T06:37:33Z</time>
      </trkpt>
      <trkpt lat="49.34527" lon="0.10377">
        <ele>11.3</ele>
        <time>2023-09-03T06:37:34Z</time>
      </trkpt>
      <trkpt lat="49.34526" lon="0.10376">
        <ele>11.3</ele>
        <time>2023-09-03T06:37:35Z</time>
      </trkpt>
      <trkpt lat="49.34527" lon="0.10376">
        <ele>11.3</ele>
        <time>2023-09-03T06:37:36Z</time>
      </trkpt>
      <trkpt lat="49.34527" lon="0.10376">
        <ele>11.3</ele>
        <time>2023-09-03T06:37:37Z</time>
      </trkpt>
      <trkpt lat="49.34527" lon="0.10376">
        <ele>11.3</ele>
        <time>2023-09-03T06:37:38Z</time>
      </trkpt>
      <trkpt lat="49.34527" lon="0.10377">
        <ele>11.4</ele>
        <time>2023-09-03T06:37:39Z</time>
      </trkpt>
      <trkpt lat="49.34527" lon="0.10377">
        <ele>11.4</ele>
        <time>2023-09-03T06:37:40Z</time>
      </trkpt>
      <trkpt lat="49.34527" lon="0.10377">
        <ele>11.4</ele>
        <time>2023-09-03T06:37:41Z</time>
      </trkpt>
      <trkpt lat="49.34527" lon="0.10377">
        <ele>11.4</ele>
        <time>2023-09-03T06:37:42Z</time>
      </trkpt>
      <trkpt lat="49.34527" lon="0.10377">
        <ele>11.4</ele>
        <time>2023-09-03T06:37:43Z</time>
      </trkpt>
      <trkpt lat="49.34527" lon="0.10377">
        <ele>11.4</ele>
        <time>2023-09-03T06:37:44Z</time>
      </trkpt>
      <trkpt lat="49.34529" lon="0.1038">
        <ele>11.5</ele>
        <time>2023-09-03T06:37:56Z</time>
      </trkpt>
      <trkpt lat="49.34529" lon="0.10382">
        <ele>11.6</ele>
        <time>2023-09-03T06:37:57Z</time>
      </trkpt>
      <trkpt lat="49.3453" lon="0.10384">
        <ele>11.6</ele>
        <time>2023-09-03T06:37:58Z</time>
      </trkpt>
      <trkpt lat="49.34532" lon="0.10388">
        <ele>11.8</ele>
        <time>2023-09-03T06:37:59Z</time>
      </trkpt>
      <trkpt lat="49.34533" lon="0.1039">
        <ele>11.9</ele>
        <time>2023-09-03T06:38:00Z</time>
      </trkpt>
      <trkpt lat="49.34535" lon="0.10395">
        <ele>12</ele>
        <time>2023-09-03T06:38:01Z</time>
      </trkpt>
      <trkpt lat="49.34535" lon="0.10397">
        <ele>12.1</ele>
        <time>2023-09-03T06:38:02Z</time>
      </trkpt>
      <trkpt lat="49.34537" lon="0.10401">
        <ele>12.2</ele>
        <time>2023-09-03T06:38:03Z</time>
      </trkpt>
      <trkpt lat="49.34538" lon="0.10406">
        <ele>12.4</ele>
        <time>2023-09-03T06:38:04Z</time>
      </trkpt>
      <trkpt lat="49.3454" lon="0.10411">
        <ele>12.6</ele>
        <time>2023-09-03T06:38:05Z</time>
      </trkpt>
      <trkpt lat="49.34543" lon="0.10417">
        <ele>12.8</ele>
        <time>2023-09-03T06:38:06Z</time>
      </trkpt>
      <trkpt lat="49.34545" lon="0.10424">
        <ele>13</ele>
        <time>2023-09-03T06:38:07Z</time>
      </trkpt>
      <trkpt lat="49.34548" lon="0.1043">
        <ele>13.2</ele>
        <time>2023-09-03T06:38:08Z</time>
      </trkpt>
      <trkpt lat="49.34551" lon="0.10437">
        <ele>13.4</ele>
        <time>2023-09-03T06:38:09Z</time>
      </trkpt>
      <trkpt lat="49.34554" lon="0.10444">
        <ele>13.6</ele>
        <time>2023-09-03T06:38:10Z</time>
      </trkpt>
      <trkpt lat="49.34557" lon="0.1045">
        <ele>13.8</ele>
        <time>2023-09-03T06:38:11Z</time>
      </trkpt>
      <trkpt lat="49.3456" lon="0.10457">
        <ele>14.1</ele>
        <time>2023-09-03T06:38:12Z</time>
      </trkpt>
      <trkpt lat="49.34563" lon="0.10464">
        <ele>14.3</ele>
        <time>2023-09-03T06:38:13Z</time>
      </trkpt>
      <trkpt lat="49.34566" lon="0.1047">
        <ele>14.6</ele>
        <time>2023-09-03T06:38:14Z</time>
      </trkpt>
      <trkpt lat="49.34569" lon="0.10477">
        <ele>14.9</ele>
        <time>2023-09-03T06:38:15Z</time>
      </trkpt>
      <trkpt lat="49.34573" lon="0.10484">
        <ele>15.1</ele>
        <time>2023-09-03T06:38:16Z</time>
      </trkpt>
      <trkpt lat="49.34576" lon="0.10491">
        <ele>15.4</ele>
        <time>2023-09-03T06:38:17Z</time>
      </trkpt>
      <trkpt lat="49.34578" lon="0.10498">
        <ele>15.7</ele>
        <time>2023-09-03T06:38:18Z</time>
      </trkpt>
      <trkpt lat="49.34581" lon="0.10505">
        <ele>16</ele>
        <time>2023-09-03T06:38:19Z</time>
      </trkpt>
      <trkpt lat="49.34584" lon="0.10512">
        <ele>16.3</ele>
        <time>2023-09-03T06:38:20Z</time>
      </trkpt>
      <trkpt lat="49.34587" lon="0.1052">
        <ele>16.5</ele>
        <time>2023-09-03T06:38:21Z</time>
      </trkpt>
      <trkpt lat="49.3459" lon="0.10527">
        <ele>16.8</ele>
        <time>2023-09-03T06:38:22Z</time>
      </trkpt>
      <trkpt lat="49.34593" lon="0.10534">
        <ele>17.1</ele>
        <time>2023-09-03T06:38:23Z</time>
      </trkpt>
      <trkpt lat="49.34596" lon="0.10541">
        <ele>17.4</ele>
        <time>2023-09-03T06:38:24Z</time>
      </trkpt>
      <trkpt lat="49.34599" lon="0.10549">
        <ele>17.7</ele>
        <time>2023-09-03T06:38:25Z</time>
      </trkpt>
      <trkpt lat="49.34602" lon="0.10556">
        <ele>18</ele>
        <time>2023-09-03T06:38:26Z</time>
      </trkpt>
      <trkpt lat="49.34605" lon="0.10563">
        <ele>18.3</ele>
        <time>2023-09-03T06:38:27Z</time>
      </trkpt>
      <trkpt lat="49.34608" lon="0.1057">
        <ele>18.5</ele>
        <time>2023-09-03T06:38:28Z</time>
      </trkpt>
      <trkpt lat="49.34611" lon="0.10577">
        <ele>18.8</ele>
        <time>2023-09-03T06:38:29Z</time>
      </trkpt>
      <trkpt lat="49.34615" lon="0.10584">
        <ele>19.1</ele>
        <time>2023-09-03T06:38:30Z</time>
      </trkpt>
      <trkpt lat="49.34618" lon="0.1059">
        <ele>19.4</ele>
        <time>2023-09-03T06:38:31Z</time>
      </trkpt>
      <trkpt lat="49.34621" lon="0.10597">
        <ele>19.6</ele>
        <time>2023-09-03T06:38:32Z</time>
      </trkpt>
      <trkpt lat="49.34624" lon="0.10604">
        <ele>19.9</ele>
        <time>2023-09-03T06:38:33Z</time>
      </trkpt>
      <trkpt lat="49.34627" lon="0.10611">
        <ele>20.2</ele>
        <time>2023-09-03T06:38:34Z</time>
      </trkpt>
      <trkpt lat="49.3463" lon="0.10618">
        <ele>20.4</ele>
        <time>2023-09-03T06:38:35Z</time>
      </trkpt>
      <trkpt lat="49.34633" lon="0.10624">
        <ele>20.7</ele>
        <time>2023-09-03T06:38:36Z</time>
      </trkpt>
      <trkpt lat="49.34636" lon="0.10631">
        <ele>20.9</ele>
        <time>2023-09-03T06:38:37Z</time>
      </trkpt>
      <trkpt lat="49.34639" lon="0.10638">
        <ele>21.2</ele>
        <time>2023-09-03T06:38:38Z</time>
      </trkpt>
      <trkpt lat="49.34641" lon="0.10645">
        <ele>21.5</ele>
        <time>2023-09-03T06:38:39Z</time>
      </trkpt>
      <trkpt lat="49.34644" lon="0.10652">
        <ele>21.8</ele>
        <time>2023-09-03T06:38:40Z</time>
      </trkpt>
      <trkpt lat="49.34647" lon="0.1066">
        <ele>22</ele>
        <time>2023-09-03T06:38:41Z</time>
      </trkpt>
      <trkpt lat="49.34649" lon="0.10667">
        <ele>22.3</ele>
        <time>2023-09-03T06:38:42Z</time>
      </trkpt>
      <trkpt lat="49.34651" lon="0.10674">
        <ele>22.5</ele>
        <time>2023-09-03T06:38:43Z</time>
      </trkpt>
      <trkpt lat="49.34654" lon="0.10682">
        <ele>22.8</ele>
        <time>2023-09-03T06:38:44Z</time>
      </trkpt>
      <trkpt lat="49.34655" lon="0.1069">
        <ele>23</ele>
        <time>2023-09-03T06:38:45Z</time>
      </trkpt>
      <trkpt lat="49.34657" lon="0.10697">
        <ele>23.3</ele>
        <time>2023-09-03T06:38:46Z</time>
      </trkpt>
      <trkpt lat="49.34659" lon="0.10705">
        <ele>23.5</ele>
        <time>2023-09-03T06:38:47Z</time>
      </trkpt>
      <trkpt lat="49.34661" lon="0.10712">
        <ele>23.8</ele>
        <time>2023-09-03T06:38:48Z</time>
      </trkpt>
      <trkpt lat="49.34662" lon="0.10719">
        <ele>24</ele>
        <time>2023-09-03T06:38:49Z</time>
      </trkpt>
      <trkpt lat="49.34664" lon="0.10726">
        <ele>24.2</ele>
        <time>2023-09-03T06:38:50Z</time>
      </trkpt>
      <trkpt lat="49.34665" lon="0.10733">
        <ele>24.5</ele>
        <time>2023-09-03T06:38:51Z</time>
      </trkpt>
      <trkpt lat="49.34666" lon="0.1074">
        <ele>24.7</ele>
        <time>2023-09-03T06:38:52Z</time>
      </trkpt>
      <trkpt lat="49.34667" lon="0.10747">
        <ele>25</ele>
        <time>2023-09-03T06:38:53Z</time>
      </trkpt>
      <trkpt lat="49.34668" lon="0.10755">
        <ele>25.3</ele>
        <time>2023-09-03T06:38:54Z</time>
      </trkpt>
      <trkpt lat="49.3467" lon="0.10762">
        <ele>25.5</ele>
        <time>2023-09-03T06:38:55Z</time>
      </trkpt>
      <trkpt lat="49.34671" lon="0.10768">
        <ele>25.8</ele>
        <time>2023-09-03T06:38:56Z</time>
      </trkpt>
      <trkpt lat="49.34673" lon="0.10775">
        <ele>26</ele>
        <time>2023-09-03T06:38:57Z</time>
      </trkpt>
      <trkpt lat="49.34674" lon="0.10781">
        <ele>26.3</ele>
        <time>2023-09-03T06:38:58Z</time>
      </trkpt>
      <trkpt lat="49.34675" lon="0.10788">
        <ele>26.5</ele>
        <time>2023-09-03T06:38:59Z</time>
      </trkpt>
      <trkpt lat="49.34676" lon="0.10795">
        <ele>26.8</ele>
        <time>2023-09-03T06:39:00Z</time>
      </trkpt>
      <trkpt lat="49.34677" lon="0.10801">
        <ele>27.1</ele>
        <time>2023-09-03T06:39:01Z</time>
      </trkpt>
      <trkpt lat="49.34678" lon="0.10808">
        <ele>27.3</ele>
        <time>2023-09-03T06:39:02Z</time>
      </trkpt>
      <trkpt lat="49.3468" lon="0.10815">
        <ele>27.6</ele>
        <time>2023-09-03T06:39:03Z</time>
      </trkpt>
      <trkpt lat="49.34681" lon="0.10821">
        <ele>27.8</ele>
        <time>2023-09-03T06:39:04Z</time>
      </trkpt>
      <trkpt lat="49.34682" lon="0.10828">
        <ele>28.1</ele>
        <time>2023-09-03T06:39:05Z</time>
      </trkpt>
      <trkpt lat="49.34683" lon="0.10835">
        <ele>28.3</ele>
        <time>2023-09-03T06:39:06Z</time>
      </trkpt>
      <trkpt lat="49.34684" lon="0.10841">
        <ele>28.6</ele>
        <time>2023-09-03T06:39:07Z</time>
      </trkpt>
      <trkpt lat="49.34685" lon="0.10848">
        <ele>28.8</ele>
        <time>2023-09-03T06:39:08Z</time>
      </trkpt>
      <trkpt lat="49.34686" lon="0.10854">
        <ele>29.1</ele>
        <time>2023-09-03T06:39:09Z</time>
      </trkpt>
      <trkpt lat="49.34688" lon="0.10861">
        <ele>29.3</ele>
        <time>2023-09-03T06:39:10Z</time>
      </trkpt>
      <trkpt lat="49.34689" lon="0.10868">
        <ele>29.6</ele>
        <time>2023-09-03T06:39:11Z</time>
      </trkpt>
      <trkpt lat="49.3469" lon="0.10874">
        <ele>29.8</ele>
        <time>2023-09-03T06:39:12Z</time>
      </trkpt>
      <trkpt lat="49.34691" lon="0.1088">
        <ele>30</ele>
        <time>2023-09-03T06:39:13Z</time>
      </trkpt>
      <trkpt lat="49.34692" lon="0.10887">
        <ele>30.3</ele>
        <time>2023-09-03T06:39:14Z</time>
      </trkpt>
      <trkpt lat="49.34694" lon="0.10893">
        <ele>30.5</ele>
        <time>2023-09-03T06:39:15Z</time>
      </trkpt>
      <trkpt lat="49.34695" lon="0.10899">
        <ele>30.7</ele>
        <time>2023-09-03T06:39:16Z</time>
      </trkpt>
      <trkpt lat="49.34696" lon="0.10905">
        <ele>30.9</ele>
        <time>2023-09-03T06:39:17Z</time>
      </trkpt>
      <trkpt lat="49.34697" lon="0.10912">
        <ele>31.1</ele>
        <time>2023-09-03T06:39:18Z</time>
      </trkpt>
      <trkpt lat="49.34698" lon="0.10918">
        <ele>31.4</ele>
        <time>2023-09-03T06:39:19Z</time>
      </trkpt>
      <trkpt lat="49.34699" lon="0.10925">
        <ele>31.6</ele>
        <time>2023-09-03T06:39:20Z</time>
      </trkpt>
      <trkpt lat="49.34701" lon="0.10931">
        <ele>31.8</ele>
        <time>2023-09-03T06:39:21Z</time>
      </trkpt>
      <trkpt lat="49.34702" lon="0.10938">
        <ele>32</ele>
        <time>2023-09-03T06:39:22Z</time>
      </trkpt>
      <trkpt lat="49.34702" lon="0.10945">
        <ele>32.3</ele>
        <time>2023-09-03T06:39:23Z</time>
      </trkpt>
      <trkpt lat="49.34703" lon="0.10952">
        <ele>32.5</ele>
        <time>2023-09-03T06:39:24Z</time>
      </trkpt>
      <trkpt lat="49.34704" lon="0.10958">
        <ele>32.7</ele>
        <time>2023-09-03T06:39:25Z</time>
      </trkpt>
      <trkpt lat="49.34705" lon="0.10964">
        <ele>33</ele>
        <time>2023-09-03T06:39:26Z</time>
      </trkpt>
      <trkpt lat="49.34706" lon="0.10971">
        <ele>33.2</ele>
        <time>2023-09-03T06:39:27Z</time>
      </trkpt>
      <trkpt lat="49.34707" lon="0.10978">
        <ele>33.5</ele>
        <time>2023-09-03T06:39:28Z</time>
      </trkpt>
      <trkpt lat="49.34708" lon="0.10984">
        <ele>33.7</ele>
        <time>2023-09-03T06:39:29Z</time>
      </trkpt>
      <trkpt lat="49.34709" lon="0.10991">
        <ele>33.9</ele>
        <time>2023-09-03T06:39:30Z</time>
      </trkpt>
      <trkpt lat="49.3471" lon="0.10997">
        <ele>34.1</ele>
        <time>2023-09-03T06:39:31Z</time>
      </trkpt>
      <trkpt lat="49.34711" lon="0.11003">
        <ele>34.4</ele>
        <time>2023-09-03T06:39:32Z</time>
      </trkpt>
      <trkpt lat="49.34712" lon="0.1101">
        <ele>34.6</ele>
        <time>2023-09-03T06:39:33Z</time>
      </trkpt>
      <trkpt lat="49.34713" lon="0.11017">
        <ele>34.8</ele>
        <time>2023-09-03T06:39:34Z</time>
      </trkpt>
      <trkpt lat="49.34714" lon="0.11023">
        <ele>35</ele>
        <time>2023-09-03T06:39:35Z</time>
      </trkpt>
      <trkpt lat="49.34715" lon="0.11029">
        <ele>35.2</ele>
        <time>2023-09-03T06:39:36Z</time>
      </trkpt>
      <trkpt lat="49.34716" lon="0.11036">
        <ele>35.4</ele>
        <time>2023-09-03T06:39:37Z</time>
      </trkpt>
      <trkpt lat="49.34717" lon="0.11042">
        <ele>35.7</ele>
        <time>2023-09-03T06:39:38Z</time>
      </trkpt>
      <trkpt lat="49.34718" lon="0.11049">
        <ele>35.9</ele>
        <time>2023-09-03T06:39:39Z</time>
      </trkpt>
      <trkpt lat="49.34719" lon="0.11055">
        <ele>36.1</ele>
        <time>2023-09-03T06:39:40Z</time>
      </trkpt>
      <trkpt lat="49.3472" lon="0.11061">
        <ele>36.3</ele>
        <time>2023-09-03T06:39:41Z</time>
      </trkpt>
      <trkpt lat="49.34721" lon="0.11067">
        <ele>36.5</ele>
        <time>2023-09-03T06:39:42Z</time>
      </trkpt>
      <trkpt lat="49.34722" lon="0.11074">
        <ele>36.7</ele>
        <time>2023-09-03T06:39:43Z</time>
      </trkpt>
      <trkpt lat="49.34723" lon="0.1108">
        <ele>36.9</ele>
        <time>2023-09-03T06:39:44Z</time>
      </trkpt>
      <trkpt lat="49.34724" lon="0.11086">
        <ele>37.1</ele>
        <time>2023-09-03T06:39:45Z</time>
      </trkpt>
      <trkpt lat="49.34725" lon="0.11093">
        <ele>37.3</ele>
        <time>2023-09-03T06:39:46Z</time>
      </trkpt>
      <trkpt lat="49.34726" lon="0.111">
        <ele>37.5</ele>
        <time>2023-09-03T06:39:47Z</time>
      </trkpt>
      <trkpt lat="49.34728" lon="0.11107">
        <ele>37.8</ele>
        <time>2023-09-03T06:39:48Z</time>
      </trkpt>
      <trkpt lat="49.34728" lon="0.11113">
        <ele>38</ele>
        <time>2023-09-03T06:39:49Z</time>
      </trkpt>
      <trkpt lat="49.34729" lon="0.1112">
        <ele>38.2</ele>
        <time>2023-09-03T06:39:50Z</time>
      </trkpt>
      <trkpt lat="49.3473" lon="0.11127">
        <ele>38.4</ele>
        <time>2023-09-03T06:39:51Z</time>
      </trkpt>
      <trkpt lat="49.34731" lon="0.11134">
        <ele>38.6</ele>
        <time>2023-09-03T06:39:52Z</time>
      </trkpt>
      <trkpt lat="49.34731" lon="0.1114">
        <ele>38.8</ele>
        <time>2023-09-03T06:39:53Z</time>
      </trkpt>
      <trkpt lat="49.34732" lon="0.11147">
        <ele>39</ele>
        <time>2023-09-03T06:39:54Z</time>
      </trkpt>
      <trkpt lat="49.34733" lon="0.11154">
        <ele>39.1</ele>
        <time>2023-09-03T06:39:55Z</time>
      </trkpt>
      <trkpt lat="49.34734" lon="0.1116">
        <ele>39.3</ele>
        <time>2023-09-03T06:39:56Z</time>
      </trkpt>
      <trkpt lat="49.34734" lon="0.11167">
        <ele>39.5</ele>
        <time>2023-09-03T06:39:57Z</time>
      </trkpt>
      <trkpt lat="49.34735" lon="0.11174">
        <ele>39.6</ele>
        <time>2023-09-03T06:39:58Z</time>
      </trkpt>
      <trkpt lat="49.34736" lon="0.11181">
        <ele>39.8</ele>
        <time>2023-09-03T06:39:59Z</time>
      </trkpt>
      <trkpt lat="49.34737" lon="0.11188">
        <ele>40</ele>
        <time>2023-09-03T06:40:00Z</time>
      </trkpt>
      <trkpt lat="49.34738" lon="0.11195">
        <ele>40.2</ele>
        <time>2023-09-03T06:40:01Z</time>
      </trkpt>
      <trkpt lat="49.34739" lon="0.11202">
        <ele>40.3</ele>
        <time>2023-09-03T06:40:02Z</time>
      </trkpt>
      <trkpt lat="49.3474" lon="0.11209">
        <ele>40.5</ele>
        <time>2023-09-03T06:40:03Z</time>
      </trkpt>
      <trkpt lat="49.34741" lon="0.11216">
        <ele>40.7</ele>
        <time>2023-09-03T06:40:04Z</time>
      </trkpt>
      <trkpt lat="49.34742" lon="0.11224">
        <ele>40.8</ele>
        <time>2023-09-03T06:40:05Z</time>
      </trkpt>
      <trkpt lat="49.34742" lon="0.11231">
        <ele>41</ele>
        <time>2023-09-03T06:40:06Z</time>
      </trkpt>
      <trkpt lat="49.34743" lon="0.11239">
        <ele>41.2</ele>
        <time>2023-09-03T06:40:07Z</time>
      </trkpt>
      <trkpt lat="49.34744" lon="0.11246">
        <ele>41.3</ele>
        <time>2023-09-03T06:40:08Z</time>
      </trkpt>
      <trkpt lat="49.34745" lon="0.11253">
        <ele>41.5</ele>
        <time>2023-09-03T06:40:09Z</time>
      </trkpt>
      <trkpt lat="49.34746" lon="0.1126">
        <ele>41.7</ele>
        <time>2023-09-03T06:40:10Z</time>
      </trkpt>
      <trkpt lat="49.34747" lon="0.11267">
        <ele>41.8</ele>
        <time>2023-09-03T06:40:11Z</time>
      </trkpt>
      <trkpt lat="49.34748" lon="0.11275">
        <ele>42</ele>
        <time>2023-09-03T06:40:12Z</time>
      </trkpt>
      <trkpt lat="49.34749" lon="0.11283">
        <ele>42.2</ele>
        <time>2023-09-03T06:40:13Z</time>
      </trkpt>
      <trkpt lat="49.3475" lon="0.1129">
        <ele>42.4</ele>
        <time>2023-09-03T06:40:14Z</time>
      </trkpt>
      <trkpt lat="49.34751" lon="0.11297">
        <ele>42.6</ele>
        <time>2023-09-03T06:40:15Z</time>
      </trkpt>
      <trkpt lat="49.34752" lon="0.11305">
        <ele>42.7</ele>
        <time>2023-09-03T06:40:16Z</time>
      </trkpt>
      <trkpt lat="49.34753" lon="0.11313">
        <ele>42.9</ele>
        <time>2023-09-03T06:40:17Z</time>
      </trkpt>
      <trkpt lat="49.34754" lon="0.1132">
        <ele>43.1</ele>
        <time>2023-09-03T06:40:18Z</time>
      </trkpt>
      <trkpt lat="49.34755" lon="0.11328">
        <ele>43.3</ele>
        <time>2023-09-03T06:40:19Z</time>
      </trkpt>
      <trkpt lat="49.34756" lon="0.11335">
        <ele>43.5</ele>
        <time>2023-09-03T06:40:20Z</time>
      </trkpt>
      <trkpt lat="49.34757" lon="0.11343">
        <ele>43.7</ele>
        <time>2023-09-03T06:40:21Z</time>
      </trkpt>
      <trkpt lat="49.34758" lon="0.1135">
        <ele>43.9</ele>
        <time>2023-09-03T06:40:22Z</time>
      </trkpt>
      <trkpt lat="49.34759" lon="0.11357">
        <ele>44.1</ele>
        <time>2023-09-03T06:40:23Z</time>
      </trkpt>
      <trkpt lat="49.3476" lon="0.11365">
        <ele>44.3</ele>
        <time>2023-09-03T06:40:24Z</time>
      </trkpt>
      <trkpt lat="49.34761" lon="0.11372">
        <ele>44.5</ele>
        <time>2023-09-03T06:40:25Z</time>
      </trkpt>
      <trkpt lat="49.34762" lon="0.11379">
        <ele>44.6</ele>
        <time>2023-09-03T06:40:26Z</time>
      </trkpt>
      <trkpt lat="49.34763" lon="0.11387">
        <ele>44.8</ele>
        <time>2023-09-03T06:40:27Z</time>
      </trkpt>
      <trkpt lat="49.34764" lon="0.11394">
        <ele>45</ele>
        <time>2023-09-03T06:40:28Z</time>
      </trkpt>
      <trkpt lat="49.34766" lon="0.11402">
        <ele>45.1</ele>
        <time>2023-09-03T06:40:29Z</time>
      </trkpt>
      <trkpt lat="49.34767" lon="0.11409">
        <ele>45.3</ele>
        <time>2023-09-03T06:40:30Z</time>
      </trkpt>
      <trkpt lat="49.34769" lon="0.11417">
        <ele>45.5</ele>
        <time>2023-09-03T06:40:31Z</time>
      </trkpt>
      <trkpt lat="49.3477" lon="0.11424">
        <ele>45.7</ele>
        <time>2023-09-03T06:40:32Z</time>
      </trkpt>
      <trkpt lat="49.34772" lon="0.11432">
        <ele>45.9</ele>
        <time>2023-09-03T06:40:33Z</time>
      </trkpt>
      <trkpt lat="49.34774" lon="0.11439">
        <ele>46</ele>
        <time>2023-09-03T06:40:34Z</time>
      </trkpt>
      <trkpt lat="49.34776" lon="0.11447">
        <ele>46.2</ele>
        <time>2023-09-03T06:40:35Z</time>
      </trkpt>
      <trkpt lat="49.34778" lon="0.11454">
        <ele>46.4</ele>
        <time>2023-09-03T06:40:36Z</time>
      </trkpt>
      <trkpt lat="49.3478" lon="0.11461">
        <ele>46.6</ele>
        <time>2023-09-03T06:40:37Z</time>
      </trkpt>
      <trkpt lat="49.34782" lon="0.11469">
        <ele>46.8</ele>
        <time>2023-09-03T06:40:38Z</time>
      </trkpt>
      <trkpt lat="49.34784" lon="0.11476">
        <ele>46.9</ele>
        <time>2023-09-03T06:40:39Z</time>
      </trkpt>
      <trkpt lat="49.34787" lon="0.11483">
        <ele>47.1</ele>
        <time>2023-09-03T06:40:40Z</time>
      </trkpt>
      <trkpt lat="49.34789" lon="0.11491">
        <ele>47.3</ele>
        <time>2023-09-03T06:40:41Z</time>
      </trkpt>
      <trkpt lat="49.34792" lon="0.11498">
        <ele>47.5</ele>
        <time>2023-09-03T06:40:42Z</time>
      </trkpt>
      <trkpt lat="49.34794" lon="0.11505">
        <ele>47.7</ele>
        <time>2023-09-03T06:40:43Z</time>
      </trkpt>
      <trkpt lat="49.34796" lon="0.11513">
        <ele>47.9</ele>
        <time>2023-09-03T06:40:44Z</time>
      </trkpt>
      <trkpt lat="49.34799" lon="0.1152">
        <ele>48.1</ele>
        <time>2023-09-03T06:40:45Z</time>
      </trkpt>
      <trkpt lat="49.34802" lon="0.11528">
        <ele>48.3</ele>
        <time>2023-09-03T06:40:46Z</time>
      </trkpt>
      <trkpt lat="49.34805" lon="0.11535">
        <ele>48.6</ele>
        <time>2023-09-03T06:40:47Z</time>
      </trkpt>
      <trkpt lat="49.34807" lon="0.11542">
        <ele>48.8</ele>
        <time>2023-09-03T06:40:48Z</time>
      </trkpt>
      <trkpt lat="49.3481" lon="0.1155">
        <ele>49</ele>
        <time>2023-09-03T06:40:49Z</time>
      </trkpt>
      <trkpt lat="49.34813" lon="0.11557">
        <ele>49.2</ele>
        <time>2023-09-03T06:40:50Z</time>
      </trkpt>
      <trkpt lat="49.34816" lon="0.11565">
        <ele>49.4</ele>
        <time>2023-09-03T06:40:51Z</time>
      </trkpt>
      <trkpt lat="49.34818" lon="0.11572">
        <ele>49.6</ele>
        <time>2023-09-03T06:40:52Z</time>
      </trkpt>
      <trkpt lat="49.34821" lon="0.11579">
        <ele>49.7</ele>
        <time>2023-09-03T06:40:53Z</time>
      </trkpt>
      <trkpt lat="49.34824" lon="0.11587">
        <ele>49.9</ele>
        <time>2023-09-03T06:40:54Z</time>
      </trkpt>
      <trkpt lat="49.34828" lon="0.11594">
        <ele>50.1</ele>
        <time>2023-09-03T06:40:55Z</time>
      </trkpt>
      <trkpt lat="49.34831" lon="0.11602">
        <ele>50.3</ele>
        <time>2023-09-03T06:40:56Z</time>
      </trkpt>
      <trkpt lat="49.34834" lon="0.11609">
        <ele>50.4</ele>
        <time>2023-09-03T06:40:57Z</time>
      </trkpt>
      <trkpt lat="49.34838" lon="0.11616">
        <ele>50.6</ele>
        <time>2023-09-03T06:40:58Z</time>
      </trkpt>
      <trkpt lat="49.34841" lon="0.11623">
        <ele>50.8</ele>
        <time>2023-09-03T06:40:59Z</time>
      </trkpt>
      <trkpt lat="49.34845" lon="0.11629">
        <ele>51</ele>
        <time>2023-09-03T06:41:00Z</time>
      </trkpt>
      <trkpt lat="49.34849" lon="0.11636">
        <ele>51.2</ele>
        <time>2023-09-03T06:41:01Z</time>
      </trkpt>
      <trkpt lat="49.34853" lon="0.11642">
        <ele>51.4</ele>
        <time>2023-09-03T06:41:02Z</time>
      </trkpt>
      <trkpt lat="49.34857" lon="0.11648">
        <ele>51.6</ele>
        <time>2023-09-03T06:41:03Z</time>
      </trkpt>
      <trkpt lat="49.34861" lon="0.11654">
        <ele>51.8</ele>
        <time>2023-09-03T06:41:04Z</time>
      </trkpt>
      <trkpt lat="49.34865" lon="0.11659">
        <ele>52</ele>
        <time>2023-09-03T06:41:05Z</time>
      </trkpt>
      <trkpt lat="49.3487" lon="0.11664">
        <ele>52.3</ele>
        <time>2023-09-03T06:41:06Z</time>
      </trkpt>
      <trkpt lat="49.34874" lon="0.11669">
        <ele>52.5</ele>
        <time>2023-09-03T06:41:07Z</time>
      </trkpt>
      <trkpt lat="49.34879" lon="0.11673">
        <ele>52.7</ele>
        <time>2023-09-03T06:41:08Z</time>
      </trkpt>
      <trkpt lat="49.34883" lon="0.11677">
        <ele>52.9</ele>
        <time>2023-09-03T06:41:09Z</time>
      </trkpt>
      <trkpt lat="49.34887" lon="0.11681">
        <ele>53.1</ele>
        <time>2023-09-03T06:41:10Z</time>
      </trkpt>
      <trkpt lat="49.34891" lon="0.11685">
        <ele>53.3</ele>
        <time>2023-09-03T06:41:11Z</time>
      </trkpt>
      <trkpt lat="49.34895" lon="0.11689">
        <ele>53.6</ele>
        <time>2023-09-03T06:41:12Z</time>
      </trkpt>
      <trkpt lat="49.34899" lon="0.11692">
        <ele>53.8</ele>
        <time>2023-09-03T06:41:13Z</time>
      </trkpt>
      <trkpt lat="49.34904" lon="0.11695">
        <ele>54</ele>
        <time>2023-09-03T06:41:14Z</time>
      </trkpt>
      <trkpt lat="49.34907" lon="0.11699">
        <ele>54.2</ele>
        <time>2023-09-03T06:41:15Z</time>
      </trkpt>
      <trkpt lat="49.34911" lon="0.11702">
        <ele>54.4</ele>
        <time>2023-09-03T06:41:16Z</time>
      </trkpt>
      <trkpt lat="49.34915" lon="0.11705">
        <ele>54.6</ele>
        <time>2023-09-03T06:41:17Z</time>
      </trkpt>
      <trkpt lat="49.34919" lon="0.11709">
        <ele>54.9</ele>
        <time>2023-09-03T06:41:18Z</time>
      </trkpt>
      <trkpt lat="49.34923" lon="0.11713">
        <ele>55.1</ele>
        <time>2023-09-03T06:41:19Z</time>
      </trkpt>
      <trkpt lat="49.34927" lon="0.11716">
        <ele>55.3</ele>
        <time>2023-09-03T06:41:20Z</time>
      </trkpt>
      <trkpt lat="49.34931" lon="0.1172">
        <ele>55.5</ele>
        <time>2023-09-03T06:41:21Z</time>
      </trkpt>
      <trkpt lat="49.34934" lon="0.11724">
        <ele>55.8</ele>
        <time>2023-09-03T06:41:22Z</time>
      </trkpt>
      <trkpt lat="49.34938" lon="0.11727">
        <ele>56</ele>
        <time>2023-09-03T06:41:23Z</time>
      </trkpt>
      <trkpt lat="49.34942" lon="0.11731">
        <ele>56.3</ele>
        <time>2023-09-03T06:41:24Z</time>
      </trkpt>
      <trkpt lat="49.34945" lon="0.11735">
        <ele>56.5</ele>
        <time>2023-09-03T06:41:25Z</time>
      </trkpt>
      <trkpt lat="49.34949" lon="0.11739">
        <ele>56.7</ele>
        <time>2023-09-03T06:41:26Z</time>
      </trkpt>
      <trkpt lat="49.34952" lon="0.11742">
        <ele>57</ele>
        <time>2023-09-03T06:41:27Z</time>
      </trkpt>
      <trkpt lat="49.34956" lon="0.11746">
        <ele>57.2</ele>
        <time>2023-09-03T06:41:28Z</time>
      </trkpt>
      <trkpt lat="49.3496" lon="0.11749">
        <ele>57.5</ele>
        <time>2023-09-03T06:41:29Z</time>
      </trkpt>
      <trkpt lat="49.34963" lon="0.11752">
        <ele>57.7</ele>
        <time>2023-09-03T06:41:30Z</time>
      </trkpt>
      <trkpt lat="49.34967" lon="0.11755">
        <ele>58</ele>
        <time>2023-09-03T06:41:31Z</time>
      </trkpt>
      <trkpt lat="49.34971" lon="0.11759">
        <ele>58.2</ele>
        <time>2023-09-03T06:41:32Z</time>
      </trkpt>
      <trkpt lat="49.34974" lon="0.11761">
        <ele>58.4</ele>
        <time>2023-09-03T06:41:33Z</time>
      </trkpt>
      <trkpt lat="49.34978" lon="0.11765">
        <ele>58.6</ele>
        <time>2023-09-03T06:41:34Z</time>
      </trkpt>
      <trkpt lat="49.34982" lon="0.11768">
        <ele>58.8</ele>
        <time>2023-09-03T06:41:35Z</time>
      </trkpt>
      <trkpt lat="49.34986" lon="0.11772">
        <ele>59.1</ele>
        <time>2023-09-03T06:41:36Z</time>
      </trkpt>
      <trkpt lat="49.34989" lon="0.11775">
        <ele>59.3</ele>
        <time>2023-09-03T06:41:37Z</time>
      </trkpt>
      <trkpt lat="49.34993" lon="0.11779">
        <ele>59.5</ele>
        <time>2023-09-03T06:41:38Z</time>
      </trkpt>
      <trkpt lat="49.34997" lon="0.11783">
        <ele>59.7</ele>
        <time>2023-09-03T06:41:39Z</time>
      </trkpt>
      <trkpt lat="49.35" lon="0.11786">
        <ele>59.9</ele>
        <time>2023-09-03T06:41:40Z</time>
      </trkpt>
      <trkpt lat="49.35003" lon="0.1179">
        <ele>60.1</ele>
        <time>2023-09-03T06:41:41Z</time>
      </trkpt>
      <trkpt lat="49.35007" lon="0.11794">
        <ele>60.3</ele>
        <time>2023-09-03T06:41:42Z</time>
      </trkpt>
      <trkpt lat="49.3501" lon="0.11797">
        <ele>60.5</ele>
        <time>2023-09-03T06:41:43Z</time>
      </trkpt>
      <trkpt lat="49.35014" lon="0.118">
        <ele>60.8</ele>
        <time>2023-09-03T06:41:44Z</time>
      </trkpt>
      <trkpt lat="49.35017" lon="0.11803">
        <ele>61</ele>
        <time>2023-09-03T06:41:45Z</time>
      </trkpt>
      <trkpt lat="49.35021" lon="0.11807">
        <ele>61.2</ele>
        <time>2023-09-03T06:41:46Z</time>
      </trkpt>
      <trkpt lat="49.35024" lon="0.1181">
        <ele>61.4</ele>
        <time>2023-09-03T06:41:47Z</time>
      </trkpt>
      <trkpt lat="49.35027" lon="0.11814">
        <ele>61.6</ele>
        <time>2023-09-03T06:41:48Z</time>
      </trkpt>
      <trkpt lat="49.3503" lon="0.11818">
        <ele>61.8</ele>
        <time>2023-09-03T06:41:49Z</time>
      </trkpt>
      <trkpt lat="49.35034" lon="0.11821">
        <ele>62</ele>
        <time>2023-09-03T06:41:50Z</time>
      </trkpt>
      <trkpt lat="49.35037" lon="0.11824">
        <ele>62.3</ele>
        <time>2023-09-03T06:41:51Z</time>
      </trkpt>
      <trkpt lat="49.35041" lon="0.11827">
        <ele>62.5</ele>
        <time>2023-09-03T06:41:52Z</time>
      </trkpt>
      <trkpt lat="49.35045" lon="0.11831">
        <ele>62.7</ele>
        <time>2023-09-03T06:41:53Z</time>
      </trkpt>
      <trkpt lat="49.35048" lon="0.11834">
        <ele>63</ele>
        <time>2023-09-03T06:41:54Z</time>
      </trkpt>
      <trkpt lat="49.35052" lon="0.11837">
        <ele>63.2</ele>
        <time>2023-09-03T06:41:55Z</time>
      </trkpt>
      <trkpt lat="49.35055" lon="0.1184">
        <ele>63.4</ele>
        <time>2023-09-03T06:41:56Z</time>
      </trkpt>
      <trkpt lat="49.35059" lon="0.11844">
        <ele>63.7</ele>
        <time>2023-09-03T06:41:57Z</time>
      </trkpt>
      <trkpt lat="49.35062" lon="0.11847">
        <ele>63.9</ele>
        <time>2023-09-03T06:41:58Z</time>
      </trkpt>
      <trkpt lat="49.35065" lon="0.11851">
        <ele>64.2</ele>
        <time>2023-09-03T06:41:59Z</time>
      </trkpt>
      <trkpt lat="49.35069" lon="0.11854">
        <ele>64.5</ele>
        <time>2023-09-03T06:42:00Z</time>
      </trkpt>
      <trkpt lat="49.35072" lon="0.11857">
        <ele>64.7</ele>
        <time>2023-09-03T06:42:01Z</time>
      </trkpt>
      <trkpt lat="49.35076" lon="0.1186">
        <ele>65</ele>
        <time>2023-09-03T06:42:02Z</time>
      </trkpt>
      <trkpt lat="49.35079" lon="0.11863">
        <ele>65.2</ele>
        <time>2023-09-03T06:42:03Z</time>
      </trkpt>
      <trkpt lat="49.35082" lon="0.11866">
        <ele>65.5</ele>
        <time>2023-09-03T06:42:04Z</time>
      </trkpt>
      <trkpt lat="49.35086" lon="0.1187">
        <ele>65.7</ele>
        <time>2023-09-03T06:42:05Z</time>
      </trkpt>
      <trkpt lat="49.35089" lon="0.11873">
        <ele>66</ele>
        <time>2023-09-03T06:42:06Z</time>
      </trkpt>
      <trkpt lat="49.35092" lon="0.11876">
        <ele>66.2</ele>
        <time>2023-09-03T06:42:07Z</time>
      </trkpt>
      <trkpt lat="49.35096" lon="0.1188">
        <ele>66.5</ele>
        <time>2023-09-03T06:42:08Z</time>
      </trkpt>
      <trkpt lat="49.35099" lon="0.11883">
        <ele>66.7</ele>
        <time>2023-09-03T06:42:09Z</time>
      </trkpt>
      <trkpt lat="49.35102" lon="0.11886">
        <ele>67</ele>
        <time>2023-09-03T06:42:10Z</time>
      </trkpt>
      <trkpt lat="49.35106" lon="0.1189">
        <ele>67.2</ele>
        <time>2023-09-03T06:42:11Z</time>
      </trkpt>
      <trkpt lat="49.35109" lon="0.11892">
        <ele>67.5</ele>
        <time>2023-09-03T06:42:12Z</time>
      </trkpt>
      <trkpt lat="49.35112" lon="0.11895">
        <ele>67.7</ele>
        <time>2023-09-03T06:42:13Z</time>
      </trkpt>
      <trkpt lat="49.35116" lon="0.11898">
        <ele>68</ele>
        <time>2023-09-03T06:42:14Z</time>
      </trkpt>
      <trkpt lat="49.35119" lon="0.11901">
        <ele>68.2</ele>
        <time>2023-09-03T06:42:15Z</time>
      </trkpt>
      <trkpt lat="49.35122" lon="0.11905">
        <ele>68.5</ele>
        <time>2023-09-03T06:42:16Z</time>
      </trkpt>
      <trkpt lat="49.35126" lon="0.11908">
        <ele>68.8</ele>
        <time>2023-09-03T06:42:17Z</time>
      </trkpt>
      <trkpt lat="49.35129" lon="0.11911">
        <ele>69.1</ele>
        <time>2023-09-03T06:42:18Z</time>
      </trkpt>
      <trkpt lat="49.35133" lon="0.11914">
        <ele>69.3</ele>
        <time>2023-09-03T06:42:19Z</time>
      </trkpt>
      <trkpt lat="49.35136" lon="0.11917">
        <ele>69.6</ele>
        <time>2023-09-03T06:42:20Z</time>
      </trkpt>
      <trkpt lat="49.3514" lon="0.11919">
        <ele>69.9</ele>
        <time>2023-09-03T06:42:21Z</time>
      </trkpt>
      <trkpt lat="49.35143" lon="0.11922">
        <ele>70.2</ele>
        <time>2023-09-03T06:42:22Z</time>
      </trkpt>
      <trkpt lat="49.35147" lon="0.11924">
        <ele>70.4</ele>
        <time>2023-09-03T06:42:23Z</time>
      </trkpt>
      <trkpt lat="49.3515" lon="0.11926">
        <ele>70.7</ele>
        <time>2023-09-03T06:42:24Z</time>
      </trkpt>
      <trkpt lat="49.35154" lon="0.11928">
        <ele>70.9</ele>
        <time>2023-09-03T06:42:25Z</time>
      </trkpt>
      <trkpt lat="49.35157" lon="0.1193">
        <ele>71.2</ele>
        <time>2023-09-03T06:42:26Z</time>
      </trkpt>
      <trkpt lat="49.3516" lon="0.11932">
        <ele>71.4</ele>
        <time>2023-09-03T06:42:27Z</time>
      </trkpt>
      <trkpt lat="49.35164" lon="0.11934">
        <ele>71.7</ele>
        <time>2023-09-03T06:42:28Z</time>
      </trkpt>
      <trkpt lat="49.35168" lon="0.11935">
        <ele>71.9</ele>
        <time>2023-09-03T06:42:29Z</time>
      </trkpt>
      <trkpt lat="49.35171" lon="0.11937">
        <ele>72.1</ele>
        <time>2023-09-03T06:42:30Z</time>
      </trkpt>
      <trkpt lat="49.35175" lon="0.11938">
        <ele>72.4</ele>
        <time>2023-09-03T06:42:31Z</time>
      </trkpt>
      <trkpt lat="49.35178" lon="0.1194">
        <ele>72.6</ele>
        <time>2023-09-03T06:42:32Z</time>
      </trkpt>
      <trkpt lat="49.35182" lon="0.11941">
        <ele>72.8</ele>
        <time>2023-09-03T06:42:33Z</time>
      </trkpt>
      <trkpt lat="49.35185" lon="0.11943">
        <ele>73</ele>
        <time>2023-09-03T06:42:34Z</time>
      </trkpt>
      <trkpt lat="49.35189" lon="0.11944">
        <ele>73.3</ele>
        <time>2023-09-03T06:42:35Z</time>
      </trkpt>
      <trkpt lat="49.35192" lon="0.11945">
        <ele>73.5</ele>
        <time>2023-09-03T06:42:36Z</time>
      </trkpt>
      <trkpt lat="49.35196" lon="0.11946">
        <ele>73.7</ele>
        <time>2023-09-03T06:42:37Z</time>
      </trkpt>
      <trkpt lat="49.352" lon="0.11946">
        <ele>74</ele>
        <time>2023-09-03T06:42:38Z</time>
      </trkpt>
      <trkpt lat="49.35204" lon="0.11947">
        <ele>74.2</ele>
        <time>2023-09-03T06:42:39Z</time>
      </trkpt>
      <trkpt lat="49.35207" lon="0.11948">
        <ele>74.4</ele>
        <time>2023-09-03T06:42:40Z</time>
      </trkpt>
      <trkpt lat="49.35211" lon="0.11949">
        <ele>74.6</ele>
        <time>2023-09-03T06:42:41Z</time>
      </trkpt>
      <trkpt lat="49.35214" lon="0.1195">
        <ele>74.8</ele>
        <time>2023-09-03T06:42:42Z</time>
      </trkpt>
      <trkpt lat="49.35218" lon="0.11951">
        <ele>75</ele>
        <time>2023-09-03T06:42:43Z</time>
      </trkpt>
      <trkpt lat="49.35222" lon="0.11951">
        <ele>75.2</ele>
        <time>2023-09-03T06:42:44Z</time>
      </trkpt>
      <trkpt lat="49.35225" lon="0.11952">
        <ele>75.5</ele>
        <time>2023-09-03T06:42:45Z</time>
      </trkpt>
      <trkpt lat="49.35229" lon="0.11953">
        <ele>75.7</ele>
        <time>2023-09-03T06:42:46Z</time>
      </trkpt>
      <trkpt lat="49.35232" lon="0.11953">
        <ele>75.9</ele>
        <time>2023-09-03T06:42:47Z</time>
      </trkpt>
      <trkpt lat="49.35236" lon="0.11954">
        <ele>76.1</ele>
        <time>2023-09-03T06:42:48Z</time>
      </trkpt>
      <trkpt lat="49.3524" lon="0.11954">
        <ele>76.3</ele>
        <time>2023-09-03T06:42:49Z</time>
      </trkpt>
      <trkpt lat="49.35243" lon="0.11955">
        <ele>76.5</ele>
        <time>2023-09-03T06:42:50Z</time>
      </trkpt>
      <trkpt lat="49.35247" lon="0.11956">
        <ele>76.7</ele>
        <time>2023-09-03T06:42:51Z</time>
      </trkpt>
      <trkpt lat="49.3525" lon="0.11956">
        <ele>76.9</ele>
        <time>2023-09-03T06:42:52Z</time>
      </trkpt>
      <trkpt lat="49.35254" lon="0.11957">
        <ele>77.1</ele>
        <time>2023-09-03T06:42:53Z</time>
      </trkpt>
      <trkpt lat="49.35257" lon="0.11958">
        <ele>77.3</ele>
        <time>2023-09-03T06:42:54Z</time>
      </trkpt>
      <trkpt lat="49.35261" lon="0.11959">
        <ele>77.5</ele>
        <time>2023-09-03T06:42:55Z</time>
      </trkpt>
      <trkpt lat="49.35265" lon="0.11959">
        <ele>77.8</ele>
        <time>2023-09-03T06:42:56Z</time>
      </trkpt>
      <trkpt lat="49.35268" lon="0.1196">
        <ele>78</ele>
        <time>2023-09-03T06:42:57Z</time>
      </trkpt>
      <trkpt lat="49.35272" lon="0.1196">
        <ele>78.2</ele>
        <time>2023-09-03T06:42:58Z</time>
      </trkpt>
      <trkpt lat="49.35276" lon="0.11961">
        <ele>78.4</ele>
        <time>2023-09-03T06:42:59Z</time>
      </trkpt>
      <trkpt lat="49.35279" lon="0.11962">
        <ele>78.7</ele>
        <time>2023-09-03T06:43:00Z</time>
      </trkpt>
      <trkpt lat="49.35283" lon="0.11963">
        <ele>78.9</ele>
        <time>2023-09-03T06:43:01Z</time>
      </trkpt>
      <trkpt lat="49.35286" lon="0.11964">
        <ele>79.2</ele>
        <time>2023-09-03T06:43:02Z</time>
      </trkpt>
      <trkpt lat="49.3529" lon="0.11965">
        <ele>79.4</ele>
        <time>2023-09-03T06:43:03Z</time>
      </trkpt>
      <trkpt lat="49.35293" lon="0.11966">
        <ele>79.6</ele>
        <time>2023-09-03T06:43:04Z</time>
      </trkpt>
      <trkpt lat="49.35297" lon="0.11967">
        <ele>79.9</ele>
        <time>2023-09-03T06:43:05Z</time>
      </trkpt>
      <trkpt lat="49.353" lon="0.11967">
        <ele>80.1</ele>
        <time>2023-09-03T06:43:06Z</time>
      </trkpt>
      <trkpt lat="49.35303" lon="0.11968">
        <ele>80.3</ele>
        <time>2023-09-03T06:43:07Z</time>
      </trkpt>
      <trkpt lat="49.35306" lon="0.11969">
        <ele>80.5</ele>
        <time>2023-09-03T06:43:08Z</time>
      </trkpt>
      <trkpt lat="49.3531" lon="0.11969">
        <ele>80.7</ele>
        <time>2023-09-03T06:43:09Z</time>
      </trkpt>
      <trkpt lat="49.35313" lon="0.1197">
        <ele>81</ele>
        <time>2023-09-03T06:43:10Z</time>
      </trkpt>
      <trkpt lat="49.35317" lon="0.11971">
        <ele>81.2</ele>
        <time>2023-09-03T06:43:11Z</time>
      </trkpt>
      <trkpt lat="49.3532" lon="0.11972">
        <ele>81.4</ele>
        <time>2023-09-03T06:43:12Z</time>
      </trkpt>
      <trkpt lat="49.35324" lon="0.11973">
        <ele>81.6</ele>
        <time>2023-09-03T06:43:13Z</time>
      </trkpt>
      <trkpt lat="49.35328" lon="0.11974">
        <ele>81.8</ele>
        <time>2023-09-03T06:43:14Z</time>
      </trkpt>
      <trkpt lat="49.35331" lon="0.11975">
        <ele>82</ele>
        <time>2023-09-03T06:43:15Z</time>
      </trkpt>
      <trkpt lat="49.35335" lon="0.11976">
        <ele>82.2</ele>
        <time>2023-09-03T06:43:16Z</time>
      </trkpt>
      <trkpt lat="49.35338" lon="0.11977">
        <ele>82.4</ele>
        <time>2023-09-03T06:43:17Z</time>
      </trkpt>
      <trkpt lat="49.35341" lon="0.11978">
        <ele>82.6</ele>
        <time>2023-09-03T06:43:18Z</time>
      </trkpt>
      <trkpt lat="49.35345" lon="0.11978">
        <ele>82.8</ele>
        <time>2023-09-03T06:43:19Z</time>
      </trkpt>
      <trkpt lat="49.35349" lon="0.11979">
        <ele>83</ele>
        <time>2023-09-03T06:43:20Z</time>
      </trkpt>
      <trkpt lat="49.35352" lon="0.1198">
        <ele>83.2</ele>
        <time>2023-09-03T06:43:21Z</time>
      </trkpt>
      <trkpt lat="49.35355" lon="0.11981">
        <ele>83.4</ele>
        <time>2023-09-03T06:43:22Z</time>
      </trkpt>
      <trkpt lat="49.35359" lon="0.11982">
        <ele>83.6</ele>
        <time>2023-09-03T06:43:23Z</time>
      </trkpt>
      <trkpt lat="49.35362" lon="0.11982">
        <ele>83.8</ele>
        <time>2023-09-03T06:43:24Z</time>
      </trkpt>
      <trkpt lat="49.35366" lon="0.11983">
        <ele>83.9</ele>
        <time>2023-09-03T06:43:25Z</time>
      </trkpt>
      <trkpt lat="49.35369" lon="0.11984">
        <ele>84.1</ele>
        <time>2023-09-03T06:43:26Z</time>
      </trkpt>
      <trkpt lat="49.35372" lon="0.11984">
        <ele>84.3</ele>
        <time>2023-09-03T06:43:27Z</time>
      </trkpt>
      <trkpt lat="49.35376" lon="0.11985">
        <ele>84.5</ele>
        <time>2023-09-03T06:43:28Z</time>
      </trkpt>
      <trkpt lat="49.3538" lon="0.11986">
        <ele>84.8</ele>
        <time>2023-09-03T06:43:29Z</time>
      </trkpt>
      <trkpt lat="49.35383" lon="0.11987">
        <ele>85</ele>
        <time>2023-09-03T06:43:30Z</time>
      </trkpt>
      <trkpt lat="49.35387" lon="0.11987">
        <ele>85.2</ele>
        <time>2023-09-03T06:43:31Z</time>
      </trkpt>
      <trkpt lat="49.3539" lon="0.11988">
        <ele>85.4</ele>
        <time>2023-09-03T06:43:32Z</time>
      </trkpt>
      <trkpt lat="49.35394" lon="0.11989">
        <ele>85.6</ele>
        <time>2023-09-03T06:43:33Z</time>
      </trkpt>
      <trkpt lat="49.35398" lon="0.1199">
        <ele>85.8</ele>
        <time>2023-09-03T06:43:34Z</time>
      </trkpt>
      <trkpt lat="49.35401" lon="0.11991">
        <ele>86</ele>
        <time>2023-09-03T06:43:35Z</time>
      </trkpt>
      <trkpt lat="49.35405" lon="0.11991">
        <ele>86.2</ele>
        <time>2023-09-03T06:43:36Z</time>
      </trkpt>
      <trkpt lat="49.35408" lon="0.11992">
        <ele>86.4</ele>
        <time>2023-09-03T06:43:37Z</time>
      </trkpt>
      <trkpt lat="49.35412" lon="0.11993">
        <ele>86.6</ele>
        <time>2023-09-03T06:43:38Z</time>
      </trkpt>
      <trkpt lat="49.35415" lon="0.11993">
        <ele>86.8</ele>
        <time>2023-09-03T06:43:39Z</time>
      </trkpt>
      <trkpt lat="49.35419" lon="0.11994">
        <ele>87</ele>
        <time>2023-09-03T06:43:40Z</time>
      </trkpt>
      <trkpt lat="49.35422" lon="0.11995">
        <ele>87.2</ele>
        <time>2023-09-03T06:43:41Z</time>
      </trkpt>
      <trkpt lat="49.35425" lon="0.11995">
        <ele>87.4</ele>
        <time>2023-09-03T06:43:42Z</time>
      </trkpt>
      <trkpt lat="49.35429" lon="0.11996">
        <ele>87.6</ele>
        <time>2023-09-03T06:43:43Z</time>
      </trkpt>
      <trkpt lat="49.35433" lon="0.11998">
        <ele>87.9</ele>
        <time>2023-09-03T06:43:44Z</time>
      </trkpt>
      <trkpt lat="49.35436" lon="0.11999">
        <ele>88.1</ele>
        <time>2023-09-03T06:43:45Z</time>
      </trkpt>
      <trkpt lat="49.3544" lon="0.12">
        <ele>88.3</ele>
        <time>2023-09-03T06:43:46Z</time>
      </trkpt>
      <trkpt lat="49.35444" lon="0.12001">
        <ele>88.5</ele>
        <time>2023-09-03T06:43:47Z</time>
      </trkpt>
      <trkpt lat="49.35448" lon="0.12002">
        <ele>88.8</ele>
        <time>2023-09-03T06:43:48Z</time>
      </trkpt>
      <trkpt lat="49.35451" lon="0.12002">
        <ele>89</ele>
        <time>2023-09-03T06:43:49Z</time>
      </trkpt>
      <trkpt lat="49.35455" lon="0.12003">
        <ele>89.2</ele>
        <time>2023-09-03T06:43:50Z</time>
      </trkpt>
      <trkpt lat="49.35458" lon="0.12004">
        <ele>89.4</ele>
        <time>2023-09-03T06:43:51Z</time>
      </trkpt>
      <trkpt lat="49.35462" lon="0.12005">
        <ele>89.6</ele>
        <time>2023-09-03T06:43:52Z</time>
      </trkpt>
      <trkpt lat="49.35466" lon="0.12005">
        <ele>89.9</ele>
        <time>2023-09-03T06:43:53Z</time>
      </trkpt>
      <trkpt lat="49.3547" lon="0.12006">
        <ele>90.1</ele>
        <time>2023-09-03T06:43:54Z</time>
      </trkpt>
      <trkpt lat="49.35474" lon="0.12007">
        <ele>90.4</ele>
        <time>2023-09-03T06:43:55Z</time>
      </trkpt>
      <trkpt lat="49.35478" lon="0.12008">
        <ele>90.6</ele>
        <time>2023-09-03T06:43:56Z</time>
      </trkpt>
      <trkpt lat="49.35482" lon="0.12009">
        <ele>90.8</ele>
        <time>2023-09-03T06:43:57Z</time>
      </trkpt>
      <trkpt lat="49.35485" lon="0.1201">
        <ele>91.1</ele>
        <time>2023-09-03T06:43:58Z</time>
      </trkpt>
      <trkpt lat="49.35489" lon="0.12011">
        <ele>91.3</ele>
        <time>2023-09-03T06:43:59Z</time>
      </trkpt>
      <trkpt lat="49.35492" lon="0.12012">
        <ele>91.5</ele>
        <time>2023-09-03T06:44:00Z</time>
      </trkpt>
      <trkpt lat="49.35496" lon="0.12013">
        <ele>91.7</ele>
        <time>2023-09-03T06:44:01Z</time>
      </trkpt>
      <trkpt lat="49.355" lon="0.12014">
        <ele>92</ele>
        <time>2023-09-03T06:44:02Z</time>
      </trkpt>
      <trkpt lat="49.35503" lon="0.12014">
        <ele>92.2</ele>
        <time>2023-09-03T06:44:03Z</time>
      </trkpt>
      <trkpt lat="49.35507" lon="0.12015">
        <ele>92.4</ele>
        <time>2023-09-03T06:44:04Z</time>
      </trkpt>
      <trkpt lat="49.35511" lon="0.12015">
        <ele>92.6</ele>
        <time>2023-09-03T06:44:05Z</time>
      </trkpt>
      <trkpt lat="49.35514" lon="0.12016">
        <ele>92.9</ele>
        <time>2023-09-03T06:44:06Z</time>
      </trkpt>
      <trkpt lat="49.35518" lon="0.12017">
        <ele>93.1</ele>
        <time>2023-09-03T06:44:07Z</time>
      </trkpt>
      <trkpt lat="49.35521" lon="0.12018">
        <ele>93.3</ele>
        <time>2023-09-03T06:44:08Z</time>
      </trkpt>
      <trkpt lat="49.35525" lon="0.12019">
        <ele>93.5</ele>
        <time>2023-09-03T06:44:09Z</time>
      </trkpt>
      <trkpt lat="49.35528" lon="0.12019">
        <ele>93.7</ele>
        <time>2023-09-03T06:44:10Z</time>
      </trkpt>
      <trkpt lat="49.35532" lon="0.1202">
        <ele>93.9</ele>
        <time>2023-09-03T06:44:11Z</time>
      </trkpt>
      <trkpt lat="49.35536" lon="0.1202">
        <ele>94.1</ele>
        <time>2023-09-03T06:44:12Z</time>
      </trkpt>
      <trkpt lat="49.35539" lon="0.12021">
        <ele>94.3</ele>
        <time>2023-09-03T06:44:13Z</time>
      </trkpt>
      <trkpt lat="49.35543" lon="0.12022">
        <ele>94.6</ele>
        <time>2023-09-03T06:44:14Z</time>
      </trkpt>
      <trkpt lat="49.35546" lon="0.12023">
        <ele>94.8</ele>
        <time>2023-09-03T06:44:15Z</time>
      </trkpt>
      <trkpt lat="49.3555" lon="0.12024">
        <ele>95</ele>
        <time>2023-09-03T06:44:16Z</time>
      </trkpt>
      <trkpt lat="49.35554" lon="0.12025">
        <ele>95.2</ele>
        <time>2023-09-03T06:44:17Z</time>
      </trkpt>
      <trkpt lat="49.35558" lon="0.12026">
        <ele>95.4</ele>
        <time>2023-09-03T06:44:18Z</time>
      </trkpt>
      <trkpt lat="49.35561" lon="0.12027">
        <ele>95.7</ele>
        <time>2023-09-03T06:44:19Z</time>
      </trkpt>
      <trkpt lat="49.35565" lon="0.12027">
        <ele>95.9</ele>
        <time>2023-09-03T06:44:20Z</time>
      </trkpt>
      <trkpt lat="49.35569" lon="0.12028">
        <ele>96.1</ele>
        <time>2023-09-03T06:44:21Z</time>
      </trkpt>
      <trkpt lat="49.35572" lon="0.1203">
        <ele>96.4</ele>
        <time>2023-09-03T06:44:22Z</time>
      </trkpt>
      <trkpt lat="49.35576" lon="0.1203">
        <ele>96.6</ele>
        <time>2023-09-03T06:44:23Z</time>
      </trkpt>
      <trkpt lat="49.3558" lon="0.12031">
        <ele>96.8</ele>
        <time>2023-09-03T06:44:24Z</time>
      </trkpt>
      <trkpt lat="49.35584" lon="0.12032">
        <ele>97</ele>
        <time>2023-09-03T06:44:25Z</time>
      </trkpt>
      <trkpt lat="49.35587" lon="0.12032">
        <ele>97.2</ele>
        <time>2023-09-03T06:44:26Z</time>
      </trkpt>
      <trkpt lat="49.35591" lon="0.12033">
        <ele>97.5</ele>
        <time>2023-09-03T06:44:27Z</time>
      </trkpt>
      <trkpt lat="49.35595" lon="0.12034">
        <ele>97.7</ele>
        <time>2023-09-03T06:44:28Z</time>
      </trkpt>
      <trkpt lat="49.35599" lon="0.12035">
        <ele>98</ele>
        <time>2023-09-03T06:44:29Z</time>
      </trkpt>
      <trkpt lat="49.35603" lon="0.12036">
        <ele>98.2</ele>
        <time>2023-09-03T06:44:30Z</time>
      </trkpt>
      <trkpt lat="49.35607" lon="0.12037">
        <ele>98.5</ele>
        <time>2023-09-03T06:44:31Z</time>
      </trkpt>
      <trkpt lat="49.3561" lon="0.12039">
        <ele>98.7</ele>
        <time>2023-09-03T06:44:32Z</time>
      </trkpt>
      <trkpt lat="49.35614" lon="0.1204">
        <ele>98.9</ele>
        <time>2023-09-03T06:44:33Z</time>
      </trkpt>
      <trkpt lat="49.35617" lon="0.12041">
        <ele>99.2</ele>
        <time>2023-09-03T06:44:34Z</time>
      </trkpt>
      <trkpt lat="49.35621" lon="0.12042">
        <ele>99.4</ele>
        <time>2023-09-03T06:44:35Z</time>
      </trkpt>
      <trkpt lat="49.35625" lon="0.12043">
        <ele>99.6</ele>
        <time>2023-09-03T06:44:36Z</time>
      </trkpt>
      <trkpt lat="49.35628" lon="0.12044">
        <ele>99.9</ele>
        <time>2023-09-03T06:44:37Z</time>
      </trkpt>
      <trkpt lat="49.35632" lon="0.12045">
        <ele>100.1</ele>
        <time>2023-09-03T06:44:38Z</time>
      </trkpt>
      <trkpt lat="49.35636" lon="0.12046">
        <ele>100.4</ele>
        <time>2023-09-03T06:44:39Z</time>
      </trkpt>
      <trkpt lat="49.35639" lon="0.12047">
        <ele>100.6</ele>
        <time>2023-09-03T06:44:40Z</time>
      </trkpt>
      <trkpt lat="49.35643" lon="0.12048">
        <ele>100.8</ele>
        <time>2023-09-03T06:44:41Z</time>
      </trkpt>
      <trkpt lat="49.35646" lon="0.12049">
        <ele>101.1</ele>
        <time>2023-09-03T06:44:42Z</time>
      </trkpt>
      <trkpt lat="49.3565" lon="0.12051">
        <ele>101.3</ele>
        <time>2023-09-03T06:44:43Z</time>
      </trkpt>
      <trkpt lat="49.35653" lon="0.12052">
        <ele>101.5</ele>
        <time>2023-09-03T06:44:44Z</time>
      </trkpt>
      <trkpt lat="49.35656" lon="0.12054">
        <ele>101.7</ele>
        <time>2023-09-03T06:44:45Z</time>
      </trkpt>
      <trkpt lat="49.3566" lon="0.12056">
        <ele>101.9</ele>
        <time>2023-09-03T06:44:46Z</time>
      </trkpt>
      <trkpt lat="49.35663" lon="0.12057">
        <ele>102.1</ele>
        <time>2023-09-03T06:44:47Z</time>
      </trkpt>
      <trkpt lat="49.35667" lon="0.12059">
        <ele>102.4</ele>
        <time>2023-09-03T06:44:48Z</time>
      </trkpt>
      <trkpt lat="49.3567" lon="0.12061">
        <ele>102.6</ele>
        <time>2023-09-03T06:44:49Z</time>
      </trkpt>
      <trkpt lat="49.35674" lon="0.12062">
        <ele>102.8</ele>
        <time>2023-09-03T06:44:50Z</time>
      </trkpt>
      <trkpt lat="49.35678" lon="0.12063">
        <ele>103</ele>
        <time>2023-09-03T06:44:51Z</time>
      </trkpt>
      <trkpt lat="49.35681" lon="0.12065">
        <ele>103.2</ele>
        <time>2023-09-03T06:44:52Z</time>
      </trkpt>
      <trkpt lat="49.35685" lon="0.12066">
        <ele>103.5</ele>
        <time>2023-09-03T06:44:53Z</time>
      </trkpt>
      <trkpt lat="49.35689" lon="0.12067">
        <ele>103.7</ele>
        <time>2023-09-03T06:44:54Z</time>
      </trkpt>
      <trkpt lat="49.35693" lon="0.12069">
        <ele>103.9</ele>
        <time>2023-09-03T06:44:55Z</time>
      </trkpt>
      <trkpt lat="49.35696" lon="0.1207">
        <ele>104.1</ele>
        <time>2023-09-03T06:44:56Z</time>
      </trkpt>
      <trkpt lat="49.357" lon="0.12071">
        <ele>104.3</ele>
        <time>2023-09-03T06:44:57Z</time>
      </trkpt>
      <trkpt lat="49.35703" lon="0.12073">
        <ele>104.6</ele>
        <time>2023-09-03T06:44:58Z</time>
      </trkpt>
      <trkpt lat="49.35707" lon="0.12074">
        <ele>104.8</ele>
        <time>2023-09-03T06:44:59Z</time>
      </trkpt>
      <trkpt lat="49.35711" lon="0.12076">
        <ele>105</ele>
        <time>2023-09-03T06:45:00Z</time>
      </trkpt>
      <trkpt lat="49.35715" lon="0.12077">
        <ele>105.3</ele>
        <time>2023-09-03T06:45:01Z</time>
      </trkpt>
      <trkpt lat="49.35718" lon="0.12078">
        <ele>105.5</ele>
        <time>2023-09-03T06:45:02Z</time>
      </trkpt>
      <trkpt lat="49.35722" lon="0.12079">
        <ele>105.8</ele>
        <time>2023-09-03T06:45:03Z</time>
      </trkpt>
      <trkpt lat="49.35726" lon="0.12079">
        <ele>106</ele>
        <time>2023-09-03T06:45:04Z</time>
      </trkpt>
      <trkpt lat="49.3573" lon="0.1208">
        <ele>106.3</ele>
        <time>2023-09-03T06:45:05Z</time>
      </trkpt>
      <trkpt lat="49.35734" lon="0.12082">
        <ele>106.5</ele>
        <time>2023-09-03T06:45:06Z</time>
      </trkpt>
      <trkpt lat="49.35737" lon="0.12083">
        <ele>106.7</ele>
        <time>2023-09-03T06:45:07Z</time>
      </trkpt>
      <trkpt lat="49.35741" lon="0.12086">
        <ele>107</ele>
        <time>2023-09-03T06:45:08Z</time>
      </trkpt>
      <trkpt lat="49.35745" lon="0.12087">
        <ele>107.2</ele>
        <time>2023-09-03T06:45:09Z</time>
      </trkpt>
      <trkpt lat="49.35748" lon="0.12089">
        <ele>107.4</ele>
        <time>2023-09-03T06:45:10Z</time>
      </trkpt>
      <trkpt lat="49.35752" lon="0.12091">
        <ele>107.6</ele>
        <time>2023-09-03T06:45:11Z</time>
      </trkpt>
      <trkpt lat="49.35755" lon="0.12093">
        <ele>107.8</ele>
        <time>2023-09-03T06:45:12Z</time>
      </trkpt>
      <trkpt lat="49.35759" lon="0.12095">
        <ele>108</ele>
        <time>2023-09-03T06:45:13Z</time>
      </trkpt>
      <trkpt lat="49.35762" lon="0.12096">
        <ele>108.2</ele>
        <time>2023-09-03T06:45:14Z</time>
      </trkpt>
      <trkpt lat="49.35766" lon="0.12098">
        <ele>108.4</ele>
        <time>2023-09-03T06:45:15Z</time>
      </trkpt>
      <trkpt lat="49.3577" lon="0.12099">
        <ele>108.6</ele>
        <time>2023-09-03T06:45:16Z</time>
      </trkpt>
      <trkpt lat="49.35773" lon="0.121">
        <ele>108.8</ele>
        <time>2023-09-03T06:45:17Z</time>
      </trkpt>
      <trkpt lat="49.35777" lon="0.12102">
        <ele>109</ele>
        <time>2023-09-03T06:45:18Z</time>
      </trkpt>
      <trkpt lat="49.35781" lon="0.12104">
        <ele>109.1</ele>
        <time>2023-09-03T06:45:19Z</time>
      </trkpt>
      <trkpt lat="49.35785" lon="0.12106">
        <ele>109.1</ele>
        <time>2023-09-03T06:45:20Z</time>
      </trkpt>
      <trkpt lat="49.35788" lon="0.12108">
        <ele>109.1</ele>
        <time>2023-09-03T06:45:21Z</time>
      </trkpt>
      <trkpt lat="49.35792" lon="0.12109">
        <ele>109.3</ele>
        <time>2023-09-03T06:45:22Z</time>
      </trkpt>
      <trkpt lat="49.35796" lon="0.1211">
        <ele>109.6</ele>
        <time>2023-09-03T06:45:23Z</time>
      </trkpt>
      <trkpt lat="49.358" lon="0.12111">
        <ele>109.8</ele>
        <time>2023-09-03T06:45:24Z</time>
      </trkpt>
      <trkpt lat="49.35803" lon="0.12112">
        <ele>110</ele>
        <time>2023-09-03T06:45:25Z</time>
      </trkpt>
      <trkpt lat="49.35807" lon="0.12114">
        <ele>110.2</ele>
        <time>2023-09-03T06:45:26Z</time>
      </trkpt>
      <trkpt lat="49.3581" lon="0.12115">
        <ele>110.4</ele>
        <time>2023-09-03T06:45:27Z</time>
      </trkpt>
      <trkpt lat="49.35814" lon="0.12116">
        <ele>110.6</ele>
        <time>2023-09-03T06:45:28Z</time>
      </trkpt>
      <trkpt lat="49.35817" lon="0.12117">
        <ele>110.8</ele>
        <time>2023-09-03T06:45:29Z</time>
      </trkpt>
      <trkpt lat="49.35821" lon="0.12118">
        <ele>111</ele>
        <time>2023-09-03T06:45:30Z</time>
      </trkpt>
      <trkpt lat="49.35825" lon="0.12119">
        <ele>111.3</ele>
        <time>2023-09-03T06:45:31Z</time>
      </trkpt>
      <trkpt lat="49.35829" lon="0.1212">
        <ele>111.5</ele>
        <time>2023-09-03T06:45:32Z</time>
      </trkpt>
      <trkpt lat="49.35833" lon="0.12121">
        <ele>111.7</ele>
        <time>2023-09-03T06:45:33Z</time>
      </trkpt>
      <trkpt lat="49.35837" lon="0.12122">
        <ele>111.9</ele>
        <time>2023-09-03T06:45:34Z</time>
      </trkpt>
      <trkpt lat="49.3584" lon="0.12122">
        <ele>112.2</ele>
        <time>2023-09-03T06:45:35Z</time>
      </trkpt>
      <trkpt lat="49.35844" lon="0.12123">
        <ele>112.4</ele>
        <time>2023-09-03T06:45:36Z</time>
      </trkpt>
      <trkpt lat="49.35848" lon="0.12123">
        <ele>112.6</ele>
        <time>2023-09-03T06:45:37Z</time>
      </trkpt>
      <trkpt lat="49.35851" lon="0.12124">
        <ele>112.8</ele>
        <time>2023-09-03T06:45:38Z</time>
      </trkpt>
      <trkpt lat="49.35855" lon="0.12124">
        <ele>113.1</ele>
        <time>2023-09-03T06:45:39Z</time>
      </trkpt>
      <trkpt lat="49.3586" lon="0.12125">
        <ele>113.3</ele>
        <time>2023-09-03T06:45:40Z</time>
      </trkpt>
      <trkpt lat="49.35864" lon="0.12125">
        <ele>113.6</ele>
        <time>2023-09-03T06:45:41Z</time>
      </trkpt>
      <trkpt lat="49.35868" lon="0.12125">
        <ele>113.8</ele>
        <time>2023-09-03T06:45:42Z</time>
      </trkpt>
      <trkpt lat="49.35871" lon="0.12125">
        <ele>114.1</ele>
        <time>2023-09-03T06:45:43Z</time>
      </trkpt>
      <trkpt lat="49.35875" lon="0.12125">
        <ele>114.3</ele>
        <time>2023-09-03T06:45:44Z</time>
      </trkpt>
      <trkpt lat="49.35879" lon="0.12125">
        <ele>114.5</ele>
        <time>2023-09-03T06:45:45Z</time>
      </trkpt>
      <trkpt lat="49.35882" lon="0.12125">
        <ele>114.7</ele>
        <time>2023-09-03T06:45:46Z</time>
      </trkpt>
      <trkpt lat="49.35886" lon="0.12124">
        <ele>115</ele>
        <time>2023-09-03T06:45:47Z</time>
      </trkpt>
      <trkpt lat="49.3589" lon="0.12123">
        <ele>115.2</ele>
        <time>2023-09-03T06:45:48Z</time>
      </trkpt>
      <trkpt lat="49.35893" lon="0.12123">
        <ele>115.4</ele>
        <time>2023-09-03T06:45:49Z</time>
      </trkpt>
      <trkpt lat="49.35897" lon="0.12123">
        <ele>115.6</ele>
        <time>2023-09-03T06:45:50Z</time>
      </trkpt>
      <trkpt lat="49.359" lon="0.12123">
        <ele>115.8</ele>
        <time>2023-09-03T06:45:51Z</time>
      </trkpt>
      <trkpt lat="49.35904" lon="0.12123">
        <ele>116.1</ele>
        <time>2023-09-03T06:45:52Z</time>
      </trkpt>
      <trkpt lat="49.35908" lon="0.12123">
        <ele>116.3</ele>
        <time>2023-09-03T06:45:53Z</time>
      </trkpt>
      <trkpt lat="49.35912" lon="0.12123">
        <ele>116.5</ele>
        <time>2023-09-03T06:45:54Z</time>
      </trkpt>
      <trkpt lat="49.35915" lon="0.12123">
        <ele>116.7</ele>
        <time>2023-09-03T06:45:55Z</time>
      </trkpt>
      <trkpt lat="49.35919" lon="0.12123">
        <ele>116.9</ele>
        <time>2023-09-03T06:45:56Z</time>
      </trkpt>
      <trkpt lat="49.35923" lon="0.12124">
        <ele>117.1</ele>
        <time>2023-09-03T06:45:57Z</time>
      </trkpt>
      <trkpt lat="49.35927" lon="0.12124">
        <ele>117.3</ele>
        <time>2023-09-03T06:45:58Z</time>
      </trkpt>
      <trkpt lat="49.3593" lon="0.12124">
        <ele>117.4</ele>
        <time>2023-09-03T06:45:59Z</time>
      </trkpt>
      <trkpt lat="49.35934" lon="0.12124">
        <ele>117.6</ele>
        <time>2023-09-03T06:46:00Z</time>
      </trkpt>
      <trkpt lat="49.35938" lon="0.12124">
        <ele>117.8</ele>
        <time>2023-09-03T06:46:01Z</time>
      </trkpt>
      <trkpt lat="49.35942" lon="0.12124">
        <ele>118</ele>
        <time>2023-09-03T06:46:02Z</time>
      </trkpt>
      <trkpt lat="49.35946" lon="0.12124">
        <ele>118.1</ele>
        <time>2023-09-03T06:46:03Z</time>
      </trkpt>
      <trkpt lat="49.35949" lon="0.12124">
        <ele>118.3</ele>
        <time>2023-09-03T06:46:04Z</time>
      </trkpt>
      <trkpt lat="49.35953" lon="0.12124">
        <ele>118.5</ele>
        <time>2023-09-03T06:46:05Z</time>
      </trkpt>
      <trkpt lat="49.35956" lon="0.12125">
        <ele>118.7</ele>
        <time>2023-09-03T06:46:06Z</time>
      </trkpt>
      <trkpt lat="49.3596" lon="0.12126">
        <ele>118.8</ele>
        <time>2023-09-03T06:46:07Z</time>
      </trkpt>
      <trkpt lat="49.35964" lon="0.12126">
        <ele>119</ele>
        <time>2023-09-03T06:46:08Z</time>
      </trkpt>
      <trkpt lat="49.35967" lon="0.12127">
        <ele>119.2</ele>
        <time>2023-09-03T06:46:09Z</time>
      </trkpt>
      <trkpt lat="49.35971" lon="0.12127">
        <ele>119.4</ele>
        <time>2023-09-03T06:46:10Z</time>
      </trkpt>
      <trkpt lat="49.35975" lon="0.12128">
        <ele>119.5</ele>
        <time>2023-09-03T06:46:11Z</time>
      </trkpt>
      <trkpt lat="49.35978" lon="0.12129">
        <ele>119.7</ele>
        <time>2023-09-03T06:46:12Z</time>
      </trkpt>
      <trkpt lat="49.35982" lon="0.1213">
        <ele>119.9</ele>
        <time>2023-09-03T06:46:13Z</time>
      </trkpt>
      <trkpt lat="49.35986" lon="0.1213">
        <ele>120.1</ele>
        <time>2023-09-03T06:46:14Z</time>
      </trkpt>
      <trkpt lat="49.3599" lon="0.12131">
        <ele>120.3</ele>
        <time>2023-09-03T06:46:15Z</time>
      </trkpt>
      <trkpt lat="49.35994" lon="0.12132">
        <ele>120.5</ele>
        <time>2023-09-03T06:46:16Z</time>
      </trkpt>
      <trkpt lat="49.35998" lon="0.12133">
        <ele>120.7</ele>
        <time>2023-09-03T06:46:17Z</time>
      </trkpt>
      <trkpt lat="49.36001" lon="0.12134">
        <ele>121</ele>
        <time>2023-09-03T06:46:18Z</time>
      </trkpt>
      <trkpt lat="49.36005" lon="0.12135">
        <ele>121.2</ele>
        <time>2023-09-03T06:46:19Z</time>
      </trkpt>
      <trkpt lat="49.36009" lon="0.12136">
        <ele>121.4</ele>
        <time>2023-09-03T06:46:20Z</time>
      </trkpt>
      <trkpt lat="49.36012" lon="0.12137">
        <ele>121.6</ele>
        <time>2023-09-03T06:46:21Z</time>
      </trkpt>
      <trkpt lat="49.36016" lon="0.12139">
        <ele>121.8</ele>
        <time>2023-09-03T06:46:22Z</time>
      </trkpt>
      <trkpt lat="49.36019" lon="0.12141">
        <ele>122</ele>
        <time>2023-09-03T06:46:23Z</time>
      </trkpt>
      <trkpt lat="49.36023" lon="0.12143">
        <ele>122.2</ele>
        <time>2023-09-03T06:46:24Z</time>
      </trkpt>
      <trkpt lat="49.36026" lon="0.12145">
        <ele>122.4</ele>
        <time>2023-09-03T06:46:25Z</time>
      </trkpt>
      <trkpt lat="49.3603" lon="0.12147">
        <ele>122.5</ele>
        <time>2023-09-03T06:46:26Z</time>
      </trkpt>
      <trkpt lat="49.36034" lon="0.12148">
        <ele>122.8</ele>
        <time>2023-09-03T06:46:27Z</time>
      </trkpt>
      <trkpt lat="49.36037" lon="0.1215">
        <ele>122.9</ele>
        <time>2023-09-03T06:46:28Z</time>
      </trkpt>
      <trkpt lat="49.36041" lon="0.12151">
        <ele>123.1</ele>
        <time>2023-09-03T06:46:29Z</time>
      </trkpt>
      <trkpt lat="49.36045" lon="0.12152">
        <ele>123.3</ele>
        <time>2023-09-03T06:46:30Z</time>
      </trkpt>
      <trkpt lat="49.36049" lon="0.12154">
        <ele>123.6</ele>
        <time>2023-09-03T06:46:31Z</time>
      </trkpt>
      <trkpt lat="49.36053" lon="0.12155">
        <ele>123.8</ele>
        <time>2023-09-03T06:46:32Z</time>
      </trkpt>
      <trkpt lat="49.36057" lon="0.12156">
        <ele>124</ele>
        <time>2023-09-03T06:46:33Z</time>
      </trkpt>
      <trkpt lat="49.36061" lon="0.12158">
        <ele>124.2</ele>
        <time>2023-09-03T06:46:34Z</time>
      </trkpt>
      <trkpt lat="49.36066" lon="0.12158">
        <ele>124.4</ele>
        <time>2023-09-03T06:46:35Z</time>
      </trkpt>
      <trkpt lat="49.3607" lon="0.12159">
        <ele>124.7</ele>
        <time>2023-09-03T06:46:36Z</time>
      </trkpt>
      <trkpt lat="49.36074" lon="0.12161">
        <ele>124.9</ele>
        <time>2023-09-03T06:46:37Z</time>
      </trkpt>
      <trkpt lat="49.36078" lon="0.12163">
        <ele>125.1</ele>
        <time>2023-09-03T06:46:38Z</time>
      </trkpt>
      <trkpt lat="49.36082" lon="0.12165">
        <ele>125.3</ele>
        <time>2023-09-03T06:46:39Z</time>
      </trkpt>
      <trkpt lat="49.36085" lon="0.12168">
        <ele>125.6</ele>
        <time>2023-09-03T06:46:40Z</time>
      </trkpt>
      <trkpt lat="49.36089" lon="0.1217">
        <ele>125.8</ele>
        <time>2023-09-03T06:46:41Z</time>
      </trkpt>
      <trkpt lat="49.36093" lon="0.12171">
        <ele>126</ele>
        <time>2023-09-03T06:46:42Z</time>
      </trkpt>
      <trkpt lat="49.36097" lon="0.12174">
        <ele>126.2</ele>
        <time>2023-09-03T06:46:43Z</time>
      </trkpt>
      <trkpt lat="49.36101" lon="0.12176">
        <ele>126.4</ele>
        <time>2023-09-03T06:46:44Z</time>
      </trkpt>
      <trkpt lat="49.36105" lon="0.12178">
        <ele>126.6</ele>
        <time>2023-09-03T06:46:45Z</time>
      </trkpt>
      <trkpt lat="49.36108" lon="0.1218">
        <ele>126.8</ele>
        <time>2023-09-03T06:46:46Z</time>
      </trkpt>
      <trkpt lat="49.36112" lon="0.12181">
        <ele>127</ele>
        <time>2023-09-03T06:46:47Z</time>
      </trkpt>
      <trkpt lat="49.36115" lon="0.12183">
        <ele>127.2</ele>
        <time>2023-09-03T06:46:48Z</time>
      </trkpt>
      <trkpt lat="49.3612" lon="0.12185">
        <ele>127.4</ele>
        <time>2023-09-03T06:46:49Z</time>
      </trkpt>
      <trkpt lat="49.36124" lon="0.12187">
        <ele>127.6</ele>
        <time>2023-09-03T06:46:50Z</time>
      </trkpt>
      <trkpt lat="49.36127" lon="0.12189">
        <ele>127.8</ele>
        <time>2023-09-03T06:46:51Z</time>
      </trkpt>
      <trkpt lat="49.3613" lon="0.1219">
        <ele>127.9</ele>
        <time>2023-09-03T06:46:52Z</time>
      </trkpt>
      <trkpt lat="49.36134" lon="0.12192">
        <ele>128.1</ele>
        <time>2023-09-03T06:46:53Z</time>
      </trkpt>
      <trkpt lat="49.36138" lon="0.12194">
        <ele>128.3</ele>
        <time>2023-09-03T06:46:54Z</time>
      </trkpt>
      <trkpt lat="49.36142" lon="0.12196">
        <ele>128.5</ele>
        <time>2023-09-03T06:46:55Z</time>
      </trkpt>
      <trkpt lat="49.36146" lon="0.12198">
        <ele>128.7</ele>
        <time>2023-09-03T06:46:56Z</time>
      </trkpt>
      <trkpt lat="49.3615" lon="0.122">
        <ele>129</ele>
        <time>2023-09-03T06:46:57Z</time>
      </trkpt>
      <trkpt lat="49.36154" lon="0.12202">
        <ele>129.2</ele>
        <time>2023-09-03T06:46:58Z</time>
      </trkpt>
      <trkpt lat="49.36158" lon="0.12204">
        <ele>129.4</ele>
        <time>2023-09-03T06:46:59Z</time>
      </trkpt>
      <trkpt lat="49.36162" lon="0.12206">
        <ele>129.6</ele>
        <time>2023-09-03T06:47:00Z</time>
      </trkpt>
      <trkpt lat="49.36166" lon="0.12208">
        <ele>129.8</ele>
        <time>2023-09-03T06:47:01Z</time>
      </trkpt>
      <trkpt lat="49.36171" lon="0.12209">
        <ele>130</ele>
        <time>2023-09-03T06:47:02Z</time>
      </trkpt>
      <trkpt lat="49.36175" lon="0.12211">
        <ele>130.2</ele>
        <time>2023-09-03T06:47:03Z</time>
      </trkpt>
      <trkpt lat="49.36178" lon="0.12212">
        <ele>130.4</ele>
        <time>2023-09-03T06:47:04Z</time>
      </trkpt>
      <trkpt lat="49.36183" lon="0.12214">
        <ele>130.6</ele>
        <time>2023-09-03T06:47:05Z</time>
      </trkpt>
      <trkpt lat="49.36187" lon="0.12215">
        <ele>130.8</ele>
        <time>2023-09-03T06:47:06Z</time>
      </trkpt>
      <trkpt lat="49.36192" lon="0.12217">
        <ele>131</ele>
        <time>2023-09-03T06:47:07Z</time>
      </trkpt>
      <trkpt lat="49.36196" lon="0.12218">
        <ele>131.2</ele>
        <time>2023-09-03T06:47:08Z</time>
      </trkpt>
      <trkpt lat="49.36201" lon="0.12219">
        <ele>131.4</ele>
        <time>2023-09-03T06:47:09Z</time>
      </trkpt>
      <trkpt lat="49.36205" lon="0.1222">
        <ele>131.5</ele>
        <time>2023-09-03T06:47:10Z</time>
      </trkpt>
      <trkpt lat="49.3621" lon="0.12221">
        <ele>131.6</ele>
        <time>2023-09-03T06:47:11Z</time>
      </trkpt>
      <trkpt lat="49.36214" lon="0.12222">
        <ele>131.8</ele>
        <time>2023-09-03T06:47:12Z</time>
      </trkpt>
      <trkpt lat="49.36219" lon="0.12223">
        <ele>131.9</ele>
        <time>2023-09-03T06:47:13Z</time>
      </trkpt>
      <trkpt lat="49.36224" lon="0.12223">
        <ele>132</ele>
        <time>2023-09-03T06:47:14Z</time>
      </trkpt>
      <trkpt lat="49.36229" lon="0.12223">
        <ele>132.1</ele>
        <time>2023-09-03T06:47:15Z</time>
      </trkpt>
      <trkpt lat="49.36234" lon="0.12224">
        <ele>132.2</ele>
        <time>2023-09-03T06:47:16Z</time>
      </trkpt>
      <trkpt lat="49.36239" lon="0.12225">
        <ele>132.4</ele>
        <time>2023-09-03T06:47:17Z</time>
      </trkpt>
      <trkpt lat="49.36244" lon="0.12226">
        <ele>132.5</ele>
        <time>2023-09-03T06:47:18Z</time>
      </trkpt>
      <trkpt lat="49.36249" lon="0.12227">
        <ele>132.6</ele>
        <time>2023-09-03T06:47:19Z</time>
      </trkpt>
      <trkpt lat="49.36254" lon="0.12228">
        <ele>132.7</ele>
        <time>2023-09-03T06:47:20Z</time>
      </trkpt>
      <trkpt lat="49.36259" lon="0.12229">
        <ele>132.8</ele>
        <time>2023-09-03T06:47:21Z</time>
      </trkpt>
      <trkpt lat="49.36264" lon="0.12231">
        <ele>132.9</ele>
        <time>2023-09-03T06:47:22Z</time>
      </trkpt>
      <trkpt lat="49.36269" lon="0.12233">
        <ele>133</ele>
        <time>2023-09-03T06:47:23Z</time>
      </trkpt>
      <trkpt lat="49.36275" lon="0.12236">
        <ele>133.1</ele>
        <time>2023-09-03T06:47:24Z</time>
      </trkpt>
      <trkpt lat="49.3628" lon="0.12238">
        <ele>133.2</ele>
        <time>2023-09-03T06:47:25Z</time>
      </trkpt>
      <trkpt lat="49.36285" lon="0.1224">
        <ele>133.3</ele>
        <time>2023-09-03T06:47:26Z</time>
      </trkpt>
      <trkpt lat="49.3629" lon="0.12242">
        <ele>133.4</ele>
        <time>2023-09-03T06:47:27Z</time>
      </trkpt>
      <trkpt lat="49.36295" lon="0.12244">
        <ele>133.5</ele>
        <time>2023-09-03T06:47:28Z</time>
      </trkpt>
      <trkpt lat="49.363" lon="0.12247">
        <ele>133.6</ele>
        <time>2023-09-03T06:47:29Z</time>
      </trkpt>
      <trkpt lat="49.36305" lon="0.1225">
        <ele>133.7</ele>
        <time>2023-09-03T06:47:30Z</time>
      </trkpt>
      <trkpt lat="49.3631" lon="0.12252">
        <ele>133.8</ele>
        <time>2023-09-03T06:47:31Z</time>
      </trkpt>
      <trkpt lat="49.36315" lon="0.12254">
        <ele>134</ele>
        <time>2023-09-03T06:47:32Z</time>
      </trkpt>
      <trkpt lat="49.3632" lon="0.12256">
        <ele>134.1</ele>
        <time>2023-09-03T06:47:33Z</time>
      </trkpt>
      <trkpt lat="49.36325" lon="0.12259">
        <ele>134.2</ele>
        <time>2023-09-03T06:47:34Z</time>
      </trkpt>
      <trkpt lat="49.3633" lon="0.12262">
        <ele>134.3</ele>
        <time>2023-09-03T06:47:35Z</time>
      </trkpt>
      <trkpt lat="49.36335" lon="0.12266">
        <ele>134.5</ele>
        <time>2023-09-03T06:47:36Z</time>
      </trkpt>
      <trkpt lat="49.36339" lon="0.12268">
        <ele>134.6</ele>
        <time>2023-09-03T06:47:37Z</time>
      </trkpt>
      <trkpt lat="49.36344" lon="0.12271">
        <ele>134.7</ele>
        <time>2023-09-03T06:47:38Z</time>
      </trkpt>
      <trkpt lat="49.36349" lon="0.12273">
        <ele>134.9</ele>
        <time>2023-09-03T06:47:39Z</time>
      </trkpt>
      <trkpt lat="49.36354" lon="0.12276">
        <ele>135</ele>
        <time>2023-09-03T06:47:40Z</time>
      </trkpt>
      <trkpt lat="49.36359" lon="0.12278">
        <ele>135.1</ele>
        <time>2023-09-03T06:47:41Z</time>
      </trkpt>
      <trkpt lat="49.36364" lon="0.12281">
        <ele>135.2</ele>
        <time>2023-09-03T06:47:42Z</time>
      </trkpt>
      <trkpt lat="49.36369" lon="0.12284">
        <ele>135.4</ele>
        <time>2023-09-03T06:47:43Z</time>
      </trkpt>
      <trkpt lat="49.36375" lon="0.12286">
        <ele>135.5</ele>
        <time>2023-09-03T06:47:44Z</time>
      </trkpt>
      <trkpt lat="49.3638" lon="0.12289">
        <ele>135.6</ele>
        <time>2023-09-03T06:47:45Z</time>
      </trkpt>
      <trkpt lat="49.36385" lon="0.12291">
        <ele>135.7</ele>
        <time>2023-09-03T06:47:46Z</time>
      </trkpt>
      <trkpt lat="49.36391" lon="0.12294">
        <ele>135.8</ele>
        <time>2023-09-03T06:47:47Z</time>
      </trkpt>
      <trkpt lat="49.36396" lon="0.12297">
        <ele>135.9</ele>
        <time>2023-09-03T06:47:48Z</time>
      </trkpt>
      <trkpt lat="49.36401" lon="0.12299">
        <ele>136</ele>
        <time>2023-09-03T06:47:49Z</time>
      </trkpt>
      <trkpt lat="49.36407" lon="0.12301">
        <ele>136.2</ele>
        <time>2023-09-03T06:47:50Z</time>
      </trkpt>
      <trkpt lat="49.36412" lon="0.12304">
        <ele>136.2</ele>
        <time>2023-09-03T06:47:51Z</time>
      </trkpt>
      <trkpt lat="49.36417" lon="0.12307">
        <ele>136.3</ele>
        <time>2023-09-03T06:47:52Z</time>
      </trkpt>
      <trkpt lat="49.36422" lon="0.12309">
        <ele>136.4</ele>
        <time>2023-09-03T06:47:53Z</time>
      </trkpt>
      <trkpt lat="49.36427" lon="0.12312">
        <ele>136.5</ele>
        <time>2023-09-03T06:47:54Z</time>
      </trkpt>
      <trkpt lat="49.36432" lon="0.12314">
        <ele>136.6</ele>
        <time>2023-09-03T06:47:55Z</time>
      </trkpt>
      <trkpt lat="49.36438" lon="0.12316">
        <ele>136.7</ele>
        <time>2023-09-03T06:47:56Z</time>
      </trkpt>
      <trkpt lat="49.36444" lon="0.12318">
        <ele>136.8</ele>
        <time>2023-09-03T06:47:57Z</time>
      </trkpt>
      <trkpt lat="49.36449" lon="0.12321">
        <ele>136.9</ele>
        <time>2023-09-03T06:47:58Z</time>
      </trkpt>
      <trkpt lat="49.36455" lon="0.12323">
        <ele>137</ele>
        <time>2023-09-03T06:47:59Z</time>
      </trkpt>
      <trkpt lat="49.3646" lon="0.12326">
        <ele>137.2</ele>
        <time>2023-09-03T06:48:00Z</time>
      </trkpt>
      <trkpt lat="49.36465" lon="0.12329">
        <ele>137.3</ele>
        <time>2023-09-03T06:48:01Z</time>
      </trkpt>
      <trkpt lat="49.3647" lon="0.12332">
        <ele>137.4</ele>
        <time>2023-09-03T06:48:02Z</time>
      </trkpt>
      <trkpt lat="49.36475" lon="0.12335">
        <ele>137.5</ele>
        <time>2023-09-03T06:48:03Z</time>
      </trkpt>
      <trkpt lat="49.3648" lon="0.12337">
        <ele>137.6</ele>
        <time>2023-09-03T06:48:04Z</time>
      </trkpt>
      <trkpt lat="49.36485" lon="0.1234">
        <ele>137.7</ele>
        <time>2023-09-03T06:48:05Z</time>
      </trkpt>
      <trkpt lat="49.3649" lon="0.12342">
        <ele>137.8</ele>
        <time>2023-09-03T06:48:06Z</time>
      </trkpt>
      <trkpt lat="49.36495" lon="0.12345">
        <ele>137.9</ele>
        <time>2023-09-03T06:48:07Z</time>
      </trkpt>
      <trkpt lat="49.365" lon="0.12347">
        <ele>138</ele>
        <time>2023-09-03T06:48:08Z</time>
      </trkpt>
      <trkpt lat="49.36505" lon="0.1235">
        <ele>138.1</ele>
        <time>2023-09-03T06:48:09Z</time>
      </trkpt>
      <trkpt lat="49.3651" lon="0.12354">
        <ele>138.2</ele>
        <time>2023-09-03T06:48:10Z</time>
      </trkpt>
      <trkpt lat="49.36515" lon="0.12357">
        <ele>138.3</ele>
        <time>2023-09-03T06:48:11Z</time>
      </trkpt>
      <trkpt lat="49.3652" lon="0.12361">
        <ele>138.4</ele>
        <time>2023-09-03T06:48:12Z</time>
      </trkpt>
      <trkpt lat="49.36525" lon="0.12364">
        <ele>138.6</ele>
        <time>2023-09-03T06:48:13Z</time>
      </trkpt>
      <trkpt lat="49.3653" lon="0.12368">
        <ele>138.7</ele>
        <time>2023-09-03T06:48:14Z</time>
      </trkpt>
      <trkpt lat="49.36535" lon="0.12371">
        <ele>138.8</ele>
        <time>2023-09-03T06:48:15Z</time>
      </trkpt>
      <trkpt lat="49.3654" lon="0.12374">
        <ele>138.9</ele>
        <time>2023-09-03T06:48:16Z</time>
      </trkpt>
      <trkpt lat="49.36545" lon="0.12378">
        <ele>139</ele>
        <time>2023-09-03T06:48:17Z</time>
      </trkpt>
      <trkpt lat="49.36551" lon="0.12381">
        <ele>139.1</ele>
        <time>2023-09-03T06:48:18Z</time>
      </trkpt>
      <trkpt lat="49.36556" lon="0.12384">
        <ele>139.2</ele>
        <time>2023-09-03T06:48:19Z</time>
      </trkpt>
      <trkpt lat="49.36561" lon="0.12388">
        <ele>139.3</ele>
        <time>2023-09-03T06:48:20Z</time>
      </trkpt>
      <trkpt lat="49.36566" lon="0.12391">
        <ele>139.5</ele>
        <time>2023-09-03T06:48:21Z</time>
      </trkpt>
      <trkpt lat="49.36571" lon="0.12394">
        <ele>139.6</ele>
        <time>2023-09-03T06:48:22Z</time>
      </trkpt>
      <trkpt lat="49.36576" lon="0.12397">
        <ele>139.7</ele>
        <time>2023-09-03T06:48:23Z</time>
      </trkpt>
      <trkpt lat="49.36582" lon="0.124">
        <ele>139.8</ele>
        <time>2023-09-03T06:48:24Z</time>
      </trkpt>
      <trkpt lat="49.36587" lon="0.12403">
        <ele>139.9</ele>
        <time>2023-09-03T06:48:25Z</time>
      </trkpt>
      <trkpt lat="49.36592" lon="0.12406">
        <ele>140</ele>
        <time>2023-09-03T06:48:26Z</time>
      </trkpt>
      <trkpt lat="49.36598" lon="0.1241">
        <ele>140.1</ele>
        <time>2023-09-03T06:48:27Z</time>
      </trkpt>
      <trkpt lat="49.36603" lon="0.12413">
        <ele>140.2</ele>
        <time>2023-09-03T06:48:28Z</time>
      </trkpt>
      <trkpt lat="49.36609" lon="0.12417">
        <ele>140.3</ele>
        <time>2023-09-03T06:48:29Z</time>
      </trkpt>
      <trkpt lat="49.36614" lon="0.12421">
        <ele>140.4</ele>
        <time>2023-09-03T06:48:30Z</time>
      </trkpt>
      <trkpt lat="49.3662" lon="0.12426">
        <ele>140.6</ele>
        <time>2023-09-03T06:48:31Z</time>
      </trkpt>
      <trkpt lat="49.36626" lon="0.1243">
        <ele>140.7</ele>
        <time>2023-09-03T06:48:32Z</time>
      </trkpt>
      <trkpt lat="49.36631" lon="0.12434">
        <ele>140.8</ele>
        <time>2023-09-03T06:48:33Z</time>
      </trkpt>
      <trkpt lat="49.36637" lon="0.12438">
        <ele>140.9</ele>
        <time>2023-09-03T06:48:34Z</time>
      </trkpt>
      <trkpt lat="49.36642" lon="0.12441">
        <ele>140.9</ele>
        <time>2023-09-03T06:48:35Z</time>
      </trkpt>
      <trkpt lat="49.36647" lon="0.12445">
        <ele>141</ele>
        <time>2023-09-03T06:48:36Z</time>
      </trkpt>
      <trkpt lat="49.36653" lon="0.12448">
        <ele>141.1</ele>
        <time>2023-09-03T06:48:37Z</time>
      </trkpt>
      <trkpt lat="49.36659" lon="0.12452">
        <ele>141.2</ele>
        <time>2023-09-03T06:48:38Z</time>
      </trkpt>
      <trkpt lat="49.36665" lon="0.12456">
        <ele>141.3</ele>
        <time>2023-09-03T06:48:39Z</time>
      </trkpt>
      <trkpt lat="49.3667" lon="0.12459">
        <ele>141.4</ele>
        <time>2023-09-03T06:48:40Z</time>
      </trkpt>
      <trkpt lat="49.36676" lon="0.12463">
        <ele>141.5</ele>
        <time>2023-09-03T06:48:41Z</time>
      </trkpt>
      <trkpt lat="49.36682" lon="0.12466">
        <ele>141.6</ele>
        <time>2023-09-03T06:48:42Z</time>
      </trkpt>
      <trkpt lat="49.36688" lon="0.1247">
        <ele>141.7</ele>
        <time>2023-09-03T06:48:43Z</time>
      </trkpt>
      <trkpt lat="49.36693" lon="0.12473">
        <ele>141.8</ele>
        <time>2023-09-03T06:48:44Z</time>
      </trkpt>
      <trkpt lat="49.36699" lon="0.12477">
        <ele>141.9</ele>
        <time>2023-09-03T06:48:45Z</time>
      </trkpt>
      <trkpt lat="49.36705" lon="0.1248">
        <ele>142</ele>
        <time>2023-09-03T06:48:46Z</time>
      </trkpt>
      <trkpt lat="49.36711" lon="0.12484">
        <ele>142.1</ele>
        <time>2023-09-03T06:48:47Z</time>
      </trkpt>
      <trkpt lat="49.36717" lon="0.12487">
        <ele>142.3</ele>
        <time>2023-09-03T06:48:48Z</time>
      </trkpt>
      <trkpt lat="49.36723" lon="0.12491">
        <ele>142.4</ele>
        <time>2023-09-03T06:48:49Z</time>
      </trkpt>
      <trkpt lat="49.36728" lon="0.12495">
        <ele>142.5</ele>
        <time>2023-09-03T06:48:50Z</time>
      </trkpt>
      <trkpt lat="49.36734" lon="0.12499">
        <ele>142.6</ele>
        <time>2023-09-03T06:48:51Z</time>
      </trkpt>
      <trkpt lat="49.36739" lon="0.12503">
        <ele>142.7</ele>
        <time>2023-09-03T06:48:52Z</time>
      </trkpt>
      <trkpt lat="49.36745" lon="0.12506">
        <ele>142.8</ele>
        <time>2023-09-03T06:48:53Z</time>
      </trkpt>
      <trkpt lat="49.36751" lon="0.1251">
        <ele>142.9</ele>
        <time>2023-09-03T06:48:54Z</time>
      </trkpt>
      <trkpt lat="49.36756" lon="0.12514">
        <ele>143</ele>
        <time>2023-09-03T06:48:55Z</time>
      </trkpt>
      <trkpt lat="49.36762" lon="0.12517">
        <ele>143.1</ele>
        <time>2023-09-03T06:48:56Z</time>
      </trkpt>
      <trkpt lat="49.36768" lon="0.1252">
        <ele>143.2</ele>
        <time>2023-09-03T06:48:57Z</time>
      </trkpt>
      <trkpt lat="49.36774" lon="0.12524">
        <ele>143.3</ele>
        <time>2023-09-03T06:48:58Z</time>
      </trkpt>
      <trkpt lat="49.3678" lon="0.12527">
        <ele>143.4</ele>
        <time>2023-09-03T06:48:59Z</time>
      </trkpt>
      <trkpt lat="49.36786" lon="0.12531">
        <ele>143.5</ele>
        <time>2023-09-03T06:49:00Z</time>
      </trkpt>
      <trkpt lat="49.36792" lon="0.12535">
        <ele>143.6</ele>
        <time>2023-09-03T06:49:01Z</time>
      </trkpt>
      <trkpt lat="49.36797" lon="0.12538">
        <ele>143.8</ele>
        <time>2023-09-03T06:49:02Z</time>
      </trkpt>
      <trkpt lat="49.36803" lon="0.12541">
        <ele>143.9</ele>
        <time>2023-09-03T06:49:03Z</time>
      </trkpt>
      <trkpt lat="49.36809" lon="0.12545">
        <ele>144</ele>
        <time>2023-09-03T06:49:04Z</time>
      </trkpt>
      <trkpt lat="49.36814" lon="0.12548">
        <ele>144.1</ele>
        <time>2023-09-03T06:49:05Z</time>
      </trkpt>
      <trkpt lat="49.3682" lon="0.12552">
        <ele>144.2</ele>
        <time>2023-09-03T06:49:06Z</time>
      </trkpt>
      <trkpt lat="49.36825" lon="0.12555">
        <ele>144.3</ele>
        <time>2023-09-03T06:49:07Z</time>
      </trkpt>
      <trkpt lat="49.36831" lon="0.12559">
        <ele>144.4</ele>
        <time>2023-09-03T06:49:08Z</time>
      </trkpt>
      <trkpt lat="49.36837" lon="0.12563">
        <ele>144.5</ele>
        <time>2023-09-03T06:49:09Z</time>
      </trkpt>
      <trkpt lat="49.36842" lon="0.12566">
        <ele>144.7</ele>
        <time>2023-09-03T06:49:10Z</time>
      </trkpt>
      <trkpt lat="49.36848" lon="0.1257">
        <ele>144.8</ele>
        <time>2023-09-03T06:49:11Z</time>
      </trkpt>
      <trkpt lat="49.36853" lon="0.12574">
        <ele>144.9</ele>
        <time>2023-09-03T06:49:12Z</time>
      </trkpt>
      <trkpt lat="49.36859" lon="0.12577">
        <ele>145.1</ele>
        <time>2023-09-03T06:49:13Z</time>
      </trkpt>
      <trkpt lat="49.36864" lon="0.12581">
        <ele>145.2</ele>
        <time>2023-09-03T06:49:14Z</time>
      </trkpt>
      <trkpt lat="49.3687" lon="0.12584">
        <ele>145.4</ele>
        <time>2023-09-03T06:49:15Z</time>
      </trkpt>
      <trkpt lat="49.36876" lon="0.12588">
        <ele>145.5</ele>
        <time>2023-09-03T06:49:16Z</time>
      </trkpt>
      <trkpt lat="49.36881" lon="0.12592">
        <ele>145.6</ele>
        <time>2023-09-03T06:49:17Z</time>
      </trkpt>
      <trkpt lat="49.36887" lon="0.12595">
        <ele>145.8</ele>
        <time>2023-09-03T06:49:18Z</time>
      </trkpt>
      <trkpt lat="49.36892" lon="0.12599">
        <ele>145.9</ele>
        <time>2023-09-03T06:49:19Z</time>
      </trkpt>
      <trkpt lat="49.36898" lon="0.12603">
        <ele>146</ele>
        <time>2023-09-03T06:49:20Z</time>
      </trkpt>
      <trkpt lat="49.36904" lon="0.12607">
        <ele>146.2</ele>
        <time>2023-09-03T06:49:21Z</time>
      </trkpt>
      <trkpt lat="49.3691" lon="0.12612">
        <ele>146.3</ele>
        <time>2023-09-03T06:49:22Z</time>
      </trkpt>
      <trkpt lat="49.36915" lon="0.12616">
        <ele>146.5</ele>
        <time>2023-09-03T06:49:23Z</time>
      </trkpt>
      <trkpt lat="49.36921" lon="0.1262">
        <ele>146.6</ele>
        <time>2023-09-03T06:49:24Z</time>
      </trkpt>
      <trkpt lat="49.36926" lon="0.12624">
        <ele>146.7</ele>
        <time>2023-09-03T06:49:25Z</time>
      </trkpt>
      <trkpt lat="49.36932" lon="0.12628">
        <ele>146.9</ele>
        <time>2023-09-03T06:49:26Z</time>
      </trkpt>
      <trkpt lat="49.36937" lon="0.12632">
        <ele>147</ele>
        <time>2023-09-03T06:49:27Z</time>
      </trkpt>
      <trkpt lat="49.36942" lon="0.12636">
        <ele>147.2</ele>
        <time>2023-09-03T06:49:28Z</time>
      </trkpt>
      <trkpt lat="49.36946" lon="0.1264">
        <ele>147.4</ele>
        <time>2023-09-03T06:49:29Z</time>
      </trkpt>
      <trkpt lat="49.3695" lon="0.12644">
        <ele>147.5</ele>
        <time>2023-09-03T06:49:30Z</time>
      </trkpt>
      <trkpt lat="49.36954" lon="0.12648">
        <ele>147.6</ele>
        <time>2023-09-03T06:49:31Z</time>
      </trkpt>
      <trkpt lat="49.36957" lon="0.12653">
        <ele>147.7</ele>
        <time>2023-09-03T06:49:32Z</time>
      </trkpt>
      <trkpt lat="49.36959" lon="0.12657">
        <ele>147.7</ele>
        <time>2023-09-03T06:49:33Z</time>
      </trkpt>
      <trkpt lat="49.3696" lon="0.12661">
        <ele>147.8</ele>
        <time>2023-09-03T06:49:34Z</time>
      </trkpt>
      <trkpt lat="49.36961" lon="0.12662">
        <ele>147.8</ele>
        <time>2023-09-03T06:49:35Z</time>
      </trkpt>
      <trkpt lat="49.36961" lon="0.12663">
        <ele>147.8</ele>
        <time>2023-09-03T06:49:36Z</time>
      </trkpt>
      <trkpt lat="49.36961" lon="0.12664">
        <ele>147.8</ele>
        <time>2023-09-03T06:49:37Z</time>
      </trkpt>
      <trkpt lat="49.36961" lon="0.12664">
        <ele>147.8</ele>
        <time>2023-09-03T06:49:38Z</time>
      </trkpt>
      <trkpt lat="49.36962" lon="0.12664">
        <ele>147.8</ele>
        <time>2023-09-03T06:49:39Z</time>
      </trkpt>
      <trkpt lat="49.36962" lon="0.12665">
        <ele>147.8</ele>
        <time>2023-09-03T06:49:40Z</time>
      </trkpt>
      <trkpt lat="49.36962" lon="0.12665">
        <ele>147.8</ele>
        <time>2023-09-03T06:49:41Z</time>
      </trkpt>
      <trkpt lat="49.36961" lon="0.12666">
        <ele>147.8</ele>
        <time>2023-09-03T06:49:42Z</time>
      </trkpt>
      <trkpt lat="49.36961" lon="0.12667">
        <ele>147.8</ele>
        <time>2023-09-03T06:49:43Z</time>
      </trkpt>
      <trkpt lat="49.36961" lon="0.12668">
        <ele>147.8</ele>
        <time>2023-09-03T06:49:44Z</time>
      </trkpt>
      <trkpt lat="49.36961" lon="0.12669">
        <ele>147.8</ele>
        <time>2023-09-03T06:49:45Z</time>
      </trkpt>
      <trkpt lat="49.36961" lon="0.12669">
        <ele>147.8</ele>
        <time>2023-09-03T06:49:46Z</time>
      </trkpt>
      <trkpt lat="49.36961" lon="0.1267">
        <ele>147.8</ele>
        <time>2023-09-03T06:49:47Z</time>
      </trkpt>
      <trkpt lat="49.36962" lon="0.12671">
        <ele>147.8</ele>
        <time>2023-09-03T06:49:48Z</time>
      </trkpt>
      <trkpt lat="49.36962" lon="0.12671">
        <ele>147.9</ele>
        <time>2023-09-03T06:49:49Z</time>
      </trkpt>
      <trkpt lat="49.36962" lon="0.12672">
        <ele>147.9</ele>
        <time>2023-09-03T06:49:50Z</time>
      </trkpt>
      <trkpt lat="49.36962" lon="0.12672">
        <ele>147.9</ele>
        <time>2023-09-03T06:49:51Z</time>
      </trkpt>
      <trkpt lat="49.36962" lon="0.12673">
        <ele>147.9</ele>
        <time>2023-09-03T06:49:52Z</time>
      </trkpt>
      <trkpt lat="49.36962" lon="0.12674">
        <ele>147.9</ele>
        <time>2023-09-03T06:49:53Z</time>
      </trkpt>
      <trkpt lat="49.36963" lon="0.12674">
        <ele>147.9</ele>
        <time>2023-09-03T06:49:54Z</time>
      </trkpt>
      <trkpt lat="49.36963" lon="0.12675">
        <ele>147.9</ele>
        <time>2023-09-03T06:50:44Z</time>
      </trkpt>
      <trkpt lat="49.36963" lon="0.12676">
        <ele>147.9</ele>
        <time>2023-09-03T06:50:45Z</time>
      </trkpt>
      <trkpt lat="49.36963" lon="0.12676">
        <ele>147.9</ele>
        <time>2023-09-03T06:50:46Z</time>
      </trkpt>
      <trkpt lat="49.36963" lon="0.12677">
        <ele>147.9</ele>
        <time>2023-09-03T06:50:47Z</time>
      </trkpt>
      <trkpt lat="49.36964" lon="0.12681">
        <ele>147.9</ele>
        <time>2023-09-03T06:50:48Z</time>
      </trkpt>
      <trkpt lat="49.36964" lon="0.12682">
        <ele>147.9</ele>
        <time>2023-09-03T06:50:49Z</time>
      </trkpt>
      <trkpt lat="49.36965" lon="0.12686">
        <ele>147.9</ele>
        <time>2023-09-03T06:50:50Z</time>
      </trkpt>
      <trkpt lat="49.36966" lon="0.12688">
        <ele>147.9</ele>
        <time>2023-09-03T06:50:51Z</time>
      </trkpt>
      <trkpt lat="49.36966" lon="0.12692">
        <ele>147.9</ele>
        <time>2023-09-03T06:50:52Z</time>
      </trkpt>
      <trkpt lat="49.36967" lon="0.12693">
        <ele>147.9</ele>
        <time>2023-09-03T06:50:53Z</time>
      </trkpt>
      <trkpt lat="49.36967" lon="0.12699">
        <ele>147.9</ele>
        <time>2023-09-03T06:50:54Z</time>
      </trkpt>
      <trkpt lat="49.36968" lon="0.12701">
        <ele>147.9</ele>
        <time>2023-09-03T06:50:55Z</time>
      </trkpt>
      <trkpt lat="49.36968" lon="0.12705">
        <ele>147.9</ele>
        <time>2023-09-03T06:50:56Z</time>
      </trkpt>
      <trkpt lat="49.36968" lon="0.1271">
        <ele>147.9</ele>
        <time>2023-09-03T06:50:57Z</time>
      </trkpt>
      <trkpt lat="49.36967" lon="0.12714">
        <ele>147.9</ele>
        <time>2023-09-03T06:50:58Z</time>
      </trkpt>
      <trkpt lat="49.36966" lon="0.12719">
        <ele>147.9</ele>
        <time>2023-09-03T06:50:59Z</time>
      </trkpt>
      <trkpt lat="49.36965" lon="0.12723">
        <ele>147.9</ele>
        <time>2023-09-03T06:51:00Z</time>
      </trkpt>
      <trkpt lat="49.36964" lon="0.12727">
        <ele>147.9</ele>
        <time>2023-09-03T06:51:01Z</time>
      </trkpt>
      <trkpt lat="49.36963" lon="0.12732">
        <ele>147.9</ele>
        <time>2023-09-03T06:51:02Z</time>
      </trkpt>
      <trkpt lat="49.36963" lon="0.12733">
        <ele>147.9</ele>
        <time>2023-09-03T06:51:03Z</time>
      </trkpt>
      <trkpt lat="49.36962" lon="0.12735">
        <ele>147.9</ele>
        <time>2023-09-03T06:51:04Z</time>
      </trkpt>
      <trkpt lat="49.36962" lon="0.12736">
        <ele>147.9</ele>
        <time>2023-09-03T06:51:05Z</time>
      </trkpt>
      <trkpt lat="49.36962" lon="0.12736">
        <ele>147.9</ele>
        <time>2023-09-03T06:51:06Z</time>
      </trkpt>
      <trkpt lat="49.36962" lon="0.12737">
        <ele>147.9</ele>
        <time>2023-09-03T06:51:07Z</time>
      </trkpt>
      <trkpt lat="49.36962" lon="0.12737">
        <ele>147.9</ele>
        <time>2023-09-03T06:51:08Z</time>
      </trkpt>
      <trkpt lat="49.36962" lon="0.12738">
        <ele>147.9</ele>
        <time>2023-09-03T06:51:09Z</time>
      </trkpt>
      <trkpt lat="49.36962" lon="0.12738">
        <ele>147.9</ele>
        <time>2023-09-03T06:51:10Z</time>
      </trkpt>
      <trkpt lat="49.36962" lon="0.12739">
        <ele>147.9</ele>
        <time>2023-09-03T06:51:11Z</time>
      </trkpt>
      <trkpt lat="49.36962" lon="0.12739">
        <ele>147.9</ele>
        <time>2023-09-03T06:51:12Z</time>
      </trkpt>
      <trkpt lat="49.36962" lon="0.1274">
        <ele>147.9</ele>
        <time>2023-09-03T06:51:13Z</time>
      </trkpt>
      <trkpt lat="49.36962" lon="0.1274">
        <ele>147.9</ele>
        <time>2023-09-03T06:51:14Z</time>
      </trkpt>
      <trkpt lat="49.36962" lon="0.1274">
        <ele>147.9</ele>
        <time>2023-09-03T06:51:15Z</time>
      </trkpt>
      <trkpt lat="49.36962" lon="0.12741">
        <ele>147.9</ele>
        <time>2023-09-03T06:51:18Z</time>
      </trkpt>
      <trkpt lat="49.36962" lon="0.12741">
        <ele>147.9</ele>
        <time>2023-09-03T06:51:19Z</time>
      </trkpt>
      <trkpt lat="49.36962" lon="0.12742">
        <ele>147.9</ele>
        <time>2023-09-03T06:51:20Z</time>
      </trkpt>
      <trkpt lat="49.36962" lon="0.12742">
        <ele>147.9</ele>
        <time>2023-09-03T06:51:21Z</time>
      </trkpt>
      <trkpt lat="49.36962" lon="0.12743">
        <ele>147.9</ele>
        <time>2023-09-03T06:51:22Z</time>
      </trkpt>
      <trkpt lat="49.36962" lon="0.12743">
        <ele>147.9</ele>
        <time>2023-09-03T06:51:23Z</time>
      </trkpt>
      <trkpt lat="49.36962" lon="0.12744">
        <ele>147.9</ele>
        <time>2023-09-03T06:51:24Z</time>
      </trkpt>
      <trkpt lat="49.36962" lon="0.12744">
        <ele>147.9</ele>
        <time>2023-09-03T06:51:25Z</time>
      </trkpt>
      <trkpt lat="49.36962" lon="0.12746">
        <ele>147.9</ele>
        <time>2023-09-03T06:51:26Z</time>
      </trkpt>
      <trkpt lat="49.36962" lon="0.12749">
        <ele>147.9</ele>
        <time>2023-09-03T06:51:27Z</time>
      </trkpt>
      <trkpt lat="49.36961" lon="0.12754">
        <ele>147.9</ele>
        <time>2023-09-03T06:51:28Z</time>
      </trkpt>
      <trkpt lat="49.36961" lon="0.12755">
        <ele>147.9</ele>
        <time>2023-09-03T06:51:29Z</time>
      </trkpt>
      <trkpt lat="49.3696" lon="0.1276">
        <ele>147.9</ele>
        <time>2023-09-03T06:51:30Z</time>
      </trkpt>
      <trkpt lat="49.3696" lon="0.12762">
        <ele>147.9</ele>
        <time>2023-09-03T06:51:31Z</time>
      </trkpt>
      <trkpt lat="49.36959" lon="0.12767">
        <ele>147.9</ele>
        <time>2023-09-03T06:51:32Z</time>
      </trkpt>
      <trkpt lat="49.36959" lon="0.12769">
        <ele>147.9</ele>
        <time>2023-09-03T06:51:33Z</time>
      </trkpt>
      <trkpt lat="49.36958" lon="0.12775">
        <ele>147.9</ele>
        <time>2023-09-03T06:51:34Z</time>
      </trkpt>
      <trkpt lat="49.36958" lon="0.12777">
        <ele>147.9</ele>
        <time>2023-09-03T06:51:35Z</time>
      </trkpt>
      <trkpt lat="49.36957" lon="0.12781">
        <ele>147.9</ele>
        <time>2023-09-03T06:51:36Z</time>
      </trkpt>
      <trkpt lat="49.36956" lon="0.12786">
        <ele>147.9</ele>
        <time>2023-09-03T06:51:37Z</time>
      </trkpt>
      <trkpt lat="49.36955" lon="0.1279">
        <ele>147.9</ele>
        <time>2023-09-03T06:51:38Z</time>
      </trkpt>
      <trkpt lat="49.36953" lon="0.12796">
        <ele>147.9</ele>
        <time>2023-09-03T06:51:39Z</time>
      </trkpt>
      <trkpt lat="49.36952" lon="0.12802">
        <ele>147.9</ele>
        <time>2023-09-03T06:51:40Z</time>
      </trkpt>
      <trkpt lat="49.3695" lon="0.12808">
        <ele>147.9</ele>
        <time>2023-09-03T06:51:41Z</time>
      </trkpt>
      <trkpt lat="49.36949" lon="0.12814">
        <ele>147.9</ele>
        <time>2023-09-03T06:51:42Z</time>
      </trkpt>
      <trkpt lat="49.36948" lon="0.12821">
        <ele>147.9</ele>
        <time>2023-09-03T06:51:43Z</time>
      </trkpt>
      <trkpt lat="49.36947" lon="0.12828">
        <ele>147.8</ele>
        <time>2023-09-03T06:51:44Z</time>
      </trkpt>
      <trkpt lat="49.36946" lon="0.12835">
        <ele>147.8</ele>
        <time>2023-09-03T06:51:45Z</time>
      </trkpt>
      <trkpt lat="49.36945" lon="0.12842">
        <ele>147.8</ele>
        <time>2023-09-03T06:51:46Z</time>
      </trkpt>
      <trkpt lat="49.36944" lon="0.12849">
        <ele>147.7</ele>
        <time>2023-09-03T06:51:47Z</time>
      </trkpt>
      <trkpt lat="49.36942" lon="0.12857">
        <ele>147.7</ele>
        <time>2023-09-03T06:51:48Z</time>
      </trkpt>
      <trkpt lat="49.36941" lon="0.12865">
        <ele>147.7</ele>
        <time>2023-09-03T06:51:49Z</time>
      </trkpt>
      <trkpt lat="49.36939" lon="0.12873">
        <ele>147.6</ele>
        <time>2023-09-03T06:51:50Z</time>
      </trkpt>
      <trkpt lat="49.36938" lon="0.12882">
        <ele>147.6</ele>
        <time>2023-09-03T06:51:51Z</time>
      </trkpt>
      <trkpt lat="49.36936" lon="0.1289">
        <ele>147.5</ele>
        <time>2023-09-03T06:51:52Z</time>
      </trkpt>
      <trkpt lat="49.36935" lon="0.12899">
        <ele>147.5</ele>
        <time>2023-09-03T06:51:53Z</time>
      </trkpt>
      <trkpt lat="49.36933" lon="0.12908">
        <ele>147.4</ele>
        <time>2023-09-03T06:51:54Z</time>
      </trkpt>
      <trkpt lat="49.36932" lon="0.12917">
        <ele>147.4</ele>
        <time>2023-09-03T06:51:55Z</time>
      </trkpt>
      <trkpt lat="49.3693" lon="0.12926">
        <ele>147.3</ele>
        <time>2023-09-03T06:51:56Z</time>
      </trkpt>
      <trkpt lat="49.36929" lon="0.12935">
        <ele>147.3</ele>
        <time>2023-09-03T06:51:57Z</time>
      </trkpt>
      <trkpt lat="49.36927" lon="0.12944">
        <ele>147.2</ele>
        <time>2023-09-03T06:51:58Z</time>
      </trkpt>
      <trkpt lat="49.36925" lon="0.12953">
        <ele>147.2</ele>
        <time>2023-09-03T06:51:59Z</time>
      </trkpt>
      <trkpt lat="49.36923" lon="0.12962">
        <ele>147.1</ele>
        <time>2023-09-03T06:52:00Z</time>
      </trkpt>
      <trkpt lat="49.36921" lon="0.12971">
        <ele>147.1</ele>
        <time>2023-09-03T06:52:01Z</time>
      </trkpt>
      <trkpt lat="49.36919" lon="0.1298">
        <ele>147</ele>
        <time>2023-09-03T06:52:02Z</time>
      </trkpt>
      <trkpt lat="49.36918" lon="0.1299">
        <ele>147</ele>
        <time>2023-09-03T06:52:03Z</time>
      </trkpt>
      <trkpt lat="49.36916" lon="0.13">
        <ele>147</ele>
        <time>2023-09-03T06:52:04Z</time>
      </trkpt>
      <trkpt lat="49.36914" lon="0.1301">
        <ele>146.9</ele>
        <time>2023-09-03T06:52:05Z</time>
      </trkpt>
      <trkpt lat="49.36912" lon="0.13021">
        <ele>146.9</ele>
        <time>2023-09-03T06:52:06Z</time>
      </trkpt>
      <trkpt lat="49.3691" lon="0.13031">
        <ele>146.8</ele>
        <time>2023-09-03T06:52:07Z</time>
      </trkpt>
      <trkpt lat="49.36908" lon="0.13042">
        <ele>146.8</ele>
        <time>2023-09-03T06:52:08Z</time>
      </trkpt>
      <trkpt lat="49.36906" lon="0.13053">
        <ele>146.7</ele>
        <time>2023-09-03T06:52:09Z</time>
      </trkpt>
      <trkpt lat="49.36904" lon="0.13064">
        <ele>146.6</ele>
        <time>2023-09-03T06:52:10Z</time>
      </trkpt>
      <trkpt lat="49.36902" lon="0.13075">
        <ele>146.6</ele>
        <time>2023-09-03T06:52:11Z</time>
      </trkpt>
      <trkpt lat="49.369" lon="0.13087">
        <ele>146.5</ele>
        <time>2023-09-03T06:52:12Z</time>
      </trkpt>
      <trkpt lat="49.36898" lon="0.13098">
        <ele>146.4</ele>
        <time>2023-09-03T06:52:13Z</time>
      </trkpt>
      <trkpt lat="49.36896" lon="0.1311">
        <ele>146.4</ele>
        <time>2023-09-03T06:52:14Z</time>
      </trkpt>
      <trkpt lat="49.36894" lon="0.13122">
        <ele>146.3</ele>
        <time>2023-09-03T06:52:15Z</time>
      </trkpt>
      <trkpt lat="49.36892" lon="0.13133">
        <ele>146.3</ele>
        <time>2023-09-03T06:52:16Z</time>
      </trkpt>
      <trkpt lat="49.3689" lon="0.13144">
        <ele>146.2</ele>
        <time>2023-09-03T06:52:17Z</time>
      </trkpt>
      <trkpt lat="49.36887" lon="0.13155">
        <ele>146.1</ele>
        <time>2023-09-03T06:52:18Z</time>
      </trkpt>
      <trkpt lat="49.36885" lon="0.13166">
        <ele>146.1</ele>
        <time>2023-09-03T06:52:19Z</time>
      </trkpt>
      <trkpt lat="49.36883" lon="0.13177">
        <ele>146</ele>
        <time>2023-09-03T06:52:20Z</time>
      </trkpt>
      <trkpt lat="49.36881" lon="0.1319">
        <ele>146</ele>
        <time>2023-09-03T06:52:21Z</time>
      </trkpt>
      <trkpt lat="49.36879" lon="0.13202">
        <ele>146</ele>
        <time>2023-09-03T06:52:22Z</time>
      </trkpt>
      <trkpt lat="49.36876" lon="0.13215">
        <ele>145.9</ele>
        <time>2023-09-03T06:52:23Z</time>
      </trkpt>
      <trkpt lat="49.36874" lon="0.13228">
        <ele>145.9</ele>
        <time>2023-09-03T06:52:24Z</time>
      </trkpt>
      <trkpt lat="49.36871" lon="0.13241">
        <ele>145.8</ele>
        <time>2023-09-03T06:52:25Z</time>
      </trkpt>
      <trkpt lat="49.36869" lon="0.13254">
        <ele>145.8</ele>
        <time>2023-09-03T06:52:26Z</time>
      </trkpt>
      <trkpt lat="49.36866" lon="0.13267">
        <ele>145.7</ele>
        <time>2023-09-03T06:52:27Z</time>
      </trkpt>
      <trkpt lat="49.36864" lon="0.1328">
        <ele>145.7</ele>
        <time>2023-09-03T06:52:28Z</time>
      </trkpt>
      <trkpt lat="49.36861" lon="0.13294">
        <ele>145.6</ele>
        <time>2023-09-03T06:52:29Z</time>
      </trkpt>
      <trkpt lat="49.36859" lon="0.13307">
        <ele>145.6</ele>
        <time>2023-09-03T06:52:30Z</time>
      </trkpt>
      <trkpt lat="49.36856" lon="0.13321">
        <ele>145.5</ele>
        <time>2023-09-03T06:52:31Z</time>
      </trkpt>
      <trkpt lat="49.36853" lon="0.13334">
        <ele>145.4</ele>
        <time>2023-09-03T06:52:32Z</time>
      </trkpt>
      <trkpt lat="49.36851" lon="0.13348">
        <ele>145.4</ele>
        <time>2023-09-03T06:52:33Z</time>
      </trkpt>
      <trkpt lat="49.36849" lon="0.13362">
        <ele>145.3</ele>
        <time>2023-09-03T06:52:34Z</time>
      </trkpt>
      <trkpt lat="49.36847" lon="0.13377">
        <ele>145.3</ele>
        <time>2023-09-03T06:52:35Z</time>
      </trkpt>
      <trkpt lat="49.36845" lon="0.13391">
        <ele>145.3</ele>
        <time>2023-09-03T06:52:36Z</time>
      </trkpt>
      <trkpt lat="49.36843" lon="0.13405">
        <ele>145.4</ele>
        <time>2023-09-03T06:52:37Z</time>
      </trkpt>
      <trkpt lat="49.36842" lon="0.13419">
        <ele>145.4</ele>
        <time>2023-09-03T06:52:38Z</time>
      </trkpt>
      <trkpt lat="49.3684" lon="0.13433">
        <ele>145.4</ele>
        <time>2023-09-03T06:52:39Z</time>
      </trkpt>
      <trkpt lat="49.36839" lon="0.13446">
        <ele>145.5</ele>
        <time>2023-09-03T06:52:40Z</time>
      </trkpt>
      <trkpt lat="49.36838" lon="0.13459">
        <ele>145.6</ele>
        <time>2023-09-03T06:52:41Z</time>
      </trkpt>
      <trkpt lat="49.36836" lon="0.13472">
        <ele>145.6</ele>
        <time>2023-09-03T06:52:42Z</time>
      </trkpt>
      <trkpt lat="49.36835" lon="0.13484">
        <ele>145.7</ele>
        <time>2023-09-03T06:52:43Z</time>
      </trkpt>
      <trkpt lat="49.36834" lon="0.13497">
        <ele>145.7</ele>
        <time>2023-09-03T06:52:44Z</time>
      </trkpt>
      <trkpt lat="49.36833" lon="0.13509">
        <ele>145.7</ele>
        <time>2023-09-03T06:52:45Z</time>
      </trkpt>
      <trkpt lat="49.36831" lon="0.13521">
        <ele>145.8</ele>
        <time>2023-09-03T06:52:46Z</time>
      </trkpt>
      <trkpt lat="49.3683" lon="0.13532">
        <ele>145.9</ele>
        <time>2023-09-03T06:52:47Z</time>
      </trkpt>
      <trkpt lat="49.36829" lon="0.13544">
        <ele>145.9</ele>
        <time>2023-09-03T06:52:48Z</time>
      </trkpt>
      <trkpt lat="49.36829" lon="0.13555">
        <ele>146</ele>
        <time>2023-09-03T06:52:49Z</time>
      </trkpt>
      <trkpt lat="49.36827" lon="0.13565">
        <ele>146.1</ele>
        <time>2023-09-03T06:52:50Z</time>
      </trkpt>
      <trkpt lat="49.36826" lon="0.13576">
        <ele>146.1</ele>
        <time>2023-09-03T06:52:51Z</time>
      </trkpt>
      <trkpt lat="49.36825" lon="0.13586">
        <ele>146.2</ele>
        <time>2023-09-03T06:52:52Z</time>
      </trkpt>
      <trkpt lat="49.36825" lon="0.13596">
        <ele>146.2</ele>
        <time>2023-09-03T06:52:53Z</time>
      </trkpt>
      <trkpt lat="49.36824" lon="0.13606">
        <ele>146.3</ele>
        <time>2023-09-03T06:52:54Z</time>
      </trkpt>
      <trkpt lat="49.36823" lon="0.13616">
        <ele>146.4</ele>
        <time>2023-09-03T06:52:55Z</time>
      </trkpt>
      <trkpt lat="49.36822" lon="0.13627">
        <ele>146.4</ele>
        <time>2023-09-03T06:52:56Z</time>
      </trkpt>
      <trkpt lat="49.36821" lon="0.13637">
        <ele>146.5</ele>
        <time>2023-09-03T06:52:57Z</time>
      </trkpt>
      <trkpt lat="49.3682" lon="0.13647">
        <ele>146.5</ele>
        <time>2023-09-03T06:52:58Z</time>
      </trkpt>
      <trkpt lat="49.36819" lon="0.13656">
        <ele>146.6</ele>
        <time>2023-09-03T06:52:59Z</time>
      </trkpt>
      <trkpt lat="49.36819" lon="0.13666">
        <ele>146.6</ele>
        <time>2023-09-03T06:53:00Z</time>
      </trkpt>
      <trkpt lat="49.36818" lon="0.13676">
        <ele>146.7</ele>
        <time>2023-09-03T06:53:01Z</time>
      </trkpt>
      <trkpt lat="49.36817" lon="0.13686">
        <ele>146.7</ele>
        <time>2023-09-03T06:53:02Z</time>
      </trkpt>
      <trkpt lat="49.36816" lon="0.13696">
        <ele>146.7</ele>
        <time>2023-09-03T06:53:03Z</time>
      </trkpt>
      <trkpt lat="49.36815" lon="0.13706">
        <ele>146.7</ele>
        <time>2023-09-03T06:53:04Z</time>
      </trkpt>
      <trkpt lat="49.36814" lon="0.13715">
        <ele>146.8</ele>
        <time>2023-09-03T06:53:05Z</time>
      </trkpt>
      <trkpt lat="49.36813" lon="0.13725">
        <ele>146.8</ele>
        <time>2023-09-03T06:53:06Z</time>
      </trkpt>
      <trkpt lat="49.36813" lon="0.13735">
        <ele>146.9</ele>
        <time>2023-09-03T06:53:07Z</time>
      </trkpt>
      <trkpt lat="49.36812" lon="0.13744">
        <ele>146.9</ele>
        <time>2023-09-03T06:53:08Z</time>
      </trkpt>
      <trkpt lat="49.36811" lon="0.13754">
        <ele>146.9</ele>
        <time>2023-09-03T06:53:09Z</time>
      </trkpt>
      <trkpt lat="49.3681" lon="0.13763">
        <ele>147</ele>
        <time>2023-09-03T06:53:10Z</time>
      </trkpt>
      <trkpt lat="49.36809" lon="0.13773">
        <ele>147</ele>
        <time>2023-09-03T06:53:11Z</time>
      </trkpt>
      <trkpt lat="49.36808" lon="0.13783">
        <ele>147.1</ele>
        <time>2023-09-03T06:53:12Z</time>
      </trkpt>
      <trkpt lat="49.36807" lon="0.13792">
        <ele>147.1</ele>
        <time>2023-09-03T06:53:13Z</time>
      </trkpt>
      <trkpt lat="49.36806" lon="0.13802">
        <ele>147.1</ele>
        <time>2023-09-03T06:53:14Z</time>
      </trkpt>
      <trkpt lat="49.36805" lon="0.13812">
        <ele>147.2</ele>
        <time>2023-09-03T06:53:15Z</time>
      </trkpt>
      <trkpt lat="49.36804" lon="0.13822">
        <ele>147.2</ele>
        <time>2023-09-03T06:53:16Z</time>
      </trkpt>
      <trkpt lat="49.36804" lon="0.13832">
        <ele>147.3</ele>
        <time>2023-09-03T06:53:17Z</time>
      </trkpt>
      <trkpt lat="49.36803" lon="0.13842">
        <ele>147.3</ele>
        <time>2023-09-03T06:53:18Z</time>
      </trkpt>
      <trkpt lat="49.36802" lon="0.13851">
        <ele>147.4</ele>
        <time>2023-09-03T06:53:19Z</time>
      </trkpt>
      <trkpt lat="49.36801" lon="0.13861">
        <ele>147.4</ele>
        <time>2023-09-03T06:53:20Z</time>
      </trkpt>
      <trkpt lat="49.36799" lon="0.13871">
        <ele>147.4</ele>
        <time>2023-09-03T06:53:21Z</time>
      </trkpt>
      <trkpt lat="49.36798" lon="0.13881">
        <ele>147.5</ele>
        <time>2023-09-03T06:53:22Z</time>
      </trkpt>
      <trkpt lat="49.36797" lon="0.1389">
        <ele>147.5</ele>
        <time>2023-09-03T06:53:23Z</time>
      </trkpt>
      <trkpt lat="49.36796" lon="0.139">
        <ele>147.5</ele>
        <time>2023-09-03T06:53:24Z</time>
      </trkpt>
      <trkpt lat="49.36795" lon="0.1391">
        <ele>147.5</ele>
        <time>2023-09-03T06:53:25Z</time>
      </trkpt>
      <trkpt lat="49.36793" lon="0.13921">
        <ele>147.6</ele>
        <time>2023-09-03T06:53:26Z</time>
      </trkpt>
      <trkpt lat="49.36792" lon="0.13931">
        <ele>147.6</ele>
        <time>2023-09-03T06:53:27Z</time>
      </trkpt>
      <trkpt lat="49.3679" lon="0.13941">
        <ele>147.6</ele>
        <time>2023-09-03T06:53:28Z</time>
      </trkpt>
      <trkpt lat="49.36788" lon="0.1395">
        <ele>147.6</ele>
        <time>2023-09-03T06:53:29Z</time>
      </trkpt>
      <trkpt lat="49.36786" lon="0.1396">
        <ele>147.6</ele>
        <time>2023-09-03T06:53:30Z</time>
      </trkpt>
      <trkpt lat="49.36785" lon="0.1397">
        <ele>147.6</ele>
        <time>2023-09-03T06:53:31Z</time>
      </trkpt>
      <trkpt lat="49.36783" lon="0.1398">
        <ele>147.6</ele>
        <time>2023-09-03T06:53:32Z</time>
      </trkpt>
      <trkpt lat="49.36781" lon="0.1399">
        <ele>147.6</ele>
        <time>2023-09-03T06:53:33Z</time>
      </trkpt>
      <trkpt lat="49.36778" lon="0.13999">
        <ele>147.6</ele>
        <time>2023-09-03T06:53:34Z</time>
      </trkpt>
      <trkpt lat="49.36776" lon="0.14009">
        <ele>147.5</ele>
        <time>2023-09-03T06:53:35Z</time>
      </trkpt>
      <trkpt lat="49.36773" lon="0.14019">
        <ele>147.5</ele>
        <time>2023-09-03T06:53:36Z</time>
      </trkpt>
      <trkpt lat="49.3677" lon="0.14029">
        <ele>147.5</ele>
        <time>2023-09-03T06:53:37Z</time>
      </trkpt>
      <trkpt lat="49.36767" lon="0.1404">
        <ele>147.4</ele>
        <time>2023-09-03T06:53:38Z</time>
      </trkpt>
      <trkpt lat="49.36764" lon="0.14049">
        <ele>147.4</ele>
        <time>2023-09-03T06:53:39Z</time>
      </trkpt>
      <trkpt lat="49.36761" lon="0.14059">
        <ele>147.4</ele>
        <time>2023-09-03T06:53:40Z</time>
      </trkpt>
      <trkpt lat="49.36758" lon="0.1407">
        <ele>147.3</ele>
        <time>2023-09-03T06:53:41Z</time>
      </trkpt>
      <trkpt lat="49.36754" lon="0.1408">
        <ele>147.3</ele>
        <time>2023-09-03T06:53:42Z</time>
      </trkpt>
      <trkpt lat="49.36751" lon="0.1409">
        <ele>147.2</ele>
        <time>2023-09-03T06:53:43Z</time>
      </trkpt>
      <trkpt lat="49.36747" lon="0.141">
        <ele>147.2</ele>
        <time>2023-09-03T06:53:44Z</time>
      </trkpt>
      <trkpt lat="49.36744" lon="0.1411">
        <ele>147.2</ele>
        <time>2023-09-03T06:53:45Z</time>
      </trkpt>
      <trkpt lat="49.3674" lon="0.1412">
        <ele>147.1</ele>
        <time>2023-09-03T06:53:46Z</time>
      </trkpt>
      <trkpt lat="49.36737" lon="0.1413">
        <ele>147.1</ele>
        <time>2023-09-03T06:53:47Z</time>
      </trkpt>
      <trkpt lat="49.36734" lon="0.14141">
        <ele>147</ele>
        <time>2023-09-03T06:53:48Z</time>
      </trkpt>
      <trkpt lat="49.36731" lon="0.14151">
        <ele>147</ele>
        <time>2023-09-03T06:53:49Z</time>
      </trkpt>
      <trkpt lat="49.36727" lon="0.14162">
        <ele>147</ele>
        <time>2023-09-03T06:53:50Z</time>
      </trkpt>
      <trkpt lat="49.36724" lon="0.14172">
        <ele>146.9</ele>
        <time>2023-09-03T06:53:51Z</time>
      </trkpt>
      <trkpt lat="49.3672" lon="0.14183">
        <ele>146.9</ele>
        <time>2023-09-03T06:53:52Z</time>
      </trkpt>
      <trkpt lat="49.36718" lon="0.14193">
        <ele>146.9</ele>
        <time>2023-09-03T06:53:53Z</time>
      </trkpt>
      <trkpt lat="49.36715" lon="0.14203">
        <ele>146.9</ele>
        <time>2023-09-03T06:53:54Z</time>
      </trkpt>
      <trkpt lat="49.36712" lon="0.14213">
        <ele>146.9</ele>
        <time>2023-09-03T06:53:55Z</time>
      </trkpt>
      <trkpt lat="49.36709" lon="0.14223">
        <ele>147</ele>
        <time>2023-09-03T06:53:56Z</time>
      </trkpt>
      <trkpt lat="49.36707" lon="0.14233">
        <ele>147</ele>
        <time>2023-09-03T06:53:57Z</time>
      </trkpt>
      <trkpt lat="49.36704" lon="0.14243">
        <ele>147</ele>
        <time>2023-09-03T06:53:58Z</time>
      </trkpt>
      <trkpt lat="49.36702" lon="0.14253">
        <ele>147</ele>
        <time>2023-09-03T06:53:59Z</time>
      </trkpt>
      <trkpt lat="49.367" lon="0.14263">
        <ele>146.9</ele>
        <time>2023-09-03T06:54:00Z</time>
      </trkpt>
      <trkpt lat="49.36697" lon="0.14274">
        <ele>146.9</ele>
        <time>2023-09-03T06:54:01Z</time>
      </trkpt>
      <trkpt lat="49.36695" lon="0.14284">
        <ele>146.9</ele>
        <time>2023-09-03T06:54:02Z</time>
      </trkpt>
      <trkpt lat="49.36692" lon="0.14296">
        <ele>146.8</ele>
        <time>2023-09-03T06:54:03Z</time>
      </trkpt>
      <trkpt lat="49.3669" lon="0.14307">
        <ele>146.7</ele>
        <time>2023-09-03T06:54:04Z</time>
      </trkpt>
      <trkpt lat="49.36687" lon="0.14317">
        <ele>146.7</ele>
        <time>2023-09-03T06:54:05Z</time>
      </trkpt>
      <trkpt lat="49.36685" lon="0.14328">
        <ele>146.7</ele>
        <time>2023-09-03T06:54:06Z</time>
      </trkpt>
      <trkpt lat="49.36683" lon="0.14338">
        <ele>146.7</ele>
        <time>2023-09-03T06:54:07Z</time>
      </trkpt>
      <trkpt lat="49.36681" lon="0.14348">
        <ele>146.7</ele>
        <time>2023-09-03T06:54:08Z</time>
      </trkpt>
      <trkpt lat="49.36678" lon="0.14358">
        <ele>146.7</ele>
        <time>2023-09-03T06:54:09Z</time>
      </trkpt>
      <trkpt lat="49.36676" lon="0.14368">
        <ele>146.7</ele>
        <time>2023-09-03T06:54:10Z</time>
      </trkpt>
      <trkpt lat="49.36674" lon="0.14379">
        <ele>146.7</ele>
        <time>2023-09-03T06:54:11Z</time>
      </trkpt>
      <trkpt lat="49.36671" lon="0.1439">
        <ele>146.7</ele>
        <time>2023-09-03T06:54:12Z</time>
      </trkpt>
      <trkpt lat="49.36669" lon="0.144">
        <ele>146.7</ele>
        <time>2023-09-03T06:54:13Z</time>
      </trkpt>
      <trkpt lat="49.36667" lon="0.1441">
        <ele>146.7</ele>
        <time>2023-09-03T06:54:14Z</time>
      </trkpt>
      <trkpt lat="49.36664" lon="0.1442">
        <ele>146.7</ele>
        <time>2023-09-03T06:54:15Z</time>
      </trkpt>
      <trkpt lat="49.36662" lon="0.1443">
        <ele>146.7</ele>
        <time>2023-09-03T06:54:16Z</time>
      </trkpt>
      <trkpt lat="49.36659" lon="0.14441">
        <ele>146.7</ele>
        <time>2023-09-03T06:54:17Z</time>
      </trkpt>
      <trkpt lat="49.36657" lon="0.14452">
        <ele>146.7</ele>
        <time>2023-09-03T06:54:18Z</time>
      </trkpt>
      <trkpt lat="49.36655" lon="0.14462">
        <ele>146.7</ele>
        <time>2023-09-03T06:54:19Z</time>
      </trkpt>
      <trkpt lat="49.36652" lon="0.14472">
        <ele>146.7</ele>
        <time>2023-09-03T06:54:20Z</time>
      </trkpt>
      <trkpt lat="49.3665" lon="0.14483">
        <ele>146.7</ele>
        <time>2023-09-03T06:54:21Z</time>
      </trkpt>
      <trkpt lat="49.36648" lon="0.14493">
        <ele>146.7</ele>
        <time>2023-09-03T06:54:22Z</time>
      </trkpt>
      <trkpt lat="49.36645" lon="0.14502">
        <ele>146.7</ele>
        <time>2023-09-03T06:54:23Z</time>
      </trkpt>
      <trkpt lat="49.36643" lon="0.14512">
        <ele>146.8</ele>
        <time>2023-09-03T06:54:24Z</time>
      </trkpt>
      <trkpt lat="49.36641" lon="0.14522">
        <ele>146.8</ele>
        <time>2023-09-03T06:54:25Z</time>
      </trkpt>
      <trkpt lat="49.36638" lon="0.14531">
        <ele>146.8</ele>
        <time>2023-09-03T06:54:26Z</time>
      </trkpt>
      <trkpt lat="49.36636" lon="0.14542">
        <ele>146.8</ele>
        <time>2023-09-03T06:54:27Z</time>
      </trkpt>
      <trkpt lat="49.36634" lon="0.14552">
        <ele>146.9</ele>
        <time>2023-09-03T06:54:28Z</time>
      </trkpt>
      <trkpt lat="49.36632" lon="0.14563">
        <ele>146.9</ele>
        <time>2023-09-03T06:54:29Z</time>
      </trkpt>
      <trkpt lat="49.36629" lon="0.14573">
        <ele>146.9</ele>
        <time>2023-09-03T06:54:30Z</time>
      </trkpt>
      <trkpt lat="49.36627" lon="0.14584">
        <ele>146.9</ele>
        <time>2023-09-03T06:54:31Z</time>
      </trkpt>
      <trkpt lat="49.36625" lon="0.14593">
        <ele>147</ele>
        <time>2023-09-03T06:54:32Z</time>
      </trkpt>
      <trkpt lat="49.36623" lon="0.14603">
        <ele>147</ele>
        <time>2023-09-03T06:54:33Z</time>
      </trkpt>
      <trkpt lat="49.3662" lon="0.14613">
        <ele>147.1</ele>
        <time>2023-09-03T06:54:34Z</time>
      </trkpt>
      <trkpt lat="49.36618" lon="0.14622">
        <ele>147.1</ele>
        <time>2023-09-03T06:54:35Z</time>
      </trkpt>
      <trkpt lat="49.36616" lon="0.14632">
        <ele>147.1</ele>
        <time>2023-09-03T06:54:36Z</time>
      </trkpt>
      <trkpt lat="49.36613" lon="0.14642">
        <ele>147.2</ele>
        <time>2023-09-03T06:54:37Z</time>
      </trkpt>
      <trkpt lat="49.36611" lon="0.14652">
        <ele>147.2</ele>
        <time>2023-09-03T06:54:38Z</time>
      </trkpt>
      <trkpt lat="49.36608" lon="0.14663">
        <ele>147.2</ele>
        <time>2023-09-03T06:54:39Z</time>
      </trkpt>
      <trkpt lat="49.36605" lon="0.14674">
        <ele>147.2</ele>
        <time>2023-09-03T06:54:40Z</time>
      </trkpt>
      <trkpt lat="49.36603" lon="0.14684">
        <ele>147.3</ele>
        <time>2023-09-03T06:54:41Z</time>
      </trkpt>
      <trkpt lat="49.366" lon="0.14694">
        <ele>147.3</ele>
        <time>2023-09-03T06:54:42Z</time>
      </trkpt>
      <trkpt lat="49.36598" lon="0.14705">
        <ele>147.3</ele>
        <time>2023-09-03T06:54:43Z</time>
      </trkpt>
      <trkpt lat="49.36595" lon="0.14715">
        <ele>147.4</ele>
        <time>2023-09-03T06:54:44Z</time>
      </trkpt>
      <trkpt lat="49.36593" lon="0.14725">
        <ele>147.4</ele>
        <time>2023-09-03T06:54:45Z</time>
      </trkpt>
      <trkpt lat="49.36591" lon="0.14735">
        <ele>147.4</ele>
        <time>2023-09-03T06:54:46Z</time>
      </trkpt>
      <trkpt lat="49.36589" lon="0.14745">
        <ele>147.5</ele>
        <time>2023-09-03T06:54:47Z</time>
      </trkpt>
      <trkpt lat="49.36586" lon="0.14755">
        <ele>147.5</ele>
        <time>2023-09-03T06:54:48Z</time>
      </trkpt>
      <trkpt lat="49.36584" lon="0.14765">
        <ele>147.6</ele>
        <time>2023-09-03T06:54:49Z</time>
      </trkpt>
      <trkpt lat="49.36582" lon="0.14775">
        <ele>147.6</ele>
        <time>2023-09-03T06:54:50Z</time>
      </trkpt>
      <trkpt lat="49.36579" lon="0.14785">
        <ele>147.7</ele>
        <time>2023-09-03T06:54:51Z</time>
      </trkpt>
      <trkpt lat="49.36577" lon="0.14796">
        <ele>147.7</ele>
        <time>2023-09-03T06:54:52Z</time>
      </trkpt>
      <trkpt lat="49.36575" lon="0.14806">
        <ele>147.7</ele>
        <time>2023-09-03T06:54:53Z</time>
      </trkpt>
      <trkpt lat="49.36572" lon="0.14816">
        <ele>147.7</ele>
        <time>2023-09-03T06:54:54Z</time>
      </trkpt>
      <trkpt lat="49.3657" lon="0.14827">
        <ele>147.6</ele>
        <time>2023-09-03T06:54:55Z</time>
      </trkpt>
      <trkpt lat="49.36568" lon="0.14837">
        <ele>147.6</ele>
        <time>2023-09-03T06:54:56Z</time>
      </trkpt>
      <trkpt lat="49.36565" lon="0.14848">
        <ele>147.6</ele>
        <time>2023-09-03T06:54:57Z</time>
      </trkpt>
      <trkpt lat="49.36562" lon="0.14858">
        <ele>147.6</ele>
        <time>2023-09-03T06:54:58Z</time>
      </trkpt>
      <trkpt lat="49.36559" lon="0.14868">
        <ele>147.6</ele>
        <time>2023-09-03T06:54:59Z</time>
      </trkpt>
      <trkpt lat="49.36556" lon="0.14879">
        <ele>147.6</ele>
        <time>2023-09-03T06:55:00Z</time>
      </trkpt>
      <trkpt lat="49.36552" lon="0.14889">
        <ele>147.5</ele>
        <time>2023-09-03T06:55:01Z</time>
      </trkpt>
      <trkpt lat="49.36549" lon="0.14899">
        <ele>147.5</ele>
        <time>2023-09-03T06:55:02Z</time>
      </trkpt>
      <trkpt lat="49.36545" lon="0.1491">
        <ele>147.4</ele>
        <time>2023-09-03T06:55:03Z</time>
      </trkpt>
      <trkpt lat="49.36542" lon="0.1492">
        <ele>147.4</ele>
        <time>2023-09-03T06:55:04Z</time>
      </trkpt>
      <trkpt lat="49.36538" lon="0.1493">
        <ele>147.3</ele>
        <time>2023-09-03T06:55:05Z</time>
      </trkpt>
      <trkpt lat="49.36535" lon="0.14941">
        <ele>147.3</ele>
        <time>2023-09-03T06:55:06Z</time>
      </trkpt>
      <trkpt lat="49.36532" lon="0.14951">
        <ele>147.2</ele>
        <time>2023-09-03T06:55:07Z</time>
      </trkpt>
      <trkpt lat="49.36528" lon="0.14961">
        <ele>147.1</ele>
        <time>2023-09-03T06:55:08Z</time>
      </trkpt>
      <trkpt lat="49.36525" lon="0.14971">
        <ele>147</ele>
        <time>2023-09-03T06:55:09Z</time>
      </trkpt>
      <trkpt lat="49.36521" lon="0.14981">
        <ele>146.9</ele>
        <time>2023-09-03T06:55:10Z</time>
      </trkpt>
      <trkpt lat="49.36517" lon="0.14991">
        <ele>146.8</ele>
        <time>2023-09-03T06:55:11Z</time>
      </trkpt>
      <trkpt lat="49.36514" lon="0.15001">
        <ele>146.7</ele>
        <time>2023-09-03T06:55:12Z</time>
      </trkpt>
      <trkpt lat="49.3651" lon="0.15012">
        <ele>146.6</ele>
        <time>2023-09-03T06:55:13Z</time>
      </trkpt>
      <trkpt lat="49.36507" lon="0.15022">
        <ele>146.6</ele>
        <time>2023-09-03T06:55:14Z</time>
      </trkpt>
      <trkpt lat="49.36503" lon="0.15032">
        <ele>146.5</ele>
        <time>2023-09-03T06:55:15Z</time>
      </trkpt>
      <trkpt lat="49.365" lon="0.15042">
        <ele>146.5</ele>
        <time>2023-09-03T06:55:16Z</time>
      </trkpt>
      <trkpt lat="49.36497" lon="0.15052">
        <ele>146.4</ele>
        <time>2023-09-03T06:55:17Z</time>
      </trkpt>
      <trkpt lat="49.36493" lon="0.15062">
        <ele>146.4</ele>
        <time>2023-09-03T06:55:18Z</time>
      </trkpt>
      <trkpt lat="49.3649" lon="0.15072">
        <ele>146.3</ele>
        <time>2023-09-03T06:55:19Z</time>
      </trkpt>
      <trkpt lat="49.36486" lon="0.15082">
        <ele>146.3</ele>
        <time>2023-09-03T06:55:20Z</time>
      </trkpt>
      <trkpt lat="49.36483" lon="0.15092">
        <ele>146.3</ele>
        <time>2023-09-03T06:55:21Z</time>
      </trkpt>
      <trkpt lat="49.3648" lon="0.15101">
        <ele>146.4</ele>
        <time>2023-09-03T06:55:22Z</time>
      </trkpt>
      <trkpt lat="49.36477" lon="0.1511">
        <ele>146.4</ele>
        <time>2023-09-03T06:55:23Z</time>
      </trkpt>
      <trkpt lat="49.36473" lon="0.1512">
        <ele>146.4</ele>
        <time>2023-09-03T06:55:24Z</time>
      </trkpt>
      <trkpt lat="49.3647" lon="0.1513">
        <ele>146.3</ele>
        <time>2023-09-03T06:55:25Z</time>
      </trkpt>
      <trkpt lat="49.36466" lon="0.1514">
        <ele>146.3</ele>
        <time>2023-09-03T06:55:26Z</time>
      </trkpt>
      <trkpt lat="49.36463" lon="0.15149">
        <ele>146.3</ele>
        <time>2023-09-03T06:55:27Z</time>
      </trkpt>
      <trkpt lat="49.36459" lon="0.15159">
        <ele>146.3</ele>
        <time>2023-09-03T06:55:28Z</time>
      </trkpt>
      <trkpt lat="49.36456" lon="0.15168">
        <ele>146.2</ele>
        <time>2023-09-03T06:55:29Z</time>
      </trkpt>
      <trkpt lat="49.36452" lon="0.15178">
        <ele>146.2</ele>
        <time>2023-09-03T06:55:30Z</time>
      </trkpt>
      <trkpt lat="49.36449" lon="0.15188">
        <ele>146.2</ele>
        <time>2023-09-03T06:55:31Z</time>
      </trkpt>
      <trkpt lat="49.36445" lon="0.15198">
        <ele>146.2</ele>
        <time>2023-09-03T06:55:32Z</time>
      </trkpt>
      <trkpt lat="49.36441" lon="0.15209">
        <ele>146.2</ele>
        <time>2023-09-03T06:55:33Z</time>
      </trkpt>
      <trkpt lat="49.36438" lon="0.15219">
        <ele>146.2</ele>
        <time>2023-09-03T06:55:34Z</time>
      </trkpt>
      <trkpt lat="49.36434" lon="0.15229">
        <ele>146.1</ele>
        <time>2023-09-03T06:55:35Z</time>
      </trkpt>
      <trkpt lat="49.3643" lon="0.1524">
        <ele>146.1</ele>
        <time>2023-09-03T06:55:36Z</time>
      </trkpt>
      <trkpt lat="49.36427" lon="0.1525">
        <ele>146</ele>
        <time>2023-09-03T06:55:37Z</time>
      </trkpt>
      <trkpt lat="49.36423" lon="0.1526">
        <ele>146</ele>
        <time>2023-09-03T06:55:38Z</time>
      </trkpt>
      <trkpt lat="49.3642" lon="0.15271">
        <ele>146</ele>
        <time>2023-09-03T06:55:39Z</time>
      </trkpt>
      <trkpt lat="49.36416" lon="0.15281">
        <ele>145.9</ele>
        <time>2023-09-03T06:55:40Z</time>
      </trkpt>
      <trkpt lat="49.36413" lon="0.15291">
        <ele>145.9</ele>
        <time>2023-09-03T06:55:41Z</time>
      </trkpt>
      <trkpt lat="49.36409" lon="0.153">
        <ele>145.9</ele>
        <time>2023-09-03T06:55:42Z</time>
      </trkpt>
      <trkpt lat="49.36406" lon="0.1531">
        <ele>145.9</ele>
        <time>2023-09-03T06:55:43Z</time>
      </trkpt>
      <trkpt lat="49.36402" lon="0.1532">
        <ele>145.9</ele>
        <time>2023-09-03T06:55:44Z</time>
      </trkpt>
      <trkpt lat="49.36399" lon="0.1533">
        <ele>145.9</ele>
        <time>2023-09-03T06:55:45Z</time>
      </trkpt>
      <trkpt lat="49.36394" lon="0.15339">
        <ele>145.8</ele>
        <time>2023-09-03T06:55:46Z</time>
      </trkpt>
      <trkpt lat="49.3639" lon="0.15349">
        <ele>145.8</ele>
        <time>2023-09-03T06:55:47Z</time>
      </trkpt>
      <trkpt lat="49.36386" lon="0.15358">
        <ele>145.8</ele>
        <time>2023-09-03T06:55:48Z</time>
      </trkpt>
      <trkpt lat="49.36381" lon="0.15368">
        <ele>145.8</ele>
        <time>2023-09-03T06:55:49Z</time>
      </trkpt>
      <trkpt lat="49.36377" lon="0.15377">
        <ele>145.7</ele>
        <time>2023-09-03T06:55:50Z</time>
      </trkpt>
      <trkpt lat="49.36372" lon="0.15387">
        <ele>145.7</ele>
        <time>2023-09-03T06:55:51Z</time>
      </trkpt>
      <trkpt lat="49.36367" lon="0.15396">
        <ele>145.6</ele>
        <time>2023-09-03T06:55:52Z</time>
      </trkpt>
      <trkpt lat="49.36362" lon="0.15406">
        <ele>145.5</ele>
        <time>2023-09-03T06:55:53Z</time>
      </trkpt>
      <trkpt lat="49.36357" lon="0.15415">
        <ele>145.5</ele>
        <time>2023-09-03T06:55:54Z</time>
      </trkpt>
      <trkpt lat="49.36353" lon="0.15423">
        <ele>145.4</ele>
        <time>2023-09-03T06:55:55Z</time>
      </trkpt>
      <trkpt lat="49.36348" lon="0.15432">
        <ele>145.4</ele>
        <time>2023-09-03T06:55:56Z</time>
      </trkpt>
      <trkpt lat="49.36344" lon="0.15441">
        <ele>145.3</ele>
        <time>2023-09-03T06:55:57Z</time>
      </trkpt>
      <trkpt lat="49.36339" lon="0.1545">
        <ele>145.2</ele>
        <time>2023-09-03T06:55:58Z</time>
      </trkpt>
      <trkpt lat="49.36333" lon="0.15459">
        <ele>145.1</ele>
        <time>2023-09-03T06:55:59Z</time>
      </trkpt>
      <trkpt lat="49.36328" lon="0.15467">
        <ele>145</ele>
        <time>2023-09-03T06:56:00Z</time>
      </trkpt>
      <trkpt lat="49.36322" lon="0.15476">
        <ele>145</ele>
        <time>2023-09-03T06:56:01Z</time>
      </trkpt>
      <trkpt lat="49.36317" lon="0.15484">
        <ele>145</ele>
        <time>2023-09-03T06:56:02Z</time>
      </trkpt>
      <trkpt lat="49.36311" lon="0.15491">
        <ele>145</ele>
        <time>2023-09-03T06:56:03Z</time>
      </trkpt>
      <trkpt lat="49.36306" lon="0.15499">
        <ele>145</ele>
        <time>2023-09-03T06:56:04Z</time>
      </trkpt>
      <trkpt lat="49.363" lon="0.15506">
        <ele>145</ele>
        <time>2023-09-03T06:56:05Z</time>
      </trkpt>
      <trkpt lat="49.36294" lon="0.15513">
        <ele>145</ele>
        <time>2023-09-03T06:56:06Z</time>
      </trkpt>
      <trkpt lat="49.36288" lon="0.15519">
        <ele>145</ele>
        <time>2023-09-03T06:56:07Z</time>
      </trkpt>
      <trkpt lat="49.36281" lon="0.15526">
        <ele>145</ele>
        <time>2023-09-03T06:56:08Z</time>
      </trkpt>
      <trkpt lat="49.36275" lon="0.15532">
        <ele>145</ele>
        <time>2023-09-03T06:56:09Z</time>
      </trkpt>
      <trkpt lat="49.36269" lon="0.15539">
        <ele>145</ele>
        <time>2023-09-03T06:56:10Z</time>
      </trkpt>
      <trkpt lat="49.36264" lon="0.15545">
        <ele>145</ele>
        <time>2023-09-03T06:56:11Z</time>
      </trkpt>
      <trkpt lat="49.36258" lon="0.15551">
        <ele>145</ele>
        <time>2023-09-03T06:56:12Z</time>
      </trkpt>
      <trkpt lat="49.36252" lon="0.15558">
        <ele>145</ele>
        <time>2023-09-03T06:56:13Z</time>
      </trkpt>
      <trkpt lat="49.36246" lon="0.15564">
        <ele>144.9</ele>
        <time>2023-09-03T06:56:14Z</time>
      </trkpt>
      <trkpt lat="49.3624" lon="0.1557">
        <ele>144.9</ele>
        <time>2023-09-03T06:56:15Z</time>
      </trkpt>
      <trkpt lat="49.36234" lon="0.15577">
        <ele>144.9</ele>
        <time>2023-09-03T06:56:16Z</time>
      </trkpt>
      <trkpt lat="49.36229" lon="0.15583">
        <ele>144.9</ele>
        <time>2023-09-03T06:56:17Z</time>
      </trkpt>
      <trkpt lat="49.36223" lon="0.1559">
        <ele>144.9</ele>
        <time>2023-09-03T06:56:18Z</time>
      </trkpt>
      <trkpt lat="49.36217" lon="0.15596">
        <ele>145</ele>
        <time>2023-09-03T06:56:19Z</time>
      </trkpt>
      <trkpt lat="49.36211" lon="0.15603">
        <ele>145</ele>
        <time>2023-09-03T06:56:20Z</time>
      </trkpt>
      <trkpt lat="49.36205" lon="0.15609">
        <ele>145</ele>
        <time>2023-09-03T06:56:21Z</time>
      </trkpt>
      <trkpt lat="49.36199" lon="0.15616">
        <ele>145</ele>
        <time>2023-09-03T06:56:22Z</time>
      </trkpt>
      <trkpt lat="49.36193" lon="0.15622">
        <ele>145.1</ele>
        <time>2023-09-03T06:56:23Z</time>
      </trkpt>
      <trkpt lat="49.36187" lon="0.15628">
        <ele>145.1</ele>
        <time>2023-09-03T06:56:24Z</time>
      </trkpt>
      <trkpt lat="49.36181" lon="0.15635">
        <ele>145.1</ele>
        <time>2023-09-03T06:56:25Z</time>
      </trkpt>
      <trkpt lat="49.36175" lon="0.15641">
        <ele>145.1</ele>
        <time>2023-09-03T06:56:26Z</time>
      </trkpt>
      <trkpt lat="49.36169" lon="0.15647">
        <ele>145.2</ele>
        <time>2023-09-03T06:56:27Z</time>
      </trkpt>
      <trkpt lat="49.36163" lon="0.15653">
        <ele>145.2</ele>
        <time>2023-09-03T06:56:28Z</time>
      </trkpt>
      <trkpt lat="49.36157" lon="0.15659">
        <ele>145.2</ele>
        <time>2023-09-03T06:56:29Z</time>
      </trkpt>
      <trkpt lat="49.36151" lon="0.15665">
        <ele>145.3</ele>
        <time>2023-09-03T06:56:30Z</time>
      </trkpt>
      <trkpt lat="49.36145" lon="0.15671">
        <ele>145.4</ele>
        <time>2023-09-03T06:56:31Z</time>
      </trkpt>
      <trkpt lat="49.36138" lon="0.15676">
        <ele>145.4</ele>
        <time>2023-09-03T06:56:32Z</time>
      </trkpt>
      <trkpt lat="49.36132" lon="0.15681">
        <ele>145.5</ele>
        <time>2023-09-03T06:56:33Z</time>
      </trkpt>
      <trkpt lat="49.36126" lon="0.15687">
        <ele>145.6</ele>
        <time>2023-09-03T06:56:34Z</time>
      </trkpt>
      <trkpt lat="49.3612" lon="0.15693">
        <ele>145.6</ele>
        <time>2023-09-03T06:56:35Z</time>
      </trkpt>
      <trkpt lat="49.36114" lon="0.15699">
        <ele>145.7</ele>
        <time>2023-09-03T06:56:36Z</time>
      </trkpt>
      <trkpt lat="49.36108" lon="0.15705">
        <ele>145.8</ele>
        <time>2023-09-03T06:56:37Z</time>
      </trkpt>
      <trkpt lat="49.36102" lon="0.1571">
        <ele>145.9</ele>
        <time>2023-09-03T06:56:38Z</time>
      </trkpt>
      <trkpt lat="49.36096" lon="0.15716">
        <ele>146</ele>
        <time>2023-09-03T06:56:39Z</time>
      </trkpt>
      <trkpt lat="49.3609" lon="0.15721">
        <ele>146</ele>
        <time>2023-09-03T06:56:40Z</time>
      </trkpt>
      <trkpt lat="49.36084" lon="0.15726">
        <ele>146.1</ele>
        <time>2023-09-03T06:56:41Z</time>
      </trkpt>
      <trkpt lat="49.36078" lon="0.15732">
        <ele>146.1</ele>
        <time>2023-09-03T06:56:42Z</time>
      </trkpt>
      <trkpt lat="49.36072" lon="0.15738">
        <ele>146.2</ele>
        <time>2023-09-03T06:56:43Z</time>
      </trkpt>
      <trkpt lat="49.36065" lon="0.15744">
        <ele>146.2</ele>
        <time>2023-09-03T06:56:44Z</time>
      </trkpt>
      <trkpt lat="49.36059" lon="0.1575">
        <ele>146.3</ele>
        <time>2023-09-03T06:56:45Z</time>
      </trkpt>
      <trkpt lat="49.36053" lon="0.15756">
        <ele>146.3</ele>
        <time>2023-09-03T06:56:46Z</time>
      </trkpt>
      <trkpt lat="49.36047" lon="0.15762">
        <ele>146.3</ele>
        <time>2023-09-03T06:56:47Z</time>
      </trkpt>
      <trkpt lat="49.3604" lon="0.15768">
        <ele>146.2</ele>
        <time>2023-09-03T06:56:48Z</time>
      </trkpt>
      <trkpt lat="49.36034" lon="0.15774">
        <ele>146.2</ele>
        <time>2023-09-03T06:56:49Z</time>
      </trkpt>
      <trkpt lat="49.36028" lon="0.1578">
        <ele>146.2</ele>
        <time>2023-09-03T06:56:50Z</time>
      </trkpt>
      <trkpt lat="49.36022" lon="0.15786">
        <ele>146.3</ele>
        <time>2023-09-03T06:56:51Z</time>
      </trkpt>
      <trkpt lat="49.36015" lon="0.15791">
        <ele>146.4</ele>
        <time>2023-09-03T06:56:52Z</time>
      </trkpt>
      <trkpt lat="49.3601" lon="0.15797">
        <ele>146.4</ele>
        <time>2023-09-03T06:56:53Z</time>
      </trkpt>
      <trkpt lat="49.36004" lon="0.15802">
        <ele>146.4</ele>
        <time>2023-09-03T06:56:54Z</time>
      </trkpt>
      <trkpt lat="49.35998" lon="0.15808">
        <ele>146.5</ele>
        <time>2023-09-03T06:56:55Z</time>
      </trkpt>
      <trkpt lat="49.35992" lon="0.15814">
        <ele>146.5</ele>
        <time>2023-09-03T06:56:56Z</time>
      </trkpt>
      <trkpt lat="49.35985" lon="0.1582">
        <ele>146.6</ele>
        <time>2023-09-03T06:56:57Z</time>
      </trkpt>
      <trkpt lat="49.35979" lon="0.15826">
        <ele>146.6</ele>
        <time>2023-09-03T06:56:58Z</time>
      </trkpt>
      <trkpt lat="49.35973" lon="0.15832">
        <ele>146.6</ele>
        <time>2023-09-03T06:56:59Z</time>
      </trkpt>
      <trkpt lat="49.35967" lon="0.1584">
        <ele>146.7</ele>
        <time>2023-09-03T06:57:00Z</time>
      </trkpt>
      <trkpt lat="49.35961" lon="0.15847">
        <ele>146.7</ele>
        <time>2023-09-03T06:57:01Z</time>
      </trkpt>
      <trkpt lat="49.35955" lon="0.15854">
        <ele>146.7</ele>
        <time>2023-09-03T06:57:02Z</time>
      </trkpt>
      <trkpt lat="49.35949" lon="0.15862">
        <ele>146.7</ele>
        <time>2023-09-03T06:57:03Z</time>
      </trkpt>
      <trkpt lat="49.35943" lon="0.15869">
        <ele>146.6</ele>
        <time>2023-09-03T06:57:04Z</time>
      </trkpt>
      <trkpt lat="49.35937" lon="0.15878">
        <ele>146.6</ele>
        <time>2023-09-03T06:57:05Z</time>
      </trkpt>
      <trkpt lat="49.35931" lon="0.15886">
        <ele>146.6</ele>
        <time>2023-09-03T06:57:06Z</time>
      </trkpt>
      <trkpt lat="49.35925" lon="0.15894">
        <ele>146.5</ele>
        <time>2023-09-03T06:57:07Z</time>
      </trkpt>
      <trkpt lat="49.35919" lon="0.15902">
        <ele>146.5</ele>
        <time>2023-09-03T06:57:08Z</time>
      </trkpt>
      <trkpt lat="49.35912" lon="0.1591">
        <ele>146.4</ele>
        <time>2023-09-03T06:57:09Z</time>
      </trkpt>
      <trkpt lat="49.35906" lon="0.15918">
        <ele>146.4</ele>
        <time>2023-09-03T06:57:10Z</time>
      </trkpt>
      <trkpt lat="49.35899" lon="0.15927">
        <ele>146.3</ele>
        <time>2023-09-03T06:57:11Z</time>
      </trkpt>
      <trkpt lat="49.35893" lon="0.15935">
        <ele>146.3</ele>
        <time>2023-09-03T06:57:12Z</time>
      </trkpt>
      <trkpt lat="49.35887" lon="0.15943">
        <ele>146.2</ele>
        <time>2023-09-03T06:57:13Z</time>
      </trkpt>
      <trkpt lat="49.35881" lon="0.15951">
        <ele>146.2</ele>
        <time>2023-09-03T06:57:14Z</time>
      </trkpt>
      <trkpt lat="49.35875" lon="0.15959">
        <ele>146.2</ele>
        <time>2023-09-03T06:57:15Z</time>
      </trkpt>
      <trkpt lat="49.3587" lon="0.15967">
        <ele>146.2</ele>
        <time>2023-09-03T06:57:16Z</time>
      </trkpt>
      <trkpt lat="49.35865" lon="0.15974">
        <ele>146.2</ele>
        <time>2023-09-03T06:57:17Z</time>
      </trkpt>
      <trkpt lat="49.3586" lon="0.15981">
        <ele>146.2</ele>
        <time>2023-09-03T06:57:18Z</time>
      </trkpt>
      <trkpt lat="49.35855" lon="0.15989">
        <ele>146.3</ele>
        <time>2023-09-03T06:57:19Z</time>
      </trkpt>
      <trkpt lat="49.35849" lon="0.15996">
        <ele>146.3</ele>
        <time>2023-09-03T06:57:20Z</time>
      </trkpt>
      <trkpt lat="49.35843" lon="0.16003">
        <ele>146.3</ele>
        <time>2023-09-03T06:57:21Z</time>
      </trkpt>
      <trkpt lat="49.35838" lon="0.16011">
        <ele>146.3</ele>
        <time>2023-09-03T06:57:22Z</time>
      </trkpt>
      <trkpt lat="49.35832" lon="0.16019">
        <ele>146.3</ele>
        <time>2023-09-03T06:57:23Z</time>
      </trkpt>
      <trkpt lat="49.35827" lon="0.16027">
        <ele>146.3</ele>
        <time>2023-09-03T06:57:24Z</time>
      </trkpt>
      <trkpt lat="49.35821" lon="0.16036">
        <ele>146.3</ele>
        <time>2023-09-03T06:57:25Z</time>
      </trkpt>
      <trkpt lat="49.35817" lon="0.16044">
        <ele>146.3</ele>
        <time>2023-09-03T06:57:26Z</time>
      </trkpt>
      <trkpt lat="49.35812" lon="0.16054">
        <ele>146.3</ele>
        <time>2023-09-03T06:57:27Z</time>
      </trkpt>
      <trkpt lat="49.35807" lon="0.16063">
        <ele>146.3</ele>
        <time>2023-09-03T06:57:28Z</time>
      </trkpt>
      <trkpt lat="49.35803" lon="0.16073">
        <ele>146.3</ele>
        <time>2023-09-03T06:57:29Z</time>
      </trkpt>
      <trkpt lat="49.35799" lon="0.16083">
        <ele>146.3</ele>
        <time>2023-09-03T06:57:30Z</time>
      </trkpt>
      <trkpt lat="49.35795" lon="0.16093">
        <ele>146.3</ele>
        <time>2023-09-03T06:57:31Z</time>
      </trkpt>
      <trkpt lat="49.35791" lon="0.16104">
        <ele>146.2</ele>
        <time>2023-09-03T06:57:32Z</time>
      </trkpt>
      <trkpt lat="49.35786" lon="0.16114">
        <ele>146.2</ele>
        <time>2023-09-03T06:57:33Z</time>
      </trkpt>
      <trkpt lat="49.35782" lon="0.16124">
        <ele>146.2</ele>
        <time>2023-09-03T06:57:34Z</time>
      </trkpt>
      <trkpt lat="49.35778" lon="0.16134">
        <ele>146.2</ele>
        <time>2023-09-03T06:57:35Z</time>
      </trkpt>
      <trkpt lat="49.35774" lon="0.16144">
        <ele>146.2</ele>
        <time>2023-09-03T06:57:36Z</time>
      </trkpt>
      <trkpt lat="49.3577" lon="0.16154">
        <ele>146.2</ele>
        <time>2023-09-03T06:57:37Z</time>
      </trkpt>
      <trkpt lat="49.35766" lon="0.16165">
        <ele>146.2</ele>
        <time>2023-09-03T06:57:38Z</time>
      </trkpt>
      <trkpt lat="49.35762" lon="0.16175">
        <ele>146.2</ele>
        <time>2023-09-03T06:57:39Z</time>
      </trkpt>
      <trkpt lat="49.35758" lon="0.16185">
        <ele>146.2</ele>
        <time>2023-09-03T06:57:40Z</time>
      </trkpt>
      <trkpt lat="49.35754" lon="0.16195">
        <ele>146.1</ele>
        <time>2023-09-03T06:57:41Z</time>
      </trkpt>
      <trkpt lat="49.35749" lon="0.16205">
        <ele>146.1</ele>
        <time>2023-09-03T06:57:42Z</time>
      </trkpt>
      <trkpt lat="49.35745" lon="0.16215">
        <ele>146</ele>
        <time>2023-09-03T06:57:43Z</time>
      </trkpt>
      <trkpt lat="49.35741" lon="0.16225">
        <ele>146</ele>
        <time>2023-09-03T06:57:44Z</time>
      </trkpt>
      <trkpt lat="49.35738" lon="0.16235">
        <ele>146</ele>
        <time>2023-09-03T06:57:45Z</time>
      </trkpt>
      <trkpt lat="49.35735" lon="0.16246">
        <ele>146</ele>
        <time>2023-09-03T06:57:46Z</time>
      </trkpt>
      <trkpt lat="49.35732" lon="0.16257">
        <ele>146</ele>
        <time>2023-09-03T06:57:47Z</time>
      </trkpt>
      <trkpt lat="49.3573" lon="0.16268">
        <ele>146.1</ele>
        <time>2023-09-03T06:57:48Z</time>
      </trkpt>
      <trkpt lat="49.35728" lon="0.1628">
        <ele>146.1</ele>
        <time>2023-09-03T06:57:49Z</time>
      </trkpt>
      <trkpt lat="49.35726" lon="0.16291">
        <ele>146.1</ele>
        <time>2023-09-03T06:57:50Z</time>
      </trkpt>
      <trkpt lat="49.35725" lon="0.16303">
        <ele>146.2</ele>
        <time>2023-09-03T06:57:51Z</time>
      </trkpt>
      <trkpt lat="49.35723" lon="0.16315">
        <ele>146.2</ele>
        <time>2023-09-03T06:57:52Z</time>
      </trkpt>
      <trkpt lat="49.35722" lon="0.16326">
        <ele>146.3</ele>
        <time>2023-09-03T06:57:53Z</time>
      </trkpt>
      <trkpt lat="49.35722" lon="0.16338">
        <ele>146.3</ele>
        <time>2023-09-03T06:57:54Z</time>
      </trkpt>
      <trkpt lat="49.35721" lon="0.1635">
        <ele>146.3</ele>
        <time>2023-09-03T06:57:55Z</time>
      </trkpt>
      <trkpt lat="49.35719" lon="0.16363">
        <ele>146.4</ele>
        <time>2023-09-03T06:57:56Z</time>
      </trkpt>
      <trkpt lat="49.35718" lon="0.16375">
        <ele>146.4</ele>
        <time>2023-09-03T06:57:57Z</time>
      </trkpt>
      <trkpt lat="49.35717" lon="0.16386">
        <ele>146.5</ele>
        <time>2023-09-03T06:57:58Z</time>
      </trkpt>
      <trkpt lat="49.35716" lon="0.16397">
        <ele>146.6</ele>
        <time>2023-09-03T06:57:59Z</time>
      </trkpt>
      <trkpt lat="49.35715" lon="0.16408">
        <ele>146.7</ele>
        <time>2023-09-03T06:58:00Z</time>
      </trkpt>
      <trkpt lat="49.35714" lon="0.16419">
        <ele>146.7</ele>
        <time>2023-09-03T06:58:01Z</time>
      </trkpt>
      <trkpt lat="49.35712" lon="0.1643">
        <ele>146.8</ele>
        <time>2023-09-03T06:58:02Z</time>
      </trkpt>
      <trkpt lat="49.35711" lon="0.1644">
        <ele>146.8</ele>
        <time>2023-09-03T06:58:03Z</time>
      </trkpt>
      <trkpt lat="49.35709" lon="0.16451">
        <ele>146.9</ele>
        <time>2023-09-03T06:58:04Z</time>
      </trkpt>
      <trkpt lat="49.35707" lon="0.16461">
        <ele>146.9</ele>
        <time>2023-09-03T06:58:05Z</time>
      </trkpt>
      <trkpt lat="49.35705" lon="0.16471">
        <ele>146.9</ele>
        <time>2023-09-03T06:58:06Z</time>
      </trkpt>
      <trkpt lat="49.35703" lon="0.16482">
        <ele>146.9</ele>
        <time>2023-09-03T06:58:07Z</time>
      </trkpt>
      <trkpt lat="49.357" lon="0.16493">
        <ele>147</ele>
        <time>2023-09-03T06:58:08Z</time>
      </trkpt>
      <trkpt lat="49.35697" lon="0.16505">
        <ele>147</ele>
        <time>2023-09-03T06:58:09Z</time>
      </trkpt>
      <trkpt lat="49.35695" lon="0.16515">
        <ele>147</ele>
        <time>2023-09-03T06:58:10Z</time>
      </trkpt>
      <trkpt lat="49.35693" lon="0.16527">
        <ele>147</ele>
        <time>2023-09-03T06:58:11Z</time>
      </trkpt>
      <trkpt lat="49.3569" lon="0.16538">
        <ele>147</ele>
        <time>2023-09-03T06:58:12Z</time>
      </trkpt>
      <trkpt lat="49.35687" lon="0.16549">
        <ele>147</ele>
        <time>2023-09-03T06:58:13Z</time>
      </trkpt>
      <trkpt lat="49.35685" lon="0.1656">
        <ele>147</ele>
        <time>2023-09-03T06:58:14Z</time>
      </trkpt>
      <trkpt lat="49.35682" lon="0.16571">
        <ele>147</ele>
        <time>2023-09-03T06:58:15Z</time>
      </trkpt>
      <trkpt lat="49.3568" lon="0.16582">
        <ele>146.9</ele>
        <time>2023-09-03T06:58:16Z</time>
      </trkpt>
      <trkpt lat="49.35677" lon="0.16594">
        <ele>146.9</ele>
        <time>2023-09-03T06:58:17Z</time>
      </trkpt>
      <trkpt lat="49.35675" lon="0.16605">
        <ele>146.8</ele>
        <time>2023-09-03T06:58:18Z</time>
      </trkpt>
      <trkpt lat="49.35672" lon="0.16617">
        <ele>146.7</ele>
        <time>2023-09-03T06:58:19Z</time>
      </trkpt>
      <trkpt lat="49.3567" lon="0.16628">
        <ele>146.7</ele>
        <time>2023-09-03T06:58:20Z</time>
      </trkpt>
      <trkpt lat="49.35667" lon="0.16639">
        <ele>146.7</ele>
        <time>2023-09-03T06:58:21Z</time>
      </trkpt>
      <trkpt lat="49.35665" lon="0.1665">
        <ele>146.6</ele>
        <time>2023-09-03T06:58:22Z</time>
      </trkpt>
      <trkpt lat="49.35662" lon="0.16662">
        <ele>146.6</ele>
        <time>2023-09-03T06:58:23Z</time>
      </trkpt>
      <trkpt lat="49.3566" lon="0.16672">
        <ele>146.6</ele>
        <time>2023-09-03T06:58:24Z</time>
      </trkpt>
      <trkpt lat="49.35657" lon="0.16684">
        <ele>146.5</ele>
        <time>2023-09-03T06:58:25Z</time>
      </trkpt>
      <trkpt lat="49.35655" lon="0.16695">
        <ele>146.5</ele>
        <time>2023-09-03T06:58:26Z</time>
      </trkpt>
      <trkpt lat="49.35652" lon="0.16706">
        <ele>146.5</ele>
        <time>2023-09-03T06:58:27Z</time>
      </trkpt>
      <trkpt lat="49.35649" lon="0.16718">
        <ele>146.4</ele>
        <time>2023-09-03T06:58:28Z</time>
      </trkpt>
      <trkpt lat="49.35646" lon="0.16729">
        <ele>146.4</ele>
        <time>2023-09-03T06:58:29Z</time>
      </trkpt>
      <trkpt lat="49.35643" lon="0.16741">
        <ele>146.3</ele>
        <time>2023-09-03T06:58:30Z</time>
      </trkpt>
      <trkpt lat="49.35641" lon="0.16753">
        <ele>146.3</ele>
        <time>2023-09-03T06:58:31Z</time>
      </trkpt>
      <trkpt lat="49.35638" lon="0.16765">
        <ele>146.2</ele>
        <time>2023-09-03T06:58:32Z</time>
      </trkpt>
      <trkpt lat="49.35635" lon="0.16777">
        <ele>146.2</ele>
        <time>2023-09-03T06:58:33Z</time>
      </trkpt>
      <trkpt lat="49.35633" lon="0.16788">
        <ele>146.1</ele>
        <time>2023-09-03T06:58:34Z</time>
      </trkpt>
      <trkpt lat="49.3563" lon="0.168">
        <ele>146.1</ele>
        <time>2023-09-03T06:58:35Z</time>
      </trkpt>
      <trkpt lat="49.35628" lon="0.16812">
        <ele>146</ele>
        <time>2023-09-03T06:58:36Z</time>
      </trkpt>
      <trkpt lat="49.35625" lon="0.16824">
        <ele>146</ele>
        <time>2023-09-03T06:58:37Z</time>
      </trkpt>
      <trkpt lat="49.35622" lon="0.16836">
        <ele>146</ele>
        <time>2023-09-03T06:58:38Z</time>
      </trkpt>
      <trkpt lat="49.35619" lon="0.16848">
        <ele>145.9</ele>
        <time>2023-09-03T06:58:39Z</time>
      </trkpt>
      <trkpt lat="49.35616" lon="0.1686">
        <ele>145.9</ele>
        <time>2023-09-03T06:58:40Z</time>
      </trkpt>
      <trkpt lat="49.35614" lon="0.16872">
        <ele>145.9</ele>
        <time>2023-09-03T06:58:41Z</time>
      </trkpt>
      <trkpt lat="49.35611" lon="0.16883">
        <ele>145.9</ele>
        <time>2023-09-03T06:58:42Z</time>
      </trkpt>
      <trkpt lat="49.35608" lon="0.16894">
        <ele>145.8</ele>
        <time>2023-09-03T06:58:43Z</time>
      </trkpt>
      <trkpt lat="49.35606" lon="0.16906">
        <ele>145.8</ele>
        <time>2023-09-03T06:58:44Z</time>
      </trkpt>
      <trkpt lat="49.35603" lon="0.16917">
        <ele>145.8</ele>
        <time>2023-09-03T06:58:45Z</time>
      </trkpt>
      <trkpt lat="49.356" lon="0.16929">
        <ele>145.7</ele>
        <time>2023-09-03T06:58:46Z</time>
      </trkpt>
      <trkpt lat="49.35598" lon="0.16941">
        <ele>145.7</ele>
        <time>2023-09-03T06:58:47Z</time>
      </trkpt>
      <trkpt lat="49.35595" lon="0.16953">
        <ele>145.6</ele>
        <time>2023-09-03T06:58:48Z</time>
      </trkpt>
      <trkpt lat="49.35593" lon="0.16963">
        <ele>145.6</ele>
        <time>2023-09-03T06:58:49Z</time>
      </trkpt>
      <trkpt lat="49.3559" lon="0.16973">
        <ele>145.5</ele>
        <time>2023-09-03T06:58:50Z</time>
      </trkpt>
      <trkpt lat="49.35588" lon="0.16983">
        <ele>145.4</ele>
        <time>2023-09-03T06:58:51Z</time>
      </trkpt>
      <trkpt lat="49.35585" lon="0.16992">
        <ele>145.4</ele>
        <time>2023-09-03T06:58:52Z</time>
      </trkpt>
      <trkpt lat="49.35583" lon="0.17002">
        <ele>145.3</ele>
        <time>2023-09-03T06:58:53Z</time>
      </trkpt>
      <trkpt lat="49.3558" lon="0.1701">
        <ele>145.3</ele>
        <time>2023-09-03T06:58:54Z</time>
      </trkpt>
      <trkpt lat="49.35577" lon="0.17018">
        <ele>145.2</ele>
        <time>2023-09-03T06:58:55Z</time>
      </trkpt>
      <trkpt lat="49.35574" lon="0.17026">
        <ele>145.2</ele>
        <time>2023-09-03T06:58:56Z</time>
      </trkpt>
      <trkpt lat="49.35571" lon="0.17033">
        <ele>145.2</ele>
        <time>2023-09-03T06:58:57Z</time>
      </trkpt>
      <trkpt lat="49.35567" lon="0.1704">
        <ele>145.2</ele>
        <time>2023-09-03T06:58:58Z</time>
      </trkpt>
      <trkpt lat="49.35564" lon="0.17046">
        <ele>145.2</ele>
        <time>2023-09-03T06:58:59Z</time>
      </trkpt>
      <trkpt lat="49.35561" lon="0.17052">
        <ele>145.2</ele>
        <time>2023-09-03T06:59:00Z</time>
      </trkpt>
      <trkpt lat="49.35558" lon="0.17056">
        <ele>145.2</ele>
        <time>2023-09-03T06:59:01Z</time>
      </trkpt>
      <trkpt lat="49.35556" lon="0.17059">
        <ele>145.2</ele>
        <time>2023-09-03T06:59:02Z</time>
      </trkpt>
      <trkpt lat="49.35554" lon="0.17063">
        <ele>145.2</ele>
        <time>2023-09-03T06:59:03Z</time>
      </trkpt>
      <trkpt lat="49.35551" lon="0.17066">
        <ele>145.3</ele>
        <time>2023-09-03T06:59:04Z</time>
      </trkpt>
      <trkpt lat="49.3555" lon="0.17069">
        <ele>145.3</ele>
        <time>2023-09-03T06:59:05Z</time>
      </trkpt>
      <trkpt lat="49.35547" lon="0.17074">
        <ele>145.3</ele>
        <time>2023-09-03T06:59:06Z</time>
      </trkpt>
      <trkpt lat="49.35546" lon="0.17075">
        <ele>145.3</ele>
        <time>2023-09-03T06:59:07Z</time>
      </trkpt>
      <trkpt lat="49.35545" lon="0.17079">
        <ele>145.3</ele>
        <time>2023-09-03T06:59:08Z</time>
      </trkpt>
      <trkpt lat="49.35544" lon="0.1708">
        <ele>145.3</ele>
        <time>2023-09-03T06:59:09Z</time>
      </trkpt>
      <trkpt lat="49.35542" lon="0.17085">
        <ele>145.3</ele>
        <time>2023-09-03T06:59:10Z</time>
      </trkpt>
      <trkpt lat="49.35542" lon="0.17087">
        <ele>145.3</ele>
        <time>2023-09-03T06:59:11Z</time>
      </trkpt>
      <trkpt lat="49.35541" lon="0.17092">
        <ele>145.3</ele>
        <time>2023-09-03T06:59:12Z</time>
      </trkpt>
      <trkpt lat="49.35541" lon="0.17098">
        <ele>145.3</ele>
        <time>2023-09-03T06:59:13Z</time>
      </trkpt>
      <trkpt lat="49.35543" lon="0.17105">
        <ele>145.3</ele>
        <time>2023-09-03T06:59:14Z</time>
      </trkpt>
      <trkpt lat="49.35544" lon="0.17111">
        <ele>145.2</ele>
        <time>2023-09-03T06:59:15Z</time>
      </trkpt>
      <trkpt lat="49.35545" lon="0.17119">
        <ele>145.2</ele>
        <time>2023-09-03T06:59:16Z</time>
      </trkpt>
      <trkpt lat="49.35547" lon="0.17126">
        <ele>145.1</ele>
        <time>2023-09-03T06:59:17Z</time>
      </trkpt>
      <trkpt lat="49.35549" lon="0.17134">
        <ele>145.1</ele>
        <time>2023-09-03T06:59:18Z</time>
      </trkpt>
      <trkpt lat="49.35551" lon="0.17142">
        <ele>145</ele>
        <time>2023-09-03T06:59:19Z</time>
      </trkpt>
      <trkpt lat="49.35553" lon="0.1715">
        <ele>144.9</ele>
        <time>2023-09-03T06:59:20Z</time>
      </trkpt>
      <trkpt lat="49.35556" lon="0.17158">
        <ele>144.9</ele>
        <time>2023-09-03T06:59:21Z</time>
      </trkpt>
      <trkpt lat="49.3556" lon="0.17165">
        <ele>144.8</ele>
        <time>2023-09-03T06:59:22Z</time>
      </trkpt>
      <trkpt lat="49.35564" lon="0.17171">
        <ele>144.7</ele>
        <time>2023-09-03T06:59:23Z</time>
      </trkpt>
      <trkpt lat="49.35569" lon="0.17176">
        <ele>144.6</ele>
        <time>2023-09-03T06:59:24Z</time>
      </trkpt>
      <trkpt lat="49.35574" lon="0.17182">
        <ele>144.5</ele>
        <time>2023-09-03T06:59:25Z</time>
      </trkpt>
      <trkpt lat="49.35578" lon="0.17187">
        <ele>144.4</ele>
        <time>2023-09-03T06:59:26Z</time>
      </trkpt>
      <trkpt lat="49.35583" lon="0.17193">
        <ele>144.3</ele>
        <time>2023-09-03T06:59:27Z</time>
      </trkpt>
      <trkpt lat="49.35588" lon="0.17198">
        <ele>144.3</ele>
        <time>2023-09-03T06:59:28Z</time>
      </trkpt>
      <trkpt lat="49.35593" lon="0.17204">
        <ele>144.2</ele>
        <time>2023-09-03T06:59:29Z</time>
      </trkpt>
      <trkpt lat="49.35597" lon="0.1721">
        <ele>144.1</ele>
        <time>2023-09-03T06:59:30Z</time>
      </trkpt>
      <trkpt lat="49.35601" lon="0.17217">
        <ele>144</ele>
        <time>2023-09-03T06:59:31Z</time>
      </trkpt>
      <trkpt lat="49.35605" lon="0.17225">
        <ele>144</ele>
        <time>2023-09-03T06:59:32Z</time>
      </trkpt>
      <trkpt lat="49.35609" lon="0.17233">
        <ele>143.9</ele>
        <time>2023-09-03T06:59:33Z</time>
      </trkpt>
      <trkpt lat="49.35614" lon="0.17242">
        <ele>143.8</ele>
        <time>2023-09-03T06:59:34Z</time>
      </trkpt>
      <trkpt lat="49.35618" lon="0.17251">
        <ele>143.8</ele>
        <time>2023-09-03T06:59:35Z</time>
      </trkpt>
      <trkpt lat="49.35622" lon="0.17261">
        <ele>143.8</ele>
        <time>2023-09-03T06:59:36Z</time>
      </trkpt>
      <trkpt lat="49.35625" lon="0.17271">
        <ele>143.8</ele>
        <time>2023-09-03T06:59:37Z</time>
      </trkpt>
      <trkpt lat="49.35628" lon="0.17281">
        <ele>143.8</ele>
        <time>2023-09-03T06:59:38Z</time>
      </trkpt>
      <trkpt lat="49.3563" lon="0.1729">
        <ele>143.7</ele>
        <time>2023-09-03T06:59:39Z</time>
      </trkpt>
      <trkpt lat="49.35633" lon="0.173">
        <ele>143.6</ele>
        <time>2023-09-03T06:59:40Z</time>
      </trkpt>
      <trkpt lat="49.35636" lon="0.1731">
        <ele>143.6</ele>
        <time>2023-09-03T06:59:41Z</time>
      </trkpt>
      <trkpt lat="49.35639" lon="0.1732">
        <ele>143.5</ele>
        <time>2023-09-03T06:59:42Z</time>
      </trkpt>
      <trkpt lat="49.35643" lon="0.1733">
        <ele>143.4</ele>
        <time>2023-09-03T06:59:43Z</time>
      </trkpt>
      <trkpt lat="49.35647" lon="0.1734">
        <ele>143.4</ele>
        <time>2023-09-03T06:59:44Z</time>
      </trkpt>
      <trkpt lat="49.35652" lon="0.1735">
        <ele>143.3</ele>
        <time>2023-09-03T06:59:45Z</time>
      </trkpt>
      <trkpt lat="49.35655" lon="0.1736">
        <ele>143.3</ele>
        <time>2023-09-03T06:59:46Z</time>
      </trkpt>
      <trkpt lat="49.35658" lon="0.17371">
        <ele>143.3</ele>
        <time>2023-09-03T06:59:47Z</time>
      </trkpt>
      <trkpt lat="49.35661" lon="0.17381">
        <ele>143.3</ele>
        <time>2023-09-03T06:59:48Z</time>
      </trkpt>
      <trkpt lat="49.35663" lon="0.17391">
        <ele>143.3</ele>
        <time>2023-09-03T06:59:49Z</time>
      </trkpt>
      <trkpt lat="49.35665" lon="0.174">
        <ele>143.3</ele>
        <time>2023-09-03T06:59:50Z</time>
      </trkpt>
      <trkpt lat="49.35666" lon="0.17409">
        <ele>143.3</ele>
        <time>2023-09-03T06:59:51Z</time>
      </trkpt>
      <trkpt lat="49.35668" lon="0.17418">
        <ele>143.3</ele>
        <time>2023-09-03T06:59:52Z</time>
      </trkpt>
      <trkpt lat="49.3567" lon="0.17427">
        <ele>143.2</ele>
        <time>2023-09-03T06:59:53Z</time>
      </trkpt>
      <trkpt lat="49.35672" lon="0.17435">
        <ele>143.2</ele>
        <time>2023-09-03T06:59:54Z</time>
      </trkpt>
      <trkpt lat="49.35674" lon="0.17444">
        <ele>143.2</ele>
        <time>2023-09-03T06:59:55Z</time>
      </trkpt>
      <trkpt lat="49.35676" lon="0.17452">
        <ele>143.2</ele>
        <time>2023-09-03T06:59:56Z</time>
      </trkpt>
      <trkpt lat="49.35678" lon="0.1746">
        <ele>143.2</ele>
        <time>2023-09-03T06:59:57Z</time>
      </trkpt>
      <trkpt lat="49.3568" lon="0.17468">
        <ele>143.2</ele>
        <time>2023-09-03T06:59:58Z</time>
      </trkpt>
      <trkpt lat="49.35682" lon="0.17476">
        <ele>143.2</ele>
        <time>2023-09-03T06:59:59Z</time>
      </trkpt>
      <trkpt lat="49.35685" lon="0.17484">
        <ele>143.2</ele>
        <time>2023-09-03T07:00:00Z</time>
      </trkpt>
      <trkpt lat="49.35687" lon="0.17493">
        <ele>143.1</ele>
        <time>2023-09-03T07:00:01Z</time>
      </trkpt>
      <trkpt lat="49.35689" lon="0.17502">
        <ele>143.1</ele>
        <time>2023-09-03T07:00:02Z</time>
      </trkpt>
      <trkpt lat="49.3569" lon="0.17512">
        <ele>143.1</ele>
        <time>2023-09-03T07:00:03Z</time>
      </trkpt>
      <trkpt lat="49.35693" lon="0.17521">
        <ele>143.1</ele>
        <time>2023-09-03T07:00:04Z</time>
      </trkpt>
      <trkpt lat="49.35695" lon="0.17531">
        <ele>143.1</ele>
        <time>2023-09-03T07:00:05Z</time>
      </trkpt>
      <trkpt lat="49.35697" lon="0.1754">
        <ele>143.1</ele>
        <time>2023-09-03T07:00:06Z</time>
      </trkpt>
      <trkpt lat="49.35699" lon="0.1755">
        <ele>143.1</ele>
        <time>2023-09-03T07:00:07Z</time>
      </trkpt>
      <trkpt lat="49.35701" lon="0.17559">
        <ele>143.1</ele>
        <time>2023-09-03T07:00:08Z</time>
      </trkpt>
      <trkpt lat="49.35703" lon="0.17569">
        <ele>143.1</ele>
        <time>2023-09-03T07:00:09Z</time>
      </trkpt>
      <trkpt lat="49.35705" lon="0.17579">
        <ele>143</ele>
        <time>2023-09-03T07:00:10Z</time>
      </trkpt>
      <trkpt lat="49.35707" lon="0.17589">
        <ele>142.9</ele>
        <time>2023-09-03T07:00:11Z</time>
      </trkpt>
      <trkpt lat="49.35709" lon="0.17599">
        <ele>142.8</ele>
        <time>2023-09-03T07:00:12Z</time>
      </trkpt>
      <trkpt lat="49.35711" lon="0.1761">
        <ele>142.7</ele>
        <time>2023-09-03T07:00:13Z</time>
      </trkpt>
      <trkpt lat="49.35714" lon="0.1762">
        <ele>142.7</ele>
        <time>2023-09-03T07:00:14Z</time>
      </trkpt>
      <trkpt lat="49.35716" lon="0.17631">
        <ele>142.6</ele>
        <time>2023-09-03T07:00:15Z</time>
      </trkpt>
      <trkpt lat="49.35718" lon="0.17641">
        <ele>142.6</ele>
        <time>2023-09-03T07:00:16Z</time>
      </trkpt>
      <trkpt lat="49.3572" lon="0.17652">
        <ele>142.5</ele>
        <time>2023-09-03T07:00:17Z</time>
      </trkpt>
      <trkpt lat="49.35723" lon="0.17662">
        <ele>142.5</ele>
        <time>2023-09-03T07:00:18Z</time>
      </trkpt>
      <trkpt lat="49.35725" lon="0.17672">
        <ele>142.5</ele>
        <time>2023-09-03T07:00:19Z</time>
      </trkpt>
      <trkpt lat="49.35727" lon="0.17683">
        <ele>142.4</ele>
        <time>2023-09-03T07:00:20Z</time>
      </trkpt>
      <trkpt lat="49.3573" lon="0.17693">
        <ele>142.4</ele>
        <time>2023-09-03T07:00:21Z</time>
      </trkpt>
      <trkpt lat="49.35732" lon="0.17703">
        <ele>142.4</ele>
        <time>2023-09-03T07:00:22Z</time>
      </trkpt>
      <trkpt lat="49.35735" lon="0.17714">
        <ele>142.4</ele>
        <time>2023-09-03T07:00:23Z</time>
      </trkpt>
      <trkpt lat="49.35737" lon="0.17724">
        <ele>142.4</ele>
        <time>2023-09-03T07:00:24Z</time>
      </trkpt>
      <trkpt lat="49.3574" lon="0.17735">
        <ele>142.3</ele>
        <time>2023-09-03T07:00:25Z</time>
      </trkpt>
      <trkpt lat="49.35744" lon="0.17745">
        <ele>142.2</ele>
        <time>2023-09-03T07:00:26Z</time>
      </trkpt>
      <trkpt lat="49.35748" lon="0.17755">
        <ele>142.2</ele>
        <time>2023-09-03T07:00:27Z</time>
      </trkpt>
      <trkpt lat="49.35752" lon="0.17766">
        <ele>142.1</ele>
        <time>2023-09-03T07:00:28Z</time>
      </trkpt>
      <trkpt lat="49.35756" lon="0.17776">
        <ele>142.1</ele>
        <time>2023-09-03T07:00:29Z</time>
      </trkpt>
      <trkpt lat="49.3576" lon="0.17787">
        <ele>142.1</ele>
        <time>2023-09-03T07:00:30Z</time>
      </trkpt>
      <trkpt lat="49.35765" lon="0.17797">
        <ele>142.1</ele>
        <time>2023-09-03T07:00:31Z</time>
      </trkpt>
      <trkpt lat="49.3577" lon="0.17807">
        <ele>142.1</ele>
        <time>2023-09-03T07:00:32Z</time>
      </trkpt>
      <trkpt lat="49.35775" lon="0.17818">
        <ele>142.1</ele>
        <time>2023-09-03T07:00:33Z</time>
      </trkpt>
      <trkpt lat="49.35779" lon="0.17828">
        <ele>142.1</ele>
        <time>2023-09-03T07:00:34Z</time>
      </trkpt>
      <trkpt lat="49.35784" lon="0.17839">
        <ele>142.1</ele>
        <time>2023-09-03T07:00:35Z</time>
      </trkpt>
      <trkpt lat="49.35788" lon="0.1785">
        <ele>142.1</ele>
        <time>2023-09-03T07:00:36Z</time>
      </trkpt>
      <trkpt lat="49.35792" lon="0.1786">
        <ele>142.1</ele>
        <time>2023-09-03T07:00:37Z</time>
      </trkpt>
      <trkpt lat="49.35796" lon="0.17871">
        <ele>142.1</ele>
        <time>2023-09-03T07:00:38Z</time>
      </trkpt>
      <trkpt lat="49.35801" lon="0.17881">
        <ele>142</ele>
        <time>2023-09-03T07:00:39Z</time>
      </trkpt>
      <trkpt lat="49.35805" lon="0.17891">
        <ele>142</ele>
        <time>2023-09-03T07:00:40Z</time>
      </trkpt>
      <trkpt lat="49.35809" lon="0.17901">
        <ele>142</ele>
        <time>2023-09-03T07:00:41Z</time>
      </trkpt>
      <trkpt lat="49.35813" lon="0.17911">
        <ele>142</ele>
        <time>2023-09-03T07:00:42Z</time>
      </trkpt>
      <trkpt lat="49.35818" lon="0.17921">
        <ele>141.9</ele>
        <time>2023-09-03T07:00:43Z</time>
      </trkpt>
      <trkpt lat="49.35822" lon="0.17931">
        <ele>141.9</ele>
        <time>2023-09-03T07:00:44Z</time>
      </trkpt>
      <trkpt lat="49.35826" lon="0.17942">
        <ele>141.9</ele>
        <time>2023-09-03T07:00:45Z</time>
      </trkpt>
      <trkpt lat="49.3583" lon="0.17952">
        <ele>141.9</ele>
        <time>2023-09-03T07:00:46Z</time>
      </trkpt>
      <trkpt lat="49.35835" lon="0.17962">
        <ele>141.9</ele>
        <time>2023-09-03T07:00:47Z</time>
      </trkpt>
      <trkpt lat="49.35839" lon="0.17972">
        <ele>141.8</ele>
        <time>2023-09-03T07:00:48Z</time>
      </trkpt>
      <trkpt lat="49.35843" lon="0.17982">
        <ele>141.8</ele>
        <time>2023-09-03T07:00:49Z</time>
      </trkpt>
      <trkpt lat="49.35847" lon="0.17993">
        <ele>141.7</ele>
        <time>2023-09-03T07:00:50Z</time>
      </trkpt>
      <trkpt lat="49.35852" lon="0.18003">
        <ele>141.7</ele>
        <time>2023-09-03T07:00:51Z</time>
      </trkpt>
      <trkpt lat="49.35856" lon="0.18012">
        <ele>141.6</ele>
        <time>2023-09-03T07:00:52Z</time>
      </trkpt>
      <trkpt lat="49.35861" lon="0.18022">
        <ele>141.5</ele>
        <time>2023-09-03T07:00:53Z</time>
      </trkpt>
      <trkpt lat="49.35866" lon="0.18032">
        <ele>141.5</ele>
        <time>2023-09-03T07:00:54Z</time>
      </trkpt>
      <trkpt lat="49.35871" lon="0.18042">
        <ele>141.4</ele>
        <time>2023-09-03T07:00:55Z</time>
      </trkpt>
      <trkpt lat="49.35875" lon="0.18052">
        <ele>141.4</ele>
        <time>2023-09-03T07:00:56Z</time>
      </trkpt>
      <trkpt lat="49.35879" lon="0.18062">
        <ele>141.4</ele>
        <time>2023-09-03T07:00:57Z</time>
      </trkpt>
      <trkpt lat="49.35884" lon="0.18072">
        <ele>141.3</ele>
        <time>2023-09-03T07:00:58Z</time>
      </trkpt>
      <trkpt lat="49.35888" lon="0.18081">
        <ele>141.3</ele>
        <time>2023-09-03T07:00:59Z</time>
      </trkpt>
      <trkpt lat="49.35892" lon="0.18091">
        <ele>141.2</ele>
        <time>2023-09-03T07:01:00Z</time>
      </trkpt>
      <trkpt lat="49.35896" lon="0.18102">
        <ele>141.2</ele>
        <time>2023-09-03T07:01:01Z</time>
      </trkpt>
      <trkpt lat="49.359" lon="0.18112">
        <ele>141.2</ele>
        <time>2023-09-03T07:01:02Z</time>
      </trkpt>
      <trkpt lat="49.35905" lon="0.18122">
        <ele>141.2</ele>
        <time>2023-09-03T07:01:03Z</time>
      </trkpt>
      <trkpt lat="49.35909" lon="0.18132">
        <ele>141.1</ele>
        <time>2023-09-03T07:01:04Z</time>
      </trkpt>
      <trkpt lat="49.35913" lon="0.18142">
        <ele>141.1</ele>
        <time>2023-09-03T07:01:05Z</time>
      </trkpt>
      <trkpt lat="49.35917" lon="0.18153">
        <ele>141</ele>
        <time>2023-09-03T07:01:06Z</time>
      </trkpt>
      <trkpt lat="49.35921" lon="0.18163">
        <ele>141</ele>
        <time>2023-09-03T07:01:07Z</time>
      </trkpt>
      <trkpt lat="49.35926" lon="0.18173">
        <ele>141</ele>
        <time>2023-09-03T07:01:08Z</time>
      </trkpt>
      <trkpt lat="49.35929" lon="0.18183">
        <ele>141</ele>
        <time>2023-09-03T07:01:09Z</time>
      </trkpt>
      <trkpt lat="49.35933" lon="0.18194">
        <ele>141</ele>
        <time>2023-09-03T07:01:10Z</time>
      </trkpt>
      <trkpt lat="49.35936" lon="0.18204">
        <ele>141</ele>
        <time>2023-09-03T07:01:11Z</time>
      </trkpt>
      <trkpt lat="49.3594" lon="0.18214">
        <ele>141</ele>
        <time>2023-09-03T07:01:12Z</time>
      </trkpt>
      <trkpt lat="49.35943" lon="0.18224">
        <ele>141</ele>
        <time>2023-09-03T07:01:13Z</time>
      </trkpt>
      <trkpt lat="49.35946" lon="0.18233">
        <ele>141</ele>
        <time>2023-09-03T07:01:14Z</time>
      </trkpt>
      <trkpt lat="49.35949" lon="0.18244">
        <ele>141</ele>
        <time>2023-09-03T07:01:15Z</time>
      </trkpt>
      <trkpt lat="49.35952" lon="0.18253">
        <ele>141.1</ele>
        <time>2023-09-03T07:01:16Z</time>
      </trkpt>
      <trkpt lat="49.35956" lon="0.18262">
        <ele>141.1</ele>
        <time>2023-09-03T07:01:17Z</time>
      </trkpt>
      <trkpt lat="49.35959" lon="0.18271">
        <ele>141.2</ele>
        <time>2023-09-03T07:01:18Z</time>
      </trkpt>
      <trkpt lat="49.35963" lon="0.18279">
        <ele>141.2</ele>
        <time>2023-09-03T07:01:19Z</time>
      </trkpt>
      <trkpt lat="49.35968" lon="0.18285">
        <ele>141.3</ele>
        <time>2023-09-03T07:01:20Z</time>
      </trkpt>
      <trkpt lat="49.35973" lon="0.18289">
        <ele>141.3</ele>
        <time>2023-09-03T07:01:21Z</time>
      </trkpt>
      <trkpt lat="49.35979" lon="0.18292">
        <ele>141.3</ele>
        <time>2023-09-03T07:01:22Z</time>
      </trkpt>
      <trkpt lat="49.35985" lon="0.18294">
        <ele>141.3</ele>
        <time>2023-09-03T07:01:23Z</time>
      </trkpt>
      <trkpt lat="49.35993" lon="0.18296">
        <ele>141.3</ele>
        <time>2023-09-03T07:01:24Z</time>
      </trkpt>
      <trkpt lat="49.35999" lon="0.18297">
        <ele>141.3</ele>
        <time>2023-09-03T07:01:25Z</time>
      </trkpt>
      <trkpt lat="49.36006" lon="0.183">
        <ele>141.3</ele>
        <time>2023-09-03T07:01:26Z</time>
      </trkpt>
      <trkpt lat="49.36012" lon="0.18302">
        <ele>141.3</ele>
        <time>2023-09-03T07:01:27Z</time>
      </trkpt>
      <trkpt lat="49.36018" lon="0.18306">
        <ele>141.2</ele>
        <time>2023-09-03T07:01:28Z</time>
      </trkpt>
      <trkpt lat="49.36025" lon="0.18309">
        <ele>141.2</ele>
        <time>2023-09-03T07:01:29Z</time>
      </trkpt>
      <trkpt lat="49.36033" lon="0.18313">
        <ele>141.2</ele>
        <time>2023-09-03T07:01:30Z</time>
      </trkpt>
      <trkpt lat="49.3604" lon="0.18317">
        <ele>141.1</ele>
        <time>2023-09-03T07:01:31Z</time>
      </trkpt>
      <trkpt lat="49.36047" lon="0.18321">
        <ele>141.1</ele>
        <time>2023-09-03T07:01:32Z</time>
      </trkpt>
      <trkpt lat="49.36053" lon="0.18325">
        <ele>141.1</ele>
        <time>2023-09-03T07:01:33Z</time>
      </trkpt>
      <trkpt lat="49.36059" lon="0.18329">
        <ele>141</ele>
        <time>2023-09-03T07:01:34Z</time>
      </trkpt>
      <trkpt lat="49.36065" lon="0.18334">
        <ele>141</ele>
        <time>2023-09-03T07:01:35Z</time>
      </trkpt>
      <trkpt lat="49.36071" lon="0.18339">
        <ele>141</ele>
        <time>2023-09-03T07:01:36Z</time>
      </trkpt>
      <trkpt lat="49.36078" lon="0.18345">
        <ele>140.9</ele>
        <time>2023-09-03T07:01:37Z</time>
      </trkpt>
      <trkpt lat="49.36086" lon="0.1835">
        <ele>140.9</ele>
        <time>2023-09-03T07:01:38Z</time>
      </trkpt>
      <trkpt lat="49.36092" lon="0.18355">
        <ele>140.8</ele>
        <time>2023-09-03T07:01:39Z</time>
      </trkpt>
      <trkpt lat="49.36099" lon="0.18361">
        <ele>140.7</ele>
        <time>2023-09-03T07:01:40Z</time>
      </trkpt>
      <trkpt lat="49.36106" lon="0.18366">
        <ele>140.6</ele>
        <time>2023-09-03T07:01:41Z</time>
      </trkpt>
      <trkpt lat="49.36111" lon="0.18373">
        <ele>140.6</ele>
        <time>2023-09-03T07:01:42Z</time>
      </trkpt>
      <trkpt lat="49.36116" lon="0.18382">
        <ele>140.5</ele>
        <time>2023-09-03T07:01:43Z</time>
      </trkpt>
      <trkpt lat="49.36121" lon="0.18391">
        <ele>140.5</ele>
        <time>2023-09-03T07:01:44Z</time>
      </trkpt>
      <trkpt lat="49.36126" lon="0.18401">
        <ele>140.4</ele>
        <time>2023-09-03T07:01:45Z</time>
      </trkpt>
      <trkpt lat="49.3613" lon="0.18411">
        <ele>140.3</ele>
        <time>2023-09-03T07:01:46Z</time>
      </trkpt>
      <trkpt lat="49.36134" lon="0.18421">
        <ele>140.2</ele>
        <time>2023-09-03T07:01:47Z</time>
      </trkpt>
      <trkpt lat="49.36138" lon="0.18431">
        <ele>140.1</ele>
        <time>2023-09-03T07:01:48Z</time>
      </trkpt>
      <trkpt lat="49.36142" lon="0.1844">
        <ele>140</ele>
        <time>2023-09-03T07:01:49Z</time>
      </trkpt>
      <trkpt lat="49.36146" lon="0.1845">
        <ele>139.9</ele>
        <time>2023-09-03T07:01:50Z</time>
      </trkpt>
      <trkpt lat="49.3615" lon="0.1846">
        <ele>139.9</ele>
        <time>2023-09-03T07:01:51Z</time>
      </trkpt>
      <trkpt lat="49.36153" lon="0.1847">
        <ele>139.8</ele>
        <time>2023-09-03T07:01:52Z</time>
      </trkpt>
      <trkpt lat="49.36156" lon="0.18479">
        <ele>139.7</ele>
        <time>2023-09-03T07:01:53Z</time>
      </trkpt>
      <trkpt lat="49.3616" lon="0.18489">
        <ele>139.6</ele>
        <time>2023-09-03T07:01:54Z</time>
      </trkpt>
      <trkpt lat="49.36164" lon="0.18498">
        <ele>139.5</ele>
        <time>2023-09-03T07:01:55Z</time>
      </trkpt>
      <trkpt lat="49.36168" lon="0.18508">
        <ele>139.4</ele>
        <time>2023-09-03T07:01:56Z</time>
      </trkpt>
      <trkpt lat="49.36172" lon="0.18517">
        <ele>139.2</ele>
        <time>2023-09-03T07:01:57Z</time>
      </trkpt>
      <trkpt lat="49.36175" lon="0.18527">
        <ele>139.1</ele>
        <time>2023-09-03T07:01:58Z</time>
      </trkpt>
      <trkpt lat="49.36179" lon="0.18537">
        <ele>138.9</ele>
        <time>2023-09-03T07:01:59Z</time>
      </trkpt>
      <trkpt lat="49.36183" lon="0.18547">
        <ele>138.8</ele>
        <time>2023-09-03T07:02:00Z</time>
      </trkpt>
      <trkpt lat="49.36187" lon="0.18557">
        <ele>138.7</ele>
        <time>2023-09-03T07:02:01Z</time>
      </trkpt>
      <trkpt lat="49.3619" lon="0.18567">
        <ele>138.5</ele>
        <time>2023-09-03T07:02:02Z</time>
      </trkpt>
      <trkpt lat="49.36194" lon="0.18577">
        <ele>138.4</ele>
        <time>2023-09-03T07:02:03Z</time>
      </trkpt>
      <trkpt lat="49.36198" lon="0.18588">
        <ele>138.2</ele>
        <time>2023-09-03T07:02:04Z</time>
      </trkpt>
      <trkpt lat="49.36201" lon="0.18598">
        <ele>137.9</ele>
        <time>2023-09-03T07:02:05Z</time>
      </trkpt>
      <trkpt lat="49.36205" lon="0.18608">
        <ele>137.6</ele>
        <time>2023-09-03T07:02:06Z</time>
      </trkpt>
      <trkpt lat="49.36209" lon="0.18619">
        <ele>137.3</ele>
        <time>2023-09-03T07:02:07Z</time>
      </trkpt>
      <trkpt lat="49.36214" lon="0.18629">
        <ele>137</ele>
        <time>2023-09-03T07:02:08Z</time>
      </trkpt>
      <trkpt lat="49.36218" lon="0.1864">
        <ele>136.7</ele>
        <time>2023-09-03T07:02:09Z</time>
      </trkpt>
      <trkpt lat="49.36223" lon="0.18651">
        <ele>136.5</ele>
        <time>2023-09-03T07:02:10Z</time>
      </trkpt>
      <trkpt lat="49.36228" lon="0.18662">
        <ele>136.2</ele>
        <time>2023-09-03T07:02:11Z</time>
      </trkpt>
      <trkpt lat="49.36233" lon="0.18673">
        <ele>135.9</ele>
        <time>2023-09-03T07:02:12Z</time>
      </trkpt>
      <trkpt lat="49.36237" lon="0.18684">
        <ele>135.6</ele>
        <time>2023-09-03T07:02:13Z</time>
      </trkpt>
      <trkpt lat="49.36241" lon="0.18696">
        <ele>135.3</ele>
        <time>2023-09-03T07:02:14Z</time>
      </trkpt>
      <trkpt lat="49.36246" lon="0.18707">
        <ele>135</ele>
        <time>2023-09-03T07:02:15Z</time>
      </trkpt>
      <trkpt lat="49.3625" lon="0.18719">
        <ele>134.6</ele>
        <time>2023-09-03T07:02:16Z</time>
      </trkpt>
      <trkpt lat="49.36254" lon="0.1873">
        <ele>134.2</ele>
        <time>2023-09-03T07:02:17Z</time>
      </trkpt>
      <trkpt lat="49.36259" lon="0.18743">
        <ele>133.8</ele>
        <time>2023-09-03T07:02:18Z</time>
      </trkpt>
      <trkpt lat="49.36264" lon="0.18755">
        <ele>133.5</ele>
        <time>2023-09-03T07:02:19Z</time>
      </trkpt>
      <trkpt lat="49.3627" lon="0.18768">
        <ele>133.2</ele>
        <time>2023-09-03T07:02:20Z</time>
      </trkpt>
      <trkpt lat="49.36274" lon="0.1878">
        <ele>132.9</ele>
        <time>2023-09-03T07:02:21Z</time>
      </trkpt>
      <trkpt lat="49.36278" lon="0.18793">
        <ele>132.7</ele>
        <time>2023-09-03T07:02:22Z</time>
      </trkpt>
      <trkpt lat="49.36283" lon="0.18804">
        <ele>132.5</ele>
        <time>2023-09-03T07:02:23Z</time>
      </trkpt>
      <trkpt lat="49.36287" lon="0.18817">
        <ele>132.2</ele>
        <time>2023-09-03T07:02:24Z</time>
      </trkpt>
      <trkpt lat="49.36292" lon="0.18829">
        <ele>132</ele>
        <time>2023-09-03T07:02:25Z</time>
      </trkpt>
      <trkpt lat="49.36296" lon="0.18841">
        <ele>131.8</ele>
        <time>2023-09-03T07:02:26Z</time>
      </trkpt>
      <trkpt lat="49.36301" lon="0.18853">
        <ele>131.6</ele>
        <time>2023-09-03T07:02:27Z</time>
      </trkpt>
      <trkpt lat="49.36305" lon="0.18865">
        <ele>131.4</ele>
        <time>2023-09-03T07:02:28Z</time>
      </trkpt>
      <trkpt lat="49.3631" lon="0.18877">
        <ele>131.2</ele>
        <time>2023-09-03T07:02:29Z</time>
      </trkpt>
      <trkpt lat="49.36315" lon="0.18889">
        <ele>130.9</ele>
        <time>2023-09-03T07:02:30Z</time>
      </trkpt>
      <trkpt lat="49.36319" lon="0.189">
        <ele>130.7</ele>
        <time>2023-09-03T07:02:31Z</time>
      </trkpt>
      <trkpt lat="49.36324" lon="0.18912">
        <ele>130.4</ele>
        <time>2023-09-03T07:02:32Z</time>
      </trkpt>
      <trkpt lat="49.36329" lon="0.18924">
        <ele>130.2</ele>
        <time>2023-09-03T07:02:33Z</time>
      </trkpt>
      <trkpt lat="49.36333" lon="0.18936">
        <ele>130</ele>
        <time>2023-09-03T07:02:34Z</time>
      </trkpt>
      <trkpt lat="49.36338" lon="0.18947">
        <ele>129.7</ele>
        <time>2023-09-03T07:02:35Z</time>
      </trkpt>
      <trkpt lat="49.36342" lon="0.18958">
        <ele>129.5</ele>
        <time>2023-09-03T07:02:36Z</time>
      </trkpt>
      <trkpt lat="49.36346" lon="0.18969">
        <ele>129.2</ele>
        <time>2023-09-03T07:02:37Z</time>
      </trkpt>
      <trkpt lat="49.36349" lon="0.18979">
        <ele>129</ele>
        <time>2023-09-03T07:02:38Z</time>
      </trkpt>
      <trkpt lat="49.36353" lon="0.18989">
        <ele>128.8</ele>
        <time>2023-09-03T07:02:39Z</time>
      </trkpt>
      <trkpt lat="49.36357" lon="0.19">
        <ele>128.6</ele>
        <time>2023-09-03T07:02:40Z</time>
      </trkpt>
      <trkpt lat="49.3636" lon="0.19011">
        <ele>128.5</ele>
        <time>2023-09-03T07:02:41Z</time>
      </trkpt>
      <trkpt lat="49.36365" lon="0.19021">
        <ele>128.3</ele>
        <time>2023-09-03T07:02:42Z</time>
      </trkpt>
      <trkpt lat="49.36369" lon="0.1903">
        <ele>128.2</ele>
        <time>2023-09-03T07:02:43Z</time>
      </trkpt>
      <trkpt lat="49.36373" lon="0.19041">
        <ele>128.1</ele>
        <time>2023-09-03T07:02:44Z</time>
      </trkpt>
      <trkpt lat="49.36377" lon="0.19052">
        <ele>128.1</ele>
        <time>2023-09-03T07:02:45Z</time>
      </trkpt>
      <trkpt lat="49.36379" lon="0.19064">
        <ele>128.1</ele>
        <time>2023-09-03T07:02:46Z</time>
      </trkpt>
      <trkpt lat="49.36379" lon="0.19075">
        <ele>128.1</ele>
        <time>2023-09-03T07:02:47Z</time>
      </trkpt>
      <trkpt lat="49.36378" lon="0.19087">
        <ele>128.2</ele>
        <time>2023-09-03T07:02:48Z</time>
      </trkpt>
      <trkpt lat="49.36375" lon="0.19097">
        <ele>128.3</ele>
        <time>2023-09-03T07:02:49Z</time>
      </trkpt>
      <trkpt lat="49.36372" lon="0.19108">
        <ele>128.4</ele>
        <time>2023-09-03T07:02:50Z</time>
      </trkpt>
      <trkpt lat="49.36368" lon="0.19118">
        <ele>128.5</ele>
        <time>2023-09-03T07:02:51Z</time>
      </trkpt>
      <trkpt lat="49.36365" lon="0.19129">
        <ele>128.7</ele>
        <time>2023-09-03T07:02:52Z</time>
      </trkpt>
      <trkpt lat="49.36362" lon="0.19139">
        <ele>128.9</ele>
        <time>2023-09-03T07:02:53Z</time>
      </trkpt>
      <trkpt lat="49.36359" lon="0.19149">
        <ele>129.2</ele>
        <time>2023-09-03T07:02:54Z</time>
      </trkpt>
      <trkpt lat="49.36356" lon="0.19158">
        <ele>129.4</ele>
        <time>2023-09-03T07:02:55Z</time>
      </trkpt>
      <trkpt lat="49.36353" lon="0.19167">
        <ele>129.6</ele>
        <time>2023-09-03T07:02:56Z</time>
      </trkpt>
      <trkpt lat="49.36351" lon="0.19176">
        <ele>129.9</ele>
        <time>2023-09-03T07:02:57Z</time>
      </trkpt>
      <trkpt lat="49.36349" lon="0.19186">
        <ele>130.2</ele>
        <time>2023-09-03T07:02:58Z</time>
      </trkpt>
      <trkpt lat="49.36346" lon="0.19195">
        <ele>130.5</ele>
        <time>2023-09-03T07:02:59Z</time>
      </trkpt>
      <trkpt lat="49.36343" lon="0.19205">
        <ele>130.7</ele>
        <time>2023-09-03T07:03:00Z</time>
      </trkpt>
      <trkpt lat="49.36341" lon="0.19214">
        <ele>131</ele>
        <time>2023-09-03T07:03:01Z</time>
      </trkpt>
      <trkpt lat="49.36338" lon="0.19223">
        <ele>131.2</ele>
        <time>2023-09-03T07:03:02Z</time>
      </trkpt>
      <trkpt lat="49.36335" lon="0.19233">
        <ele>131.4</ele>
        <time>2023-09-03T07:03:03Z</time>
      </trkpt>
      <trkpt lat="49.36332" lon="0.19243">
        <ele>131.5</ele>
        <time>2023-09-03T07:03:04Z</time>
      </trkpt>
      <trkpt lat="49.36329" lon="0.19252">
        <ele>131.7</ele>
        <time>2023-09-03T07:03:05Z</time>
      </trkpt>
      <trkpt lat="49.36326" lon="0.19262">
        <ele>131.9</ele>
        <time>2023-09-03T07:03:06Z</time>
      </trkpt>
      <trkpt lat="49.36324" lon="0.19271">
        <ele>132</ele>
        <time>2023-09-03T07:03:07Z</time>
      </trkpt>
      <trkpt lat="49.36321" lon="0.19281">
        <ele>132.1</ele>
        <time>2023-09-03T07:03:08Z</time>
      </trkpt>
      <trkpt lat="49.36319" lon="0.1929">
        <ele>132.2</ele>
        <time>2023-09-03T07:03:09Z</time>
      </trkpt>
      <trkpt lat="49.36317" lon="0.19299">
        <ele>132.3</ele>
        <time>2023-09-03T07:03:10Z</time>
      </trkpt>
      <trkpt lat="49.36315" lon="0.19308">
        <ele>132.4</ele>
        <time>2023-09-03T07:03:11Z</time>
      </trkpt>
      <trkpt lat="49.36313" lon="0.19317">
        <ele>132.4</ele>
        <time>2023-09-03T07:03:12Z</time>
      </trkpt>
      <trkpt lat="49.3631" lon="0.19326">
        <ele>132.4</ele>
        <time>2023-09-03T07:03:13Z</time>
      </trkpt>
      <trkpt lat="49.36307" lon="0.19335">
        <ele>132.4</ele>
        <time>2023-09-03T07:03:14Z</time>
      </trkpt>
      <trkpt lat="49.36304" lon="0.19344">
        <ele>132.3</ele>
        <time>2023-09-03T07:03:15Z</time>
      </trkpt>
      <trkpt lat="49.36301" lon="0.19353">
        <ele>132.3</ele>
        <time>2023-09-03T07:03:16Z</time>
      </trkpt>
      <trkpt lat="49.36299" lon="0.19363">
        <ele>132.2</ele>
        <time>2023-09-03T07:03:17Z</time>
      </trkpt>
      <trkpt lat="49.36297" lon="0.19373">
        <ele>132.1</ele>
        <time>2023-09-03T07:03:18Z</time>
      </trkpt>
      <trkpt lat="49.36296" lon="0.19383">
        <ele>132</ele>
        <time>2023-09-03T07:03:19Z</time>
      </trkpt>
      <trkpt lat="49.36296" lon="0.19393">
        <ele>131.9</ele>
        <time>2023-09-03T07:03:20Z</time>
      </trkpt>
      <trkpt lat="49.36298" lon="0.19403">
        <ele>131.8</ele>
        <time>2023-09-03T07:03:21Z</time>
      </trkpt>
      <trkpt lat="49.363" lon="0.19412">
        <ele>131.6</ele>
        <time>2023-09-03T07:03:22Z</time>
      </trkpt>
      <trkpt lat="49.36303" lon="0.19422">
        <ele>131.5</ele>
        <time>2023-09-03T07:03:23Z</time>
      </trkpt>
      <trkpt lat="49.36306" lon="0.19431">
        <ele>131.4</ele>
        <time>2023-09-03T07:03:24Z</time>
      </trkpt>
      <trkpt lat="49.36309" lon="0.1944">
        <ele>131.2</ele>
        <time>2023-09-03T07:03:25Z</time>
      </trkpt>
      <trkpt lat="49.36312" lon="0.1945">
        <ele>131.1</ele>
        <time>2023-09-03T07:03:26Z</time>
      </trkpt>
      <trkpt lat="49.36316" lon="0.19459">
        <ele>130.9</ele>
        <time>2023-09-03T07:03:27Z</time>
      </trkpt>
      <trkpt lat="49.3632" lon="0.19469">
        <ele>130.7</ele>
        <time>2023-09-03T07:03:28Z</time>
      </trkpt>
      <trkpt lat="49.36324" lon="0.1948">
        <ele>130.5</ele>
        <time>2023-09-03T07:03:29Z</time>
      </trkpt>
      <trkpt lat="49.36328" lon="0.1949">
        <ele>130.3</ele>
        <time>2023-09-03T07:03:30Z</time>
      </trkpt>
      <trkpt lat="49.36333" lon="0.195">
        <ele>130.1</ele>
        <time>2023-09-03T07:03:31Z</time>
      </trkpt>
      <trkpt lat="49.36337" lon="0.19511">
        <ele>129.9</ele>
        <time>2023-09-03T07:03:32Z</time>
      </trkpt>
      <trkpt lat="49.36341" lon="0.19521">
        <ele>129.8</ele>
        <time>2023-09-03T07:03:33Z</time>
      </trkpt>
      <trkpt lat="49.36346" lon="0.19532">
        <ele>129.6</ele>
        <time>2023-09-03T07:03:34Z</time>
      </trkpt>
      <trkpt lat="49.3635" lon="0.19543">
        <ele>129.4</ele>
        <time>2023-09-03T07:03:35Z</time>
      </trkpt>
      <trkpt lat="49.36354" lon="0.19553">
        <ele>129.2</ele>
        <time>2023-09-03T07:03:36Z</time>
      </trkpt>
      <trkpt lat="49.36358" lon="0.19564">
        <ele>129.1</ele>
        <time>2023-09-03T07:03:37Z</time>
      </trkpt>
      <trkpt lat="49.36362" lon="0.19575">
        <ele>128.9</ele>
        <time>2023-09-03T07:03:38Z</time>
      </trkpt>
      <trkpt lat="49.36367" lon="0.19585">
        <ele>128.7</ele>
        <time>2023-09-03T07:03:39Z</time>
      </trkpt>
      <trkpt lat="49.3637" lon="0.19595">
        <ele>128.6</ele>
        <time>2023-09-03T07:03:40Z</time>
      </trkpt>
      <trkpt lat="49.36375" lon="0.19605">
        <ele>128.4</ele>
        <time>2023-09-03T07:03:41Z</time>
      </trkpt>
      <trkpt lat="49.36379" lon="0.19615">
        <ele>128.1</ele>
        <time>2023-09-03T07:03:42Z</time>
      </trkpt>
      <trkpt lat="49.36383" lon="0.19625">
        <ele>127.8</ele>
        <time>2023-09-03T07:03:43Z</time>
      </trkpt>
      <trkpt lat="49.36386" lon="0.19635">
        <ele>127.5</ele>
        <time>2023-09-03T07:03:44Z</time>
      </trkpt>
      <trkpt lat="49.36389" lon="0.19645">
        <ele>127.1</ele>
        <time>2023-09-03T07:03:45Z</time>
      </trkpt>
      <trkpt lat="49.36392" lon="0.19656">
        <ele>126.7</ele>
        <time>2023-09-03T07:03:46Z</time>
      </trkpt>
      <trkpt lat="49.36395" lon="0.19667">
        <ele>126.3</ele>
        <time>2023-09-03T07:03:47Z</time>
      </trkpt>
      <trkpt lat="49.36397" lon="0.19678">
        <ele>126.1</ele>
        <time>2023-09-03T07:03:48Z</time>
      </trkpt>
      <trkpt lat="49.36399" lon="0.19689">
        <ele>125.8</ele>
        <time>2023-09-03T07:03:49Z</time>
      </trkpt>
      <trkpt lat="49.36402" lon="0.197">
        <ele>125.5</ele>
        <time>2023-09-03T07:03:50Z</time>
      </trkpt>
      <trkpt lat="49.36404" lon="0.19712">
        <ele>125.2</ele>
        <time>2023-09-03T07:03:51Z</time>
      </trkpt>
      <trkpt lat="49.36407" lon="0.19725">
        <ele>124.9</ele>
        <time>2023-09-03T07:03:52Z</time>
      </trkpt>
      <trkpt lat="49.3641" lon="0.19737">
        <ele>124.6</ele>
        <time>2023-09-03T07:03:53Z</time>
      </trkpt>
      <trkpt lat="49.36414" lon="0.1975">
        <ele>124.2</ele>
        <time>2023-09-03T07:03:54Z</time>
      </trkpt>
      <trkpt lat="49.36418" lon="0.19762">
        <ele>123.9</ele>
        <time>2023-09-03T07:03:55Z</time>
      </trkpt>
      <trkpt lat="49.36421" lon="0.19775">
        <ele>123.7</ele>
        <time>2023-09-03T07:03:56Z</time>
      </trkpt>
      <trkpt lat="49.36424" lon="0.19788">
        <ele>123.3</ele>
        <time>2023-09-03T07:03:57Z</time>
      </trkpt>
      <trkpt lat="49.36428" lon="0.19801">
        <ele>123</ele>
        <time>2023-09-03T07:03:58Z</time>
      </trkpt>
      <trkpt lat="49.36432" lon="0.19814">
        <ele>122.5</ele>
        <time>2023-09-03T07:03:59Z</time>
      </trkpt>
      <trkpt lat="49.36435" lon="0.19826">
        <ele>122.1</ele>
        <time>2023-09-03T07:04:00Z</time>
      </trkpt>
      <trkpt lat="49.36439" lon="0.19839">
        <ele>121.6</ele>
        <time>2023-09-03T07:04:01Z</time>
      </trkpt>
      <trkpt lat="49.36442" lon="0.19852">
        <ele>121.2</ele>
        <time>2023-09-03T07:04:02Z</time>
      </trkpt>
      <trkpt lat="49.36443" lon="0.19866">
        <ele>120.9</ele>
        <time>2023-09-03T07:04:03Z</time>
      </trkpt>
      <trkpt lat="49.36443" lon="0.1988">
        <ele>120.8</ele>
        <time>2023-09-03T07:04:04Z</time>
      </trkpt>
      <trkpt lat="49.36442" lon="0.19894">
        <ele>120.9</ele>
        <time>2023-09-03T07:04:05Z</time>
      </trkpt>
      <trkpt lat="49.36441" lon="0.19906">
        <ele>121</ele>
        <time>2023-09-03T07:04:06Z</time>
      </trkpt>
      <trkpt lat="49.36439" lon="0.19919">
        <ele>121.2</ele>
        <time>2023-09-03T07:04:07Z</time>
      </trkpt>
      <trkpt lat="49.36437" lon="0.19931">
        <ele>121.5</ele>
        <time>2023-09-03T07:04:08Z</time>
      </trkpt>
      <trkpt lat="49.36435" lon="0.19943">
        <ele>121.8</ele>
        <time>2023-09-03T07:04:09Z</time>
      </trkpt>
      <trkpt lat="49.36433" lon="0.19955">
        <ele>122.2</ele>
        <time>2023-09-03T07:04:10Z</time>
      </trkpt>
      <trkpt lat="49.36431" lon="0.19966">
        <ele>122.6</ele>
        <time>2023-09-03T07:04:11Z</time>
      </trkpt>
      <trkpt lat="49.36429" lon="0.19977">
        <ele>123</ele>
        <time>2023-09-03T07:04:12Z</time>
      </trkpt>
      <trkpt lat="49.36427" lon="0.19987">
        <ele>123.4</ele>
        <time>2023-09-03T07:04:13Z</time>
      </trkpt>
      <trkpt lat="49.36425" lon="0.19997">
        <ele>123.8</ele>
        <time>2023-09-03T07:04:14Z</time>
      </trkpt>
      <trkpt lat="49.36424" lon="0.20006">
        <ele>124.3</ele>
        <time>2023-09-03T07:04:15Z</time>
      </trkpt>
      <trkpt lat="49.36422" lon="0.20015">
        <ele>124.8</ele>
        <time>2023-09-03T07:04:16Z</time>
      </trkpt>
      <trkpt lat="49.36421" lon="0.20024">
        <ele>125.3</ele>
        <time>2023-09-03T07:04:17Z</time>
      </trkpt>
      <trkpt lat="49.3642" lon="0.20032">
        <ele>125.8</ele>
        <time>2023-09-03T07:04:18Z</time>
      </trkpt>
      <trkpt lat="49.36419" lon="0.2004">
        <ele>126.2</ele>
        <time>2023-09-03T07:04:19Z</time>
      </trkpt>
      <trkpt lat="49.36418" lon="0.20047">
        <ele>126.6</ele>
        <time>2023-09-03T07:04:20Z</time>
      </trkpt>
      <trkpt lat="49.36417" lon="0.20053">
        <ele>126.9</ele>
        <time>2023-09-03T07:04:21Z</time>
      </trkpt>
      <trkpt lat="49.36416" lon="0.20058">
        <ele>127.3</ele>
        <time>2023-09-03T07:04:22Z</time>
      </trkpt>
      <trkpt lat="49.36415" lon="0.20064">
        <ele>127.6</ele>
        <time>2023-09-03T07:04:23Z</time>
      </trkpt>
      <trkpt lat="49.36414" lon="0.20069">
        <ele>127.8</ele>
        <time>2023-09-03T07:04:24Z</time>
      </trkpt>
      <trkpt lat="49.36413" lon="0.20074">
        <ele>128</ele>
        <time>2023-09-03T07:04:25Z</time>
      </trkpt>
      <trkpt lat="49.36413" lon="0.20078">
        <ele>128.3</ele>
        <time>2023-09-03T07:04:26Z</time>
      </trkpt>
      <trkpt lat="49.36412" lon="0.20083">
        <ele>128.4</ele>
        <time>2023-09-03T07:04:27Z</time>
      </trkpt>
      <trkpt lat="49.36411" lon="0.20088">
        <ele>128.7</ele>
        <time>2023-09-03T07:04:28Z</time>
      </trkpt>
      <trkpt lat="49.36411" lon="0.2009">
        <ele>128.8</ele>
        <time>2023-09-03T07:04:29Z</time>
      </trkpt>
      <trkpt lat="49.3641" lon="0.20096">
        <ele>129</ele>
        <time>2023-09-03T07:04:30Z</time>
      </trkpt>
      <trkpt lat="49.3641" lon="0.20097">
        <ele>129</ele>
        <time>2023-09-03T07:04:31Z</time>
      </trkpt>
      <trkpt lat="49.36409" lon="0.201">
        <ele>129.1</ele>
        <time>2023-09-03T07:04:32Z</time>
      </trkpt>
      <trkpt lat="49.36409" lon="0.20101">
        <ele>129.2</ele>
        <time>2023-09-03T07:04:33Z</time>
      </trkpt>
      <trkpt lat="49.36409" lon="0.20103">
        <ele>129.2</ele>
        <time>2023-09-03T07:04:34Z</time>
      </trkpt>
      <trkpt lat="49.36408" lon="0.20104">
        <ele>129.3</ele>
        <time>2023-09-03T07:04:35Z</time>
      </trkpt>
      <trkpt lat="49.36408" lon="0.20106">
        <ele>129.3</ele>
        <time>2023-09-03T07:04:36Z</time>
      </trkpt>
      <trkpt lat="49.36407" lon="0.20108">
        <ele>129.4</ele>
        <time>2023-09-03T07:04:37Z</time>
      </trkpt>
      <trkpt lat="49.36407" lon="0.20111">
        <ele>129.5</ele>
        <time>2023-09-03T07:04:38Z</time>
      </trkpt>
      <trkpt lat="49.36406" lon="0.20113">
        <ele>129.6</ele>
        <time>2023-09-03T07:04:39Z</time>
      </trkpt>
      <trkpt lat="49.36405" lon="0.20115">
        <ele>129.6</ele>
        <time>2023-09-03T07:04:40Z</time>
      </trkpt>
      <trkpt lat="49.36405" lon="0.20117">
        <ele>129.7</ele>
        <time>2023-09-03T07:04:41Z</time>
      </trkpt>
      <trkpt lat="49.36405" lon="0.2012">
        <ele>129.7</ele>
        <time>2023-09-03T07:04:42Z</time>
      </trkpt>
      <trkpt lat="49.36404" lon="0.20123">
        <ele>129.8</ele>
        <time>2023-09-03T07:04:43Z</time>
      </trkpt>
      <trkpt lat="49.36404" lon="0.20124">
        <ele>129.9</ele>
        <time>2023-09-03T07:04:44Z</time>
      </trkpt>
      <trkpt lat="49.36404" lon="0.20126">
        <ele>129.9</ele>
        <time>2023-09-03T07:04:45Z</time>
      </trkpt>
      <trkpt lat="49.36405" lon="0.2013">
        <ele>130</ele>
        <time>2023-09-03T07:04:46Z</time>
      </trkpt>
      <trkpt lat="49.36406" lon="0.20131">
        <ele>130</ele>
        <time>2023-09-03T07:04:47Z</time>
      </trkpt>
      <trkpt lat="49.36407" lon="0.20135">
        <ele>129.9</ele>
        <time>2023-09-03T07:04:48Z</time>
      </trkpt>
      <trkpt lat="49.36408" lon="0.20136">
        <ele>129.9</ele>
        <time>2023-09-03T07:04:49Z</time>
      </trkpt>
      <trkpt lat="49.36411" lon="0.2014">
        <ele>129.8</ele>
        <time>2023-09-03T07:04:50Z</time>
      </trkpt>
      <trkpt lat="49.36412" lon="0.20142">
        <ele>129.8</ele>
        <time>2023-09-03T07:04:51Z</time>
      </trkpt>
      <trkpt lat="49.36415" lon="0.20144">
        <ele>129.7</ele>
        <time>2023-09-03T07:04:52Z</time>
      </trkpt>
      <trkpt lat="49.3642" lon="0.20148">
        <ele>129.6</ele>
        <time>2023-09-03T07:04:53Z</time>
      </trkpt>
      <trkpt lat="49.36425" lon="0.20151">
        <ele>129.5</ele>
        <time>2023-09-03T07:04:54Z</time>
      </trkpt>
      <trkpt lat="49.36431" lon="0.20153">
        <ele>129.4</ele>
        <time>2023-09-03T07:04:55Z</time>
      </trkpt>
      <trkpt lat="49.36437" lon="0.20157">
        <ele>129.3</ele>
        <time>2023-09-03T07:04:56Z</time>
      </trkpt>
      <trkpt lat="49.36443" lon="0.2016">
        <ele>129.2</ele>
        <time>2023-09-03T07:04:57Z</time>
      </trkpt>
      <trkpt lat="49.36448" lon="0.20164">
        <ele>129.2</ele>
        <time>2023-09-03T07:04:58Z</time>
      </trkpt>
      <trkpt lat="49.36453" lon="0.20168">
        <ele>129.1</ele>
        <time>2023-09-03T07:04:59Z</time>
      </trkpt>
      <trkpt lat="49.36458" lon="0.20171">
        <ele>129.1</ele>
        <time>2023-09-03T07:05:00Z</time>
      </trkpt>
      <trkpt lat="49.36464" lon="0.20175">
        <ele>129</ele>
        <time>2023-09-03T07:05:01Z</time>
      </trkpt>
      <trkpt lat="49.3647" lon="0.20178">
        <ele>129</ele>
        <time>2023-09-03T07:05:02Z</time>
      </trkpt>
      <trkpt lat="49.36477" lon="0.20182">
        <ele>128.9</ele>
        <time>2023-09-03T07:05:03Z</time>
      </trkpt>
      <trkpt lat="49.36484" lon="0.20187">
        <ele>128.8</ele>
        <time>2023-09-03T07:05:04Z</time>
      </trkpt>
      <trkpt lat="49.3649" lon="0.20191">
        <ele>128.8</ele>
        <time>2023-09-03T07:05:05Z</time>
      </trkpt>
      <trkpt lat="49.36497" lon="0.20195">
        <ele>128.7</ele>
        <time>2023-09-03T07:05:06Z</time>
      </trkpt>
      <trkpt lat="49.36504" lon="0.202">
        <ele>128.7</ele>
        <time>2023-09-03T07:05:07Z</time>
      </trkpt>
      <trkpt lat="49.36511" lon="0.20205">
        <ele>128.6</ele>
        <time>2023-09-03T07:05:08Z</time>
      </trkpt>
      <trkpt lat="49.36518" lon="0.20209">
        <ele>128.5</ele>
        <time>2023-09-03T07:05:09Z</time>
      </trkpt>
      <trkpt lat="49.36525" lon="0.20213">
        <ele>128.5</ele>
        <time>2023-09-03T07:05:10Z</time>
      </trkpt>
      <trkpt lat="49.36532" lon="0.20217">
        <ele>128.4</ele>
        <time>2023-09-03T07:05:11Z</time>
      </trkpt>
      <trkpt lat="49.36539" lon="0.20222">
        <ele>128.4</ele>
        <time>2023-09-03T07:05:12Z</time>
      </trkpt>
      <trkpt lat="49.36546" lon="0.20226">
        <ele>128.4</ele>
        <time>2023-09-03T07:05:13Z</time>
      </trkpt>
      <trkpt lat="49.36553" lon="0.20231">
        <ele>128.3</ele>
        <time>2023-09-03T07:05:14Z</time>
      </trkpt>
      <trkpt lat="49.36561" lon="0.20236">
        <ele>128.3</ele>
        <time>2023-09-03T07:05:15Z</time>
      </trkpt>
      <trkpt lat="49.36568" lon="0.2024">
        <ele>128.2</ele>
        <time>2023-09-03T07:05:16Z</time>
      </trkpt>
      <trkpt lat="49.36575" lon="0.20245">
        <ele>128.2</ele>
        <time>2023-09-03T07:05:17Z</time>
      </trkpt>
      <trkpt lat="49.36583" lon="0.2025">
        <ele>128.1</ele>
        <time>2023-09-03T07:05:18Z</time>
      </trkpt>
      <trkpt lat="49.3659" lon="0.20255">
        <ele>128</ele>
        <time>2023-09-03T07:05:19Z</time>
      </trkpt>
      <trkpt lat="49.36597" lon="0.2026">
        <ele>127.9</ele>
        <time>2023-09-03T07:05:20Z</time>
      </trkpt>
      <trkpt lat="49.36604" lon="0.20264">
        <ele>127.9</ele>
        <time>2023-09-03T07:05:21Z</time>
      </trkpt>
      <trkpt lat="49.36611" lon="0.20268">
        <ele>127.8</ele>
        <time>2023-09-03T07:05:22Z</time>
      </trkpt>
      <trkpt lat="49.36618" lon="0.20272">
        <ele>127.8</ele>
        <time>2023-09-03T07:05:23Z</time>
      </trkpt>
      <trkpt lat="49.36625" lon="0.20276">
        <ele>127.7</ele>
        <time>2023-09-03T07:05:24Z</time>
      </trkpt>
      <trkpt lat="49.36632" lon="0.20281">
        <ele>127.6</ele>
        <time>2023-09-03T07:05:25Z</time>
      </trkpt>
      <trkpt lat="49.36639" lon="0.20286">
        <ele>127.5</ele>
        <time>2023-09-03T07:05:26Z</time>
      </trkpt>
      <trkpt lat="49.36646" lon="0.20291">
        <ele>127.5</ele>
        <time>2023-09-03T07:05:27Z</time>
      </trkpt>
      <trkpt lat="49.36653" lon="0.20295">
        <ele>127.4</ele>
        <time>2023-09-03T07:05:28Z</time>
      </trkpt>
      <trkpt lat="49.3666" lon="0.203">
        <ele>127.4</ele>
        <time>2023-09-03T07:05:29Z</time>
      </trkpt>
      <trkpt lat="49.36667" lon="0.20304">
        <ele>127.4</ele>
        <time>2023-09-03T07:05:30Z</time>
      </trkpt>
      <trkpt lat="49.36674" lon="0.20308">
        <ele>127.4</ele>
        <time>2023-09-03T07:05:31Z</time>
      </trkpt>
      <trkpt lat="49.36681" lon="0.20312">
        <ele>127.3</ele>
        <time>2023-09-03T07:05:32Z</time>
      </trkpt>
      <trkpt lat="49.36687" lon="0.20317">
        <ele>127.3</ele>
        <time>2023-09-03T07:05:33Z</time>
      </trkpt>
      <trkpt lat="49.36693" lon="0.20321">
        <ele>127.3</ele>
        <time>2023-09-03T07:05:34Z</time>
      </trkpt>
      <trkpt lat="49.367" lon="0.20326">
        <ele>127.2</ele>
        <time>2023-09-03T07:05:35Z</time>
      </trkpt>
      <trkpt lat="49.36706" lon="0.2033">
        <ele>127.2</ele>
        <time>2023-09-03T07:05:36Z</time>
      </trkpt>
      <trkpt lat="49.36711" lon="0.20334">
        <ele>127.2</ele>
        <time>2023-09-03T07:05:37Z</time>
      </trkpt>
      <trkpt lat="49.36717" lon="0.20338">
        <ele>127.2</ele>
        <time>2023-09-03T07:05:38Z</time>
      </trkpt>
      <trkpt lat="49.36722" lon="0.20341">
        <ele>127.2</ele>
        <time>2023-09-03T07:05:39Z</time>
      </trkpt>
      <trkpt lat="49.36726" lon="0.20346">
        <ele>127.3</ele>
        <time>2023-09-03T07:05:40Z</time>
      </trkpt>
      <trkpt lat="49.36729" lon="0.20352">
        <ele>127.3</ele>
        <time>2023-09-03T07:05:41Z</time>
      </trkpt>
      <trkpt lat="49.3673" lon="0.20359">
        <ele>127.1</ele>
        <time>2023-09-03T07:05:42Z</time>
      </trkpt>
      <trkpt lat="49.3673" lon="0.20366">
        <ele>126.9</ele>
        <time>2023-09-03T07:05:43Z</time>
      </trkpt>
      <trkpt lat="49.36729" lon="0.20374">
        <ele>126.7</ele>
        <time>2023-09-03T07:05:44Z</time>
      </trkpt>
      <trkpt lat="49.36728" lon="0.20381">
        <ele>126.6</ele>
        <time>2023-09-03T07:05:45Z</time>
      </trkpt>
      <trkpt lat="49.36726" lon="0.20389">
        <ele>126.5</ele>
        <time>2023-09-03T07:05:46Z</time>
      </trkpt>
      <trkpt lat="49.36724" lon="0.20396">
        <ele>126.4</ele>
        <time>2023-09-03T07:05:47Z</time>
      </trkpt>
      <trkpt lat="49.36722" lon="0.20404">
        <ele>126.3</ele>
        <time>2023-09-03T07:05:48Z</time>
      </trkpt>
      <trkpt lat="49.36721" lon="0.20413">
        <ele>126.3</ele>
        <time>2023-09-03T07:05:49Z</time>
      </trkpt>
      <trkpt lat="49.36719" lon="0.20421">
        <ele>126.3</ele>
        <time>2023-09-03T07:05:50Z</time>
      </trkpt>
      <trkpt lat="49.36717" lon="0.20431">
        <ele>126.4</ele>
        <time>2023-09-03T07:05:51Z</time>
      </trkpt>
      <trkpt lat="49.36716" lon="0.2044">
        <ele>126.4</ele>
        <time>2023-09-03T07:05:52Z</time>
      </trkpt>
      <trkpt lat="49.36714" lon="0.20448">
        <ele>126.5</ele>
        <time>2023-09-03T07:05:53Z</time>
      </trkpt>
      <trkpt lat="49.36713" lon="0.20457">
        <ele>126.6</ele>
        <time>2023-09-03T07:05:54Z</time>
      </trkpt>
      <trkpt lat="49.36711" lon="0.20467">
        <ele>126.7</ele>
        <time>2023-09-03T07:05:55Z</time>
      </trkpt>
      <trkpt lat="49.36709" lon="0.20476">
        <ele>126.8</ele>
        <time>2023-09-03T07:05:56Z</time>
      </trkpt>
      <trkpt lat="49.36707" lon="0.20486">
        <ele>126.9</ele>
        <time>2023-09-03T07:05:57Z</time>
      </trkpt>
      <trkpt lat="49.36706" lon="0.20496">
        <ele>127</ele>
        <time>2023-09-03T07:05:58Z</time>
      </trkpt>
      <trkpt lat="49.36704" lon="0.20507">
        <ele>127</ele>
        <time>2023-09-03T07:05:59Z</time>
      </trkpt>
      <trkpt lat="49.36703" lon="0.20517">
        <ele>127.2</ele>
        <time>2023-09-03T07:06:00Z</time>
      </trkpt>
      <trkpt lat="49.36701" lon="0.20526">
        <ele>127.3</ele>
        <time>2023-09-03T07:06:01Z</time>
      </trkpt>
      <trkpt lat="49.367" lon="0.20536">
        <ele>127.4</ele>
        <time>2023-09-03T07:06:02Z</time>
      </trkpt>
      <trkpt lat="49.36698" lon="0.20545">
        <ele>127.5</ele>
        <time>2023-09-03T07:06:03Z</time>
      </trkpt>
      <trkpt lat="49.36697" lon="0.20554">
        <ele>127.6</ele>
        <time>2023-09-03T07:06:04Z</time>
      </trkpt>
      <trkpt lat="49.36695" lon="0.20562">
        <ele>127.6</ele>
        <time>2023-09-03T07:06:05Z</time>
      </trkpt>
      <trkpt lat="49.36693" lon="0.2057">
        <ele>127.7</ele>
        <time>2023-09-03T07:06:06Z</time>
      </trkpt>
      <trkpt lat="49.36692" lon="0.20579">
        <ele>127.8</ele>
        <time>2023-09-03T07:06:07Z</time>
      </trkpt>
      <trkpt lat="49.3669" lon="0.20587">
        <ele>127.9</ele>
        <time>2023-09-03T07:06:08Z</time>
      </trkpt>
      <trkpt lat="49.36689" lon="0.20596">
        <ele>128</ele>
        <time>2023-09-03T07:06:09Z</time>
      </trkpt>
      <trkpt lat="49.36688" lon="0.20604">
        <ele>128</ele>
        <time>2023-09-03T07:06:10Z</time>
      </trkpt>
      <trkpt lat="49.36686" lon="0.20613">
        <ele>128.1</ele>
        <time>2023-09-03T07:06:11Z</time>
      </trkpt>
      <trkpt lat="49.36685" lon="0.20622">
        <ele>128.2</ele>
        <time>2023-09-03T07:06:12Z</time>
      </trkpt>
      <trkpt lat="49.36683" lon="0.20631">
        <ele>128.2</ele>
        <time>2023-09-03T07:06:13Z</time>
      </trkpt>
      <trkpt lat="49.36682" lon="0.2064">
        <ele>128.3</ele>
        <time>2023-09-03T07:06:14Z</time>
      </trkpt>
      <trkpt lat="49.3668" lon="0.20649">
        <ele>128.4</ele>
        <time>2023-09-03T07:06:15Z</time>
      </trkpt>
      <trkpt lat="49.36679" lon="0.20658">
        <ele>128.5</ele>
        <time>2023-09-03T07:06:16Z</time>
      </trkpt>
      <trkpt lat="49.36677" lon="0.20667">
        <ele>128.5</ele>
        <time>2023-09-03T07:06:17Z</time>
      </trkpt>
      <trkpt lat="49.36676" lon="0.20677">
        <ele>128.6</ele>
        <time>2023-09-03T07:06:18Z</time>
      </trkpt>
      <trkpt lat="49.36675" lon="0.20686">
        <ele>128.6</ele>
        <time>2023-09-03T07:06:19Z</time>
      </trkpt>
      <trkpt lat="49.36673" lon="0.20696">
        <ele>128.7</ele>
        <time>2023-09-03T07:06:20Z</time>
      </trkpt>
      <trkpt lat="49.36671" lon="0.20705">
        <ele>128.8</ele>
        <time>2023-09-03T07:06:21Z</time>
      </trkpt>
      <trkpt lat="49.3667" lon="0.20715">
        <ele>128.9</ele>
        <time>2023-09-03T07:06:22Z</time>
      </trkpt>
      <trkpt lat="49.36668" lon="0.20725">
        <ele>129</ele>
        <time>2023-09-03T07:06:23Z</time>
      </trkpt>
      <trkpt lat="49.36667" lon="0.20735">
        <ele>129.1</ele>
        <time>2023-09-03T07:06:24Z</time>
      </trkpt>
      <trkpt lat="49.36665" lon="0.20745">
        <ele>129.2</ele>
        <time>2023-09-03T07:06:25Z</time>
      </trkpt>
      <trkpt lat="49.36663" lon="0.20755">
        <ele>129.2</ele>
        <time>2023-09-03T07:06:26Z</time>
      </trkpt>
      <trkpt lat="49.36661" lon="0.20765">
        <ele>129.3</ele>
        <time>2023-09-03T07:06:27Z</time>
      </trkpt>
      <trkpt lat="49.36659" lon="0.20775">
        <ele>129.4</ele>
        <time>2023-09-03T07:06:28Z</time>
      </trkpt>
      <trkpt lat="49.36658" lon="0.20785">
        <ele>129.5</ele>
        <time>2023-09-03T07:06:29Z</time>
      </trkpt>
      <trkpt lat="49.36656" lon="0.20795">
        <ele>129.6</ele>
        <time>2023-09-03T07:06:30Z</time>
      </trkpt>
      <trkpt lat="49.36654" lon="0.20806">
        <ele>129.7</ele>
        <time>2023-09-03T07:06:31Z</time>
      </trkpt>
      <trkpt lat="49.36652" lon="0.20816">
        <ele>129.8</ele>
        <time>2023-09-03T07:06:32Z</time>
      </trkpt>
      <trkpt lat="49.36651" lon="0.20827">
        <ele>129.9</ele>
        <time>2023-09-03T07:06:33Z</time>
      </trkpt>
      <trkpt lat="49.36649" lon="0.20837">
        <ele>129.9</ele>
        <time>2023-09-03T07:06:34Z</time>
      </trkpt>
      <trkpt lat="49.36648" lon="0.20847">
        <ele>130</ele>
        <time>2023-09-03T07:06:35Z</time>
      </trkpt>
      <trkpt lat="49.36646" lon="0.20858">
        <ele>130.1</ele>
        <time>2023-09-03T07:06:36Z</time>
      </trkpt>
      <trkpt lat="49.36644" lon="0.20868">
        <ele>130.2</ele>
        <time>2023-09-03T07:06:37Z</time>
      </trkpt>
      <trkpt lat="49.36643" lon="0.20878">
        <ele>130.4</ele>
        <time>2023-09-03T07:06:38Z</time>
      </trkpt>
      <trkpt lat="49.36641" lon="0.20888">
        <ele>130.5</ele>
        <time>2023-09-03T07:06:39Z</time>
      </trkpt>
      <trkpt lat="49.3664" lon="0.20897">
        <ele>130.6</ele>
        <time>2023-09-03T07:06:40Z</time>
      </trkpt>
      <trkpt lat="49.36638" lon="0.20906">
        <ele>130.6</ele>
        <time>2023-09-03T07:06:41Z</time>
      </trkpt>
      <trkpt lat="49.36636" lon="0.20916">
        <ele>130.7</ele>
        <time>2023-09-03T07:06:42Z</time>
      </trkpt>
      <trkpt lat="49.36634" lon="0.20925">
        <ele>130.8</ele>
        <time>2023-09-03T07:06:43Z</time>
      </trkpt>
      <trkpt lat="49.36633" lon="0.20935">
        <ele>130.9</ele>
        <time>2023-09-03T07:06:44Z</time>
      </trkpt>
      <trkpt lat="49.36632" lon="0.20945">
        <ele>131</ele>
        <time>2023-09-03T07:06:45Z</time>
      </trkpt>
      <trkpt lat="49.3663" lon="0.20955">
        <ele>131</ele>
        <time>2023-09-03T07:06:46Z</time>
      </trkpt>
      <trkpt lat="49.36629" lon="0.20965">
        <ele>131.1</ele>
        <time>2023-09-03T07:06:47Z</time>
      </trkpt>
      <trkpt lat="49.36627" lon="0.20974">
        <ele>131.2</ele>
        <time>2023-09-03T07:06:48Z</time>
      </trkpt>
      <trkpt lat="49.36625" lon="0.20984">
        <ele>131.2</ele>
        <time>2023-09-03T07:06:49Z</time>
      </trkpt>
      <trkpt lat="49.36623" lon="0.20993">
        <ele>131.3</ele>
        <time>2023-09-03T07:06:50Z</time>
      </trkpt>
      <trkpt lat="49.36622" lon="0.21003">
        <ele>131.3</ele>
        <time>2023-09-03T07:06:51Z</time>
      </trkpt>
      <trkpt lat="49.3662" lon="0.21012">
        <ele>131.3</ele>
        <time>2023-09-03T07:06:52Z</time>
      </trkpt>
      <trkpt lat="49.36618" lon="0.21022">
        <ele>131.3</ele>
        <time>2023-09-03T07:06:53Z</time>
      </trkpt>
      <trkpt lat="49.36617" lon="0.21032">
        <ele>131.4</ele>
        <time>2023-09-03T07:06:54Z</time>
      </trkpt>
      <trkpt lat="49.36615" lon="0.21041">
        <ele>131.4</ele>
        <time>2023-09-03T07:06:55Z</time>
      </trkpt>
      <trkpt lat="49.36613" lon="0.21051">
        <ele>131.4</ele>
        <time>2023-09-03T07:06:56Z</time>
      </trkpt>
      <trkpt lat="49.36611" lon="0.21061">
        <ele>131.2</ele>
        <time>2023-09-03T07:06:57Z</time>
      </trkpt>
      <trkpt lat="49.3661" lon="0.21071">
        <ele>131.1</ele>
        <time>2023-09-03T07:06:58Z</time>
      </trkpt>
      <trkpt lat="49.36608" lon="0.21082">
        <ele>131.1</ele>
        <time>2023-09-03T07:06:59Z</time>
      </trkpt>
      <trkpt lat="49.36606" lon="0.21092">
        <ele>131</ele>
        <time>2023-09-03T07:07:00Z</time>
      </trkpt>
      <trkpt lat="49.36604" lon="0.21102">
        <ele>130.9</ele>
        <time>2023-09-03T07:07:01Z</time>
      </trkpt>
      <trkpt lat="49.36602" lon="0.21112">
        <ele>130.9</ele>
        <time>2023-09-03T07:07:02Z</time>
      </trkpt>
      <trkpt lat="49.366" lon="0.21122">
        <ele>130.8</ele>
        <time>2023-09-03T07:07:03Z</time>
      </trkpt>
      <trkpt lat="49.36599" lon="0.21133">
        <ele>130.7</ele>
        <time>2023-09-03T07:07:04Z</time>
      </trkpt>
      <trkpt lat="49.36597" lon="0.21143">
        <ele>130.7</ele>
        <time>2023-09-03T07:07:05Z</time>
      </trkpt>
      <trkpt lat="49.36596" lon="0.21154">
        <ele>130.6</ele>
        <time>2023-09-03T07:07:06Z</time>
      </trkpt>
      <trkpt lat="49.36594" lon="0.21164">
        <ele>130.5</ele>
        <time>2023-09-03T07:07:07Z</time>
      </trkpt>
      <trkpt lat="49.36592" lon="0.21175">
        <ele>130.4</ele>
        <time>2023-09-03T07:07:08Z</time>
      </trkpt>
      <trkpt lat="49.3659" lon="0.21185">
        <ele>130.3</ele>
        <time>2023-09-03T07:07:09Z</time>
      </trkpt>
      <trkpt lat="49.36589" lon="0.21196">
        <ele>130.1</ele>
        <time>2023-09-03T07:07:10Z</time>
      </trkpt>
      <trkpt lat="49.36587" lon="0.21207">
        <ele>130</ele>
        <time>2023-09-03T07:07:11Z</time>
      </trkpt>
      <trkpt lat="49.36585" lon="0.21218">
        <ele>129.9</ele>
        <time>2023-09-03T07:07:12Z</time>
      </trkpt>
      <trkpt lat="49.36583" lon="0.21229">
        <ele>129.7</ele>
        <time>2023-09-03T07:07:13Z</time>
      </trkpt>
      <trkpt lat="49.36581" lon="0.2124">
        <ele>129.6</ele>
        <time>2023-09-03T07:07:14Z</time>
      </trkpt>
      <trkpt lat="49.3658" lon="0.21251">
        <ele>129.5</ele>
        <time>2023-09-03T07:07:15Z</time>
      </trkpt>
      <trkpt lat="49.36578" lon="0.21261">
        <ele>129.3</ele>
        <time>2023-09-03T07:07:16Z</time>
      </trkpt>
      <trkpt lat="49.36576" lon="0.21272">
        <ele>129.2</ele>
        <time>2023-09-03T07:07:17Z</time>
      </trkpt>
      <trkpt lat="49.36574" lon="0.21283">
        <ele>129</ele>
        <time>2023-09-03T07:07:18Z</time>
      </trkpt>
      <trkpt lat="49.36573" lon="0.21294">
        <ele>128.8</ele>
        <time>2023-09-03T07:07:19Z</time>
      </trkpt>
      <trkpt lat="49.36571" lon="0.21306">
        <ele>128.6</ele>
        <time>2023-09-03T07:07:20Z</time>
      </trkpt>
      <trkpt lat="49.36569" lon="0.21317">
        <ele>128.4</ele>
        <time>2023-09-03T07:07:21Z</time>
      </trkpt>
      <trkpt lat="49.36567" lon="0.21328">
        <ele>128.2</ele>
        <time>2023-09-03T07:07:22Z</time>
      </trkpt>
      <trkpt lat="49.36565" lon="0.21339">
        <ele>128</ele>
        <time>2023-09-03T07:07:23Z</time>
      </trkpt>
      <trkpt lat="49.36563" lon="0.2135">
        <ele>127.8</ele>
        <time>2023-09-03T07:07:24Z</time>
      </trkpt>
      <trkpt lat="49.36562" lon="0.21362">
        <ele>127.6</ele>
        <time>2023-09-03T07:07:25Z</time>
      </trkpt>
      <trkpt lat="49.36559" lon="0.21373">
        <ele>127.4</ele>
        <time>2023-09-03T07:07:26Z</time>
      </trkpt>
      <trkpt lat="49.36558" lon="0.21385">
        <ele>127.2</ele>
        <time>2023-09-03T07:07:27Z</time>
      </trkpt>
      <trkpt lat="49.36556" lon="0.21396">
        <ele>126.9</ele>
        <time>2023-09-03T07:07:28Z</time>
      </trkpt>
      <trkpt lat="49.36554" lon="0.21407">
        <ele>126.7</ele>
        <time>2023-09-03T07:07:29Z</time>
      </trkpt>
      <trkpt lat="49.36552" lon="0.21419">
        <ele>126.5</ele>
        <time>2023-09-03T07:07:30Z</time>
      </trkpt>
      <trkpt lat="49.3655" lon="0.2143">
        <ele>126.2</ele>
        <time>2023-09-03T07:07:31Z</time>
      </trkpt>
      <trkpt lat="49.36548" lon="0.21441">
        <ele>126</ele>
        <time>2023-09-03T07:07:32Z</time>
      </trkpt>
      <trkpt lat="49.36546" lon="0.21453">
        <ele>125.7</ele>
        <time>2023-09-03T07:07:33Z</time>
      </trkpt>
      <trkpt lat="49.36544" lon="0.21465">
        <ele>125.5</ele>
        <time>2023-09-03T07:07:34Z</time>
      </trkpt>
      <trkpt lat="49.36542" lon="0.21477">
        <ele>125.3</ele>
        <time>2023-09-03T07:07:35Z</time>
      </trkpt>
      <trkpt lat="49.3654" lon="0.21489">
        <ele>125.1</ele>
        <time>2023-09-03T07:07:36Z</time>
      </trkpt>
      <trkpt lat="49.36538" lon="0.215">
        <ele>124.9</ele>
        <time>2023-09-03T07:07:37Z</time>
      </trkpt>
      <trkpt lat="49.36536" lon="0.21512">
        <ele>124.7</ele>
        <time>2023-09-03T07:07:38Z</time>
      </trkpt>
      <trkpt lat="49.36534" lon="0.21524">
        <ele>124.5</ele>
        <time>2023-09-03T07:07:39Z</time>
      </trkpt>
      <trkpt lat="49.36532" lon="0.21536">
        <ele>124.3</ele>
        <time>2023-09-03T07:07:40Z</time>
      </trkpt>
      <trkpt lat="49.3653" lon="0.21548">
        <ele>124.1</ele>
        <time>2023-09-03T07:07:41Z</time>
      </trkpt>
      <trkpt lat="49.36527" lon="0.2156">
        <ele>124</ele>
        <time>2023-09-03T07:07:42Z</time>
      </trkpt>
      <trkpt lat="49.36525" lon="0.21572">
        <ele>123.9</ele>
        <time>2023-09-03T07:07:43Z</time>
      </trkpt>
      <trkpt lat="49.36523" lon="0.21584">
        <ele>123.9</ele>
        <time>2023-09-03T07:07:44Z</time>
      </trkpt>
      <trkpt lat="49.3652" lon="0.21595">
        <ele>124</ele>
        <time>2023-09-03T07:07:45Z</time>
      </trkpt>
      <trkpt lat="49.36518" lon="0.21607">
        <ele>124.1</ele>
        <time>2023-09-03T07:07:46Z</time>
      </trkpt>
      <trkpt lat="49.36516" lon="0.21618">
        <ele>124.3</ele>
        <time>2023-09-03T07:07:47Z</time>
      </trkpt>
      <trkpt lat="49.36513" lon="0.21628">
        <ele>124.6</ele>
        <time>2023-09-03T07:07:48Z</time>
      </trkpt>
      <trkpt lat="49.36511" lon="0.21639">
        <ele>125</ele>
        <time>2023-09-03T07:07:49Z</time>
      </trkpt>
      <trkpt lat="49.36509" lon="0.21649">
        <ele>125.5</ele>
        <time>2023-09-03T07:07:50Z</time>
      </trkpt>
      <trkpt lat="49.36507" lon="0.21659">
        <ele>126</ele>
        <time>2023-09-03T07:07:51Z</time>
      </trkpt>
      <trkpt lat="49.36505" lon="0.21668">
        <ele>126.5</ele>
        <time>2023-09-03T07:07:52Z</time>
      </trkpt>
      <trkpt lat="49.36503" lon="0.21676">
        <ele>126.9</ele>
        <time>2023-09-03T07:07:53Z</time>
      </trkpt>
      <trkpt lat="49.36501" lon="0.21685">
        <ele>127.2</ele>
        <time>2023-09-03T07:07:54Z</time>
      </trkpt>
      <trkpt lat="49.36499" lon="0.21692">
        <ele>127.4</ele>
        <time>2023-09-03T07:07:55Z</time>
      </trkpt>
      <trkpt lat="49.36498" lon="0.217">
        <ele>127.7</ele>
        <time>2023-09-03T07:07:56Z</time>
      </trkpt>
      <trkpt lat="49.36496" lon="0.21708">
        <ele>127.9</ele>
        <time>2023-09-03T07:07:57Z</time>
      </trkpt>
      <trkpt lat="49.36494" lon="0.21715">
        <ele>128.2</ele>
        <time>2023-09-03T07:07:58Z</time>
      </trkpt>
      <trkpt lat="49.36492" lon="0.21723">
        <ele>128.5</ele>
        <time>2023-09-03T07:07:59Z</time>
      </trkpt>
      <trkpt lat="49.3649" lon="0.2173">
        <ele>128.8</ele>
        <time>2023-09-03T07:08:00Z</time>
      </trkpt>
      <trkpt lat="49.36488" lon="0.21737">
        <ele>129.1</ele>
        <time>2023-09-03T07:08:01Z</time>
      </trkpt>
      <trkpt lat="49.36486" lon="0.21743">
        <ele>129.4</ele>
        <time>2023-09-03T07:08:02Z</time>
      </trkpt>
      <trkpt lat="49.36484" lon="0.2175">
        <ele>129.7</ele>
        <time>2023-09-03T07:08:03Z</time>
      </trkpt>
      <trkpt lat="49.36483" lon="0.21758">
        <ele>130.1</ele>
        <time>2023-09-03T07:08:04Z</time>
      </trkpt>
      <trkpt lat="49.36481" lon="0.21765">
        <ele>130.4</ele>
        <time>2023-09-03T07:08:05Z</time>
      </trkpt>
      <trkpt lat="49.36479" lon="0.21772">
        <ele>130.7</ele>
        <time>2023-09-03T07:08:06Z</time>
      </trkpt>
      <trkpt lat="49.36477" lon="0.2178">
        <ele>131</ele>
        <time>2023-09-03T07:08:07Z</time>
      </trkpt>
      <trkpt lat="49.36475" lon="0.21787">
        <ele>131.3</ele>
        <time>2023-09-03T07:08:08Z</time>
      </trkpt>
      <trkpt lat="49.36473" lon="0.21794">
        <ele>131.6</ele>
        <time>2023-09-03T07:08:09Z</time>
      </trkpt>
      <trkpt lat="49.36471" lon="0.21802">
        <ele>131.8</ele>
        <time>2023-09-03T07:08:10Z</time>
      </trkpt>
      <trkpt lat="49.36469" lon="0.21809">
        <ele>132</ele>
        <time>2023-09-03T07:08:11Z</time>
      </trkpt>
      <trkpt lat="49.36467" lon="0.21816">
        <ele>132.2</ele>
        <time>2023-09-03T07:08:12Z</time>
      </trkpt>
      <trkpt lat="49.36464" lon="0.21824">
        <ele>132.3</ele>
        <time>2023-09-03T07:08:13Z</time>
      </trkpt>
      <trkpt lat="49.36462" lon="0.21831">
        <ele>132.3</ele>
        <time>2023-09-03T07:08:14Z</time>
      </trkpt>
      <trkpt lat="49.3646" lon="0.21838">
        <ele>132.3</ele>
        <time>2023-09-03T07:08:15Z</time>
      </trkpt>
      <trkpt lat="49.36458" lon="0.21844">
        <ele>132.3</ele>
        <time>2023-09-03T07:08:16Z</time>
      </trkpt>
      <trkpt lat="49.36457" lon="0.21851">
        <ele>132.3</ele>
        <time>2023-09-03T07:08:17Z</time>
      </trkpt>
      <trkpt lat="49.36455" lon="0.21858">
        <ele>132.3</ele>
        <time>2023-09-03T07:08:18Z</time>
      </trkpt>
      <trkpt lat="49.36453" lon="0.21865">
        <ele>132.3</ele>
        <time>2023-09-03T07:08:19Z</time>
      </trkpt>
      <trkpt lat="49.36451" lon="0.21872">
        <ele>132.2</ele>
        <time>2023-09-03T07:08:20Z</time>
      </trkpt>
      <trkpt lat="49.36449" lon="0.21879">
        <ele>132.1</ele>
        <time>2023-09-03T07:08:21Z</time>
      </trkpt>
      <trkpt lat="49.36446" lon="0.21887">
        <ele>131.8</ele>
        <time>2023-09-03T07:08:22Z</time>
      </trkpt>
      <trkpt lat="49.36444" lon="0.21894">
        <ele>131.6</ele>
        <time>2023-09-03T07:08:23Z</time>
      </trkpt>
      <trkpt lat="49.36442" lon="0.21902">
        <ele>131.3</ele>
        <time>2023-09-03T07:08:24Z</time>
      </trkpt>
      <trkpt lat="49.3644" lon="0.2191">
        <ele>130.9</ele>
        <time>2023-09-03T07:08:25Z</time>
      </trkpt>
      <trkpt lat="49.36437" lon="0.21919">
        <ele>130.5</ele>
        <time>2023-09-03T07:08:26Z</time>
      </trkpt>
      <trkpt lat="49.36433" lon="0.21929">
        <ele>130.1</ele>
        <time>2023-09-03T07:08:27Z</time>
      </trkpt>
      <trkpt lat="49.3643" lon="0.21939">
        <ele>129.6</ele>
        <time>2023-09-03T07:08:28Z</time>
      </trkpt>
      <trkpt lat="49.36426" lon="0.21949">
        <ele>129.1</ele>
        <time>2023-09-03T07:08:29Z</time>
      </trkpt>
      <trkpt lat="49.36423" lon="0.21961">
        <ele>128.5</ele>
        <time>2023-09-03T07:08:30Z</time>
      </trkpt>
      <trkpt lat="49.36419" lon="0.21973">
        <ele>128.1</ele>
        <time>2023-09-03T07:08:31Z</time>
      </trkpt>
      <trkpt lat="49.36415" lon="0.21985">
        <ele>127.6</ele>
        <time>2023-09-03T07:08:32Z</time>
      </trkpt>
      <trkpt lat="49.36411" lon="0.21998">
        <ele>127.3</ele>
        <time>2023-09-03T07:08:33Z</time>
      </trkpt>
      <trkpt lat="49.36407" lon="0.2201">
        <ele>127.1</ele>
        <time>2023-09-03T07:08:34Z</time>
      </trkpt>
      <trkpt lat="49.36403" lon="0.22022">
        <ele>126.9</ele>
        <time>2023-09-03T07:08:35Z</time>
      </trkpt>
      <trkpt lat="49.36399" lon="0.22034">
        <ele>126.9</ele>
        <time>2023-09-03T07:08:36Z</time>
      </trkpt>
      <trkpt lat="49.36395" lon="0.22045">
        <ele>127</ele>
        <time>2023-09-03T07:08:37Z</time>
      </trkpt>
      <trkpt lat="49.36391" lon="0.22057">
        <ele>127.1</ele>
        <time>2023-09-03T07:08:38Z</time>
      </trkpt>
      <trkpt lat="49.36387" lon="0.22068">
        <ele>127.2</ele>
        <time>2023-09-03T07:08:39Z</time>
      </trkpt>
      <trkpt lat="49.36383" lon="0.2208">
        <ele>127.3</ele>
        <time>2023-09-03T07:08:40Z</time>
      </trkpt>
      <trkpt lat="49.3638" lon="0.22091">
        <ele>127.4</ele>
        <time>2023-09-03T07:08:41Z</time>
      </trkpt>
      <trkpt lat="49.36376" lon="0.22103">
        <ele>127.5</ele>
        <time>2023-09-03T07:08:42Z</time>
      </trkpt>
      <trkpt lat="49.36372" lon="0.22115">
        <ele>127.6</ele>
        <time>2023-09-03T07:08:43Z</time>
      </trkpt>
      <trkpt lat="49.36368" lon="0.22127">
        <ele>127.6</ele>
        <time>2023-09-03T07:08:44Z</time>
      </trkpt>
      <trkpt lat="49.36364" lon="0.2214">
        <ele>127.7</ele>
        <time>2023-09-03T07:08:45Z</time>
      </trkpt>
      <trkpt lat="49.3636" lon="0.22152">
        <ele>127.7</ele>
        <time>2023-09-03T07:08:46Z</time>
      </trkpt>
      <trkpt lat="49.36356" lon="0.22164">
        <ele>127.8</ele>
        <time>2023-09-03T07:08:47Z</time>
      </trkpt>
      <trkpt lat="49.36352" lon="0.22176">
        <ele>127.8</ele>
        <time>2023-09-03T07:08:48Z</time>
      </trkpt>
      <trkpt lat="49.36348" lon="0.22187">
        <ele>127.8</ele>
        <time>2023-09-03T07:08:49Z</time>
      </trkpt>
      <trkpt lat="49.36344" lon="0.222">
        <ele>127.8</ele>
        <time>2023-09-03T07:08:50Z</time>
      </trkpt>
      <trkpt lat="49.3634" lon="0.22212">
        <ele>127.8</ele>
        <time>2023-09-03T07:08:51Z</time>
      </trkpt>
      <trkpt lat="49.36336" lon="0.22225">
        <ele>127.8</ele>
        <time>2023-09-03T07:08:52Z</time>
      </trkpt>
      <trkpt lat="49.36332" lon="0.22238">
        <ele>127.8</ele>
        <time>2023-09-03T07:08:53Z</time>
      </trkpt>
      <trkpt lat="49.36328" lon="0.22251">
        <ele>127.8</ele>
        <time>2023-09-03T07:08:54Z</time>
      </trkpt>
      <trkpt lat="49.36324" lon="0.22263">
        <ele>127.8</ele>
        <time>2023-09-03T07:08:55Z</time>
      </trkpt>
      <trkpt lat="49.3632" lon="0.22275">
        <ele>127.8</ele>
        <time>2023-09-03T07:08:56Z</time>
      </trkpt>
      <trkpt lat="49.36316" lon="0.22288">
        <ele>127.8</ele>
        <time>2023-09-03T07:08:57Z</time>
      </trkpt>
      <trkpt lat="49.36311" lon="0.223">
        <ele>127.7</ele>
        <time>2023-09-03T07:08:58Z</time>
      </trkpt>
      <trkpt lat="49.36307" lon="0.22313">
        <ele>127.7</ele>
        <time>2023-09-03T07:08:59Z</time>
      </trkpt>
      <trkpt lat="49.36303" lon="0.22325">
        <ele>127.6</ele>
        <time>2023-09-03T07:09:00Z</time>
      </trkpt>
      <trkpt lat="49.36299" lon="0.22337">
        <ele>127.5</ele>
        <time>2023-09-03T07:09:01Z</time>
      </trkpt>
      <trkpt lat="49.36294" lon="0.22348">
        <ele>127.4</ele>
        <time>2023-09-03T07:09:02Z</time>
      </trkpt>
      <trkpt lat="49.36288" lon="0.22359">
        <ele>127.3</ele>
        <time>2023-09-03T07:09:03Z</time>
      </trkpt>
      <trkpt lat="49.36283" lon="0.2237">
        <ele>127.2</ele>
        <time>2023-09-03T07:09:04Z</time>
      </trkpt>
      <trkpt lat="49.36277" lon="0.22381">
        <ele>127.1</ele>
        <time>2023-09-03T07:09:05Z</time>
      </trkpt>
      <trkpt lat="49.3627" lon="0.2239">
        <ele>127.1</ele>
        <time>2023-09-03T07:09:06Z</time>
      </trkpt>
      <trkpt lat="49.36263" lon="0.224">
        <ele>127.1</ele>
        <time>2023-09-03T07:09:07Z</time>
      </trkpt>
      <trkpt lat="49.36256" lon="0.22408">
        <ele>127.1</ele>
        <time>2023-09-03T07:09:08Z</time>
      </trkpt>
      <trkpt lat="49.36248" lon="0.22416">
        <ele>127.1</ele>
        <time>2023-09-03T07:09:09Z</time>
      </trkpt>
      <trkpt lat="49.36241" lon="0.22425">
        <ele>127.1</ele>
        <time>2023-09-03T07:09:10Z</time>
      </trkpt>
      <trkpt lat="49.36234" lon="0.22433">
        <ele>127.1</ele>
        <time>2023-09-03T07:09:11Z</time>
      </trkpt>
      <trkpt lat="49.36227" lon="0.22442">
        <ele>127.1</ele>
        <time>2023-09-03T07:09:12Z</time>
      </trkpt>
      <trkpt lat="49.3622" lon="0.2245">
        <ele>127.1</ele>
        <time>2023-09-03T07:09:13Z</time>
      </trkpt>
      <trkpt lat="49.36213" lon="0.2246">
        <ele>127.2</ele>
        <time>2023-09-03T07:09:14Z</time>
      </trkpt>
      <trkpt lat="49.36205" lon="0.22469">
        <ele>127.2</ele>
        <time>2023-09-03T07:09:15Z</time>
      </trkpt>
      <trkpt lat="49.36198" lon="0.22478">
        <ele>127.2</ele>
        <time>2023-09-03T07:09:16Z</time>
      </trkpt>
      <trkpt lat="49.36191" lon="0.22488">
        <ele>127.2</ele>
        <time>2023-09-03T07:09:17Z</time>
      </trkpt>
      <trkpt lat="49.36183" lon="0.22498">
        <ele>127.1</ele>
        <time>2023-09-03T07:09:18Z</time>
      </trkpt>
      <trkpt lat="49.36176" lon="0.22507">
        <ele>127</ele>
        <time>2023-09-03T07:09:19Z</time>
      </trkpt>
      <trkpt lat="49.36168" lon="0.22516">
        <ele>126.9</ele>
        <time>2023-09-03T07:09:20Z</time>
      </trkpt>
      <trkpt lat="49.3616" lon="0.22525">
        <ele>126.8</ele>
        <time>2023-09-03T07:09:21Z</time>
      </trkpt>
      <trkpt lat="49.36152" lon="0.22534">
        <ele>126.6</ele>
        <time>2023-09-03T07:09:22Z</time>
      </trkpt>
      <trkpt lat="49.36144" lon="0.22543">
        <ele>126.5</ele>
        <time>2023-09-03T07:09:23Z</time>
      </trkpt>
      <trkpt lat="49.36137" lon="0.22551">
        <ele>126.3</ele>
        <time>2023-09-03T07:09:24Z</time>
      </trkpt>
      <trkpt lat="49.36129" lon="0.2256">
        <ele>126.2</ele>
        <time>2023-09-03T07:09:25Z</time>
      </trkpt>
      <trkpt lat="49.36122" lon="0.22569">
        <ele>126</ele>
        <time>2023-09-03T07:09:26Z</time>
      </trkpt>
      <trkpt lat="49.36115" lon="0.22577">
        <ele>125.8</ele>
        <time>2023-09-03T07:09:27Z</time>
      </trkpt>
      <trkpt lat="49.36108" lon="0.22585">
        <ele>125.5</ele>
        <time>2023-09-03T07:09:28Z</time>
      </trkpt>
      <trkpt lat="49.36102" lon="0.22593">
        <ele>125.2</ele>
        <time>2023-09-03T07:09:29Z</time>
      </trkpt>
      <trkpt lat="49.36096" lon="0.22601">
        <ele>124.9</ele>
        <time>2023-09-03T07:09:30Z</time>
      </trkpt>
      <trkpt lat="49.3609" lon="0.2261">
        <ele>124.5</ele>
        <time>2023-09-03T07:09:31Z</time>
      </trkpt>
      <trkpt lat="49.36083" lon="0.22617">
        <ele>124.1</ele>
        <time>2023-09-03T07:09:32Z</time>
      </trkpt>
      <trkpt lat="49.36077" lon="0.22625">
        <ele>123.7</ele>
        <time>2023-09-03T07:09:33Z</time>
      </trkpt>
      <trkpt lat="49.36071" lon="0.22632">
        <ele>123.2</ele>
        <time>2023-09-03T07:09:34Z</time>
      </trkpt>
      <trkpt lat="49.36064" lon="0.2264">
        <ele>122.7</ele>
        <time>2023-09-03T07:09:35Z</time>
      </trkpt>
      <trkpt lat="49.36058" lon="0.22647">
        <ele>122.1</ele>
        <time>2023-09-03T07:09:36Z</time>
      </trkpt>
      <trkpt lat="49.36052" lon="0.22653">
        <ele>121.6</ele>
        <time>2023-09-03T07:09:37Z</time>
      </trkpt>
      <trkpt lat="49.36048" lon="0.22657">
        <ele>121.3</ele>
        <time>2023-09-03T07:09:38Z</time>
      </trkpt>
      <trkpt lat="49.36044" lon="0.22661">
        <ele>121</ele>
        <time>2023-09-03T07:09:39Z</time>
      </trkpt>
      <trkpt lat="49.3604" lon="0.22665">
        <ele>120.8</ele>
        <time>2023-09-03T07:09:40Z</time>
      </trkpt>
      <trkpt lat="49.36036" lon="0.22669">
        <ele>120.5</ele>
        <time>2023-09-03T07:09:41Z</time>
      </trkpt>
      <trkpt lat="49.36034" lon="0.22673">
        <ele>120.4</ele>
        <time>2023-09-03T07:09:42Z</time>
      </trkpt>
      <trkpt lat="49.36033" lon="0.2268">
        <ele>120.1</ele>
        <time>2023-09-03T07:09:43Z</time>
      </trkpt>
      <trkpt lat="49.36036" lon="0.22688">
        <ele>119.8</ele>
        <time>2023-09-03T07:09:44Z</time>
      </trkpt>
      <trkpt lat="49.36039" lon="0.22695">
        <ele>119.4</ele>
        <time>2023-09-03T07:09:45Z</time>
      </trkpt>
      <trkpt lat="49.36044" lon="0.22702">
        <ele>119.1</ele>
        <time>2023-09-03T07:09:46Z</time>
      </trkpt>
      <trkpt lat="49.36048" lon="0.22707">
        <ele>118.8</ele>
        <time>2023-09-03T07:09:47Z</time>
      </trkpt>
      <trkpt lat="49.36053" lon="0.22713">
        <ele>118.5</ele>
        <time>2023-09-03T07:09:48Z</time>
      </trkpt>
      <trkpt lat="49.36057" lon="0.2272">
        <ele>118.2</ele>
        <time>2023-09-03T07:09:49Z</time>
      </trkpt>
      <trkpt lat="49.36062" lon="0.22726">
        <ele>118</ele>
        <time>2023-09-03T07:09:50Z</time>
      </trkpt>
      <trkpt lat="49.36068" lon="0.22731">
        <ele>117.7</ele>
        <time>2023-09-03T07:09:51Z</time>
      </trkpt>
      <trkpt lat="49.36072" lon="0.22737">
        <ele>117.5</ele>
        <time>2023-09-03T07:09:52Z</time>
      </trkpt>
      <trkpt lat="49.36077" lon="0.22742">
        <ele>117.3</ele>
        <time>2023-09-03T07:09:53Z</time>
      </trkpt>
      <trkpt lat="49.36082" lon="0.22748">
        <ele>117</ele>
        <time>2023-09-03T07:09:54Z</time>
      </trkpt>
      <trkpt lat="49.36088" lon="0.22754">
        <ele>116.9</ele>
        <time>2023-09-03T07:09:55Z</time>
      </trkpt>
      <trkpt lat="49.36093" lon="0.22758">
        <ele>116.7</ele>
        <time>2023-09-03T07:09:56Z</time>
      </trkpt>
      <trkpt lat="49.36098" lon="0.22763">
        <ele>116.5</ele>
        <time>2023-09-03T07:09:57Z</time>
      </trkpt>
      <trkpt lat="49.36105" lon="0.22767">
        <ele>116.4</ele>
        <time>2023-09-03T07:09:58Z</time>
      </trkpt>
      <trkpt lat="49.36112" lon="0.2277">
        <ele>116.2</ele>
        <time>2023-09-03T07:09:59Z</time>
      </trkpt>
      <trkpt lat="49.36119" lon="0.22773">
        <ele>116.1</ele>
        <time>2023-09-03T07:10:00Z</time>
      </trkpt>
      <trkpt lat="49.36128" lon="0.22775">
        <ele>116</ele>
        <time>2023-09-03T07:10:01Z</time>
      </trkpt>
      <trkpt lat="49.36137" lon="0.22779">
        <ele>115.9</ele>
        <time>2023-09-03T07:10:02Z</time>
      </trkpt>
      <trkpt lat="49.36145" lon="0.22782">
        <ele>115.9</ele>
        <time>2023-09-03T07:10:03Z</time>
      </trkpt>
      <trkpt lat="49.36152" lon="0.22785">
        <ele>115.8</ele>
        <time>2023-09-03T07:10:04Z</time>
      </trkpt>
      <trkpt lat="49.36159" lon="0.22788">
        <ele>115.8</ele>
        <time>2023-09-03T07:10:05Z</time>
      </trkpt>
      <trkpt lat="49.36167" lon="0.22791">
        <ele>115.8</ele>
        <time>2023-09-03T07:10:06Z</time>
      </trkpt>
      <trkpt lat="49.36174" lon="0.22794">
        <ele>115.8</ele>
        <time>2023-09-03T07:10:07Z</time>
      </trkpt>
      <trkpt lat="49.36181" lon="0.22798">
        <ele>115.9</ele>
        <time>2023-09-03T07:10:08Z</time>
      </trkpt>
      <trkpt lat="49.36189" lon="0.22801">
        <ele>116</ele>
        <time>2023-09-03T07:10:09Z</time>
      </trkpt>
      <trkpt lat="49.36196" lon="0.22804">
        <ele>116.1</ele>
        <time>2023-09-03T07:10:10Z</time>
      </trkpt>
      <trkpt lat="49.36202" lon="0.22806">
        <ele>116.2</ele>
        <time>2023-09-03T07:10:11Z</time>
      </trkpt>
      <trkpt lat="49.36209" lon="0.22808">
        <ele>116.3</ele>
        <time>2023-09-03T07:10:12Z</time>
      </trkpt>
      <trkpt lat="49.36215" lon="0.2281">
        <ele>116.4</ele>
        <time>2023-09-03T07:10:13Z</time>
      </trkpt>
      <trkpt lat="49.36222" lon="0.22812">
        <ele>116.6</ele>
        <time>2023-09-03T07:10:14Z</time>
      </trkpt>
      <trkpt lat="49.36229" lon="0.22813">
        <ele>116.7</ele>
        <time>2023-09-03T07:10:15Z</time>
      </trkpt>
      <trkpt lat="49.36236" lon="0.22814">
        <ele>116.9</ele>
        <time>2023-09-03T07:10:16Z</time>
      </trkpt>
      <trkpt lat="49.36243" lon="0.22815">
        <ele>117.1</ele>
        <time>2023-09-03T07:10:17Z</time>
      </trkpt>
      <trkpt lat="49.3625" lon="0.22816">
        <ele>117.3</ele>
        <time>2023-09-03T07:10:18Z</time>
      </trkpt>
      <trkpt lat="49.36257" lon="0.22818">
        <ele>117.5</ele>
        <time>2023-09-03T07:10:19Z</time>
      </trkpt>
      <trkpt lat="49.36264" lon="0.22819">
        <ele>117.7</ele>
        <time>2023-09-03T07:10:20Z</time>
      </trkpt>
      <trkpt lat="49.3627" lon="0.2282">
        <ele>118</ele>
        <time>2023-09-03T07:10:21Z</time>
      </trkpt>
      <trkpt lat="49.36276" lon="0.22821">
        <ele>118.2</ele>
        <time>2023-09-03T07:10:22Z</time>
      </trkpt>
      <trkpt lat="49.36282" lon="0.22824">
        <ele>118.5</ele>
        <time>2023-09-03T07:10:23Z</time>
      </trkpt>
      <trkpt lat="49.36288" lon="0.22826">
        <ele>118.9</ele>
        <time>2023-09-03T07:10:24Z</time>
      </trkpt>
      <trkpt lat="49.36295" lon="0.22829">
        <ele>119.3</ele>
        <time>2023-09-03T07:10:25Z</time>
      </trkpt>
      <trkpt lat="49.36301" lon="0.22831">
        <ele>119.7</ele>
        <time>2023-09-03T07:10:26Z</time>
      </trkpt>
      <trkpt lat="49.36308" lon="0.22832">
        <ele>120</ele>
        <time>2023-09-03T07:10:27Z</time>
      </trkpt>
      <trkpt lat="49.36314" lon="0.22834">
        <ele>120.4</ele>
        <time>2023-09-03T07:10:28Z</time>
      </trkpt>
      <trkpt lat="49.3632" lon="0.22835">
        <ele>120.6</ele>
        <time>2023-09-03T07:10:29Z</time>
      </trkpt>
      <trkpt lat="49.36326" lon="0.22836">
        <ele>120.9</ele>
        <time>2023-09-03T07:10:30Z</time>
      </trkpt>
      <trkpt lat="49.36331" lon="0.22837">
        <ele>121.1</ele>
        <time>2023-09-03T07:10:31Z</time>
      </trkpt>
      <trkpt lat="49.36337" lon="0.22838">
        <ele>121.3</ele>
        <time>2023-09-03T07:10:32Z</time>
      </trkpt>
      <trkpt lat="49.36343" lon="0.22838">
        <ele>121.6</ele>
        <time>2023-09-03T07:10:33Z</time>
      </trkpt>
      <trkpt lat="49.3635" lon="0.22838">
        <ele>121.8</ele>
        <time>2023-09-03T07:10:34Z</time>
      </trkpt>
      <trkpt lat="49.36357" lon="0.22838">
        <ele>122</ele>
        <time>2023-09-03T07:10:35Z</time>
      </trkpt>
      <trkpt lat="49.36363" lon="0.22837">
        <ele>122.2</ele>
        <time>2023-09-03T07:10:36Z</time>
      </trkpt>
      <trkpt lat="49.3637" lon="0.22836">
        <ele>122.3</ele>
        <time>2023-09-03T07:10:37Z</time>
      </trkpt>
      <trkpt lat="49.36376" lon="0.22835">
        <ele>122.5</ele>
        <time>2023-09-03T07:10:38Z</time>
      </trkpt>
      <trkpt lat="49.36383" lon="0.22834">
        <ele>122.7</ele>
        <time>2023-09-03T07:10:39Z</time>
      </trkpt>
      <trkpt lat="49.3639" lon="0.22833">
        <ele>122.8</ele>
        <time>2023-09-03T07:10:40Z</time>
      </trkpt>
      <trkpt lat="49.36397" lon="0.22832">
        <ele>122.9</ele>
        <time>2023-09-03T07:10:41Z</time>
      </trkpt>
      <trkpt lat="49.36403" lon="0.22831">
        <ele>123</ele>
        <time>2023-09-03T07:10:42Z</time>
      </trkpt>
      <trkpt lat="49.3641" lon="0.2283">
        <ele>123.2</ele>
        <time>2023-09-03T07:10:43Z</time>
      </trkpt>
      <trkpt lat="49.36417" lon="0.2283">
        <ele>123.3</ele>
        <time>2023-09-03T07:10:44Z</time>
      </trkpt>
      <trkpt lat="49.36424" lon="0.2283">
        <ele>123.4</ele>
        <time>2023-09-03T07:10:45Z</time>
      </trkpt>
      <trkpt lat="49.36432" lon="0.2283">
        <ele>123.5</ele>
        <time>2023-09-03T07:10:46Z</time>
      </trkpt>
      <trkpt lat="49.36438" lon="0.2283">
        <ele>123.6</ele>
        <time>2023-09-03T07:10:47Z</time>
      </trkpt>
      <trkpt lat="49.36445" lon="0.2283">
        <ele>123.7</ele>
        <time>2023-09-03T07:10:48Z</time>
      </trkpt>
      <trkpt lat="49.36452" lon="0.2283">
        <ele>123.9</ele>
        <time>2023-09-03T07:10:49Z</time>
      </trkpt>
      <trkpt lat="49.36459" lon="0.2283">
        <ele>124</ele>
        <time>2023-09-03T07:10:50Z</time>
      </trkpt>
      <trkpt lat="49.36466" lon="0.2283">
        <ele>124.1</ele>
        <time>2023-09-03T07:10:51Z</time>
      </trkpt>
      <trkpt lat="49.36473" lon="0.22831">
        <ele>124.2</ele>
        <time>2023-09-03T07:10:52Z</time>
      </trkpt>
      <trkpt lat="49.3648" lon="0.22832">
        <ele>124.3</ele>
        <time>2023-09-03T07:10:53Z</time>
      </trkpt>
      <trkpt lat="49.36487" lon="0.22834">
        <ele>124.4</ele>
        <time>2023-09-03T07:10:54Z</time>
      </trkpt>
      <trkpt lat="49.36494" lon="0.22835">
        <ele>124.5</ele>
        <time>2023-09-03T07:10:55Z</time>
      </trkpt>
      <trkpt lat="49.36501" lon="0.22836">
        <ele>124.6</ele>
        <time>2023-09-03T07:10:56Z</time>
      </trkpt>
      <trkpt lat="49.36507" lon="0.22837">
        <ele>124.7</ele>
        <time>2023-09-03T07:10:57Z</time>
      </trkpt>
      <trkpt lat="49.36514" lon="0.22837">
        <ele>124.9</ele>
        <time>2023-09-03T07:10:58Z</time>
      </trkpt>
      <trkpt lat="49.36521" lon="0.22838">
        <ele>125</ele>
        <time>2023-09-03T07:10:59Z</time>
      </trkpt>
      <trkpt lat="49.36528" lon="0.22838">
        <ele>125.1</ele>
        <time>2023-09-03T07:11:00Z</time>
      </trkpt>
      <trkpt lat="49.36534" lon="0.22839">
        <ele>125.2</ele>
        <time>2023-09-03T07:11:01Z</time>
      </trkpt>
      <trkpt lat="49.36541" lon="0.2284">
        <ele>125.3</ele>
        <time>2023-09-03T07:11:02Z</time>
      </trkpt>
      <trkpt lat="49.36547" lon="0.22841">
        <ele>125.4</ele>
        <time>2023-09-03T07:11:03Z</time>
      </trkpt>
      <trkpt lat="49.36554" lon="0.22843">
        <ele>125.5</ele>
        <time>2023-09-03T07:11:04Z</time>
      </trkpt>
      <trkpt lat="49.3656" lon="0.22844">
        <ele>125.7</ele>
        <time>2023-09-03T07:11:05Z</time>
      </trkpt>
      <trkpt lat="49.36567" lon="0.22845">
        <ele>125.8</ele>
        <time>2023-09-03T07:11:06Z</time>
      </trkpt>
      <trkpt lat="49.36574" lon="0.22845">
        <ele>126</ele>
        <time>2023-09-03T07:11:07Z</time>
      </trkpt>
      <trkpt lat="49.36581" lon="0.22846">
        <ele>126.1</ele>
        <time>2023-09-03T07:11:08Z</time>
      </trkpt>
      <trkpt lat="49.36587" lon="0.22846">
        <ele>126.2</ele>
        <time>2023-09-03T07:11:09Z</time>
      </trkpt>
      <trkpt lat="49.36594" lon="0.22847">
        <ele>126.4</ele>
        <time>2023-09-03T07:11:10Z</time>
      </trkpt>
      <trkpt lat="49.36601" lon="0.22848">
        <ele>126.6</ele>
        <time>2023-09-03T07:11:11Z</time>
      </trkpt>
      <trkpt lat="49.36607" lon="0.22849">
        <ele>126.7</ele>
        <time>2023-09-03T07:11:12Z</time>
      </trkpt>
      <trkpt lat="49.36614" lon="0.2285">
        <ele>126.9</ele>
        <time>2023-09-03T07:11:13Z</time>
      </trkpt>
      <trkpt lat="49.36621" lon="0.22851">
        <ele>127.1</ele>
        <time>2023-09-03T07:11:14Z</time>
      </trkpt>
      <trkpt lat="49.36628" lon="0.22852">
        <ele>127.3</ele>
        <time>2023-09-03T07:11:15Z</time>
      </trkpt>
      <trkpt lat="49.36635" lon="0.22852">
        <ele>127.5</ele>
        <time>2023-09-03T07:11:16Z</time>
      </trkpt>
      <trkpt lat="49.36642" lon="0.22853">
        <ele>127.6</ele>
        <time>2023-09-03T07:11:17Z</time>
      </trkpt>
      <trkpt lat="49.36648" lon="0.22853">
        <ele>127.8</ele>
        <time>2023-09-03T07:11:18Z</time>
      </trkpt>
      <trkpt lat="49.36656" lon="0.22854">
        <ele>127.9</ele>
        <time>2023-09-03T07:11:19Z</time>
      </trkpt>
      <trkpt lat="49.36663" lon="0.22854">
        <ele>128.1</ele>
        <time>2023-09-03T07:11:20Z</time>
      </trkpt>
      <trkpt lat="49.36669" lon="0.22854">
        <ele>128.3</ele>
        <time>2023-09-03T07:11:21Z</time>
      </trkpt>
      <trkpt lat="49.36676" lon="0.22854">
        <ele>128.5</ele>
        <time>2023-09-03T07:11:22Z</time>
      </trkpt>
      <trkpt lat="49.36683" lon="0.22853">
        <ele>128.7</ele>
        <time>2023-09-03T07:11:23Z</time>
      </trkpt>
      <trkpt lat="49.3669" lon="0.22852">
        <ele>128.8</ele>
        <time>2023-09-03T07:11:24Z</time>
      </trkpt>
      <trkpt lat="49.36697" lon="0.22852">
        <ele>129</ele>
        <time>2023-09-03T07:11:25Z</time>
      </trkpt>
      <trkpt lat="49.36704" lon="0.22851">
        <ele>129.1</ele>
        <time>2023-09-03T07:11:26Z</time>
      </trkpt>
      <trkpt lat="49.36711" lon="0.2285">
        <ele>129.3</ele>
        <time>2023-09-03T07:11:27Z</time>
      </trkpt>
      <trkpt lat="49.36718" lon="0.2285">
        <ele>129.4</ele>
        <time>2023-09-03T07:11:28Z</time>
      </trkpt>
      <trkpt lat="49.36725" lon="0.22849">
        <ele>129.4</ele>
        <time>2023-09-03T07:11:29Z</time>
      </trkpt>
      <trkpt lat="49.36732" lon="0.22849">
        <ele>129.4</ele>
        <time>2023-09-03T07:11:30Z</time>
      </trkpt>
      <trkpt lat="49.36739" lon="0.22848">
        <ele>129.4</ele>
        <time>2023-09-03T07:11:31Z</time>
      </trkpt>
      <trkpt lat="49.36746" lon="0.22848">
        <ele>129.4</ele>
        <time>2023-09-03T07:11:32Z</time>
      </trkpt>
      <trkpt lat="49.36754" lon="0.22847">
        <ele>129.2</ele>
        <time>2023-09-03T07:11:33Z</time>
      </trkpt>
      <trkpt lat="49.36762" lon="0.22847">
        <ele>129.1</ele>
        <time>2023-09-03T07:11:34Z</time>
      </trkpt>
      <trkpt lat="49.36769" lon="0.22847">
        <ele>128.9</ele>
        <time>2023-09-03T07:11:35Z</time>
      </trkpt>
      <trkpt lat="49.36777" lon="0.22847">
        <ele>128.7</ele>
        <time>2023-09-03T07:11:36Z</time>
      </trkpt>
      <trkpt lat="49.36785" lon="0.22847">
        <ele>128.5</ele>
        <time>2023-09-03T07:11:37Z</time>
      </trkpt>
      <trkpt lat="49.36794" lon="0.22848">
        <ele>128.2</ele>
        <time>2023-09-03T07:11:38Z</time>
      </trkpt>
      <trkpt lat="49.36802" lon="0.22849">
        <ele>128</ele>
        <time>2023-09-03T07:11:39Z</time>
      </trkpt>
      <trkpt lat="49.36811" lon="0.2285">
        <ele>127.8</ele>
        <time>2023-09-03T07:11:40Z</time>
      </trkpt>
      <trkpt lat="49.36819" lon="0.22852">
        <ele>127.5</ele>
        <time>2023-09-03T07:11:41Z</time>
      </trkpt>
      <trkpt lat="49.36827" lon="0.22855">
        <ele>127.3</ele>
        <time>2023-09-03T07:11:42Z</time>
      </trkpt>
      <trkpt lat="49.36836" lon="0.22857">
        <ele>127</ele>
        <time>2023-09-03T07:11:43Z</time>
      </trkpt>
      <trkpt lat="49.36845" lon="0.2286">
        <ele>126.8</ele>
        <time>2023-09-03T07:11:44Z</time>
      </trkpt>
      <trkpt lat="49.36853" lon="0.22864">
        <ele>126.6</ele>
        <time>2023-09-03T07:11:45Z</time>
      </trkpt>
      <trkpt lat="49.36862" lon="0.22868">
        <ele>126.4</ele>
        <time>2023-09-03T07:11:46Z</time>
      </trkpt>
      <trkpt lat="49.36871" lon="0.22872">
        <ele>126.3</ele>
        <time>2023-09-03T07:11:47Z</time>
      </trkpt>
      <trkpt lat="49.36879" lon="0.22876">
        <ele>126.1</ele>
        <time>2023-09-03T07:11:48Z</time>
      </trkpt>
      <trkpt lat="49.36887" lon="0.22879">
        <ele>126</ele>
        <time>2023-09-03T07:11:49Z</time>
      </trkpt>
      <trkpt lat="49.36896" lon="0.22883">
        <ele>126</ele>
        <time>2023-09-03T07:11:50Z</time>
      </trkpt>
      <trkpt lat="49.36904" lon="0.22886">
        <ele>125.9</ele>
        <time>2023-09-03T07:11:51Z</time>
      </trkpt>
      <trkpt lat="49.36912" lon="0.22888">
        <ele>125.8</ele>
        <time>2023-09-03T07:11:52Z</time>
      </trkpt>
      <trkpt lat="49.3692" lon="0.22891">
        <ele>125.8</ele>
        <time>2023-09-03T07:11:53Z</time>
      </trkpt>
      <trkpt lat="49.36928" lon="0.22893">
        <ele>125.7</ele>
        <time>2023-09-03T07:11:54Z</time>
      </trkpt>
      <trkpt lat="49.36936" lon="0.22895">
        <ele>125.6</ele>
        <time>2023-09-03T07:11:55Z</time>
      </trkpt>
      <trkpt lat="49.36944" lon="0.22898">
        <ele>125.5</ele>
        <time>2023-09-03T07:11:56Z</time>
      </trkpt>
      <trkpt lat="49.36952" lon="0.229">
        <ele>125.4</ele>
        <time>2023-09-03T07:11:57Z</time>
      </trkpt>
      <trkpt lat="49.36961" lon="0.22901">
        <ele>125.3</ele>
        <time>2023-09-03T07:11:58Z</time>
      </trkpt>
      <trkpt lat="49.3697" lon="0.22903">
        <ele>125.3</ele>
        <time>2023-09-03T07:11:59Z</time>
      </trkpt>
      <trkpt lat="49.36979" lon="0.22905">
        <ele>125.3</ele>
        <time>2023-09-03T07:12:00Z</time>
      </trkpt>
      <trkpt lat="49.36987" lon="0.22906">
        <ele>125.2</ele>
        <time>2023-09-03T07:12:01Z</time>
      </trkpt>
      <trkpt lat="49.36997" lon="0.22908">
        <ele>125.1</ele>
        <time>2023-09-03T07:12:02Z</time>
      </trkpt>
      <trkpt lat="49.37005" lon="0.22909">
        <ele>125.1</ele>
        <time>2023-09-03T07:12:03Z</time>
      </trkpt>
      <trkpt lat="49.37014" lon="0.22911">
        <ele>125</ele>
        <time>2023-09-03T07:12:04Z</time>
      </trkpt>
      <trkpt lat="49.37022" lon="0.22913">
        <ele>124.9</ele>
        <time>2023-09-03T07:12:05Z</time>
      </trkpt>
      <trkpt lat="49.37031" lon="0.22915">
        <ele>124.9</ele>
        <time>2023-09-03T07:12:06Z</time>
      </trkpt>
      <trkpt lat="49.37039" lon="0.22917">
        <ele>124.8</ele>
        <time>2023-09-03T07:12:07Z</time>
      </trkpt>
      <trkpt lat="49.37048" lon="0.2292">
        <ele>124.7</ele>
        <time>2023-09-03T07:12:08Z</time>
      </trkpt>
      <trkpt lat="49.37056" lon="0.22922">
        <ele>124.7</ele>
        <time>2023-09-03T07:12:09Z</time>
      </trkpt>
      <trkpt lat="49.37064" lon="0.22924">
        <ele>124.6</ele>
        <time>2023-09-03T07:12:10Z</time>
      </trkpt>
      <trkpt lat="49.37072" lon="0.22927">
        <ele>124.6</ele>
        <time>2023-09-03T07:12:11Z</time>
      </trkpt>
      <trkpt lat="49.37081" lon="0.22929">
        <ele>124.5</ele>
        <time>2023-09-03T07:12:12Z</time>
      </trkpt>
      <trkpt lat="49.37089" lon="0.22931">
        <ele>124.5</ele>
        <time>2023-09-03T07:12:13Z</time>
      </trkpt>
      <trkpt lat="49.37097" lon="0.22934">
        <ele>124.5</ele>
        <time>2023-09-03T07:12:14Z</time>
      </trkpt>
      <trkpt lat="49.37105" lon="0.22937">
        <ele>124.5</ele>
        <time>2023-09-03T07:12:15Z</time>
      </trkpt>
      <trkpt lat="49.37113" lon="0.22939">
        <ele>124.5</ele>
        <time>2023-09-03T07:12:16Z</time>
      </trkpt>
      <trkpt lat="49.37121" lon="0.22942">
        <ele>124.5</ele>
        <time>2023-09-03T07:12:17Z</time>
      </trkpt>
      <trkpt lat="49.37129" lon="0.22944">
        <ele>124.4</ele>
        <time>2023-09-03T07:12:18Z</time>
      </trkpt>
      <trkpt lat="49.37137" lon="0.22946">
        <ele>124.4</ele>
        <time>2023-09-03T07:12:19Z</time>
      </trkpt>
      <trkpt lat="49.37145" lon="0.22948">
        <ele>124.4</ele>
        <time>2023-09-03T07:12:20Z</time>
      </trkpt>
      <trkpt lat="49.37154" lon="0.2295">
        <ele>124.4</ele>
        <time>2023-09-03T07:12:21Z</time>
      </trkpt>
      <trkpt lat="49.37161" lon="0.22952">
        <ele>124.3</ele>
        <time>2023-09-03T07:12:22Z</time>
      </trkpt>
      <trkpt lat="49.37169" lon="0.22954">
        <ele>124.3</ele>
        <time>2023-09-03T07:12:23Z</time>
      </trkpt>
      <trkpt lat="49.37176" lon="0.22957">
        <ele>124.2</ele>
        <time>2023-09-03T07:12:24Z</time>
      </trkpt>
      <trkpt lat="49.37184" lon="0.22959">
        <ele>124.2</ele>
        <time>2023-09-03T07:12:25Z</time>
      </trkpt>
      <trkpt lat="49.37192" lon="0.22961">
        <ele>124.1</ele>
        <time>2023-09-03T07:12:26Z</time>
      </trkpt>
      <trkpt lat="49.372" lon="0.22963">
        <ele>124.2</ele>
        <time>2023-09-03T07:12:27Z</time>
      </trkpt>
      <trkpt lat="49.37209" lon="0.22965">
        <ele>124.2</ele>
        <time>2023-09-03T07:12:28Z</time>
      </trkpt>
      <trkpt lat="49.37217" lon="0.22967">
        <ele>124.3</ele>
        <time>2023-09-03T07:12:29Z</time>
      </trkpt>
      <trkpt lat="49.37225" lon="0.22969">
        <ele>124.4</ele>
        <time>2023-09-03T07:12:30Z</time>
      </trkpt>
      <trkpt lat="49.37232" lon="0.22972">
        <ele>124.4</ele>
        <time>2023-09-03T07:12:31Z</time>
      </trkpt>
      <trkpt lat="49.37239" lon="0.22976">
        <ele>124.3</ele>
        <time>2023-09-03T07:12:32Z</time>
      </trkpt>
      <trkpt lat="49.37245" lon="0.2298">
        <ele>124.3</ele>
        <time>2023-09-03T07:12:33Z</time>
      </trkpt>
      <trkpt lat="49.37251" lon="0.22985">
        <ele>124.1</ele>
        <time>2023-09-03T07:12:34Z</time>
      </trkpt>
      <trkpt lat="49.37257" lon="0.22993">
        <ele>124</ele>
        <time>2023-09-03T07:12:35Z</time>
      </trkpt>
      <trkpt lat="49.37262" lon="0.23004">
        <ele>123.8</ele>
        <time>2023-09-03T07:12:36Z</time>
      </trkpt>
      <trkpt lat="49.37267" lon="0.23014">
        <ele>123.7</ele>
        <time>2023-09-03T07:12:37Z</time>
      </trkpt>
      <trkpt lat="49.37272" lon="0.23025">
        <ele>123.6</ele>
        <time>2023-09-03T07:12:38Z</time>
      </trkpt>
      <trkpt lat="49.37277" lon="0.23035">
        <ele>123.5</ele>
        <time>2023-09-03T07:12:39Z</time>
      </trkpt>
      <trkpt lat="49.37281" lon="0.23046">
        <ele>123.5</ele>
        <time>2023-09-03T07:12:40Z</time>
      </trkpt>
      <trkpt lat="49.37286" lon="0.23057">
        <ele>123.4</ele>
        <time>2023-09-03T07:12:41Z</time>
      </trkpt>
      <trkpt lat="49.37291" lon="0.23068">
        <ele>123.4</ele>
        <time>2023-09-03T07:12:42Z</time>
      </trkpt>
      <trkpt lat="49.37296" lon="0.23078">
        <ele>123.4</ele>
        <time>2023-09-03T07:12:43Z</time>
      </trkpt>
      <trkpt lat="49.37301" lon="0.23088">
        <ele>123.3</ele>
        <time>2023-09-03T07:12:44Z</time>
      </trkpt>
      <trkpt lat="49.37307" lon="0.23098">
        <ele>123.3</ele>
        <time>2023-09-03T07:12:45Z</time>
      </trkpt>
      <trkpt lat="49.37312" lon="0.23108">
        <ele>123.2</ele>
        <time>2023-09-03T07:12:46Z</time>
      </trkpt>
      <trkpt lat="49.37317" lon="0.23118">
        <ele>123.2</ele>
        <time>2023-09-03T07:12:47Z</time>
      </trkpt>
      <trkpt lat="49.37321" lon="0.23128">
        <ele>123.1</ele>
        <time>2023-09-03T07:12:48Z</time>
      </trkpt>
      <trkpt lat="49.37326" lon="0.23138">
        <ele>123.1</ele>
        <time>2023-09-03T07:12:49Z</time>
      </trkpt>
      <trkpt lat="49.3733" lon="0.23147">
        <ele>123</ele>
        <time>2023-09-03T07:12:50Z</time>
      </trkpt>
      <trkpt lat="49.37334" lon="0.23156">
        <ele>123</ele>
        <time>2023-09-03T07:12:51Z</time>
      </trkpt>
      <trkpt lat="49.37338" lon="0.23166">
        <ele>122.9</ele>
        <time>2023-09-03T07:12:52Z</time>
      </trkpt>
      <trkpt lat="49.37343" lon="0.23175">
        <ele>122.9</ele>
        <time>2023-09-03T07:12:53Z</time>
      </trkpt>
      <trkpt lat="49.37347" lon="0.23185">
        <ele>122.9</ele>
        <time>2023-09-03T07:12:54Z</time>
      </trkpt>
      <trkpt lat="49.37351" lon="0.23195">
        <ele>122.9</ele>
        <time>2023-09-03T07:12:55Z</time>
      </trkpt>
      <trkpt lat="49.37356" lon="0.23205">
        <ele>122.8</ele>
        <time>2023-09-03T07:12:56Z</time>
      </trkpt>
      <trkpt lat="49.3736" lon="0.23215">
        <ele>122.8</ele>
        <time>2023-09-03T07:12:57Z</time>
      </trkpt>
      <trkpt lat="49.37364" lon="0.23225">
        <ele>122.8</ele>
        <time>2023-09-03T07:12:58Z</time>
      </trkpt>
      <trkpt lat="49.37367" lon="0.23236">
        <ele>122.7</ele>
        <time>2023-09-03T07:12:59Z</time>
      </trkpt>
      <trkpt lat="49.3737" lon="0.23246">
        <ele>122.7</ele>
        <time>2023-09-03T07:13:00Z</time>
      </trkpt>
      <trkpt lat="49.37373" lon="0.23257">
        <ele>122.7</ele>
        <time>2023-09-03T07:13:01Z</time>
      </trkpt>
      <trkpt lat="49.37376" lon="0.23268">
        <ele>122.6</ele>
        <time>2023-09-03T07:13:02Z</time>
      </trkpt>
      <trkpt lat="49.37378" lon="0.23279">
        <ele>122.6</ele>
        <time>2023-09-03T07:13:03Z</time>
      </trkpt>
      <trkpt lat="49.37379" lon="0.2329">
        <ele>122.5</ele>
        <time>2023-09-03T07:13:04Z</time>
      </trkpt>
      <trkpt lat="49.37381" lon="0.23301">
        <ele>122.6</ele>
        <time>2023-09-03T07:13:05Z</time>
      </trkpt>
      <trkpt lat="49.37383" lon="0.23313">
        <ele>122.6</ele>
        <time>2023-09-03T07:13:06Z</time>
      </trkpt>
      <trkpt lat="49.37384" lon="0.23324">
        <ele>122.7</ele>
        <time>2023-09-03T07:13:07Z</time>
      </trkpt>
      <trkpt lat="49.37384" lon="0.23336">
        <ele>122.8</ele>
        <time>2023-09-03T07:13:08Z</time>
      </trkpt>
      <trkpt lat="49.37384" lon="0.23348">
        <ele>122.9</ele>
        <time>2023-09-03T07:13:09Z</time>
      </trkpt>
      <trkpt lat="49.37384" lon="0.23359">
        <ele>122.9</ele>
        <time>2023-09-03T07:13:10Z</time>
      </trkpt>
      <trkpt lat="49.37384" lon="0.23371">
        <ele>123</ele>
        <time>2023-09-03T07:13:11Z</time>
      </trkpt>
      <trkpt lat="49.37383" lon="0.23383">
        <ele>123.1</ele>
        <time>2023-09-03T07:13:12Z</time>
      </trkpt>
      <trkpt lat="49.37383" lon="0.23395">
        <ele>123.1</ele>
        <time>2023-09-03T07:13:13Z</time>
      </trkpt>
      <trkpt lat="49.37382" lon="0.23407">
        <ele>123.1</ele>
        <time>2023-09-03T07:13:14Z</time>
      </trkpt>
      <trkpt lat="49.37382" lon="0.23419">
        <ele>123.2</ele>
        <time>2023-09-03T07:13:15Z</time>
      </trkpt>
      <trkpt lat="49.37382" lon="0.23431">
        <ele>123.2</ele>
        <time>2023-09-03T07:13:16Z</time>
      </trkpt>
      <trkpt lat="49.37381" lon="0.23443">
        <ele>123.2</ele>
        <time>2023-09-03T07:13:17Z</time>
      </trkpt>
      <trkpt lat="49.37381" lon="0.23454">
        <ele>123.2</ele>
        <time>2023-09-03T07:13:18Z</time>
      </trkpt>
      <trkpt lat="49.3738" lon="0.23466">
        <ele>123.2</ele>
        <time>2023-09-03T07:13:19Z</time>
      </trkpt>
      <trkpt lat="49.3738" lon="0.23478">
        <ele>123.3</ele>
        <time>2023-09-03T07:13:20Z</time>
      </trkpt>
      <trkpt lat="49.3738" lon="0.2349">
        <ele>123.3</ele>
        <time>2023-09-03T07:13:21Z</time>
      </trkpt>
      <trkpt lat="49.3738" lon="0.23501">
        <ele>123.4</ele>
        <time>2023-09-03T07:13:22Z</time>
      </trkpt>
      <trkpt lat="49.37381" lon="0.23513">
        <ele>123.4</ele>
        <time>2023-09-03T07:13:23Z</time>
      </trkpt>
      <trkpt lat="49.37382" lon="0.23525">
        <ele>123.5</ele>
        <time>2023-09-03T07:13:24Z</time>
      </trkpt>
      <trkpt lat="49.37383" lon="0.23536">
        <ele>123.6</ele>
        <time>2023-09-03T07:13:25Z</time>
      </trkpt>
      <trkpt lat="49.37384" lon="0.23548">
        <ele>123.6</ele>
        <time>2023-09-03T07:13:26Z</time>
      </trkpt>
      <trkpt lat="49.37385" lon="0.23559">
        <ele>123.7</ele>
        <time>2023-09-03T07:13:27Z</time>
      </trkpt>
      <trkpt lat="49.37387" lon="0.23571">
        <ele>123.8</ele>
        <time>2023-09-03T07:13:28Z</time>
      </trkpt>
      <trkpt lat="49.37389" lon="0.23583">
        <ele>123.9</ele>
        <time>2023-09-03T07:13:29Z</time>
      </trkpt>
      <trkpt lat="49.37391" lon="0.23594">
        <ele>124</ele>
        <time>2023-09-03T07:13:30Z</time>
      </trkpt>
      <trkpt lat="49.37394" lon="0.23605">
        <ele>123.9</ele>
        <time>2023-09-03T07:13:31Z</time>
      </trkpt>
      <trkpt lat="49.37397" lon="0.23616">
        <ele>123.9</ele>
        <time>2023-09-03T07:13:32Z</time>
      </trkpt>
      <trkpt lat="49.37401" lon="0.23626">
        <ele>124</ele>
        <time>2023-09-03T07:13:33Z</time>
      </trkpt>
      <trkpt lat="49.37404" lon="0.23637">
        <ele>124.1</ele>
        <time>2023-09-03T07:13:34Z</time>
      </trkpt>
      <trkpt lat="49.37408" lon="0.23647">
        <ele>124.1</ele>
        <time>2023-09-03T07:13:35Z</time>
      </trkpt>
      <trkpt lat="49.37411" lon="0.23658">
        <ele>124.2</ele>
        <time>2023-09-03T07:13:36Z</time>
      </trkpt>
      <trkpt lat="49.37414" lon="0.23668">
        <ele>124.2</ele>
        <time>2023-09-03T07:13:37Z</time>
      </trkpt>
      <trkpt lat="49.37417" lon="0.23679">
        <ele>124.3</ele>
        <time>2023-09-03T07:13:38Z</time>
      </trkpt>
      <trkpt lat="49.3742" lon="0.2369">
        <ele>124.3</ele>
        <time>2023-09-03T07:13:39Z</time>
      </trkpt>
      <trkpt lat="49.37423" lon="0.237">
        <ele>124.4</ele>
        <time>2023-09-03T07:13:40Z</time>
      </trkpt>
      <trkpt lat="49.37426" lon="0.23711">
        <ele>124.4</ele>
        <time>2023-09-03T07:13:41Z</time>
      </trkpt>
      <trkpt lat="49.37429" lon="0.23722">
        <ele>124.5</ele>
        <time>2023-09-03T07:13:42Z</time>
      </trkpt>
      <trkpt lat="49.37431" lon="0.23733">
        <ele>124.5</ele>
        <time>2023-09-03T07:13:43Z</time>
      </trkpt>
      <trkpt lat="49.37434" lon="0.23744">
        <ele>124.6</ele>
        <time>2023-09-03T07:13:44Z</time>
      </trkpt>
      <trkpt lat="49.37436" lon="0.23754">
        <ele>124.6</ele>
        <time>2023-09-03T07:13:45Z</time>
      </trkpt>
      <trkpt lat="49.37439" lon="0.23765">
        <ele>124.5</ele>
        <time>2023-09-03T07:13:46Z</time>
      </trkpt>
      <trkpt lat="49.37442" lon="0.23776">
        <ele>124.5</ele>
        <time>2023-09-03T07:13:47Z</time>
      </trkpt>
      <trkpt lat="49.37444" lon="0.23787">
        <ele>124.4</ele>
        <time>2023-09-03T07:13:48Z</time>
      </trkpt>
      <trkpt lat="49.37447" lon="0.23799">
        <ele>124.3</ele>
        <time>2023-09-03T07:13:49Z</time>
      </trkpt>
      <trkpt lat="49.3745" lon="0.2381">
        <ele>124.3</ele>
        <time>2023-09-03T07:13:50Z</time>
      </trkpt>
      <trkpt lat="49.37453" lon="0.23822">
        <ele>124.2</ele>
        <time>2023-09-03T07:13:51Z</time>
      </trkpt>
      <trkpt lat="49.37455" lon="0.23833">
        <ele>124.1</ele>
        <time>2023-09-03T07:13:52Z</time>
      </trkpt>
      <trkpt lat="49.37458" lon="0.23845">
        <ele>124</ele>
        <time>2023-09-03T07:13:53Z</time>
      </trkpt>
      <trkpt lat="49.37461" lon="0.23856">
        <ele>123.9</ele>
        <time>2023-09-03T07:13:54Z</time>
      </trkpt>
      <trkpt lat="49.37464" lon="0.23867">
        <ele>123.8</ele>
        <time>2023-09-03T07:13:55Z</time>
      </trkpt>
      <trkpt lat="49.37466" lon="0.23879">
        <ele>123.7</ele>
        <time>2023-09-03T07:13:56Z</time>
      </trkpt>
      <trkpt lat="49.37468" lon="0.23891">
        <ele>123.7</ele>
        <time>2023-09-03T07:13:57Z</time>
      </trkpt>
      <trkpt lat="49.37471" lon="0.23902">
        <ele>123.5</ele>
        <time>2023-09-03T07:13:58Z</time>
      </trkpt>
      <trkpt lat="49.37474" lon="0.23914">
        <ele>123.4</ele>
        <time>2023-09-03T07:13:59Z</time>
      </trkpt>
      <trkpt lat="49.37476" lon="0.23926">
        <ele>123.2</ele>
        <time>2023-09-03T07:14:00Z</time>
      </trkpt>
      <trkpt lat="49.37478" lon="0.23938">
        <ele>123</ele>
        <time>2023-09-03T07:14:01Z</time>
      </trkpt>
      <trkpt lat="49.3748" lon="0.23951">
        <ele>122.8</ele>
        <time>2023-09-03T07:14:02Z</time>
      </trkpt>
      <trkpt lat="49.37482" lon="0.23963">
        <ele>122.6</ele>
        <time>2023-09-03T07:14:03Z</time>
      </trkpt>
      <trkpt lat="49.37483" lon="0.23976">
        <ele>122.4</ele>
        <time>2023-09-03T07:14:04Z</time>
      </trkpt>
      <trkpt lat="49.37485" lon="0.23989">
        <ele>122.2</ele>
        <time>2023-09-03T07:14:05Z</time>
      </trkpt>
      <trkpt lat="49.37486" lon="0.24001">
        <ele>122.1</ele>
        <time>2023-09-03T07:14:06Z</time>
      </trkpt>
      <trkpt lat="49.37488" lon="0.24014">
        <ele>121.9</ele>
        <time>2023-09-03T07:14:07Z</time>
      </trkpt>
      <trkpt lat="49.37489" lon="0.24027">
        <ele>121.8</ele>
        <time>2023-09-03T07:14:08Z</time>
      </trkpt>
      <trkpt lat="49.37491" lon="0.24039">
        <ele>121.6</ele>
        <time>2023-09-03T07:14:09Z</time>
      </trkpt>
      <trkpt lat="49.37493" lon="0.24052">
        <ele>121.5</ele>
        <time>2023-09-03T07:14:10Z</time>
      </trkpt>
      <trkpt lat="49.37494" lon="0.24064">
        <ele>121.3</ele>
        <time>2023-09-03T07:14:11Z</time>
      </trkpt>
      <trkpt lat="49.37496" lon="0.24078">
        <ele>121.2</ele>
        <time>2023-09-03T07:14:12Z</time>
      </trkpt>
      <trkpt lat="49.37497" lon="0.24091">
        <ele>121.2</ele>
        <time>2023-09-03T07:14:13Z</time>
      </trkpt>
      <trkpt lat="49.37499" lon="0.24103">
        <ele>121.1</ele>
        <time>2023-09-03T07:14:14Z</time>
      </trkpt>
      <trkpt lat="49.375" lon="0.24117">
        <ele>121</ele>
        <time>2023-09-03T07:14:15Z</time>
      </trkpt>
      <trkpt lat="49.37502" lon="0.2413">
        <ele>120.9</ele>
        <time>2023-09-03T07:14:16Z</time>
      </trkpt>
      <trkpt lat="49.37503" lon="0.24143">
        <ele>120.8</ele>
        <time>2023-09-03T07:14:17Z</time>
      </trkpt>
      <trkpt lat="49.37504" lon="0.24156">
        <ele>120.7</ele>
        <time>2023-09-03T07:14:18Z</time>
      </trkpt>
      <trkpt lat="49.37506" lon="0.24169">
        <ele>120.6</ele>
        <time>2023-09-03T07:14:19Z</time>
      </trkpt>
      <trkpt lat="49.37507" lon="0.24182">
        <ele>120.6</ele>
        <time>2023-09-03T07:14:20Z</time>
      </trkpt>
      <trkpt lat="49.37508" lon="0.24194">
        <ele>120.5</ele>
        <time>2023-09-03T07:14:21Z</time>
      </trkpt>
      <trkpt lat="49.37509" lon="0.24208">
        <ele>120.5</ele>
        <time>2023-09-03T07:14:22Z</time>
      </trkpt>
      <trkpt lat="49.3751" lon="0.24221">
        <ele>120.4</ele>
        <time>2023-09-03T07:14:23Z</time>
      </trkpt>
      <trkpt lat="49.37511" lon="0.24234">
        <ele>120.4</ele>
        <time>2023-09-03T07:14:24Z</time>
      </trkpt>
      <trkpt lat="49.37512" lon="0.24247">
        <ele>120.3</ele>
        <time>2023-09-03T07:14:25Z</time>
      </trkpt>
      <trkpt lat="49.37513" lon="0.24261">
        <ele>120.3</ele>
        <time>2023-09-03T07:14:26Z</time>
      </trkpt>
      <trkpt lat="49.37515" lon="0.24274">
        <ele>120.2</ele>
        <time>2023-09-03T07:14:27Z</time>
      </trkpt>
      <trkpt lat="49.37516" lon="0.24287">
        <ele>120.2</ele>
        <time>2023-09-03T07:14:28Z</time>
      </trkpt>
      <trkpt lat="49.37517" lon="0.243">
        <ele>120.2</ele>
        <time>2023-09-03T07:14:29Z</time>
      </trkpt>
      <trkpt lat="49.37518" lon="0.24313">
        <ele>120.1</ele>
        <time>2023-09-03T07:14:30Z</time>
      </trkpt>
      <trkpt lat="49.37519" lon="0.24325">
        <ele>120.1</ele>
        <time>2023-09-03T07:14:31Z</time>
      </trkpt>
      <trkpt lat="49.3752" lon="0.24337">
        <ele>120.1</ele>
        <time>2023-09-03T07:14:32Z</time>
      </trkpt>
      <trkpt lat="49.37521" lon="0.2435">
        <ele>120.1</ele>
        <time>2023-09-03T07:14:33Z</time>
      </trkpt>
      <trkpt lat="49.37522" lon="0.24361">
        <ele>120.2</ele>
        <time>2023-09-03T07:14:34Z</time>
      </trkpt>
      <trkpt lat="49.37524" lon="0.24373">
        <ele>120.2</ele>
        <time>2023-09-03T07:14:35Z</time>
      </trkpt>
      <trkpt lat="49.37525" lon="0.24385">
        <ele>120.2</ele>
        <time>2023-09-03T07:14:36Z</time>
      </trkpt>
      <trkpt lat="49.37526" lon="0.24397">
        <ele>120.3</ele>
        <time>2023-09-03T07:14:37Z</time>
      </trkpt>
      <trkpt lat="49.37527" lon="0.24409">
        <ele>120.4</ele>
        <time>2023-09-03T07:14:38Z</time>
      </trkpt>
      <trkpt lat="49.37528" lon="0.24421">
        <ele>120.4</ele>
        <time>2023-09-03T07:14:39Z</time>
      </trkpt>
      <trkpt lat="49.37529" lon="0.24433">
        <ele>120.5</ele>
        <time>2023-09-03T07:14:40Z</time>
      </trkpt>
      <trkpt lat="49.3753" lon="0.24445">
        <ele>120.6</ele>
        <time>2023-09-03T07:14:41Z</time>
      </trkpt>
      <trkpt lat="49.37531" lon="0.24457">
        <ele>120.7</ele>
        <time>2023-09-03T07:14:42Z</time>
      </trkpt>
      <trkpt lat="49.37532" lon="0.24468">
        <ele>120.8</ele>
        <time>2023-09-03T07:14:43Z</time>
      </trkpt>
      <trkpt lat="49.37534" lon="0.2448">
        <ele>120.8</ele>
        <time>2023-09-03T07:14:44Z</time>
      </trkpt>
      <trkpt lat="49.37535" lon="0.24491">
        <ele>120.9</ele>
        <time>2023-09-03T07:14:45Z</time>
      </trkpt>
      <trkpt lat="49.37536" lon="0.24502">
        <ele>121</ele>
        <time>2023-09-03T07:14:46Z</time>
      </trkpt>
      <trkpt lat="49.37537" lon="0.24514">
        <ele>121</ele>
        <time>2023-09-03T07:14:47Z</time>
      </trkpt>
      <trkpt lat="49.37539" lon="0.24525">
        <ele>121.1</ele>
        <time>2023-09-03T07:14:48Z</time>
      </trkpt>
      <trkpt lat="49.3754" lon="0.24536">
        <ele>121.1</ele>
        <time>2023-09-03T07:14:49Z</time>
      </trkpt>
      <trkpt lat="49.37541" lon="0.24547">
        <ele>121</ele>
        <time>2023-09-03T07:14:50Z</time>
      </trkpt>
      <trkpt lat="49.37542" lon="0.24558">
        <ele>121</ele>
        <time>2023-09-03T07:14:51Z</time>
      </trkpt>
      <trkpt lat="49.37542" lon="0.24569">
        <ele>120.9</ele>
        <time>2023-09-03T07:14:52Z</time>
      </trkpt>
      <trkpt lat="49.37543" lon="0.24581">
        <ele>120.9</ele>
        <time>2023-09-03T07:14:53Z</time>
      </trkpt>
      <trkpt lat="49.37543" lon="0.24592">
        <ele>120.8</ele>
        <time>2023-09-03T07:14:54Z</time>
      </trkpt>
      <trkpt lat="49.37542" lon="0.24604">
        <ele>120.8</ele>
        <time>2023-09-03T07:14:55Z</time>
      </trkpt>
      <trkpt lat="49.37541" lon="0.24615">
        <ele>120.7</ele>
        <time>2023-09-03T07:14:56Z</time>
      </trkpt>
      <trkpt lat="49.3754" lon="0.24627">
        <ele>120.6</ele>
        <time>2023-09-03T07:14:57Z</time>
      </trkpt>
      <trkpt lat="49.37539" lon="0.24639">
        <ele>120.6</ele>
        <time>2023-09-03T07:14:58Z</time>
      </trkpt>
      <trkpt lat="49.37538" lon="0.2465">
        <ele>120.5</ele>
        <time>2023-09-03T07:14:59Z</time>
      </trkpt>
      <trkpt lat="49.37537" lon="0.24662">
        <ele>120.4</ele>
        <time>2023-09-03T07:15:00Z</time>
      </trkpt>
      <trkpt lat="49.37536" lon="0.24674">
        <ele>120.3</ele>
        <time>2023-09-03T07:15:01Z</time>
      </trkpt>
      <trkpt lat="49.37536" lon="0.24687">
        <ele>120.2</ele>
        <time>2023-09-03T07:15:02Z</time>
      </trkpt>
      <trkpt lat="49.37535" lon="0.24699">
        <ele>120.2</ele>
        <time>2023-09-03T07:15:03Z</time>
      </trkpt>
      <trkpt lat="49.37534" lon="0.24712">
        <ele>120.1</ele>
        <time>2023-09-03T07:15:04Z</time>
      </trkpt>
      <trkpt lat="49.37534" lon="0.24724">
        <ele>120.1</ele>
        <time>2023-09-03T07:15:05Z</time>
      </trkpt>
      <trkpt lat="49.37533" lon="0.24736">
        <ele>120</ele>
        <time>2023-09-03T07:15:06Z</time>
      </trkpt>
      <trkpt lat="49.37533" lon="0.24748">
        <ele>119.8</ele>
        <time>2023-09-03T07:15:07Z</time>
      </trkpt>
      <trkpt lat="49.37532" lon="0.2476">
        <ele>119.7</ele>
        <time>2023-09-03T07:15:08Z</time>
      </trkpt>
      <trkpt lat="49.3753" lon="0.24773">
        <ele>119.6</ele>
        <time>2023-09-03T07:15:09Z</time>
      </trkpt>
      <trkpt lat="49.37529" lon="0.24785">
        <ele>119.4</ele>
        <time>2023-09-03T07:15:10Z</time>
      </trkpt>
      <trkpt lat="49.37528" lon="0.24798">
        <ele>119.2</ele>
        <time>2023-09-03T07:15:11Z</time>
      </trkpt>
      <trkpt lat="49.37526" lon="0.2481">
        <ele>119</ele>
        <time>2023-09-03T07:15:12Z</time>
      </trkpt>
      <trkpt lat="49.37525" lon="0.24823">
        <ele>118.8</ele>
        <time>2023-09-03T07:15:13Z</time>
      </trkpt>
      <trkpt lat="49.37523" lon="0.24836">
        <ele>118.5</ele>
        <time>2023-09-03T07:15:14Z</time>
      </trkpt>
      <trkpt lat="49.37522" lon="0.24849">
        <ele>118.3</ele>
        <time>2023-09-03T07:15:15Z</time>
      </trkpt>
      <trkpt lat="49.3752" lon="0.24861">
        <ele>118</ele>
        <time>2023-09-03T07:15:16Z</time>
      </trkpt>
      <trkpt lat="49.37518" lon="0.24875">
        <ele>117.6</ele>
        <time>2023-09-03T07:15:17Z</time>
      </trkpt>
      <trkpt lat="49.37517" lon="0.24888">
        <ele>117.3</ele>
        <time>2023-09-03T07:15:18Z</time>
      </trkpt>
      <trkpt lat="49.37516" lon="0.24901">
        <ele>116.9</ele>
        <time>2023-09-03T07:15:19Z</time>
      </trkpt>
      <trkpt lat="49.37514" lon="0.24914">
        <ele>116.6</ele>
        <time>2023-09-03T07:15:20Z</time>
      </trkpt>
      <trkpt lat="49.37513" lon="0.24927">
        <ele>116.3</ele>
        <time>2023-09-03T07:15:21Z</time>
      </trkpt>
      <trkpt lat="49.37511" lon="0.24941">
        <ele>116</ele>
        <time>2023-09-03T07:15:22Z</time>
      </trkpt>
      <trkpt lat="49.37509" lon="0.24955">
        <ele>115.6</ele>
        <time>2023-09-03T07:15:23Z</time>
      </trkpt>
      <trkpt lat="49.37507" lon="0.24968">
        <ele>115.3</ele>
        <time>2023-09-03T07:15:24Z</time>
      </trkpt>
      <trkpt lat="49.37504" lon="0.24981">
        <ele>114.9</ele>
        <time>2023-09-03T07:15:25Z</time>
      </trkpt>
      <trkpt lat="49.37502" lon="0.24994">
        <ele>114.5</ele>
        <time>2023-09-03T07:15:26Z</time>
      </trkpt>
      <trkpt lat="49.37498" lon="0.25007">
        <ele>114.1</ele>
        <time>2023-09-03T07:15:27Z</time>
      </trkpt>
      <trkpt lat="49.37495" lon="0.25019">
        <ele>113.6</ele>
        <time>2023-09-03T07:15:28Z</time>
      </trkpt>
      <trkpt lat="49.37491" lon="0.25033">
        <ele>113.2</ele>
        <time>2023-09-03T07:15:29Z</time>
      </trkpt>
      <trkpt lat="49.37489" lon="0.25047">
        <ele>112.7</ele>
        <time>2023-09-03T07:15:30Z</time>
      </trkpt>
      <trkpt lat="49.37486" lon="0.2506">
        <ele>112.2</ele>
        <time>2023-09-03T07:15:31Z</time>
      </trkpt>
      <trkpt lat="49.37484" lon="0.25075">
        <ele>111.6</ele>
        <time>2023-09-03T07:15:32Z</time>
      </trkpt>
      <trkpt lat="49.37481" lon="0.25089">
        <ele>110.9</ele>
        <time>2023-09-03T07:15:33Z</time>
      </trkpt>
      <trkpt lat="49.37479" lon="0.25104">
        <ele>110.1</ele>
        <time>2023-09-03T07:15:34Z</time>
      </trkpt>
      <trkpt lat="49.37477" lon="0.2512">
        <ele>109.1</ele>
        <time>2023-09-03T07:15:35Z</time>
      </trkpt>
      <trkpt lat="49.37475" lon="0.25136">
        <ele>108.1</ele>
        <time>2023-09-03T07:15:36Z</time>
      </trkpt>
      <trkpt lat="49.37473" lon="0.25152">
        <ele>107.2</ele>
        <time>2023-09-03T07:15:37Z</time>
      </trkpt>
      <trkpt lat="49.37471" lon="0.25168">
        <ele>106.3</ele>
        <time>2023-09-03T07:15:38Z</time>
      </trkpt>
      <trkpt lat="49.3747" lon="0.25184">
        <ele>105.3</ele>
        <time>2023-09-03T07:15:39Z</time>
      </trkpt>
      <trkpt lat="49.37468" lon="0.252">
        <ele>104.4</ele>
        <time>2023-09-03T07:15:40Z</time>
      </trkpt>
      <trkpt lat="49.37465" lon="0.25217">
        <ele>103.4</ele>
        <time>2023-09-03T07:15:41Z</time>
      </trkpt>
      <trkpt lat="49.3746" lon="0.25233">
        <ele>102.5</ele>
        <time>2023-09-03T07:15:42Z</time>
      </trkpt>
      <trkpt lat="49.37454" lon="0.2525">
        <ele>101.5</ele>
        <time>2023-09-03T07:15:43Z</time>
      </trkpt>
      <trkpt lat="49.37449" lon="0.25267">
        <ele>100.4</ele>
        <time>2023-09-03T07:15:44Z</time>
      </trkpt>
      <trkpt lat="49.37444" lon="0.25285">
        <ele>99.4</ele>
        <time>2023-09-03T07:15:45Z</time>
      </trkpt>
      <trkpt lat="49.37439" lon="0.25302">
        <ele>98.4</ele>
        <time>2023-09-03T07:15:46Z</time>
      </trkpt>
      <trkpt lat="49.37435" lon="0.2532">
        <ele>97.4</ele>
        <time>2023-09-03T07:15:47Z</time>
      </trkpt>
      <trkpt lat="49.37431" lon="0.25338">
        <ele>96.3</ele>
        <time>2023-09-03T07:15:48Z</time>
      </trkpt>
      <trkpt lat="49.37427" lon="0.25356">
        <ele>95.3</ele>
        <time>2023-09-03T07:15:49Z</time>
      </trkpt>
      <trkpt lat="49.37422" lon="0.25375">
        <ele>94.2</ele>
        <time>2023-09-03T07:15:50Z</time>
      </trkpt>
      <trkpt lat="49.37417" lon="0.25393">
        <ele>93.1</ele>
        <time>2023-09-03T07:15:51Z</time>
      </trkpt>
      <trkpt lat="49.37411" lon="0.25412">
        <ele>92</ele>
        <time>2023-09-03T07:15:52Z</time>
      </trkpt>
      <trkpt lat="49.37405" lon="0.2543">
        <ele>90.9</ele>
        <time>2023-09-03T07:15:53Z</time>
      </trkpt>
      <trkpt lat="49.37399" lon="0.25448">
        <ele>90</ele>
        <time>2023-09-03T07:15:54Z</time>
      </trkpt>
      <trkpt lat="49.37393" lon="0.25465">
        <ele>89</ele>
        <time>2023-09-03T07:15:55Z</time>
      </trkpt>
      <trkpt lat="49.37388" lon="0.25482">
        <ele>88.1</ele>
        <time>2023-09-03T07:15:56Z</time>
      </trkpt>
      <trkpt lat="49.37383" lon="0.25498">
        <ele>87.3</ele>
        <time>2023-09-03T07:15:57Z</time>
      </trkpt>
      <trkpt lat="49.37378" lon="0.25515">
        <ele>86.4</ele>
        <time>2023-09-03T07:15:58Z</time>
      </trkpt>
      <trkpt lat="49.37374" lon="0.25531">
        <ele>85.6</ele>
        <time>2023-09-03T07:15:59Z</time>
      </trkpt>
      <trkpt lat="49.37371" lon="0.25547">
        <ele>84.9</ele>
        <time>2023-09-03T07:16:00Z</time>
      </trkpt>
      <trkpt lat="49.37368" lon="0.25564">
        <ele>84.1</ele>
        <time>2023-09-03T07:16:01Z</time>
      </trkpt>
      <trkpt lat="49.37366" lon="0.25579">
        <ele>83.5</ele>
        <time>2023-09-03T07:16:02Z</time>
      </trkpt>
      <trkpt lat="49.37363" lon="0.25593">
        <ele>83</ele>
        <time>2023-09-03T07:16:03Z</time>
      </trkpt>
      <trkpt lat="49.3736" lon="0.25605">
        <ele>82.5</ele>
        <time>2023-09-03T07:16:04Z</time>
      </trkpt>
      <trkpt lat="49.37356" lon="0.25617">
        <ele>82</ele>
        <time>2023-09-03T07:16:05Z</time>
      </trkpt>
      <trkpt lat="49.37352" lon="0.25628">
        <ele>81.5</ele>
        <time>2023-09-03T07:16:06Z</time>
      </trkpt>
      <trkpt lat="49.37345" lon="0.25637">
        <ele>81</ele>
        <time>2023-09-03T07:16:07Z</time>
      </trkpt>
      <trkpt lat="49.37336" lon="0.25643">
        <ele>80.4</ele>
        <time>2023-09-03T07:16:08Z</time>
      </trkpt>
      <trkpt lat="49.37326" lon="0.25647">
        <ele>79.7</ele>
        <time>2023-09-03T07:16:09Z</time>
      </trkpt>
      <trkpt lat="49.37316" lon="0.25648">
        <ele>79</ele>
        <time>2023-09-03T07:16:10Z</time>
      </trkpt>
      <trkpt lat="49.37307" lon="0.25648">
        <ele>78.2</ele>
        <time>2023-09-03T07:16:11Z</time>
      </trkpt>
      <trkpt lat="49.37298" lon="0.2565">
        <ele>77.5</ele>
        <time>2023-09-03T07:16:12Z</time>
      </trkpt>
      <trkpt lat="49.37292" lon="0.25652">
        <ele>76.9</ele>
        <time>2023-09-03T07:16:13Z</time>
      </trkpt>
      <trkpt lat="49.37286" lon="0.25657">
        <ele>76.3</ele>
        <time>2023-09-03T07:16:14Z</time>
      </trkpt>
      <trkpt lat="49.37283" lon="0.25667">
        <ele>75.5</ele>
        <time>2023-09-03T07:16:15Z</time>
      </trkpt>
      <trkpt lat="49.37281" lon="0.25679">
        <ele>74.6</ele>
        <time>2023-09-03T07:16:16Z</time>
      </trkpt>
      <trkpt lat="49.3728" lon="0.25691">
        <ele>73.6</ele>
        <time>2023-09-03T07:16:17Z</time>
      </trkpt>
      <trkpt lat="49.37283" lon="0.25704">
        <ele>72.7</ele>
        <time>2023-09-03T07:16:18Z</time>
      </trkpt>
      <trkpt lat="49.37288" lon="0.25714">
        <ele>71.9</ele>
        <time>2023-09-03T07:16:19Z</time>
      </trkpt>
      <trkpt lat="49.37295" lon="0.25722">
        <ele>71.1</ele>
        <time>2023-09-03T07:16:20Z</time>
      </trkpt>
      <trkpt lat="49.37302" lon="0.25728">
        <ele>70.4</ele>
        <time>2023-09-03T07:16:21Z</time>
      </trkpt>
      <trkpt lat="49.37311" lon="0.25731">
        <ele>69.8</ele>
        <time>2023-09-03T07:16:22Z</time>
      </trkpt>
      <trkpt lat="49.3732" lon="0.25733">
        <ele>69.2</ele>
        <time>2023-09-03T07:16:23Z</time>
      </trkpt>
      <trkpt lat="49.37329" lon="0.25733">
        <ele>68.6</ele>
        <time>2023-09-03T07:16:24Z</time>
      </trkpt>
      <trkpt lat="49.37339" lon="0.25731">
        <ele>68.1</ele>
        <time>2023-09-03T07:16:25Z</time>
      </trkpt>
      <trkpt lat="49.37348" lon="0.25728">
        <ele>67.6</ele>
        <time>2023-09-03T07:16:26Z</time>
      </trkpt>
      <trkpt lat="49.37356" lon="0.25721">
        <ele>67.1</ele>
        <time>2023-09-03T07:16:27Z</time>
      </trkpt>
      <trkpt lat="49.37364" lon="0.25713">
        <ele>66.7</ele>
        <time>2023-09-03T07:16:28Z</time>
      </trkpt>
      <trkpt lat="49.37371" lon="0.25704">
        <ele>66.3</ele>
        <time>2023-09-03T07:16:29Z</time>
      </trkpt>
      <trkpt lat="49.37379" lon="0.25695">
        <ele>65.9</ele>
        <time>2023-09-03T07:16:30Z</time>
      </trkpt>
      <trkpt lat="49.37386" lon="0.25689">
        <ele>65.5</ele>
        <time>2023-09-03T07:16:31Z</time>
      </trkpt>
      <trkpt lat="49.37393" lon="0.25685">
        <ele>65.2</ele>
        <time>2023-09-03T07:16:32Z</time>
      </trkpt>
      <trkpt lat="49.37401" lon="0.25684">
        <ele>64.8</ele>
        <time>2023-09-03T07:16:33Z</time>
      </trkpt>
      <trkpt lat="49.37409" lon="0.25687">
        <ele>64.4</ele>
        <time>2023-09-03T07:16:34Z</time>
      </trkpt>
      <trkpt lat="49.37416" lon="0.25697">
        <ele>63.8</ele>
        <time>2023-09-03T07:16:35Z</time>
      </trkpt>
      <trkpt lat="49.37421" lon="0.25709">
        <ele>63.3</ele>
        <time>2023-09-03T07:16:36Z</time>
      </trkpt>
      <trkpt lat="49.37426" lon="0.25721">
        <ele>63</ele>
        <time>2023-09-03T07:16:37Z</time>
      </trkpt>
      <trkpt lat="49.37432" lon="0.25733">
        <ele>63.2</ele>
        <time>2023-09-03T07:16:38Z</time>
      </trkpt>
      <trkpt lat="49.37439" lon="0.25743">
        <ele>63.5</ele>
        <time>2023-09-03T07:16:39Z</time>
      </trkpt>
      <trkpt lat="49.37446" lon="0.2575">
        <ele>63.9</ele>
        <time>2023-09-03T07:16:40Z</time>
      </trkpt>
      <trkpt lat="49.37453" lon="0.25757">
        <ele>64.2</ele>
        <time>2023-09-03T07:16:41Z</time>
      </trkpt>
      <trkpt lat="49.3746" lon="0.25762">
        <ele>64.6</ele>
        <time>2023-09-03T07:16:42Z</time>
      </trkpt>
      <trkpt lat="49.37467" lon="0.25768">
        <ele>65.1</ele>
        <time>2023-09-03T07:16:43Z</time>
      </trkpt>
      <trkpt lat="49.37473" lon="0.25773">
        <ele>65.5</ele>
        <time>2023-09-03T07:16:44Z</time>
      </trkpt>
      <trkpt lat="49.3748" lon="0.25778">
        <ele>66</ele>
        <time>2023-09-03T07:16:45Z</time>
      </trkpt>
      <trkpt lat="49.37487" lon="0.25782">
        <ele>66.5</ele>
        <time>2023-09-03T07:16:46Z</time>
      </trkpt>
      <trkpt lat="49.37493" lon="0.25786">
        <ele>67</ele>
        <time>2023-09-03T07:16:47Z</time>
      </trkpt>
      <trkpt lat="49.375" lon="0.25789">
        <ele>67.4</ele>
        <time>2023-09-03T07:16:48Z</time>
      </trkpt>
      <trkpt lat="49.37506" lon="0.25792">
        <ele>67.8</ele>
        <time>2023-09-03T07:16:49Z</time>
      </trkpt>
      <trkpt lat="49.37512" lon="0.25794">
        <ele>68.2</ele>
        <time>2023-09-03T07:16:50Z</time>
      </trkpt>
      <trkpt lat="49.37519" lon="0.25795">
        <ele>68.6</ele>
        <time>2023-09-03T07:16:51Z</time>
      </trkpt>
      <trkpt lat="49.37525" lon="0.25797">
        <ele>68.9</ele>
        <time>2023-09-03T07:16:52Z</time>
      </trkpt>
      <trkpt lat="49.37531" lon="0.25798">
        <ele>69.2</ele>
        <time>2023-09-03T07:16:53Z</time>
      </trkpt>
      <trkpt lat="49.37537" lon="0.25799">
        <ele>69.5</ele>
        <time>2023-09-03T07:16:54Z</time>
      </trkpt>
      <trkpt lat="49.37543" lon="0.25801">
        <ele>69.8</ele>
        <time>2023-09-03T07:16:55Z</time>
      </trkpt>
      <trkpt lat="49.37549" lon="0.25802">
        <ele>70</ele>
        <time>2023-09-03T07:16:56Z</time>
      </trkpt>
      <trkpt lat="49.37555" lon="0.25803">
        <ele>70.1</ele>
        <time>2023-09-03T07:16:57Z</time>
      </trkpt>
      <trkpt lat="49.37561" lon="0.25804">
        <ele>70.3</ele>
        <time>2023-09-03T07:16:58Z</time>
      </trkpt>
      <trkpt lat="49.37567" lon="0.25805">
        <ele>70.3</ele>
        <time>2023-09-03T07:16:59Z</time>
      </trkpt>
      <trkpt lat="49.37573" lon="0.25807">
        <ele>70.3</ele>
        <time>2023-09-03T07:17:00Z</time>
      </trkpt>
      <trkpt lat="49.37579" lon="0.25808">
        <ele>70.3</ele>
        <time>2023-09-03T07:17:01Z</time>
      </trkpt>
      <trkpt lat="49.37584" lon="0.25809">
        <ele>70.2</ele>
        <time>2023-09-03T07:17:02Z</time>
      </trkpt>
      <trkpt lat="49.37589" lon="0.25812">
        <ele>70.1</ele>
        <time>2023-09-03T07:17:03Z</time>
      </trkpt>
      <trkpt lat="49.37594" lon="0.25815">
        <ele>70</ele>
        <time>2023-09-03T07:17:04Z</time>
      </trkpt>
      <trkpt lat="49.376" lon="0.25819">
        <ele>69.8</ele>
        <time>2023-09-03T07:17:05Z</time>
      </trkpt>
      <trkpt lat="49.37606" lon="0.25823">
        <ele>69.5</ele>
        <time>2023-09-03T07:17:06Z</time>
      </trkpt>
      <trkpt lat="49.37612" lon="0.25827">
        <ele>69.3</ele>
        <time>2023-09-03T07:17:07Z</time>
      </trkpt>
      <trkpt lat="49.37618" lon="0.25832">
        <ele>69</ele>
        <time>2023-09-03T07:17:08Z</time>
      </trkpt>
      <trkpt lat="49.37624" lon="0.25836">
        <ele>68.8</ele>
        <time>2023-09-03T07:17:09Z</time>
      </trkpt>
      <trkpt lat="49.3763" lon="0.25841">
        <ele>68.5</ele>
        <time>2023-09-03T07:17:10Z</time>
      </trkpt>
      <trkpt lat="49.37637" lon="0.25846">
        <ele>68.3</ele>
        <time>2023-09-03T07:17:11Z</time>
      </trkpt>
      <trkpt lat="49.37643" lon="0.25851">
        <ele>68.1</ele>
        <time>2023-09-03T07:17:12Z</time>
      </trkpt>
      <trkpt lat="49.3765" lon="0.25855">
        <ele>67.9</ele>
        <time>2023-09-03T07:17:13Z</time>
      </trkpt>
      <trkpt lat="49.37657" lon="0.25858">
        <ele>67.8</ele>
        <time>2023-09-03T07:17:14Z</time>
      </trkpt>
      <trkpt lat="49.37664" lon="0.2586">
        <ele>67.7</ele>
        <time>2023-09-03T07:17:15Z</time>
      </trkpt>
      <trkpt lat="49.37672" lon="0.25862">
        <ele>67.6</ele>
        <time>2023-09-03T07:17:16Z</time>
      </trkpt>
      <trkpt lat="49.37679" lon="0.25863">
        <ele>67.5</ele>
        <time>2023-09-03T07:17:17Z</time>
      </trkpt>
      <trkpt lat="49.37686" lon="0.25865">
        <ele>67.5</ele>
        <time>2023-09-03T07:17:18Z</time>
      </trkpt>
      <trkpt lat="49.37693" lon="0.25865">
        <ele>67.5</ele>
        <time>2023-09-03T07:17:19Z</time>
      </trkpt>
      <trkpt lat="49.37699" lon="0.25866">
        <ele>67.5</ele>
        <time>2023-09-03T07:17:20Z</time>
      </trkpt>
      <trkpt lat="49.37706" lon="0.25867">
        <ele>67.5</ele>
        <time>2023-09-03T07:17:21Z</time>
      </trkpt>
      <trkpt lat="49.37712" lon="0.25868">
        <ele>67.6</ele>
        <time>2023-09-03T07:17:22Z</time>
      </trkpt>
      <trkpt lat="49.37719" lon="0.25869">
        <ele>67.6</ele>
        <time>2023-09-03T07:17:23Z</time>
      </trkpt>
      <trkpt lat="49.37725" lon="0.25871">
        <ele>67.6</ele>
        <time>2023-09-03T07:17:24Z</time>
      </trkpt>
      <trkpt lat="49.37731" lon="0.25874">
        <ele>67.5</ele>
        <time>2023-09-03T07:17:25Z</time>
      </trkpt>
      <trkpt lat="49.37737" lon="0.25877">
        <ele>67.5</ele>
        <time>2023-09-03T07:17:26Z</time>
      </trkpt>
      <trkpt lat="49.37742" lon="0.25881">
        <ele>67.3</ele>
        <time>2023-09-03T07:17:27Z</time>
      </trkpt>
      <trkpt lat="49.37748" lon="0.25884">
        <ele>67.1</ele>
        <time>2023-09-03T07:17:28Z</time>
      </trkpt>
      <trkpt lat="49.37753" lon="0.25888">
        <ele>66.9</ele>
        <time>2023-09-03T07:17:29Z</time>
      </trkpt>
      <trkpt lat="49.37759" lon="0.25892">
        <ele>66.6</ele>
        <time>2023-09-03T07:17:30Z</time>
      </trkpt>
      <trkpt lat="49.37765" lon="0.25897">
        <ele>66.3</ele>
        <time>2023-09-03T07:17:31Z</time>
      </trkpt>
      <trkpt lat="49.37771" lon="0.25901">
        <ele>66</ele>
        <time>2023-09-03T07:17:32Z</time>
      </trkpt>
      <trkpt lat="49.37777" lon="0.25905">
        <ele>65.8</ele>
        <time>2023-09-03T07:17:33Z</time>
      </trkpt>
      <trkpt lat="49.37783" lon="0.2591">
        <ele>65.5</ele>
        <time>2023-09-03T07:17:34Z</time>
      </trkpt>
      <trkpt lat="49.3779" lon="0.25913">
        <ele>65.2</ele>
        <time>2023-09-03T07:17:35Z</time>
      </trkpt>
      <trkpt lat="49.37797" lon="0.25917">
        <ele>65</ele>
        <time>2023-09-03T07:17:36Z</time>
      </trkpt>
      <trkpt lat="49.37805" lon="0.2592">
        <ele>64.8</ele>
        <time>2023-09-03T07:17:37Z</time>
      </trkpt>
      <trkpt lat="49.37812" lon="0.25923">
        <ele>64.6</ele>
        <time>2023-09-03T07:17:38Z</time>
      </trkpt>
      <trkpt lat="49.37819" lon="0.25926">
        <ele>64.3</ele>
        <time>2023-09-03T07:17:39Z</time>
      </trkpt>
      <trkpt lat="49.37827" lon="0.2593">
        <ele>64.2</ele>
        <time>2023-09-03T07:17:40Z</time>
      </trkpt>
      <trkpt lat="49.37834" lon="0.25933">
        <ele>64</ele>
        <time>2023-09-03T07:17:41Z</time>
      </trkpt>
      <trkpt lat="49.37842" lon="0.25937">
        <ele>63.8</ele>
        <time>2023-09-03T07:17:42Z</time>
      </trkpt>
      <trkpt lat="49.37849" lon="0.2594">
        <ele>63.5</ele>
        <time>2023-09-03T07:17:43Z</time>
      </trkpt>
      <trkpt lat="49.37857" lon="0.25943">
        <ele>63.3</ele>
        <time>2023-09-03T07:17:44Z</time>
      </trkpt>
      <trkpt lat="49.37864" lon="0.25947">
        <ele>63.1</ele>
        <time>2023-09-03T07:17:45Z</time>
      </trkpt>
      <trkpt lat="49.37872" lon="0.25951">
        <ele>62.8</ele>
        <time>2023-09-03T07:17:46Z</time>
      </trkpt>
      <trkpt lat="49.3788" lon="0.25955">
        <ele>62.6</ele>
        <time>2023-09-03T07:17:47Z</time>
      </trkpt>
      <trkpt lat="49.37888" lon="0.25959">
        <ele>62.5</ele>
        <time>2023-09-03T07:17:48Z</time>
      </trkpt>
      <trkpt lat="49.37895" lon="0.25962">
        <ele>62.4</ele>
        <time>2023-09-03T07:17:49Z</time>
      </trkpt>
      <trkpt lat="49.37902" lon="0.25966">
        <ele>62.4</ele>
        <time>2023-09-03T07:17:50Z</time>
      </trkpt>
      <trkpt lat="49.3791" lon="0.25969">
        <ele>62.3</ele>
        <time>2023-09-03T07:17:51Z</time>
      </trkpt>
      <trkpt lat="49.37917" lon="0.25973">
        <ele>62.3</ele>
        <time>2023-09-03T07:17:52Z</time>
      </trkpt>
      <trkpt lat="49.37924" lon="0.25977">
        <ele>62.3</ele>
        <time>2023-09-03T07:17:53Z</time>
      </trkpt>
      <trkpt lat="49.37931" lon="0.25981">
        <ele>62.4</ele>
        <time>2023-09-03T07:17:54Z</time>
      </trkpt>
      <trkpt lat="49.37937" lon="0.25985">
        <ele>62.4</ele>
        <time>2023-09-03T07:17:55Z</time>
      </trkpt>
      <trkpt lat="49.37943" lon="0.2599">
        <ele>62.5</ele>
        <time>2023-09-03T07:17:56Z</time>
      </trkpt>
      <trkpt lat="49.37949" lon="0.25995">
        <ele>62.6</ele>
        <time>2023-09-03T07:17:57Z</time>
      </trkpt>
      <trkpt lat="49.37955" lon="0.25999">
        <ele>62.8</ele>
        <time>2023-09-03T07:17:58Z</time>
      </trkpt>
      <trkpt lat="49.3796" lon="0.26003">
        <ele>62.9</ele>
        <time>2023-09-03T07:17:59Z</time>
      </trkpt>
      <trkpt lat="49.37965" lon="0.26006">
        <ele>63</ele>
        <time>2023-09-03T07:18:00Z</time>
      </trkpt>
      <trkpt lat="49.3797" lon="0.2601">
        <ele>63.1</ele>
        <time>2023-09-03T07:18:01Z</time>
      </trkpt>
      <trkpt lat="49.37975" lon="0.26014">
        <ele>63.3</ele>
        <time>2023-09-03T07:18:02Z</time>
      </trkpt>
      <trkpt lat="49.37979" lon="0.26019">
        <ele>63.4</ele>
        <time>2023-09-03T07:18:03Z</time>
      </trkpt>
      <trkpt lat="49.37984" lon="0.26022">
        <ele>63.6</ele>
        <time>2023-09-03T07:18:04Z</time>
      </trkpt>
      <trkpt lat="49.3799" lon="0.26027">
        <ele>63.7</ele>
        <time>2023-09-03T07:18:05Z</time>
      </trkpt>
      <trkpt lat="49.37995" lon="0.26031">
        <ele>63.9</ele>
        <time>2023-09-03T07:18:06Z</time>
      </trkpt>
      <trkpt lat="49.38" lon="0.26034">
        <ele>64</ele>
        <time>2023-09-03T07:18:07Z</time>
      </trkpt>
      <trkpt lat="49.38005" lon="0.26038">
        <ele>64.1</ele>
        <time>2023-09-03T07:18:08Z</time>
      </trkpt>
      <trkpt lat="49.38011" lon="0.26041">
        <ele>64.2</ele>
        <time>2023-09-03T07:18:09Z</time>
      </trkpt>
      <trkpt lat="49.38016" lon="0.26045">
        <ele>64.3</ele>
        <time>2023-09-03T07:18:10Z</time>
      </trkpt>
      <trkpt lat="49.38021" lon="0.26049">
        <ele>64.3</ele>
        <time>2023-09-03T07:18:11Z</time>
      </trkpt>
      <trkpt lat="49.38026" lon="0.26053">
        <ele>64.4</ele>
        <time>2023-09-03T07:18:12Z</time>
      </trkpt>
      <trkpt lat="49.38031" lon="0.26057">
        <ele>64.5</ele>
        <time>2023-09-03T07:18:13Z</time>
      </trkpt>
      <trkpt lat="49.38035" lon="0.2606">
        <ele>64.5</ele>
        <time>2023-09-03T07:18:14Z</time>
      </trkpt>
      <trkpt lat="49.3804" lon="0.26064">
        <ele>64.6</ele>
        <time>2023-09-03T07:18:15Z</time>
      </trkpt>
      <trkpt lat="49.38045" lon="0.26069">
        <ele>64.7</ele>
        <time>2023-09-03T07:18:16Z</time>
      </trkpt>
      <trkpt lat="49.3805" lon="0.26074">
        <ele>64.8</ele>
        <time>2023-09-03T07:18:17Z</time>
      </trkpt>
      <trkpt lat="49.38055" lon="0.26078">
        <ele>64.8</ele>
        <time>2023-09-03T07:18:18Z</time>
      </trkpt>
      <trkpt lat="49.38061" lon="0.26083">
        <ele>64.9</ele>
        <time>2023-09-03T07:18:19Z</time>
      </trkpt>
      <trkpt lat="49.38066" lon="0.26089">
        <ele>64.9</ele>
        <time>2023-09-03T07:18:20Z</time>
      </trkpt>
      <trkpt lat="49.38071" lon="0.26096">
        <ele>65</ele>
        <time>2023-09-03T07:18:21Z</time>
      </trkpt>
      <trkpt lat="49.38076" lon="0.26101">
        <ele>65</ele>
        <time>2023-09-03T07:18:22Z</time>
      </trkpt>
      <trkpt lat="49.38081" lon="0.26108">
        <ele>65</ele>
        <time>2023-09-03T07:18:23Z</time>
      </trkpt>
      <trkpt lat="49.38085" lon="0.26114">
        <ele>65</ele>
        <time>2023-09-03T07:18:24Z</time>
      </trkpt>
      <trkpt lat="49.3809" lon="0.2612">
        <ele>64.9</ele>
        <time>2023-09-03T07:18:25Z</time>
      </trkpt>
      <trkpt lat="49.38096" lon="0.26126">
        <ele>64.9</ele>
        <time>2023-09-03T07:18:26Z</time>
      </trkpt>
      <trkpt lat="49.38101" lon="0.26133">
        <ele>64.9</ele>
        <time>2023-09-03T07:18:27Z</time>
      </trkpt>
      <trkpt lat="49.38105" lon="0.2614">
        <ele>64.8</ele>
        <time>2023-09-03T07:18:28Z</time>
      </trkpt>
      <trkpt lat="49.3811" lon="0.26146">
        <ele>64.8</ele>
        <time>2023-09-03T07:18:29Z</time>
      </trkpt>
      <trkpt lat="49.38114" lon="0.26153">
        <ele>64.7</ele>
        <time>2023-09-03T07:18:30Z</time>
      </trkpt>
      <trkpt lat="49.38118" lon="0.26161">
        <ele>64.7</ele>
        <time>2023-09-03T07:18:31Z</time>
      </trkpt>
      <trkpt lat="49.38121" lon="0.26169">
        <ele>64.7</ele>
        <time>2023-09-03T07:18:32Z</time>
      </trkpt>
      <trkpt lat="49.38124" lon="0.26177">
        <ele>64.8</ele>
        <time>2023-09-03T07:18:33Z</time>
      </trkpt>
      <trkpt lat="49.38128" lon="0.26185">
        <ele>64.8</ele>
        <time>2023-09-03T07:18:34Z</time>
      </trkpt>
      <trkpt lat="49.38132" lon="0.26192">
        <ele>64.9</ele>
        <time>2023-09-03T07:18:35Z</time>
      </trkpt>
      <trkpt lat="49.38136" lon="0.26199">
        <ele>65</ele>
        <time>2023-09-03T07:18:36Z</time>
      </trkpt>
      <trkpt lat="49.38141" lon="0.26205">
        <ele>65.2</ele>
        <time>2023-09-03T07:18:37Z</time>
      </trkpt>
      <trkpt lat="49.38145" lon="0.26211">
        <ele>65.3</ele>
        <time>2023-09-03T07:18:38Z</time>
      </trkpt>
      <trkpt lat="49.3815" lon="0.26217">
        <ele>65.4</ele>
        <time>2023-09-03T07:18:39Z</time>
      </trkpt>
      <trkpt lat="49.38155" lon="0.26223">
        <ele>65.6</ele>
        <time>2023-09-03T07:18:40Z</time>
      </trkpt>
      <trkpt lat="49.3816" lon="0.26229">
        <ele>65.7</ele>
        <time>2023-09-03T07:18:41Z</time>
      </trkpt>
      <trkpt lat="49.38164" lon="0.26234">
        <ele>65.8</ele>
        <time>2023-09-03T07:18:42Z</time>
      </trkpt>
      <trkpt lat="49.38169" lon="0.2624">
        <ele>65.9</ele>
        <time>2023-09-03T07:18:43Z</time>
      </trkpt>
      <trkpt lat="49.38174" lon="0.26246">
        <ele>66.1</ele>
        <time>2023-09-03T07:18:44Z</time>
      </trkpt>
      <trkpt lat="49.38179" lon="0.26252">
        <ele>66.2</ele>
        <time>2023-09-03T07:18:45Z</time>
      </trkpt>
      <trkpt lat="49.38183" lon="0.26258">
        <ele>66.3</ele>
        <time>2023-09-03T07:18:46Z</time>
      </trkpt>
      <trkpt lat="49.38188" lon="0.26265">
        <ele>66.5</ele>
        <time>2023-09-03T07:18:47Z</time>
      </trkpt>
      <trkpt lat="49.38192" lon="0.26272">
        <ele>66.6</ele>
        <time>2023-09-03T07:18:48Z</time>
      </trkpt>
      <trkpt lat="49.38196" lon="0.26279">
        <ele>66.7</ele>
        <time>2023-09-03T07:18:49Z</time>
      </trkpt>
      <trkpt lat="49.38199" lon="0.26287">
        <ele>66.7</ele>
        <time>2023-09-03T07:18:50Z</time>
      </trkpt>
      <trkpt lat="49.38203" lon="0.26293">
        <ele>66.7</ele>
        <time>2023-09-03T07:18:51Z</time>
      </trkpt>
      <trkpt lat="49.38206" lon="0.26301">
        <ele>66.7</ele>
        <time>2023-09-03T07:18:52Z</time>
      </trkpt>
      <trkpt lat="49.3821" lon="0.26308">
        <ele>66.5</ele>
        <time>2023-09-03T07:18:53Z</time>
      </trkpt>
      <trkpt lat="49.38214" lon="0.26316">
        <ele>66.4</ele>
        <time>2023-09-03T07:18:54Z</time>
      </trkpt>
      <trkpt lat="49.38218" lon="0.26323">
        <ele>66.1</ele>
        <time>2023-09-03T07:18:55Z</time>
      </trkpt>
      <trkpt lat="49.38222" lon="0.2633">
        <ele>65.9</ele>
        <time>2023-09-03T07:18:56Z</time>
      </trkpt>
      <trkpt lat="49.38227" lon="0.26338">
        <ele>65.6</ele>
        <time>2023-09-03T07:18:57Z</time>
      </trkpt>
      <trkpt lat="49.38231" lon="0.26346">
        <ele>65.3</ele>
        <time>2023-09-03T07:18:58Z</time>
      </trkpt>
      <trkpt lat="49.38236" lon="0.26356">
        <ele>64.9</ele>
        <time>2023-09-03T07:18:59Z</time>
      </trkpt>
      <trkpt lat="49.38239" lon="0.26365">
        <ele>64.6</ele>
        <time>2023-09-03T07:19:00Z</time>
      </trkpt>
      <trkpt lat="49.38244" lon="0.26375">
        <ele>64.2</ele>
        <time>2023-09-03T07:19:01Z</time>
      </trkpt>
      <trkpt lat="49.38248" lon="0.26385">
        <ele>63.8</ele>
        <time>2023-09-03T07:19:02Z</time>
      </trkpt>
      <trkpt lat="49.38253" lon="0.26395">
        <ele>63.4</ele>
        <time>2023-09-03T07:19:03Z</time>
      </trkpt>
      <trkpt lat="49.38257" lon="0.26404">
        <ele>62.9</ele>
        <time>2023-09-03T07:19:04Z</time>
      </trkpt>
      <trkpt lat="49.38262" lon="0.26414">
        <ele>62.4</ele>
        <time>2023-09-03T07:19:05Z</time>
      </trkpt>
      <trkpt lat="49.38267" lon="0.26424">
        <ele>61.9</ele>
        <time>2023-09-03T07:19:06Z</time>
      </trkpt>
      <trkpt lat="49.38272" lon="0.26433">
        <ele>61.4</ele>
        <time>2023-09-03T07:19:07Z</time>
      </trkpt>
      <trkpt lat="49.38277" lon="0.26442">
        <ele>61</ele>
        <time>2023-09-03T07:19:08Z</time>
      </trkpt>
      <trkpt lat="49.38282" lon="0.2645">
        <ele>60.6</ele>
        <time>2023-09-03T07:19:09Z</time>
      </trkpt>
      <trkpt lat="49.38288" lon="0.26458">
        <ele>60.2</ele>
        <time>2023-09-03T07:19:10Z</time>
      </trkpt>
      <trkpt lat="49.38293" lon="0.26466">
        <ele>59.9</ele>
        <time>2023-09-03T07:19:11Z</time>
      </trkpt>
      <trkpt lat="49.38298" lon="0.26475">
        <ele>59.5</ele>
        <time>2023-09-03T07:19:12Z</time>
      </trkpt>
      <trkpt lat="49.38304" lon="0.26482">
        <ele>59.2</ele>
        <time>2023-09-03T07:19:13Z</time>
      </trkpt>
      <trkpt lat="49.3831" lon="0.26489">
        <ele>58.8</ele>
        <time>2023-09-03T07:19:14Z</time>
      </trkpt>
      <trkpt lat="49.38316" lon="0.26496">
        <ele>58.4</ele>
        <time>2023-09-03T07:19:15Z</time>
      </trkpt>
      <trkpt lat="49.38323" lon="0.26503">
        <ele>57.9</ele>
        <time>2023-09-03T07:19:16Z</time>
      </trkpt>
      <trkpt lat="49.3833" lon="0.26511">
        <ele>57.5</ele>
        <time>2023-09-03T07:19:17Z</time>
      </trkpt>
      <trkpt lat="49.38337" lon="0.26518">
        <ele>56.9</ele>
        <time>2023-09-03T07:19:18Z</time>
      </trkpt>
      <trkpt lat="49.38344" lon="0.26525">
        <ele>56.4</ele>
        <time>2023-09-03T07:19:19Z</time>
      </trkpt>
      <trkpt lat="49.38352" lon="0.26533">
        <ele>55.8</ele>
        <time>2023-09-03T07:19:20Z</time>
      </trkpt>
      <trkpt lat="49.38361" lon="0.26541">
        <ele>55.2</ele>
        <time>2023-09-03T07:19:21Z</time>
      </trkpt>
      <trkpt lat="49.38371" lon="0.2655">
        <ele>54.6</ele>
        <time>2023-09-03T07:19:22Z</time>
      </trkpt>
      <trkpt lat="49.3838" lon="0.26559">
        <ele>54</ele>
        <time>2023-09-03T07:19:23Z</time>
      </trkpt>
      <trkpt lat="49.38389" lon="0.26568">
        <ele>53.4</ele>
        <time>2023-09-03T07:19:24Z</time>
      </trkpt>
      <trkpt lat="49.38399" lon="0.26577">
        <ele>53</ele>
        <time>2023-09-03T07:19:25Z</time>
      </trkpt>
      <trkpt lat="49.38409" lon="0.26586">
        <ele>52.5</ele>
        <time>2023-09-03T07:19:26Z</time>
      </trkpt>
      <trkpt lat="49.3842" lon="0.26594">
        <ele>52.5</ele>
        <time>2023-09-03T07:19:27Z</time>
      </trkpt>
      <trkpt lat="49.3843" lon="0.266">
        <ele>52.5</ele>
        <time>2023-09-03T07:19:28Z</time>
      </trkpt>
      <trkpt lat="49.3844" lon="0.26606">
        <ele>52.5</ele>
        <time>2023-09-03T07:19:29Z</time>
      </trkpt>
      <trkpt lat="49.3845" lon="0.2661">
        <ele>52.6</ele>
        <time>2023-09-03T07:19:30Z</time>
      </trkpt>
      <trkpt lat="49.38459" lon="0.26614">
        <ele>52.6</ele>
        <time>2023-09-03T07:19:31Z</time>
      </trkpt>
      <trkpt lat="49.38469" lon="0.26617">
        <ele>52.6</ele>
        <time>2023-09-03T07:19:32Z</time>
      </trkpt>
      <trkpt lat="49.38478" lon="0.2662">
        <ele>52.7</ele>
        <time>2023-09-03T07:19:33Z</time>
      </trkpt>
      <trkpt lat="49.38486" lon="0.26623">
        <ele>52.7</ele>
        <time>2023-09-03T07:19:34Z</time>
      </trkpt>
      <trkpt lat="49.38495" lon="0.26626">
        <ele>52.8</ele>
        <time>2023-09-03T07:19:35Z</time>
      </trkpt>
      <trkpt lat="49.38503" lon="0.26628">
        <ele>52.9</ele>
        <time>2023-09-03T07:19:36Z</time>
      </trkpt>
      <trkpt lat="49.38511" lon="0.2663">
        <ele>53</ele>
        <time>2023-09-03T07:19:37Z</time>
      </trkpt>
      <trkpt lat="49.38518" lon="0.26631">
        <ele>53</ele>
        <time>2023-09-03T07:19:38Z</time>
      </trkpt>
      <trkpt lat="49.38526" lon="0.26631">
        <ele>53.1</ele>
        <time>2023-09-03T07:19:39Z</time>
      </trkpt>
      <trkpt lat="49.38533" lon="0.2663">
        <ele>53.2</ele>
        <time>2023-09-03T07:19:40Z</time>
      </trkpt>
      <trkpt lat="49.38541" lon="0.26631">
        <ele>53.3</ele>
        <time>2023-09-03T07:19:41Z</time>
      </trkpt>
      <trkpt lat="49.38548" lon="0.26631">
        <ele>53.3</ele>
        <time>2023-09-03T07:19:42Z</time>
      </trkpt>
      <trkpt lat="49.38555" lon="0.26631">
        <ele>53.3</ele>
        <time>2023-09-03T07:19:43Z</time>
      </trkpt>
      <trkpt lat="49.38562" lon="0.26632">
        <ele>53.2</ele>
        <time>2023-09-03T07:19:44Z</time>
      </trkpt>
      <trkpt lat="49.38568" lon="0.26633">
        <ele>53.1</ele>
        <time>2023-09-03T07:19:45Z</time>
      </trkpt>
      <trkpt lat="49.38574" lon="0.26635">
        <ele>52.8</ele>
        <time>2023-09-03T07:19:46Z</time>
      </trkpt>
      <trkpt lat="49.38581" lon="0.26639">
        <ele>52.5</ele>
        <time>2023-09-03T07:19:47Z</time>
      </trkpt>
      <trkpt lat="49.38588" lon="0.26643">
        <ele>52.1</ele>
        <time>2023-09-03T07:19:48Z</time>
      </trkpt>
      <trkpt lat="49.38595" lon="0.26647">
        <ele>51.6</ele>
        <time>2023-09-03T07:19:49Z</time>
      </trkpt>
      <trkpt lat="49.38603" lon="0.26651">
        <ele>51</ele>
        <time>2023-09-03T07:19:50Z</time>
      </trkpt>
      <trkpt lat="49.3861" lon="0.26657">
        <ele>50.3</ele>
        <time>2023-09-03T07:19:51Z</time>
      </trkpt>
      <trkpt lat="49.38618" lon="0.26663">
        <ele>49.6</ele>
        <time>2023-09-03T07:19:52Z</time>
      </trkpt>
      <trkpt lat="49.38627" lon="0.2667">
        <ele>48.7</ele>
        <time>2023-09-03T07:19:53Z</time>
      </trkpt>
      <trkpt lat="49.38636" lon="0.26675">
        <ele>47.9</ele>
        <time>2023-09-03T07:19:54Z</time>
      </trkpt>
      <trkpt lat="49.38647" lon="0.2668">
        <ele>47.2</ele>
        <time>2023-09-03T07:19:55Z</time>
      </trkpt>
      <trkpt lat="49.38657" lon="0.26683">
        <ele>46.5</ele>
        <time>2023-09-03T07:19:56Z</time>
      </trkpt>
      <trkpt lat="49.38668" lon="0.26685">
        <ele>45.9</ele>
        <time>2023-09-03T07:19:57Z</time>
      </trkpt>
      <trkpt lat="49.38679" lon="0.26686">
        <ele>45.5</ele>
        <time>2023-09-03T07:19:58Z</time>
      </trkpt>
      <trkpt lat="49.38691" lon="0.26686">
        <ele>45.2</ele>
        <time>2023-09-03T07:19:59Z</time>
      </trkpt>
      <trkpt lat="49.38702" lon="0.26686">
        <ele>45</ele>
        <time>2023-09-03T07:20:00Z</time>
      </trkpt>
      <trkpt lat="49.38712" lon="0.26686">
        <ele>44.9</ele>
        <time>2023-09-03T07:20:01Z</time>
      </trkpt>
      <trkpt lat="49.38722" lon="0.26685">
        <ele>44.9</ele>
        <time>2023-09-03T07:20:02Z</time>
      </trkpt>
      <trkpt lat="49.38732" lon="0.26685">
        <ele>44.8</ele>
        <time>2023-09-03T07:20:03Z</time>
      </trkpt>
      <trkpt lat="49.38742" lon="0.26686">
        <ele>44.6</ele>
        <time>2023-09-03T07:20:04Z</time>
      </trkpt>
      <trkpt lat="49.38751" lon="0.26687">
        <ele>44.3</ele>
        <time>2023-09-03T07:20:05Z</time>
      </trkpt>
      <trkpt lat="49.3876" lon="0.26688">
        <ele>43.8</ele>
        <time>2023-09-03T07:20:06Z</time>
      </trkpt>
      <trkpt lat="49.3877" lon="0.26688">
        <ele>43.4</ele>
        <time>2023-09-03T07:20:07Z</time>
      </trkpt>
      <trkpt lat="49.38779" lon="0.26689">
        <ele>42.9</ele>
        <time>2023-09-03T07:20:08Z</time>
      </trkpt>
      <trkpt lat="49.38788" lon="0.2669">
        <ele>42.4</ele>
        <time>2023-09-03T07:20:09Z</time>
      </trkpt>
      <trkpt lat="49.38798" lon="0.26691">
        <ele>41.9</ele>
        <time>2023-09-03T07:20:10Z</time>
      </trkpt>
      <trkpt lat="49.38807" lon="0.26693">
        <ele>41.3</ele>
        <time>2023-09-03T07:20:11Z</time>
      </trkpt>
      <trkpt lat="49.38817" lon="0.26693">
        <ele>40.6</ele>
        <time>2023-09-03T07:20:12Z</time>
      </trkpt>
      <trkpt lat="49.38827" lon="0.26693">
        <ele>39.7</ele>
        <time>2023-09-03T07:20:13Z</time>
      </trkpt>
      <trkpt lat="49.38836" lon="0.26693">
        <ele>38.8</ele>
        <time>2023-09-03T07:20:14Z</time>
      </trkpt>
      <trkpt lat="49.38845" lon="0.26693">
        <ele>37.9</ele>
        <time>2023-09-03T07:20:15Z</time>
      </trkpt>
      <trkpt lat="49.38854" lon="0.26693">
        <ele>37</ele>
        <time>2023-09-03T07:20:16Z</time>
      </trkpt>
      <trkpt lat="49.38865" lon="0.26696">
        <ele>36</ele>
        <time>2023-09-03T07:20:17Z</time>
      </trkpt>
      <trkpt lat="49.38876" lon="0.26701">
        <ele>35.1</ele>
        <time>2023-09-03T07:20:18Z</time>
      </trkpt>
      <trkpt lat="49.38887" lon="0.26705">
        <ele>34.2</ele>
        <time>2023-09-03T07:20:19Z</time>
      </trkpt>
      <trkpt lat="49.38899" lon="0.26707">
        <ele>33.3</ele>
        <time>2023-09-03T07:20:20Z</time>
      </trkpt>
      <trkpt lat="49.3891" lon="0.26707">
        <ele>32.5</ele>
        <time>2023-09-03T07:20:21Z</time>
      </trkpt>
      <trkpt lat="49.38921" lon="0.26707">
        <ele>31.8</ele>
        <time>2023-09-03T07:20:22Z</time>
      </trkpt>
      <trkpt lat="49.38933" lon="0.26706">
        <ele>31.1</ele>
        <time>2023-09-03T07:20:23Z</time>
      </trkpt>
      <trkpt lat="49.38945" lon="0.26705">
        <ele>30.6</ele>
        <time>2023-09-03T07:20:24Z</time>
      </trkpt>
      <trkpt lat="49.38958" lon="0.26703">
        <ele>30.4</ele>
        <time>2023-09-03T07:20:25Z</time>
      </trkpt>
      <trkpt lat="49.38969" lon="0.26699">
        <ele>30.3</ele>
        <time>2023-09-03T07:20:26Z</time>
      </trkpt>
      <trkpt lat="49.3898" lon="0.26695">
        <ele>30.3</ele>
        <time>2023-09-03T07:20:27Z</time>
      </trkpt>
      <trkpt lat="49.38991" lon="0.26691">
        <ele>30.3</ele>
        <time>2023-09-03T07:20:28Z</time>
      </trkpt>
      <trkpt lat="49.39001" lon="0.26686">
        <ele>30.4</ele>
        <time>2023-09-03T07:20:29Z</time>
      </trkpt>
      <trkpt lat="49.39011" lon="0.26682">
        <ele>30.3</ele>
        <time>2023-09-03T07:20:30Z</time>
      </trkpt>
      <trkpt lat="49.39022" lon="0.2668">
        <ele>30</ele>
        <time>2023-09-03T07:20:31Z</time>
      </trkpt>
      <trkpt lat="49.39032" lon="0.26679">
        <ele>29.6</ele>
        <time>2023-09-03T07:20:32Z</time>
      </trkpt>
      <trkpt lat="49.39042" lon="0.2668">
        <ele>29.3</ele>
        <time>2023-09-03T07:20:33Z</time>
      </trkpt>
      <trkpt lat="49.39052" lon="0.26682">
        <ele>28.9</ele>
        <time>2023-09-03T07:20:34Z</time>
      </trkpt>
      <trkpt lat="49.39062" lon="0.26684">
        <ele>28.6</ele>
        <time>2023-09-03T07:20:35Z</time>
      </trkpt>
      <trkpt lat="49.39072" lon="0.26687">
        <ele>28.3</ele>
        <time>2023-09-03T07:20:36Z</time>
      </trkpt>
      <trkpt lat="49.39083" lon="0.26689">
        <ele>28.1</ele>
        <time>2023-09-03T07:20:37Z</time>
      </trkpt>
      <trkpt lat="49.39093" lon="0.26691">
        <ele>28.1</ele>
        <time>2023-09-03T07:20:38Z</time>
      </trkpt>
      <trkpt lat="49.39102" lon="0.26694">
        <ele>28</ele>
        <time>2023-09-03T07:20:39Z</time>
      </trkpt>
      <trkpt lat="49.39112" lon="0.26696">
        <ele>28.1</ele>
        <time>2023-09-03T07:20:40Z</time>
      </trkpt>
      <trkpt lat="49.39121" lon="0.26697">
        <ele>28.3</ele>
        <time>2023-09-03T07:20:41Z</time>
      </trkpt>
      <trkpt lat="49.3913" lon="0.26699">
        <ele>28.6</ele>
        <time>2023-09-03T07:20:42Z</time>
      </trkpt>
      <trkpt lat="49.39139" lon="0.26701">
        <ele>29</ele>
        <time>2023-09-03T07:20:43Z</time>
      </trkpt>
      <trkpt lat="49.39147" lon="0.26704">
        <ele>29.4</ele>
        <time>2023-09-03T07:20:44Z</time>
      </trkpt>
      <trkpt lat="49.39155" lon="0.26706">
        <ele>29.9</ele>
        <time>2023-09-03T07:20:45Z</time>
      </trkpt>
      <trkpt lat="49.39162" lon="0.26707">
        <ele>30.3</ele>
        <time>2023-09-03T07:20:46Z</time>
      </trkpt>
      <trkpt lat="49.3917" lon="0.26708">
        <ele>30.7</ele>
        <time>2023-09-03T07:20:47Z</time>
      </trkpt>
      <trkpt lat="49.39177" lon="0.26709">
        <ele>30.9</ele>
        <time>2023-09-03T07:20:48Z</time>
      </trkpt>
      <trkpt lat="49.39183" lon="0.2671">
        <ele>31.2</ele>
        <time>2023-09-03T07:20:49Z</time>
      </trkpt>
      <trkpt lat="49.39189" lon="0.26711">
        <ele>31.3</ele>
        <time>2023-09-03T07:20:50Z</time>
      </trkpt>
      <trkpt lat="49.39196" lon="0.26712">
        <ele>31.5</ele>
        <time>2023-09-03T07:20:51Z</time>
      </trkpt>
      <trkpt lat="49.39202" lon="0.26713">
        <ele>31.6</ele>
        <time>2023-09-03T07:20:52Z</time>
      </trkpt>
      <trkpt lat="49.39208" lon="0.26714">
        <ele>31.6</ele>
        <time>2023-09-03T07:20:53Z</time>
      </trkpt>
      <trkpt lat="49.39214" lon="0.26714">
        <ele>31.7</ele>
        <time>2023-09-03T07:20:54Z</time>
      </trkpt>
      <trkpt lat="49.3922" lon="0.26715">
        <ele>31.8</ele>
        <time>2023-09-03T07:20:55Z</time>
      </trkpt>
      <trkpt lat="49.39226" lon="0.26715">
        <ele>31.8</ele>
        <time>2023-09-03T07:20:56Z</time>
      </trkpt>
      <trkpt lat="49.39232" lon="0.26716">
        <ele>31.9</ele>
        <time>2023-09-03T07:20:57Z</time>
      </trkpt>
      <trkpt lat="49.39238" lon="0.26717">
        <ele>31.9</ele>
        <time>2023-09-03T07:20:58Z</time>
      </trkpt>
      <trkpt lat="49.39245" lon="0.26718">
        <ele>31.9</ele>
        <time>2023-09-03T07:20:59Z</time>
      </trkpt>
      <trkpt lat="49.39251" lon="0.26719">
        <ele>31.9</ele>
        <time>2023-09-03T07:21:00Z</time>
      </trkpt>
      <trkpt lat="49.39258" lon="0.26719">
        <ele>31.8</ele>
        <time>2023-09-03T07:21:01Z</time>
      </trkpt>
      <trkpt lat="49.39264" lon="0.26718">
        <ele>31.8</ele>
        <time>2023-09-03T07:21:02Z</time>
      </trkpt>
      <trkpt lat="49.39271" lon="0.26717">
        <ele>31.8</ele>
        <time>2023-09-03T07:21:03Z</time>
      </trkpt>
      <trkpt lat="49.39277" lon="0.26716">
        <ele>31.8</ele>
        <time>2023-09-03T07:21:04Z</time>
      </trkpt>
      <trkpt lat="49.39284" lon="0.26714">
        <ele>31.8</ele>
        <time>2023-09-03T07:21:05Z</time>
      </trkpt>
      <trkpt lat="49.3929" lon="0.26712">
        <ele>31.8</ele>
        <time>2023-09-03T07:21:06Z</time>
      </trkpt>
      <trkpt lat="49.39297" lon="0.26711">
        <ele>31.8</ele>
        <time>2023-09-03T07:21:07Z</time>
      </trkpt>
      <trkpt lat="49.39304" lon="0.2671">
        <ele>31.8</ele>
        <time>2023-09-03T07:21:08Z</time>
      </trkpt>
      <trkpt lat="49.3931" lon="0.26709">
        <ele>31.8</ele>
        <time>2023-09-03T07:21:09Z</time>
      </trkpt>
      <trkpt lat="49.39316" lon="0.26708">
        <ele>31.8</ele>
        <time>2023-09-03T07:21:10Z</time>
      </trkpt>
      <trkpt lat="49.39323" lon="0.26708">
        <ele>31.8</ele>
        <time>2023-09-03T07:21:11Z</time>
      </trkpt>
      <trkpt lat="49.39329" lon="0.26707">
        <ele>31.8</ele>
        <time>2023-09-03T07:21:12Z</time>
      </trkpt>
      <trkpt lat="49.39336" lon="0.26707">
        <ele>31.8</ele>
        <time>2023-09-03T07:21:13Z</time>
      </trkpt>
      <trkpt lat="49.39343" lon="0.26707">
        <ele>31.8</ele>
        <time>2023-09-03T07:21:14Z</time>
      </trkpt>
      <trkpt lat="49.3935" lon="0.26707">
        <ele>31.8</ele>
        <time>2023-09-03T07:21:15Z</time>
      </trkpt>
      <trkpt lat="49.39357" lon="0.26708">
        <ele>31.8</ele>
        <time>2023-09-03T07:21:16Z</time>
      </trkpt>
      <trkpt lat="49.39364" lon="0.26708">
        <ele>31.8</ele>
        <time>2023-09-03T07:21:17Z</time>
      </trkpt>
      <trkpt lat="49.39371" lon="0.26708">
        <ele>31.8</ele>
        <time>2023-09-03T07:21:18Z</time>
      </trkpt>
      <trkpt lat="49.39378" lon="0.26708">
        <ele>31.8</ele>
        <time>2023-09-03T07:21:19Z</time>
      </trkpt>
      <trkpt lat="49.39385" lon="0.26709">
        <ele>31.8</ele>
        <time>2023-09-03T07:21:20Z</time>
      </trkpt>
      <trkpt lat="49.39392" lon="0.26709">
        <ele>31.7</ele>
        <time>2023-09-03T07:21:21Z</time>
      </trkpt>
      <trkpt lat="49.394" lon="0.26709">
        <ele>31.6</ele>
        <time>2023-09-03T07:21:22Z</time>
      </trkpt>
      <trkpt lat="49.39407" lon="0.26709">
        <ele>31.6</ele>
        <time>2023-09-03T07:21:23Z</time>
      </trkpt>
      <trkpt lat="49.39414" lon="0.26708">
        <ele>31.5</ele>
        <time>2023-09-03T07:21:24Z</time>
      </trkpt>
      <trkpt lat="49.39421" lon="0.26708">
        <ele>31.4</ele>
        <time>2023-09-03T07:21:25Z</time>
      </trkpt>
      <trkpt lat="49.39428" lon="0.26708">
        <ele>31.3</ele>
        <time>2023-09-03T07:21:26Z</time>
      </trkpt>
      <trkpt lat="49.39435" lon="0.26709">
        <ele>31.2</ele>
        <time>2023-09-03T07:21:27Z</time>
      </trkpt>
      <trkpt lat="49.39441" lon="0.26709">
        <ele>31.1</ele>
        <time>2023-09-03T07:21:28Z</time>
      </trkpt>
      <trkpt lat="49.39448" lon="0.2671">
        <ele>31</ele>
        <time>2023-09-03T07:21:29Z</time>
      </trkpt>
      <trkpt lat="49.39456" lon="0.2671">
        <ele>30.8</ele>
        <time>2023-09-03T07:21:30Z</time>
      </trkpt>
      <trkpt lat="49.39463" lon="0.26711">
        <ele>30.6</ele>
        <time>2023-09-03T07:21:31Z</time>
      </trkpt>
      <trkpt lat="49.3947" lon="0.26712">
        <ele>30.4</ele>
        <time>2023-09-03T07:21:32Z</time>
      </trkpt>
      <trkpt lat="49.39477" lon="0.26714">
        <ele>30.3</ele>
        <time>2023-09-03T07:21:33Z</time>
      </trkpt>
      <trkpt lat="49.39484" lon="0.26715">
        <ele>30.1</ele>
        <time>2023-09-03T07:21:34Z</time>
      </trkpt>
      <trkpt lat="49.39492" lon="0.26716">
        <ele>29.9</ele>
        <time>2023-09-03T07:21:35Z</time>
      </trkpt>
      <trkpt lat="49.39499" lon="0.26718">
        <ele>29.8</ele>
        <time>2023-09-03T07:21:36Z</time>
      </trkpt>
      <trkpt lat="49.39507" lon="0.26719">
        <ele>29.6</ele>
        <time>2023-09-03T07:21:37Z</time>
      </trkpt>
      <trkpt lat="49.39515" lon="0.2672">
        <ele>29.4</ele>
        <time>2023-09-03T07:21:38Z</time>
      </trkpt>
      <trkpt lat="49.39522" lon="0.26722">
        <ele>29.2</ele>
        <time>2023-09-03T07:21:39Z</time>
      </trkpt>
      <trkpt lat="49.3953" lon="0.26723">
        <ele>29</ele>
        <time>2023-09-03T07:21:40Z</time>
      </trkpt>
      <trkpt lat="49.39538" lon="0.26724">
        <ele>28.9</ele>
        <time>2023-09-03T07:21:41Z</time>
      </trkpt>
      <trkpt lat="49.39545" lon="0.26725">
        <ele>28.8</ele>
        <time>2023-09-03T07:21:42Z</time>
      </trkpt>
      <trkpt lat="49.39553" lon="0.26726">
        <ele>28.7</ele>
        <time>2023-09-03T07:21:43Z</time>
      </trkpt>
      <trkpt lat="49.3956" lon="0.26726">
        <ele>28.6</ele>
        <time>2023-09-03T07:21:44Z</time>
      </trkpt>
      <trkpt lat="49.39568" lon="0.26726">
        <ele>28.6</ele>
        <time>2023-09-03T07:21:45Z</time>
      </trkpt>
      <trkpt lat="49.39575" lon="0.26727">
        <ele>28.5</ele>
        <time>2023-09-03T07:21:46Z</time>
      </trkpt>
      <trkpt lat="49.39582" lon="0.26729">
        <ele>28.4</ele>
        <time>2023-09-03T07:21:47Z</time>
      </trkpt>
      <trkpt lat="49.39589" lon="0.2673">
        <ele>28.4</ele>
        <time>2023-09-03T07:21:48Z</time>
      </trkpt>
      <trkpt lat="49.39596" lon="0.26731">
        <ele>28.3</ele>
        <time>2023-09-03T07:21:49Z</time>
      </trkpt>
      <trkpt lat="49.39603" lon="0.26733">
        <ele>28.3</ele>
        <time>2023-09-03T07:21:50Z</time>
      </trkpt>
      <trkpt lat="49.3961" lon="0.26736">
        <ele>28.2</ele>
        <time>2023-09-03T07:21:51Z</time>
      </trkpt>
      <trkpt lat="49.39616" lon="0.2674">
        <ele>28.2</ele>
        <time>2023-09-03T07:21:52Z</time>
      </trkpt>
      <trkpt lat="49.39622" lon="0.26746">
        <ele>28.1</ele>
        <time>2023-09-03T07:21:53Z</time>
      </trkpt>
      <trkpt lat="49.39627" lon="0.26752">
        <ele>28</ele>
        <time>2023-09-03T07:21:54Z</time>
      </trkpt>
      <trkpt lat="49.39632" lon="0.2676">
        <ele>28</ele>
        <time>2023-09-03T07:21:55Z</time>
      </trkpt>
      <trkpt lat="49.39637" lon="0.26768">
        <ele>27.9</ele>
        <time>2023-09-03T07:21:56Z</time>
      </trkpt>
      <trkpt lat="49.39643" lon="0.26775">
        <ele>27.9</ele>
        <time>2023-09-03T07:21:57Z</time>
      </trkpt>
      <trkpt lat="49.39649" lon="0.26781">
        <ele>27.9</ele>
        <time>2023-09-03T07:21:58Z</time>
      </trkpt>
      <trkpt lat="49.39655" lon="0.26784">
        <ele>27.9</ele>
        <time>2023-09-03T07:21:59Z</time>
      </trkpt>
      <trkpt lat="49.39662" lon="0.26786">
        <ele>27.9</ele>
        <time>2023-09-03T07:22:00Z</time>
      </trkpt>
      <trkpt lat="49.39669" lon="0.26787">
        <ele>27.9</ele>
        <time>2023-09-03T07:22:01Z</time>
      </trkpt>
      <trkpt lat="49.39676" lon="0.26787">
        <ele>27.9</ele>
        <time>2023-09-03T07:22:02Z</time>
      </trkpt>
      <trkpt lat="49.39683" lon="0.26787">
        <ele>27.9</ele>
        <time>2023-09-03T07:22:03Z</time>
      </trkpt>
      <trkpt lat="49.39689" lon="0.26786">
        <ele>27.9</ele>
        <time>2023-09-03T07:22:04Z</time>
      </trkpt>
      <trkpt lat="49.39695" lon="0.26785">
        <ele>27.9</ele>
        <time>2023-09-03T07:22:05Z</time>
      </trkpt>
      <trkpt lat="49.39702" lon="0.26785">
        <ele>27.9</ele>
        <time>2023-09-03T07:22:06Z</time>
      </trkpt>
      <trkpt lat="49.39708" lon="0.26784">
        <ele>27.8</ele>
        <time>2023-09-03T07:22:07Z</time>
      </trkpt>
      <trkpt lat="49.39714" lon="0.26784">
        <ele>27.8</ele>
        <time>2023-09-03T07:22:08Z</time>
      </trkpt>
      <trkpt lat="49.39721" lon="0.26784">
        <ele>27.8</ele>
        <time>2023-09-03T07:22:09Z</time>
      </trkpt>
      <trkpt lat="49.39728" lon="0.26784">
        <ele>27.7</ele>
        <time>2023-09-03T07:22:10Z</time>
      </trkpt>
      <trkpt lat="49.39735" lon="0.26784">
        <ele>27.7</ele>
        <time>2023-09-03T07:22:11Z</time>
      </trkpt>
      <trkpt lat="49.39742" lon="0.26783">
        <ele>27.7</ele>
        <time>2023-09-03T07:22:12Z</time>
      </trkpt>
      <trkpt lat="49.39748" lon="0.26782">
        <ele>27.7</ele>
        <time>2023-09-03T07:22:13Z</time>
      </trkpt>
      <trkpt lat="49.39755" lon="0.26782">
        <ele>27.7</ele>
        <time>2023-09-03T07:22:14Z</time>
      </trkpt>
      <trkpt lat="49.39762" lon="0.26782">
        <ele>27.7</ele>
        <time>2023-09-03T07:22:15Z</time>
      </trkpt>
      <trkpt lat="49.39768" lon="0.26782">
        <ele>27.7</ele>
        <time>2023-09-03T07:22:16Z</time>
      </trkpt>
      <trkpt lat="49.39775" lon="0.26782">
        <ele>27.7</ele>
        <time>2023-09-03T07:22:17Z</time>
      </trkpt>
      <trkpt lat="49.39782" lon="0.26781">
        <ele>27.8</ele>
        <time>2023-09-03T07:22:18Z</time>
      </trkpt>
      <trkpt lat="49.39789" lon="0.26781">
        <ele>27.9</ele>
        <time>2023-09-03T07:22:19Z</time>
      </trkpt>
      <trkpt lat="49.39796" lon="0.2678">
        <ele>28</ele>
        <time>2023-09-03T07:22:20Z</time>
      </trkpt>
      <trkpt lat="49.39803" lon="0.26779">
        <ele>28.1</ele>
        <time>2023-09-03T07:22:21Z</time>
      </trkpt>
      <trkpt lat="49.39809" lon="0.26776">
        <ele>28.2</ele>
        <time>2023-09-03T07:22:22Z</time>
      </trkpt>
      <trkpt lat="49.39816" lon="0.26774">
        <ele>28.4</ele>
        <time>2023-09-03T07:22:23Z</time>
      </trkpt>
      <trkpt lat="49.39822" lon="0.26771">
        <ele>28.5</ele>
        <time>2023-09-03T07:22:24Z</time>
      </trkpt>
      <trkpt lat="49.39828" lon="0.26768">
        <ele>28.7</ele>
        <time>2023-09-03T07:22:25Z</time>
      </trkpt>
      <trkpt lat="49.39835" lon="0.26765">
        <ele>28.8</ele>
        <time>2023-09-03T07:22:26Z</time>
      </trkpt>
      <trkpt lat="49.39841" lon="0.26763">
        <ele>29</ele>
        <time>2023-09-03T07:22:27Z</time>
      </trkpt>
      <trkpt lat="49.39847" lon="0.26761">
        <ele>29.2</ele>
        <time>2023-09-03T07:22:28Z</time>
      </trkpt>
      <trkpt lat="49.39853" lon="0.26759">
        <ele>29.4</ele>
        <time>2023-09-03T07:22:29Z</time>
      </trkpt>
      <trkpt lat="49.39859" lon="0.26757">
        <ele>29.7</ele>
        <time>2023-09-03T07:22:30Z</time>
      </trkpt>
      <trkpt lat="49.39865" lon="0.26755">
        <ele>29.9</ele>
        <time>2023-09-03T07:22:31Z</time>
      </trkpt>
      <trkpt lat="49.39871" lon="0.26753">
        <ele>30.2</ele>
        <time>2023-09-03T07:22:32Z</time>
      </trkpt>
      <trkpt lat="49.39876" lon="0.26751">
        <ele>30.5</ele>
        <time>2023-09-03T07:22:33Z</time>
      </trkpt>
      <trkpt lat="49.39882" lon="0.26749">
        <ele>30.7</ele>
        <time>2023-09-03T07:22:34Z</time>
      </trkpt>
      <trkpt lat="49.39888" lon="0.26746">
        <ele>31</ele>
        <time>2023-09-03T07:22:35Z</time>
      </trkpt>
      <trkpt lat="49.39893" lon="0.26744">
        <ele>31.1</ele>
        <time>2023-09-03T07:22:36Z</time>
      </trkpt>
      <trkpt lat="49.39898" lon="0.26742">
        <ele>31.2</ele>
        <time>2023-09-03T07:22:37Z</time>
      </trkpt>
      <trkpt lat="49.39903" lon="0.26741">
        <ele>31.4</ele>
        <time>2023-09-03T07:22:38Z</time>
      </trkpt>
      <trkpt lat="49.39908" lon="0.26739">
        <ele>31.6</ele>
        <time>2023-09-03T07:22:39Z</time>
      </trkpt>
      <trkpt lat="49.39913" lon="0.26737">
        <ele>31.8</ele>
        <time>2023-09-03T07:22:40Z</time>
      </trkpt>
      <trkpt lat="49.39919" lon="0.26736">
        <ele>32</ele>
        <time>2023-09-03T07:22:41Z</time>
      </trkpt>
      <trkpt lat="49.39924" lon="0.26734">
        <ele>32.2</ele>
        <time>2023-09-03T07:22:42Z</time>
      </trkpt>
      <trkpt lat="49.3993" lon="0.26733">
        <ele>32.4</ele>
        <time>2023-09-03T07:22:43Z</time>
      </trkpt>
      <trkpt lat="49.39935" lon="0.26732">
        <ele>32.5</ele>
        <time>2023-09-03T07:22:44Z</time>
      </trkpt>
      <trkpt lat="49.39941" lon="0.2673">
        <ele>32.6</ele>
        <time>2023-09-03T07:22:45Z</time>
      </trkpt>
      <trkpt lat="49.39946" lon="0.26729">
        <ele>32.8</ele>
        <time>2023-09-03T07:22:46Z</time>
      </trkpt>
      <trkpt lat="49.39951" lon="0.26728">
        <ele>32.9</ele>
        <time>2023-09-03T07:22:47Z</time>
      </trkpt>
      <trkpt lat="49.39957" lon="0.26726">
        <ele>33</ele>
        <time>2023-09-03T07:22:48Z</time>
      </trkpt>
      <trkpt lat="49.39962" lon="0.26725">
        <ele>33</ele>
        <time>2023-09-03T07:22:49Z</time>
      </trkpt>
      <trkpt lat="49.39968" lon="0.26723">
        <ele>33.1</ele>
        <time>2023-09-03T07:22:50Z</time>
      </trkpt>
      <trkpt lat="49.39974" lon="0.26721">
        <ele>33.1</ele>
        <time>2023-09-03T07:22:51Z</time>
      </trkpt>
      <trkpt lat="49.3998" lon="0.26719">
        <ele>33.1</ele>
        <time>2023-09-03T07:22:52Z</time>
      </trkpt>
      <trkpt lat="49.39985" lon="0.26717">
        <ele>33.1</ele>
        <time>2023-09-03T07:22:53Z</time>
      </trkpt>
      <trkpt lat="49.39991" lon="0.26716">
        <ele>33.1</ele>
        <time>2023-09-03T07:22:54Z</time>
      </trkpt>
      <trkpt lat="49.39997" lon="0.26714">
        <ele>33.1</ele>
        <time>2023-09-03T07:22:55Z</time>
      </trkpt>
      <trkpt lat="49.40002" lon="0.26713">
        <ele>33</ele>
        <time>2023-09-03T07:22:56Z</time>
      </trkpt>
      <trkpt lat="49.40008" lon="0.26711">
        <ele>32.9</ele>
        <time>2023-09-03T07:22:57Z</time>
      </trkpt>
      <trkpt lat="49.40014" lon="0.26709">
        <ele>32.9</ele>
        <time>2023-09-03T07:22:58Z</time>
      </trkpt>
      <trkpt lat="49.40021" lon="0.26707">
        <ele>32.8</ele>
        <time>2023-09-03T07:22:59Z</time>
      </trkpt>
      <trkpt lat="49.40027" lon="0.26705">
        <ele>32.8</ele>
        <time>2023-09-03T07:23:00Z</time>
      </trkpt>
      <trkpt lat="49.40034" lon="0.26703">
        <ele>32.8</ele>
        <time>2023-09-03T07:23:01Z</time>
      </trkpt>
      <trkpt lat="49.4004" lon="0.26701">
        <ele>32.8</ele>
        <time>2023-09-03T07:23:02Z</time>
      </trkpt>
      <trkpt lat="49.40047" lon="0.26699">
        <ele>32.8</ele>
        <time>2023-09-03T07:23:03Z</time>
      </trkpt>
      <trkpt lat="49.40054" lon="0.26697">
        <ele>32.8</ele>
        <time>2023-09-03T07:23:04Z</time>
      </trkpt>
      <trkpt lat="49.4006" lon="0.26695">
        <ele>32.8</ele>
        <time>2023-09-03T07:23:05Z</time>
      </trkpt>
      <trkpt lat="49.40067" lon="0.26694">
        <ele>32.8</ele>
        <time>2023-09-03T07:23:06Z</time>
      </trkpt>
      <trkpt lat="49.40074" lon="0.26692">
        <ele>32.8</ele>
        <time>2023-09-03T07:23:07Z</time>
      </trkpt>
      <trkpt lat="49.40081" lon="0.26691">
        <ele>32.8</ele>
        <time>2023-09-03T07:23:08Z</time>
      </trkpt>
      <trkpt lat="49.40088" lon="0.26689">
        <ele>32.9</ele>
        <time>2023-09-03T07:23:09Z</time>
      </trkpt>
      <trkpt lat="49.40095" lon="0.26688">
        <ele>32.9</ele>
        <time>2023-09-03T07:23:10Z</time>
      </trkpt>
      <trkpt lat="49.40102" lon="0.26687">
        <ele>33</ele>
        <time>2023-09-03T07:23:11Z</time>
      </trkpt>
      <trkpt lat="49.40108" lon="0.26686">
        <ele>33.1</ele>
        <time>2023-09-03T07:23:12Z</time>
      </trkpt>
      <trkpt lat="49.40115" lon="0.26685">
        <ele>33.1</ele>
        <time>2023-09-03T07:23:13Z</time>
      </trkpt>
      <trkpt lat="49.40122" lon="0.26683">
        <ele>33.2</ele>
        <time>2023-09-03T07:23:14Z</time>
      </trkpt>
      <trkpt lat="49.40129" lon="0.26682">
        <ele>33.3</ele>
        <time>2023-09-03T07:23:15Z</time>
      </trkpt>
      <trkpt lat="49.40135" lon="0.26681">
        <ele>33.5</ele>
        <time>2023-09-03T07:23:16Z</time>
      </trkpt>
      <trkpt lat="49.40142" lon="0.2668">
        <ele>33.6</ele>
        <time>2023-09-03T07:23:17Z</time>
      </trkpt>
      <trkpt lat="49.40148" lon="0.26678">
        <ele>33.8</ele>
        <time>2023-09-03T07:23:18Z</time>
      </trkpt>
      <trkpt lat="49.40154" lon="0.26677">
        <ele>33.9</ele>
        <time>2023-09-03T07:23:19Z</time>
      </trkpt>
      <trkpt lat="49.4016" lon="0.26676">
        <ele>34</ele>
        <time>2023-09-03T07:23:20Z</time>
      </trkpt>
      <trkpt lat="49.40167" lon="0.26675">
        <ele>34.1</ele>
        <time>2023-09-03T07:23:21Z</time>
      </trkpt>
      <trkpt lat="49.40173" lon="0.26674">
        <ele>34.1</ele>
        <time>2023-09-03T07:23:22Z</time>
      </trkpt>
      <trkpt lat="49.40179" lon="0.26674">
        <ele>34</ele>
        <time>2023-09-03T07:23:23Z</time>
      </trkpt>
      <trkpt lat="49.40186" lon="0.26674">
        <ele>33.9</ele>
        <time>2023-09-03T07:23:24Z</time>
      </trkpt>
      <trkpt lat="49.40193" lon="0.26674">
        <ele>33.8</ele>
        <time>2023-09-03T07:23:25Z</time>
      </trkpt>
      <trkpt lat="49.402" lon="0.26673">
        <ele>33.6</ele>
        <time>2023-09-03T07:23:26Z</time>
      </trkpt>
      <trkpt lat="49.40208" lon="0.26673">
        <ele>33.4</ele>
        <time>2023-09-03T07:23:27Z</time>
      </trkpt>
      <trkpt lat="49.40215" lon="0.26672">
        <ele>33.2</ele>
        <time>2023-09-03T07:23:28Z</time>
      </trkpt>
      <trkpt lat="49.40222" lon="0.26673">
        <ele>33</ele>
        <time>2023-09-03T07:23:29Z</time>
      </trkpt>
      <trkpt lat="49.4023" lon="0.26672">
        <ele>32.7</ele>
        <time>2023-09-03T07:23:30Z</time>
      </trkpt>
      <trkpt lat="49.40237" lon="0.26672">
        <ele>32.5</ele>
        <time>2023-09-03T07:23:31Z</time>
      </trkpt>
      <trkpt lat="49.40244" lon="0.26671">
        <ele>32.3</ele>
        <time>2023-09-03T07:23:32Z</time>
      </trkpt>
      <trkpt lat="49.4025" lon="0.26671">
        <ele>31.9</ele>
        <time>2023-09-03T07:23:33Z</time>
      </trkpt>
      <trkpt lat="49.40256" lon="0.26673">
        <ele>31.6</ele>
        <time>2023-09-03T07:23:34Z</time>
      </trkpt>
      <trkpt lat="49.40262" lon="0.26677">
        <ele>31.2</ele>
        <time>2023-09-03T07:23:35Z</time>
      </trkpt>
      <trkpt lat="49.40268" lon="0.26681">
        <ele>30.8</ele>
        <time>2023-09-03T07:23:36Z</time>
      </trkpt>
      <trkpt lat="49.40275" lon="0.26684">
        <ele>30.4</ele>
        <time>2023-09-03T07:23:37Z</time>
      </trkpt>
      <trkpt lat="49.40282" lon="0.26686">
        <ele>30</ele>
        <time>2023-09-03T07:23:38Z</time>
      </trkpt>
      <trkpt lat="49.4029" lon="0.26688">
        <ele>29.7</ele>
        <time>2023-09-03T07:23:39Z</time>
      </trkpt>
      <trkpt lat="49.40297" lon="0.2669">
        <ele>29.3</ele>
        <time>2023-09-03T07:23:40Z</time>
      </trkpt>
      <trkpt lat="49.40305" lon="0.26693">
        <ele>28.9</ele>
        <time>2023-09-03T07:23:41Z</time>
      </trkpt>
      <trkpt lat="49.40313" lon="0.26695">
        <ele>28.6</ele>
        <time>2023-09-03T07:23:42Z</time>
      </trkpt>
      <trkpt lat="49.40321" lon="0.26697">
        <ele>28.2</ele>
        <time>2023-09-03T07:23:43Z</time>
      </trkpt>
      <trkpt lat="49.40329" lon="0.26699">
        <ele>27.9</ele>
        <time>2023-09-03T07:23:44Z</time>
      </trkpt>
      <trkpt lat="49.40337" lon="0.26701">
        <ele>27.5</ele>
        <time>2023-09-03T07:23:45Z</time>
      </trkpt>
      <trkpt lat="49.40345" lon="0.26703">
        <ele>27.2</ele>
        <time>2023-09-03T07:23:46Z</time>
      </trkpt>
      <trkpt lat="49.40353" lon="0.26705">
        <ele>26.9</ele>
        <time>2023-09-03T07:23:47Z</time>
      </trkpt>
      <trkpt lat="49.40361" lon="0.26707">
        <ele>26.5</ele>
        <time>2023-09-03T07:23:48Z</time>
      </trkpt>
      <trkpt lat="49.4037" lon="0.26709">
        <ele>26.1</ele>
        <time>2023-09-03T07:23:49Z</time>
      </trkpt>
      <trkpt lat="49.40378" lon="0.26712">
        <ele>25.7</ele>
        <time>2023-09-03T07:23:50Z</time>
      </trkpt>
      <trkpt lat="49.40387" lon="0.26714">
        <ele>25.2</ele>
        <time>2023-09-03T07:23:51Z</time>
      </trkpt>
      <trkpt lat="49.40395" lon="0.26716">
        <ele>24.8</ele>
        <time>2023-09-03T07:23:52Z</time>
      </trkpt>
      <trkpt lat="49.40404" lon="0.26717">
        <ele>24.5</ele>
        <time>2023-09-03T07:23:53Z</time>
      </trkpt>
      <trkpt lat="49.40413" lon="0.26718">
        <ele>24.1</ele>
        <time>2023-09-03T07:23:54Z</time>
      </trkpt>
      <trkpt lat="49.40421" lon="0.26719">
        <ele>23.6</ele>
        <time>2023-09-03T07:23:55Z</time>
      </trkpt>
      <trkpt lat="49.4043" lon="0.2672">
        <ele>23.2</ele>
        <time>2023-09-03T07:23:56Z</time>
      </trkpt>
      <trkpt lat="49.40439" lon="0.26721">
        <ele>22.8</ele>
        <time>2023-09-03T07:23:57Z</time>
      </trkpt>
      <trkpt lat="49.40448" lon="0.26721">
        <ele>22.3</ele>
        <time>2023-09-03T07:23:58Z</time>
      </trkpt>
      <trkpt lat="49.40457" lon="0.26722">
        <ele>21.9</ele>
        <time>2023-09-03T07:23:59Z</time>
      </trkpt>
      <trkpt lat="49.40466" lon="0.26722">
        <ele>21.5</ele>
        <time>2023-09-03T07:24:00Z</time>
      </trkpt>
      <trkpt lat="49.40476" lon="0.26723">
        <ele>21.1</ele>
        <time>2023-09-03T07:24:01Z</time>
      </trkpt>
      <trkpt lat="49.40485" lon="0.26723">
        <ele>20.7</ele>
        <time>2023-09-03T07:24:02Z</time>
      </trkpt>
      <trkpt lat="49.40494" lon="0.26724">
        <ele>20.3</ele>
        <time>2023-09-03T07:24:03Z</time>
      </trkpt>
      <trkpt lat="49.40502" lon="0.26725">
        <ele>19.9</ele>
        <time>2023-09-03T07:24:04Z</time>
      </trkpt>
      <trkpt lat="49.4051" lon="0.26726">
        <ele>19.4</ele>
        <time>2023-09-03T07:24:05Z</time>
      </trkpt>
      <trkpt lat="49.40518" lon="0.26729">
        <ele>19</ele>
        <time>2023-09-03T07:24:06Z</time>
      </trkpt>
      <trkpt lat="49.40525" lon="0.26733">
        <ele>18.4</ele>
        <time>2023-09-03T07:24:07Z</time>
      </trkpt>
      <trkpt lat="49.40532" lon="0.26739">
        <ele>17.8</ele>
        <time>2023-09-03T07:24:08Z</time>
      </trkpt>
      <trkpt lat="49.40539" lon="0.26748">
        <ele>17.2</ele>
        <time>2023-09-03T07:24:09Z</time>
      </trkpt>
      <trkpt lat="49.40545" lon="0.26757">
        <ele>16.6</ele>
        <time>2023-09-03T07:24:10Z</time>
      </trkpt>
      <trkpt lat="49.40552" lon="0.26768">
        <ele>16</ele>
        <time>2023-09-03T07:24:11Z</time>
      </trkpt>
      <trkpt lat="49.40559" lon="0.26777">
        <ele>15.3</ele>
        <time>2023-09-03T07:24:12Z</time>
      </trkpt>
      <trkpt lat="49.40567" lon="0.26787">
        <ele>14.6</ele>
        <time>2023-09-03T07:24:13Z</time>
      </trkpt>
      <trkpt lat="49.40574" lon="0.26795">
        <ele>13.9</ele>
        <time>2023-09-03T07:24:14Z</time>
      </trkpt>
      <trkpt lat="49.40582" lon="0.26801">
        <ele>13.3</ele>
        <time>2023-09-03T07:24:15Z</time>
      </trkpt>
      <trkpt lat="49.4059" lon="0.26805">
        <ele>12.8</ele>
        <time>2023-09-03T07:24:16Z</time>
      </trkpt>
      <trkpt lat="49.40597" lon="0.26809">
        <ele>12.3</ele>
        <time>2023-09-03T07:24:17Z</time>
      </trkpt>
      <trkpt lat="49.40604" lon="0.26811">
        <ele>11.8</ele>
        <time>2023-09-03T07:24:18Z</time>
      </trkpt>
      <trkpt lat="49.4061" lon="0.26813">
        <ele>11.5</ele>
        <time>2023-09-03T07:24:19Z</time>
      </trkpt>
      <trkpt lat="49.40615" lon="0.26815">
        <ele>11.2</ele>
        <time>2023-09-03T07:24:20Z</time>
      </trkpt>
      <trkpt lat="49.40619" lon="0.26816">
        <ele>11</ele>
        <time>2023-09-03T07:24:21Z</time>
      </trkpt>
      <trkpt lat="49.40622" lon="0.26817">
        <ele>10.8</ele>
        <time>2023-09-03T07:24:22Z</time>
      </trkpt>
      <trkpt lat="49.40625" lon="0.26817">
        <ele>10.7</ele>
        <time>2023-09-03T07:24:23Z</time>
      </trkpt>
      <trkpt lat="49.40627" lon="0.26818">
        <ele>10.5</ele>
        <time>2023-09-03T07:24:24Z</time>
      </trkpt>
      <trkpt lat="49.4063" lon="0.26819">
        <ele>10.4</ele>
        <time>2023-09-03T07:24:25Z</time>
      </trkpt>
      <trkpt lat="49.40633" lon="0.2682">
        <ele>10.2</ele>
        <time>2023-09-03T07:24:26Z</time>
      </trkpt>
      <trkpt lat="49.40636" lon="0.2682">
        <ele>10.1</ele>
        <time>2023-09-03T07:24:27Z</time>
      </trkpt>
      <trkpt lat="49.4064" lon="0.26823">
        <ele>9.9</ele>
        <time>2023-09-03T07:24:28Z</time>
      </trkpt>
      <trkpt lat="49.40645" lon="0.26825">
        <ele>9.6</ele>
        <time>2023-09-03T07:24:29Z</time>
      </trkpt>
      <trkpt lat="49.40651" lon="0.26827">
        <ele>9.3</ele>
        <time>2023-09-03T07:24:30Z</time>
      </trkpt>
      <trkpt lat="49.40658" lon="0.26827">
        <ele>8.9</ele>
        <time>2023-09-03T07:24:31Z</time>
      </trkpt>
      <trkpt lat="49.40665" lon="0.26827">
        <ele>8.6</ele>
        <time>2023-09-03T07:24:32Z</time>
      </trkpt>
      <trkpt lat="49.40672" lon="0.26826">
        <ele>8.3</ele>
        <time>2023-09-03T07:24:33Z</time>
      </trkpt>
      <trkpt lat="49.40679" lon="0.26825">
        <ele>8</ele>
        <time>2023-09-03T07:24:34Z</time>
      </trkpt>
      <trkpt lat="49.40686" lon="0.26825">
        <ele>7.8</ele>
        <time>2023-09-03T07:24:35Z</time>
      </trkpt>
      <trkpt lat="49.40692" lon="0.26827">
        <ele>7.6</ele>
        <time>2023-09-03T07:24:36Z</time>
      </trkpt>
      <trkpt lat="49.40696" lon="0.26832">
        <ele>7.5</ele>
        <time>2023-09-03T07:24:37Z</time>
      </trkpt>
      <trkpt lat="49.407" lon="0.26837">
        <ele>7.3</ele>
        <time>2023-09-03T07:24:38Z</time>
      </trkpt>
      <trkpt lat="49.40704" lon="0.26844">
        <ele>7.2</ele>
        <time>2023-09-03T07:24:39Z</time>
      </trkpt>
      <trkpt lat="49.40708" lon="0.26851">
        <ele>7.1</ele>
        <time>2023-09-03T07:24:40Z</time>
      </trkpt>
      <trkpt lat="49.40712" lon="0.26857">
        <ele>7</ele>
        <time>2023-09-03T07:24:41Z</time>
      </trkpt>
      <trkpt lat="49.40716" lon="0.26863">
        <ele>6.9</ele>
        <time>2023-09-03T07:24:42Z</time>
      </trkpt>
      <trkpt lat="49.40719" lon="0.26869">
        <ele>6.8</ele>
        <time>2023-09-03T07:24:43Z</time>
      </trkpt>
      <trkpt lat="49.40722" lon="0.26876">
        <ele>6.7</ele>
        <time>2023-09-03T07:24:44Z</time>
      </trkpt>
      <trkpt lat="49.40726" lon="0.26883">
        <ele>6.6</ele>
        <time>2023-09-03T07:24:45Z</time>
      </trkpt>
      <trkpt lat="49.4073" lon="0.26889">
        <ele>6.5</ele>
        <time>2023-09-03T07:24:46Z</time>
      </trkpt>
      <trkpt lat="49.40734" lon="0.26895">
        <ele>6.5</ele>
        <time>2023-09-03T07:24:47Z</time>
      </trkpt>
      <trkpt lat="49.40738" lon="0.26901">
        <ele>6.4</ele>
        <time>2023-09-03T07:24:48Z</time>
      </trkpt>
      <trkpt lat="49.40742" lon="0.26906">
        <ele>6.4</ele>
        <time>2023-09-03T07:24:49Z</time>
      </trkpt>
      <trkpt lat="49.40747" lon="0.2691">
        <ele>6.4</ele>
        <time>2023-09-03T07:24:50Z</time>
      </trkpt>
      <trkpt lat="49.40753" lon="0.26913">
        <ele>6.3</ele>
        <time>2023-09-03T07:24:51Z</time>
      </trkpt>
      <trkpt lat="49.40757" lon="0.26916">
        <ele>6.3</ele>
        <time>2023-09-03T07:24:52Z</time>
      </trkpt>
      <trkpt lat="49.40761" lon="0.26919">
        <ele>6.2</ele>
        <time>2023-09-03T07:24:53Z</time>
      </trkpt>
      <trkpt lat="49.40765" lon="0.26921">
        <ele>6.2</ele>
        <time>2023-09-03T07:24:54Z</time>
      </trkpt>
      <trkpt lat="49.40768" lon="0.26923">
        <ele>6.2</ele>
        <time>2023-09-03T07:24:55Z</time>
      </trkpt>
      <trkpt lat="49.40768" lon="0.26924">
        <ele>6.2</ele>
        <time>2023-09-03T07:24:56Z</time>
      </trkpt>
      <trkpt lat="49.40769" lon="0.26924">
        <ele>6.2</ele>
        <time>2023-09-03T07:24:57Z</time>
      </trkpt>
      <trkpt lat="49.4077" lon="0.26923">
        <ele>6.1</ele>
        <time>2023-09-03T07:24:58Z</time>
      </trkpt>
      <trkpt lat="49.4077" lon="0.26922">
        <ele>6.1</ele>
        <time>2023-09-03T07:24:59Z</time>
      </trkpt>
      <trkpt lat="49.4077" lon="0.26922">
        <ele>6.1</ele>
        <time>2023-09-03T07:25:00Z</time>
      </trkpt>
      <trkpt lat="49.4077" lon="0.26921">
        <ele>6.1</ele>
        <time>2023-09-03T07:25:01Z</time>
      </trkpt>
      <trkpt lat="49.40771" lon="0.26921">
        <ele>6.1</ele>
        <time>2023-09-03T07:25:02Z</time>
      </trkpt>
      <trkpt lat="49.40771" lon="0.2692">
        <ele>6.1</ele>
        <time>2023-09-03T07:25:03Z</time>
      </trkpt>
      <trkpt lat="49.40771" lon="0.2692">
        <ele>6.1</ele>
        <time>2023-09-03T07:25:04Z</time>
      </trkpt>
      <trkpt lat="49.40772" lon="0.26919">
        <ele>6.1</ele>
        <time>2023-09-03T07:25:05Z</time>
      </trkpt>
      <trkpt lat="49.40772" lon="0.26919">
        <ele>6.1</ele>
        <time>2023-09-03T07:25:06Z</time>
      </trkpt>
      <trkpt lat="49.40772" lon="0.26918">
        <ele>6.1</ele>
        <time>2023-09-03T07:25:07Z</time>
      </trkpt>
      <trkpt lat="49.40773" lon="0.26918">
        <ele>6.1</ele>
        <time>2023-09-03T07:25:08Z</time>
      </trkpt>
      <trkpt lat="49.40773" lon="0.26917">
        <ele>6.1</ele>
        <time>2023-09-03T07:25:21Z</time>
      </trkpt>
      <trkpt lat="49.40773" lon="0.26917">
        <ele>6.1</ele>
        <time>2023-09-03T07:25:22Z</time>
      </trkpt>
      <trkpt lat="49.40774" lon="0.26916">
        <ele>6.1</ele>
        <time>2023-09-03T07:25:23Z</time>
      </trkpt>
      <trkpt lat="49.40775" lon="0.26912">
        <ele>6.1</ele>
        <time>2023-09-03T07:25:24Z</time>
      </trkpt>
      <trkpt lat="49.40775" lon="0.26908">
        <ele>6.2</ele>
        <time>2023-09-03T07:25:25Z</time>
      </trkpt>
      <trkpt lat="49.40775" lon="0.26902">
        <ele>6.2</ele>
        <time>2023-09-03T07:25:26Z</time>
      </trkpt>
      <trkpt lat="49.40775" lon="0.26896">
        <ele>6.2</ele>
        <time>2023-09-03T07:25:27Z</time>
      </trkpt>
      <trkpt lat="49.40774" lon="0.2689">
        <ele>6.2</ele>
        <time>2023-09-03T07:25:28Z</time>
      </trkpt>
      <trkpt lat="49.40772" lon="0.26883">
        <ele>6.3</ele>
        <time>2023-09-03T07:25:29Z</time>
      </trkpt>
      <trkpt lat="49.4077" lon="0.26877">
        <ele>6.3</ele>
        <time>2023-09-03T07:25:30Z</time>
      </trkpt>
      <trkpt lat="49.40769" lon="0.2687">
        <ele>6.4</ele>
        <time>2023-09-03T07:25:31Z</time>
      </trkpt>
      <trkpt lat="49.40768" lon="0.26864">
        <ele>6.5</ele>
        <time>2023-09-03T07:25:32Z</time>
      </trkpt>
      <trkpt lat="49.40767" lon="0.26858">
        <ele>6.5</ele>
        <time>2023-09-03T07:25:33Z</time>
      </trkpt>
      <trkpt lat="49.40766" lon="0.26852">
        <ele>6.6</ele>
        <time>2023-09-03T07:25:34Z</time>
      </trkpt>
      <trkpt lat="49.40765" lon="0.26846">
        <ele>6.7</ele>
        <time>2023-09-03T07:25:35Z</time>
      </trkpt>
      <trkpt lat="49.40764" lon="0.2684">
        <ele>6.7</ele>
        <time>2023-09-03T07:25:36Z</time>
      </trkpt>
      <trkpt lat="49.40763" lon="0.26833">
        <ele>6.8</ele>
        <time>2023-09-03T07:25:37Z</time>
      </trkpt>
      <trkpt lat="49.40762" lon="0.26826">
        <ele>6.9</ele>
        <time>2023-09-03T07:25:38Z</time>
      </trkpt>
      <trkpt lat="49.40761" lon="0.2682">
        <ele>7</ele>
        <time>2023-09-03T07:25:39Z</time>
      </trkpt>
      <trkpt lat="49.4076" lon="0.26813">
        <ele>7.1</ele>
        <time>2023-09-03T07:25:40Z</time>
      </trkpt>
      <trkpt lat="49.40759" lon="0.26806">
        <ele>7.2</ele>
        <time>2023-09-03T07:25:41Z</time>
      </trkpt>
      <trkpt lat="49.40758" lon="0.268">
        <ele>7.3</ele>
        <time>2023-09-03T07:25:42Z</time>
      </trkpt>
      <trkpt lat="49.40757" lon="0.26793">
        <ele>7.5</ele>
        <time>2023-09-03T07:25:43Z</time>
      </trkpt>
      <trkpt lat="49.40756" lon="0.26786">
        <ele>7.6</ele>
        <time>2023-09-03T07:25:44Z</time>
      </trkpt>
      <trkpt lat="49.40755" lon="0.26779">
        <ele>7.7</ele>
        <time>2023-09-03T07:25:45Z</time>
      </trkpt>
      <trkpt lat="49.40754" lon="0.26772">
        <ele>7.8</ele>
        <time>2023-09-03T07:25:46Z</time>
      </trkpt>
      <trkpt lat="49.40753" lon="0.26765">
        <ele>8</ele>
        <time>2023-09-03T07:25:47Z</time>
      </trkpt>
      <trkpt lat="49.40752" lon="0.26758">
        <ele>8.1</ele>
        <time>2023-09-03T07:25:48Z</time>
      </trkpt>
      <trkpt lat="49.40751" lon="0.26751">
        <ele>8.2</ele>
        <time>2023-09-03T07:25:49Z</time>
      </trkpt>
      <trkpt lat="49.4075" lon="0.26744">
        <ele>8.4</ele>
        <time>2023-09-03T07:25:50Z</time>
      </trkpt>
      <trkpt lat="49.40749" lon="0.26736">
        <ele>8.5</ele>
        <time>2023-09-03T07:25:51Z</time>
      </trkpt>
      <trkpt lat="49.40748" lon="0.26729">
        <ele>8.6</ele>
        <time>2023-09-03T07:25:52Z</time>
      </trkpt>
      <trkpt lat="49.40748" lon="0.26721">
        <ele>8.7</ele>
        <time>2023-09-03T07:25:53Z</time>
      </trkpt>
      <trkpt lat="49.40748" lon="0.26713">
        <ele>8.8</ele>
        <time>2023-09-03T07:25:54Z</time>
      </trkpt>
      <trkpt lat="49.40749" lon="0.26706">
        <ele>8.9</ele>
        <time>2023-09-03T07:25:55Z</time>
      </trkpt>
      <trkpt lat="49.4075" lon="0.26698">
        <ele>8.9</ele>
        <time>2023-09-03T07:25:56Z</time>
      </trkpt>
      <trkpt lat="49.4075" lon="0.26691">
        <ele>9</ele>
        <time>2023-09-03T07:25:57Z</time>
      </trkpt>
      <trkpt lat="49.40751" lon="0.26683">
        <ele>9.1</ele>
        <time>2023-09-03T07:25:58Z</time>
      </trkpt>
      <trkpt lat="49.40752" lon="0.26675">
        <ele>9.1</ele>
        <time>2023-09-03T07:25:59Z</time>
      </trkpt>
      <trkpt lat="49.40753" lon="0.26668">
        <ele>9.2</ele>
        <time>2023-09-03T07:26:00Z</time>
      </trkpt>
      <trkpt lat="49.40754" lon="0.2666">
        <ele>9.2</ele>
        <time>2023-09-03T07:26:01Z</time>
      </trkpt>
      <trkpt lat="49.40755" lon="0.26653">
        <ele>9.3</ele>
        <time>2023-09-03T07:26:02Z</time>
      </trkpt>
      <trkpt lat="49.40756" lon="0.26645">
        <ele>9.3</ele>
        <time>2023-09-03T07:26:03Z</time>
      </trkpt>
      <trkpt lat="49.40757" lon="0.26637">
        <ele>9.4</ele>
        <time>2023-09-03T07:26:04Z</time>
      </trkpt>
      <trkpt lat="49.40759" lon="0.26628">
        <ele>9.5</ele>
        <time>2023-09-03T07:26:05Z</time>
      </trkpt>
      <trkpt lat="49.4076" lon="0.26619">
        <ele>9.5</ele>
        <time>2023-09-03T07:26:06Z</time>
      </trkpt>
      <trkpt lat="49.4076" lon="0.2661">
        <ele>9.6</ele>
        <time>2023-09-03T07:26:07Z</time>
      </trkpt>
      <trkpt lat="49.40761" lon="0.26601">
        <ele>9.6</ele>
        <time>2023-09-03T07:26:08Z</time>
      </trkpt>
      <trkpt lat="49.40761" lon="0.26594">
        <ele>9.6</ele>
        <time>2023-09-03T07:26:09Z</time>
      </trkpt>
      <trkpt lat="49.40762" lon="0.26586">
        <ele>9.7</ele>
        <time>2023-09-03T07:26:10Z</time>
      </trkpt>
      <trkpt lat="49.40763" lon="0.26578">
        <ele>9.7</ele>
        <time>2023-09-03T07:26:11Z</time>
      </trkpt>
      <trkpt lat="49.40764" lon="0.2657">
        <ele>9.7</ele>
        <time>2023-09-03T07:26:12Z</time>
      </trkpt>
      <trkpt lat="49.40765" lon="0.26561">
        <ele>9.7</ele>
        <time>2023-09-03T07:26:13Z</time>
      </trkpt>
      <trkpt lat="49.40765" lon="0.26553">
        <ele>9.8</ele>
        <time>2023-09-03T07:26:14Z</time>
      </trkpt>
      <trkpt lat="49.40766" lon="0.26544">
        <ele>9.8</ele>
        <time>2023-09-03T07:26:15Z</time>
      </trkpt>
      <trkpt lat="49.40767" lon="0.26536">
        <ele>9.8</ele>
        <time>2023-09-03T07:26:16Z</time>
      </trkpt>
      <trkpt lat="49.40769" lon="0.26528">
        <ele>9.8</ele>
        <time>2023-09-03T07:26:17Z</time>
      </trkpt>
      <trkpt lat="49.4077" lon="0.2652">
        <ele>9.9</ele>
        <time>2023-09-03T07:26:18Z</time>
      </trkpt>
      <trkpt lat="49.40771" lon="0.26512">
        <ele>9.9</ele>
        <time>2023-09-03T07:26:19Z</time>
      </trkpt>
      <trkpt lat="49.40771" lon="0.26504">
        <ele>9.9</ele>
        <time>2023-09-03T07:26:20Z</time>
      </trkpt>
      <trkpt lat="49.40772" lon="0.26495">
        <ele>10</ele>
        <time>2023-09-03T07:26:21Z</time>
      </trkpt>
      <trkpt lat="49.40773" lon="0.26487">
        <ele>10.1</ele>
        <time>2023-09-03T07:26:22Z</time>
      </trkpt>
      <trkpt lat="49.40774" lon="0.26479">
        <ele>10.2</ele>
        <time>2023-09-03T07:26:23Z</time>
      </trkpt>
      <trkpt lat="49.40775" lon="0.26471">
        <ele>10.4</ele>
        <time>2023-09-03T07:26:24Z</time>
      </trkpt>
      <trkpt lat="49.40776" lon="0.26463">
        <ele>10.5</ele>
        <time>2023-09-03T07:26:25Z</time>
      </trkpt>
      <trkpt lat="49.40777" lon="0.26456">
        <ele>10.6</ele>
        <time>2023-09-03T07:26:26Z</time>
      </trkpt>
      <trkpt lat="49.40778" lon="0.26448">
        <ele>10.7</ele>
        <time>2023-09-03T07:26:27Z</time>
      </trkpt>
      <trkpt lat="49.4078" lon="0.2644">
        <ele>10.8</ele>
        <time>2023-09-03T07:26:28Z</time>
      </trkpt>
      <trkpt lat="49.40783" lon="0.26433">
        <ele>11</ele>
        <time>2023-09-03T07:26:29Z</time>
      </trkpt>
      <trkpt lat="49.40785" lon="0.26426">
        <ele>11.1</ele>
        <time>2023-09-03T07:26:30Z</time>
      </trkpt>
      <trkpt lat="49.40786" lon="0.2642">
        <ele>11.3</ele>
        <time>2023-09-03T07:26:31Z</time>
      </trkpt>
      <trkpt lat="49.40787" lon="0.26413">
        <ele>11.4</ele>
        <time>2023-09-03T07:26:32Z</time>
      </trkpt>
      <trkpt lat="49.40788" lon="0.26406">
        <ele>11.6</ele>
        <time>2023-09-03T07:26:33Z</time>
      </trkpt>
      <trkpt lat="49.40789" lon="0.26399">
        <ele>11.8</ele>
        <time>2023-09-03T07:26:34Z</time>
      </trkpt>
      <trkpt lat="49.40789" lon="0.26391">
        <ele>12</ele>
        <time>2023-09-03T07:26:35Z</time>
      </trkpt>
      <trkpt lat="49.4079" lon="0.26384">
        <ele>12.2</ele>
        <time>2023-09-03T07:26:36Z</time>
      </trkpt>
      <trkpt lat="49.40791" lon="0.26377">
        <ele>12.4</ele>
        <time>2023-09-03T07:26:37Z</time>
      </trkpt>
      <trkpt lat="49.40791" lon="0.26371">
        <ele>12.6</ele>
        <time>2023-09-03T07:26:38Z</time>
      </trkpt>
      <trkpt lat="49.40792" lon="0.26366">
        <ele>12.8</ele>
        <time>2023-09-03T07:26:39Z</time>
      </trkpt>
      <trkpt lat="49.40792" lon="0.2636">
        <ele>13</ele>
        <time>2023-09-03T07:26:40Z</time>
      </trkpt>
      <trkpt lat="49.40793" lon="0.26354">
        <ele>13.2</ele>
        <time>2023-09-03T07:26:41Z</time>
      </trkpt>
      <trkpt lat="49.40793" lon="0.26349">
        <ele>13.4</ele>
        <time>2023-09-03T07:26:42Z</time>
      </trkpt>
      <trkpt lat="49.40794" lon="0.26344">
        <ele>13.6</ele>
        <time>2023-09-03T07:26:43Z</time>
      </trkpt>
      <trkpt lat="49.40794" lon="0.26338">
        <ele>13.8</ele>
        <time>2023-09-03T07:26:44Z</time>
      </trkpt>
      <trkpt lat="49.40794" lon="0.26332">
        <ele>14</ele>
        <time>2023-09-03T07:26:45Z</time>
      </trkpt>
      <trkpt lat="49.40795" lon="0.26326">
        <ele>14.2</ele>
        <time>2023-09-03T07:26:46Z</time>
      </trkpt>
      <trkpt lat="49.40796" lon="0.2632">
        <ele>14.4</ele>
        <time>2023-09-03T07:26:47Z</time>
      </trkpt>
      <trkpt lat="49.40797" lon="0.26315">
        <ele>14.6</ele>
        <time>2023-09-03T07:26:48Z</time>
      </trkpt>
      <trkpt lat="49.40798" lon="0.26309">
        <ele>14.8</ele>
        <time>2023-09-03T07:26:49Z</time>
      </trkpt>
      <trkpt lat="49.40799" lon="0.26303">
        <ele>15</ele>
        <time>2023-09-03T07:26:50Z</time>
      </trkpt>
      <trkpt lat="49.408" lon="0.26298">
        <ele>15.2</ele>
        <time>2023-09-03T07:26:51Z</time>
      </trkpt>
      <trkpt lat="49.40801" lon="0.26292">
        <ele>15.4</ele>
        <time>2023-09-03T07:26:52Z</time>
      </trkpt>
      <trkpt lat="49.40801" lon="0.26286">
        <ele>15.6</ele>
        <time>2023-09-03T07:26:53Z</time>
      </trkpt>
      <trkpt lat="49.40801" lon="0.2628">
        <ele>15.8</ele>
        <time>2023-09-03T07:26:54Z</time>
      </trkpt>
      <trkpt lat="49.40802" lon="0.26275">
        <ele>15.9</ele>
        <time>2023-09-03T07:26:55Z</time>
      </trkpt>
      <trkpt lat="49.40803" lon="0.2627">
        <ele>16.1</ele>
        <time>2023-09-03T07:26:56Z</time>
      </trkpt>
      <trkpt lat="49.40803" lon="0.26265">
        <ele>16.2</ele>
        <time>2023-09-03T07:26:57Z</time>
      </trkpt>
      <trkpt lat="49.40803" lon="0.26261">
        <ele>16.4</ele>
        <time>2023-09-03T07:26:58Z</time>
      </trkpt>
      <trkpt lat="49.40803" lon="0.26256">
        <ele>16.5</ele>
        <time>2023-09-03T07:26:59Z</time>
      </trkpt>
      <trkpt lat="49.40805" lon="0.26251">
        <ele>16.7</ele>
        <time>2023-09-03T07:27:00Z</time>
      </trkpt>
      <trkpt lat="49.40806" lon="0.26246">
        <ele>16.9</ele>
        <time>2023-09-03T07:27:01Z</time>
      </trkpt>
      <trkpt lat="49.40806" lon="0.26241">
        <ele>17</ele>
        <time>2023-09-03T07:27:02Z</time>
      </trkpt>
      <trkpt lat="49.40807" lon="0.26236">
        <ele>17.2</ele>
        <time>2023-09-03T07:27:03Z</time>
      </trkpt>
      <trkpt lat="49.40807" lon="0.2623">
        <ele>17.4</ele>
        <time>2023-09-03T07:27:04Z</time>
      </trkpt>
      <trkpt lat="49.40808" lon="0.26224">
        <ele>17.7</ele>
        <time>2023-09-03T07:27:05Z</time>
      </trkpt>
      <trkpt lat="49.40809" lon="0.26218">
        <ele>17.9</ele>
        <time>2023-09-03T07:27:06Z</time>
      </trkpt>
      <trkpt lat="49.40809" lon="0.26212">
        <ele>18.1</ele>
        <time>2023-09-03T07:27:07Z</time>
      </trkpt>
      <trkpt lat="49.40809" lon="0.26207">
        <ele>18.2</ele>
        <time>2023-09-03T07:27:08Z</time>
      </trkpt>
      <trkpt lat="49.4081" lon="0.26201">
        <ele>18.4</ele>
        <time>2023-09-03T07:27:09Z</time>
      </trkpt>
      <trkpt lat="49.40811" lon="0.26195">
        <ele>18.7</ele>
        <time>2023-09-03T07:27:10Z</time>
      </trkpt>
      <trkpt lat="49.40812" lon="0.26189">
        <ele>18.9</ele>
        <time>2023-09-03T07:27:11Z</time>
      </trkpt>
      <trkpt lat="49.40814" lon="0.26183">
        <ele>19.1</ele>
        <time>2023-09-03T07:27:12Z</time>
      </trkpt>
      <trkpt lat="49.40815" lon="0.26177">
        <ele>19.3</ele>
        <time>2023-09-03T07:27:13Z</time>
      </trkpt>
      <trkpt lat="49.40816" lon="0.26171">
        <ele>19.5</ele>
        <time>2023-09-03T07:27:14Z</time>
      </trkpt>
      <trkpt lat="49.40816" lon="0.26165">
        <ele>19.6</ele>
        <time>2023-09-03T07:27:15Z</time>
      </trkpt>
      <trkpt lat="49.40817" lon="0.26159">
        <ele>19.8</ele>
        <time>2023-09-03T07:27:16Z</time>
      </trkpt>
      <trkpt lat="49.40818" lon="0.26153">
        <ele>19.9</ele>
        <time>2023-09-03T07:27:17Z</time>
      </trkpt>
      <trkpt lat="49.40819" lon="0.26148">
        <ele>20.1</ele>
        <time>2023-09-03T07:27:18Z</time>
      </trkpt>
      <trkpt lat="49.40819" lon="0.26142">
        <ele>20.2</ele>
        <time>2023-09-03T07:27:19Z</time>
      </trkpt>
      <trkpt lat="49.4082" lon="0.26135">
        <ele>20.4</ele>
        <time>2023-09-03T07:27:20Z</time>
      </trkpt>
      <trkpt lat="49.40821" lon="0.26129">
        <ele>20.5</ele>
        <time>2023-09-03T07:27:21Z</time>
      </trkpt>
      <trkpt lat="49.40822" lon="0.26122">
        <ele>20.7</ele>
        <time>2023-09-03T07:27:22Z</time>
      </trkpt>
      <trkpt lat="49.40823" lon="0.26116">
        <ele>20.8</ele>
        <time>2023-09-03T07:27:23Z</time>
      </trkpt>
      <trkpt lat="49.40823" lon="0.2611">
        <ele>20.9</ele>
        <time>2023-09-03T07:27:24Z</time>
      </trkpt>
      <trkpt lat="49.40824" lon="0.26105">
        <ele>21</ele>
        <time>2023-09-03T07:27:25Z</time>
      </trkpt>
      <trkpt lat="49.40825" lon="0.26099">
        <ele>21.1</ele>
        <time>2023-09-03T07:27:26Z</time>
      </trkpt>
      <trkpt lat="49.40825" lon="0.26093">
        <ele>21.2</ele>
        <time>2023-09-03T07:27:27Z</time>
      </trkpt>
      <trkpt lat="49.40826" lon="0.26088">
        <ele>21.3</ele>
        <time>2023-09-03T07:27:28Z</time>
      </trkpt>
      <trkpt lat="49.40826" lon="0.26082">
        <ele>21.4</ele>
        <time>2023-09-03T07:27:29Z</time>
      </trkpt>
      <trkpt lat="49.40826" lon="0.26076">
        <ele>21.6</ele>
        <time>2023-09-03T07:27:30Z</time>
      </trkpt>
      <trkpt lat="49.40826" lon="0.26071">
        <ele>21.7</ele>
        <time>2023-09-03T07:27:31Z</time>
      </trkpt>
      <trkpt lat="49.40826" lon="0.26067">
        <ele>21.7</ele>
        <time>2023-09-03T07:27:32Z</time>
      </trkpt>
      <trkpt lat="49.40826" lon="0.26061">
        <ele>21.8</ele>
        <time>2023-09-03T07:27:33Z</time>
      </trkpt>
      <trkpt lat="49.40827" lon="0.26059">
        <ele>21.9</ele>
        <time>2023-09-03T07:27:34Z</time>
      </trkpt>
      <trkpt lat="49.40828" lon="0.26055">
        <ele>21.9</ele>
        <time>2023-09-03T07:27:35Z</time>
      </trkpt>
      <trkpt lat="49.40829" lon="0.26051">
        <ele>22</ele>
        <time>2023-09-03T07:27:36Z</time>
      </trkpt>
      <trkpt lat="49.40829" lon="0.26046">
        <ele>22.1</ele>
        <time>2023-09-03T07:27:37Z</time>
      </trkpt>
      <trkpt lat="49.4083" lon="0.26042">
        <ele>22.2</ele>
        <time>2023-09-03T07:27:38Z</time>
      </trkpt>
      <trkpt lat="49.40831" lon="0.26038">
        <ele>22.2</ele>
        <time>2023-09-03T07:27:39Z</time>
      </trkpt>
      <trkpt lat="49.40831" lon="0.26033">
        <ele>22.2</ele>
        <time>2023-09-03T07:27:40Z</time>
      </trkpt>
      <trkpt lat="49.40832" lon="0.26028">
        <ele>22.2</ele>
        <time>2023-09-03T07:27:41Z</time>
      </trkpt>
      <trkpt lat="49.40832" lon="0.26026">
        <ele>22.3</ele>
        <time>2023-09-03T07:27:42Z</time>
      </trkpt>
      <trkpt lat="49.40833" lon="0.26021">
        <ele>22.3</ele>
        <time>2023-09-03T07:27:43Z</time>
      </trkpt>
      <trkpt lat="49.40833" lon="0.2602">
        <ele>22.3</ele>
        <time>2023-09-03T07:27:44Z</time>
      </trkpt>
      <trkpt lat="49.40833" lon="0.26015">
        <ele>22.4</ele>
        <time>2023-09-03T07:27:45Z</time>
      </trkpt>
      <trkpt lat="49.40834" lon="0.26014">
        <ele>22.4</ele>
        <time>2023-09-03T07:27:46Z</time>
      </trkpt>
      <trkpt lat="49.40834" lon="0.26009">
        <ele>22.4</ele>
        <time>2023-09-03T07:27:47Z</time>
      </trkpt>
      <trkpt lat="49.40834" lon="0.26007">
        <ele>22.5</ele>
        <time>2023-09-03T07:27:48Z</time>
      </trkpt>
      <trkpt lat="49.40834" lon="0.26006">
        <ele>22.5</ele>
        <time>2023-09-03T07:27:49Z</time>
      </trkpt>
      <trkpt lat="49.40835" lon="0.26005">
        <ele>22.5</ele>
        <time>2023-09-03T07:27:50Z</time>
      </trkpt>
      <trkpt lat="49.40835" lon="0.26005">
        <ele>22.5</ele>
        <time>2023-09-03T07:27:51Z</time>
      </trkpt>
      <trkpt lat="49.40835" lon="0.26004">
        <ele>22.5</ele>
        <time>2023-09-03T07:27:52Z</time>
      </trkpt>
      <trkpt lat="49.40835" lon="0.26003">
        <ele>22.5</ele>
        <time>2023-09-03T07:27:53Z</time>
      </trkpt>
      <trkpt lat="49.40836" lon="0.26003">
        <ele>22.5</ele>
        <time>2023-09-03T07:27:54Z</time>
      </trkpt>
      <trkpt lat="49.40836" lon="0.26002">
        <ele>22.5</ele>
        <time>2023-09-03T07:27:55Z</time>
      </trkpt>
      <trkpt lat="49.40836" lon="0.26001">
        <ele>22.5</ele>
        <time>2023-09-03T07:27:56Z</time>
      </trkpt>
      <trkpt lat="49.40836" lon="0.26">
        <ele>22.5</ele>
        <time>2023-09-03T07:27:57Z</time>
      </trkpt>
      <trkpt lat="49.40837" lon="0.26">
        <ele>22.5</ele>
        <time>2023-09-03T07:27:58Z</time>
      </trkpt>
      <trkpt lat="49.40837" lon="0.25999">
        <ele>22.5</ele>
        <time>2023-09-03T07:27:59Z</time>
      </trkpt>
      <trkpt lat="49.40837" lon="0.25998">
        <ele>22.5</ele>
        <time>2023-09-03T07:28:00Z</time>
      </trkpt>
      <trkpt lat="49.40837" lon="0.25997">
        <ele>22.5</ele>
        <time>2023-09-03T07:28:07Z</time>
      </trkpt>
      <trkpt lat="49.40837" lon="0.25997">
        <ele>22.6</ele>
        <time>2023-09-03T07:28:08Z</time>
      </trkpt>
      <trkpt lat="49.40838" lon="0.25996">
        <ele>22.6</ele>
        <time>2023-09-03T07:28:09Z</time>
      </trkpt>
      <trkpt lat="49.40838" lon="0.25992">
        <ele>22.6</ele>
        <time>2023-09-03T07:28:10Z</time>
      </trkpt>
      <trkpt lat="49.40839" lon="0.25987">
        <ele>22.6</ele>
        <time>2023-09-03T07:28:11Z</time>
      </trkpt>
      <trkpt lat="49.4084" lon="0.25981">
        <ele>22.7</ele>
        <time>2023-09-03T07:28:12Z</time>
      </trkpt>
      <trkpt lat="49.40841" lon="0.25979">
        <ele>22.7</ele>
        <time>2023-09-03T07:28:13Z</time>
      </trkpt>
      <trkpt lat="49.40842" lon="0.25974">
        <ele>22.8</ele>
        <time>2023-09-03T07:28:14Z</time>
      </trkpt>
      <trkpt lat="49.40842" lon="0.25969">
        <ele>22.8</ele>
        <time>2023-09-03T07:28:15Z</time>
      </trkpt>
      <trkpt lat="49.40844" lon="0.25963">
        <ele>22.9</ele>
        <time>2023-09-03T07:28:16Z</time>
      </trkpt>
      <trkpt lat="49.40844" lon="0.25956">
        <ele>23</ele>
        <time>2023-09-03T07:28:17Z</time>
      </trkpt>
      <trkpt lat="49.40845" lon="0.2595">
        <ele>23.1</ele>
        <time>2023-09-03T07:28:18Z</time>
      </trkpt>
      <trkpt lat="49.40845" lon="0.25942">
        <ele>23.2</ele>
        <time>2023-09-03T07:28:19Z</time>
      </trkpt>
      <trkpt lat="49.40846" lon="0.25934">
        <ele>23.3</ele>
        <time>2023-09-03T07:28:20Z</time>
      </trkpt>
      <trkpt lat="49.40848" lon="0.25924">
        <ele>23.4</ele>
        <time>2023-09-03T07:28:21Z</time>
      </trkpt>
      <trkpt lat="49.40849" lon="0.25915">
        <ele>23.5</ele>
        <time>2023-09-03T07:28:22Z</time>
      </trkpt>
      <trkpt lat="49.40849" lon="0.25907">
        <ele>23.6</ele>
        <time>2023-09-03T07:28:23Z</time>
      </trkpt>
      <trkpt lat="49.4085" lon="0.25898">
        <ele>23.7</ele>
        <time>2023-09-03T07:28:24Z</time>
      </trkpt>
      <trkpt lat="49.40851" lon="0.2589">
        <ele>23.8</ele>
        <time>2023-09-03T07:28:25Z</time>
      </trkpt>
      <trkpt lat="49.40852" lon="0.25883">
        <ele>23.8</ele>
        <time>2023-09-03T07:28:26Z</time>
      </trkpt>
      <trkpt lat="49.40853" lon="0.25876">
        <ele>23.9</ele>
        <time>2023-09-03T07:28:27Z</time>
      </trkpt>
      <trkpt lat="49.40853" lon="0.25869">
        <ele>23.9</ele>
        <time>2023-09-03T07:28:28Z</time>
      </trkpt>
      <trkpt lat="49.40855" lon="0.2586">
        <ele>24</ele>
        <time>2023-09-03T07:28:29Z</time>
      </trkpt>
      <trkpt lat="49.40856" lon="0.25852">
        <ele>24</ele>
        <time>2023-09-03T07:28:30Z</time>
      </trkpt>
      <trkpt lat="49.40856" lon="0.25844">
        <ele>24.1</ele>
        <time>2023-09-03T07:28:31Z</time>
      </trkpt>
      <trkpt lat="49.40857" lon="0.25835">
        <ele>24.2</ele>
        <time>2023-09-03T07:28:32Z</time>
      </trkpt>
      <trkpt lat="49.40858" lon="0.25827">
        <ele>24.2</ele>
        <time>2023-09-03T07:28:33Z</time>
      </trkpt>
      <trkpt lat="49.4086" lon="0.25818">
        <ele>24.3</ele>
        <time>2023-09-03T07:28:34Z</time>
      </trkpt>
      <trkpt lat="49.40861" lon="0.25809">
        <ele>24.4</ele>
        <time>2023-09-03T07:28:35Z</time>
      </trkpt>
      <trkpt lat="49.40862" lon="0.25801">
        <ele>24.4</ele>
        <time>2023-09-03T07:28:36Z</time>
      </trkpt>
      <trkpt lat="49.40863" lon="0.25791">
        <ele>24.5</ele>
        <time>2023-09-03T07:28:37Z</time>
      </trkpt>
      <trkpt lat="49.40865" lon="0.25783">
        <ele>24.5</ele>
        <time>2023-09-03T07:28:38Z</time>
      </trkpt>
      <trkpt lat="49.40866" lon="0.25773">
        <ele>24.6</ele>
        <time>2023-09-03T07:28:39Z</time>
      </trkpt>
      <trkpt lat="49.40867" lon="0.25764">
        <ele>24.6</ele>
        <time>2023-09-03T07:28:40Z</time>
      </trkpt>
      <trkpt lat="49.40869" lon="0.25755">
        <ele>24.6</ele>
        <time>2023-09-03T07:28:41Z</time>
      </trkpt>
      <trkpt lat="49.4087" lon="0.25745">
        <ele>24.7</ele>
        <time>2023-09-03T07:28:42Z</time>
      </trkpt>
      <trkpt lat="49.40871" lon="0.25735">
        <ele>24.7</ele>
        <time>2023-09-03T07:28:43Z</time>
      </trkpt>
      <trkpt lat="49.40872" lon="0.25725">
        <ele>24.8</ele>
        <time>2023-09-03T07:28:44Z</time>
      </trkpt>
      <trkpt lat="49.40873" lon="0.25715">
        <ele>24.8</ele>
        <time>2023-09-03T07:28:45Z</time>
      </trkpt>
      <trkpt lat="49.40874" lon="0.25705">
        <ele>24.8</ele>
        <time>2023-09-03T07:28:46Z</time>
      </trkpt>
      <trkpt lat="49.40875" lon="0.25695">
        <ele>24.9</ele>
        <time>2023-09-03T07:28:47Z</time>
      </trkpt>
      <trkpt lat="49.40876" lon="0.25685">
        <ele>24.9</ele>
        <time>2023-09-03T07:28:48Z</time>
      </trkpt>
      <trkpt lat="49.40878" lon="0.25675">
        <ele>25</ele>
        <time>2023-09-03T07:28:49Z</time>
      </trkpt>
      <trkpt lat="49.40879" lon="0.25666">
        <ele>25</ele>
        <time>2023-09-03T07:28:50Z</time>
      </trkpt>
      <trkpt lat="49.4088" lon="0.25656">
        <ele>25.1</ele>
        <time>2023-09-03T07:28:51Z</time>
      </trkpt>
      <trkpt lat="49.40881" lon="0.25646">
        <ele>25.2</ele>
        <time>2023-09-03T07:28:52Z</time>
      </trkpt>
      <trkpt lat="49.40882" lon="0.25636">
        <ele>25.2</ele>
        <time>2023-09-03T07:28:53Z</time>
      </trkpt>
      <trkpt lat="49.40883" lon="0.25626">
        <ele>25.3</ele>
        <time>2023-09-03T07:28:54Z</time>
      </trkpt>
      <trkpt lat="49.40885" lon="0.25616">
        <ele>25.3</ele>
        <time>2023-09-03T07:28:55Z</time>
      </trkpt>
      <trkpt lat="49.40886" lon="0.25606">
        <ele>25.4</ele>
        <time>2023-09-03T07:28:56Z</time>
      </trkpt>
      <trkpt lat="49.40887" lon="0.25597">
        <ele>25.4</ele>
        <time>2023-09-03T07:28:57Z</time>
      </trkpt>
      <trkpt lat="49.40889" lon="0.25587">
        <ele>25.5</ele>
        <time>2023-09-03T07:28:58Z</time>
      </trkpt>
      <trkpt lat="49.4089" lon="0.25577">
        <ele>25.5</ele>
        <time>2023-09-03T07:28:59Z</time>
      </trkpt>
      <trkpt lat="49.40892" lon="0.25567">
        <ele>25.5</ele>
        <time>2023-09-03T07:29:00Z</time>
      </trkpt>
      <trkpt lat="49.40893" lon="0.25558">
        <ele>25.6</ele>
        <time>2023-09-03T07:29:01Z</time>
      </trkpt>
      <trkpt lat="49.40894" lon="0.25548">
        <ele>25.6</ele>
        <time>2023-09-03T07:29:02Z</time>
      </trkpt>
      <trkpt lat="49.40895" lon="0.25538">
        <ele>25.6</ele>
        <time>2023-09-03T07:29:03Z</time>
      </trkpt>
      <trkpt lat="49.40896" lon="0.25528">
        <ele>25.6</ele>
        <time>2023-09-03T07:29:04Z</time>
      </trkpt>
      <trkpt lat="49.40897" lon="0.25517">
        <ele>25.6</ele>
        <time>2023-09-03T07:29:05Z</time>
      </trkpt>
      <trkpt lat="49.40898" lon="0.25507">
        <ele>25.6</ele>
        <time>2023-09-03T07:29:06Z</time>
      </trkpt>
      <trkpt lat="49.40899" lon="0.25497">
        <ele>25.7</ele>
        <time>2023-09-03T07:29:07Z</time>
      </trkpt>
      <trkpt lat="49.40901" lon="0.25487">
        <ele>25.7</ele>
        <time>2023-09-03T07:29:08Z</time>
      </trkpt>
      <trkpt lat="49.40902" lon="0.25477">
        <ele>25.6</ele>
        <time>2023-09-03T07:29:09Z</time>
      </trkpt>
      <trkpt lat="49.40903" lon="0.25466">
        <ele>25.6</ele>
        <time>2023-09-03T07:29:10Z</time>
      </trkpt>
      <trkpt lat="49.40904" lon="0.25456">
        <ele>25.6</ele>
        <time>2023-09-03T07:29:11Z</time>
      </trkpt>
      <trkpt lat="49.40906" lon="0.25446">
        <ele>25.6</ele>
        <time>2023-09-03T07:29:12Z</time>
      </trkpt>
      <trkpt lat="49.40907" lon="0.25436">
        <ele>25.6</ele>
        <time>2023-09-03T07:29:13Z</time>
      </trkpt>
      <trkpt lat="49.40909" lon="0.25426">
        <ele>25.5</ele>
        <time>2023-09-03T07:29:14Z</time>
      </trkpt>
      <trkpt lat="49.4091" lon="0.25417">
        <ele>25.5</ele>
        <time>2023-09-03T07:29:15Z</time>
      </trkpt>
      <trkpt lat="49.40912" lon="0.25408">
        <ele>25.4</ele>
        <time>2023-09-03T07:29:16Z</time>
      </trkpt>
      <trkpt lat="49.40913" lon="0.25399">
        <ele>25.4</ele>
        <time>2023-09-03T07:29:17Z</time>
      </trkpt>
      <trkpt lat="49.40915" lon="0.2539">
        <ele>25.4</ele>
        <time>2023-09-03T07:29:18Z</time>
      </trkpt>
      <trkpt lat="49.40916" lon="0.2538">
        <ele>25.3</ele>
        <time>2023-09-03T07:29:19Z</time>
      </trkpt>
      <trkpt lat="49.40917" lon="0.2537">
        <ele>25.3</ele>
        <time>2023-09-03T07:29:20Z</time>
      </trkpt>
      <trkpt lat="49.40918" lon="0.25361">
        <ele>25.3</ele>
        <time>2023-09-03T07:29:21Z</time>
      </trkpt>
      <trkpt lat="49.40919" lon="0.25352">
        <ele>25.3</ele>
        <time>2023-09-03T07:29:22Z</time>
      </trkpt>
      <trkpt lat="49.4092" lon="0.25345">
        <ele>25.3</ele>
        <time>2023-09-03T07:29:23Z</time>
      </trkpt>
      <trkpt lat="49.40921" lon="0.25337">
        <ele>25.3</ele>
        <time>2023-09-03T07:29:24Z</time>
      </trkpt>
      <trkpt lat="49.40922" lon="0.2533">
        <ele>25.3</ele>
        <time>2023-09-03T07:29:25Z</time>
      </trkpt>
      <trkpt lat="49.40923" lon="0.25323">
        <ele>25.3</ele>
        <time>2023-09-03T07:29:26Z</time>
      </trkpt>
      <trkpt lat="49.40924" lon="0.25317">
        <ele>25.3</ele>
        <time>2023-09-03T07:29:27Z</time>
      </trkpt>
      <trkpt lat="49.40924" lon="0.25312">
        <ele>25.3</ele>
        <time>2023-09-03T07:29:28Z</time>
      </trkpt>
      <trkpt lat="49.40925" lon="0.25307">
        <ele>25.4</ele>
        <time>2023-09-03T07:29:29Z</time>
      </trkpt>
      <trkpt lat="49.40926" lon="0.25302">
        <ele>25.4</ele>
        <time>2023-09-03T07:29:30Z</time>
      </trkpt>
      <trkpt lat="49.40928" lon="0.25296">
        <ele>25.4</ele>
        <time>2023-09-03T07:29:31Z</time>
      </trkpt>
      <trkpt lat="49.40929" lon="0.2529">
        <ele>25.4</ele>
        <time>2023-09-03T07:29:32Z</time>
      </trkpt>
      <trkpt lat="49.4093" lon="0.25283">
        <ele>25.4</ele>
        <time>2023-09-03T07:29:33Z</time>
      </trkpt>
      <trkpt lat="49.40932" lon="0.25276">
        <ele>25.4</ele>
        <time>2023-09-03T07:29:34Z</time>
      </trkpt>
      <trkpt lat="49.40933" lon="0.25268">
        <ele>25.4</ele>
        <time>2023-09-03T07:29:35Z</time>
      </trkpt>
      <trkpt lat="49.40933" lon="0.2526">
        <ele>25.4</ele>
        <time>2023-09-03T07:29:36Z</time>
      </trkpt>
      <trkpt lat="49.40934" lon="0.25253">
        <ele>25.4</ele>
        <time>2023-09-03T07:29:37Z</time>
      </trkpt>
      <trkpt lat="49.40936" lon="0.25245">
        <ele>25.4</ele>
        <time>2023-09-03T07:29:38Z</time>
      </trkpt>
      <trkpt lat="49.40936" lon="0.25236">
        <ele>25.4</ele>
        <time>2023-09-03T07:29:39Z</time>
      </trkpt>
      <trkpt lat="49.40937" lon="0.25228">
        <ele>25.4</ele>
        <time>2023-09-03T07:29:40Z</time>
      </trkpt>
      <trkpt lat="49.40938" lon="0.2522">
        <ele>25.4</ele>
        <time>2023-09-03T07:29:41Z</time>
      </trkpt>
      <trkpt lat="49.40938" lon="0.25213">
        <ele>25.4</ele>
        <time>2023-09-03T07:29:42Z</time>
      </trkpt>
      <trkpt lat="49.40939" lon="0.25206">
        <ele>25.4</ele>
        <time>2023-09-03T07:29:43Z</time>
      </trkpt>
      <trkpt lat="49.4094" lon="0.25199">
        <ele>25.3</ele>
        <time>2023-09-03T07:29:44Z</time>
      </trkpt>
      <trkpt lat="49.4094" lon="0.25191">
        <ele>25.3</ele>
        <time>2023-09-03T07:29:45Z</time>
      </trkpt>
      <trkpt lat="49.40942" lon="0.25184">
        <ele>25.3</ele>
        <time>2023-09-03T07:29:46Z</time>
      </trkpt>
      <trkpt lat="49.40944" lon="0.25178">
        <ele>25.2</ele>
        <time>2023-09-03T07:29:47Z</time>
      </trkpt>
      <trkpt lat="49.40948" lon="0.25173">
        <ele>25.1</ele>
        <time>2023-09-03T07:29:48Z</time>
      </trkpt>
      <trkpt lat="49.40953" lon="0.25172">
        <ele>24.1</ele>
        <time>2023-09-03T07:29:49Z</time>
      </trkpt>
      <trkpt lat="49.4096" lon="0.25172">
        <ele>23.6</ele>
        <time>2023-09-03T07:29:50Z</time>
      </trkpt>
      <trkpt lat="49.40966" lon="0.25173">
        <ele>23</ele>
        <time>2023-09-03T07:29:51Z</time>
      </trkpt>
      <trkpt lat="49.40973" lon="0.25176">
        <ele>22.4</ele>
        <time>2023-09-03T07:29:52Z</time>
      </trkpt>
      <trkpt lat="49.4098" lon="0.25177">
        <ele>21.7</ele>
        <time>2023-09-03T07:29:53Z</time>
      </trkpt>
      <trkpt lat="49.40988" lon="0.25179">
        <ele>21.1</ele>
        <time>2023-09-03T07:29:54Z</time>
      </trkpt>
      <trkpt lat="49.40996" lon="0.2518">
        <ele>20.6</ele>
        <time>2023-09-03T07:29:55Z</time>
      </trkpt>
      <trkpt lat="49.41003" lon="0.25182">
        <ele>20</ele>
        <time>2023-09-03T07:29:56Z</time>
      </trkpt>
      <trkpt lat="49.41012" lon="0.25184">
        <ele>19.4</ele>
        <time>2023-09-03T07:29:57Z</time>
      </trkpt>
      <trkpt lat="49.41021" lon="0.25186">
        <ele>18.8</ele>
        <time>2023-09-03T07:29:58Z</time>
      </trkpt>
      <trkpt lat="49.4103" lon="0.25187">
        <ele>18.2</ele>
        <time>2023-09-03T07:29:59Z</time>
      </trkpt>
      <trkpt lat="49.4104" lon="0.2519">
        <ele>17.6</ele>
        <time>2023-09-03T07:30:00Z</time>
      </trkpt>
      <trkpt lat="49.41049" lon="0.25192">
        <ele>17</ele>
        <time>2023-09-03T07:30:01Z</time>
      </trkpt>
      <trkpt lat="49.41059" lon="0.25195">
        <ele>16.5</ele>
        <time>2023-09-03T07:30:02Z</time>
      </trkpt>
      <trkpt lat="49.41069" lon="0.25197">
        <ele>15.9</ele>
        <time>2023-09-03T07:30:03Z</time>
      </trkpt>
      <trkpt lat="49.41078" lon="0.25199">
        <ele>15.2</ele>
        <time>2023-09-03T07:30:04Z</time>
      </trkpt>
      <trkpt lat="49.41086" lon="0.25201">
        <ele>14.6</ele>
        <time>2023-09-03T07:30:05Z</time>
      </trkpt>
      <trkpt lat="49.41092" lon="0.25204">
        <ele>14</ele>
        <time>2023-09-03T07:30:06Z</time>
      </trkpt>
      <trkpt lat="49.41099" lon="0.25206">
        <ele>13.6</ele>
        <time>2023-09-03T07:30:07Z</time>
      </trkpt>
      <trkpt lat="49.41105" lon="0.25209">
        <ele>13.2</ele>
        <time>2023-09-03T07:30:08Z</time>
      </trkpt>
      <trkpt lat="49.4111" lon="0.25211">
        <ele>12.8</ele>
        <time>2023-09-03T07:30:09Z</time>
      </trkpt>
      <trkpt lat="49.41116" lon="0.25213">
        <ele>12.5</ele>
        <time>2023-09-03T07:30:10Z</time>
      </trkpt>
      <trkpt lat="49.41121" lon="0.25215">
        <ele>12.2</ele>
        <time>2023-09-03T07:30:11Z</time>
      </trkpt>
      <trkpt lat="49.41126" lon="0.25218">
        <ele>11.8</ele>
        <time>2023-09-03T07:30:12Z</time>
      </trkpt>
      <trkpt lat="49.4113" lon="0.2522">
        <ele>11.5</ele>
        <time>2023-09-03T07:30:13Z</time>
      </trkpt>
      <trkpt lat="49.41134" lon="0.25223">
        <ele>11.1</ele>
        <time>2023-09-03T07:30:14Z</time>
      </trkpt>
      <trkpt lat="49.41137" lon="0.25226">
        <ele>10.8</ele>
        <time>2023-09-03T07:30:15Z</time>
      </trkpt>
      <trkpt lat="49.4114" lon="0.2523">
        <ele>10.5</ele>
        <time>2023-09-03T07:30:16Z</time>
      </trkpt>
      <trkpt lat="49.41142" lon="0.25235">
        <ele>10.4</ele>
        <time>2023-09-03T07:30:17Z</time>
      </trkpt>
      <trkpt lat="49.41144" lon="0.2524">
        <ele>10.4</ele>
        <time>2023-09-03T07:30:18Z</time>
      </trkpt>
      <trkpt lat="49.41145" lon="0.25246">
        <ele>10.4</ele>
        <time>2023-09-03T07:30:19Z</time>
      </trkpt>
      <trkpt lat="49.41146" lon="0.25252">
        <ele>10.3</ele>
        <time>2023-09-03T07:30:20Z</time>
      </trkpt>
      <trkpt lat="49.41147" lon="0.25259">
        <ele>10.3</ele>
        <time>2023-09-03T07:30:21Z</time>
      </trkpt>
      <trkpt lat="49.41147" lon="0.25266">
        <ele>10.2</ele>
        <time>2023-09-03T07:30:22Z</time>
      </trkpt>
      <trkpt lat="49.41146" lon="0.25275">
        <ele>10.2</ele>
        <time>2023-09-03T07:30:23Z</time>
      </trkpt>
      <trkpt lat="49.41145" lon="0.25283">
        <ele>10.1</ele>
        <time>2023-09-03T07:30:24Z</time>
      </trkpt>
      <trkpt lat="49.41143" lon="0.25291">
        <ele>10.1</ele>
        <time>2023-09-03T07:30:25Z</time>
      </trkpt>
      <trkpt lat="49.4114" lon="0.25298">
        <ele>10</ele>
        <time>2023-09-03T07:30:26Z</time>
      </trkpt>
      <trkpt lat="49.41137" lon="0.25306">
        <ele>10</ele>
        <time>2023-09-03T07:30:27Z</time>
      </trkpt>
      <trkpt lat="49.41134" lon="0.25313">
        <ele>10</ele>
        <time>2023-09-03T07:30:28Z</time>
      </trkpt>
      <trkpt lat="49.41132" lon="0.2532">
        <ele>10</ele>
        <time>2023-09-03T07:30:29Z</time>
      </trkpt>
      <trkpt lat="49.4113" lon="0.25327">
        <ele>10</ele>
        <time>2023-09-03T07:30:30Z</time>
      </trkpt>
      <trkpt lat="49.41127" lon="0.25334">
        <ele>10</ele>
        <time>2023-09-03T07:30:31Z</time>
      </trkpt>
      <trkpt lat="49.41125" lon="0.25341">
        <ele>10</ele>
        <time>2023-09-03T07:30:32Z</time>
      </trkpt>
      <trkpt lat="49.41123" lon="0.25349">
        <ele>10</ele>
        <time>2023-09-03T07:30:33Z</time>
      </trkpt>
      <trkpt lat="49.41121" lon="0.25356">
        <ele>10</ele>
        <time>2023-09-03T07:30:34Z</time>
      </trkpt>
      <trkpt lat="49.41119" lon="0.25362">
        <ele>10</ele>
        <time>2023-09-03T07:30:35Z</time>
      </trkpt>
      <trkpt lat="49.41117" lon="0.25368">
        <ele>10</ele>
        <time>2023-09-03T07:30:36Z</time>
      </trkpt>
      <trkpt lat="49.41115" lon="0.25375">
        <ele>10</ele>
        <time>2023-09-03T07:30:37Z</time>
      </trkpt>
      <trkpt lat="49.41113" lon="0.25382">
        <ele>10</ele>
        <time>2023-09-03T07:30:38Z</time>
      </trkpt>
      <trkpt lat="49.4111" lon="0.2539">
        <ele>9.9</ele>
        <time>2023-09-03T07:30:39Z</time>
      </trkpt>
      <trkpt lat="49.41108" lon="0.25398">
        <ele>9.9</ele>
        <time>2023-09-03T07:30:40Z</time>
      </trkpt>
      <trkpt lat="49.41106" lon="0.25406">
        <ele>9.9</ele>
        <time>2023-09-03T07:30:41Z</time>
      </trkpt>
      <trkpt lat="49.41103" lon="0.25415">
        <ele>9.9</ele>
        <time>2023-09-03T07:30:42Z</time>
      </trkpt>
      <trkpt lat="49.41101" lon="0.25425">
        <ele>9.9</ele>
        <time>2023-09-03T07:30:43Z</time>
      </trkpt>
      <trkpt lat="49.41098" lon="0.25435">
        <ele>9.8</ele>
        <time>2023-09-03T07:30:44Z</time>
      </trkpt>
      <trkpt lat="49.41095" lon="0.25445">
        <ele>9.8</ele>
        <time>2023-09-03T07:30:45Z</time>
      </trkpt>
      <trkpt lat="49.41093" lon="0.25456">
        <ele>9.8</ele>
        <time>2023-09-03T07:30:46Z</time>
      </trkpt>
      <trkpt lat="49.4109" lon="0.25467">
        <ele>9.7</ele>
        <time>2023-09-03T07:30:47Z</time>
      </trkpt>
      <trkpt lat="49.41087" lon="0.25478">
        <ele>9.7</ele>
        <time>2023-09-03T07:30:48Z</time>
      </trkpt>
      <trkpt lat="49.41085" lon="0.25489">
        <ele>9.6</ele>
        <time>2023-09-03T07:30:49Z</time>
      </trkpt>
      <trkpt lat="49.41083" lon="0.25499">
        <ele>9.4</ele>
        <time>2023-09-03T07:30:50Z</time>
      </trkpt>
      <trkpt lat="49.41081" lon="0.2551">
        <ele>9.3</ele>
        <time>2023-09-03T07:30:51Z</time>
      </trkpt>
      <trkpt lat="49.4108" lon="0.25521">
        <ele>9.2</ele>
        <time>2023-09-03T07:30:52Z</time>
      </trkpt>
      <trkpt lat="49.41078" lon="0.25532">
        <ele>9.1</ele>
        <time>2023-09-03T07:30:53Z</time>
      </trkpt>
      <trkpt lat="49.41077" lon="0.25543">
        <ele>9</ele>
        <time>2023-09-03T07:30:54Z</time>
      </trkpt>
      <trkpt lat="49.41077" lon="0.25554">
        <ele>8.9</ele>
        <time>2023-09-03T07:30:55Z</time>
      </trkpt>
      <trkpt lat="49.41076" lon="0.25565">
        <ele>8.8</ele>
        <time>2023-09-03T07:30:56Z</time>
      </trkpt>
      <trkpt lat="49.41076" lon="0.25576">
        <ele>8.7</ele>
        <time>2023-09-03T07:30:57Z</time>
      </trkpt>
      <trkpt lat="49.41076" lon="0.25587">
        <ele>8.6</ele>
        <time>2023-09-03T07:30:58Z</time>
      </trkpt>
      <trkpt lat="49.41076" lon="0.25599">
        <ele>8.4</ele>
        <time>2023-09-03T07:30:59Z</time>
      </trkpt>
      <trkpt lat="49.41076" lon="0.2561">
        <ele>8.3</ele>
        <time>2023-09-03T07:31:00Z</time>
      </trkpt>
      <trkpt lat="49.41077" lon="0.25621">
        <ele>8.1</ele>
        <time>2023-09-03T07:31:01Z</time>
      </trkpt>
      <trkpt lat="49.41078" lon="0.25632">
        <ele>8</ele>
        <time>2023-09-03T07:31:02Z</time>
      </trkpt>
      <trkpt lat="49.41079" lon="0.25643">
        <ele>7.8</ele>
        <time>2023-09-03T07:31:03Z</time>
      </trkpt>
      <trkpt lat="49.4108" lon="0.25654">
        <ele>7.5</ele>
        <time>2023-09-03T07:31:04Z</time>
      </trkpt>
      <trkpt lat="49.41082" lon="0.25665">
        <ele>7.3</ele>
        <time>2023-09-03T07:31:05Z</time>
      </trkpt>
      <trkpt lat="49.41084" lon="0.25676">
        <ele>7.1</ele>
        <time>2023-09-03T07:31:06Z</time>
      </trkpt>
      <trkpt lat="49.41087" lon="0.25688">
        <ele>7</ele>
        <time>2023-09-03T07:31:07Z</time>
      </trkpt>
      <trkpt lat="49.41089" lon="0.25699">
        <ele>7</ele>
        <time>2023-09-03T07:31:08Z</time>
      </trkpt>
      <trkpt lat="49.41091" lon="0.2571">
        <ele>6.7</ele>
        <time>2023-09-03T07:31:09Z</time>
      </trkpt>
      <trkpt lat="49.41094" lon="0.25721">
        <ele>6.5</ele>
        <time>2023-09-03T07:31:10Z</time>
      </trkpt>
      <trkpt lat="49.41096" lon="0.25732">
        <ele>6.3</ele>
        <time>2023-09-03T07:31:11Z</time>
      </trkpt>
      <trkpt lat="49.41099" lon="0.25742">
        <ele>6.1</ele>
        <time>2023-09-03T07:31:12Z</time>
      </trkpt>
      <trkpt lat="49.41102" lon="0.25753">
        <ele>5.9</ele>
        <time>2023-09-03T07:31:13Z</time>
      </trkpt>
      <trkpt lat="49.41104" lon="0.25765">
        <ele>5.7</ele>
        <time>2023-09-03T07:31:14Z</time>
      </trkpt>
      <trkpt lat="49.41107" lon="0.25777">
        <ele>5.5</ele>
        <time>2023-09-03T07:31:15Z</time>
      </trkpt>
      <trkpt lat="49.41109" lon="0.25788">
        <ele>5.4</ele>
        <time>2023-09-03T07:31:16Z</time>
      </trkpt>
      <trkpt lat="49.41112" lon="0.258">
        <ele>5.3</ele>
        <time>2023-09-03T07:31:17Z</time>
      </trkpt>
      <trkpt lat="49.41114" lon="0.25811">
        <ele>5.2</ele>
        <time>2023-09-03T07:31:18Z</time>
      </trkpt>
      <trkpt lat="49.41116" lon="0.25822">
        <ele>5.1</ele>
        <time>2023-09-03T07:31:19Z</time>
      </trkpt>
      <trkpt lat="49.41118" lon="0.25834">
        <ele>5.1</ele>
        <time>2023-09-03T07:31:20Z</time>
      </trkpt>
      <trkpt lat="49.4112" lon="0.25846">
        <ele>5.2</ele>
        <time>2023-09-03T07:31:21Z</time>
      </trkpt>
      <trkpt lat="49.41121" lon="0.25857">
        <ele>5.2</ele>
        <time>2023-09-03T07:31:22Z</time>
      </trkpt>
      <trkpt lat="49.41121" lon="0.25869">
        <ele>5.2</ele>
        <time>2023-09-03T07:31:23Z</time>
      </trkpt>
      <trkpt lat="49.41121" lon="0.2588">
        <ele>5.3</ele>
        <time>2023-09-03T07:31:24Z</time>
      </trkpt>
      <trkpt lat="49.41119" lon="0.25891">
        <ele>5.2</ele>
        <time>2023-09-03T07:31:25Z</time>
      </trkpt>
      <trkpt lat="49.41118" lon="0.25902">
        <ele>5.2</ele>
        <time>2023-09-03T07:31:26Z</time>
      </trkpt>
      <trkpt lat="49.41117" lon="0.25913">
        <ele>5.2</ele>
        <time>2023-09-03T07:31:27Z</time>
      </trkpt>
      <trkpt lat="49.41118" lon="0.25925">
        <ele>5.2</ele>
        <time>2023-09-03T07:31:28Z</time>
      </trkpt>
      <trkpt lat="49.41121" lon="0.25935">
        <ele>5.2</ele>
        <time>2023-09-03T07:31:29Z</time>
      </trkpt>
      <trkpt lat="49.41127" lon="0.25944">
        <ele>5.2</ele>
        <time>2023-09-03T07:31:30Z</time>
      </trkpt>
      <trkpt lat="49.41133" lon="0.2595">
        <ele>5.3</ele>
        <time>2023-09-03T07:31:31Z</time>
      </trkpt>
      <trkpt lat="49.4114" lon="0.25952">
        <ele>5.2</ele>
        <time>2023-09-03T07:31:32Z</time>
      </trkpt>
      <trkpt lat="49.41147" lon="0.25952">
        <ele>5.2</ele>
        <time>2023-09-03T07:31:33Z</time>
      </trkpt>
      <trkpt lat="49.41153" lon="0.2595">
        <ele>5.2</ele>
        <time>2023-09-03T07:31:34Z</time>
      </trkpt>
      <trkpt lat="49.41159" lon="0.25945">
        <ele>5.1</ele>
        <time>2023-09-03T07:31:35Z</time>
      </trkpt>
      <trkpt lat="49.41164" lon="0.25939">
        <ele>5.1</ele>
        <time>2023-09-03T07:31:36Z</time>
      </trkpt>
      <trkpt lat="49.41168" lon="0.25933">
        <ele>5.2</ele>
        <time>2023-09-03T07:31:37Z</time>
      </trkpt>
      <trkpt lat="49.41173" lon="0.25927">
        <ele>5.2</ele>
        <time>2023-09-03T07:31:38Z</time>
      </trkpt>
      <trkpt lat="49.41178" lon="0.25921">
        <ele>5.3</ele>
        <time>2023-09-03T07:31:39Z</time>
      </trkpt>
      <trkpt lat="49.41184" lon="0.25916">
        <ele>5.4</ele>
        <time>2023-09-03T07:31:40Z</time>
      </trkpt>
      <trkpt lat="49.4119" lon="0.25913">
        <ele>5.4</ele>
        <time>2023-09-03T07:31:41Z</time>
      </trkpt>
      <trkpt lat="49.41197" lon="0.25911">
        <ele>5.5</ele>
        <time>2023-09-03T07:31:42Z</time>
      </trkpt>
      <trkpt lat="49.41204" lon="0.2591">
        <ele>5.5</ele>
        <time>2023-09-03T07:31:43Z</time>
      </trkpt>
      <trkpt lat="49.4121" lon="0.2591">
        <ele>5.6</ele>
        <time>2023-09-03T07:31:44Z</time>
      </trkpt>
      <trkpt lat="49.41217" lon="0.2591">
        <ele>5.6</ele>
        <time>2023-09-03T07:31:45Z</time>
      </trkpt>
      <trkpt lat="49.41224" lon="0.2591">
        <ele>5.6</ele>
        <time>2023-09-03T07:31:46Z</time>
      </trkpt>
      <trkpt lat="49.41231" lon="0.25909">
        <ele>5.7</ele>
        <time>2023-09-03T07:31:47Z</time>
      </trkpt>
      <trkpt lat="49.41238" lon="0.25909">
        <ele>5.7</ele>
        <time>2023-09-03T07:31:48Z</time>
      </trkpt>
      <trkpt lat="49.41245" lon="0.25908">
        <ele>5.7</ele>
        <time>2023-09-03T07:31:49Z</time>
      </trkpt>
      <trkpt lat="49.41252" lon="0.25908">
        <ele>5.8</ele>
        <time>2023-09-03T07:31:50Z</time>
      </trkpt>
      <trkpt lat="49.41259" lon="0.25908">
        <ele>5.8</ele>
        <time>2023-09-03T07:31:51Z</time>
      </trkpt>
      <trkpt lat="49.41266" lon="0.25908">
        <ele>5.8</ele>
        <time>2023-09-03T07:31:52Z</time>
      </trkpt>
      <trkpt lat="49.41273" lon="0.25908">
        <ele>5.8</ele>
        <time>2023-09-03T07:31:53Z</time>
      </trkpt>
      <trkpt lat="49.4128" lon="0.25908">
        <ele>5.9</ele>
        <time>2023-09-03T07:31:54Z</time>
      </trkpt>
      <trkpt lat="49.41287" lon="0.25908">
        <ele>5.9</ele>
        <time>2023-09-03T07:31:55Z</time>
      </trkpt>
      <trkpt lat="49.41294" lon="0.25908">
        <ele>5.9</ele>
        <time>2023-09-03T07:31:56Z</time>
      </trkpt>
      <trkpt lat="49.413" lon="0.25908">
        <ele>5.9</ele>
        <time>2023-09-03T07:31:57Z</time>
      </trkpt>
      <trkpt lat="49.41307" lon="0.25908">
        <ele>5.9</ele>
        <time>2023-09-03T07:31:58Z</time>
      </trkpt>
      <trkpt lat="49.41313" lon="0.25908">
        <ele>5.9</ele>
        <time>2023-09-03T07:31:59Z</time>
      </trkpt>
      <trkpt lat="49.41319" lon="0.25909">
        <ele>5.9</ele>
        <time>2023-09-03T07:32:00Z</time>
      </trkpt>
      <trkpt lat="49.41326" lon="0.2591">
        <ele>5.9</ele>
        <time>2023-09-03T07:32:01Z</time>
      </trkpt>
      <trkpt lat="49.41333" lon="0.2591">
        <ele>5.9</ele>
        <time>2023-09-03T07:32:02Z</time>
      </trkpt>
      <trkpt lat="49.4134" lon="0.25911">
        <ele>5.9</ele>
        <time>2023-09-03T07:32:03Z</time>
      </trkpt>
      <trkpt lat="49.41346" lon="0.25912">
        <ele>5.9</ele>
        <time>2023-09-03T07:32:04Z</time>
      </trkpt>
      <trkpt lat="49.41353" lon="0.25912">
        <ele>5.9</ele>
        <time>2023-09-03T07:32:05Z</time>
      </trkpt>
      <trkpt lat="49.41361" lon="0.25913">
        <ele>6</ele>
        <time>2023-09-03T07:32:06Z</time>
      </trkpt>
      <trkpt lat="49.41368" lon="0.25914">
        <ele>6</ele>
        <time>2023-09-03T07:32:07Z</time>
      </trkpt>
      <trkpt lat="49.41375" lon="0.25915">
        <ele>6</ele>
        <time>2023-09-03T07:32:08Z</time>
      </trkpt>
      <trkpt lat="49.41383" lon="0.25917">
        <ele>6</ele>
        <time>2023-09-03T07:32:09Z</time>
      </trkpt>
      <trkpt lat="49.41391" lon="0.25918">
        <ele>6.1</ele>
        <time>2023-09-03T07:32:10Z</time>
      </trkpt>
      <trkpt lat="49.41398" lon="0.2592">
        <ele>6.1</ele>
        <time>2023-09-03T07:32:11Z</time>
      </trkpt>
      <trkpt lat="49.41406" lon="0.25921">
        <ele>6.2</ele>
        <time>2023-09-03T07:32:12Z</time>
      </trkpt>
      <trkpt lat="49.41413" lon="0.25922">
        <ele>6.2</ele>
        <time>2023-09-03T07:32:13Z</time>
      </trkpt>
      <trkpt lat="49.41421" lon="0.25923">
        <ele>6.2</ele>
        <time>2023-09-03T07:32:14Z</time>
      </trkpt>
      <trkpt lat="49.41429" lon="0.25924">
        <ele>6.2</ele>
        <time>2023-09-03T07:32:15Z</time>
      </trkpt>
      <trkpt lat="49.41437" lon="0.25925">
        <ele>6.2</ele>
        <time>2023-09-03T07:32:16Z</time>
      </trkpt>
      <trkpt lat="49.41444" lon="0.25926">
        <ele>6.2</ele>
        <time>2023-09-03T07:32:17Z</time>
      </trkpt>
      <trkpt lat="49.41452" lon="0.25927">
        <ele>6.2</ele>
        <time>2023-09-03T07:32:18Z</time>
      </trkpt>
      <trkpt lat="49.4146" lon="0.25928">
        <ele>6.2</ele>
        <time>2023-09-03T07:32:19Z</time>
      </trkpt>
      <trkpt lat="49.41468" lon="0.25929">
        <ele>6.2</ele>
        <time>2023-09-03T07:32:20Z</time>
      </trkpt>
      <trkpt lat="49.41476" lon="0.2593">
        <ele>6.2</ele>
        <time>2023-09-03T07:32:21Z</time>
      </trkpt>
      <trkpt lat="49.41484" lon="0.25931">
        <ele>6.1</ele>
        <time>2023-09-03T07:32:22Z</time>
      </trkpt>
      <trkpt lat="49.41492" lon="0.25932">
        <ele>6.1</ele>
        <time>2023-09-03T07:32:23Z</time>
      </trkpt>
      <trkpt lat="49.41501" lon="0.25933">
        <ele>6.1</ele>
        <time>2023-09-03T07:32:24Z</time>
      </trkpt>
      <trkpt lat="49.41509" lon="0.25934">
        <ele>6.1</ele>
        <time>2023-09-03T07:32:25Z</time>
      </trkpt>
      <trkpt lat="49.41517" lon="0.25935">
        <ele>6.1</ele>
        <time>2023-09-03T07:32:26Z</time>
      </trkpt>
      <trkpt lat="49.41525" lon="0.25936">
        <ele>6</ele>
        <time>2023-09-03T07:32:27Z</time>
      </trkpt>
      <trkpt lat="49.41534" lon="0.25937">
        <ele>6</ele>
        <time>2023-09-03T07:32:28Z</time>
      </trkpt>
      <trkpt lat="49.41542" lon="0.25937">
        <ele>6.1</ele>
        <time>2023-09-03T07:32:29Z</time>
      </trkpt>
      <trkpt lat="49.4155" lon="0.25939">
        <ele>6.1</ele>
        <time>2023-09-03T07:32:30Z</time>
      </trkpt>
      <trkpt lat="49.41558" lon="0.2594">
        <ele>6</ele>
        <time>2023-09-03T07:32:31Z</time>
      </trkpt>
      <trkpt lat="49.41566" lon="0.25942">
        <ele>6</ele>
        <time>2023-09-03T07:32:32Z</time>
      </trkpt>
      <trkpt lat="49.41574" lon="0.25944">
        <ele>6.1</ele>
        <time>2023-09-03T07:32:33Z</time>
      </trkpt>
      <trkpt lat="49.41582" lon="0.25946">
        <ele>6.1</ele>
        <time>2023-09-03T07:32:34Z</time>
      </trkpt>
      <trkpt lat="49.4159" lon="0.25948">
        <ele>6.1</ele>
        <time>2023-09-03T07:32:35Z</time>
      </trkpt>
      <trkpt lat="49.41599" lon="0.2595">
        <ele>6.1</ele>
        <time>2023-09-03T07:32:36Z</time>
      </trkpt>
      <trkpt lat="49.41608" lon="0.25951">
        <ele>6.1</ele>
        <time>2023-09-03T07:32:37Z</time>
      </trkpt>
      <trkpt lat="49.41616" lon="0.25953">
        <ele>6.1</ele>
        <time>2023-09-03T07:32:38Z</time>
      </trkpt>
      <trkpt lat="49.41625" lon="0.25954">
        <ele>6.2</ele>
        <time>2023-09-03T07:32:39Z</time>
      </trkpt>
      <trkpt lat="49.41634" lon="0.25956">
        <ele>6.2</ele>
        <time>2023-09-03T07:32:40Z</time>
      </trkpt>
      <trkpt lat="49.41643" lon="0.25958">
        <ele>6.2</ele>
        <time>2023-09-03T07:32:41Z</time>
      </trkpt>
      <trkpt lat="49.41652" lon="0.25959">
        <ele>6.2</ele>
        <time>2023-09-03T07:32:42Z</time>
      </trkpt>
      <trkpt lat="49.41661" lon="0.2596">
        <ele>6.2</ele>
        <time>2023-09-03T07:32:43Z</time>
      </trkpt>
      <trkpt lat="49.41669" lon="0.25961">
        <ele>6.2</ele>
        <time>2023-09-03T07:32:44Z</time>
      </trkpt>
      <trkpt lat="49.41678" lon="0.25962">
        <ele>6.2</ele>
        <time>2023-09-03T07:32:45Z</time>
      </trkpt>
      <trkpt lat="49.41686" lon="0.25962">
        <ele>6.2</ele>
        <time>2023-09-03T07:32:46Z</time>
      </trkpt>
      <trkpt lat="49.41694" lon="0.25963">
        <ele>6.2</ele>
        <time>2023-09-03T07:32:47Z</time>
      </trkpt>
      <trkpt lat="49.41703" lon="0.25964">
        <ele>6.2</ele>
        <time>2023-09-03T07:32:48Z</time>
      </trkpt>
      <trkpt lat="49.41711" lon="0.25965">
        <ele>6.2</ele>
        <time>2023-09-03T07:32:49Z</time>
      </trkpt>
      <trkpt lat="49.41719" lon="0.25966">
        <ele>6.2</ele>
        <time>2023-09-03T07:32:50Z</time>
      </trkpt>
      <trkpt lat="49.41728" lon="0.25967">
        <ele>6.2</ele>
        <time>2023-09-03T07:32:51Z</time>
      </trkpt>
      <trkpt lat="49.41736" lon="0.25968">
        <ele>6.3</ele>
        <time>2023-09-03T07:32:52Z</time>
      </trkpt>
      <trkpt lat="49.41744" lon="0.25969">
        <ele>6.3</ele>
        <time>2023-09-03T07:32:53Z</time>
      </trkpt>
      <trkpt lat="49.41753" lon="0.25969">
        <ele>6.3</ele>
        <time>2023-09-03T07:32:54Z</time>
      </trkpt>
      <trkpt lat="49.41761" lon="0.2597">
        <ele>6.3</ele>
        <time>2023-09-03T07:32:55Z</time>
      </trkpt>
      <trkpt lat="49.41769" lon="0.2597">
        <ele>6.3</ele>
        <time>2023-09-03T07:32:56Z</time>
      </trkpt>
      <trkpt lat="49.41777" lon="0.25971">
        <ele>6.4</ele>
        <time>2023-09-03T07:32:57Z</time>
      </trkpt>
      <trkpt lat="49.41784" lon="0.25972">
        <ele>6.4</ele>
        <time>2023-09-03T07:32:58Z</time>
      </trkpt>
      <trkpt lat="49.41791" lon="0.25973">
        <ele>6.3</ele>
        <time>2023-09-03T07:32:59Z</time>
      </trkpt>
      <trkpt lat="49.41797" lon="0.25975">
        <ele>6.3</ele>
        <time>2023-09-03T07:33:00Z</time>
      </trkpt>
      <trkpt lat="49.41803" lon="0.25975">
        <ele>6.3</ele>
        <time>2023-09-03T07:33:01Z</time>
      </trkpt>
      <trkpt lat="49.41808" lon="0.25976">
        <ele>6.3</ele>
        <time>2023-09-03T07:33:02Z</time>
      </trkpt>
      <trkpt lat="49.41813" lon="0.25976">
        <ele>6.3</ele>
        <time>2023-09-03T07:33:03Z</time>
      </trkpt>
      <trkpt lat="49.41817" lon="0.25977">
        <ele>6.3</ele>
        <time>2023-09-03T07:33:04Z</time>
      </trkpt>
      <trkpt lat="49.41821" lon="0.25978">
        <ele>6.3</ele>
        <time>2023-09-03T07:33:05Z</time>
      </trkpt>
      <trkpt lat="49.41824" lon="0.25981">
        <ele>6.3</ele>
        <time>2023-09-03T07:33:06Z</time>
      </trkpt>
      <trkpt lat="49.41827" lon="0.25985">
        <ele>6</ele>
        <time>2023-09-03T07:33:07Z</time>
      </trkpt>
      <trkpt lat="49.41828" lon="0.25991">
        <ele>5.9</ele>
        <time>2023-09-03T07:33:08Z</time>
      </trkpt>
      <trkpt lat="49.41828" lon="0.25998">
        <ele>5.7</ele>
        <time>2023-09-03T07:33:09Z</time>
      </trkpt>
      <trkpt lat="49.41827" lon="0.26006">
        <ele>5.5</ele>
        <time>2023-09-03T07:33:10Z</time>
      </trkpt>
      <trkpt lat="49.41825" lon="0.26014">
        <ele>5.3</ele>
        <time>2023-09-03T07:33:11Z</time>
      </trkpt>
      <trkpt lat="49.41823" lon="0.26022">
        <ele>5.3</ele>
        <time>2023-09-03T07:33:12Z</time>
      </trkpt>
      <trkpt lat="49.41821" lon="0.26031">
        <ele>5.3</ele>
        <time>2023-09-03T07:33:13Z</time>
      </trkpt>
      <trkpt lat="49.4182" lon="0.2604">
        <ele>5.3</ele>
        <time>2023-09-03T07:33:14Z</time>
      </trkpt>
      <trkpt lat="49.41818" lon="0.26049">
        <ele>5.2</ele>
        <time>2023-09-03T07:33:15Z</time>
      </trkpt>
      <trkpt lat="49.41817" lon="0.26058">
        <ele>5.2</ele>
        <time>2023-09-03T07:33:16Z</time>
      </trkpt>
      <trkpt lat="49.41816" lon="0.26068">
        <ele>5.2</ele>
        <time>2023-09-03T07:33:17Z</time>
      </trkpt>
      <trkpt lat="49.41814" lon="0.26079">
        <ele>5.2</ele>
        <time>2023-09-03T07:33:18Z</time>
      </trkpt>
      <trkpt lat="49.41812" lon="0.26089">
        <ele>5.2</ele>
        <time>2023-09-03T07:33:19Z</time>
      </trkpt>
      <trkpt lat="49.4181" lon="0.26099">
        <ele>5.2</ele>
        <time>2023-09-03T07:33:20Z</time>
      </trkpt>
      <trkpt lat="49.41808" lon="0.26109">
        <ele>5.2</ele>
        <time>2023-09-03T07:33:21Z</time>
      </trkpt>
      <trkpt lat="49.41807" lon="0.2612">
        <ele>5.1</ele>
        <time>2023-09-03T07:33:22Z</time>
      </trkpt>
      <trkpt lat="49.41805" lon="0.2613">
        <ele>5.1</ele>
        <time>2023-09-03T07:33:23Z</time>
      </trkpt>
      <trkpt lat="49.41803" lon="0.26139">
        <ele>5.1</ele>
        <time>2023-09-03T07:33:24Z</time>
      </trkpt>
      <trkpt lat="49.41802" lon="0.26149">
        <ele>5.1</ele>
        <time>2023-09-03T07:33:25Z</time>
      </trkpt>
      <trkpt lat="49.418" lon="0.26159">
        <ele>5.1</ele>
        <time>2023-09-03T07:33:26Z</time>
      </trkpt>
      <trkpt lat="49.41799" lon="0.2617">
        <ele>5.1</ele>
        <time>2023-09-03T07:33:27Z</time>
      </trkpt>
      <trkpt lat="49.41798" lon="0.26181">
        <ele>5.1</ele>
        <time>2023-09-03T07:33:28Z</time>
      </trkpt>
      <trkpt lat="49.41796" lon="0.26192">
        <ele>5.1</ele>
        <time>2023-09-03T07:33:29Z</time>
      </trkpt>
      <trkpt lat="49.41794" lon="0.26202">
        <ele>5.1</ele>
        <time>2023-09-03T07:33:30Z</time>
      </trkpt>
      <trkpt lat="49.41793" lon="0.26213">
        <ele>5.1</ele>
        <time>2023-09-03T07:33:31Z</time>
      </trkpt>
      <trkpt lat="49.41791" lon="0.26224">
        <ele>5.1</ele>
        <time>2023-09-03T07:33:32Z</time>
      </trkpt>
      <trkpt lat="49.4179" lon="0.26234">
        <ele>5.1</ele>
        <time>2023-09-03T07:33:33Z</time>
      </trkpt>
      <trkpt lat="49.41788" lon="0.26245">
        <ele>5.1</ele>
        <time>2023-09-03T07:33:34Z</time>
      </trkpt>
      <trkpt lat="49.41787" lon="0.26256">
        <ele>5.1</ele>
        <time>2023-09-03T07:33:35Z</time>
      </trkpt>
      <trkpt lat="49.41785" lon="0.26266">
        <ele>5.1</ele>
        <time>2023-09-03T07:33:36Z</time>
      </trkpt>
      <trkpt lat="49.41783" lon="0.26276">
        <ele>5.1</ele>
        <time>2023-09-03T07:33:37Z</time>
      </trkpt>
      <trkpt lat="49.41781" lon="0.26287">
        <ele>5.1</ele>
        <time>2023-09-03T07:33:38Z</time>
      </trkpt>
      <trkpt lat="49.4178" lon="0.26298">
        <ele>5.1</ele>
        <time>2023-09-03T07:33:39Z</time>
      </trkpt>
      <trkpt lat="49.41778" lon="0.26308">
        <ele>5.1</ele>
        <time>2023-09-03T07:33:40Z</time>
      </trkpt>
      <trkpt lat="49.41776" lon="0.26319">
        <ele>5.1</ele>
        <time>2023-09-03T07:33:41Z</time>
      </trkpt>
      <trkpt lat="49.41775" lon="0.26329">
        <ele>5</ele>
        <time>2023-09-03T07:33:42Z</time>
      </trkpt>
      <trkpt lat="49.41773" lon="0.2634">
        <ele>4.9</ele>
        <time>2023-09-03T07:33:43Z</time>
      </trkpt>
      <trkpt lat="49.41771" lon="0.2635">
        <ele>4.8</ele>
        <time>2023-09-03T07:33:44Z</time>
      </trkpt>
      <trkpt lat="49.41769" lon="0.26361">
        <ele>4.8</ele>
        <time>2023-09-03T07:33:45Z</time>
      </trkpt>
      <trkpt lat="49.41768" lon="0.26372">
        <ele>4.8</ele>
        <time>2023-09-03T07:33:46Z</time>
      </trkpt>
      <trkpt lat="49.41766" lon="0.26383">
        <ele>4.8</ele>
        <time>2023-09-03T07:33:47Z</time>
      </trkpt>
      <trkpt lat="49.41764" lon="0.26394">
        <ele>4.8</ele>
        <time>2023-09-03T07:33:48Z</time>
      </trkpt>
      <trkpt lat="49.41763" lon="0.26405">
        <ele>4.9</ele>
        <time>2023-09-03T07:33:49Z</time>
      </trkpt>
      <trkpt lat="49.41761" lon="0.26415">
        <ele>4.9</ele>
        <time>2023-09-03T07:33:50Z</time>
      </trkpt>
      <trkpt lat="49.41759" lon="0.26426">
        <ele>4.9</ele>
        <time>2023-09-03T07:33:51Z</time>
      </trkpt>
      <trkpt lat="49.41757" lon="0.26437">
        <ele>4.9</ele>
        <time>2023-09-03T07:33:52Z</time>
      </trkpt>
      <trkpt lat="49.41755" lon="0.26448">
        <ele>4.9</ele>
        <time>2023-09-03T07:33:53Z</time>
      </trkpt>
      <trkpt lat="49.41753" lon="0.26459">
        <ele>4.9</ele>
        <time>2023-09-03T07:33:54Z</time>
      </trkpt>
      <trkpt lat="49.41751" lon="0.26471">
        <ele>4.8</ele>
        <time>2023-09-03T07:33:55Z</time>
      </trkpt>
      <trkpt lat="49.41749" lon="0.26482">
        <ele>4.8</ele>
        <time>2023-09-03T07:33:56Z</time>
      </trkpt>
      <trkpt lat="49.41747" lon="0.26493">
        <ele>4.8</ele>
        <time>2023-09-03T07:33:57Z</time>
      </trkpt>
      <trkpt lat="49.41745" lon="0.26504">
        <ele>4.8</ele>
        <time>2023-09-03T07:33:58Z</time>
      </trkpt>
      <trkpt lat="49.41743" lon="0.26515">
        <ele>4.8</ele>
        <time>2023-09-03T07:33:59Z</time>
      </trkpt>
      <trkpt lat="49.41741" lon="0.26526">
        <ele>4.8</ele>
        <time>2023-09-03T07:34:00Z</time>
      </trkpt>
      <trkpt lat="49.41738" lon="0.26537">
        <ele>4.8</ele>
        <time>2023-09-03T07:34:01Z</time>
      </trkpt>
      <trkpt lat="49.41736" lon="0.26548">
        <ele>4.8</ele>
        <time>2023-09-03T07:34:02Z</time>
      </trkpt>
      <trkpt lat="49.41733" lon="0.2656">
        <ele>4.8</ele>
        <time>2023-09-03T07:34:03Z</time>
      </trkpt>
      <trkpt lat="49.41731" lon="0.26571">
        <ele>4.9</ele>
        <time>2023-09-03T07:34:04Z</time>
      </trkpt>
      <trkpt lat="49.4173" lon="0.26582">
        <ele>4.9</ele>
        <time>2023-09-03T07:34:05Z</time>
      </trkpt>
      <trkpt lat="49.41729" lon="0.26593">
        <ele>5</ele>
        <time>2023-09-03T07:34:06Z</time>
      </trkpt>
      <trkpt lat="49.41729" lon="0.26603">
        <ele>5</ele>
        <time>2023-09-03T07:34:07Z</time>
      </trkpt>
      <trkpt lat="49.4173" lon="0.26613">
        <ele>5.1</ele>
        <time>2023-09-03T07:34:08Z</time>
      </trkpt>
      <trkpt lat="49.41731" lon="0.26622">
        <ele>5.1</ele>
        <time>2023-09-03T07:34:09Z</time>
      </trkpt>
      <trkpt lat="49.4173" lon="0.2663">
        <ele>5.1</ele>
        <time>2023-09-03T07:34:10Z</time>
      </trkpt>
      <trkpt lat="49.41729" lon="0.26637">
        <ele>5.2</ele>
        <time>2023-09-03T07:34:11Z</time>
      </trkpt>
      <trkpt lat="49.41726" lon="0.26643">
        <ele>5.3</ele>
        <time>2023-09-03T07:34:12Z</time>
      </trkpt>
      <trkpt lat="49.41722" lon="0.2665">
        <ele>5.3</ele>
        <time>2023-09-03T07:34:13Z</time>
      </trkpt>
      <trkpt lat="49.41719" lon="0.26657">
        <ele>5.2</ele>
        <time>2023-09-03T07:34:14Z</time>
      </trkpt>
      <trkpt lat="49.41719" lon="0.26665">
        <ele>5.2</ele>
        <time>2023-09-03T07:34:15Z</time>
      </trkpt>
      <trkpt lat="49.4172" lon="0.26674">
        <ele>5.2</ele>
        <time>2023-09-03T07:34:16Z</time>
      </trkpt>
      <trkpt lat="49.41725" lon="0.26681">
        <ele>5.2</ele>
        <time>2023-09-03T07:34:17Z</time>
      </trkpt>
      <trkpt lat="49.4173" lon="0.26685">
        <ele>5.2</ele>
        <time>2023-09-03T07:34:18Z</time>
      </trkpt>
      <trkpt lat="49.41736" lon="0.26688">
        <ele>5.2</ele>
        <time>2023-09-03T07:34:19Z</time>
      </trkpt>
      <trkpt lat="49.41742" lon="0.2669">
        <ele>5.1</ele>
        <time>2023-09-03T07:34:20Z</time>
      </trkpt>
      <trkpt lat="49.41748" lon="0.26695">
        <ele>5.1</ele>
        <time>2023-09-03T07:34:21Z</time>
      </trkpt>
      <trkpt lat="49.41754" lon="0.26701">
        <ele>5</ele>
        <time>2023-09-03T07:34:22Z</time>
      </trkpt>
      <trkpt lat="49.41759" lon="0.26709">
        <ele>5</ele>
        <time>2023-09-03T07:34:23Z</time>
      </trkpt>
      <trkpt lat="49.41765" lon="0.26715">
        <ele>5</ele>
        <time>2023-09-03T07:34:24Z</time>
      </trkpt>
      <trkpt lat="49.41771" lon="0.26721">
        <ele>5</ele>
        <time>2023-09-03T07:34:25Z</time>
      </trkpt>
      <trkpt lat="49.41778" lon="0.26724">
        <ele>4.9</ele>
        <time>2023-09-03T07:34:26Z</time>
      </trkpt>
      <trkpt lat="49.41785" lon="0.26727">
        <ele>4.9</ele>
        <time>2023-09-03T07:34:27Z</time>
      </trkpt>
      <trkpt lat="49.41793" lon="0.26729">
        <ele>4.9</ele>
        <time>2023-09-03T07:34:28Z</time>
      </trkpt>
      <trkpt lat="49.418" lon="0.26732">
        <ele>4.9</ele>
        <time>2023-09-03T07:34:29Z</time>
      </trkpt>
      <trkpt lat="49.41808" lon="0.26735">
        <ele>4.9</ele>
        <time>2023-09-03T07:34:30Z</time>
      </trkpt>
      <trkpt lat="49.41815" lon="0.26737">
        <ele>4.9</ele>
        <time>2023-09-03T07:34:31Z</time>
      </trkpt>
      <trkpt lat="49.41822" lon="0.2674">
        <ele>4.9</ele>
        <time>2023-09-03T07:34:32Z</time>
      </trkpt>
      <trkpt lat="49.4183" lon="0.26744">
        <ele>4.9</ele>
        <time>2023-09-03T07:34:33Z</time>
      </trkpt>
      <trkpt lat="49.41837" lon="0.26747">
        <ele>4.9</ele>
        <time>2023-09-03T07:34:34Z</time>
      </trkpt>
      <trkpt lat="49.41844" lon="0.2675">
        <ele>4.9</ele>
        <time>2023-09-03T07:34:35Z</time>
      </trkpt>
      <trkpt lat="49.41852" lon="0.26753">
        <ele>4.9</ele>
        <time>2023-09-03T07:34:36Z</time>
      </trkpt>
      <trkpt lat="49.4186" lon="0.26756">
        <ele>4.9</ele>
        <time>2023-09-03T07:34:37Z</time>
      </trkpt>
      <trkpt lat="49.41867" lon="0.26759">
        <ele>4.8</ele>
        <time>2023-09-03T07:34:38Z</time>
      </trkpt>
      <trkpt lat="49.41875" lon="0.26762">
        <ele>4.8</ele>
        <time>2023-09-03T07:34:39Z</time>
      </trkpt>
      <trkpt lat="49.41882" lon="0.26766">
        <ele>4.8</ele>
        <time>2023-09-03T07:34:40Z</time>
      </trkpt>
      <trkpt lat="49.4189" lon="0.26768">
        <ele>4.8</ele>
        <time>2023-09-03T07:34:41Z</time>
      </trkpt>
      <trkpt lat="49.41897" lon="0.26771">
        <ele>4.8</ele>
        <time>2023-09-03T07:34:42Z</time>
      </trkpt>
      <trkpt lat="49.41905" lon="0.26774">
        <ele>4.8</ele>
        <time>2023-09-03T07:34:43Z</time>
      </trkpt>
      <trkpt lat="49.41913" lon="0.26777">
        <ele>4.9</ele>
        <time>2023-09-03T07:34:44Z</time>
      </trkpt>
      <trkpt lat="49.41921" lon="0.26781">
        <ele>4.9</ele>
        <time>2023-09-03T07:34:45Z</time>
      </trkpt>
      <trkpt lat="49.41928" lon="0.26784">
        <ele>5</ele>
        <time>2023-09-03T07:34:46Z</time>
      </trkpt>
      <trkpt lat="49.41935" lon="0.26787">
        <ele>5.1</ele>
        <time>2023-09-03T07:34:47Z</time>
      </trkpt>
      <trkpt lat="49.41942" lon="0.26789">
        <ele>5.2</ele>
        <time>2023-09-03T07:34:48Z</time>
      </trkpt>
      <trkpt lat="49.41948" lon="0.26791">
        <ele>5.4</ele>
        <time>2023-09-03T07:34:49Z</time>
      </trkpt>
      <trkpt lat="49.41954" lon="0.26795">
        <ele>5.5</ele>
        <time>2023-09-03T07:34:50Z</time>
      </trkpt>
      <trkpt lat="49.41958" lon="0.268">
        <ele>5.6</ele>
        <time>2023-09-03T07:34:51Z</time>
      </trkpt>
      <trkpt lat="49.4196" lon="0.26805">
        <ele>5.6</ele>
        <time>2023-09-03T07:34:52Z</time>
      </trkpt>
      <trkpt lat="49.41961" lon="0.26812">
        <ele>5.5</ele>
        <time>2023-09-03T07:34:53Z</time>
      </trkpt>
      <trkpt lat="49.41961" lon="0.2682">
        <ele>5.5</ele>
        <time>2023-09-03T07:34:54Z</time>
      </trkpt>
      <trkpt lat="49.41961" lon="0.26829">
        <ele>5.4</ele>
        <time>2023-09-03T07:34:55Z</time>
      </trkpt>
      <trkpt lat="49.41959" lon="0.26838">
        <ele>5.4</ele>
        <time>2023-09-03T07:34:56Z</time>
      </trkpt>
      <trkpt lat="49.41958" lon="0.26847">
        <ele>5.4</ele>
        <time>2023-09-03T07:34:57Z</time>
      </trkpt>
      <trkpt lat="49.41957" lon="0.26856">
        <ele>5.4</ele>
        <time>2023-09-03T07:34:58Z</time>
      </trkpt>
      <trkpt lat="49.41956" lon="0.26866">
        <ele>5.4</ele>
        <time>2023-09-03T07:34:59Z</time>
      </trkpt>
      <trkpt lat="49.41955" lon="0.26876">
        <ele>5.3</ele>
        <time>2023-09-03T07:35:00Z</time>
      </trkpt>
      <trkpt lat="49.41954" lon="0.26886">
        <ele>5.3</ele>
        <time>2023-09-03T07:35:01Z</time>
      </trkpt>
      <trkpt lat="49.41953" lon="0.26897">
        <ele>5.3</ele>
        <time>2023-09-03T07:35:02Z</time>
      </trkpt>
      <trkpt lat="49.41953" lon="0.26908">
        <ele>5.3</ele>
        <time>2023-09-03T07:35:03Z</time>
      </trkpt>
      <trkpt lat="49.41952" lon="0.26919">
        <ele>5.3</ele>
        <time>2023-09-03T07:35:04Z</time>
      </trkpt>
      <trkpt lat="49.41952" lon="0.2693">
        <ele>5.3</ele>
        <time>2023-09-03T07:35:05Z</time>
      </trkpt>
      <trkpt lat="49.41951" lon="0.26942">
        <ele>5.4</ele>
        <time>2023-09-03T07:35:06Z</time>
      </trkpt>
      <trkpt lat="49.41951" lon="0.26953">
        <ele>5.4</ele>
        <time>2023-09-03T07:35:07Z</time>
      </trkpt>
      <trkpt lat="49.4195" lon="0.26964">
        <ele>5.4</ele>
        <time>2023-09-03T07:35:08Z</time>
      </trkpt>
      <trkpt lat="49.4195" lon="0.26975">
        <ele>5.4</ele>
        <time>2023-09-03T07:35:09Z</time>
      </trkpt>
      <trkpt lat="49.41949" lon="0.26986">
        <ele>5.4</ele>
        <time>2023-09-03T07:35:10Z</time>
      </trkpt>
      <trkpt lat="49.41948" lon="0.26998">
        <ele>5.5</ele>
        <time>2023-09-03T07:35:11Z</time>
      </trkpt>
      <trkpt lat="49.41947" lon="0.27009">
        <ele>5.5</ele>
        <time>2023-09-03T07:35:12Z</time>
      </trkpt>
      <trkpt lat="49.41947" lon="0.27021">
        <ele>5.5</ele>
        <time>2023-09-03T07:35:13Z</time>
      </trkpt>
      <trkpt lat="49.41946" lon="0.27033">
        <ele>5.5</ele>
        <time>2023-09-03T07:35:14Z</time>
      </trkpt>
      <trkpt lat="49.41946" lon="0.27045">
        <ele>5.5</ele>
        <time>2023-09-03T07:35:15Z</time>
      </trkpt>
      <trkpt lat="49.41945" lon="0.27056">
        <ele>5.5</ele>
        <time>2023-09-03T07:35:16Z</time>
      </trkpt>
      <trkpt lat="49.41945" lon="0.27068">
        <ele>5.5</ele>
        <time>2023-09-03T07:35:17Z</time>
      </trkpt>
      <trkpt lat="49.41944" lon="0.2708">
        <ele>5.5</ele>
        <time>2023-09-03T07:35:18Z</time>
      </trkpt>
      <trkpt lat="49.41943" lon="0.27091">
        <ele>5.6</ele>
        <time>2023-09-03T07:35:19Z</time>
      </trkpt>
      <trkpt lat="49.41942" lon="0.27103">
        <ele>5.6</ele>
        <time>2023-09-03T07:35:20Z</time>
      </trkpt>
      <trkpt lat="49.41941" lon="0.27116">
        <ele>5.6</ele>
        <time>2023-09-03T07:35:21Z</time>
      </trkpt>
      <trkpt lat="49.4194" lon="0.27128">
        <ele>5.7</ele>
        <time>2023-09-03T07:35:22Z</time>
      </trkpt>
      <trkpt lat="49.41938" lon="0.2714">
        <ele>5.7</ele>
        <time>2023-09-03T07:35:23Z</time>
      </trkpt>
      <trkpt lat="49.41937" lon="0.27153">
        <ele>5.7</ele>
        <time>2023-09-03T07:35:24Z</time>
      </trkpt>
      <trkpt lat="49.41937" lon="0.27166">
        <ele>5.7</ele>
        <time>2023-09-03T07:35:25Z</time>
      </trkpt>
      <trkpt lat="49.41936" lon="0.27178">
        <ele>5.7</ele>
        <time>2023-09-03T07:35:26Z</time>
      </trkpt>
      <trkpt lat="49.41935" lon="0.27191">
        <ele>5.7</ele>
        <time>2023-09-03T07:35:27Z</time>
      </trkpt>
      <trkpt lat="49.41934" lon="0.27203">
        <ele>5.7</ele>
        <time>2023-09-03T07:35:28Z</time>
      </trkpt>
      <trkpt lat="49.41933" lon="0.27216">
        <ele>5.7</ele>
        <time>2023-09-03T07:35:29Z</time>
      </trkpt>
      <trkpt lat="49.41933" lon="0.27228">
        <ele>5.7</ele>
        <time>2023-09-03T07:35:30Z</time>
      </trkpt>
      <trkpt lat="49.41932" lon="0.27241">
        <ele>5.7</ele>
        <time>2023-09-03T07:35:31Z</time>
      </trkpt>
      <trkpt lat="49.41931" lon="0.27253">
        <ele>5.7</ele>
        <time>2023-09-03T07:35:32Z</time>
      </trkpt>
      <trkpt lat="49.41931" lon="0.27266">
        <ele>5.7</ele>
        <time>2023-09-03T07:35:33Z</time>
      </trkpt>
      <trkpt lat="49.4193" lon="0.27278">
        <ele>5.7</ele>
        <time>2023-09-03T07:35:34Z</time>
      </trkpt>
      <trkpt lat="49.4193" lon="0.27291">
        <ele>5.7</ele>
        <time>2023-09-03T07:35:35Z</time>
      </trkpt>
      <trkpt lat="49.41929" lon="0.27303">
        <ele>5.7</ele>
        <time>2023-09-03T07:35:36Z</time>
      </trkpt>
      <trkpt lat="49.41929" lon="0.27316">
        <ele>5.7</ele>
        <time>2023-09-03T07:35:37Z</time>
      </trkpt>
      <trkpt lat="49.41928" lon="0.27328">
        <ele>5.7</ele>
        <time>2023-09-03T07:35:38Z</time>
      </trkpt>
      <trkpt lat="49.41928" lon="0.2734">
        <ele>5.7</ele>
        <time>2023-09-03T07:35:39Z</time>
      </trkpt>
      <trkpt lat="49.41927" lon="0.27353">
        <ele>5.7</ele>
        <time>2023-09-03T07:35:40Z</time>
      </trkpt>
      <trkpt lat="49.41926" lon="0.27365">
        <ele>5.7</ele>
        <time>2023-09-03T07:35:41Z</time>
      </trkpt>
      <trkpt lat="49.41925" lon="0.27377">
        <ele>5.8</ele>
        <time>2023-09-03T07:35:42Z</time>
      </trkpt>
      <trkpt lat="49.41924" lon="0.27389">
        <ele>5.8</ele>
        <time>2023-09-03T07:35:43Z</time>
      </trkpt>
      <trkpt lat="49.41923" lon="0.274">
        <ele>5.8</ele>
        <time>2023-09-03T07:35:44Z</time>
      </trkpt>
      <trkpt lat="49.41922" lon="0.27412">
        <ele>5.8</ele>
        <time>2023-09-03T07:35:45Z</time>
      </trkpt>
      <trkpt lat="49.41922" lon="0.27424">
        <ele>5.9</ele>
        <time>2023-09-03T07:35:46Z</time>
      </trkpt>
      <trkpt lat="49.41922" lon="0.27437">
        <ele>5.9</ele>
        <time>2023-09-03T07:35:47Z</time>
      </trkpt>
      <trkpt lat="49.41922" lon="0.27448">
        <ele>5.9</ele>
        <time>2023-09-03T07:35:48Z</time>
      </trkpt>
      <trkpt lat="49.41922" lon="0.27459">
        <ele>5.9</ele>
        <time>2023-09-03T07:35:49Z</time>
      </trkpt>
      <trkpt lat="49.41922" lon="0.2747">
        <ele>5.9</ele>
        <time>2023-09-03T07:35:50Z</time>
      </trkpt>
      <trkpt lat="49.41922" lon="0.2748">
        <ele>5.9</ele>
        <time>2023-09-03T07:35:51Z</time>
      </trkpt>
      <trkpt lat="49.41923" lon="0.27487">
        <ele>5.9</ele>
        <time>2023-09-03T07:35:52Z</time>
      </trkpt>
      <trkpt lat="49.41924" lon="0.27493">
        <ele>5.9</ele>
        <time>2023-09-03T07:35:53Z</time>
      </trkpt>
      <trkpt lat="49.41925" lon="0.27497">
        <ele>5.9</ele>
        <time>2023-09-03T07:35:54Z</time>
      </trkpt>
      <trkpt lat="49.41926" lon="0.27502">
        <ele>5.9</ele>
        <time>2023-09-03T07:35:55Z</time>
      </trkpt>
      <trkpt lat="49.41926" lon="0.27503">
        <ele>5.9</ele>
        <time>2023-09-03T07:35:56Z</time>
      </trkpt>
      <trkpt lat="49.41927" lon="0.27505">
        <ele>5.9</ele>
        <time>2023-09-03T07:35:57Z</time>
      </trkpt>
      <trkpt lat="49.41927" lon="0.27507">
        <ele>5.9</ele>
        <time>2023-09-03T07:35:58Z</time>
      </trkpt>
      <trkpt lat="49.41927" lon="0.2751">
        <ele>5.9</ele>
        <time>2023-09-03T07:35:59Z</time>
      </trkpt>
      <trkpt lat="49.41927" lon="0.27512">
        <ele>5.9</ele>
        <time>2023-09-03T07:36:00Z</time>
      </trkpt>
      <trkpt lat="49.41926" lon="0.27514">
        <ele>5.9</ele>
        <time>2023-09-03T07:36:01Z</time>
      </trkpt>
      <trkpt lat="49.41926" lon="0.27516">
        <ele>5.9</ele>
        <time>2023-09-03T07:36:02Z</time>
      </trkpt>
      <trkpt lat="49.41926" lon="0.27519">
        <ele>5.9</ele>
        <time>2023-09-03T07:36:03Z</time>
      </trkpt>
      <trkpt lat="49.41926" lon="0.27521">
        <ele>5.9</ele>
        <time>2023-09-03T07:36:04Z</time>
      </trkpt>
      <trkpt lat="49.41926" lon="0.27524">
        <ele>5.9</ele>
        <time>2023-09-03T07:36:05Z</time>
      </trkpt>
      <trkpt lat="49.41926" lon="0.27526">
        <ele>5.9</ele>
        <time>2023-09-03T07:36:06Z</time>
      </trkpt>
      <trkpt lat="49.41926" lon="0.27527">
        <ele>5.9</ele>
        <time>2023-09-03T07:36:07Z</time>
      </trkpt>
      <trkpt lat="49.41926" lon="0.27529">
        <ele>6</ele>
        <time>2023-09-03T07:36:08Z</time>
      </trkpt>
      <trkpt lat="49.41926" lon="0.27531">
        <ele>6</ele>
        <time>2023-09-03T07:36:09Z</time>
      </trkpt>
      <trkpt lat="49.41925" lon="0.27533">
        <ele>6</ele>
        <time>2023-09-03T07:36:10Z</time>
      </trkpt>
      <trkpt lat="49.41925" lon="0.27535">
        <ele>6</ele>
        <time>2023-09-03T07:36:11Z</time>
      </trkpt>
      <trkpt lat="49.41924" lon="0.2754">
        <ele>6</ele>
        <time>2023-09-03T07:36:12Z</time>
      </trkpt>
      <trkpt lat="49.41924" lon="0.27542">
        <ele>6</ele>
        <time>2023-09-03T07:36:13Z</time>
      </trkpt>
      <trkpt lat="49.41923" lon="0.27546">
        <ele>6</ele>
        <time>2023-09-03T07:36:14Z</time>
      </trkpt>
      <trkpt lat="49.41923" lon="0.27551">
        <ele>6</ele>
        <time>2023-09-03T07:36:15Z</time>
      </trkpt>
      <trkpt lat="49.41922" lon="0.27555">
        <ele>6</ele>
        <time>2023-09-03T07:36:16Z</time>
      </trkpt>
      <trkpt lat="49.41922" lon="0.2756">
        <ele>6</ele>
        <time>2023-09-03T07:36:17Z</time>
      </trkpt>
      <trkpt lat="49.41923" lon="0.27564">
        <ele>6</ele>
        <time>2023-09-03T07:36:18Z</time>
      </trkpt>
      <trkpt lat="49.41924" lon="0.27568">
        <ele>6</ele>
        <time>2023-09-03T07:36:19Z</time>
      </trkpt>
      <trkpt lat="49.41926" lon="0.27572">
        <ele>6.1</ele>
        <time>2023-09-03T07:36:20Z</time>
      </trkpt>
      <trkpt lat="49.41928" lon="0.27577">
        <ele>6.1</ele>
        <time>2023-09-03T07:36:21Z</time>
      </trkpt>
      <trkpt lat="49.41929" lon="0.2758">
        <ele>6.1</ele>
        <time>2023-09-03T07:36:22Z</time>
      </trkpt>
      <trkpt lat="49.41933" lon="0.27583">
        <ele>6.1</ele>
        <time>2023-09-03T07:36:23Z</time>
      </trkpt>
      <trkpt lat="49.41934" lon="0.27584">
        <ele>6.2</ele>
        <time>2023-09-03T07:36:24Z</time>
      </trkpt>
      <trkpt lat="49.41938" lon="0.27586">
        <ele>6.2</ele>
        <time>2023-09-03T07:36:25Z</time>
      </trkpt>
      <trkpt lat="49.41939" lon="0.27587">
        <ele>6.2</ele>
        <time>2023-09-03T07:36:26Z</time>
      </trkpt>
      <trkpt lat="49.41943" lon="0.27588">
        <ele>6.2</ele>
        <time>2023-09-03T07:36:27Z</time>
      </trkpt>
      <trkpt lat="49.41943" lon="0.27589">
        <ele>6.2</ele>
        <time>2023-09-03T07:36:28Z</time>
      </trkpt>
      <trkpt lat="49.41946" lon="0.2759">
        <ele>6.2</ele>
        <time>2023-09-03T07:36:29Z</time>
      </trkpt>
      <trkpt lat="49.41947" lon="0.2759">
        <ele>6.2</ele>
        <time>2023-09-03T07:36:30Z</time>
      </trkpt>
      <trkpt lat="49.41951" lon="0.27591">
        <ele>6.3</ele>
        <time>2023-09-03T07:36:31Z</time>
      </trkpt>
      <trkpt lat="49.41951" lon="0.27591">
        <ele>6.3</ele>
        <time>2023-09-03T07:36:32Z</time>
      </trkpt>
      <trkpt lat="49.41953" lon="0.27592">
        <ele>6.3</ele>
        <time>2023-09-03T07:36:33Z</time>
      </trkpt>
      <trkpt lat="49.41955" lon="0.27593">
        <ele>6.3</ele>
        <time>2023-09-03T07:36:34Z</time>
      </trkpt>
      <trkpt lat="49.41957" lon="0.27594">
        <ele>6.3</ele>
        <time>2023-09-03T07:36:35Z</time>
      </trkpt>
      <trkpt lat="49.41958" lon="0.27594">
        <ele>6.3</ele>
        <time>2023-09-03T07:36:36Z</time>
      </trkpt>
      <trkpt lat="49.41962" lon="0.27595">
        <ele>6.3</ele>
        <time>2023-09-03T07:36:37Z</time>
      </trkpt>
      <trkpt lat="49.41963" lon="0.27596">
        <ele>6.3</ele>
        <time>2023-09-03T07:36:38Z</time>
      </trkpt>
      <trkpt lat="49.41966" lon="0.27597">
        <ele>6.3</ele>
        <time>2023-09-03T07:36:39Z</time>
      </trkpt>
      <trkpt lat="49.41969" lon="0.27596">
        <ele>6.3</ele>
        <time>2023-09-03T07:36:40Z</time>
      </trkpt>
      <trkpt lat="49.4197" lon="0.27596">
        <ele>6.3</ele>
        <time>2023-09-03T07:36:41Z</time>
      </trkpt>
      <trkpt lat="49.41969" lon="0.27593">
        <ele>6.3</ele>
        <time>2023-09-03T07:36:42Z</time>
      </trkpt>
      <trkpt lat="49.41968" lon="0.27591">
        <ele>6.3</ele>
        <time>2023-09-03T07:36:43Z</time>
      </trkpt>
      <trkpt lat="49.41965" lon="0.2759">
        <ele>6.3</ele>
        <time>2023-09-03T07:36:44Z</time>
      </trkpt>
      <trkpt lat="49.41964" lon="0.27589">
        <ele>6.3</ele>
        <time>2023-09-03T07:36:45Z</time>
      </trkpt>
      <trkpt lat="49.41961" lon="0.27588">
        <ele>6.3</ele>
        <time>2023-09-03T07:36:46Z</time>
      </trkpt>
      <trkpt lat="49.41961" lon="0.27588">
        <ele>6.3</ele>
        <time>2023-09-03T07:36:47Z</time>
      </trkpt>
      <trkpt lat="49.41958" lon="0.27587">
        <ele>6.3</ele>
        <time>2023-09-03T07:36:48Z</time>
      </trkpt>
      <trkpt lat="49.41957" lon="0.27586">
        <ele>6.3</ele>
        <time>2023-09-03T07:36:49Z</time>
      </trkpt>
      <trkpt lat="49.41955" lon="0.27586">
        <ele>6.4</ele>
        <time>2023-09-03T07:36:50Z</time>
      </trkpt>
      <trkpt lat="49.41954" lon="0.27585">
        <ele>6.4</ele>
        <time>2023-09-03T07:36:51Z</time>
      </trkpt>
      <trkpt lat="49.41954" lon="0.27585">
        <ele>6.4</ele>
        <time>2023-09-03T07:36:52Z</time>
      </trkpt>
      <trkpt lat="49.41954" lon="0.27585">
        <ele>6.4</ele>
        <time>2023-09-03T07:36:53Z</time>
      </trkpt>
      <trkpt lat="49.41954" lon="0.27585">
        <ele>6.4</ele>
        <time>2023-09-03T07:36:54Z</time>
      </trkpt>
      <trkpt lat="49.41953" lon="0.27584">
        <ele>6.4</ele>
        <time>2023-09-03T07:36:55Z</time>
      </trkpt>
      <trkpt lat="49.41953" lon="0.27584">
        <ele>6.4</ele>
        <time>2023-09-03T07:36:56Z</time>
      </trkpt>
      <trkpt lat="49.41952" lon="0.27584">
        <ele>6.4</ele>
        <time>2023-09-03T07:36:57Z</time>
      </trkpt>
      <trkpt lat="49.41952" lon="0.27583">
        <ele>6.5</ele>
        <time>2023-09-03T07:36:58Z</time>
      </trkpt>
      <trkpt lat="49.41951" lon="0.27583">
        <ele>6.5</ele>
        <time>2023-09-03T07:36:59Z</time>
      </trkpt>
      <trkpt lat="49.41951" lon="0.27583">
        <ele>6.5</ele>
        <time>2023-09-03T07:37:00Z</time>
      </trkpt>
      <trkpt lat="49.4195" lon="0.27582">
        <ele>6.5</ele>
        <time>2023-09-03T07:37:01Z</time>
      </trkpt>
      <trkpt lat="49.4195" lon="0.27582">
        <ele>6.5</ele>
        <time>2023-09-03T07:37:02Z</time>
      </trkpt>
      <trkpt lat="49.41949" lon="0.27582">
        <ele>6.5</ele>
        <time>2023-09-03T07:37:07Z</time>
      </trkpt>
      <trkpt lat="49.41949" lon="0.27582">
        <ele>6.5</ele>
        <time>2023-09-03T07:37:08Z</time>
      </trkpt>
      <trkpt lat="49.41948" lon="0.27581">
        <ele>6.6</ele>
        <time>2023-09-03T07:37:09Z</time>
      </trkpt>
      <trkpt lat="49.41948" lon="0.27581">
        <ele>6.6</ele>
        <time>2023-09-03T07:37:10Z</time>
      </trkpt>
      <trkpt lat="49.41946" lon="0.2758">
        <ele>6.6</ele>
        <time>2023-09-03T07:37:11Z</time>
      </trkpt>
      <trkpt lat="49.41945" lon="0.27579">
        <ele>6.7</ele>
        <time>2023-09-03T07:37:12Z</time>
      </trkpt>
      <trkpt lat="49.41942" lon="0.27577">
        <ele>6.8</ele>
        <time>2023-09-03T07:37:13Z</time>
      </trkpt>
      <trkpt lat="49.41941" lon="0.27576">
        <ele>6.8</ele>
        <time>2023-09-03T07:37:14Z</time>
      </trkpt>
      <trkpt lat="49.4194" lon="0.27574">
        <ele>6.9</ele>
        <time>2023-09-03T07:37:15Z</time>
      </trkpt>
      <trkpt lat="49.41939" lon="0.27573">
        <ele>6.9</ele>
        <time>2023-09-03T07:37:16Z</time>
      </trkpt>
      <trkpt lat="49.41938" lon="0.27571">
        <ele>7</ele>
        <time>2023-09-03T07:37:17Z</time>
      </trkpt>
      <trkpt lat="49.41938" lon="0.27569">
        <ele>7</ele>
        <time>2023-09-03T07:37:18Z</time>
      </trkpt>
      <trkpt lat="49.41938" lon="0.27568">
        <ele>7.1</ele>
        <time>2023-09-03T07:37:19Z</time>
      </trkpt>
      <trkpt lat="49.41937" lon="0.27566">
        <ele>7.1</ele>
        <time>2023-09-03T07:37:20Z</time>
      </trkpt>
      <trkpt lat="49.41937" lon="0.27564">
        <ele>7.2</ele>
        <time>2023-09-03T07:37:21Z</time>
      </trkpt>
      <trkpt lat="49.41937" lon="0.27563">
        <ele>7.2</ele>
        <time>2023-09-03T07:37:22Z</time>
      </trkpt>
      <trkpt lat="49.41937" lon="0.27561">
        <ele>7.3</ele>
        <time>2023-09-03T07:37:23Z</time>
      </trkpt>
      <trkpt lat="49.41938" lon="0.2756">
        <ele>7.3</ele>
        <time>2023-09-03T07:37:24Z</time>
      </trkpt>
      <trkpt lat="49.41939" lon="0.27559">
        <ele>7.7</ele>
        <time>2023-09-03T07:37:25Z</time>
      </trkpt>
      <trkpt lat="49.4194" lon="0.27559">
        <ele>7.7</ele>
        <time>2023-09-03T07:37:26Z</time>
      </trkpt>
      <trkpt lat="49.41942" lon="0.27561">
        <ele>7.7</ele>
        <time>2023-09-03T07:37:27Z</time>
      </trkpt>
      <trkpt lat="49.41944" lon="0.27564">
        <ele>7.8</ele>
        <time>2023-09-03T07:37:28Z</time>
      </trkpt>
      <trkpt lat="49.41944" lon="0.27565">
        <ele>7.8</ele>
        <time>2023-09-03T07:37:29Z</time>
      </trkpt>
      <trkpt lat="49.41947" lon="0.27568">
        <ele>7.9</ele>
        <time>2023-09-03T07:37:30Z</time>
      </trkpt>
      <trkpt lat="49.41948" lon="0.27568">
        <ele>7.9</ele>
        <time>2023-09-03T07:37:31Z</time>
      </trkpt>
      <trkpt lat="49.41951" lon="0.2757">
        <ele>8</ele>
        <time>2023-09-03T07:37:32Z</time>
      </trkpt>
      <trkpt lat="49.41952" lon="0.27571">
        <ele>8</ele>
        <time>2023-09-03T07:37:33Z</time>
      </trkpt>
      <trkpt lat="49.41956" lon="0.27571">
        <ele>8.1</ele>
        <time>2023-09-03T07:37:34Z</time>
      </trkpt>
      <trkpt lat="49.41959" lon="0.27572">
        <ele>8.2</ele>
        <time>2023-09-03T07:37:35Z</time>
      </trkpt>
      <trkpt lat="49.41962" lon="0.27572">
        <ele>8.3</ele>
        <time>2023-09-03T07:37:36Z</time>
      </trkpt>
      <trkpt lat="49.41965" lon="0.27573">
        <ele>8.4</ele>
        <time>2023-09-03T07:37:37Z</time>
      </trkpt>
      <trkpt lat="49.41969" lon="0.27573">
        <ele>8.5</ele>
        <time>2023-09-03T07:37:38Z</time>
      </trkpt>
      <trkpt lat="49.41972" lon="0.27573">
        <ele>8.6</ele>
        <time>2023-09-03T07:37:39Z</time>
      </trkpt>
      <trkpt lat="49.41975" lon="0.27573">
        <ele>8.7</ele>
        <time>2023-09-03T07:37:40Z</time>
      </trkpt>
      <trkpt lat="49.41978" lon="0.27573">
        <ele>8.8</ele>
        <time>2023-09-03T07:37:41Z</time>
      </trkpt>
      <trkpt lat="49.41981" lon="0.27573">
        <ele>8.9</ele>
        <time>2023-09-03T07:37:42Z</time>
      </trkpt>
      <trkpt lat="49.41984" lon="0.27573">
        <ele>9.1</ele>
        <time>2023-09-03T07:37:43Z</time>
      </trkpt>
      <trkpt lat="49.41987" lon="0.27573">
        <ele>9.2</ele>
        <time>2023-09-03T07:37:44Z</time>
      </trkpt>
      <trkpt lat="49.4199" lon="0.27574">
        <ele>9.3</ele>
        <time>2023-09-03T07:37:45Z</time>
      </trkpt>
      <trkpt lat="49.41993" lon="0.27574">
        <ele>9.4</ele>
        <time>2023-09-03T07:37:46Z</time>
      </trkpt>
      <trkpt lat="49.41996" lon="0.27574">
        <ele>9.5</ele>
        <time>2023-09-03T07:37:47Z</time>
      </trkpt>
      <trkpt lat="49.41999" lon="0.27574">
        <ele>9.7</ele>
        <time>2023-09-03T07:37:48Z</time>
      </trkpt>
      <trkpt lat="49.42002" lon="0.27574">
        <ele>9.8</ele>
        <time>2023-09-03T07:37:49Z</time>
      </trkpt>
      <trkpt lat="49.42005" lon="0.27574">
        <ele>9.9</ele>
        <time>2023-09-03T07:37:50Z</time>
      </trkpt>
      <trkpt lat="49.42007" lon="0.27574">
        <ele>10.1</ele>
        <time>2023-09-03T07:37:51Z</time>
      </trkpt>
      <trkpt lat="49.42011" lon="0.27574">
        <ele>10.3</ele>
        <time>2023-09-03T07:37:52Z</time>
      </trkpt>
      <trkpt lat="49.42013" lon="0.27574">
        <ele>10.3</ele>
        <time>2023-09-03T07:37:53Z</time>
      </trkpt>
      <trkpt lat="49.42016" lon="0.27573">
        <ele>10.5</ele>
        <time>2023-09-03T07:37:54Z</time>
      </trkpt>
      <trkpt lat="49.42017" lon="0.27573">
        <ele>10.6</ele>
        <time>2023-09-03T07:37:55Z</time>
      </trkpt>
      <trkpt lat="49.4202" lon="0.27571">
        <ele>10.7</ele>
        <time>2023-09-03T07:37:56Z</time>
      </trkpt>
      <trkpt lat="49.4202" lon="0.27571">
        <ele>10.7</ele>
        <time>2023-09-03T07:37:57Z</time>
      </trkpt>
      <trkpt lat="49.42021" lon="0.2757">
        <ele>10.7</ele>
        <time>2023-09-03T07:37:58Z</time>
      </trkpt>
      <trkpt lat="49.42022" lon="0.27569">
        <ele>10.8</ele>
        <time>2023-09-03T07:37:59Z</time>
      </trkpt>
      <trkpt lat="49.42022" lon="0.27569">
        <ele>10.8</ele>
        <time>2023-09-03T07:38:00Z</time>
      </trkpt>
      <trkpt lat="49.42022" lon="0.27568">
        <ele>10.8</ele>
        <time>2023-09-03T07:38:01Z</time>
      </trkpt>
      <trkpt lat="49.42022" lon="0.27568">
        <ele>10.8</ele>
        <time>2023-09-03T07:38:02Z</time>
      </trkpt>
      <trkpt lat="49.42022" lon="0.27568">
        <ele>10.8</ele>
        <time>2023-09-03T07:38:03Z</time>
      </trkpt>
      <trkpt lat="49.42023" lon="0.27569">
        <ele>10.8</ele>
        <time>2023-09-03T07:38:04Z</time>
      </trkpt>
      <trkpt lat="49.42023" lon="0.27569">
        <ele>10.8</ele>
        <time>2023-09-03T07:38:05Z</time>
      </trkpt>
      <trkpt lat="49.42024" lon="0.27569">
        <ele>10.8</ele>
        <time>2023-09-03T07:38:06Z</time>
      </trkpt>
      <trkpt lat="49.42025" lon="0.27569">
        <ele>10.9</ele>
        <time>2023-09-03T07:38:07Z</time>
      </trkpt>
      <trkpt lat="49.42026" lon="0.27567">
        <ele>10.9</ele>
        <time>2023-09-03T07:38:08Z</time>
      </trkpt>
      <trkpt lat="49.42029" lon="0.27566">
        <ele>11</ele>
        <time>2023-09-03T07:38:09Z</time>
      </trkpt>
      <trkpt lat="49.42029" lon="0.27566">
        <ele>11</ele>
        <time>2023-09-03T07:38:10Z</time>
      </trkpt>
      <trkpt lat="49.42033" lon="0.27566">
        <ele>11.1</ele>
        <time>2023-09-03T07:38:11Z</time>
      </trkpt>
      <trkpt lat="49.42035" lon="0.27566">
        <ele>11.2</ele>
        <time>2023-09-03T07:38:12Z</time>
      </trkpt>
      <trkpt lat="49.42038" lon="0.27566">
        <ele>11.3</ele>
        <time>2023-09-03T07:38:13Z</time>
      </trkpt>
      <trkpt lat="49.42042" lon="0.27567">
        <ele>11.4</ele>
        <time>2023-09-03T07:38:14Z</time>
      </trkpt>
      <trkpt lat="49.42046" lon="0.27568">
        <ele>11.5</ele>
        <time>2023-09-03T07:38:15Z</time>
      </trkpt>
      <trkpt lat="49.4205" lon="0.27568">
        <ele>11.6</ele>
        <time>2023-09-03T07:38:16Z</time>
      </trkpt>
      <trkpt lat="49.42054" lon="0.27568">
        <ele>11.7</ele>
        <time>2023-09-03T07:38:17Z</time>
      </trkpt>
      <trkpt lat="49.42058" lon="0.27567">
        <ele>11.8</ele>
        <time>2023-09-03T07:38:18Z</time>
      </trkpt>
      <trkpt lat="49.42063" lon="0.27567">
        <ele>11.9</ele>
        <time>2023-09-03T07:38:19Z</time>
      </trkpt>
      <trkpt lat="49.42069" lon="0.27567">
        <ele>11.9</ele>
        <time>2023-09-03T07:38:20Z</time>
      </trkpt>
      <trkpt lat="49.42074" lon="0.27567">
        <ele>11.9</ele>
        <time>2023-09-03T07:38:21Z</time>
      </trkpt>
      <trkpt lat="49.4208" lon="0.27567">
        <ele>11.9</ele>
        <time>2023-09-03T07:38:22Z</time>
      </trkpt>
      <trkpt lat="49.42086" lon="0.27567">
        <ele>12</ele>
        <time>2023-09-03T07:38:23Z</time>
      </trkpt>
      <trkpt lat="49.42092" lon="0.27567">
        <ele>12</ele>
        <time>2023-09-03T07:38:24Z</time>
      </trkpt>
      <trkpt lat="49.42099" lon="0.27566">
        <ele>12</ele>
        <time>2023-09-03T07:38:25Z</time>
      </trkpt>
      <trkpt lat="49.42105" lon="0.27566">
        <ele>12.1</ele>
        <time>2023-09-03T07:38:26Z</time>
      </trkpt>
      <trkpt lat="49.42111" lon="0.27566">
        <ele>12.1</ele>
        <time>2023-09-03T07:38:27Z</time>
      </trkpt>
      <trkpt lat="49.42118" lon="0.27565">
        <ele>12.2</ele>
        <time>2023-09-03T07:38:28Z</time>
      </trkpt>
      <trkpt lat="49.42124" lon="0.27565">
        <ele>12.2</ele>
        <time>2023-09-03T07:38:29Z</time>
      </trkpt>
      <trkpt lat="49.4213" lon="0.27564">
        <ele>12.3</ele>
        <time>2023-09-03T07:38:30Z</time>
      </trkpt>
      <trkpt lat="49.42137" lon="0.27564">
        <ele>12.4</ele>
        <time>2023-09-03T07:38:31Z</time>
      </trkpt>
      <trkpt lat="49.42144" lon="0.27563">
        <ele>12.5</ele>
        <time>2023-09-03T07:38:32Z</time>
      </trkpt>
      <trkpt lat="49.42151" lon="0.27563">
        <ele>12.5</ele>
        <time>2023-09-03T07:38:33Z</time>
      </trkpt>
      <trkpt lat="49.42157" lon="0.27562">
        <ele>12.6</ele>
        <time>2023-09-03T07:38:34Z</time>
      </trkpt>
      <trkpt lat="49.42164" lon="0.27562">
        <ele>12.7</ele>
        <time>2023-09-03T07:38:35Z</time>
      </trkpt>
      <trkpt lat="49.4217" lon="0.27561">
        <ele>12.8</ele>
        <time>2023-09-03T07:38:36Z</time>
      </trkpt>
      <trkpt lat="49.42177" lon="0.2756">
        <ele>13</ele>
        <time>2023-09-03T07:38:37Z</time>
      </trkpt>
      <trkpt lat="49.42183" lon="0.27559">
        <ele>13.1</ele>
        <time>2023-09-03T07:38:38Z</time>
      </trkpt>
      <trkpt lat="49.42189" lon="0.27558">
        <ele>13.2</ele>
        <time>2023-09-03T07:38:39Z</time>
      </trkpt>
      <trkpt lat="49.42196" lon="0.27557">
        <ele>13.4</ele>
        <time>2023-09-03T07:38:40Z</time>
      </trkpt>
      <trkpt lat="49.42202" lon="0.27556">
        <ele>13.5</ele>
        <time>2023-09-03T07:38:41Z</time>
      </trkpt>
      <trkpt lat="49.42208" lon="0.27555">
        <ele>13.7</ele>
        <time>2023-09-03T07:38:42Z</time>
      </trkpt>
      <trkpt lat="49.42214" lon="0.27554">
        <ele>13.9</ele>
        <time>2023-09-03T07:38:43Z</time>
      </trkpt>
      <trkpt lat="49.4222" lon="0.27554">
        <ele>14.1</ele>
        <time>2023-09-03T07:38:44Z</time>
      </trkpt>
      <trkpt lat="49.42226" lon="0.27553">
        <ele>14.2</ele>
        <time>2023-09-03T07:38:45Z</time>
      </trkpt>
      <trkpt lat="49.42231" lon="0.27552">
        <ele>14.4</ele>
        <time>2023-09-03T07:38:46Z</time>
      </trkpt>
      <trkpt lat="49.42237" lon="0.27552">
        <ele>14.6</ele>
        <time>2023-09-03T07:38:47Z</time>
      </trkpt>
      <trkpt lat="49.42241" lon="0.27552">
        <ele>14.7</ele>
        <time>2023-09-03T07:38:48Z</time>
      </trkpt>
      <trkpt lat="49.42245" lon="0.27552">
        <ele>14.8</ele>
        <time>2023-09-03T07:38:49Z</time>
      </trkpt>
      <trkpt lat="49.42248" lon="0.27554">
        <ele>14.9</ele>
        <time>2023-09-03T07:38:50Z</time>
      </trkpt>
      <trkpt lat="49.42251" lon="0.27554">
        <ele>15</ele>
        <time>2023-09-03T07:38:51Z</time>
      </trkpt>
      <trkpt lat="49.42255" lon="0.27553">
        <ele>15.1</ele>
        <time>2023-09-03T07:38:52Z</time>
      </trkpt>
      <trkpt lat="49.42259" lon="0.27553">
        <ele>15.3</ele>
        <time>2023-09-03T07:38:53Z</time>
      </trkpt>
      <trkpt lat="49.42262" lon="0.27552">
        <ele>15.4</ele>
        <time>2023-09-03T07:38:54Z</time>
      </trkpt>
      <trkpt lat="49.42266" lon="0.27551">
        <ele>15.5</ele>
        <time>2023-09-03T07:38:55Z</time>
      </trkpt>
      <trkpt lat="49.42269" lon="0.2755">
        <ele>15.7</ele>
        <time>2023-09-03T07:38:56Z</time>
      </trkpt>
      <trkpt lat="49.42272" lon="0.2755">
        <ele>15.8</ele>
        <time>2023-09-03T07:38:57Z</time>
      </trkpt>
      <trkpt lat="49.42275" lon="0.2755">
        <ele>15.9</ele>
        <time>2023-09-03T07:38:58Z</time>
      </trkpt>
      <trkpt lat="49.42279" lon="0.27549">
        <ele>16</ele>
        <time>2023-09-03T07:38:59Z</time>
      </trkpt>
      <trkpt lat="49.42282" lon="0.27549">
        <ele>16.1</ele>
        <time>2023-09-03T07:39:00Z</time>
      </trkpt>
      <trkpt lat="49.42285" lon="0.27548">
        <ele>16.3</ele>
        <time>2023-09-03T07:39:01Z</time>
      </trkpt>
      <trkpt lat="49.42288" lon="0.27548">
        <ele>16.4</ele>
        <time>2023-09-03T07:39:02Z</time>
      </trkpt>
      <trkpt lat="49.42291" lon="0.27548">
        <ele>16.5</ele>
        <time>2023-09-03T07:39:03Z</time>
      </trkpt>
      <trkpt lat="49.42294" lon="0.27547">
        <ele>16.7</ele>
        <time>2023-09-03T07:39:04Z</time>
      </trkpt>
      <trkpt lat="49.42297" lon="0.27547">
        <ele>16.8</ele>
        <time>2023-09-03T07:39:05Z</time>
      </trkpt>
      <trkpt lat="49.423" lon="0.27547">
        <ele>17</ele>
        <time>2023-09-03T07:39:06Z</time>
      </trkpt>
      <trkpt lat="49.42304" lon="0.27546">
        <ele>17.1</ele>
        <time>2023-09-03T07:39:07Z</time>
      </trkpt>
      <trkpt lat="49.42307" lon="0.27546">
        <ele>17.3</ele>
        <time>2023-09-03T07:39:08Z</time>
      </trkpt>
      <trkpt lat="49.4231" lon="0.27545">
        <ele>17.4</ele>
        <time>2023-09-03T07:39:09Z</time>
      </trkpt>
      <trkpt lat="49.42313" lon="0.27545">
        <ele>17.6</ele>
        <time>2023-09-03T07:39:10Z</time>
      </trkpt>
      <trkpt lat="49.42316" lon="0.27544">
        <ele>17.7</ele>
        <time>2023-09-03T07:39:11Z</time>
      </trkpt>
      <trkpt lat="49.42319" lon="0.27543">
        <ele>17.9</ele>
        <time>2023-09-03T07:39:12Z</time>
      </trkpt>
      <trkpt lat="49.42322" lon="0.27543">
        <ele>18.1</ele>
        <time>2023-09-03T07:39:13Z</time>
      </trkpt>
      <trkpt lat="49.42324" lon="0.27543">
        <ele>18.2</ele>
        <time>2023-09-03T07:39:14Z</time>
      </trkpt>
      <trkpt lat="49.42328" lon="0.27543">
        <ele>18.4</ele>
        <time>2023-09-03T07:39:15Z</time>
      </trkpt>
      <trkpt lat="49.42329" lon="0.27542">
        <ele>18.5</ele>
        <time>2023-09-03T07:39:16Z</time>
      </trkpt>
      <trkpt lat="49.4233" lon="0.27542">
        <ele>18.5</ele>
        <time>2023-09-03T07:39:17Z</time>
      </trkpt>
      <trkpt lat="49.4233" lon="0.27542">
        <ele>18.6</ele>
        <time>2023-09-03T07:39:18Z</time>
      </trkpt>
      <trkpt lat="49.42331" lon="0.27542">
        <ele>18.6</ele>
        <time>2023-09-03T07:39:19Z</time>
      </trkpt>
      <trkpt lat="49.42331" lon="0.27542">
        <ele>18.6</ele>
        <time>2023-09-03T07:39:20Z</time>
      </trkpt>
      <trkpt lat="49.42331" lon="0.27541">
        <ele>18.6</ele>
        <time>2023-09-03T07:39:21Z</time>
      </trkpt>
      <trkpt lat="49.42331" lon="0.27541">
        <ele>18.6</ele>
        <time>2023-09-03T07:39:22Z</time>
      </trkpt>
      <trkpt lat="49.42332" lon="0.27541">
        <ele>18.7</ele>
        <time>2023-09-03T07:39:23Z</time>
      </trkpt>
      <trkpt lat="49.42333" lon="0.27541">
        <ele>18.7</ele>
        <time>2023-09-03T07:39:24Z</time>
      </trkpt>
      <trkpt lat="49.42334" lon="0.27541">
        <ele>18.8</ele>
        <time>2023-09-03T07:39:25Z</time>
      </trkpt>
      <trkpt lat="49.42334" lon="0.27541">
        <ele>18.8</ele>
        <time>2023-09-03T07:39:26Z</time>
      </trkpt>
      <trkpt lat="49.42335" lon="0.27541">
        <ele>18.9</ele>
        <time>2023-09-03T07:39:27Z</time>
      </trkpt>
      <trkpt lat="49.42335" lon="0.27541">
        <ele>18.9</ele>
        <time>2023-09-03T07:39:28Z</time>
      </trkpt>
      <trkpt lat="49.42335" lon="0.27541">
        <ele>18.9</ele>
        <time>2023-09-03T07:39:29Z</time>
      </trkpt>
      <trkpt lat="49.42335" lon="0.27541">
        <ele>18.9</ele>
        <time>2023-09-03T07:39:30Z</time>
      </trkpt>
      <trkpt lat="49.42335" lon="0.27541">
        <ele>18.9</ele>
        <time>2023-09-03T07:39:31Z</time>
      </trkpt>
      <trkpt lat="49.42335" lon="0.27541">
        <ele>18.9</ele>
        <time>2023-09-03T07:39:32Z</time>
      </trkpt>
      <trkpt lat="49.42335" lon="0.27541">
        <ele>18.9</ele>
        <time>2023-09-03T07:39:33Z</time>
      </trkpt>
      <trkpt lat="49.42335" lon="0.27541">
        <ele>18.9</ele>
        <time>2023-09-03T07:39:34Z</time>
      </trkpt>
      <trkpt lat="49.42335" lon="0.27541">
        <ele>18.9</ele>
        <time>2023-09-03T07:39:35Z</time>
      </trkpt>
      <trkpt lat="49.42335" lon="0.27541">
        <ele>18.9</ele>
        <time>2023-09-03T07:39:36Z</time>
      </trkpt>
      <trkpt lat="49.42335" lon="0.27541">
        <ele>18.9</ele>
        <time>2023-09-03T07:39:37Z</time>
      </trkpt>
      <trkpt lat="49.42341" lon="0.27541">
        <ele>19.2</ele>
        <time>2023-09-03T07:56:53Z</time>
      </trkpt>
      <trkpt lat="49.42342" lon="0.27541">
        <ele>19.3</ele>
        <time>2023-09-03T07:56:54Z</time>
      </trkpt>
      <trkpt lat="49.42343" lon="0.27541">
        <ele>19.4</ele>
        <time>2023-09-03T07:56:55Z</time>
      </trkpt>
      <trkpt lat="49.42345" lon="0.2754">
        <ele>19.6</ele>
        <time>2023-09-03T07:56:56Z</time>
      </trkpt>
      <trkpt lat="49.42346" lon="0.27539">
        <ele>19.6</ele>
        <time>2023-09-03T07:56:57Z</time>
      </trkpt>
      <trkpt lat="49.42347" lon="0.27539">
        <ele>19.6</ele>
        <time>2023-09-03T07:56:58Z</time>
      </trkpt>
      <trkpt lat="49.42348" lon="0.27538">
        <ele>19.6</ele>
        <time>2023-09-03T07:56:59Z</time>
      </trkpt>
      <trkpt lat="49.42348" lon="0.27537">
        <ele>19.6</ele>
        <time>2023-09-03T07:57:00Z</time>
      </trkpt>
      <trkpt lat="49.42348" lon="0.27537">
        <ele>19.6</ele>
        <time>2023-09-03T07:57:01Z</time>
      </trkpt>
      <trkpt lat="49.42348" lon="0.27537">
        <ele>19.6</ele>
        <time>2023-09-03T07:57:02Z</time>
      </trkpt>
      <trkpt lat="49.42349" lon="0.27537">
        <ele>19.6</ele>
        <time>2023-09-03T07:57:03Z</time>
      </trkpt>
      <trkpt lat="49.4235" lon="0.27536">
        <ele>19.7</ele>
        <time>2023-09-03T07:57:04Z</time>
      </trkpt>
      <trkpt lat="49.4235" lon="0.27536">
        <ele>19.7</ele>
        <time>2023-09-03T07:57:05Z</time>
      </trkpt>
      <trkpt lat="49.4235" lon="0.27536">
        <ele>19.7</ele>
        <time>2023-09-03T07:57:06Z</time>
      </trkpt>
      <trkpt lat="49.4235" lon="0.27535">
        <ele>19.8</ele>
        <time>2023-09-03T07:57:07Z</time>
      </trkpt>
      <trkpt lat="49.4235" lon="0.27534">
        <ele>19.8</ele>
        <time>2023-09-03T07:57:08Z</time>
      </trkpt>
      <trkpt lat="49.4235" lon="0.27534">
        <ele>19.8</ele>
        <time>2023-09-03T07:57:09Z</time>
      </trkpt>
      <trkpt lat="49.4235" lon="0.27534">
        <ele>19.8</ele>
        <time>2023-09-03T07:57:10Z</time>
      </trkpt>
      <trkpt lat="49.4235" lon="0.27534">
        <ele>19.8</ele>
        <time>2023-09-03T07:57:11Z</time>
      </trkpt>
      <trkpt lat="49.4235" lon="0.27534">
        <ele>19.8</ele>
        <time>2023-09-03T07:57:12Z</time>
      </trkpt>
      <trkpt lat="49.4235" lon="0.27534">
        <ele>19.9</ele>
        <time>2023-09-03T07:57:13Z</time>
      </trkpt>
      <trkpt lat="49.4235" lon="0.27534">
        <ele>19.9</ele>
        <time>2023-09-03T07:57:14Z</time>
      </trkpt>
      <trkpt lat="49.4235" lon="0.27534">
        <ele>19.9</ele>
        <time>2023-09-03T07:57:15Z</time>
      </trkpt>
      <trkpt lat="49.4235" lon="0.27534">
        <ele>19.9</ele>
        <time>2023-09-03T07:57:16Z</time>
      </trkpt>
      <trkpt lat="49.42355" lon="0.27534">
        <ele>20.2</ele>
        <time>2023-09-03T07:57:35Z</time>
      </trkpt>
      <trkpt lat="49.42356" lon="0.27534">
        <ele>20.3</ele>
        <time>2023-09-03T07:57:36Z</time>
      </trkpt>
      <trkpt lat="49.42358" lon="0.27533">
        <ele>20.4</ele>
        <time>2023-09-03T07:57:37Z</time>
      </trkpt>
      <trkpt lat="49.42359" lon="0.27533">
        <ele>20.5</ele>
        <time>2023-09-03T07:57:38Z</time>
      </trkpt>
      <trkpt lat="49.42361" lon="0.27533">
        <ele>20.6</ele>
        <time>2023-09-03T07:57:39Z</time>
      </trkpt>
      <trkpt lat="49.42363" lon="0.27533">
        <ele>20.7</ele>
        <time>2023-09-03T07:57:40Z</time>
      </trkpt>
      <trkpt lat="49.42364" lon="0.27533">
        <ele>20.9</ele>
        <time>2023-09-03T07:57:41Z</time>
      </trkpt>
      <trkpt lat="49.42367" lon="0.27532">
        <ele>21</ele>
        <time>2023-09-03T07:57:42Z</time>
      </trkpt>
      <trkpt lat="49.42368" lon="0.27532">
        <ele>21.1</ele>
        <time>2023-09-03T07:57:43Z</time>
      </trkpt>
      <trkpt lat="49.42372" lon="0.27532">
        <ele>21.3</ele>
        <time>2023-09-03T07:57:44Z</time>
      </trkpt>
      <trkpt lat="49.42373" lon="0.27531">
        <ele>21.4</ele>
        <time>2023-09-03T07:57:45Z</time>
      </trkpt>
      <trkpt lat="49.42376" lon="0.27531">
        <ele>21.7</ele>
        <time>2023-09-03T07:57:46Z</time>
      </trkpt>
      <trkpt lat="49.42377" lon="0.27531">
        <ele>21.7</ele>
        <time>2023-09-03T07:57:47Z</time>
      </trkpt>
      <trkpt lat="49.42381" lon="0.27531">
        <ele>22</ele>
        <time>2023-09-03T07:57:48Z</time>
      </trkpt>
      <trkpt lat="49.42382" lon="0.2753">
        <ele>22</ele>
        <time>2023-09-03T07:57:49Z</time>
      </trkpt>
      <trkpt lat="49.42386" lon="0.2753">
        <ele>22.3</ele>
        <time>2023-09-03T07:57:50Z</time>
      </trkpt>
      <trkpt lat="49.42387" lon="0.2753">
        <ele>22.4</ele>
        <time>2023-09-03T07:57:51Z</time>
      </trkpt>
      <trkpt lat="49.4239" lon="0.27529">
        <ele>22.6</ele>
        <time>2023-09-03T07:57:52Z</time>
      </trkpt>
      <trkpt lat="49.42394" lon="0.27529">
        <ele>22.8</ele>
        <time>2023-09-03T07:57:53Z</time>
      </trkpt>
      <trkpt lat="49.42397" lon="0.27528">
        <ele>23</ele>
        <time>2023-09-03T07:57:54Z</time>
      </trkpt>
      <trkpt lat="49.42401" lon="0.27528">
        <ele>23.3</ele>
        <time>2023-09-03T07:57:55Z</time>
      </trkpt>
      <trkpt lat="49.42404" lon="0.27527">
        <ele>23.5</ele>
        <time>2023-09-03T07:57:56Z</time>
      </trkpt>
      <trkpt lat="49.42408" lon="0.27527">
        <ele>23.7</ele>
        <time>2023-09-03T07:57:57Z</time>
      </trkpt>
      <trkpt lat="49.42411" lon="0.27527">
        <ele>24</ele>
        <time>2023-09-03T07:57:58Z</time>
      </trkpt>
      <trkpt lat="49.42415" lon="0.27526">
        <ele>24.2</ele>
        <time>2023-09-03T07:57:59Z</time>
      </trkpt>
      <trkpt lat="49.42419" lon="0.27526">
        <ele>24.5</ele>
        <time>2023-09-03T07:58:00Z</time>
      </trkpt>
      <trkpt lat="49.42423" lon="0.27525">
        <ele>24.8</ele>
        <time>2023-09-03T07:58:01Z</time>
      </trkpt>
      <trkpt lat="49.42426" lon="0.27525">
        <ele>25</ele>
        <time>2023-09-03T07:58:02Z</time>
      </trkpt>
      <trkpt lat="49.4243" lon="0.27524">
        <ele>25.2</ele>
        <time>2023-09-03T07:58:03Z</time>
      </trkpt>
      <trkpt lat="49.42433" lon="0.27524">
        <ele>25.5</ele>
        <time>2023-09-03T07:58:04Z</time>
      </trkpt>
      <trkpt lat="49.42436" lon="0.27523">
        <ele>25.7</ele>
        <time>2023-09-03T07:58:05Z</time>
      </trkpt>
      <trkpt lat="49.42439" lon="0.27523">
        <ele>25.9</ele>
        <time>2023-09-03T07:58:06Z</time>
      </trkpt>
      <trkpt lat="49.42442" lon="0.27522">
        <ele>26.1</ele>
        <time>2023-09-03T07:58:07Z</time>
      </trkpt>
      <trkpt lat="49.42445" lon="0.27522">
        <ele>26.3</ele>
        <time>2023-09-03T07:58:08Z</time>
      </trkpt>
      <trkpt lat="49.42448" lon="0.27521">
        <ele>26.5</ele>
        <time>2023-09-03T07:58:09Z</time>
      </trkpt>
      <trkpt lat="49.4245" lon="0.27521">
        <ele>26.7</ele>
        <time>2023-09-03T07:58:10Z</time>
      </trkpt>
      <trkpt lat="49.42453" lon="0.2752">
        <ele>26.9</ele>
        <time>2023-09-03T07:58:11Z</time>
      </trkpt>
      <trkpt lat="49.42456" lon="0.2752">
        <ele>27.1</ele>
        <time>2023-09-03T07:58:12Z</time>
      </trkpt>
      <trkpt lat="49.4246" lon="0.2752">
        <ele>27.4</ele>
        <time>2023-09-03T07:58:13Z</time>
      </trkpt>
      <trkpt lat="49.42462" lon="0.2752">
        <ele>27.5</ele>
        <time>2023-09-03T07:58:14Z</time>
      </trkpt>
      <trkpt lat="49.42465" lon="0.2752">
        <ele>27.7</ele>
        <time>2023-09-03T07:58:15Z</time>
      </trkpt>
      <trkpt lat="49.42467" lon="0.27519">
        <ele>27.8</ele>
        <time>2023-09-03T07:58:16Z</time>
      </trkpt>
      <trkpt lat="49.4247" lon="0.27519">
        <ele>28</ele>
        <time>2023-09-03T07:58:17Z</time>
      </trkpt>
      <trkpt lat="49.42473" lon="0.27518">
        <ele>28.2</ele>
        <time>2023-09-03T07:58:18Z</time>
      </trkpt>
      <trkpt lat="49.42476" lon="0.27518">
        <ele>28.4</ele>
        <time>2023-09-03T07:58:19Z</time>
      </trkpt>
      <trkpt lat="49.42479" lon="0.27517">
        <ele>28.7</ele>
        <time>2023-09-03T07:58:20Z</time>
      </trkpt>
      <trkpt lat="49.42482" lon="0.27517">
        <ele>28.9</ele>
        <time>2023-09-03T07:58:21Z</time>
      </trkpt>
      <trkpt lat="49.42486" lon="0.27516">
        <ele>29.1</ele>
        <time>2023-09-03T07:58:22Z</time>
      </trkpt>
      <trkpt lat="49.42489" lon="0.27516">
        <ele>29.3</ele>
        <time>2023-09-03T07:58:23Z</time>
      </trkpt>
      <trkpt lat="49.42492" lon="0.27515">
        <ele>29.5</ele>
        <time>2023-09-03T07:58:24Z</time>
      </trkpt>
      <trkpt lat="49.42495" lon="0.27515">
        <ele>29.7</ele>
        <time>2023-09-03T07:58:25Z</time>
      </trkpt>
      <trkpt lat="49.42498" lon="0.27514">
        <ele>29.9</ele>
        <time>2023-09-03T07:58:26Z</time>
      </trkpt>
      <trkpt lat="49.42501" lon="0.27514">
        <ele>30.1</ele>
        <time>2023-09-03T07:58:27Z</time>
      </trkpt>
      <trkpt lat="49.42504" lon="0.27514">
        <ele>30.3</ele>
        <time>2023-09-03T07:58:28Z</time>
      </trkpt>
      <trkpt lat="49.42507" lon="0.27513">
        <ele>30.5</ele>
        <time>2023-09-03T07:58:29Z</time>
      </trkpt>
      <trkpt lat="49.4251" lon="0.27513">
        <ele>30.7</ele>
        <time>2023-09-03T07:58:30Z</time>
      </trkpt>
      <trkpt lat="49.42513" lon="0.27512">
        <ele>30.9</ele>
        <time>2023-09-03T07:58:31Z</time>
      </trkpt>
      <trkpt lat="49.42516" lon="0.27512">
        <ele>31.1</ele>
        <time>2023-09-03T07:58:32Z</time>
      </trkpt>
      <trkpt lat="49.42519" lon="0.27511">
        <ele>31.3</ele>
        <time>2023-09-03T07:58:33Z</time>
      </trkpt>
      <trkpt lat="49.42522" lon="0.27511">
        <ele>31.5</ele>
        <time>2023-09-03T07:58:34Z</time>
      </trkpt>
      <trkpt lat="49.42525" lon="0.27511">
        <ele>31.8</ele>
        <time>2023-09-03T07:58:35Z</time>
      </trkpt>
      <trkpt lat="49.42528" lon="0.27511">
        <ele>32</ele>
        <time>2023-09-03T07:58:36Z</time>
      </trkpt>
      <trkpt lat="49.42531" lon="0.2751">
        <ele>32.2</ele>
        <time>2023-09-03T07:58:37Z</time>
      </trkpt>
      <trkpt lat="49.42535" lon="0.27509">
        <ele>32.4</ele>
        <time>2023-09-03T07:58:38Z</time>
      </trkpt>
      <trkpt lat="49.42538" lon="0.27509">
        <ele>32.6</ele>
        <time>2023-09-03T07:58:39Z</time>
      </trkpt>
      <trkpt lat="49.42541" lon="0.27508">
        <ele>32.8</ele>
        <time>2023-09-03T07:58:40Z</time>
      </trkpt>
      <trkpt lat="49.42544" lon="0.27508">
        <ele>33</ele>
        <time>2023-09-03T07:58:41Z</time>
      </trkpt>
      <trkpt lat="49.42547" lon="0.27507">
        <ele>33.2</ele>
        <time>2023-09-03T07:58:42Z</time>
      </trkpt>
      <trkpt lat="49.4255" lon="0.27507">
        <ele>33.4</ele>
        <time>2023-09-03T07:58:43Z</time>
      </trkpt>
      <trkpt lat="49.42553" lon="0.27506">
        <ele>33.6</ele>
        <time>2023-09-03T07:58:44Z</time>
      </trkpt>
      <trkpt lat="49.42557" lon="0.27506">
        <ele>33.9</ele>
        <time>2023-09-03T07:58:45Z</time>
      </trkpt>
      <trkpt lat="49.4256" lon="0.27506">
        <ele>34.1</ele>
        <time>2023-09-03T07:58:46Z</time>
      </trkpt>
      <trkpt lat="49.42563" lon="0.27505">
        <ele>34.3</ele>
        <time>2023-09-03T07:58:47Z</time>
      </trkpt>
      <trkpt lat="49.42566" lon="0.27505">
        <ele>34.5</ele>
        <time>2023-09-03T07:58:48Z</time>
      </trkpt>
      <trkpt lat="49.42569" lon="0.27505">
        <ele>34.7</ele>
        <time>2023-09-03T07:58:49Z</time>
      </trkpt>
      <trkpt lat="49.42573" lon="0.27504">
        <ele>34.9</ele>
        <time>2023-09-03T07:58:50Z</time>
      </trkpt>
      <trkpt lat="49.42576" lon="0.27504">
        <ele>35.1</ele>
        <time>2023-09-03T07:58:51Z</time>
      </trkpt>
      <trkpt lat="49.42579" lon="0.27503">
        <ele>35.3</ele>
        <time>2023-09-03T07:58:52Z</time>
      </trkpt>
      <trkpt lat="49.42582" lon="0.27503">
        <ele>35.5</ele>
        <time>2023-09-03T07:58:53Z</time>
      </trkpt>
      <trkpt lat="49.42585" lon="0.27502">
        <ele>35.7</ele>
        <time>2023-09-03T07:58:54Z</time>
      </trkpt>
      <trkpt lat="49.42588" lon="0.27502">
        <ele>35.9</ele>
        <time>2023-09-03T07:58:55Z</time>
      </trkpt>
      <trkpt lat="49.42591" lon="0.27502">
        <ele>36.1</ele>
        <time>2023-09-03T07:58:56Z</time>
      </trkpt>
      <trkpt lat="49.42594" lon="0.27501">
        <ele>36.3</ele>
        <time>2023-09-03T07:58:57Z</time>
      </trkpt>
      <trkpt lat="49.42597" lon="0.27501">
        <ele>36.5</ele>
        <time>2023-09-03T07:58:58Z</time>
      </trkpt>
      <trkpt lat="49.426" lon="0.27501">
        <ele>36.7</ele>
        <time>2023-09-03T07:58:59Z</time>
      </trkpt>
      <trkpt lat="49.42603" lon="0.275">
        <ele>36.9</ele>
        <time>2023-09-03T07:59:00Z</time>
      </trkpt>
      <trkpt lat="49.42606" lon="0.275">
        <ele>37.1</ele>
        <time>2023-09-03T07:59:01Z</time>
      </trkpt>
      <trkpt lat="49.42609" lon="0.27499">
        <ele>37.3</ele>
        <time>2023-09-03T07:59:02Z</time>
      </trkpt>
      <trkpt lat="49.42612" lon="0.27499">
        <ele>37.5</ele>
        <time>2023-09-03T07:59:03Z</time>
      </trkpt>
      <trkpt lat="49.42615" lon="0.27499">
        <ele>37.7</ele>
        <time>2023-09-03T07:59:04Z</time>
      </trkpt>
      <trkpt lat="49.42618" lon="0.27498">
        <ele>37.9</ele>
        <time>2023-09-03T07:59:05Z</time>
      </trkpt>
      <trkpt lat="49.42621" lon="0.27498">
        <ele>38.1</ele>
        <time>2023-09-03T07:59:06Z</time>
      </trkpt>
      <trkpt lat="49.42624" lon="0.27498">
        <ele>38.3</ele>
        <time>2023-09-03T07:59:07Z</time>
      </trkpt>
      <trkpt lat="49.42627" lon="0.27497">
        <ele>38.5</ele>
        <time>2023-09-03T07:59:08Z</time>
      </trkpt>
      <trkpt lat="49.4263" lon="0.27497">
        <ele>38.7</ele>
        <time>2023-09-03T07:59:09Z</time>
      </trkpt>
      <trkpt lat="49.42633" lon="0.27496">
        <ele>38.9</ele>
        <time>2023-09-03T07:59:10Z</time>
      </trkpt>
      <trkpt lat="49.42637" lon="0.27496">
        <ele>39.2</ele>
        <time>2023-09-03T07:59:11Z</time>
      </trkpt>
      <trkpt lat="49.4264" lon="0.27495">
        <ele>39.4</ele>
        <time>2023-09-03T07:59:12Z</time>
      </trkpt>
      <trkpt lat="49.42643" lon="0.27494">
        <ele>39.6</ele>
        <time>2023-09-03T07:59:13Z</time>
      </trkpt>
      <trkpt lat="49.42647" lon="0.27494">
        <ele>39.9</ele>
        <time>2023-09-03T07:59:14Z</time>
      </trkpt>
      <trkpt lat="49.4265" lon="0.27493">
        <ele>40.1</ele>
        <time>2023-09-03T07:59:15Z</time>
      </trkpt>
      <trkpt lat="49.42654" lon="0.27493">
        <ele>40.3</ele>
        <time>2023-09-03T07:59:16Z</time>
      </trkpt>
      <trkpt lat="49.42657" lon="0.27493">
        <ele>40.6</ele>
        <time>2023-09-03T07:59:17Z</time>
      </trkpt>
      <trkpt lat="49.42661" lon="0.27492">
        <ele>40.8</ele>
        <time>2023-09-03T07:59:18Z</time>
      </trkpt>
      <trkpt lat="49.42664" lon="0.27492">
        <ele>41</ele>
        <time>2023-09-03T07:59:19Z</time>
      </trkpt>
      <trkpt lat="49.42668" lon="0.27492">
        <ele>41.3</ele>
        <time>2023-09-03T07:59:20Z</time>
      </trkpt>
      <trkpt lat="49.42671" lon="0.27491">
        <ele>41.5</ele>
        <time>2023-09-03T07:59:21Z</time>
      </trkpt>
      <trkpt lat="49.42675" lon="0.27491">
        <ele>41.7</ele>
        <time>2023-09-03T07:59:22Z</time>
      </trkpt>
      <trkpt lat="49.42678" lon="0.2749">
        <ele>42</ele>
        <time>2023-09-03T07:59:23Z</time>
      </trkpt>
      <trkpt lat="49.42682" lon="0.2749">
        <ele>42.2</ele>
        <time>2023-09-03T07:59:24Z</time>
      </trkpt>
      <trkpt lat="49.42685" lon="0.27489">
        <ele>42.4</ele>
        <time>2023-09-03T07:59:25Z</time>
      </trkpt>
      <trkpt lat="49.42688" lon="0.27489">
        <ele>42.7</ele>
        <time>2023-09-03T07:59:26Z</time>
      </trkpt>
      <trkpt lat="49.42692" lon="0.27488">
        <ele>42.9</ele>
        <time>2023-09-03T07:59:27Z</time>
      </trkpt>
      <trkpt lat="49.42695" lon="0.27488">
        <ele>43.1</ele>
        <time>2023-09-03T07:59:28Z</time>
      </trkpt>
      <trkpt lat="49.42699" lon="0.27487">
        <ele>43.3</ele>
        <time>2023-09-03T07:59:29Z</time>
      </trkpt>
      <trkpt lat="49.42702" lon="0.27487">
        <ele>43.6</ele>
        <time>2023-09-03T07:59:30Z</time>
      </trkpt>
      <trkpt lat="49.42706" lon="0.27486">
        <ele>43.8</ele>
        <time>2023-09-03T07:59:31Z</time>
      </trkpt>
      <trkpt lat="49.42709" lon="0.27486">
        <ele>44</ele>
        <time>2023-09-03T07:59:32Z</time>
      </trkpt>
      <trkpt lat="49.42713" lon="0.27485">
        <ele>44.2</ele>
        <time>2023-09-03T07:59:33Z</time>
      </trkpt>
      <trkpt lat="49.42716" lon="0.27485">
        <ele>44.4</ele>
        <time>2023-09-03T07:59:34Z</time>
      </trkpt>
      <trkpt lat="49.4272" lon="0.27485">
        <ele>44.6</ele>
        <time>2023-09-03T07:59:35Z</time>
      </trkpt>
      <trkpt lat="49.42723" lon="0.27484">
        <ele>44.9</ele>
        <time>2023-09-03T07:59:36Z</time>
      </trkpt>
      <trkpt lat="49.42727" lon="0.27484">
        <ele>45.1</ele>
        <time>2023-09-03T07:59:37Z</time>
      </trkpt>
      <trkpt lat="49.4273" lon="0.27483">
        <ele>45.3</ele>
        <time>2023-09-03T07:59:38Z</time>
      </trkpt>
      <trkpt lat="49.42733" lon="0.27483">
        <ele>45.5</ele>
        <time>2023-09-03T07:59:39Z</time>
      </trkpt>
      <trkpt lat="49.42737" lon="0.27483">
        <ele>45.7</ele>
        <time>2023-09-03T07:59:40Z</time>
      </trkpt>
      <trkpt lat="49.4274" lon="0.27482">
        <ele>45.9</ele>
        <time>2023-09-03T07:59:41Z</time>
      </trkpt>
      <trkpt lat="49.42743" lon="0.27482">
        <ele>46.1</ele>
        <time>2023-09-03T07:59:42Z</time>
      </trkpt>
      <trkpt lat="49.42747" lon="0.27481">
        <ele>46.3</ele>
        <time>2023-09-03T07:59:43Z</time>
      </trkpt>
      <trkpt lat="49.4275" lon="0.27481">
        <ele>46.6</ele>
        <time>2023-09-03T07:59:44Z</time>
      </trkpt>
      <trkpt lat="49.42753" lon="0.2748">
        <ele>46.8</ele>
        <time>2023-09-03T07:59:45Z</time>
      </trkpt>
      <trkpt lat="49.42757" lon="0.27479">
        <ele>47</ele>
        <time>2023-09-03T07:59:46Z</time>
      </trkpt>
      <trkpt lat="49.4276" lon="0.27479">
        <ele>47.2</ele>
        <time>2023-09-03T07:59:47Z</time>
      </trkpt>
      <trkpt lat="49.42763" lon="0.27479">
        <ele>47.4</ele>
        <time>2023-09-03T07:59:48Z</time>
      </trkpt>
      <trkpt lat="49.42766" lon="0.27478">
        <ele>47.7</ele>
        <time>2023-09-03T07:59:49Z</time>
      </trkpt>
      <trkpt lat="49.4277" lon="0.27477">
        <ele>47.9</ele>
        <time>2023-09-03T07:59:50Z</time>
      </trkpt>
      <trkpt lat="49.42773" lon="0.27477">
        <ele>48.1</ele>
        <time>2023-09-03T07:59:51Z</time>
      </trkpt>
      <trkpt lat="49.42776" lon="0.27477">
        <ele>48.3</ele>
        <time>2023-09-03T07:59:52Z</time>
      </trkpt>
      <trkpt lat="49.4278" lon="0.27476">
        <ele>48.5</ele>
        <time>2023-09-03T07:59:53Z</time>
      </trkpt>
      <trkpt lat="49.42783" lon="0.27476">
        <ele>48.8</ele>
        <time>2023-09-03T07:59:54Z</time>
      </trkpt>
      <trkpt lat="49.42787" lon="0.27475">
        <ele>49</ele>
        <time>2023-09-03T07:59:55Z</time>
      </trkpt>
      <trkpt lat="49.4279" lon="0.27475">
        <ele>49.2</ele>
        <time>2023-09-03T07:59:56Z</time>
      </trkpt>
      <trkpt lat="49.42794" lon="0.27474">
        <ele>49.5</ele>
        <time>2023-09-03T07:59:57Z</time>
      </trkpt>
      <trkpt lat="49.42797" lon="0.27474">
        <ele>49.7</ele>
        <time>2023-09-03T07:59:58Z</time>
      </trkpt>
      <trkpt lat="49.42801" lon="0.27473">
        <ele>49.9</ele>
        <time>2023-09-03T07:59:59Z</time>
      </trkpt>
      <trkpt lat="49.42804" lon="0.27473">
        <ele>50.1</ele>
        <time>2023-09-03T08:00:00Z</time>
      </trkpt>
      <trkpt lat="49.42807" lon="0.27473">
        <ele>50.4</ele>
        <time>2023-09-03T08:00:01Z</time>
      </trkpt>
      <trkpt lat="49.42811" lon="0.27473">
        <ele>50.6</ele>
        <time>2023-09-03T08:00:02Z</time>
      </trkpt>
      <trkpt lat="49.42814" lon="0.27472">
        <ele>50.8</ele>
        <time>2023-09-03T08:00:03Z</time>
      </trkpt>
      <trkpt lat="49.42817" lon="0.27472">
        <ele>51</ele>
        <time>2023-09-03T08:00:04Z</time>
      </trkpt>
      <trkpt lat="49.42821" lon="0.27471">
        <ele>51.2</ele>
        <time>2023-09-03T08:00:05Z</time>
      </trkpt>
      <trkpt lat="49.42824" lon="0.27471">
        <ele>51.5</ele>
        <time>2023-09-03T08:00:06Z</time>
      </trkpt>
      <trkpt lat="49.42827" lon="0.27471">
        <ele>51.7</ele>
        <time>2023-09-03T08:00:07Z</time>
      </trkpt>
      <trkpt lat="49.4283" lon="0.2747">
        <ele>51.9</ele>
        <time>2023-09-03T08:00:08Z</time>
      </trkpt>
      <trkpt lat="49.42834" lon="0.2747">
        <ele>52.1</ele>
        <time>2023-09-03T08:00:09Z</time>
      </trkpt>
      <trkpt lat="49.42837" lon="0.27469">
        <ele>52.3</ele>
        <time>2023-09-03T08:00:10Z</time>
      </trkpt>
      <trkpt lat="49.4284" lon="0.27469">
        <ele>52.5</ele>
        <time>2023-09-03T08:00:11Z</time>
      </trkpt>
      <trkpt lat="49.42843" lon="0.27468">
        <ele>52.7</ele>
        <time>2023-09-03T08:00:12Z</time>
      </trkpt>
      <trkpt lat="49.42846" lon="0.27468">
        <ele>52.9</ele>
        <time>2023-09-03T08:00:13Z</time>
      </trkpt>
      <trkpt lat="49.4285" lon="0.27468">
        <ele>53.2</ele>
        <time>2023-09-03T08:00:14Z</time>
      </trkpt>
      <trkpt lat="49.42853" lon="0.27467">
        <ele>53.4</ele>
        <time>2023-09-03T08:00:15Z</time>
      </trkpt>
      <trkpt lat="49.42857" lon="0.27467">
        <ele>53.6</ele>
        <time>2023-09-03T08:00:16Z</time>
      </trkpt>
      <trkpt lat="49.4286" lon="0.27467">
        <ele>53.8</ele>
        <time>2023-09-03T08:00:17Z</time>
      </trkpt>
      <trkpt lat="49.42863" lon="0.27467">
        <ele>54</ele>
        <time>2023-09-03T08:00:18Z</time>
      </trkpt>
      <trkpt lat="49.42866" lon="0.27466">
        <ele>54.3</ele>
        <time>2023-09-03T08:00:19Z</time>
      </trkpt>
      <trkpt lat="49.4287" lon="0.27465">
        <ele>54.5</ele>
        <time>2023-09-03T08:00:20Z</time>
      </trkpt>
      <trkpt lat="49.42873" lon="0.27465">
        <ele>54.7</ele>
        <time>2023-09-03T08:00:21Z</time>
      </trkpt>
      <trkpt lat="49.42877" lon="0.27464">
        <ele>55</ele>
        <time>2023-09-03T08:00:22Z</time>
      </trkpt>
      <trkpt lat="49.42881" lon="0.27464">
        <ele>55.2</ele>
        <time>2023-09-03T08:00:23Z</time>
      </trkpt>
      <trkpt lat="49.42884" lon="0.27463">
        <ele>55.4</ele>
        <time>2023-09-03T08:00:24Z</time>
      </trkpt>
      <trkpt lat="49.42887" lon="0.27462">
        <ele>55.6</ele>
        <time>2023-09-03T08:00:25Z</time>
      </trkpt>
      <trkpt lat="49.42891" lon="0.27462">
        <ele>55.8</ele>
        <time>2023-09-03T08:00:26Z</time>
      </trkpt>
      <trkpt lat="49.42894" lon="0.27462">
        <ele>56</ele>
        <time>2023-09-03T08:00:27Z</time>
      </trkpt>
      <trkpt lat="49.42897" lon="0.27461">
        <ele>56.2</ele>
        <time>2023-09-03T08:00:28Z</time>
      </trkpt>
      <trkpt lat="49.42901" lon="0.27461">
        <ele>56.4</ele>
        <time>2023-09-03T08:00:29Z</time>
      </trkpt>
      <trkpt lat="49.42904" lon="0.2746">
        <ele>56.6</ele>
        <time>2023-09-03T08:00:30Z</time>
      </trkpt>
      <trkpt lat="49.42908" lon="0.2746">
        <ele>56.8</ele>
        <time>2023-09-03T08:00:31Z</time>
      </trkpt>
      <trkpt lat="49.42911" lon="0.27459">
        <ele>57</ele>
        <time>2023-09-03T08:00:32Z</time>
      </trkpt>
      <trkpt lat="49.42915" lon="0.27459">
        <ele>57.2</ele>
        <time>2023-09-03T08:00:33Z</time>
      </trkpt>
      <trkpt lat="49.42918" lon="0.27458">
        <ele>57.4</ele>
        <time>2023-09-03T08:00:34Z</time>
      </trkpt>
      <trkpt lat="49.42922" lon="0.27458">
        <ele>57.6</ele>
        <time>2023-09-03T08:00:35Z</time>
      </trkpt>
      <trkpt lat="49.42925" lon="0.27458">
        <ele>57.7</ele>
        <time>2023-09-03T08:00:36Z</time>
      </trkpt>
      <trkpt lat="49.42928" lon="0.27457">
        <ele>57.9</ele>
        <time>2023-09-03T08:00:37Z</time>
      </trkpt>
      <trkpt lat="49.42932" lon="0.27457">
        <ele>58.1</ele>
        <time>2023-09-03T08:00:38Z</time>
      </trkpt>
      <trkpt lat="49.42935" lon="0.27456">
        <ele>58.3</ele>
        <time>2023-09-03T08:00:39Z</time>
      </trkpt>
      <trkpt lat="49.42939" lon="0.27456">
        <ele>58.5</ele>
        <time>2023-09-03T08:00:40Z</time>
      </trkpt>
      <trkpt lat="49.42942" lon="0.27455">
        <ele>58.6</ele>
        <time>2023-09-03T08:00:41Z</time>
      </trkpt>
      <trkpt lat="49.42946" lon="0.27455">
        <ele>58.8</ele>
        <time>2023-09-03T08:00:42Z</time>
      </trkpt>
      <trkpt lat="49.42949" lon="0.27454">
        <ele>59</ele>
        <time>2023-09-03T08:00:43Z</time>
      </trkpt>
      <trkpt lat="49.42953" lon="0.27454">
        <ele>59.2</ele>
        <time>2023-09-03T08:00:44Z</time>
      </trkpt>
      <trkpt lat="49.42956" lon="0.27453">
        <ele>59.4</ele>
        <time>2023-09-03T08:00:45Z</time>
      </trkpt>
      <trkpt lat="49.42959" lon="0.27453">
        <ele>59.5</ele>
        <time>2023-09-03T08:00:46Z</time>
      </trkpt>
      <trkpt lat="49.42963" lon="0.27452">
        <ele>59.7</ele>
        <time>2023-09-03T08:00:47Z</time>
      </trkpt>
      <trkpt lat="49.42966" lon="0.27452">
        <ele>59.9</ele>
        <time>2023-09-03T08:00:48Z</time>
      </trkpt>
      <trkpt lat="49.4297" lon="0.27451">
        <ele>60</ele>
        <time>2023-09-03T08:00:49Z</time>
      </trkpt>
      <trkpt lat="49.42974" lon="0.27451">
        <ele>60.2</ele>
        <time>2023-09-03T08:00:50Z</time>
      </trkpt>
      <trkpt lat="49.42977" lon="0.2745">
        <ele>60.3</ele>
        <time>2023-09-03T08:00:51Z</time>
      </trkpt>
      <trkpt lat="49.42981" lon="0.2745">
        <ele>60.5</ele>
        <time>2023-09-03T08:00:52Z</time>
      </trkpt>
      <trkpt lat="49.42984" lon="0.27449">
        <ele>60.6</ele>
        <time>2023-09-03T08:00:53Z</time>
      </trkpt>
      <trkpt lat="49.42988" lon="0.27448">
        <ele>60.8</ele>
        <time>2023-09-03T08:00:54Z</time>
      </trkpt>
      <trkpt lat="49.42992" lon="0.27448">
        <ele>61</ele>
        <time>2023-09-03T08:00:55Z</time>
      </trkpt>
      <trkpt lat="49.42996" lon="0.27447">
        <ele>61.1</ele>
        <time>2023-09-03T08:00:56Z</time>
      </trkpt>
      <trkpt lat="49.42999" lon="0.27446">
        <ele>61.3</ele>
        <time>2023-09-03T08:00:57Z</time>
      </trkpt>
      <trkpt lat="49.43003" lon="0.27445">
        <ele>61.5</ele>
        <time>2023-09-03T08:00:58Z</time>
      </trkpt>
      <trkpt lat="49.43007" lon="0.27445">
        <ele>61.6</ele>
        <time>2023-09-03T08:00:59Z</time>
      </trkpt>
      <trkpt lat="49.43011" lon="0.27444">
        <ele>61.8</ele>
        <time>2023-09-03T08:01:00Z</time>
      </trkpt>
      <trkpt lat="49.43014" lon="0.27443">
        <ele>61.9</ele>
        <time>2023-09-03T08:01:01Z</time>
      </trkpt>
      <trkpt lat="49.43019" lon="0.27443">
        <ele>62.1</ele>
        <time>2023-09-03T08:01:02Z</time>
      </trkpt>
      <trkpt lat="49.43022" lon="0.27442">
        <ele>62.2</ele>
        <time>2023-09-03T08:01:03Z</time>
      </trkpt>
      <trkpt lat="49.43026" lon="0.27442">
        <ele>62.4</ele>
        <time>2023-09-03T08:01:04Z</time>
      </trkpt>
      <trkpt lat="49.4303" lon="0.27441">
        <ele>62.5</ele>
        <time>2023-09-03T08:01:05Z</time>
      </trkpt>
      <trkpt lat="49.43034" lon="0.27441">
        <ele>62.7</ele>
        <time>2023-09-03T08:01:06Z</time>
      </trkpt>
      <trkpt lat="49.43038" lon="0.2744">
        <ele>62.8</ele>
        <time>2023-09-03T08:01:07Z</time>
      </trkpt>
      <trkpt lat="49.43042" lon="0.2744">
        <ele>62.9</ele>
        <time>2023-09-03T08:01:08Z</time>
      </trkpt>
      <trkpt lat="49.43046" lon="0.27439">
        <ele>63.1</ele>
        <time>2023-09-03T08:01:09Z</time>
      </trkpt>
      <trkpt lat="49.4305" lon="0.27439">
        <ele>63.2</ele>
        <time>2023-09-03T08:01:10Z</time>
      </trkpt>
      <trkpt lat="49.43054" lon="0.27439">
        <ele>63.3</ele>
        <time>2023-09-03T08:01:11Z</time>
      </trkpt>
      <trkpt lat="49.43059" lon="0.27438">
        <ele>63.5</ele>
        <time>2023-09-03T08:01:12Z</time>
      </trkpt>
      <trkpt lat="49.43063" lon="0.27437">
        <ele>63.6</ele>
        <time>2023-09-03T08:01:13Z</time>
      </trkpt>
      <trkpt lat="49.43067" lon="0.27437">
        <ele>63.7</ele>
        <time>2023-09-03T08:01:14Z</time>
      </trkpt>
      <trkpt lat="49.43071" lon="0.27436">
        <ele>63.9</ele>
        <time>2023-09-03T08:01:15Z</time>
      </trkpt>
      <trkpt lat="49.43075" lon="0.27435">
        <ele>64</ele>
        <time>2023-09-03T08:01:16Z</time>
      </trkpt>
      <trkpt lat="49.4308" lon="0.27435">
        <ele>64.2</ele>
        <time>2023-09-03T08:01:17Z</time>
      </trkpt>
      <trkpt lat="49.43084" lon="0.27434">
        <ele>64.3</ele>
        <time>2023-09-03T08:01:18Z</time>
      </trkpt>
      <trkpt lat="49.43089" lon="0.27434">
        <ele>64.4</ele>
        <time>2023-09-03T08:01:19Z</time>
      </trkpt>
      <trkpt lat="49.43093" lon="0.27433">
        <ele>64.5</ele>
        <time>2023-09-03T08:01:20Z</time>
      </trkpt>
      <trkpt lat="49.43098" lon="0.27432">
        <ele>64.6</ele>
        <time>2023-09-03T08:01:21Z</time>
      </trkpt>
      <trkpt lat="49.43103" lon="0.27431">
        <ele>64.8</ele>
        <time>2023-09-03T08:01:22Z</time>
      </trkpt>
      <trkpt lat="49.43107" lon="0.27431">
        <ele>64.9</ele>
        <time>2023-09-03T08:01:23Z</time>
      </trkpt>
      <trkpt lat="49.43112" lon="0.2743">
        <ele>65</ele>
        <time>2023-09-03T08:01:24Z</time>
      </trkpt>
      <trkpt lat="49.43117" lon="0.27429">
        <ele>65.1</ele>
        <time>2023-09-03T08:01:25Z</time>
      </trkpt>
      <trkpt lat="49.43122" lon="0.27429">
        <ele>65.2</ele>
        <time>2023-09-03T08:01:26Z</time>
      </trkpt>
      <trkpt lat="49.43127" lon="0.27428">
        <ele>65.3</ele>
        <time>2023-09-03T08:01:27Z</time>
      </trkpt>
      <trkpt lat="49.43132" lon="0.27427">
        <ele>65.4</ele>
        <time>2023-09-03T08:01:28Z</time>
      </trkpt>
      <trkpt lat="49.43137" lon="0.27427">
        <ele>65.5</ele>
        <time>2023-09-03T08:01:29Z</time>
      </trkpt>
      <trkpt lat="49.43142" lon="0.27426">
        <ele>65.6</ele>
        <time>2023-09-03T08:01:30Z</time>
      </trkpt>
      <trkpt lat="49.43147" lon="0.27425">
        <ele>65.7</ele>
        <time>2023-09-03T08:01:31Z</time>
      </trkpt>
      <trkpt lat="49.43152" lon="0.27424">
        <ele>65.7</ele>
        <time>2023-09-03T08:01:32Z</time>
      </trkpt>
      <trkpt lat="49.43157" lon="0.27423">
        <ele>65.8</ele>
        <time>2023-09-03T08:01:33Z</time>
      </trkpt>
      <trkpt lat="49.43162" lon="0.27422">
        <ele>65.9</ele>
        <time>2023-09-03T08:01:34Z</time>
      </trkpt>
      <trkpt lat="49.43167" lon="0.27422">
        <ele>66</ele>
        <time>2023-09-03T08:01:35Z</time>
      </trkpt>
      <trkpt lat="49.43172" lon="0.27421">
        <ele>66</ele>
        <time>2023-09-03T08:01:36Z</time>
      </trkpt>
      <trkpt lat="49.43177" lon="0.27421">
        <ele>66.1</ele>
        <time>2023-09-03T08:01:37Z</time>
      </trkpt>
      <trkpt lat="49.43183" lon="0.2742">
        <ele>66.1</ele>
        <time>2023-09-03T08:01:38Z</time>
      </trkpt>
      <trkpt lat="49.43188" lon="0.27419">
        <ele>66.2</ele>
        <time>2023-09-03T08:01:39Z</time>
      </trkpt>
      <trkpt lat="49.43193" lon="0.27419">
        <ele>66.2</ele>
        <time>2023-09-03T08:01:40Z</time>
      </trkpt>
      <trkpt lat="49.43198" lon="0.27418">
        <ele>66.3</ele>
        <time>2023-09-03T08:01:41Z</time>
      </trkpt>
      <trkpt lat="49.43204" lon="0.27417">
        <ele>66.3</ele>
        <time>2023-09-03T08:01:42Z</time>
      </trkpt>
      <trkpt lat="49.43209" lon="0.27417">
        <ele>66.3</ele>
        <time>2023-09-03T08:01:43Z</time>
      </trkpt>
      <trkpt lat="49.43214" lon="0.27416">
        <ele>66.4</ele>
        <time>2023-09-03T08:01:44Z</time>
      </trkpt>
      <trkpt lat="49.4322" lon="0.27415">
        <ele>66.4</ele>
        <time>2023-09-03T08:01:45Z</time>
      </trkpt>
      <trkpt lat="49.43225" lon="0.27414">
        <ele>66.4</ele>
        <time>2023-09-03T08:01:46Z</time>
      </trkpt>
      <trkpt lat="49.43231" lon="0.27413">
        <ele>66.4</ele>
        <time>2023-09-03T08:01:47Z</time>
      </trkpt>
      <trkpt lat="49.43236" lon="0.27413">
        <ele>66.4</ele>
        <time>2023-09-03T08:01:48Z</time>
      </trkpt>
      <trkpt lat="49.43242" lon="0.27412">
        <ele>66.4</ele>
        <time>2023-09-03T08:01:49Z</time>
      </trkpt>
      <trkpt lat="49.43248" lon="0.27412">
        <ele>66.4</ele>
        <time>2023-09-03T08:01:50Z</time>
      </trkpt>
      <trkpt lat="49.43254" lon="0.27411">
        <ele>66.4</ele>
        <time>2023-09-03T08:01:51Z</time>
      </trkpt>
      <trkpt lat="49.4326" lon="0.2741">
        <ele>66.4</ele>
        <time>2023-09-03T08:01:52Z</time>
      </trkpt>
      <trkpt lat="49.43265" lon="0.2741">
        <ele>66.4</ele>
        <time>2023-09-03T08:01:53Z</time>
      </trkpt>
      <trkpt lat="49.43271" lon="0.27409">
        <ele>66.3</ele>
        <time>2023-09-03T08:01:54Z</time>
      </trkpt>
      <trkpt lat="49.43278" lon="0.27408">
        <ele>66.3</ele>
        <time>2023-09-03T08:01:55Z</time>
      </trkpt>
      <trkpt lat="49.43284" lon="0.27407">
        <ele>66.3</ele>
        <time>2023-09-03T08:01:56Z</time>
      </trkpt>
      <trkpt lat="49.4329" lon="0.27406">
        <ele>66.3</ele>
        <time>2023-09-03T08:01:57Z</time>
      </trkpt>
      <trkpt lat="49.43297" lon="0.27405">
        <ele>66.2</ele>
        <time>2023-09-03T08:01:58Z</time>
      </trkpt>
      <trkpt lat="49.43303" lon="0.27404">
        <ele>66.2</ele>
        <time>2023-09-03T08:01:59Z</time>
      </trkpt>
      <trkpt lat="49.4331" lon="0.27403">
        <ele>66.1</ele>
        <time>2023-09-03T08:02:00Z</time>
      </trkpt>
      <trkpt lat="49.43316" lon="0.27402">
        <ele>66</ele>
        <time>2023-09-03T08:02:01Z</time>
      </trkpt>
      <trkpt lat="49.43322" lon="0.27402">
        <ele>65.9</ele>
        <time>2023-09-03T08:02:02Z</time>
      </trkpt>
      <trkpt lat="49.43329" lon="0.27401">
        <ele>65.8</ele>
        <time>2023-09-03T08:02:03Z</time>
      </trkpt>
      <trkpt lat="49.43335" lon="0.274">
        <ele>65.7</ele>
        <time>2023-09-03T08:02:04Z</time>
      </trkpt>
      <trkpt lat="49.43342" lon="0.27399">
        <ele>65.6</ele>
        <time>2023-09-03T08:02:05Z</time>
      </trkpt>
      <trkpt lat="49.43349" lon="0.27398">
        <ele>65.5</ele>
        <time>2023-09-03T08:02:06Z</time>
      </trkpt>
      <trkpt lat="49.43356" lon="0.27397">
        <ele>65.4</ele>
        <time>2023-09-03T08:02:07Z</time>
      </trkpt>
      <trkpt lat="49.43363" lon="0.27396">
        <ele>65.2</ele>
        <time>2023-09-03T08:02:08Z</time>
      </trkpt>
      <trkpt lat="49.43369" lon="0.27395">
        <ele>65.1</ele>
        <time>2023-09-03T08:02:09Z</time>
      </trkpt>
      <trkpt lat="49.43377" lon="0.27394">
        <ele>65</ele>
        <time>2023-09-03T08:02:10Z</time>
      </trkpt>
      <trkpt lat="49.43384" lon="0.27393">
        <ele>64.8</ele>
        <time>2023-09-03T08:02:11Z</time>
      </trkpt>
      <trkpt lat="49.43391" lon="0.27392">
        <ele>64.6</ele>
        <time>2023-09-03T08:02:12Z</time>
      </trkpt>
      <trkpt lat="49.43398" lon="0.27391">
        <ele>64.5</ele>
        <time>2023-09-03T08:02:13Z</time>
      </trkpt>
      <trkpt lat="49.43405" lon="0.2739">
        <ele>64.3</ele>
        <time>2023-09-03T08:02:14Z</time>
      </trkpt>
      <trkpt lat="49.43413" lon="0.27389">
        <ele>64.1</ele>
        <time>2023-09-03T08:02:15Z</time>
      </trkpt>
      <trkpt lat="49.4342" lon="0.27388">
        <ele>63.8</ele>
        <time>2023-09-03T08:02:16Z</time>
      </trkpt>
      <trkpt lat="49.43428" lon="0.27387">
        <ele>63.6</ele>
        <time>2023-09-03T08:02:17Z</time>
      </trkpt>
      <trkpt lat="49.43435" lon="0.27386">
        <ele>63.3</ele>
        <time>2023-09-03T08:02:18Z</time>
      </trkpt>
      <trkpt lat="49.43443" lon="0.27385">
        <ele>63.1</ele>
        <time>2023-09-03T08:02:19Z</time>
      </trkpt>
      <trkpt lat="49.43451" lon="0.27384">
        <ele>62.8</ele>
        <time>2023-09-03T08:02:20Z</time>
      </trkpt>
      <trkpt lat="49.43459" lon="0.27383">
        <ele>62.5</ele>
        <time>2023-09-03T08:02:21Z</time>
      </trkpt>
      <trkpt lat="49.43467" lon="0.27381">
        <ele>62.2</ele>
        <time>2023-09-03T08:02:22Z</time>
      </trkpt>
      <trkpt lat="49.43475" lon="0.2738">
        <ele>61.9</ele>
        <time>2023-09-03T08:02:23Z</time>
      </trkpt>
      <trkpt lat="49.43484" lon="0.27379">
        <ele>61.6</ele>
        <time>2023-09-03T08:02:24Z</time>
      </trkpt>
      <trkpt lat="49.43492" lon="0.27378">
        <ele>61.2</ele>
        <time>2023-09-03T08:02:25Z</time>
      </trkpt>
      <trkpt lat="49.43501" lon="0.27377">
        <ele>60.7</ele>
        <time>2023-09-03T08:02:26Z</time>
      </trkpt>
      <trkpt lat="49.43511" lon="0.27375">
        <ele>60.3</ele>
        <time>2023-09-03T08:02:27Z</time>
      </trkpt>
      <trkpt lat="49.4352" lon="0.27374">
        <ele>59.9</ele>
        <time>2023-09-03T08:02:28Z</time>
      </trkpt>
      <trkpt lat="49.4353" lon="0.27373">
        <ele>59.5</ele>
        <time>2023-09-03T08:02:29Z</time>
      </trkpt>
      <trkpt lat="49.43539" lon="0.27371">
        <ele>59.1</ele>
        <time>2023-09-03T08:02:30Z</time>
      </trkpt>
      <trkpt lat="49.43549" lon="0.2737">
        <ele>58.6</ele>
        <time>2023-09-03T08:02:31Z</time>
      </trkpt>
      <trkpt lat="49.43559" lon="0.27369">
        <ele>58.1</ele>
        <time>2023-09-03T08:02:32Z</time>
      </trkpt>
      <trkpt lat="49.43569" lon="0.27367">
        <ele>57.6</ele>
        <time>2023-09-03T08:02:33Z</time>
      </trkpt>
      <trkpt lat="49.43579" lon="0.27365">
        <ele>57.1</ele>
        <time>2023-09-03T08:02:34Z</time>
      </trkpt>
      <trkpt lat="49.43589" lon="0.27364">
        <ele>56.6</ele>
        <time>2023-09-03T08:02:35Z</time>
      </trkpt>
      <trkpt lat="49.43599" lon="0.27362">
        <ele>56.1</ele>
        <time>2023-09-03T08:02:36Z</time>
      </trkpt>
      <trkpt lat="49.4361" lon="0.2736">
        <ele>55.6</ele>
        <time>2023-09-03T08:02:37Z</time>
      </trkpt>
      <trkpt lat="49.43621" lon="0.27359">
        <ele>54.9</ele>
        <time>2023-09-03T08:02:38Z</time>
      </trkpt>
      <trkpt lat="49.43631" lon="0.27358">
        <ele>54.1</ele>
        <time>2023-09-03T08:02:39Z</time>
      </trkpt>
      <trkpt lat="49.43642" lon="0.27356">
        <ele>53.3</ele>
        <time>2023-09-03T08:02:40Z</time>
      </trkpt>
      <trkpt lat="49.43654" lon="0.27355">
        <ele>52.6</ele>
        <time>2023-09-03T08:02:41Z</time>
      </trkpt>
      <trkpt lat="49.43665" lon="0.27353">
        <ele>51.8</ele>
        <time>2023-09-03T08:02:42Z</time>
      </trkpt>
      <trkpt lat="49.43676" lon="0.27352">
        <ele>51</ele>
        <time>2023-09-03T08:02:43Z</time>
      </trkpt>
      <trkpt lat="49.43687" lon="0.2735">
        <ele>50.2</ele>
        <time>2023-09-03T08:02:44Z</time>
      </trkpt>
      <trkpt lat="49.43699" lon="0.27348">
        <ele>49.3</ele>
        <time>2023-09-03T08:02:45Z</time>
      </trkpt>
      <trkpt lat="49.43711" lon="0.27347">
        <ele>48.5</ele>
        <time>2023-09-03T08:02:46Z</time>
      </trkpt>
      <trkpt lat="49.43723" lon="0.27345">
        <ele>47.7</ele>
        <time>2023-09-03T08:02:47Z</time>
      </trkpt>
      <trkpt lat="49.43734" lon="0.27344">
        <ele>47</ele>
        <time>2023-09-03T08:02:48Z</time>
      </trkpt>
      <trkpt lat="49.43746" lon="0.27342">
        <ele>46.2</ele>
        <time>2023-09-03T08:02:49Z</time>
      </trkpt>
      <trkpt lat="49.43758" lon="0.2734">
        <ele>45.3</ele>
        <time>2023-09-03T08:02:50Z</time>
      </trkpt>
      <trkpt lat="49.4377" lon="0.27339">
        <ele>44.5</ele>
        <time>2023-09-03T08:02:51Z</time>
      </trkpt>
      <trkpt lat="49.43782" lon="0.27337">
        <ele>43.6</ele>
        <time>2023-09-03T08:02:52Z</time>
      </trkpt>
      <trkpt lat="49.43794" lon="0.27336">
        <ele>42.8</ele>
        <time>2023-09-03T08:02:53Z</time>
      </trkpt>
      <trkpt lat="49.43806" lon="0.27334">
        <ele>41.9</ele>
        <time>2023-09-03T08:02:54Z</time>
      </trkpt>
      <trkpt lat="49.43818" lon="0.27332">
        <ele>41</ele>
        <time>2023-09-03T08:02:55Z</time>
      </trkpt>
      <trkpt lat="49.4383" lon="0.27331">
        <ele>40.2</ele>
        <time>2023-09-03T08:02:56Z</time>
      </trkpt>
      <trkpt lat="49.43842" lon="0.27329">
        <ele>39.4</ele>
        <time>2023-09-03T08:02:57Z</time>
      </trkpt>
      <trkpt lat="49.43855" lon="0.27327">
        <ele>38.5</ele>
        <time>2023-09-03T08:02:58Z</time>
      </trkpt>
      <trkpt lat="49.43867" lon="0.27326">
        <ele>37.7</ele>
        <time>2023-09-03T08:02:59Z</time>
      </trkpt>
      <trkpt lat="49.43879" lon="0.27324">
        <ele>36.8</ele>
        <time>2023-09-03T08:03:00Z</time>
      </trkpt>
      <trkpt lat="49.43891" lon="0.27323">
        <ele>36</ele>
        <time>2023-09-03T08:03:01Z</time>
      </trkpt>
      <trkpt lat="49.43904" lon="0.27321">
        <ele>35.1</ele>
        <time>2023-09-03T08:03:02Z</time>
      </trkpt>
      <trkpt lat="49.43916" lon="0.27319">
        <ele>34.3</ele>
        <time>2023-09-03T08:03:03Z</time>
      </trkpt>
      <trkpt lat="49.43928" lon="0.27318">
        <ele>33.4</ele>
        <time>2023-09-03T08:03:04Z</time>
      </trkpt>
      <trkpt lat="49.43941" lon="0.27316">
        <ele>32.6</ele>
        <time>2023-09-03T08:03:05Z</time>
      </trkpt>
      <trkpt lat="49.43953" lon="0.27314">
        <ele>31.8</ele>
        <time>2023-09-03T08:03:06Z</time>
      </trkpt>
      <trkpt lat="49.43965" lon="0.27312">
        <ele>31.1</ele>
        <time>2023-09-03T08:03:07Z</time>
      </trkpt>
      <trkpt lat="49.43978" lon="0.2731">
        <ele>30.4</ele>
        <time>2023-09-03T08:03:08Z</time>
      </trkpt>
      <trkpt lat="49.43991" lon="0.27309">
        <ele>29.6</ele>
        <time>2023-09-03T08:03:09Z</time>
      </trkpt>
      <trkpt lat="49.44003" lon="0.27307">
        <ele>28.7</ele>
        <time>2023-09-03T08:03:10Z</time>
      </trkpt>
      <trkpt lat="49.44015" lon="0.27305">
        <ele>27.7</ele>
        <time>2023-09-03T08:03:11Z</time>
      </trkpt>
      <trkpt lat="49.44028" lon="0.27304">
        <ele>26.9</ele>
        <time>2023-09-03T08:03:12Z</time>
      </trkpt>
      <trkpt lat="49.4404" lon="0.27302">
        <ele>26.1</ele>
        <time>2023-09-03T08:03:13Z</time>
      </trkpt>
      <trkpt lat="49.44053" lon="0.273">
        <ele>25.3</ele>
        <time>2023-09-03T08:03:14Z</time>
      </trkpt>
      <trkpt lat="49.44065" lon="0.27298">
        <ele>24.4</ele>
        <time>2023-09-03T08:03:15Z</time>
      </trkpt>
      <trkpt lat="49.44078" lon="0.27296">
        <ele>23.5</ele>
        <time>2023-09-03T08:03:16Z</time>
      </trkpt>
      <trkpt lat="49.4409" lon="0.27294">
        <ele>22.7</ele>
        <time>2023-09-03T08:03:17Z</time>
      </trkpt>
      <trkpt lat="49.44103" lon="0.27293">
        <ele>21.8</ele>
        <time>2023-09-03T08:03:18Z</time>
      </trkpt>
      <trkpt lat="49.44116" lon="0.27291">
        <ele>20.9</ele>
        <time>2023-09-03T08:03:19Z</time>
      </trkpt>
      <trkpt lat="49.44128" lon="0.27289">
        <ele>20</ele>
        <time>2023-09-03T08:03:20Z</time>
      </trkpt>
      <trkpt lat="49.44141" lon="0.27288">
        <ele>19.1</ele>
        <time>2023-09-03T08:03:21Z</time>
      </trkpt>
      <trkpt lat="49.44153" lon="0.27286">
        <ele>18.2</ele>
        <time>2023-09-03T08:03:22Z</time>
      </trkpt>
      <trkpt lat="49.44166" lon="0.27285">
        <ele>17.3</ele>
        <time>2023-09-03T08:03:23Z</time>
      </trkpt>
      <trkpt lat="49.44179" lon="0.27283">
        <ele>16.4</ele>
        <time>2023-09-03T08:03:24Z</time>
      </trkpt>
      <trkpt lat="49.44191" lon="0.27281">
        <ele>15.6</ele>
        <time>2023-09-03T08:03:25Z</time>
      </trkpt>
      <trkpt lat="49.44204" lon="0.27279">
        <ele>14.8</ele>
        <time>2023-09-03T08:03:26Z</time>
      </trkpt>
      <trkpt lat="49.44217" lon="0.27278">
        <ele>14</ele>
        <time>2023-09-03T08:03:27Z</time>
      </trkpt>
      <trkpt lat="49.44229" lon="0.27276">
        <ele>13.2</ele>
        <time>2023-09-03T08:03:28Z</time>
      </trkpt>
      <trkpt lat="49.44242" lon="0.27274">
        <ele>12.4</ele>
        <time>2023-09-03T08:03:29Z</time>
      </trkpt>
      <trkpt lat="49.44255" lon="0.27272">
        <ele>11.7</ele>
        <time>2023-09-03T08:03:30Z</time>
      </trkpt>
      <trkpt lat="49.44268" lon="0.27271">
        <ele>11</ele>
        <time>2023-09-03T08:03:31Z</time>
      </trkpt>
      <trkpt lat="49.4428" lon="0.27269">
        <ele>10.3</ele>
        <time>2023-09-03T08:03:32Z</time>
      </trkpt>
      <trkpt lat="49.44293" lon="0.27267">
        <ele>9.4</ele>
        <time>2023-09-03T08:03:33Z</time>
      </trkpt>
      <trkpt lat="49.44306" lon="0.27265">
        <ele>8.7</ele>
        <time>2023-09-03T08:03:34Z</time>
      </trkpt>
      <trkpt lat="49.44318" lon="0.27264">
        <ele>8</ele>
        <time>2023-09-03T08:03:35Z</time>
      </trkpt>
      <trkpt lat="49.44331" lon="0.27263">
        <ele>7.3</ele>
        <time>2023-09-03T08:03:36Z</time>
      </trkpt>
      <trkpt lat="49.44343" lon="0.27261">
        <ele>6.7</ele>
        <time>2023-09-03T08:03:37Z</time>
      </trkpt>
      <trkpt lat="49.44355" lon="0.2726">
        <ele>6.2</ele>
        <time>2023-09-03T08:03:38Z</time>
      </trkpt>
      <trkpt lat="49.44368" lon="0.27258">
        <ele>5.8</ele>
        <time>2023-09-03T08:03:39Z</time>
      </trkpt>
      <trkpt lat="49.4438" lon="0.27256">
        <ele>5.4</ele>
        <time>2023-09-03T08:03:40Z</time>
      </trkpt>
      <trkpt lat="49.44392" lon="0.27254">
        <ele>5.1</ele>
        <time>2023-09-03T08:03:41Z</time>
      </trkpt>
      <trkpt lat="49.44404" lon="0.27252">
        <ele>5</ele>
        <time>2023-09-03T08:03:42Z</time>
      </trkpt>
      <trkpt lat="49.44415" lon="0.27251">
        <ele>4.8</ele>
        <time>2023-09-03T08:03:43Z</time>
      </trkpt>
      <trkpt lat="49.44426" lon="0.27249">
        <ele>4.8</ele>
        <time>2023-09-03T08:03:44Z</time>
      </trkpt>
      <trkpt lat="49.44437" lon="0.27248">
        <ele>4.9</ele>
        <time>2023-09-03T08:03:45Z</time>
      </trkpt>
      <trkpt lat="49.44448" lon="0.27246">
        <ele>4.9</ele>
        <time>2023-09-03T08:03:46Z</time>
      </trkpt>
      <trkpt lat="49.44459" lon="0.27245">
        <ele>5</ele>
        <time>2023-09-03T08:03:47Z</time>
      </trkpt>
      <trkpt lat="49.4447" lon="0.27243">
        <ele>5</ele>
        <time>2023-09-03T08:03:48Z</time>
      </trkpt>
      <trkpt lat="49.4448" lon="0.27242">
        <ele>5.1</ele>
        <time>2023-09-03T08:03:49Z</time>
      </trkpt>
      <trkpt lat="49.44491" lon="0.2724">
        <ele>5.2</ele>
        <time>2023-09-03T08:03:50Z</time>
      </trkpt>
      <trkpt lat="49.44501" lon="0.27239">
        <ele>5.4</ele>
        <time>2023-09-03T08:03:51Z</time>
      </trkpt>
      <trkpt lat="49.44511" lon="0.27237">
        <ele>5.6</ele>
        <time>2023-09-03T08:03:52Z</time>
      </trkpt>
      <trkpt lat="49.44522" lon="0.27235">
        <ele>5.7</ele>
        <time>2023-09-03T08:03:53Z</time>
      </trkpt>
      <trkpt lat="49.44532" lon="0.27233">
        <ele>5.7</ele>
        <time>2023-09-03T08:03:54Z</time>
      </trkpt>
      <trkpt lat="49.44542" lon="0.27233">
        <ele>5.7</ele>
        <time>2023-09-03T08:03:55Z</time>
      </trkpt>
      <trkpt lat="49.44551" lon="0.27232">
        <ele>5.8</ele>
        <time>2023-09-03T08:03:56Z</time>
      </trkpt>
      <trkpt lat="49.44561" lon="0.27231">
        <ele>5.8</ele>
        <time>2023-09-03T08:03:57Z</time>
      </trkpt>
      <trkpt lat="49.4457" lon="0.2723">
        <ele>5.8</ele>
        <time>2023-09-03T08:03:58Z</time>
      </trkpt>
      <trkpt lat="49.44579" lon="0.27229">
        <ele>5.8</ele>
        <time>2023-09-03T08:03:59Z</time>
      </trkpt>
      <trkpt lat="49.44588" lon="0.27228">
        <ele>5.8</ele>
        <time>2023-09-03T08:04:00Z</time>
      </trkpt>
      <trkpt lat="49.44596" lon="0.27227">
        <ele>5.7</ele>
        <time>2023-09-03T08:04:01Z</time>
      </trkpt>
      <trkpt lat="49.44605" lon="0.27225">
        <ele>5.7</ele>
        <time>2023-09-03T08:04:02Z</time>
      </trkpt>
      <trkpt lat="49.44613" lon="0.27224">
        <ele>5.8</ele>
        <time>2023-09-03T08:04:03Z</time>
      </trkpt>
      <trkpt lat="49.44622" lon="0.27222">
        <ele>5.8</ele>
        <time>2023-09-03T08:04:04Z</time>
      </trkpt>
      <trkpt lat="49.4463" lon="0.27221">
        <ele>5.8</ele>
        <time>2023-09-03T08:04:05Z</time>
      </trkpt>
      <trkpt lat="49.44638" lon="0.2722">
        <ele>5.8</ele>
        <time>2023-09-03T08:04:06Z</time>
      </trkpt>
      <trkpt lat="49.44646" lon="0.27219">
        <ele>5.8</ele>
        <time>2023-09-03T08:04:07Z</time>
      </trkpt>
      <trkpt lat="49.44654" lon="0.27218">
        <ele>5.8</ele>
        <time>2023-09-03T08:04:08Z</time>
      </trkpt>
      <trkpt lat="49.44662" lon="0.27216">
        <ele>5.8</ele>
        <time>2023-09-03T08:04:09Z</time>
      </trkpt>
      <trkpt lat="49.44669" lon="0.27215">
        <ele>5.8</ele>
        <time>2023-09-03T08:04:10Z</time>
      </trkpt>
      <trkpt lat="49.44677" lon="0.27214">
        <ele>5.8</ele>
        <time>2023-09-03T08:04:11Z</time>
      </trkpt>
      <trkpt lat="49.44685" lon="0.27213">
        <ele>5.7</ele>
        <time>2023-09-03T08:04:12Z</time>
      </trkpt>
      <trkpt lat="49.44693" lon="0.27212">
        <ele>5.7</ele>
        <time>2023-09-03T08:04:13Z</time>
      </trkpt>
      <trkpt lat="49.44701" lon="0.27211">
        <ele>5.7</ele>
        <time>2023-09-03T08:04:14Z</time>
      </trkpt>
      <trkpt lat="49.44708" lon="0.2721">
        <ele>5.7</ele>
        <time>2023-09-03T08:04:15Z</time>
      </trkpt>
      <trkpt lat="49.44715" lon="0.27209">
        <ele>5.7</ele>
        <time>2023-09-03T08:04:16Z</time>
      </trkpt>
      <trkpt lat="49.44723" lon="0.27208">
        <ele>5.7</ele>
        <time>2023-09-03T08:04:17Z</time>
      </trkpt>
      <trkpt lat="49.4473" lon="0.27207">
        <ele>5.7</ele>
        <time>2023-09-03T08:04:18Z</time>
      </trkpt>
      <trkpt lat="49.44736" lon="0.27206">
        <ele>5.7</ele>
        <time>2023-09-03T08:04:19Z</time>
      </trkpt>
      <trkpt lat="49.44743" lon="0.27206">
        <ele>5.7</ele>
        <time>2023-09-03T08:04:20Z</time>
      </trkpt>
      <trkpt lat="49.4475" lon="0.27206">
        <ele>5.7</ele>
        <time>2023-09-03T08:04:21Z</time>
      </trkpt>
      <trkpt lat="49.44756" lon="0.27206">
        <ele>5.7</ele>
        <time>2023-09-03T08:04:22Z</time>
      </trkpt>
      <trkpt lat="49.44763" lon="0.27205">
        <ele>5.7</ele>
        <time>2023-09-03T08:04:23Z</time>
      </trkpt>
      <trkpt lat="49.4477" lon="0.27205">
        <ele>5.6</ele>
        <time>2023-09-03T08:04:24Z</time>
      </trkpt>
      <trkpt lat="49.44777" lon="0.27205">
        <ele>5.6</ele>
        <time>2023-09-03T08:04:25Z</time>
      </trkpt>
      <trkpt lat="49.44784" lon="0.27204">
        <ele>5.7</ele>
        <time>2023-09-03T08:04:26Z</time>
      </trkpt>
      <trkpt lat="49.44791" lon="0.27204">
        <ele>5.7</ele>
        <time>2023-09-03T08:04:27Z</time>
      </trkpt>
      <trkpt lat="49.44797" lon="0.27203">
        <ele>5.7</ele>
        <time>2023-09-03T08:04:28Z</time>
      </trkpt>
      <trkpt lat="49.44804" lon="0.27203">
        <ele>5.7</ele>
        <time>2023-09-03T08:04:29Z</time>
      </trkpt>
      <trkpt lat="49.4481" lon="0.27202">
        <ele>5.7</ele>
        <time>2023-09-03T08:04:30Z</time>
      </trkpt>
      <trkpt lat="49.44817" lon="0.27202">
        <ele>5.7</ele>
        <time>2023-09-03T08:04:31Z</time>
      </trkpt>
      <trkpt lat="49.44824" lon="0.27202">
        <ele>5.7</ele>
        <time>2023-09-03T08:04:32Z</time>
      </trkpt>
      <trkpt lat="49.4483" lon="0.27201">
        <ele>5.7</ele>
        <time>2023-09-03T08:04:33Z</time>
      </trkpt>
      <trkpt lat="49.44837" lon="0.27201">
        <ele>5.7</ele>
        <time>2023-09-03T08:04:34Z</time>
      </trkpt>
      <trkpt lat="49.44844" lon="0.27201">
        <ele>5.6</ele>
        <time>2023-09-03T08:04:35Z</time>
      </trkpt>
      <trkpt lat="49.44852" lon="0.272">
        <ele>5.6</ele>
        <time>2023-09-03T08:04:36Z</time>
      </trkpt>
      <trkpt lat="49.44859" lon="0.272">
        <ele>5.6</ele>
        <time>2023-09-03T08:04:37Z</time>
      </trkpt>
      <trkpt lat="49.44866" lon="0.272">
        <ele>5.5</ele>
        <time>2023-09-03T08:04:38Z</time>
      </trkpt>
      <trkpt lat="49.44873" lon="0.272">
        <ele>5.5</ele>
        <time>2023-09-03T08:04:39Z</time>
      </trkpt>
      <trkpt lat="49.44881" lon="0.27199">
        <ele>5.5</ele>
        <time>2023-09-03T08:04:40Z</time>
      </trkpt>
      <trkpt lat="49.44888" lon="0.27199">
        <ele>5.4</ele>
        <time>2023-09-03T08:04:41Z</time>
      </trkpt>
      <trkpt lat="49.44895" lon="0.27198">
        <ele>5.4</ele>
        <time>2023-09-03T08:04:42Z</time>
      </trkpt>
      <trkpt lat="49.44902" lon="0.27198">
        <ele>5.5</ele>
        <time>2023-09-03T08:04:43Z</time>
      </trkpt>
      <trkpt lat="49.44909" lon="0.27197">
        <ele>5.5</ele>
        <time>2023-09-03T08:04:44Z</time>
      </trkpt>
      <trkpt lat="49.44916" lon="0.27197">
        <ele>5.6</ele>
        <time>2023-09-03T08:04:45Z</time>
      </trkpt>
      <trkpt lat="49.44924" lon="0.27197">
        <ele>5.6</ele>
        <time>2023-09-03T08:04:46Z</time>
      </trkpt>
      <trkpt lat="49.44931" lon="0.27196">
        <ele>5.7</ele>
        <time>2023-09-03T08:04:47Z</time>
      </trkpt>
      <trkpt lat="49.44938" lon="0.27196">
        <ele>5.7</ele>
        <time>2023-09-03T08:04:48Z</time>
      </trkpt>
      <trkpt lat="49.44945" lon="0.27196">
        <ele>5.8</ele>
        <time>2023-09-03T08:04:49Z</time>
      </trkpt>
      <trkpt lat="49.44952" lon="0.27196">
        <ele>5.9</ele>
        <time>2023-09-03T08:04:50Z</time>
      </trkpt>
      <trkpt lat="49.4496" lon="0.27195">
        <ele>6</ele>
        <time>2023-09-03T08:04:51Z</time>
      </trkpt>
      <trkpt lat="49.44966" lon="0.27194">
        <ele>6</ele>
        <time>2023-09-03T08:04:52Z</time>
      </trkpt>
      <trkpt lat="49.44973" lon="0.27193">
        <ele>6.1</ele>
        <time>2023-09-03T08:04:53Z</time>
      </trkpt>
      <trkpt lat="49.4498" lon="0.27192">
        <ele>6.2</ele>
        <time>2023-09-03T08:04:54Z</time>
      </trkpt>
      <trkpt lat="49.44986" lon="0.27192">
        <ele>6.3</ele>
        <time>2023-09-03T08:04:55Z</time>
      </trkpt>
      <trkpt lat="49.44992" lon="0.27192">
        <ele>6.4</ele>
        <time>2023-09-03T08:04:56Z</time>
      </trkpt>
      <trkpt lat="49.44997" lon="0.27191">
        <ele>6.4</ele>
        <time>2023-09-03T08:04:57Z</time>
      </trkpt>
      <trkpt lat="49.45003" lon="0.27191">
        <ele>6.4</ele>
        <time>2023-09-03T08:04:58Z</time>
      </trkpt>
      <trkpt lat="49.45008" lon="0.27191">
        <ele>6.4</ele>
        <time>2023-09-03T08:04:59Z</time>
      </trkpt>
      <trkpt lat="49.45014" lon="0.27191">
        <ele>6.3</ele>
        <time>2023-09-03T08:05:00Z</time>
      </trkpt>
      <trkpt lat="49.4502" lon="0.27191">
        <ele>6.2</ele>
        <time>2023-09-03T08:05:01Z</time>
      </trkpt>
      <trkpt lat="49.45026" lon="0.2719">
        <ele>6.1</ele>
        <time>2023-09-03T08:05:02Z</time>
      </trkpt>
      <trkpt lat="49.45032" lon="0.27188">
        <ele>6</ele>
        <time>2023-09-03T08:05:03Z</time>
      </trkpt>
      <trkpt lat="49.45037" lon="0.27185">
        <ele>5.9</ele>
        <time>2023-09-03T08:05:04Z</time>
      </trkpt>
      <trkpt lat="49.45043" lon="0.27183">
        <ele>5.8</ele>
        <time>2023-09-03T08:05:05Z</time>
      </trkpt>
      <trkpt lat="49.45048" lon="0.27182">
        <ele>5.7</ele>
        <time>2023-09-03T08:05:06Z</time>
      </trkpt>
      <trkpt lat="49.45054" lon="0.27181">
        <ele>5.6</ele>
        <time>2023-09-03T08:05:07Z</time>
      </trkpt>
      <trkpt lat="49.45059" lon="0.27179">
        <ele>5.5</ele>
        <time>2023-09-03T08:05:08Z</time>
      </trkpt>
      <trkpt lat="49.45064" lon="0.27178">
        <ele>5.5</ele>
        <time>2023-09-03T08:05:09Z</time>
      </trkpt>
      <trkpt lat="49.45067" lon="0.27177">
        <ele>5.4</ele>
        <time>2023-09-03T08:05:10Z</time>
      </trkpt>
      <trkpt lat="49.45071" lon="0.27177">
        <ele>5.4</ele>
        <time>2023-09-03T08:05:11Z</time>
      </trkpt>
      <trkpt lat="49.45074" lon="0.27177">
        <ele>5.4</ele>
        <time>2023-09-03T08:05:12Z</time>
      </trkpt>
      <trkpt lat="49.45075" lon="0.27178">
        <ele>5.5</ele>
        <time>2023-09-03T08:05:13Z</time>
      </trkpt>
      <trkpt lat="49.45076" lon="0.27179">
        <ele>5.5</ele>
        <time>2023-09-03T08:05:14Z</time>
      </trkpt>
      <trkpt lat="49.45077" lon="0.2718">
        <ele>5.5</ele>
        <time>2023-09-03T08:05:15Z</time>
      </trkpt>
      <trkpt lat="49.45078" lon="0.27181">
        <ele>5.5</ele>
        <time>2023-09-03T08:05:16Z</time>
      </trkpt>
      <trkpt lat="49.45078" lon="0.27181">
        <ele>5.5</ele>
        <time>2023-09-03T08:05:17Z</time>
      </trkpt>
      <trkpt lat="49.45078" lon="0.27181">
        <ele>5.5</ele>
        <time>2023-09-03T08:05:18Z</time>
      </trkpt>
      <trkpt lat="49.45077" lon="0.27181">
        <ele>5.5</ele>
        <time>2023-09-03T08:05:19Z</time>
      </trkpt>
      <trkpt lat="49.45078" lon="0.27181">
        <ele>5.5</ele>
        <time>2023-09-03T08:05:20Z</time>
      </trkpt>
      <trkpt lat="49.45078" lon="0.27181">
        <ele>5.5</ele>
        <time>2023-09-03T08:05:21Z</time>
      </trkpt>
      <trkpt lat="49.45079" lon="0.27181">
        <ele>5.5</ele>
        <time>2023-09-03T08:05:22Z</time>
      </trkpt>
      <trkpt lat="49.45079" lon="0.2718">
        <ele>5.5</ele>
        <time>2023-09-03T08:05:23Z</time>
      </trkpt>
      <trkpt lat="49.45079" lon="0.27181">
        <ele>5.5</ele>
        <time>2023-09-03T08:05:24Z</time>
      </trkpt>
      <trkpt lat="49.45079" lon="0.27181">
        <ele>5.5</ele>
        <time>2023-09-03T08:05:25Z</time>
      </trkpt>
      <trkpt lat="49.45079" lon="0.27181">
        <ele>5.5</ele>
        <time>2023-09-03T08:05:26Z</time>
      </trkpt>
      <trkpt lat="49.45079" lon="0.27181">
        <ele>5.5</ele>
        <time>2023-09-03T08:05:27Z</time>
      </trkpt>
      <trkpt lat="49.45079" lon="0.27181">
        <ele>5.5</ele>
        <time>2023-09-03T08:05:28Z</time>
      </trkpt>
      <trkpt lat="49.45079" lon="0.27181">
        <ele>5.5</ele>
        <time>2023-09-03T08:05:29Z</time>
      </trkpt>
      <trkpt lat="49.45079" lon="0.27181">
        <ele>5.5</ele>
        <time>2023-09-03T08:05:30Z</time>
      </trkpt>
      <trkpt lat="49.45079" lon="0.27181">
        <ele>5.5</ele>
        <time>2023-09-03T08:05:31Z</time>
      </trkpt>
      <trkpt lat="49.45079" lon="0.27181">
        <ele>5.5</ele>
        <time>2023-09-03T08:05:32Z</time>
      </trkpt>
      <trkpt lat="49.4508" lon="0.27177">
        <ele>5.5</ele>
        <time>2023-09-03T08:08:47Z</time>
      </trkpt>
      <trkpt lat="49.45081" lon="0.27177">
        <ele>5.5</ele>
        <time>2023-09-03T08:08:48Z</time>
      </trkpt>
      <trkpt lat="49.45082" lon="0.27177">
        <ele>5.5</ele>
        <time>2023-09-03T08:08:49Z</time>
      </trkpt>
      <trkpt lat="49.45083" lon="0.27177">
        <ele>5.5</ele>
        <time>2023-09-03T08:08:50Z</time>
      </trkpt>
      <trkpt lat="49.45084" lon="0.27177">
        <ele>5.5</ele>
        <time>2023-09-03T08:08:51Z</time>
      </trkpt>
      <trkpt lat="49.45085" lon="0.27177">
        <ele>5.5</ele>
        <time>2023-09-03T08:08:52Z</time>
      </trkpt>
      <trkpt lat="49.45086" lon="0.27177">
        <ele>5.5</ele>
        <time>2023-09-03T08:08:53Z</time>
      </trkpt>
      <trkpt lat="49.45087" lon="0.27177">
        <ele>5.5</ele>
        <time>2023-09-03T08:08:54Z</time>
      </trkpt>
      <trkpt lat="49.45087" lon="0.27177">
        <ele>5.5</ele>
        <time>2023-09-03T08:08:55Z</time>
      </trkpt>
      <trkpt lat="49.45088" lon="0.27177">
        <ele>5.5</ele>
        <time>2023-09-03T08:08:56Z</time>
      </trkpt>
      <trkpt lat="49.45089" lon="0.27176">
        <ele>5.5</ele>
        <time>2023-09-03T08:08:57Z</time>
      </trkpt>
      <trkpt lat="49.45091" lon="0.27176">
        <ele>5.5</ele>
        <time>2023-09-03T08:08:58Z</time>
      </trkpt>
      <trkpt lat="49.45094" lon="0.27175">
        <ele>5.6</ele>
        <time>2023-09-03T08:08:59Z</time>
      </trkpt>
      <trkpt lat="49.45095" lon="0.27175">
        <ele>5.6</ele>
        <time>2023-09-03T08:09:00Z</time>
      </trkpt>
      <trkpt lat="49.45098" lon="0.27174">
        <ele>5.6</ele>
        <time>2023-09-03T08:09:01Z</time>
      </trkpt>
      <trkpt lat="49.45099" lon="0.27174">
        <ele>5.6</ele>
        <time>2023-09-03T08:09:02Z</time>
      </trkpt>
      <trkpt lat="49.45102" lon="0.27173">
        <ele>5.6</ele>
        <time>2023-09-03T08:09:03Z</time>
      </trkpt>
      <trkpt lat="49.45105" lon="0.27173">
        <ele>5.7</ele>
        <time>2023-09-03T08:09:04Z</time>
      </trkpt>
      <trkpt lat="49.45108" lon="0.27172">
        <ele>5.7</ele>
        <time>2023-09-03T08:09:05Z</time>
      </trkpt>
      <trkpt lat="49.45111" lon="0.27172">
        <ele>5.7</ele>
        <time>2023-09-03T08:09:06Z</time>
      </trkpt>
      <trkpt lat="49.45114" lon="0.27171">
        <ele>5.8</ele>
        <time>2023-09-03T08:09:07Z</time>
      </trkpt>
      <trkpt lat="49.45117" lon="0.27171">
        <ele>5.8</ele>
        <time>2023-09-03T08:09:08Z</time>
      </trkpt>
      <trkpt lat="49.4512" lon="0.2717">
        <ele>5.8</ele>
        <time>2023-09-03T08:09:09Z</time>
      </trkpt>
      <trkpt lat="49.45124" lon="0.27169">
        <ele>5.8</ele>
        <time>2023-09-03T08:09:10Z</time>
      </trkpt>
      <trkpt lat="49.45128" lon="0.27169">
        <ele>5.9</ele>
        <time>2023-09-03T08:09:11Z</time>
      </trkpt>
      <trkpt lat="49.45131" lon="0.27169">
        <ele>5.9</ele>
        <time>2023-09-03T08:09:12Z</time>
      </trkpt>
      <trkpt lat="49.45135" lon="0.27168">
        <ele>5.9</ele>
        <time>2023-09-03T08:09:13Z</time>
      </trkpt>
      <trkpt lat="49.45139" lon="0.27168">
        <ele>5.9</ele>
        <time>2023-09-03T08:09:14Z</time>
      </trkpt>
      <trkpt lat="49.45143" lon="0.27167">
        <ele>5.9</ele>
        <time>2023-09-03T08:09:15Z</time>
      </trkpt>
      <trkpt lat="49.45147" lon="0.27167">
        <ele>6</ele>
        <time>2023-09-03T08:09:16Z</time>
      </trkpt>
      <trkpt lat="49.4515" lon="0.27167">
        <ele>6</ele>
        <time>2023-09-03T08:09:17Z</time>
      </trkpt>
      <trkpt lat="49.45154" lon="0.27167">
        <ele>6</ele>
        <time>2023-09-03T08:09:18Z</time>
      </trkpt>
      <trkpt lat="49.45158" lon="0.27167">
        <ele>6</ele>
        <time>2023-09-03T08:09:19Z</time>
      </trkpt>
      <trkpt lat="49.45162" lon="0.27166">
        <ele>6</ele>
        <time>2023-09-03T08:09:20Z</time>
      </trkpt>
      <trkpt lat="49.45166" lon="0.27166">
        <ele>6</ele>
        <time>2023-09-03T08:09:21Z</time>
      </trkpt>
      <trkpt lat="49.4517" lon="0.27166">
        <ele>6</ele>
        <time>2023-09-03T08:09:22Z</time>
      </trkpt>
      <trkpt lat="49.45175" lon="0.27166">
        <ele>6</ele>
        <time>2023-09-03T08:09:23Z</time>
      </trkpt>
      <trkpt lat="49.4518" lon="0.27165">
        <ele>6</ele>
        <time>2023-09-03T08:09:24Z</time>
      </trkpt>
      <trkpt lat="49.45185" lon="0.27165">
        <ele>6</ele>
        <time>2023-09-03T08:09:25Z</time>
      </trkpt>
      <trkpt lat="49.4519" lon="0.27164">
        <ele>6.1</ele>
        <time>2023-09-03T08:09:26Z</time>
      </trkpt>
      <trkpt lat="49.45195" lon="0.27164">
        <ele>6.1</ele>
        <time>2023-09-03T08:09:27Z</time>
      </trkpt>
      <trkpt lat="49.45201" lon="0.27164">
        <ele>6.1</ele>
        <time>2023-09-03T08:09:28Z</time>
      </trkpt>
      <trkpt lat="49.45206" lon="0.27164">
        <ele>6.1</ele>
        <time>2023-09-03T08:09:29Z</time>
      </trkpt>
      <trkpt lat="49.45212" lon="0.27164">
        <ele>6.2</ele>
        <time>2023-09-03T08:09:30Z</time>
      </trkpt>
      <trkpt lat="49.45218" lon="0.27165">
        <ele>6.2</ele>
        <time>2023-09-03T08:09:31Z</time>
      </trkpt>
      <trkpt lat="49.45223" lon="0.27165">
        <ele>6.3</ele>
        <time>2023-09-03T08:09:32Z</time>
      </trkpt>
      <trkpt lat="49.45229" lon="0.27165">
        <ele>6.3</ele>
        <time>2023-09-03T08:09:33Z</time>
      </trkpt>
      <trkpt lat="49.45234" lon="0.27166">
        <ele>6.4</ele>
        <time>2023-09-03T08:09:34Z</time>
      </trkpt>
      <trkpt lat="49.45239" lon="0.27166">
        <ele>6.4</ele>
        <time>2023-09-03T08:09:35Z</time>
      </trkpt>
      <trkpt lat="49.45244" lon="0.27167">
        <ele>6.5</ele>
        <time>2023-09-03T08:09:36Z</time>
      </trkpt>
      <trkpt lat="49.45249" lon="0.27168">
        <ele>6.6</ele>
        <time>2023-09-03T08:09:37Z</time>
      </trkpt>
      <trkpt lat="49.45254" lon="0.2717">
        <ele>6.6</ele>
        <time>2023-09-03T08:09:38Z</time>
      </trkpt>
      <trkpt lat="49.45259" lon="0.27173">
        <ele>6.7</ele>
        <time>2023-09-03T08:09:39Z</time>
      </trkpt>
      <trkpt lat="49.45264" lon="0.27177">
        <ele>6.8</ele>
        <time>2023-09-03T08:09:40Z</time>
      </trkpt>
      <trkpt lat="49.45268" lon="0.27183">
        <ele>6.9</ele>
        <time>2023-09-03T08:09:41Z</time>
      </trkpt>
      <trkpt lat="49.45271" lon="0.27189">
        <ele>7</ele>
        <time>2023-09-03T08:09:42Z</time>
      </trkpt>
      <trkpt lat="49.45274" lon="0.27197">
        <ele>7.1</ele>
        <time>2023-09-03T08:09:43Z</time>
      </trkpt>
      <trkpt lat="49.45276" lon="0.27205">
        <ele>7.2</ele>
        <time>2023-09-03T08:09:44Z</time>
      </trkpt>
      <trkpt lat="49.45276" lon="0.27213">
        <ele>7.2</ele>
        <time>2023-09-03T08:09:45Z</time>
      </trkpt>
      <trkpt lat="49.45276" lon="0.27221">
        <ele>7.3</ele>
        <time>2023-09-03T08:09:46Z</time>
      </trkpt>
      <trkpt lat="49.45277" lon="0.27229">
        <ele>7.3</ele>
        <time>2023-09-03T08:09:47Z</time>
      </trkpt>
      <trkpt lat="49.45278" lon="0.27237">
        <ele>7.3</ele>
        <time>2023-09-03T08:09:48Z</time>
      </trkpt>
      <trkpt lat="49.4528" lon="0.27245">
        <ele>7.2</ele>
        <time>2023-09-03T08:09:49Z</time>
      </trkpt>
      <trkpt lat="49.45282" lon="0.27253">
        <ele>7.2</ele>
        <time>2023-09-03T08:09:50Z</time>
      </trkpt>
      <trkpt lat="49.45285" lon="0.27261">
        <ele>7.1</ele>
        <time>2023-09-03T08:09:51Z</time>
      </trkpt>
      <trkpt lat="49.45289" lon="0.27268">
        <ele>6.9</ele>
        <time>2023-09-03T08:09:52Z</time>
      </trkpt>
      <trkpt lat="49.45293" lon="0.27274">
        <ele>6.8</ele>
        <time>2023-09-03T08:09:53Z</time>
      </trkpt>
      <trkpt lat="49.45299" lon="0.27279">
        <ele>6.6</ele>
        <time>2023-09-03T08:09:54Z</time>
      </trkpt>
      <trkpt lat="49.45305" lon="0.27282">
        <ele>6.4</ele>
        <time>2023-09-03T08:09:55Z</time>
      </trkpt>
      <trkpt lat="49.45312" lon="0.27284">
        <ele>6.2</ele>
        <time>2023-09-03T08:09:56Z</time>
      </trkpt>
      <trkpt lat="49.45318" lon="0.27286">
        <ele>6</ele>
        <time>2023-09-03T08:09:57Z</time>
      </trkpt>
      <trkpt lat="49.45325" lon="0.27288">
        <ele>5.8</ele>
        <time>2023-09-03T08:09:58Z</time>
      </trkpt>
      <trkpt lat="49.45331" lon="0.2729">
        <ele>5.6</ele>
        <time>2023-09-03T08:09:59Z</time>
      </trkpt>
      <trkpt lat="49.45337" lon="0.27295">
        <ele>5.5</ele>
        <time>2023-09-03T08:10:00Z</time>
      </trkpt>
      <trkpt lat="49.45342" lon="0.27303">
        <ele>5.4</ele>
        <time>2023-09-03T08:10:01Z</time>
      </trkpt>
      <trkpt lat="49.45345" lon="0.27312">
        <ele>5.3</ele>
        <time>2023-09-03T08:10:02Z</time>
      </trkpt>
      <trkpt lat="49.45347" lon="0.27323">
        <ele>5.2</ele>
        <time>2023-09-03T08:10:03Z</time>
      </trkpt>
      <trkpt lat="49.45348" lon="0.27333">
        <ele>5.2</ele>
        <time>2023-09-03T08:10:04Z</time>
      </trkpt>
      <trkpt lat="49.45348" lon="0.27343">
        <ele>5.1</ele>
        <time>2023-09-03T08:10:05Z</time>
      </trkpt>
      <trkpt lat="49.45349" lon="0.27353">
        <ele>5.1</ele>
        <time>2023-09-03T08:10:06Z</time>
      </trkpt>
      <trkpt lat="49.4535" lon="0.27363">
        <ele>5</ele>
        <time>2023-09-03T08:10:07Z</time>
      </trkpt>
      <trkpt lat="49.45351" lon="0.27373">
        <ele>5</ele>
        <time>2023-09-03T08:10:08Z</time>
      </trkpt>
      <trkpt lat="49.45351" lon="0.27383">
        <ele>5</ele>
        <time>2023-09-03T08:10:09Z</time>
      </trkpt>
      <trkpt lat="49.45352" lon="0.27392">
        <ele>5</ele>
        <time>2023-09-03T08:10:10Z</time>
      </trkpt>
      <trkpt lat="49.45352" lon="0.27401">
        <ele>5</ele>
        <time>2023-09-03T08:10:11Z</time>
      </trkpt>
      <trkpt lat="49.45351" lon="0.2741">
        <ele>5</ele>
        <time>2023-09-03T08:10:12Z</time>
      </trkpt>
      <trkpt lat="49.45351" lon="0.27419">
        <ele>5</ele>
        <time>2023-09-03T08:10:13Z</time>
      </trkpt>
      <trkpt lat="49.45351" lon="0.27428">
        <ele>5</ele>
        <time>2023-09-03T08:10:14Z</time>
      </trkpt>
      <trkpt lat="49.4535" lon="0.27436">
        <ele>5</ele>
        <time>2023-09-03T08:10:15Z</time>
      </trkpt>
      <trkpt lat="49.4535" lon="0.27445">
        <ele>5</ele>
        <time>2023-09-03T08:10:16Z</time>
      </trkpt>
      <trkpt lat="49.4535" lon="0.27453">
        <ele>5</ele>
        <time>2023-09-03T08:10:17Z</time>
      </trkpt>
      <trkpt lat="49.4535" lon="0.27461">
        <ele>4.9</ele>
        <time>2023-09-03T08:10:18Z</time>
      </trkpt>
      <trkpt lat="49.4535" lon="0.27469">
        <ele>4.9</ele>
        <time>2023-09-03T08:10:19Z</time>
      </trkpt>
      <trkpt lat="49.4535" lon="0.27477">
        <ele>4.9</ele>
        <time>2023-09-03T08:10:20Z</time>
      </trkpt>
      <trkpt lat="49.45349" lon="0.27484">
        <ele>4.9</ele>
        <time>2023-09-03T08:10:21Z</time>
      </trkpt>
      <trkpt lat="49.45348" lon="0.27491">
        <ele>4.8</ele>
        <time>2023-09-03T08:10:22Z</time>
      </trkpt>
      <trkpt lat="49.45347" lon="0.27498">
        <ele>4.8</ele>
        <time>2023-09-03T08:10:23Z</time>
      </trkpt>
      <trkpt lat="49.45346" lon="0.27506">
        <ele>4.8</ele>
        <time>2023-09-03T08:10:24Z</time>
      </trkpt>
      <trkpt lat="49.45345" lon="0.27514">
        <ele>4.7</ele>
        <time>2023-09-03T08:10:25Z</time>
      </trkpt>
      <trkpt lat="49.45344" lon="0.27522">
        <ele>4.7</ele>
        <time>2023-09-03T08:10:26Z</time>
      </trkpt>
      <trkpt lat="49.45343" lon="0.27531">
        <ele>4.7</ele>
        <time>2023-09-03T08:10:27Z</time>
      </trkpt>
      <trkpt lat="49.45343" lon="0.27539">
        <ele>4.7</ele>
        <time>2023-09-03T08:10:28Z</time>
      </trkpt>
      <trkpt lat="49.45342" lon="0.27548">
        <ele>4.7</ele>
        <time>2023-09-03T08:10:29Z</time>
      </trkpt>
      <trkpt lat="49.45342" lon="0.27557">
        <ele>4.8</ele>
        <time>2023-09-03T08:10:30Z</time>
      </trkpt>
      <trkpt lat="49.45341" lon="0.27566">
        <ele>4.8</ele>
        <time>2023-09-03T08:10:31Z</time>
      </trkpt>
      <trkpt lat="49.45341" lon="0.27575">
        <ele>4.8</ele>
        <time>2023-09-03T08:10:32Z</time>
      </trkpt>
      <trkpt lat="49.4534" lon="0.27584">
        <ele>4.8</ele>
        <time>2023-09-03T08:10:33Z</time>
      </trkpt>
      <trkpt lat="49.45339" lon="0.27594">
        <ele>4.8</ele>
        <time>2023-09-03T08:10:34Z</time>
      </trkpt>
      <trkpt lat="49.45339" lon="0.27604">
        <ele>4.8</ele>
        <time>2023-09-03T08:10:35Z</time>
      </trkpt>
      <trkpt lat="49.45338" lon="0.27614">
        <ele>4.8</ele>
        <time>2023-09-03T08:10:36Z</time>
      </trkpt>
      <trkpt lat="49.45337" lon="0.27624">
        <ele>4.8</ele>
        <time>2023-09-03T08:10:37Z</time>
      </trkpt>
      <trkpt lat="49.45336" lon="0.27634">
        <ele>4.8</ele>
        <time>2023-09-03T08:10:38Z</time>
      </trkpt>
      <trkpt lat="49.45335" lon="0.27644">
        <ele>4.8</ele>
        <time>2023-09-03T08:10:39Z</time>
      </trkpt>
      <trkpt lat="49.45335" lon="0.27654">
        <ele>4.7</ele>
        <time>2023-09-03T08:10:40Z</time>
      </trkpt>
      <trkpt lat="49.45334" lon="0.27665">
        <ele>4.7</ele>
        <time>2023-09-03T08:10:41Z</time>
      </trkpt>
      <trkpt lat="49.45334" lon="0.27676">
        <ele>4.7</ele>
        <time>2023-09-03T08:10:42Z</time>
      </trkpt>
      <trkpt lat="49.45333" lon="0.27686">
        <ele>4.7</ele>
        <time>2023-09-03T08:10:43Z</time>
      </trkpt>
      <trkpt lat="49.45333" lon="0.27697">
        <ele>4.7</ele>
        <time>2023-09-03T08:10:44Z</time>
      </trkpt>
      <trkpt lat="49.45332" lon="0.27708">
        <ele>4.7</ele>
        <time>2023-09-03T08:10:45Z</time>
      </trkpt>
      <trkpt lat="49.45331" lon="0.27718">
        <ele>4.6</ele>
        <time>2023-09-03T08:10:46Z</time>
      </trkpt>
      <trkpt lat="49.4533" lon="0.27729">
        <ele>4.6</ele>
        <time>2023-09-03T08:10:47Z</time>
      </trkpt>
      <trkpt lat="49.4533" lon="0.27739">
        <ele>4.6</ele>
        <time>2023-09-03T08:10:48Z</time>
      </trkpt>
      <trkpt lat="49.45329" lon="0.27749">
        <ele>4.6</ele>
        <time>2023-09-03T08:10:49Z</time>
      </trkpt>
      <trkpt lat="49.45328" lon="0.27759">
        <ele>4.6</ele>
        <time>2023-09-03T08:10:50Z</time>
      </trkpt>
      <trkpt lat="49.45327" lon="0.2777">
        <ele>4.6</ele>
        <time>2023-09-03T08:10:51Z</time>
      </trkpt>
      <trkpt lat="49.45327" lon="0.27781">
        <ele>4.6</ele>
        <time>2023-09-03T08:10:52Z</time>
      </trkpt>
      <trkpt lat="49.45326" lon="0.27791">
        <ele>4.6</ele>
        <time>2023-09-03T08:10:53Z</time>
      </trkpt>
      <trkpt lat="49.45325" lon="0.27801">
        <ele>4.6</ele>
        <time>2023-09-03T08:10:54Z</time>
      </trkpt>
      <trkpt lat="49.45324" lon="0.27812">
        <ele>4.6</ele>
        <time>2023-09-03T08:10:55Z</time>
      </trkpt>
      <trkpt lat="49.45323" lon="0.27822">
        <ele>4.6</ele>
        <time>2023-09-03T08:10:56Z</time>
      </trkpt>
      <trkpt lat="49.45323" lon="0.27833">
        <ele>4.6</ele>
        <time>2023-09-03T08:10:57Z</time>
      </trkpt>
      <trkpt lat="49.45322" lon="0.27843">
        <ele>4.6</ele>
        <time>2023-09-03T08:10:58Z</time>
      </trkpt>
      <trkpt lat="49.45321" lon="0.27854">
        <ele>4.7</ele>
        <time>2023-09-03T08:10:59Z</time>
      </trkpt>
      <trkpt lat="49.45321" lon="0.27864">
        <ele>4.7</ele>
        <time>2023-09-03T08:11:00Z</time>
      </trkpt>
      <trkpt lat="49.4532" lon="0.27874">
        <ele>4.7</ele>
        <time>2023-09-03T08:11:01Z</time>
      </trkpt>
      <trkpt lat="49.45319" lon="0.27885">
        <ele>4.7</ele>
        <time>2023-09-03T08:11:02Z</time>
      </trkpt>
      <trkpt lat="49.45319" lon="0.27895">
        <ele>4.7</ele>
        <time>2023-09-03T08:11:03Z</time>
      </trkpt>
      <trkpt lat="49.45318" lon="0.27905">
        <ele>4.7</ele>
        <time>2023-09-03T08:11:04Z</time>
      </trkpt>
      <trkpt lat="49.45317" lon="0.27916">
        <ele>4.7</ele>
        <time>2023-09-03T08:11:05Z</time>
      </trkpt>
      <trkpt lat="49.45316" lon="0.27927">
        <ele>4.7</ele>
        <time>2023-09-03T08:11:06Z</time>
      </trkpt>
      <trkpt lat="49.45316" lon="0.27937">
        <ele>4.7</ele>
        <time>2023-09-03T08:11:07Z</time>
      </trkpt>
      <trkpt lat="49.45315" lon="0.27948">
        <ele>4.7</ele>
        <time>2023-09-03T08:11:08Z</time>
      </trkpt>
      <trkpt lat="49.45314" lon="0.27959">
        <ele>4.6</ele>
        <time>2023-09-03T08:11:09Z</time>
      </trkpt>
      <trkpt lat="49.45313" lon="0.2797">
        <ele>4.6</ele>
        <time>2023-09-03T08:11:10Z</time>
      </trkpt>
      <trkpt lat="49.45313" lon="0.27981">
        <ele>4.6</ele>
        <time>2023-09-03T08:11:11Z</time>
      </trkpt>
      <trkpt lat="49.45312" lon="0.27992">
        <ele>4.6</ele>
        <time>2023-09-03T08:11:12Z</time>
      </trkpt>
      <trkpt lat="49.45311" lon="0.28003">
        <ele>4.7</ele>
        <time>2023-09-03T08:11:13Z</time>
      </trkpt>
      <trkpt lat="49.45311" lon="0.28014">
        <ele>4.7</ele>
        <time>2023-09-03T08:11:14Z</time>
      </trkpt>
      <trkpt lat="49.4531" lon="0.28025">
        <ele>4.7</ele>
        <time>2023-09-03T08:11:15Z</time>
      </trkpt>
      <trkpt lat="49.45309" lon="0.28036">
        <ele>4.7</ele>
        <time>2023-09-03T08:11:16Z</time>
      </trkpt>
      <trkpt lat="49.45309" lon="0.28047">
        <ele>4.7</ele>
        <time>2023-09-03T08:11:17Z</time>
      </trkpt>
      <trkpt lat="49.45308" lon="0.28059">
        <ele>4.7</ele>
        <time>2023-09-03T08:11:18Z</time>
      </trkpt>
      <trkpt lat="49.45307" lon="0.2807">
        <ele>4.6</ele>
        <time>2023-09-03T08:11:19Z</time>
      </trkpt>
      <trkpt lat="49.45307" lon="0.28082">
        <ele>4.6</ele>
        <time>2023-09-03T08:11:20Z</time>
      </trkpt>
      <trkpt lat="49.45306" lon="0.28093">
        <ele>4.6</ele>
        <time>2023-09-03T08:11:21Z</time>
      </trkpt>
      <trkpt lat="49.45305" lon="0.28104">
        <ele>4.6</ele>
        <time>2023-09-03T08:11:22Z</time>
      </trkpt>
      <trkpt lat="49.45305" lon="0.28115">
        <ele>4.6</ele>
        <time>2023-09-03T08:11:23Z</time>
      </trkpt>
      <trkpt lat="49.45304" lon="0.28126">
        <ele>4.6</ele>
        <time>2023-09-03T08:11:24Z</time>
      </trkpt>
      <trkpt lat="49.45303" lon="0.28137">
        <ele>4.6</ele>
        <time>2023-09-03T08:11:25Z</time>
      </trkpt>
      <trkpt lat="49.45302" lon="0.28149">
        <ele>4.6</ele>
        <time>2023-09-03T08:11:26Z</time>
      </trkpt>
      <trkpt lat="49.45301" lon="0.2816">
        <ele>4.5</ele>
        <time>2023-09-03T08:11:27Z</time>
      </trkpt>
      <trkpt lat="49.453" lon="0.28171">
        <ele>4.5</ele>
        <time>2023-09-03T08:11:28Z</time>
      </trkpt>
      <trkpt lat="49.453" lon="0.28183">
        <ele>4.5</ele>
        <time>2023-09-03T08:11:29Z</time>
      </trkpt>
      <trkpt lat="49.45299" lon="0.28194">
        <ele>4.5</ele>
        <time>2023-09-03T08:11:30Z</time>
      </trkpt>
      <trkpt lat="49.45299" lon="0.28205">
        <ele>4.5</ele>
        <time>2023-09-03T08:11:31Z</time>
      </trkpt>
      <trkpt lat="49.45298" lon="0.28216">
        <ele>4.6</ele>
        <time>2023-09-03T08:11:32Z</time>
      </trkpt>
      <trkpt lat="49.45298" lon="0.28226">
        <ele>4.6</ele>
        <time>2023-09-03T08:11:33Z</time>
      </trkpt>
      <trkpt lat="49.45297" lon="0.28237">
        <ele>4.6</ele>
        <time>2023-09-03T08:11:34Z</time>
      </trkpt>
      <trkpt lat="49.45297" lon="0.28247">
        <ele>4.6</ele>
        <time>2023-09-03T08:11:35Z</time>
      </trkpt>
      <trkpt lat="49.45296" lon="0.28257">
        <ele>4.6</ele>
        <time>2023-09-03T08:11:36Z</time>
      </trkpt>
      <trkpt lat="49.45295" lon="0.28267">
        <ele>4.6</ele>
        <time>2023-09-03T08:11:37Z</time>
      </trkpt>
      <trkpt lat="49.45294" lon="0.28277">
        <ele>4.6</ele>
        <time>2023-09-03T08:11:38Z</time>
      </trkpt>
      <trkpt lat="49.45293" lon="0.28288">
        <ele>4.6</ele>
        <time>2023-09-03T08:11:39Z</time>
      </trkpt>
      <trkpt lat="49.45293" lon="0.28299">
        <ele>4.6</ele>
        <time>2023-09-03T08:11:40Z</time>
      </trkpt>
      <trkpt lat="49.45292" lon="0.28309">
        <ele>4.6</ele>
        <time>2023-09-03T08:11:41Z</time>
      </trkpt>
      <trkpt lat="49.45291" lon="0.2832">
        <ele>4.6</ele>
        <time>2023-09-03T08:11:42Z</time>
      </trkpt>
      <trkpt lat="49.45291" lon="0.2833">
        <ele>4.6</ele>
        <time>2023-09-03T08:11:43Z</time>
      </trkpt>
      <trkpt lat="49.4529" lon="0.28341">
        <ele>4.6</ele>
        <time>2023-09-03T08:11:44Z</time>
      </trkpt>
      <trkpt lat="49.45289" lon="0.28351">
        <ele>4.6</ele>
        <time>2023-09-03T08:11:45Z</time>
      </trkpt>
      <trkpt lat="49.45288" lon="0.28362">
        <ele>4.6</ele>
        <time>2023-09-03T08:11:46Z</time>
      </trkpt>
      <trkpt lat="49.45287" lon="0.28373">
        <ele>4.6</ele>
        <time>2023-09-03T08:11:47Z</time>
      </trkpt>
      <trkpt lat="49.45287" lon="0.28384">
        <ele>4.6</ele>
        <time>2023-09-03T08:11:48Z</time>
      </trkpt>
      <trkpt lat="49.45286" lon="0.28394">
        <ele>4.7</ele>
        <time>2023-09-03T08:11:49Z</time>
      </trkpt>
      <trkpt lat="49.45285" lon="0.28405">
        <ele>4.7</ele>
        <time>2023-09-03T08:11:50Z</time>
      </trkpt>
      <trkpt lat="49.45284" lon="0.28416">
        <ele>4.7</ele>
        <time>2023-09-03T08:11:51Z</time>
      </trkpt>
      <trkpt lat="49.45284" lon="0.28427">
        <ele>4.7</ele>
        <time>2023-09-03T08:11:52Z</time>
      </trkpt>
      <trkpt lat="49.45283" lon="0.28438">
        <ele>4.7</ele>
        <time>2023-09-03T08:11:53Z</time>
      </trkpt>
      <trkpt lat="49.45282" lon="0.28449">
        <ele>4.7</ele>
        <time>2023-09-03T08:11:54Z</time>
      </trkpt>
      <trkpt lat="49.45281" lon="0.28459">
        <ele>4.7</ele>
        <time>2023-09-03T08:11:55Z</time>
      </trkpt>
      <trkpt lat="49.4528" lon="0.28469">
        <ele>4.7</ele>
        <time>2023-09-03T08:11:56Z</time>
      </trkpt>
      <trkpt lat="49.4528" lon="0.28479">
        <ele>4.7</ele>
        <time>2023-09-03T08:11:57Z</time>
      </trkpt>
      <trkpt lat="49.45279" lon="0.2849">
        <ele>4.7</ele>
        <time>2023-09-03T08:11:58Z</time>
      </trkpt>
      <trkpt lat="49.45279" lon="0.285">
        <ele>4.7</ele>
        <time>2023-09-03T08:11:59Z</time>
      </trkpt>
      <trkpt lat="49.45278" lon="0.28511">
        <ele>4.7</ele>
        <time>2023-09-03T08:12:00Z</time>
      </trkpt>
      <trkpt lat="49.45278" lon="0.28521">
        <ele>4.7</ele>
        <time>2023-09-03T08:12:01Z</time>
      </trkpt>
      <trkpt lat="49.45277" lon="0.28532">
        <ele>4.7</ele>
        <time>2023-09-03T08:12:02Z</time>
      </trkpt>
      <trkpt lat="49.45276" lon="0.28542">
        <ele>4.7</ele>
        <time>2023-09-03T08:12:03Z</time>
      </trkpt>
      <trkpt lat="49.45275" lon="0.28553">
        <ele>4.7</ele>
        <time>2023-09-03T08:12:04Z</time>
      </trkpt>
      <trkpt lat="49.45275" lon="0.28563">
        <ele>4.7</ele>
        <time>2023-09-03T08:12:05Z</time>
      </trkpt>
      <trkpt lat="49.45274" lon="0.28573">
        <ele>4.7</ele>
        <time>2023-09-03T08:12:06Z</time>
      </trkpt>
      <trkpt lat="49.45273" lon="0.28584">
        <ele>4.7</ele>
        <time>2023-09-03T08:12:07Z</time>
      </trkpt>
      <trkpt lat="49.45272" lon="0.28595">
        <ele>4.7</ele>
        <time>2023-09-03T08:12:08Z</time>
      </trkpt>
      <trkpt lat="49.45272" lon="0.28606">
        <ele>4.7</ele>
        <time>2023-09-03T08:12:09Z</time>
      </trkpt>
      <trkpt lat="49.45271" lon="0.28617">
        <ele>4.7</ele>
        <time>2023-09-03T08:12:10Z</time>
      </trkpt>
      <trkpt lat="49.4527" lon="0.28628">
        <ele>4.8</ele>
        <time>2023-09-03T08:12:11Z</time>
      </trkpt>
      <trkpt lat="49.45269" lon="0.28639">
        <ele>4.8</ele>
        <time>2023-09-03T08:12:12Z</time>
      </trkpt>
      <trkpt lat="49.45269" lon="0.2865">
        <ele>4.8</ele>
        <time>2023-09-03T08:12:13Z</time>
      </trkpt>
      <trkpt lat="49.45268" lon="0.28661">
        <ele>4.8</ele>
        <time>2023-09-03T08:12:14Z</time>
      </trkpt>
      <trkpt lat="49.45267" lon="0.28672">
        <ele>4.8</ele>
        <time>2023-09-03T08:12:15Z</time>
      </trkpt>
      <trkpt lat="49.45267" lon="0.28683">
        <ele>4.8</ele>
        <time>2023-09-03T08:12:16Z</time>
      </trkpt>
      <trkpt lat="49.45266" lon="0.28694">
        <ele>4.8</ele>
        <time>2023-09-03T08:12:17Z</time>
      </trkpt>
      <trkpt lat="49.45265" lon="0.28705">
        <ele>4.8</ele>
        <time>2023-09-03T08:12:18Z</time>
      </trkpt>
      <trkpt lat="49.45264" lon="0.28716">
        <ele>4.8</ele>
        <time>2023-09-03T08:12:19Z</time>
      </trkpt>
      <trkpt lat="49.45263" lon="0.28727">
        <ele>4.9</ele>
        <time>2023-09-03T08:12:20Z</time>
      </trkpt>
      <trkpt lat="49.45263" lon="0.28737">
        <ele>5</ele>
        <time>2023-09-03T08:12:21Z</time>
      </trkpt>
      <trkpt lat="49.45262" lon="0.28748">
        <ele>4.9</ele>
        <time>2023-09-03T08:12:22Z</time>
      </trkpt>
      <trkpt lat="49.45262" lon="0.28759">
        <ele>4.9</ele>
        <time>2023-09-03T08:12:23Z</time>
      </trkpt>
      <trkpt lat="49.45261" lon="0.2877">
        <ele>4.9</ele>
        <time>2023-09-03T08:12:24Z</time>
      </trkpt>
      <trkpt lat="49.4526" lon="0.28781">
        <ele>4.9</ele>
        <time>2023-09-03T08:12:25Z</time>
      </trkpt>
      <trkpt lat="49.45259" lon="0.28793">
        <ele>4.9</ele>
        <time>2023-09-03T08:12:26Z</time>
      </trkpt>
      <trkpt lat="49.45258" lon="0.28804">
        <ele>4.9</ele>
        <time>2023-09-03T08:12:27Z</time>
      </trkpt>
      <trkpt lat="49.45258" lon="0.28815">
        <ele>4.9</ele>
        <time>2023-09-03T08:12:28Z</time>
      </trkpt>
      <trkpt lat="49.45257" lon="0.28826">
        <ele>4.9</ele>
        <time>2023-09-03T08:12:29Z</time>
      </trkpt>
      <trkpt lat="49.45256" lon="0.28837">
        <ele>4.9</ele>
        <time>2023-09-03T08:12:30Z</time>
      </trkpt>
      <trkpt lat="49.45255" lon="0.28848">
        <ele>4.9</ele>
        <time>2023-09-03T08:12:31Z</time>
      </trkpt>
      <trkpt lat="49.45255" lon="0.28859">
        <ele>4.9</ele>
        <time>2023-09-03T08:12:32Z</time>
      </trkpt>
      <trkpt lat="49.45254" lon="0.28871">
        <ele>4.9</ele>
        <time>2023-09-03T08:12:33Z</time>
      </trkpt>
      <trkpt lat="49.45253" lon="0.28882">
        <ele>4.9</ele>
        <time>2023-09-03T08:12:34Z</time>
      </trkpt>
      <trkpt lat="49.45253" lon="0.28894">
        <ele>4.9</ele>
        <time>2023-09-03T08:12:35Z</time>
      </trkpt>
      <trkpt lat="49.45252" lon="0.28905">
        <ele>4.9</ele>
        <time>2023-09-03T08:12:36Z</time>
      </trkpt>
      <trkpt lat="49.45251" lon="0.28916">
        <ele>4.9</ele>
        <time>2023-09-03T08:12:37Z</time>
      </trkpt>
      <trkpt lat="49.4525" lon="0.28927">
        <ele>4.8</ele>
        <time>2023-09-03T08:12:38Z</time>
      </trkpt>
      <trkpt lat="49.45249" lon="0.28938">
        <ele>4.8</ele>
        <time>2023-09-03T08:12:39Z</time>
      </trkpt>
      <trkpt lat="49.45249" lon="0.28949">
        <ele>4.8</ele>
        <time>2023-09-03T08:12:40Z</time>
      </trkpt>
      <trkpt lat="49.45248" lon="0.28959">
        <ele>4.8</ele>
        <time>2023-09-03T08:12:41Z</time>
      </trkpt>
      <trkpt lat="49.45247" lon="0.28971">
        <ele>4.8</ele>
        <time>2023-09-03T08:12:42Z</time>
      </trkpt>
      <trkpt lat="49.45246" lon="0.28982">
        <ele>4.8</ele>
        <time>2023-09-03T08:12:43Z</time>
      </trkpt>
      <trkpt lat="49.45245" lon="0.28993">
        <ele>4.8</ele>
        <time>2023-09-03T08:12:44Z</time>
      </trkpt>
      <trkpt lat="49.45244" lon="0.29004">
        <ele>4.8</ele>
        <time>2023-09-03T08:12:45Z</time>
      </trkpt>
      <trkpt lat="49.45244" lon="0.29015">
        <ele>4.8</ele>
        <time>2023-09-03T08:12:46Z</time>
      </trkpt>
      <trkpt lat="49.45243" lon="0.29026">
        <ele>4.8</ele>
        <time>2023-09-03T08:12:47Z</time>
      </trkpt>
      <trkpt lat="49.45243" lon="0.29037">
        <ele>4.8</ele>
        <time>2023-09-03T08:12:48Z</time>
      </trkpt>
      <trkpt lat="49.45242" lon="0.29048">
        <ele>4.8</ele>
        <time>2023-09-03T08:12:49Z</time>
      </trkpt>
      <trkpt lat="49.45241" lon="0.29059">
        <ele>4.8</ele>
        <time>2023-09-03T08:12:50Z</time>
      </trkpt>
      <trkpt lat="49.4524" lon="0.29071">
        <ele>4.8</ele>
        <time>2023-09-03T08:12:51Z</time>
      </trkpt>
      <trkpt lat="49.4524" lon="0.29082">
        <ele>4.8</ele>
        <time>2023-09-03T08:12:52Z</time>
      </trkpt>
      <trkpt lat="49.45239" lon="0.29093">
        <ele>4.8</ele>
        <time>2023-09-03T08:12:53Z</time>
      </trkpt>
      <trkpt lat="49.45238" lon="0.29104">
        <ele>4.9</ele>
        <time>2023-09-03T08:12:54Z</time>
      </trkpt>
      <trkpt lat="49.45238" lon="0.29114">
        <ele>4.9</ele>
        <time>2023-09-03T08:12:55Z</time>
      </trkpt>
      <trkpt lat="49.45237" lon="0.29125">
        <ele>4.9</ele>
        <time>2023-09-03T08:12:56Z</time>
      </trkpt>
      <trkpt lat="49.45236" lon="0.29136">
        <ele>4.9</ele>
        <time>2023-09-03T08:12:57Z</time>
      </trkpt>
      <trkpt lat="49.45235" lon="0.29147">
        <ele>4.9</ele>
        <time>2023-09-03T08:12:58Z</time>
      </trkpt>
      <trkpt lat="49.45234" lon="0.29158">
        <ele>4.9</ele>
        <time>2023-09-03T08:12:59Z</time>
      </trkpt>
      <trkpt lat="49.45234" lon="0.29169">
        <ele>4.9</ele>
        <time>2023-09-03T08:13:00Z</time>
      </trkpt>
      <trkpt lat="49.45233" lon="0.29181">
        <ele>4.8</ele>
        <time>2023-09-03T08:13:01Z</time>
      </trkpt>
      <trkpt lat="49.45233" lon="0.29192">
        <ele>4.8</ele>
        <time>2023-09-03T08:13:02Z</time>
      </trkpt>
      <trkpt lat="49.45232" lon="0.29203">
        <ele>4.8</ele>
        <time>2023-09-03T08:13:03Z</time>
      </trkpt>
      <trkpt lat="49.45231" lon="0.29215">
        <ele>4.8</ele>
        <time>2023-09-03T08:13:04Z</time>
      </trkpt>
      <trkpt lat="49.4523" lon="0.29226">
        <ele>4.7</ele>
        <time>2023-09-03T08:13:05Z</time>
      </trkpt>
      <trkpt lat="49.4523" lon="0.29238">
        <ele>4.7</ele>
        <time>2023-09-03T08:13:06Z</time>
      </trkpt>
      <trkpt lat="49.45229" lon="0.29249">
        <ele>4.8</ele>
        <time>2023-09-03T08:13:07Z</time>
      </trkpt>
      <trkpt lat="49.45228" lon="0.29261">
        <ele>4.8</ele>
        <time>2023-09-03T08:13:08Z</time>
      </trkpt>
      <trkpt lat="49.45228" lon="0.29273">
        <ele>4.9</ele>
        <time>2023-09-03T08:13:09Z</time>
      </trkpt>
      <trkpt lat="49.45227" lon="0.29285">
        <ele>4.9</ele>
        <time>2023-09-03T08:13:10Z</time>
      </trkpt>
      <trkpt lat="49.45226" lon="0.29296">
        <ele>4.9</ele>
        <time>2023-09-03T08:13:11Z</time>
      </trkpt>
      <trkpt lat="49.45225" lon="0.29308">
        <ele>4.9</ele>
        <time>2023-09-03T08:13:12Z</time>
      </trkpt>
      <trkpt lat="49.45224" lon="0.2932">
        <ele>4.9</ele>
        <time>2023-09-03T08:13:13Z</time>
      </trkpt>
      <trkpt lat="49.45224" lon="0.29331">
        <ele>4.9</ele>
        <time>2023-09-03T08:13:14Z</time>
      </trkpt>
      <trkpt lat="49.45223" lon="0.29343">
        <ele>4.9</ele>
        <time>2023-09-03T08:13:15Z</time>
      </trkpt>
      <trkpt lat="49.45222" lon="0.29355">
        <ele>4.9</ele>
        <time>2023-09-03T08:13:16Z</time>
      </trkpt>
      <trkpt lat="49.45222" lon="0.29367">
        <ele>4.9</ele>
        <time>2023-09-03T08:13:17Z</time>
      </trkpt>
      <trkpt lat="49.45221" lon="0.29379">
        <ele>4.9</ele>
        <time>2023-09-03T08:13:18Z</time>
      </trkpt>
      <trkpt lat="49.4522" lon="0.2939">
        <ele>4.9</ele>
        <time>2023-09-03T08:13:19Z</time>
      </trkpt>
      <trkpt lat="49.4522" lon="0.29402">
        <ele>4.9</ele>
        <time>2023-09-03T08:13:20Z</time>
      </trkpt>
      <trkpt lat="49.45219" lon="0.29414">
        <ele>4.9</ele>
        <time>2023-09-03T08:13:21Z</time>
      </trkpt>
      <trkpt lat="49.45218" lon="0.29426">
        <ele>4.9</ele>
        <time>2023-09-03T08:13:22Z</time>
      </trkpt>
      <trkpt lat="49.45217" lon="0.29437">
        <ele>4.9</ele>
        <time>2023-09-03T08:13:23Z</time>
      </trkpt>
      <trkpt lat="49.45217" lon="0.29449">
        <ele>4.9</ele>
        <time>2023-09-03T08:13:24Z</time>
      </trkpt>
      <trkpt lat="49.45216" lon="0.2946">
        <ele>4.9</ele>
        <time>2023-09-03T08:13:25Z</time>
      </trkpt>
      <trkpt lat="49.45215" lon="0.29472">
        <ele>4.9</ele>
        <time>2023-09-03T08:13:26Z</time>
      </trkpt>
      <trkpt lat="49.45214" lon="0.29484">
        <ele>4.9</ele>
        <time>2023-09-03T08:13:27Z</time>
      </trkpt>
      <trkpt lat="49.45213" lon="0.29495">
        <ele>4.9</ele>
        <time>2023-09-03T08:13:28Z</time>
      </trkpt>
      <trkpt lat="49.45213" lon="0.29506">
        <ele>4.9</ele>
        <time>2023-09-03T08:13:29Z</time>
      </trkpt>
      <trkpt lat="49.45212" lon="0.29518">
        <ele>4.9</ele>
        <time>2023-09-03T08:13:30Z</time>
      </trkpt>
      <trkpt lat="49.45211" lon="0.29529">
        <ele>4.9</ele>
        <time>2023-09-03T08:13:31Z</time>
      </trkpt>
      <trkpt lat="49.45211" lon="0.2954">
        <ele>4.9</ele>
        <time>2023-09-03T08:13:32Z</time>
      </trkpt>
      <trkpt lat="49.4521" lon="0.29551">
        <ele>4.9</ele>
        <time>2023-09-03T08:13:33Z</time>
      </trkpt>
      <trkpt lat="49.45209" lon="0.29562">
        <ele>4.9</ele>
        <time>2023-09-03T08:13:34Z</time>
      </trkpt>
      <trkpt lat="49.45209" lon="0.29574">
        <ele>4.9</ele>
        <time>2023-09-03T08:13:35Z</time>
      </trkpt>
      <trkpt lat="49.45208" lon="0.29585">
        <ele>4.9</ele>
        <time>2023-09-03T08:13:36Z</time>
      </trkpt>
      <trkpt lat="49.45207" lon="0.29597">
        <ele>4.9</ele>
        <time>2023-09-03T08:13:37Z</time>
      </trkpt>
      <trkpt lat="49.45206" lon="0.29608">
        <ele>4.9</ele>
        <time>2023-09-03T08:13:38Z</time>
      </trkpt>
      <trkpt lat="49.45206" lon="0.2962">
        <ele>4.9</ele>
        <time>2023-09-03T08:13:39Z</time>
      </trkpt>
      <trkpt lat="49.45205" lon="0.29631">
        <ele>4.9</ele>
        <time>2023-09-03T08:13:40Z</time>
      </trkpt>
      <trkpt lat="49.45205" lon="0.29642">
        <ele>4.9</ele>
        <time>2023-09-03T08:13:41Z</time>
      </trkpt>
      <trkpt lat="49.45204" lon="0.29654">
        <ele>4.9</ele>
        <time>2023-09-03T08:13:42Z</time>
      </trkpt>
      <trkpt lat="49.45203" lon="0.29666">
        <ele>4.9</ele>
        <time>2023-09-03T08:13:43Z</time>
      </trkpt>
      <trkpt lat="49.45202" lon="0.29677">
        <ele>4.9</ele>
        <time>2023-09-03T08:13:44Z</time>
      </trkpt>
      <trkpt lat="49.45202" lon="0.29688">
        <ele>4.9</ele>
        <time>2023-09-03T08:13:45Z</time>
      </trkpt>
      <trkpt lat="49.45201" lon="0.29699">
        <ele>4.9</ele>
        <time>2023-09-03T08:13:46Z</time>
      </trkpt>
      <trkpt lat="49.45201" lon="0.29711">
        <ele>4.9</ele>
        <time>2023-09-03T08:13:47Z</time>
      </trkpt>
      <trkpt lat="49.452" lon="0.29722">
        <ele>4.9</ele>
        <time>2023-09-03T08:13:48Z</time>
      </trkpt>
      <trkpt lat="49.45199" lon="0.29733">
        <ele>4.9</ele>
        <time>2023-09-03T08:13:49Z</time>
      </trkpt>
      <trkpt lat="49.45199" lon="0.29744">
        <ele>4.9</ele>
        <time>2023-09-03T08:13:50Z</time>
      </trkpt>
      <trkpt lat="49.45198" lon="0.29755">
        <ele>4.9</ele>
        <time>2023-09-03T08:13:51Z</time>
      </trkpt>
      <trkpt lat="49.45197" lon="0.29766">
        <ele>4.9</ele>
        <time>2023-09-03T08:13:52Z</time>
      </trkpt>
      <trkpt lat="49.45197" lon="0.29777">
        <ele>4.9</ele>
        <time>2023-09-03T08:13:53Z</time>
      </trkpt>
      <trkpt lat="49.45196" lon="0.29789">
        <ele>4.9</ele>
        <time>2023-09-03T08:13:54Z</time>
      </trkpt>
      <trkpt lat="49.45195" lon="0.298">
        <ele>4.9</ele>
        <time>2023-09-03T08:13:55Z</time>
      </trkpt>
      <trkpt lat="49.45194" lon="0.29812">
        <ele>4.9</ele>
        <time>2023-09-03T08:13:56Z</time>
      </trkpt>
      <trkpt lat="49.45194" lon="0.29824">
        <ele>4.9</ele>
        <time>2023-09-03T08:13:57Z</time>
      </trkpt>
      <trkpt lat="49.45193" lon="0.29835">
        <ele>4.9</ele>
        <time>2023-09-03T08:13:58Z</time>
      </trkpt>
      <trkpt lat="49.45192" lon="0.29846">
        <ele>5</ele>
        <time>2023-09-03T08:13:59Z</time>
      </trkpt>
      <trkpt lat="49.45191" lon="0.29857">
        <ele>5</ele>
        <time>2023-09-03T08:14:00Z</time>
      </trkpt>
      <trkpt lat="49.4519" lon="0.29868">
        <ele>5</ele>
        <time>2023-09-03T08:14:01Z</time>
      </trkpt>
      <trkpt lat="49.45189" lon="0.2988">
        <ele>5</ele>
        <time>2023-09-03T08:14:02Z</time>
      </trkpt>
      <trkpt lat="49.45188" lon="0.29891">
        <ele>5</ele>
        <time>2023-09-03T08:14:03Z</time>
      </trkpt>
      <trkpt lat="49.45188" lon="0.29902">
        <ele>5</ele>
        <time>2023-09-03T08:14:04Z</time>
      </trkpt>
      <trkpt lat="49.45187" lon="0.29914">
        <ele>5</ele>
        <time>2023-09-03T08:14:05Z</time>
      </trkpt>
      <trkpt lat="49.45187" lon="0.29925">
        <ele>5</ele>
        <time>2023-09-03T08:14:06Z</time>
      </trkpt>
      <trkpt lat="49.45186" lon="0.29937">
        <ele>5</ele>
        <time>2023-09-03T08:14:07Z</time>
      </trkpt>
      <trkpt lat="49.45185" lon="0.29948">
        <ele>5</ele>
        <time>2023-09-03T08:14:08Z</time>
      </trkpt>
      <trkpt lat="49.45185" lon="0.29959">
        <ele>5</ele>
        <time>2023-09-03T08:14:09Z</time>
      </trkpt>
      <trkpt lat="49.45184" lon="0.2997">
        <ele>4.9</ele>
        <time>2023-09-03T08:14:10Z</time>
      </trkpt>
      <trkpt lat="49.45184" lon="0.29981">
        <ele>4.9</ele>
        <time>2023-09-03T08:14:11Z</time>
      </trkpt>
      <trkpt lat="49.45183" lon="0.29993">
        <ele>4.9</ele>
        <time>2023-09-03T08:14:12Z</time>
      </trkpt>
      <trkpt lat="49.45182" lon="0.30004">
        <ele>4.9</ele>
        <time>2023-09-03T08:14:13Z</time>
      </trkpt>
      <trkpt lat="49.45182" lon="0.30015">
        <ele>4.9</ele>
        <time>2023-09-03T08:14:14Z</time>
      </trkpt>
      <trkpt lat="49.45181" lon="0.30026">
        <ele>4.9</ele>
        <time>2023-09-03T08:14:15Z</time>
      </trkpt>
      <trkpt lat="49.4518" lon="0.30038">
        <ele>4.9</ele>
        <time>2023-09-03T08:14:16Z</time>
      </trkpt>
      <trkpt lat="49.4518" lon="0.30049">
        <ele>4.9</ele>
        <time>2023-09-03T08:14:17Z</time>
      </trkpt>
      <trkpt lat="49.45179" lon="0.3006">
        <ele>4.9</ele>
        <time>2023-09-03T08:14:18Z</time>
      </trkpt>
      <trkpt lat="49.45179" lon="0.30072">
        <ele>4.9</ele>
        <time>2023-09-03T08:14:19Z</time>
      </trkpt>
      <trkpt lat="49.45178" lon="0.30083">
        <ele>4.9</ele>
        <time>2023-09-03T08:14:20Z</time>
      </trkpt>
      <trkpt lat="49.45178" lon="0.30095">
        <ele>4.9</ele>
        <time>2023-09-03T08:14:21Z</time>
      </trkpt>
      <trkpt lat="49.45177" lon="0.30106">
        <ele>4.9</ele>
        <time>2023-09-03T08:14:22Z</time>
      </trkpt>
      <trkpt lat="49.45176" lon="0.30117">
        <ele>4.9</ele>
        <time>2023-09-03T08:14:23Z</time>
      </trkpt>
      <trkpt lat="49.45175" lon="0.30129">
        <ele>4.8</ele>
        <time>2023-09-03T08:14:24Z</time>
      </trkpt>
      <trkpt lat="49.45175" lon="0.3014">
        <ele>4.8</ele>
        <time>2023-09-03T08:14:25Z</time>
      </trkpt>
      <trkpt lat="49.45174" lon="0.30151">
        <ele>4.8</ele>
        <time>2023-09-03T08:14:26Z</time>
      </trkpt>
      <trkpt lat="49.45173" lon="0.30163">
        <ele>4.7</ele>
        <time>2023-09-03T08:14:27Z</time>
      </trkpt>
      <trkpt lat="49.45173" lon="0.30175">
        <ele>4.7</ele>
        <time>2023-09-03T08:14:28Z</time>
      </trkpt>
      <trkpt lat="49.45172" lon="0.30186">
        <ele>4.7</ele>
        <time>2023-09-03T08:14:29Z</time>
      </trkpt>
      <trkpt lat="49.45171" lon="0.30197">
        <ele>4.7</ele>
        <time>2023-09-03T08:14:30Z</time>
      </trkpt>
      <trkpt lat="49.45171" lon="0.30209">
        <ele>4.7</ele>
        <time>2023-09-03T08:14:31Z</time>
      </trkpt>
      <trkpt lat="49.45171" lon="0.30221">
        <ele>4.7</ele>
        <time>2023-09-03T08:14:32Z</time>
      </trkpt>
      <trkpt lat="49.4517" lon="0.30233">
        <ele>4.7</ele>
        <time>2023-09-03T08:14:33Z</time>
      </trkpt>
      <trkpt lat="49.45169" lon="0.30244">
        <ele>4.7</ele>
        <time>2023-09-03T08:14:34Z</time>
      </trkpt>
      <trkpt lat="49.45169" lon="0.30255">
        <ele>4.7</ele>
        <time>2023-09-03T08:14:35Z</time>
      </trkpt>
      <trkpt lat="49.45168" lon="0.30266">
        <ele>4.7</ele>
        <time>2023-09-03T08:14:36Z</time>
      </trkpt>
      <trkpt lat="49.45167" lon="0.30277">
        <ele>4.8</ele>
        <time>2023-09-03T08:14:37Z</time>
      </trkpt>
      <trkpt lat="49.45166" lon="0.30288">
        <ele>4.8</ele>
        <time>2023-09-03T08:14:38Z</time>
      </trkpt>
      <trkpt lat="49.45165" lon="0.303">
        <ele>4.8</ele>
        <time>2023-09-03T08:14:39Z</time>
      </trkpt>
      <trkpt lat="49.45165" lon="0.30311">
        <ele>4.8</ele>
        <time>2023-09-03T08:14:40Z</time>
      </trkpt>
      <trkpt lat="49.45164" lon="0.30323">
        <ele>4.8</ele>
        <time>2023-09-03T08:14:41Z</time>
      </trkpt>
      <trkpt lat="49.45163" lon="0.30335">
        <ele>4.7</ele>
        <time>2023-09-03T08:14:42Z</time>
      </trkpt>
      <trkpt lat="49.45163" lon="0.30347">
        <ele>4.7</ele>
        <time>2023-09-03T08:14:43Z</time>
      </trkpt>
      <trkpt lat="49.45162" lon="0.30358">
        <ele>4.7</ele>
        <time>2023-09-03T08:14:44Z</time>
      </trkpt>
      <trkpt lat="49.45162" lon="0.3037">
        <ele>4.7</ele>
        <time>2023-09-03T08:14:45Z</time>
      </trkpt>
      <trkpt lat="49.45161" lon="0.30381">
        <ele>4.8</ele>
        <time>2023-09-03T08:14:46Z</time>
      </trkpt>
      <trkpt lat="49.45161" lon="0.30392">
        <ele>4.8</ele>
        <time>2023-09-03T08:14:47Z</time>
      </trkpt>
      <trkpt lat="49.4516" lon="0.30403">
        <ele>4.8</ele>
        <time>2023-09-03T08:14:48Z</time>
      </trkpt>
      <trkpt lat="49.45159" lon="0.30415">
        <ele>4.8</ele>
        <time>2023-09-03T08:14:49Z</time>
      </trkpt>
      <trkpt lat="49.45158" lon="0.30426">
        <ele>4.8</ele>
        <time>2023-09-03T08:14:50Z</time>
      </trkpt>
      <trkpt lat="49.45158" lon="0.30438">
        <ele>4.8</ele>
        <time>2023-09-03T08:14:51Z</time>
      </trkpt>
      <trkpt lat="49.45157" lon="0.30449">
        <ele>4.7</ele>
        <time>2023-09-03T08:14:52Z</time>
      </trkpt>
      <trkpt lat="49.45156" lon="0.30461">
        <ele>4.7</ele>
        <time>2023-09-03T08:14:53Z</time>
      </trkpt>
      <trkpt lat="49.45156" lon="0.30473">
        <ele>4.7</ele>
        <time>2023-09-03T08:14:54Z</time>
      </trkpt>
      <trkpt lat="49.45155" lon="0.30485">
        <ele>4.7</ele>
        <time>2023-09-03T08:14:55Z</time>
      </trkpt>
      <trkpt lat="49.45155" lon="0.30496">
        <ele>4.7</ele>
        <time>2023-09-03T08:14:56Z</time>
      </trkpt>
      <trkpt lat="49.45154" lon="0.30507">
        <ele>4.7</ele>
        <time>2023-09-03T08:14:57Z</time>
      </trkpt>
      <trkpt lat="49.45153" lon="0.30518">
        <ele>4.7</ele>
        <time>2023-09-03T08:14:58Z</time>
      </trkpt>
      <trkpt lat="49.45152" lon="0.30529">
        <ele>4.7</ele>
        <time>2023-09-03T08:14:59Z</time>
      </trkpt>
      <trkpt lat="49.45151" lon="0.30541">
        <ele>4.8</ele>
        <time>2023-09-03T08:15:00Z</time>
      </trkpt>
      <trkpt lat="49.45151" lon="0.30552">
        <ele>4.8</ele>
        <time>2023-09-03T08:15:01Z</time>
      </trkpt>
      <trkpt lat="49.4515" lon="0.30564">
        <ele>4.8</ele>
        <time>2023-09-03T08:15:02Z</time>
      </trkpt>
      <trkpt lat="49.4515" lon="0.30576">
        <ele>4.8</ele>
        <time>2023-09-03T08:15:03Z</time>
      </trkpt>
      <trkpt lat="49.45149" lon="0.30587">
        <ele>4.8</ele>
        <time>2023-09-03T08:15:04Z</time>
      </trkpt>
      <trkpt lat="49.45149" lon="0.30598">
        <ele>4.8</ele>
        <time>2023-09-03T08:15:05Z</time>
      </trkpt>
      <trkpt lat="49.45148" lon="0.3061">
        <ele>4.8</ele>
        <time>2023-09-03T08:15:06Z</time>
      </trkpt>
      <trkpt lat="49.45147" lon="0.30621">
        <ele>4.8</ele>
        <time>2023-09-03T08:15:07Z</time>
      </trkpt>
      <trkpt lat="49.45147" lon="0.30632">
        <ele>4.8</ele>
        <time>2023-09-03T08:15:08Z</time>
      </trkpt>
      <trkpt lat="49.45146" lon="0.30643">
        <ele>4.8</ele>
        <time>2023-09-03T08:15:09Z</time>
      </trkpt>
      <trkpt lat="49.45146" lon="0.30655">
        <ele>4.9</ele>
        <time>2023-09-03T08:15:10Z</time>
      </trkpt>
      <trkpt lat="49.45145" lon="0.30666">
        <ele>4.9</ele>
        <time>2023-09-03T08:15:11Z</time>
      </trkpt>
      <trkpt lat="49.45145" lon="0.30678">
        <ele>4.9</ele>
        <time>2023-09-03T08:15:12Z</time>
      </trkpt>
      <trkpt lat="49.45144" lon="0.30689">
        <ele>4.9</ele>
        <time>2023-09-03T08:15:13Z</time>
      </trkpt>
      <trkpt lat="49.45143" lon="0.307">
        <ele>4.9</ele>
        <time>2023-09-03T08:15:14Z</time>
      </trkpt>
      <trkpt lat="49.45143" lon="0.30711">
        <ele>4.9</ele>
        <time>2023-09-03T08:15:15Z</time>
      </trkpt>
      <trkpt lat="49.45142" lon="0.30722">
        <ele>4.9</ele>
        <time>2023-09-03T08:15:16Z</time>
      </trkpt>
      <trkpt lat="49.45142" lon="0.30733">
        <ele>4.9</ele>
        <time>2023-09-03T08:15:17Z</time>
      </trkpt>
      <trkpt lat="49.45141" lon="0.30745">
        <ele>4.9</ele>
        <time>2023-09-03T08:15:18Z</time>
      </trkpt>
      <trkpt lat="49.4514" lon="0.30756">
        <ele>4.9</ele>
        <time>2023-09-03T08:15:19Z</time>
      </trkpt>
      <trkpt lat="49.4514" lon="0.30768">
        <ele>4.9</ele>
        <time>2023-09-03T08:15:20Z</time>
      </trkpt>
      <trkpt lat="49.45139" lon="0.3078">
        <ele>4.9</ele>
        <time>2023-09-03T08:15:21Z</time>
      </trkpt>
      <trkpt lat="49.45139" lon="0.30791">
        <ele>4.9</ele>
        <time>2023-09-03T08:15:22Z</time>
      </trkpt>
      <trkpt lat="49.45138" lon="0.30803">
        <ele>4.9</ele>
        <time>2023-09-03T08:15:23Z</time>
      </trkpt>
      <trkpt lat="49.45137" lon="0.30815">
        <ele>4.9</ele>
        <time>2023-09-03T08:15:24Z</time>
      </trkpt>
      <trkpt lat="49.45137" lon="0.30826">
        <ele>4.9</ele>
        <time>2023-09-03T08:15:25Z</time>
      </trkpt>
      <trkpt lat="49.45136" lon="0.30837">
        <ele>5</ele>
        <time>2023-09-03T08:15:26Z</time>
      </trkpt>
      <trkpt lat="49.45136" lon="0.30849">
        <ele>5</ele>
        <time>2023-09-03T08:15:27Z</time>
      </trkpt>
      <trkpt lat="49.45135" lon="0.3086">
        <ele>5.1</ele>
        <time>2023-09-03T08:15:28Z</time>
      </trkpt>
      <trkpt lat="49.45134" lon="0.30872">
        <ele>5.1</ele>
        <time>2023-09-03T08:15:29Z</time>
      </trkpt>
      <trkpt lat="49.45133" lon="0.30884">
        <ele>5.1</ele>
        <time>2023-09-03T08:15:30Z</time>
      </trkpt>
      <trkpt lat="49.45133" lon="0.30895">
        <ele>5.1</ele>
        <time>2023-09-03T08:15:31Z</time>
      </trkpt>
      <trkpt lat="49.45132" lon="0.30907">
        <ele>5</ele>
        <time>2023-09-03T08:15:32Z</time>
      </trkpt>
      <trkpt lat="49.45132" lon="0.30919">
        <ele>5</ele>
        <time>2023-09-03T08:15:33Z</time>
      </trkpt>
      <trkpt lat="49.45132" lon="0.3093">
        <ele>5</ele>
        <time>2023-09-03T08:15:34Z</time>
      </trkpt>
      <trkpt lat="49.45131" lon="0.30942">
        <ele>4.9</ele>
        <time>2023-09-03T08:15:35Z</time>
      </trkpt>
      <trkpt lat="49.45131" lon="0.30953">
        <ele>4.9</ele>
        <time>2023-09-03T08:15:36Z</time>
      </trkpt>
      <trkpt lat="49.4513" lon="0.30964">
        <ele>5</ele>
        <time>2023-09-03T08:15:37Z</time>
      </trkpt>
      <trkpt lat="49.45129" lon="0.30976">
        <ele>5</ele>
        <time>2023-09-03T08:15:38Z</time>
      </trkpt>
      <trkpt lat="49.45128" lon="0.30987">
        <ele>5</ele>
        <time>2023-09-03T08:15:39Z</time>
      </trkpt>
      <trkpt lat="49.45128" lon="0.30999">
        <ele>5</ele>
        <time>2023-09-03T08:15:40Z</time>
      </trkpt>
      <trkpt lat="49.45127" lon="0.31011">
        <ele>5</ele>
        <time>2023-09-03T08:15:41Z</time>
      </trkpt>
      <trkpt lat="49.45127" lon="0.31022">
        <ele>5</ele>
        <time>2023-09-03T08:15:42Z</time>
      </trkpt>
      <trkpt lat="49.45126" lon="0.31033">
        <ele>5</ele>
        <time>2023-09-03T08:15:43Z</time>
      </trkpt>
      <trkpt lat="49.45126" lon="0.31044">
        <ele>5</ele>
        <time>2023-09-03T08:15:44Z</time>
      </trkpt>
      <trkpt lat="49.45126" lon="0.31055">
        <ele>5</ele>
        <time>2023-09-03T08:15:45Z</time>
      </trkpt>
      <trkpt lat="49.45125" lon="0.31066">
        <ele>5</ele>
        <time>2023-09-03T08:15:46Z</time>
      </trkpt>
      <trkpt lat="49.45125" lon="0.31076">
        <ele>4.9</ele>
        <time>2023-09-03T08:15:47Z</time>
      </trkpt>
      <trkpt lat="49.45124" lon="0.31086">
        <ele>4.9</ele>
        <time>2023-09-03T08:15:48Z</time>
      </trkpt>
      <trkpt lat="49.45124" lon="0.31096">
        <ele>4.9</ele>
        <time>2023-09-03T08:15:49Z</time>
      </trkpt>
      <trkpt lat="49.45123" lon="0.31105">
        <ele>4.9</ele>
        <time>2023-09-03T08:15:50Z</time>
      </trkpt>
      <trkpt lat="49.45123" lon="0.31114">
        <ele>4.8</ele>
        <time>2023-09-03T08:15:51Z</time>
      </trkpt>
      <trkpt lat="49.45122" lon="0.31122">
        <ele>4.8</ele>
        <time>2023-09-03T08:15:52Z</time>
      </trkpt>
      <trkpt lat="49.45122" lon="0.3113">
        <ele>4.8</ele>
        <time>2023-09-03T08:15:53Z</time>
      </trkpt>
      <trkpt lat="49.45122" lon="0.31139">
        <ele>4.8</ele>
        <time>2023-09-03T08:15:54Z</time>
      </trkpt>
      <trkpt lat="49.45121" lon="0.31148">
        <ele>4.8</ele>
        <time>2023-09-03T08:15:55Z</time>
      </trkpt>
      <trkpt lat="49.45121" lon="0.31156">
        <ele>4.8</ele>
        <time>2023-09-03T08:15:56Z</time>
      </trkpt>
      <trkpt lat="49.4512" lon="0.31165">
        <ele>4.8</ele>
        <time>2023-09-03T08:15:57Z</time>
      </trkpt>
      <trkpt lat="49.4512" lon="0.31173">
        <ele>4.9</ele>
        <time>2023-09-03T08:15:58Z</time>
      </trkpt>
      <trkpt lat="49.45119" lon="0.31182">
        <ele>4.9</ele>
        <time>2023-09-03T08:15:59Z</time>
      </trkpt>
      <trkpt lat="49.45119" lon="0.3119">
        <ele>4.9</ele>
        <time>2023-09-03T08:16:00Z</time>
      </trkpt>
      <trkpt lat="49.45119" lon="0.31199">
        <ele>4.8</ele>
        <time>2023-09-03T08:16:01Z</time>
      </trkpt>
      <trkpt lat="49.45118" lon="0.31207">
        <ele>4.8</ele>
        <time>2023-09-03T08:16:02Z</time>
      </trkpt>
      <trkpt lat="49.45117" lon="0.31215">
        <ele>4.8</ele>
        <time>2023-09-03T08:16:03Z</time>
      </trkpt>
      <trkpt lat="49.45117" lon="0.31224">
        <ele>4.8</ele>
        <time>2023-09-03T08:16:04Z</time>
      </trkpt>
      <trkpt lat="49.45116" lon="0.31233">
        <ele>4.8</ele>
        <time>2023-09-03T08:16:05Z</time>
      </trkpt>
      <trkpt lat="49.45116" lon="0.31242">
        <ele>4.8</ele>
        <time>2023-09-03T08:16:06Z</time>
      </trkpt>
      <trkpt lat="49.45115" lon="0.31252">
        <ele>4.9</ele>
        <time>2023-09-03T08:16:07Z</time>
      </trkpt>
      <trkpt lat="49.45115" lon="0.31262">
        <ele>4.9</ele>
        <time>2023-09-03T08:16:08Z</time>
      </trkpt>
      <trkpt lat="49.45114" lon="0.31271">
        <ele>4.9</ele>
        <time>2023-09-03T08:16:09Z</time>
      </trkpt>
      <trkpt lat="49.45113" lon="0.31281">
        <ele>4.9</ele>
        <time>2023-09-03T08:16:10Z</time>
      </trkpt>
      <trkpt lat="49.45113" lon="0.31291">
        <ele>4.9</ele>
        <time>2023-09-03T08:16:11Z</time>
      </trkpt>
      <trkpt lat="49.45112" lon="0.313">
        <ele>4.9</ele>
        <time>2023-09-03T08:16:12Z</time>
      </trkpt>
      <trkpt lat="49.45112" lon="0.3131">
        <ele>4.9</ele>
        <time>2023-09-03T08:16:13Z</time>
      </trkpt>
      <trkpt lat="49.45111" lon="0.3132">
        <ele>4.9</ele>
        <time>2023-09-03T08:16:14Z</time>
      </trkpt>
      <trkpt lat="49.45111" lon="0.31329">
        <ele>5</ele>
        <time>2023-09-03T08:16:15Z</time>
      </trkpt>
      <trkpt lat="49.45111" lon="0.31338">
        <ele>5</ele>
        <time>2023-09-03T08:16:16Z</time>
      </trkpt>
      <trkpt lat="49.4511" lon="0.31348">
        <ele>5</ele>
        <time>2023-09-03T08:16:17Z</time>
      </trkpt>
      <trkpt lat="49.4511" lon="0.31358">
        <ele>5</ele>
        <time>2023-09-03T08:16:18Z</time>
      </trkpt>
      <trkpt lat="49.4511" lon="0.31368">
        <ele>5</ele>
        <time>2023-09-03T08:16:19Z</time>
      </trkpt>
      <trkpt lat="49.4511" lon="0.31378">
        <ele>4.9</ele>
        <time>2023-09-03T08:16:20Z</time>
      </trkpt>
      <trkpt lat="49.45109" lon="0.31388">
        <ele>4.9</ele>
        <time>2023-09-03T08:16:21Z</time>
      </trkpt>
      <trkpt lat="49.45109" lon="0.31398">
        <ele>4.9</ele>
        <time>2023-09-03T08:16:22Z</time>
      </trkpt>
      <trkpt lat="49.45108" lon="0.31408">
        <ele>4.9</ele>
        <time>2023-09-03T08:16:23Z</time>
      </trkpt>
      <trkpt lat="49.45108" lon="0.31417">
        <ele>4.9</ele>
        <time>2023-09-03T08:16:24Z</time>
      </trkpt>
      <trkpt lat="49.45108" lon="0.31427">
        <ele>4.9</ele>
        <time>2023-09-03T08:16:25Z</time>
      </trkpt>
      <trkpt lat="49.45107" lon="0.31436">
        <ele>4.9</ele>
        <time>2023-09-03T08:16:26Z</time>
      </trkpt>
      <trkpt lat="49.45107" lon="0.31446">
        <ele>5</ele>
        <time>2023-09-03T08:16:27Z</time>
      </trkpt>
      <trkpt lat="49.45106" lon="0.31455">
        <ele>5</ele>
        <time>2023-09-03T08:16:28Z</time>
      </trkpt>
      <trkpt lat="49.45105" lon="0.31465">
        <ele>5</ele>
        <time>2023-09-03T08:16:29Z</time>
      </trkpt>
      <trkpt lat="49.45105" lon="0.31474">
        <ele>5</ele>
        <time>2023-09-03T08:16:30Z</time>
      </trkpt>
      <trkpt lat="49.45104" lon="0.31484">
        <ele>5</ele>
        <time>2023-09-03T08:16:31Z</time>
      </trkpt>
      <trkpt lat="49.45104" lon="0.31493">
        <ele>5</ele>
        <time>2023-09-03T08:16:32Z</time>
      </trkpt>
      <trkpt lat="49.45104" lon="0.31502">
        <ele>5</ele>
        <time>2023-09-03T08:16:33Z</time>
      </trkpt>
      <trkpt lat="49.45104" lon="0.31511">
        <ele>5</ele>
        <time>2023-09-03T08:16:34Z</time>
      </trkpt>
      <trkpt lat="49.45104" lon="0.31519">
        <ele>5</ele>
        <time>2023-09-03T08:16:35Z</time>
      </trkpt>
      <trkpt lat="49.45104" lon="0.31527">
        <ele>5</ele>
        <time>2023-09-03T08:16:36Z</time>
      </trkpt>
      <trkpt lat="49.45103" lon="0.31535">
        <ele>5</ele>
        <time>2023-09-03T08:16:37Z</time>
      </trkpt>
      <trkpt lat="49.45103" lon="0.31542">
        <ele>5</ele>
        <time>2023-09-03T08:16:38Z</time>
      </trkpt>
      <trkpt lat="49.45102" lon="0.3155">
        <ele>5</ele>
        <time>2023-09-03T08:16:39Z</time>
      </trkpt>
      <trkpt lat="49.45101" lon="0.31558">
        <ele>5</ele>
        <time>2023-09-03T08:16:40Z</time>
      </trkpt>
      <trkpt lat="49.45101" lon="0.31565">
        <ele>5</ele>
        <time>2023-09-03T08:16:41Z</time>
      </trkpt>
      <trkpt lat="49.451" lon="0.31573">
        <ele>5</ele>
        <time>2023-09-03T08:16:42Z</time>
      </trkpt>
      <trkpt lat="49.451" lon="0.3158">
        <ele>5</ele>
        <time>2023-09-03T08:16:43Z</time>
      </trkpt>
      <trkpt lat="49.45099" lon="0.31588">
        <ele>5</ele>
        <time>2023-09-03T08:16:44Z</time>
      </trkpt>
      <trkpt lat="49.45099" lon="0.31595">
        <ele>5</ele>
        <time>2023-09-03T08:16:45Z</time>
      </trkpt>
      <trkpt lat="49.45099" lon="0.31602">
        <ele>5</ele>
        <time>2023-09-03T08:16:46Z</time>
      </trkpt>
      <trkpt lat="49.45098" lon="0.31609">
        <ele>5</ele>
        <time>2023-09-03T08:16:47Z</time>
      </trkpt>
      <trkpt lat="49.45098" lon="0.31617">
        <ele>4.9</ele>
        <time>2023-09-03T08:16:48Z</time>
      </trkpt>
      <trkpt lat="49.45098" lon="0.31624">
        <ele>4.9</ele>
        <time>2023-09-03T08:16:49Z</time>
      </trkpt>
      <trkpt lat="49.45098" lon="0.31631">
        <ele>4.9</ele>
        <time>2023-09-03T08:16:50Z</time>
      </trkpt>
      <trkpt lat="49.45097" lon="0.31639">
        <ele>4.9</ele>
        <time>2023-09-03T08:16:51Z</time>
      </trkpt>
      <trkpt lat="49.45097" lon="0.31646">
        <ele>4.9</ele>
        <time>2023-09-03T08:16:52Z</time>
      </trkpt>
      <trkpt lat="49.45096" lon="0.31654">
        <ele>4.9</ele>
        <time>2023-09-03T08:16:53Z</time>
      </trkpt>
      <trkpt lat="49.45096" lon="0.31662">
        <ele>4.9</ele>
        <time>2023-09-03T08:16:54Z</time>
      </trkpt>
      <trkpt lat="49.45095" lon="0.31669">
        <ele>4.9</ele>
        <time>2023-09-03T08:16:55Z</time>
      </trkpt>
      <trkpt lat="49.45095" lon="0.31677">
        <ele>4.9</ele>
        <time>2023-09-03T08:16:56Z</time>
      </trkpt>
      <trkpt lat="49.45094" lon="0.31684">
        <ele>4.9</ele>
        <time>2023-09-03T08:16:57Z</time>
      </trkpt>
      <trkpt lat="49.45094" lon="0.31691">
        <ele>4.9</ele>
        <time>2023-09-03T08:16:58Z</time>
      </trkpt>
      <trkpt lat="49.45093" lon="0.31699">
        <ele>4.9</ele>
        <time>2023-09-03T08:16:59Z</time>
      </trkpt>
      <trkpt lat="49.45093" lon="0.31706">
        <ele>4.9</ele>
        <time>2023-09-03T08:17:00Z</time>
      </trkpt>
      <trkpt lat="49.45092" lon="0.31713">
        <ele>4.8</ele>
        <time>2023-09-03T08:17:01Z</time>
      </trkpt>
      <trkpt lat="49.45092" lon="0.3172">
        <ele>4.8</ele>
        <time>2023-09-03T08:17:02Z</time>
      </trkpt>
      <trkpt lat="49.45091" lon="0.31727">
        <ele>4.8</ele>
        <time>2023-09-03T08:17:03Z</time>
      </trkpt>
      <trkpt lat="49.45091" lon="0.31735">
        <ele>4.8</ele>
        <time>2023-09-03T08:17:04Z</time>
      </trkpt>
      <trkpt lat="49.45091" lon="0.31742">
        <ele>4.8</ele>
        <time>2023-09-03T08:17:05Z</time>
      </trkpt>
      <trkpt lat="49.45091" lon="0.3175">
        <ele>4.8</ele>
        <time>2023-09-03T08:17:06Z</time>
      </trkpt>
      <trkpt lat="49.45091" lon="0.31757">
        <ele>4.7</ele>
        <time>2023-09-03T08:17:07Z</time>
      </trkpt>
      <trkpt lat="49.45091" lon="0.31765">
        <ele>4.7</ele>
        <time>2023-09-03T08:17:08Z</time>
      </trkpt>
      <trkpt lat="49.45091" lon="0.31773">
        <ele>4.7</ele>
        <time>2023-09-03T08:17:09Z</time>
      </trkpt>
      <trkpt lat="49.4509" lon="0.3178">
        <ele>4.7</ele>
        <time>2023-09-03T08:17:10Z</time>
      </trkpt>
      <trkpt lat="49.4509" lon="0.31788">
        <ele>4.7</ele>
        <time>2023-09-03T08:17:11Z</time>
      </trkpt>
      <trkpt lat="49.4509" lon="0.31796">
        <ele>4.7</ele>
        <time>2023-09-03T08:17:12Z</time>
      </trkpt>
      <trkpt lat="49.4509" lon="0.31804">
        <ele>4.7</ele>
        <time>2023-09-03T08:17:13Z</time>
      </trkpt>
      <trkpt lat="49.45089" lon="0.31812">
        <ele>4.7</ele>
        <time>2023-09-03T08:17:14Z</time>
      </trkpt>
      <trkpt lat="49.45089" lon="0.3182">
        <ele>4.7</ele>
        <time>2023-09-03T08:17:15Z</time>
      </trkpt>
      <trkpt lat="49.45088" lon="0.31827">
        <ele>4.7</ele>
        <time>2023-09-03T08:17:16Z</time>
      </trkpt>
      <trkpt lat="49.45088" lon="0.31835">
        <ele>4.7</ele>
        <time>2023-09-03T08:17:17Z</time>
      </trkpt>
      <trkpt lat="49.45087" lon="0.31842">
        <ele>4.7</ele>
        <time>2023-09-03T08:17:18Z</time>
      </trkpt>
      <trkpt lat="49.45088" lon="0.31849">
        <ele>4.8</ele>
        <time>2023-09-03T08:17:19Z</time>
      </trkpt>
      <trkpt lat="49.45088" lon="0.31856">
        <ele>4.8</ele>
        <time>2023-09-03T08:17:20Z</time>
      </trkpt>
      <trkpt lat="49.45087" lon="0.31862">
        <ele>4.8</ele>
        <time>2023-09-03T08:17:21Z</time>
      </trkpt>
      <trkpt lat="49.45086" lon="0.31869">
        <ele>4.8</ele>
        <time>2023-09-03T08:17:22Z</time>
      </trkpt>
      <trkpt lat="49.45086" lon="0.31875">
        <ele>4.8</ele>
        <time>2023-09-03T08:17:23Z</time>
      </trkpt>
      <trkpt lat="49.45086" lon="0.31881">
        <ele>4.8</ele>
        <time>2023-09-03T08:17:24Z</time>
      </trkpt>
      <trkpt lat="49.45086" lon="0.31886">
        <ele>4.8</ele>
        <time>2023-09-03T08:17:25Z</time>
      </trkpt>
      <trkpt lat="49.45086" lon="0.31887">
        <ele>4.8</ele>
        <time>2023-09-03T08:17:26Z</time>
      </trkpt>
      <trkpt lat="49.45086" lon="0.31888">
        <ele>4.8</ele>
        <time>2023-09-03T08:17:27Z</time>
      </trkpt>
      <trkpt lat="49.45086" lon="0.31889">
        <ele>4.8</ele>
        <time>2023-09-03T08:17:28Z</time>
      </trkpt>
      <trkpt lat="49.45086" lon="0.31889">
        <ele>4.8</ele>
        <time>2023-09-03T08:17:29Z</time>
      </trkpt>
      <trkpt lat="49.45086" lon="0.3189">
        <ele>4.8</ele>
        <time>2023-09-03T08:17:30Z</time>
      </trkpt>
      <trkpt lat="49.45086" lon="0.31891">
        <ele>4.8</ele>
        <time>2023-09-03T08:17:31Z</time>
      </trkpt>
      <trkpt lat="49.45086" lon="0.31892">
        <ele>4.8</ele>
        <time>2023-09-03T08:17:32Z</time>
      </trkpt>
      <trkpt lat="49.45086" lon="0.31892">
        <ele>4.8</ele>
        <time>2023-09-03T08:17:33Z</time>
      </trkpt>
      <trkpt lat="49.45086" lon="0.31893">
        <ele>4.8</ele>
        <time>2023-09-03T08:17:34Z</time>
      </trkpt>
      <trkpt lat="49.45086" lon="0.31894">
        <ele>4.8</ele>
        <time>2023-09-03T08:17:35Z</time>
      </trkpt>
      <trkpt lat="49.45086" lon="0.31895">
        <ele>4.8</ele>
        <time>2023-09-03T08:17:36Z</time>
      </trkpt>
      <trkpt lat="49.45086" lon="0.31896">
        <ele>4.8</ele>
        <time>2023-09-03T08:17:37Z</time>
      </trkpt>
      <trkpt lat="49.45087" lon="0.31896">
        <ele>4.8</ele>
        <time>2023-09-03T08:17:38Z</time>
      </trkpt>
      <trkpt lat="49.45087" lon="0.31897">
        <ele>4.8</ele>
        <time>2023-09-03T08:18:10Z</time>
      </trkpt>
      <trkpt lat="49.45087" lon="0.31898">
        <ele>4.8</ele>
        <time>2023-09-03T08:18:11Z</time>
      </trkpt>
      <trkpt lat="49.45087" lon="0.31899">
        <ele>4.8</ele>
        <time>2023-09-03T08:18:12Z</time>
      </trkpt>
      <trkpt lat="49.45086" lon="0.31903">
        <ele>4.8</ele>
        <time>2023-09-03T08:18:13Z</time>
      </trkpt>
      <trkpt lat="49.45086" lon="0.31905">
        <ele>4.8</ele>
        <time>2023-09-03T08:18:14Z</time>
      </trkpt>
      <trkpt lat="49.45085" lon="0.31907">
        <ele>4.8</ele>
        <time>2023-09-03T08:18:15Z</time>
      </trkpt>
      <trkpt lat="49.45085" lon="0.31909">
        <ele>4.8</ele>
        <time>2023-09-03T08:18:16Z</time>
      </trkpt>
      <trkpt lat="49.45084" lon="0.31911">
        <ele>4.8</ele>
        <time>2023-09-03T08:18:17Z</time>
      </trkpt>
      <trkpt lat="49.45084" lon="0.31913">
        <ele>4.8</ele>
        <time>2023-09-03T08:18:18Z</time>
      </trkpt>
      <trkpt lat="49.45084" lon="0.31915">
        <ele>4.8</ele>
        <time>2023-09-03T08:18:19Z</time>
      </trkpt>
      <trkpt lat="49.45084" lon="0.31916">
        <ele>4.8</ele>
        <time>2023-09-03T08:18:20Z</time>
      </trkpt>
      <trkpt lat="49.45084" lon="0.31916">
        <ele>4.8</ele>
        <time>2023-09-03T08:18:21Z</time>
      </trkpt>
      <trkpt lat="49.45084" lon="0.31917">
        <ele>4.8</ele>
        <time>2023-09-03T08:18:22Z</time>
      </trkpt>
      <trkpt lat="49.45084" lon="0.31918">
        <ele>4.8</ele>
        <time>2023-09-03T08:18:23Z</time>
      </trkpt>
      <trkpt lat="49.45084" lon="0.31919">
        <ele>4.8</ele>
        <time>2023-09-03T08:18:24Z</time>
      </trkpt>
      <trkpt lat="49.45084" lon="0.31919">
        <ele>4.8</ele>
        <time>2023-09-03T08:18:25Z</time>
      </trkpt>
      <trkpt lat="49.45084" lon="0.3192">
        <ele>4.8</ele>
        <time>2023-09-03T08:18:26Z</time>
      </trkpt>
      <trkpt lat="49.45084" lon="0.31921">
        <ele>4.8</ele>
        <time>2023-09-03T08:18:27Z</time>
      </trkpt>
      <trkpt lat="49.45084" lon="0.31921">
        <ele>4.8</ele>
        <time>2023-09-03T08:18:28Z</time>
      </trkpt>
      <trkpt lat="49.45084" lon="0.31922">
        <ele>4.8</ele>
        <time>2023-09-03T08:18:29Z</time>
      </trkpt>
      <trkpt lat="49.45084" lon="0.31923">
        <ele>4.8</ele>
        <time>2023-09-03T08:18:30Z</time>
      </trkpt>
      <trkpt lat="49.45083" lon="0.31923">
        <ele>4.8</ele>
        <time>2023-09-03T08:18:31Z</time>
      </trkpt>
      <trkpt lat="49.45083" lon="0.31924">
        <ele>4.8</ele>
        <time>2023-09-03T08:19:23Z</time>
      </trkpt>
      <trkpt lat="49.45083" lon="0.31925">
        <ele>4.8</ele>
        <time>2023-09-03T08:19:24Z</time>
      </trkpt>
      <trkpt lat="49.45083" lon="0.31925">
        <ele>4.8</ele>
        <time>2023-09-03T08:19:25Z</time>
      </trkpt>
      <trkpt lat="49.45083" lon="0.31932">
        <ele>4.9</ele>
        <time>2023-09-03T08:19:26Z</time>
      </trkpt>
      <trkpt lat="49.45083" lon="0.31934">
        <ele>4.9</ele>
        <time>2023-09-03T08:19:27Z</time>
      </trkpt>
      <trkpt lat="49.45083" lon="0.3194">
        <ele>4.9</ele>
        <time>2023-09-03T08:19:28Z</time>
      </trkpt>
      <trkpt lat="49.45083" lon="0.31947">
        <ele>5</ele>
        <time>2023-09-03T08:19:29Z</time>
      </trkpt>
      <trkpt lat="49.45082" lon="0.31954">
        <ele>4.9</ele>
        <time>2023-09-03T08:19:30Z</time>
      </trkpt>
      <trkpt lat="49.45082" lon="0.31961">
        <ele>4.9</ele>
        <time>2023-09-03T08:19:31Z</time>
      </trkpt>
      <trkpt lat="49.45082" lon="0.31969">
        <ele>4.9</ele>
        <time>2023-09-03T08:19:32Z</time>
      </trkpt>
      <trkpt lat="49.45081" lon="0.31977">
        <ele>4.9</ele>
        <time>2023-09-03T08:19:33Z</time>
      </trkpt>
      <trkpt lat="49.45081" lon="0.31985">
        <ele>4.9</ele>
        <time>2023-09-03T08:19:34Z</time>
      </trkpt>
      <trkpt lat="49.45081" lon="0.31993">
        <ele>5</ele>
        <time>2023-09-03T08:19:35Z</time>
      </trkpt>
      <trkpt lat="49.4508" lon="0.32001">
        <ele>5</ele>
        <time>2023-09-03T08:19:36Z</time>
      </trkpt>
      <trkpt lat="49.4508" lon="0.32009">
        <ele>5</ele>
        <time>2023-09-03T08:19:37Z</time>
      </trkpt>
      <trkpt lat="49.45079" lon="0.32018">
        <ele>4.9</ele>
        <time>2023-09-03T08:19:38Z</time>
      </trkpt>
      <trkpt lat="49.45079" lon="0.32026">
        <ele>4.9</ele>
        <time>2023-09-03T08:19:39Z</time>
      </trkpt>
      <trkpt lat="49.45079" lon="0.32035">
        <ele>4.9</ele>
        <time>2023-09-03T08:19:40Z</time>
      </trkpt>
      <trkpt lat="49.45078" lon="0.32045">
        <ele>4.9</ele>
        <time>2023-09-03T08:19:41Z</time>
      </trkpt>
      <trkpt lat="49.45078" lon="0.32054">
        <ele>4.9</ele>
        <time>2023-09-03T08:19:42Z</time>
      </trkpt>
      <trkpt lat="49.45078" lon="0.32063">
        <ele>4.9</ele>
        <time>2023-09-03T08:19:43Z</time>
      </trkpt>
      <trkpt lat="49.45077" lon="0.32073">
        <ele>4.9</ele>
        <time>2023-09-03T08:19:44Z</time>
      </trkpt>
      <trkpt lat="49.45077" lon="0.32082">
        <ele>5</ele>
        <time>2023-09-03T08:19:45Z</time>
      </trkpt>
      <trkpt lat="49.45077" lon="0.32092">
        <ele>5</ele>
        <time>2023-09-03T08:19:46Z</time>
      </trkpt>
      <trkpt lat="49.45077" lon="0.32102">
        <ele>5</ele>
        <time>2023-09-03T08:19:47Z</time>
      </trkpt>
      <trkpt lat="49.45076" lon="0.32111">
        <ele>5</ele>
        <time>2023-09-03T08:19:48Z</time>
      </trkpt>
      <trkpt lat="49.45076" lon="0.32121">
        <ele>5</ele>
        <time>2023-09-03T08:19:49Z</time>
      </trkpt>
      <trkpt lat="49.45076" lon="0.32131">
        <ele>5</ele>
        <time>2023-09-03T08:19:50Z</time>
      </trkpt>
      <trkpt lat="49.45075" lon="0.32141">
        <ele>5</ele>
        <time>2023-09-03T08:19:51Z</time>
      </trkpt>
      <trkpt lat="49.45075" lon="0.32151">
        <ele>5</ele>
        <time>2023-09-03T08:19:52Z</time>
      </trkpt>
      <trkpt lat="49.45074" lon="0.32161">
        <ele>5</ele>
        <time>2023-09-03T08:19:53Z</time>
      </trkpt>
      <trkpt lat="49.45074" lon="0.32171">
        <ele>5</ele>
        <time>2023-09-03T08:19:54Z</time>
      </trkpt>
      <trkpt lat="49.45074" lon="0.32181">
        <ele>5</ele>
        <time>2023-09-03T08:19:55Z</time>
      </trkpt>
      <trkpt lat="49.45073" lon="0.32191">
        <ele>5</ele>
        <time>2023-09-03T08:19:56Z</time>
      </trkpt>
      <trkpt lat="49.45073" lon="0.32201">
        <ele>5</ele>
        <time>2023-09-03T08:19:57Z</time>
      </trkpt>
      <trkpt lat="49.45072" lon="0.32211">
        <ele>5</ele>
        <time>2023-09-03T08:19:58Z</time>
      </trkpt>
      <trkpt lat="49.45072" lon="0.32221">
        <ele>5</ele>
        <time>2023-09-03T08:19:59Z</time>
      </trkpt>
      <trkpt lat="49.45071" lon="0.32231">
        <ele>5</ele>
        <time>2023-09-03T08:20:00Z</time>
      </trkpt>
      <trkpt lat="49.4507" lon="0.32242">
        <ele>5</ele>
        <time>2023-09-03T08:20:01Z</time>
      </trkpt>
      <trkpt lat="49.4507" lon="0.32252">
        <ele>5</ele>
        <time>2023-09-03T08:20:02Z</time>
      </trkpt>
      <trkpt lat="49.45069" lon="0.32262">
        <ele>4.9</ele>
        <time>2023-09-03T08:20:03Z</time>
      </trkpt>
      <trkpt lat="49.45069" lon="0.32272">
        <ele>4.9</ele>
        <time>2023-09-03T08:20:04Z</time>
      </trkpt>
      <trkpt lat="49.45069" lon="0.32283">
        <ele>4.9</ele>
        <time>2023-09-03T08:20:05Z</time>
      </trkpt>
      <trkpt lat="49.45068" lon="0.32293">
        <ele>4.9</ele>
        <time>2023-09-03T08:20:06Z</time>
      </trkpt>
      <trkpt lat="49.45068" lon="0.32303">
        <ele>4.9</ele>
        <time>2023-09-03T08:20:07Z</time>
      </trkpt>
      <trkpt lat="49.45067" lon="0.32313">
        <ele>4.9</ele>
        <time>2023-09-03T08:20:08Z</time>
      </trkpt>
      <trkpt lat="49.45067" lon="0.32324">
        <ele>4.9</ele>
        <time>2023-09-03T08:20:09Z</time>
      </trkpt>
      <trkpt lat="49.45067" lon="0.32334">
        <ele>4.9</ele>
        <time>2023-09-03T08:20:10Z</time>
      </trkpt>
      <trkpt lat="49.45066" lon="0.32344">
        <ele>4.9</ele>
        <time>2023-09-03T08:20:11Z</time>
      </trkpt>
      <trkpt lat="49.45065" lon="0.32355">
        <ele>4.9</ele>
        <time>2023-09-03T08:20:12Z</time>
      </trkpt>
      <trkpt lat="49.45065" lon="0.32365">
        <ele>4.9</ele>
        <time>2023-09-03T08:20:13Z</time>
      </trkpt>
      <trkpt lat="49.45065" lon="0.32376">
        <ele>4.9</ele>
        <time>2023-09-03T08:20:14Z</time>
      </trkpt>
      <trkpt lat="49.45064" lon="0.32387">
        <ele>5</ele>
        <time>2023-09-03T08:20:15Z</time>
      </trkpt>
      <trkpt lat="49.45063" lon="0.32397">
        <ele>5</ele>
        <time>2023-09-03T08:20:16Z</time>
      </trkpt>
      <trkpt lat="49.45063" lon="0.32408">
        <ele>5</ele>
        <time>2023-09-03T08:20:17Z</time>
      </trkpt>
      <trkpt lat="49.45062" lon="0.32419">
        <ele>5</ele>
        <time>2023-09-03T08:20:18Z</time>
      </trkpt>
      <trkpt lat="49.45062" lon="0.32429">
        <ele>4.9</ele>
        <time>2023-09-03T08:20:19Z</time>
      </trkpt>
      <trkpt lat="49.45062" lon="0.3244">
        <ele>4.9</ele>
        <time>2023-09-03T08:20:20Z</time>
      </trkpt>
      <trkpt lat="49.45062" lon="0.3245">
        <ele>4.9</ele>
        <time>2023-09-03T08:20:21Z</time>
      </trkpt>
      <trkpt lat="49.45061" lon="0.32461">
        <ele>4.9</ele>
        <time>2023-09-03T08:20:22Z</time>
      </trkpt>
      <trkpt lat="49.45061" lon="0.32472">
        <ele>4.9</ele>
        <time>2023-09-03T08:20:23Z</time>
      </trkpt>
      <trkpt lat="49.4506" lon="0.32483">
        <ele>4.9</ele>
        <time>2023-09-03T08:20:24Z</time>
      </trkpt>
      <trkpt lat="49.4506" lon="0.32494">
        <ele>4.9</ele>
        <time>2023-09-03T08:20:25Z</time>
      </trkpt>
      <trkpt lat="49.45059" lon="0.32504">
        <ele>4.9</ele>
        <time>2023-09-03T08:20:26Z</time>
      </trkpt>
      <trkpt lat="49.45059" lon="0.32515">
        <ele>4.9</ele>
        <time>2023-09-03T08:20:27Z</time>
      </trkpt>
      <trkpt lat="49.45058" lon="0.32525">
        <ele>4.9</ele>
        <time>2023-09-03T08:20:28Z</time>
      </trkpt>
      <trkpt lat="49.45057" lon="0.32535">
        <ele>4.9</ele>
        <time>2023-09-03T08:20:29Z</time>
      </trkpt>
      <trkpt lat="49.45057" lon="0.32546">
        <ele>4.9</ele>
        <time>2023-09-03T08:20:30Z</time>
      </trkpt>
      <trkpt lat="49.45056" lon="0.32556">
        <ele>4.9</ele>
        <time>2023-09-03T08:20:31Z</time>
      </trkpt>
      <trkpt lat="49.45056" lon="0.32567">
        <ele>4.9</ele>
        <time>2023-09-03T08:20:32Z</time>
      </trkpt>
      <trkpt lat="49.45056" lon="0.32577">
        <ele>4.9</ele>
        <time>2023-09-03T08:20:33Z</time>
      </trkpt>
      <trkpt lat="49.45055" lon="0.32587">
        <ele>4.9</ele>
        <time>2023-09-03T08:20:34Z</time>
      </trkpt>
      <trkpt lat="49.45055" lon="0.32598">
        <ele>4.9</ele>
        <time>2023-09-03T08:20:35Z</time>
      </trkpt>
      <trkpt lat="49.45055" lon="0.32608">
        <ele>4.9</ele>
        <time>2023-09-03T08:20:36Z</time>
      </trkpt>
      <trkpt lat="49.45054" lon="0.32618">
        <ele>4.9</ele>
        <time>2023-09-03T08:20:37Z</time>
      </trkpt>
      <trkpt lat="49.45054" lon="0.32628">
        <ele>4.9</ele>
        <time>2023-09-03T08:20:38Z</time>
      </trkpt>
      <trkpt lat="49.45053" lon="0.32639">
        <ele>4.9</ele>
        <time>2023-09-03T08:20:39Z</time>
      </trkpt>
      <trkpt lat="49.45053" lon="0.32649">
        <ele>4.9</ele>
        <time>2023-09-03T08:20:40Z</time>
      </trkpt>
      <trkpt lat="49.45053" lon="0.32659">
        <ele>4.9</ele>
        <time>2023-09-03T08:20:41Z</time>
      </trkpt>
      <trkpt lat="49.45052" lon="0.3267">
        <ele>4.9</ele>
        <time>2023-09-03T08:20:42Z</time>
      </trkpt>
      <trkpt lat="49.45052" lon="0.32681">
        <ele>4.9</ele>
        <time>2023-09-03T08:20:43Z</time>
      </trkpt>
      <trkpt lat="49.45051" lon="0.32691">
        <ele>4.9</ele>
        <time>2023-09-03T08:20:44Z</time>
      </trkpt>
      <trkpt lat="49.45051" lon="0.32702">
        <ele>4.9</ele>
        <time>2023-09-03T08:20:45Z</time>
      </trkpt>
      <trkpt lat="49.45051" lon="0.32712">
        <ele>5</ele>
        <time>2023-09-03T08:20:46Z</time>
      </trkpt>
      <trkpt lat="49.4505" lon="0.32723">
        <ele>5</ele>
        <time>2023-09-03T08:20:47Z</time>
      </trkpt>
      <trkpt lat="49.4505" lon="0.32734">
        <ele>5</ele>
        <time>2023-09-03T08:20:48Z</time>
      </trkpt>
      <trkpt lat="49.4505" lon="0.32745">
        <ele>5</ele>
        <time>2023-09-03T08:20:49Z</time>
      </trkpt>
      <trkpt lat="49.45049" lon="0.32756">
        <ele>5</ele>
        <time>2023-09-03T08:20:50Z</time>
      </trkpt>
      <trkpt lat="49.45049" lon="0.32767">
        <ele>5</ele>
        <time>2023-09-03T08:20:51Z</time>
      </trkpt>
      <trkpt lat="49.45048" lon="0.32778">
        <ele>5</ele>
        <time>2023-09-03T08:20:52Z</time>
      </trkpt>
      <trkpt lat="49.45048" lon="0.3279">
        <ele>5</ele>
        <time>2023-09-03T08:20:53Z</time>
      </trkpt>
      <trkpt lat="49.45048" lon="0.32801">
        <ele>5</ele>
        <time>2023-09-03T08:20:54Z</time>
      </trkpt>
      <trkpt lat="49.45047" lon="0.32813">
        <ele>5</ele>
        <time>2023-09-03T08:20:55Z</time>
      </trkpt>
      <trkpt lat="49.45047" lon="0.32824">
        <ele>5</ele>
        <time>2023-09-03T08:20:56Z</time>
      </trkpt>
      <trkpt lat="49.45046" lon="0.32836">
        <ele>5</ele>
        <time>2023-09-03T08:20:57Z</time>
      </trkpt>
      <trkpt lat="49.45046" lon="0.32848">
        <ele>5</ele>
        <time>2023-09-03T08:20:58Z</time>
      </trkpt>
      <trkpt lat="49.45046" lon="0.32859">
        <ele>5</ele>
        <time>2023-09-03T08:20:59Z</time>
      </trkpt>
      <trkpt lat="49.45046" lon="0.3287">
        <ele>5</ele>
        <time>2023-09-03T08:21:00Z</time>
      </trkpt>
      <trkpt lat="49.45045" lon="0.32882">
        <ele>5</ele>
        <time>2023-09-03T08:21:01Z</time>
      </trkpt>
      <trkpt lat="49.45045" lon="0.32894">
        <ele>5</ele>
        <time>2023-09-03T08:21:02Z</time>
      </trkpt>
      <trkpt lat="49.45045" lon="0.32905">
        <ele>5</ele>
        <time>2023-09-03T08:21:03Z</time>
      </trkpt>
      <trkpt lat="49.45044" lon="0.32916">
        <ele>5</ele>
        <time>2023-09-03T08:21:04Z</time>
      </trkpt>
      <trkpt lat="49.45044" lon="0.32928">
        <ele>5</ele>
        <time>2023-09-03T08:21:05Z</time>
      </trkpt>
      <trkpt lat="49.45044" lon="0.32939">
        <ele>5</ele>
        <time>2023-09-03T08:21:06Z</time>
      </trkpt>
      <trkpt lat="49.45043" lon="0.32951">
        <ele>5</ele>
        <time>2023-09-03T08:21:07Z</time>
      </trkpt>
      <trkpt lat="49.45043" lon="0.32962">
        <ele>5</ele>
        <time>2023-09-03T08:21:08Z</time>
      </trkpt>
      <trkpt lat="49.45042" lon="0.32974">
        <ele>5</ele>
        <time>2023-09-03T08:21:09Z</time>
      </trkpt>
      <trkpt lat="49.45042" lon="0.32985">
        <ele>5</ele>
        <time>2023-09-03T08:21:10Z</time>
      </trkpt>
      <trkpt lat="49.45041" lon="0.32997">
        <ele>5</ele>
        <time>2023-09-03T08:21:11Z</time>
      </trkpt>
      <trkpt lat="49.45041" lon="0.33008">
        <ele>5</ele>
        <time>2023-09-03T08:21:12Z</time>
      </trkpt>
      <trkpt lat="49.45041" lon="0.3302">
        <ele>5</ele>
        <time>2023-09-03T08:21:13Z</time>
      </trkpt>
      <trkpt lat="49.4504" lon="0.33031">
        <ele>5</ele>
        <time>2023-09-03T08:21:14Z</time>
      </trkpt>
      <trkpt lat="49.4504" lon="0.33043">
        <ele>5</ele>
        <time>2023-09-03T08:21:15Z</time>
      </trkpt>
      <trkpt lat="49.4504" lon="0.33055">
        <ele>5</ele>
        <time>2023-09-03T08:21:16Z</time>
      </trkpt>
      <trkpt lat="49.4504" lon="0.33066">
        <ele>5</ele>
        <time>2023-09-03T08:21:17Z</time>
      </trkpt>
      <trkpt lat="49.45039" lon="0.33077">
        <ele>5</ele>
        <time>2023-09-03T08:21:18Z</time>
      </trkpt>
      <trkpt lat="49.45039" lon="0.33089">
        <ele>5</ele>
        <time>2023-09-03T08:21:19Z</time>
      </trkpt>
      <trkpt lat="49.45039" lon="0.331">
        <ele>5</ele>
        <time>2023-09-03T08:21:20Z</time>
      </trkpt>
      <trkpt lat="49.45038" lon="0.33111">
        <ele>5</ele>
        <time>2023-09-03T08:21:21Z</time>
      </trkpt>
      <trkpt lat="49.45038" lon="0.33123">
        <ele>5</ele>
        <time>2023-09-03T08:21:22Z</time>
      </trkpt>
      <trkpt lat="49.45037" lon="0.33134">
        <ele>5</ele>
        <time>2023-09-03T08:21:23Z</time>
      </trkpt>
      <trkpt lat="49.45037" lon="0.33145">
        <ele>5</ele>
        <time>2023-09-03T08:21:24Z</time>
      </trkpt>
      <trkpt lat="49.45037" lon="0.33157">
        <ele>5</ele>
        <time>2023-09-03T08:21:25Z</time>
      </trkpt>
      <trkpt lat="49.45036" lon="0.33168">
        <ele>5</ele>
        <time>2023-09-03T08:21:26Z</time>
      </trkpt>
      <trkpt lat="49.45036" lon="0.3318">
        <ele>5</ele>
        <time>2023-09-03T08:21:27Z</time>
      </trkpt>
      <trkpt lat="49.45036" lon="0.33191">
        <ele>4.9</ele>
        <time>2023-09-03T08:21:28Z</time>
      </trkpt>
      <trkpt lat="49.45035" lon="0.33203">
        <ele>4.9</ele>
        <time>2023-09-03T08:21:29Z</time>
      </trkpt>
      <trkpt lat="49.45035" lon="0.33215">
        <ele>4.9</ele>
        <time>2023-09-03T08:21:30Z</time>
      </trkpt>
      <trkpt lat="49.45035" lon="0.33226">
        <ele>4.9</ele>
        <time>2023-09-03T08:21:31Z</time>
      </trkpt>
      <trkpt lat="49.45034" lon="0.33237">
        <ele>5</ele>
        <time>2023-09-03T08:21:32Z</time>
      </trkpt>
      <trkpt lat="49.45034" lon="0.33249">
        <ele>5.1</ele>
        <time>2023-09-03T08:21:33Z</time>
      </trkpt>
      <trkpt lat="49.45034" lon="0.33261">
        <ele>5.1</ele>
        <time>2023-09-03T08:21:34Z</time>
      </trkpt>
      <trkpt lat="49.45033" lon="0.33272">
        <ele>5.1</ele>
        <time>2023-09-03T08:21:35Z</time>
      </trkpt>
      <trkpt lat="49.45033" lon="0.33284">
        <ele>5.1</ele>
        <time>2023-09-03T08:21:36Z</time>
      </trkpt>
      <trkpt lat="49.45033" lon="0.33295">
        <ele>5.1</ele>
        <time>2023-09-03T08:21:37Z</time>
      </trkpt>
      <trkpt lat="49.45033" lon="0.33307">
        <ele>5.1</ele>
        <time>2023-09-03T08:21:38Z</time>
      </trkpt>
      <trkpt lat="49.45032" lon="0.33318">
        <ele>5.1</ele>
        <time>2023-09-03T08:21:39Z</time>
      </trkpt>
      <trkpt lat="49.45032" lon="0.33329">
        <ele>5.1</ele>
        <time>2023-09-03T08:21:40Z</time>
      </trkpt>
      <trkpt lat="49.45032" lon="0.33341">
        <ele>5</ele>
        <time>2023-09-03T08:21:41Z</time>
      </trkpt>
      <trkpt lat="49.45031" lon="0.33352">
        <ele>5</ele>
        <time>2023-09-03T08:21:42Z</time>
      </trkpt>
      <trkpt lat="49.45031" lon="0.33364">
        <ele>5</ele>
        <time>2023-09-03T08:21:43Z</time>
      </trkpt>
      <trkpt lat="49.4503" lon="0.33375">
        <ele>5</ele>
        <time>2023-09-03T08:21:44Z</time>
      </trkpt>
      <trkpt lat="49.4503" lon="0.33386">
        <ele>5</ele>
        <time>2023-09-03T08:21:45Z</time>
      </trkpt>
      <trkpt lat="49.4503" lon="0.33398">
        <ele>4.9</ele>
        <time>2023-09-03T08:21:46Z</time>
      </trkpt>
      <trkpt lat="49.4503" lon="0.33409">
        <ele>4.9</ele>
        <time>2023-09-03T08:21:47Z</time>
      </trkpt>
      <trkpt lat="49.45029" lon="0.33421">
        <ele>4.9</ele>
        <time>2023-09-03T08:21:48Z</time>
      </trkpt>
      <trkpt lat="49.45029" lon="0.33432">
        <ele>4.9</ele>
        <time>2023-09-03T08:21:49Z</time>
      </trkpt>
      <trkpt lat="49.45029" lon="0.33443">
        <ele>4.9</ele>
        <time>2023-09-03T08:21:50Z</time>
      </trkpt>
      <trkpt lat="49.45028" lon="0.33454">
        <ele>4.9</ele>
        <time>2023-09-03T08:21:51Z</time>
      </trkpt>
      <trkpt lat="49.45028" lon="0.33466">
        <ele>4.9</ele>
        <time>2023-09-03T08:21:52Z</time>
      </trkpt>
      <trkpt lat="49.45028" lon="0.33477">
        <ele>4.9</ele>
        <time>2023-09-03T08:21:53Z</time>
      </trkpt>
      <trkpt lat="49.45027" lon="0.33488">
        <ele>4.9</ele>
        <time>2023-09-03T08:21:54Z</time>
      </trkpt>
      <trkpt lat="49.45027" lon="0.33499">
        <ele>4.9</ele>
        <time>2023-09-03T08:21:55Z</time>
      </trkpt>
      <trkpt lat="49.45027" lon="0.3351">
        <ele>4.9</ele>
        <time>2023-09-03T08:21:56Z</time>
      </trkpt>
      <trkpt lat="49.45026" lon="0.33522">
        <ele>4.9</ele>
        <time>2023-09-03T08:21:57Z</time>
      </trkpt>
      <trkpt lat="49.45026" lon="0.33533">
        <ele>4.8</ele>
        <time>2023-09-03T08:21:58Z</time>
      </trkpt>
      <trkpt lat="49.45026" lon="0.33545">
        <ele>4.8</ele>
        <time>2023-09-03T08:21:59Z</time>
      </trkpt>
      <trkpt lat="49.45025" lon="0.33556">
        <ele>4.8</ele>
        <time>2023-09-03T08:22:00Z</time>
      </trkpt>
      <trkpt lat="49.45025" lon="0.33568">
        <ele>4.8</ele>
        <time>2023-09-03T08:22:01Z</time>
      </trkpt>
      <trkpt lat="49.45025" lon="0.33579">
        <ele>4.8</ele>
        <time>2023-09-03T08:22:02Z</time>
      </trkpt>
      <trkpt lat="49.45025" lon="0.3359">
        <ele>4.8</ele>
        <time>2023-09-03T08:22:03Z</time>
      </trkpt>
      <trkpt lat="49.45024" lon="0.33601">
        <ele>4.8</ele>
        <time>2023-09-03T08:22:04Z</time>
      </trkpt>
      <trkpt lat="49.45024" lon="0.33613">
        <ele>4.8</ele>
        <time>2023-09-03T08:22:05Z</time>
      </trkpt>
      <trkpt lat="49.45024" lon="0.33624">
        <ele>4.8</ele>
        <time>2023-09-03T08:22:06Z</time>
      </trkpt>
      <trkpt lat="49.45024" lon="0.33636">
        <ele>4.7</ele>
        <time>2023-09-03T08:22:07Z</time>
      </trkpt>
      <trkpt lat="49.45023" lon="0.33647">
        <ele>4.7</ele>
        <time>2023-09-03T08:22:08Z</time>
      </trkpt>
      <trkpt lat="49.45023" lon="0.33659">
        <ele>4.7</ele>
        <time>2023-09-03T08:22:09Z</time>
      </trkpt>
      <trkpt lat="49.45023" lon="0.3367">
        <ele>4.7</ele>
        <time>2023-09-03T08:22:10Z</time>
      </trkpt>
      <trkpt lat="49.45022" lon="0.33681">
        <ele>4.7</ele>
        <time>2023-09-03T08:22:11Z</time>
      </trkpt>
      <trkpt lat="49.45022" lon="0.33692">
        <ele>4.7</ele>
        <time>2023-09-03T08:22:12Z</time>
      </trkpt>
      <trkpt lat="49.45022" lon="0.33703">
        <ele>4.7</ele>
        <time>2023-09-03T08:22:13Z</time>
      </trkpt>
      <trkpt lat="49.45022" lon="0.33714">
        <ele>4.7</ele>
        <time>2023-09-03T08:22:14Z</time>
      </trkpt>
      <trkpt lat="49.45021" lon="0.33726">
        <ele>4.7</ele>
        <time>2023-09-03T08:22:15Z</time>
      </trkpt>
      <trkpt lat="49.45021" lon="0.33737">
        <ele>4.7</ele>
        <time>2023-09-03T08:22:16Z</time>
      </trkpt>
      <trkpt lat="49.45021" lon="0.33748">
        <ele>4.7</ele>
        <time>2023-09-03T08:22:17Z</time>
      </trkpt>
      <trkpt lat="49.45021" lon="0.33759">
        <ele>4.7</ele>
        <time>2023-09-03T08:22:18Z</time>
      </trkpt>
      <trkpt lat="49.45021" lon="0.3377">
        <ele>4.7</ele>
        <time>2023-09-03T08:22:19Z</time>
      </trkpt>
      <trkpt lat="49.45021" lon="0.33781">
        <ele>4.7</ele>
        <time>2023-09-03T08:22:20Z</time>
      </trkpt>
      <trkpt lat="49.45021" lon="0.33792">
        <ele>4.7</ele>
        <time>2023-09-03T08:22:21Z</time>
      </trkpt>
      <trkpt lat="49.4502" lon="0.33804">
        <ele>4.7</ele>
        <time>2023-09-03T08:22:22Z</time>
      </trkpt>
      <trkpt lat="49.4502" lon="0.33815">
        <ele>4.6</ele>
        <time>2023-09-03T08:22:23Z</time>
      </trkpt>
      <trkpt lat="49.4502" lon="0.33827">
        <ele>4.6</ele>
        <time>2023-09-03T08:22:24Z</time>
      </trkpt>
      <trkpt lat="49.4502" lon="0.33838">
        <ele>4.6</ele>
        <time>2023-09-03T08:22:25Z</time>
      </trkpt>
      <trkpt lat="49.4502" lon="0.33849">
        <ele>4.7</ele>
        <time>2023-09-03T08:22:26Z</time>
      </trkpt>
      <trkpt lat="49.45019" lon="0.33861">
        <ele>4.7</ele>
        <time>2023-09-03T08:22:27Z</time>
      </trkpt>
      <trkpt lat="49.45019" lon="0.33872">
        <ele>4.7</ele>
        <time>2023-09-03T08:22:28Z</time>
      </trkpt>
      <trkpt lat="49.45018" lon="0.33883">
        <ele>4.7</ele>
        <time>2023-09-03T08:22:29Z</time>
      </trkpt>
      <trkpt lat="49.45017" lon="0.33894">
        <ele>4.7</ele>
        <time>2023-09-03T08:22:30Z</time>
      </trkpt>
      <trkpt lat="49.45017" lon="0.33905">
        <ele>4.7</ele>
        <time>2023-09-03T08:22:31Z</time>
      </trkpt>
      <trkpt lat="49.45017" lon="0.33917">
        <ele>4.7</ele>
        <time>2023-09-03T08:22:32Z</time>
      </trkpt>
      <trkpt lat="49.45016" lon="0.33928">
        <ele>4.7</ele>
        <time>2023-09-03T08:22:33Z</time>
      </trkpt>
      <trkpt lat="49.45016" lon="0.33939">
        <ele>4.7</ele>
        <time>2023-09-03T08:22:34Z</time>
      </trkpt>
      <trkpt lat="49.45016" lon="0.33951">
        <ele>4.7</ele>
        <time>2023-09-03T08:22:35Z</time>
      </trkpt>
      <trkpt lat="49.45016" lon="0.33962">
        <ele>4.7</ele>
        <time>2023-09-03T08:22:36Z</time>
      </trkpt>
      <trkpt lat="49.45016" lon="0.33973">
        <ele>4.7</ele>
        <time>2023-09-03T08:22:37Z</time>
      </trkpt>
      <trkpt lat="49.45015" lon="0.33985">
        <ele>4.7</ele>
        <time>2023-09-03T08:22:38Z</time>
      </trkpt>
      <trkpt lat="49.45015" lon="0.33996">
        <ele>4.7</ele>
        <time>2023-09-03T08:22:39Z</time>
      </trkpt>
      <trkpt lat="49.45015" lon="0.34008">
        <ele>4.7</ele>
        <time>2023-09-03T08:22:40Z</time>
      </trkpt>
      <trkpt lat="49.45015" lon="0.3402">
        <ele>4.7</ele>
        <time>2023-09-03T08:22:41Z</time>
      </trkpt>
      <trkpt lat="49.45015" lon="0.34031">
        <ele>4.7</ele>
        <time>2023-09-03T08:22:42Z</time>
      </trkpt>
      <trkpt lat="49.45015" lon="0.34043">
        <ele>4.8</ele>
        <time>2023-09-03T08:22:43Z</time>
      </trkpt>
      <trkpt lat="49.45014" lon="0.34054">
        <ele>4.8</ele>
        <time>2023-09-03T08:22:44Z</time>
      </trkpt>
      <trkpt lat="49.45014" lon="0.34065">
        <ele>4.8</ele>
        <time>2023-09-03T08:22:45Z</time>
      </trkpt>
      <trkpt lat="49.45014" lon="0.34076">
        <ele>4.7</ele>
        <time>2023-09-03T08:22:46Z</time>
      </trkpt>
      <trkpt lat="49.45014" lon="0.34087">
        <ele>4.7</ele>
        <time>2023-09-03T08:22:47Z</time>
      </trkpt>
      <trkpt lat="49.45014" lon="0.34099">
        <ele>4.7</ele>
        <time>2023-09-03T08:22:48Z</time>
      </trkpt>
      <trkpt lat="49.45013" lon="0.34111">
        <ele>4.7</ele>
        <time>2023-09-03T08:22:49Z</time>
      </trkpt>
      <trkpt lat="49.45013" lon="0.34122">
        <ele>4.8</ele>
        <time>2023-09-03T08:22:50Z</time>
      </trkpt>
      <trkpt lat="49.45013" lon="0.34134">
        <ele>4.8</ele>
        <time>2023-09-03T08:22:51Z</time>
      </trkpt>
      <trkpt lat="49.45013" lon="0.34145">
        <ele>4.8</ele>
        <time>2023-09-03T08:22:52Z</time>
      </trkpt>
      <trkpt lat="49.45013" lon="0.34156">
        <ele>4.9</ele>
        <time>2023-09-03T08:22:53Z</time>
      </trkpt>
      <trkpt lat="49.45013" lon="0.34168">
        <ele>4.9</ele>
        <time>2023-09-03T08:22:54Z</time>
      </trkpt>
      <trkpt lat="49.45012" lon="0.34179">
        <ele>4.9</ele>
        <time>2023-09-03T08:22:55Z</time>
      </trkpt>
      <trkpt lat="49.45012" lon="0.3419">
        <ele>4.9</ele>
        <time>2023-09-03T08:22:56Z</time>
      </trkpt>
      <trkpt lat="49.45012" lon="0.34201">
        <ele>4.9</ele>
        <time>2023-09-03T08:22:57Z</time>
      </trkpt>
      <trkpt lat="49.45011" lon="0.34212">
        <ele>4.9</ele>
        <time>2023-09-03T08:22:58Z</time>
      </trkpt>
      <trkpt lat="49.45011" lon="0.34223">
        <ele>4.9</ele>
        <time>2023-09-03T08:22:59Z</time>
      </trkpt>
      <trkpt lat="49.45011" lon="0.34234">
        <ele>4.9</ele>
        <time>2023-09-03T08:23:00Z</time>
      </trkpt>
      <trkpt lat="49.45011" lon="0.34246">
        <ele>4.9</ele>
        <time>2023-09-03T08:23:01Z</time>
      </trkpt>
      <trkpt lat="49.4501" lon="0.34257">
        <ele>4.9</ele>
        <time>2023-09-03T08:23:02Z</time>
      </trkpt>
      <trkpt lat="49.4501" lon="0.34268">
        <ele>4.9</ele>
        <time>2023-09-03T08:23:03Z</time>
      </trkpt>
      <trkpt lat="49.4501" lon="0.3428">
        <ele>4.9</ele>
        <time>2023-09-03T08:23:04Z</time>
      </trkpt>
      <trkpt lat="49.4501" lon="0.34291">
        <ele>4.9</ele>
        <time>2023-09-03T08:23:05Z</time>
      </trkpt>
      <trkpt lat="49.4501" lon="0.34303">
        <ele>4.9</ele>
        <time>2023-09-03T08:23:06Z</time>
      </trkpt>
      <trkpt lat="49.45009" lon="0.34315">
        <ele>4.9</ele>
        <time>2023-09-03T08:23:07Z</time>
      </trkpt>
      <trkpt lat="49.45009" lon="0.34326">
        <ele>4.9</ele>
        <time>2023-09-03T08:23:08Z</time>
      </trkpt>
      <trkpt lat="49.45009" lon="0.34338">
        <ele>4.9</ele>
        <time>2023-09-03T08:23:09Z</time>
      </trkpt>
      <trkpt lat="49.45009" lon="0.3435">
        <ele>4.9</ele>
        <time>2023-09-03T08:23:10Z</time>
      </trkpt>
      <trkpt lat="49.45009" lon="0.34361">
        <ele>4.9</ele>
        <time>2023-09-03T08:23:11Z</time>
      </trkpt>
      <trkpt lat="49.45009" lon="0.34373">
        <ele>4.9</ele>
        <time>2023-09-03T08:23:12Z</time>
      </trkpt>
      <trkpt lat="49.45009" lon="0.34385">
        <ele>4.9</ele>
        <time>2023-09-03T08:23:13Z</time>
      </trkpt>
      <trkpt lat="49.45009" lon="0.34396">
        <ele>4.9</ele>
        <time>2023-09-03T08:23:14Z</time>
      </trkpt>
      <trkpt lat="49.45009" lon="0.34407">
        <ele>4.9</ele>
        <time>2023-09-03T08:23:15Z</time>
      </trkpt>
      <trkpt lat="49.45008" lon="0.34419">
        <ele>4.9</ele>
        <time>2023-09-03T08:23:16Z</time>
      </trkpt>
      <trkpt lat="49.45008" lon="0.3443">
        <ele>4.9</ele>
        <time>2023-09-03T08:23:17Z</time>
      </trkpt>
      <trkpt lat="49.45008" lon="0.34442">
        <ele>4.9</ele>
        <time>2023-09-03T08:23:18Z</time>
      </trkpt>
      <trkpt lat="49.45008" lon="0.34454">
        <ele>4.9</ele>
        <time>2023-09-03T08:23:19Z</time>
      </trkpt>
      <trkpt lat="49.45008" lon="0.34465">
        <ele>4.9</ele>
        <time>2023-09-03T08:23:20Z</time>
      </trkpt>
      <trkpt lat="49.45008" lon="0.34477">
        <ele>4.9</ele>
        <time>2023-09-03T08:23:21Z</time>
      </trkpt>
      <trkpt lat="49.45008" lon="0.34488">
        <ele>4.9</ele>
        <time>2023-09-03T08:23:22Z</time>
      </trkpt>
      <trkpt lat="49.45008" lon="0.345">
        <ele>4.9</ele>
        <time>2023-09-03T08:23:23Z</time>
      </trkpt>
      <trkpt lat="49.45007" lon="0.34511">
        <ele>4.9</ele>
        <time>2023-09-03T08:23:24Z</time>
      </trkpt>
      <trkpt lat="49.45008" lon="0.34522">
        <ele>4.9</ele>
        <time>2023-09-03T08:23:25Z</time>
      </trkpt>
      <trkpt lat="49.45008" lon="0.34534">
        <ele>4.9</ele>
        <time>2023-09-03T08:23:26Z</time>
      </trkpt>
      <trkpt lat="49.45008" lon="0.34545">
        <ele>5</ele>
        <time>2023-09-03T08:23:27Z</time>
      </trkpt>
      <trkpt lat="49.45008" lon="0.34557">
        <ele>5</ele>
        <time>2023-09-03T08:23:28Z</time>
      </trkpt>
      <trkpt lat="49.45008" lon="0.34569">
        <ele>5</ele>
        <time>2023-09-03T08:23:29Z</time>
      </trkpt>
      <trkpt lat="49.45007" lon="0.3458">
        <ele>5</ele>
        <time>2023-09-03T08:23:30Z</time>
      </trkpt>
      <trkpt lat="49.45007" lon="0.34592">
        <ele>5.1</ele>
        <time>2023-09-03T08:23:31Z</time>
      </trkpt>
      <trkpt lat="49.45007" lon="0.34604">
        <ele>5.1</ele>
        <time>2023-09-03T08:23:32Z</time>
      </trkpt>
      <trkpt lat="49.45007" lon="0.34616">
        <ele>5.1</ele>
        <time>2023-09-03T08:23:33Z</time>
      </trkpt>
      <trkpt lat="49.45007" lon="0.34627">
        <ele>5.1</ele>
        <time>2023-09-03T08:23:34Z</time>
      </trkpt>
      <trkpt lat="49.45007" lon="0.34639">
        <ele>5.1</ele>
        <time>2023-09-03T08:23:35Z</time>
      </trkpt>
      <trkpt lat="49.45007" lon="0.34651">
        <ele>5.1</ele>
        <time>2023-09-03T08:23:36Z</time>
      </trkpt>
      <trkpt lat="49.45006" lon="0.34663">
        <ele>5.1</ele>
        <time>2023-09-03T08:23:37Z</time>
      </trkpt>
      <trkpt lat="49.45006" lon="0.34675">
        <ele>5.1</ele>
        <time>2023-09-03T08:23:38Z</time>
      </trkpt>
      <trkpt lat="49.45006" lon="0.34687">
        <ele>5.1</ele>
        <time>2023-09-03T08:23:39Z</time>
      </trkpt>
      <trkpt lat="49.45006" lon="0.34698">
        <ele>5.1</ele>
        <time>2023-09-03T08:23:40Z</time>
      </trkpt>
      <trkpt lat="49.45006" lon="0.3471">
        <ele>5.1</ele>
        <time>2023-09-03T08:23:41Z</time>
      </trkpt>
      <trkpt lat="49.45006" lon="0.34722">
        <ele>5.1</ele>
        <time>2023-09-03T08:23:42Z</time>
      </trkpt>
      <trkpt lat="49.45006" lon="0.34733">
        <ele>5.1</ele>
        <time>2023-09-03T08:23:43Z</time>
      </trkpt>
      <trkpt lat="49.45006" lon="0.34745">
        <ele>5.1</ele>
        <time>2023-09-03T08:23:44Z</time>
      </trkpt>
      <trkpt lat="49.45006" lon="0.34757">
        <ele>5.1</ele>
        <time>2023-09-03T08:23:45Z</time>
      </trkpt>
      <trkpt lat="49.45006" lon="0.34768">
        <ele>5.1</ele>
        <time>2023-09-03T08:23:46Z</time>
      </trkpt>
      <trkpt lat="49.45006" lon="0.3478">
        <ele>5</ele>
        <time>2023-09-03T08:23:47Z</time>
      </trkpt>
      <trkpt lat="49.45006" lon="0.34792">
        <ele>5</ele>
        <time>2023-09-03T08:23:48Z</time>
      </trkpt>
      <trkpt lat="49.45006" lon="0.34803">
        <ele>5</ele>
        <time>2023-09-03T08:23:49Z</time>
      </trkpt>
      <trkpt lat="49.45006" lon="0.34815">
        <ele>5</ele>
        <time>2023-09-03T08:23:50Z</time>
      </trkpt>
      <trkpt lat="49.45005" lon="0.34827">
        <ele>5</ele>
        <time>2023-09-03T08:23:51Z</time>
      </trkpt>
      <trkpt lat="49.45005" lon="0.34838">
        <ele>5</ele>
        <time>2023-09-03T08:23:52Z</time>
      </trkpt>
      <trkpt lat="49.45005" lon="0.3485">
        <ele>5</ele>
        <time>2023-09-03T08:23:53Z</time>
      </trkpt>
      <trkpt lat="49.45005" lon="0.34862">
        <ele>5</ele>
        <time>2023-09-03T08:23:54Z</time>
      </trkpt>
      <trkpt lat="49.45005" lon="0.34873">
        <ele>5</ele>
        <time>2023-09-03T08:23:55Z</time>
      </trkpt>
      <trkpt lat="49.45005" lon="0.34885">
        <ele>5</ele>
        <time>2023-09-03T08:23:56Z</time>
      </trkpt>
      <trkpt lat="49.45005" lon="0.34897">
        <ele>5</ele>
        <time>2023-09-03T08:23:57Z</time>
      </trkpt>
      <trkpt lat="49.45005" lon="0.34908">
        <ele>5</ele>
        <time>2023-09-03T08:23:58Z</time>
      </trkpt>
      <trkpt lat="49.45005" lon="0.3492">
        <ele>5</ele>
        <time>2023-09-03T08:23:59Z</time>
      </trkpt>
      <trkpt lat="49.45005" lon="0.34932">
        <ele>5</ele>
        <time>2023-09-03T08:24:00Z</time>
      </trkpt>
      <trkpt lat="49.45005" lon="0.34943">
        <ele>5</ele>
        <time>2023-09-03T08:24:01Z</time>
      </trkpt>
      <trkpt lat="49.45005" lon="0.34955">
        <ele>4.9</ele>
        <time>2023-09-03T08:24:02Z</time>
      </trkpt>
      <trkpt lat="49.45005" lon="0.34967">
        <ele>4.9</ele>
        <time>2023-09-03T08:24:03Z</time>
      </trkpt>
      <trkpt lat="49.45004" lon="0.34979">
        <ele>4.9</ele>
        <time>2023-09-03T08:24:04Z</time>
      </trkpt>
      <trkpt lat="49.45004" lon="0.34991">
        <ele>4.9</ele>
        <time>2023-09-03T08:24:05Z</time>
      </trkpt>
      <trkpt lat="49.45003" lon="0.35003">
        <ele>5</ele>
        <time>2023-09-03T08:24:06Z</time>
      </trkpt>
      <trkpt lat="49.45003" lon="0.35015">
        <ele>5</ele>
        <time>2023-09-03T08:24:07Z</time>
      </trkpt>
      <trkpt lat="49.45003" lon="0.35027">
        <ele>5</ele>
        <time>2023-09-03T08:24:08Z</time>
      </trkpt>
      <trkpt lat="49.45003" lon="0.35039">
        <ele>5</ele>
        <time>2023-09-03T08:24:09Z</time>
      </trkpt>
      <trkpt lat="49.45003" lon="0.35052">
        <ele>5</ele>
        <time>2023-09-03T08:24:10Z</time>
      </trkpt>
      <trkpt lat="49.45003" lon="0.35064">
        <ele>5</ele>
        <time>2023-09-03T08:24:11Z</time>
      </trkpt>
      <trkpt lat="49.45004" lon="0.35076">
        <ele>5</ele>
        <time>2023-09-03T08:24:12Z</time>
      </trkpt>
      <trkpt lat="49.45004" lon="0.35088">
        <ele>5</ele>
        <time>2023-09-03T08:24:13Z</time>
      </trkpt>
      <trkpt lat="49.45003" lon="0.351">
        <ele>5.1</ele>
        <time>2023-09-03T08:24:14Z</time>
      </trkpt>
      <trkpt lat="49.45003" lon="0.35112">
        <ele>5.1</ele>
        <time>2023-09-03T08:24:15Z</time>
      </trkpt>
      <trkpt lat="49.45003" lon="0.35124">
        <ele>5.1</ele>
        <time>2023-09-03T08:24:16Z</time>
      </trkpt>
      <trkpt lat="49.45003" lon="0.35135">
        <ele>5.1</ele>
        <time>2023-09-03T08:24:17Z</time>
      </trkpt>
      <trkpt lat="49.45003" lon="0.35147">
        <ele>5.1</ele>
        <time>2023-09-03T08:24:18Z</time>
      </trkpt>
      <trkpt lat="49.45003" lon="0.35158">
        <ele>5</ele>
        <time>2023-09-03T08:24:19Z</time>
      </trkpt>
      <trkpt lat="49.45003" lon="0.3517">
        <ele>5</ele>
        <time>2023-09-03T08:24:20Z</time>
      </trkpt>
      <trkpt lat="49.45003" lon="0.35182">
        <ele>5</ele>
        <time>2023-09-03T08:24:21Z</time>
      </trkpt>
      <trkpt lat="49.45003" lon="0.35194">
        <ele>5</ele>
        <time>2023-09-03T08:24:22Z</time>
      </trkpt>
      <trkpt lat="49.45003" lon="0.35206">
        <ele>5</ele>
        <time>2023-09-03T08:24:23Z</time>
      </trkpt>
      <trkpt lat="49.45003" lon="0.35218">
        <ele>5</ele>
        <time>2023-09-03T08:24:24Z</time>
      </trkpt>
      <trkpt lat="49.45003" lon="0.35229">
        <ele>5</ele>
        <time>2023-09-03T08:24:25Z</time>
      </trkpt>
      <trkpt lat="49.45003" lon="0.35241">
        <ele>4.9</ele>
        <time>2023-09-03T08:24:26Z</time>
      </trkpt>
      <trkpt lat="49.45003" lon="0.35253">
        <ele>4.9</ele>
        <time>2023-09-03T08:24:27Z</time>
      </trkpt>
      <trkpt lat="49.45003" lon="0.35265">
        <ele>4.9</ele>
        <time>2023-09-03T08:24:28Z</time>
      </trkpt>
      <trkpt lat="49.45003" lon="0.35277">
        <ele>4.9</ele>
        <time>2023-09-03T08:24:29Z</time>
      </trkpt>
      <trkpt lat="49.45003" lon="0.35288">
        <ele>4.9</ele>
        <time>2023-09-03T08:24:30Z</time>
      </trkpt>
      <trkpt lat="49.45003" lon="0.35301">
        <ele>4.9</ele>
        <time>2023-09-03T08:24:31Z</time>
      </trkpt>
      <trkpt lat="49.45003" lon="0.35312">
        <ele>4.9</ele>
        <time>2023-09-03T08:24:32Z</time>
      </trkpt>
      <trkpt lat="49.45003" lon="0.35324">
        <ele>4.9</ele>
        <time>2023-09-03T08:24:33Z</time>
      </trkpt>
      <trkpt lat="49.45003" lon="0.35336">
        <ele>4.9</ele>
        <time>2023-09-03T08:24:34Z</time>
      </trkpt>
      <trkpt lat="49.45003" lon="0.35348">
        <ele>4.9</ele>
        <time>2023-09-03T08:24:35Z</time>
      </trkpt>
      <trkpt lat="49.45003" lon="0.3536">
        <ele>4.9</ele>
        <time>2023-09-03T08:24:36Z</time>
      </trkpt>
      <trkpt lat="49.45003" lon="0.35372">
        <ele>4.9</ele>
        <time>2023-09-03T08:24:37Z</time>
      </trkpt>
      <trkpt lat="49.45003" lon="0.35384">
        <ele>5</ele>
        <time>2023-09-03T08:24:38Z</time>
      </trkpt>
      <trkpt lat="49.45003" lon="0.35395">
        <ele>5</ele>
        <time>2023-09-03T08:24:39Z</time>
      </trkpt>
      <trkpt lat="49.45003" lon="0.35407">
        <ele>5</ele>
        <time>2023-09-03T08:24:40Z</time>
      </trkpt>
      <trkpt lat="49.45003" lon="0.35418">
        <ele>5</ele>
        <time>2023-09-03T08:24:41Z</time>
      </trkpt>
      <trkpt lat="49.45003" lon="0.3543">
        <ele>5</ele>
        <time>2023-09-03T08:24:42Z</time>
      </trkpt>
      <trkpt lat="49.45003" lon="0.35442">
        <ele>5</ele>
        <time>2023-09-03T08:24:43Z</time>
      </trkpt>
      <trkpt lat="49.45003" lon="0.35454">
        <ele>5</ele>
        <time>2023-09-03T08:24:44Z</time>
      </trkpt>
      <trkpt lat="49.45003" lon="0.35466">
        <ele>5</ele>
        <time>2023-09-03T08:24:45Z</time>
      </trkpt>
      <trkpt lat="49.45003" lon="0.35478">
        <ele>5</ele>
        <time>2023-09-03T08:24:46Z</time>
      </trkpt>
      <trkpt lat="49.45003" lon="0.3549">
        <ele>5</ele>
        <time>2023-09-03T08:24:47Z</time>
      </trkpt>
      <trkpt lat="49.45003" lon="0.35502">
        <ele>5</ele>
        <time>2023-09-03T08:24:48Z</time>
      </trkpt>
      <trkpt lat="49.45003" lon="0.35514">
        <ele>5</ele>
        <time>2023-09-03T08:24:49Z</time>
      </trkpt>
      <trkpt lat="49.45003" lon="0.35526">
        <ele>5</ele>
        <time>2023-09-03T08:24:50Z</time>
      </trkpt>
      <trkpt lat="49.45003" lon="0.35538">
        <ele>5</ele>
        <time>2023-09-03T08:24:51Z</time>
      </trkpt>
      <trkpt lat="49.45003" lon="0.3555">
        <ele>5.1</ele>
        <time>2023-09-03T08:24:52Z</time>
      </trkpt>
      <trkpt lat="49.45003" lon="0.35563">
        <ele>5.1</ele>
        <time>2023-09-03T08:24:53Z</time>
      </trkpt>
      <trkpt lat="49.45004" lon="0.35575">
        <ele>5.1</ele>
        <time>2023-09-03T08:24:54Z</time>
      </trkpt>
      <trkpt lat="49.45004" lon="0.35587">
        <ele>5.1</ele>
        <time>2023-09-03T08:24:55Z</time>
      </trkpt>
      <trkpt lat="49.45004" lon="0.356">
        <ele>5.1</ele>
        <time>2023-09-03T08:24:56Z</time>
      </trkpt>
      <trkpt lat="49.45004" lon="0.35612">
        <ele>5.1</ele>
        <time>2023-09-03T08:24:57Z</time>
      </trkpt>
      <trkpt lat="49.45004" lon="0.35624">
        <ele>5.1</ele>
        <time>2023-09-03T08:24:58Z</time>
      </trkpt>
      <trkpt lat="49.45004" lon="0.35637">
        <ele>5.2</ele>
        <time>2023-09-03T08:24:59Z</time>
      </trkpt>
      <trkpt lat="49.45004" lon="0.35649">
        <ele>5.2</ele>
        <time>2023-09-03T08:25:00Z</time>
      </trkpt>
      <trkpt lat="49.45004" lon="0.35661">
        <ele>5.2</ele>
        <time>2023-09-03T08:25:01Z</time>
      </trkpt>
      <trkpt lat="49.45004" lon="0.35673">
        <ele>5.3</ele>
        <time>2023-09-03T08:25:02Z</time>
      </trkpt>
      <trkpt lat="49.45005" lon="0.35685">
        <ele>5.3</ele>
        <time>2023-09-03T08:25:03Z</time>
      </trkpt>
      <trkpt lat="49.45005" lon="0.35697">
        <ele>5.3</ele>
        <time>2023-09-03T08:25:04Z</time>
      </trkpt>
      <trkpt lat="49.45006" lon="0.35709">
        <ele>5.3</ele>
        <time>2023-09-03T08:25:05Z</time>
      </trkpt>
      <trkpt lat="49.45007" lon="0.3572">
        <ele>5.3</ele>
        <time>2023-09-03T08:25:06Z</time>
      </trkpt>
      <trkpt lat="49.45008" lon="0.35732">
        <ele>5.3</ele>
        <time>2023-09-03T08:25:07Z</time>
      </trkpt>
      <trkpt lat="49.45009" lon="0.35743">
        <ele>5.3</ele>
        <time>2023-09-03T08:25:08Z</time>
      </trkpt>
      <trkpt lat="49.4501" lon="0.35755">
        <ele>5.3</ele>
        <time>2023-09-03T08:25:09Z</time>
      </trkpt>
      <trkpt lat="49.45011" lon="0.35766">
        <ele>5.2</ele>
        <time>2023-09-03T08:25:10Z</time>
      </trkpt>
      <trkpt lat="49.45013" lon="0.35777">
        <ele>5.2</ele>
        <time>2023-09-03T08:25:11Z</time>
      </trkpt>
      <trkpt lat="49.45014" lon="0.35789">
        <ele>5.2</ele>
        <time>2023-09-03T08:25:12Z</time>
      </trkpt>
      <trkpt lat="49.45016" lon="0.358">
        <ele>5.2</ele>
        <time>2023-09-03T08:25:13Z</time>
      </trkpt>
      <trkpt lat="49.45017" lon="0.3581">
        <ele>5.3</ele>
        <time>2023-09-03T08:25:14Z</time>
      </trkpt>
      <trkpt lat="49.4502" lon="0.35821">
        <ele>5.3</ele>
        <time>2023-09-03T08:25:15Z</time>
      </trkpt>
      <trkpt lat="49.45022" lon="0.3583">
        <ele>5.3</ele>
        <time>2023-09-03T08:25:16Z</time>
      </trkpt>
      <trkpt lat="49.45024" lon="0.35838">
        <ele>5.3</ele>
        <time>2023-09-03T08:25:17Z</time>
      </trkpt>
      <trkpt lat="49.45025" lon="0.35845">
        <ele>5.3</ele>
        <time>2023-09-03T08:25:18Z</time>
      </trkpt>
      <trkpt lat="49.45026" lon="0.3585">
        <ele>5.2</ele>
        <time>2023-09-03T08:25:19Z</time>
      </trkpt>
      <trkpt lat="49.45028" lon="0.35856">
        <ele>5.2</ele>
        <time>2023-09-03T08:25:20Z</time>
      </trkpt>
      <trkpt lat="49.45028" lon="0.35858">
        <ele>5.2</ele>
        <time>2023-09-03T08:25:21Z</time>
      </trkpt>
      <trkpt lat="49.45029" lon="0.35862">
        <ele>5.2</ele>
        <time>2023-09-03T08:25:22Z</time>
      </trkpt>
      <trkpt lat="49.4503" lon="0.35866">
        <ele>5.2</ele>
        <time>2023-09-03T08:25:23Z</time>
      </trkpt>
      <trkpt lat="49.45032" lon="0.3587">
        <ele>5.2</ele>
        <time>2023-09-03T08:25:24Z</time>
      </trkpt>
      <trkpt lat="49.45033" lon="0.35875">
        <ele>5.2</ele>
        <time>2023-09-03T08:25:25Z</time>
      </trkpt>
      <trkpt lat="49.45035" lon="0.3588">
        <ele>5.2</ele>
        <time>2023-09-03T08:25:26Z</time>
      </trkpt>
      <trkpt lat="49.45037" lon="0.35885">
        <ele>5.2</ele>
        <time>2023-09-03T08:25:27Z</time>
      </trkpt>
      <trkpt lat="49.45039" lon="0.35889">
        <ele>5.3</ele>
        <time>2023-09-03T08:25:28Z</time>
      </trkpt>
      <trkpt lat="49.45041" lon="0.35894">
        <ele>5.3</ele>
        <time>2023-09-03T08:25:29Z</time>
      </trkpt>
      <trkpt lat="49.45043" lon="0.35899">
        <ele>5.3</ele>
        <time>2023-09-03T08:25:30Z</time>
      </trkpt>
      <trkpt lat="49.45045" lon="0.35905">
        <ele>5.3</ele>
        <time>2023-09-03T08:25:31Z</time>
      </trkpt>
      <trkpt lat="49.45047" lon="0.35911">
        <ele>5.3</ele>
        <time>2023-09-03T08:25:32Z</time>
      </trkpt>
      <trkpt lat="49.45049" lon="0.35917">
        <ele>5.3</ele>
        <time>2023-09-03T08:25:33Z</time>
      </trkpt>
      <trkpt lat="49.45051" lon="0.35923">
        <ele>5.3</ele>
        <time>2023-09-03T08:25:34Z</time>
      </trkpt>
      <trkpt lat="49.45053" lon="0.3593">
        <ele>5.3</ele>
        <time>2023-09-03T08:25:35Z</time>
      </trkpt>
      <trkpt lat="49.45056" lon="0.35936">
        <ele>5.3</ele>
        <time>2023-09-03T08:25:36Z</time>
      </trkpt>
      <trkpt lat="49.4506" lon="0.35943">
        <ele>5.3</ele>
        <time>2023-09-03T08:25:37Z</time>
      </trkpt>
      <trkpt lat="49.45063" lon="0.3595">
        <ele>5.3</ele>
        <time>2023-09-03T08:25:38Z</time>
      </trkpt>
      <trkpt lat="49.45067" lon="0.35956">
        <ele>5.3</ele>
        <time>2023-09-03T08:25:39Z</time>
      </trkpt>
      <trkpt lat="49.45071" lon="0.35962">
        <ele>5.3</ele>
        <time>2023-09-03T08:25:40Z</time>
      </trkpt>
      <trkpt lat="49.45075" lon="0.35969">
        <ele>5.3</ele>
        <time>2023-09-03T08:25:41Z</time>
      </trkpt>
      <trkpt lat="49.45079" lon="0.35976">
        <ele>5.3</ele>
        <time>2023-09-03T08:25:42Z</time>
      </trkpt>
      <trkpt lat="49.45084" lon="0.35983">
        <ele>5.3</ele>
        <time>2023-09-03T08:25:43Z</time>
      </trkpt>
      <trkpt lat="49.45088" lon="0.3599">
        <ele>5.3</ele>
        <time>2023-09-03T08:25:44Z</time>
      </trkpt>
      <trkpt lat="49.45093" lon="0.35998">
        <ele>5.4</ele>
        <time>2023-09-03T08:25:45Z</time>
      </trkpt>
      <trkpt lat="49.45098" lon="0.36005">
        <ele>5.4</ele>
        <time>2023-09-03T08:25:46Z</time>
      </trkpt>
      <trkpt lat="49.45103" lon="0.36011">
        <ele>5.4</ele>
        <time>2023-09-03T08:25:47Z</time>
      </trkpt>
      <trkpt lat="49.45108" lon="0.36018">
        <ele>5.4</ele>
        <time>2023-09-03T08:25:48Z</time>
      </trkpt>
      <trkpt lat="49.45114" lon="0.36024">
        <ele>5.4</ele>
        <time>2023-09-03T08:25:49Z</time>
      </trkpt>
      <trkpt lat="49.45119" lon="0.3603">
        <ele>5.3</ele>
        <time>2023-09-03T08:25:50Z</time>
      </trkpt>
      <trkpt lat="49.45125" lon="0.36036">
        <ele>5.3</ele>
        <time>2023-09-03T08:25:51Z</time>
      </trkpt>
      <trkpt lat="49.45132" lon="0.36042">
        <ele>5.3</ele>
        <time>2023-09-03T08:25:52Z</time>
      </trkpt>
      <trkpt lat="49.45139" lon="0.36049">
        <ele>5.3</ele>
        <time>2023-09-03T08:25:53Z</time>
      </trkpt>
      <trkpt lat="49.45145" lon="0.36055">
        <ele>5.3</ele>
        <time>2023-09-03T08:25:54Z</time>
      </trkpt>
      <trkpt lat="49.45151" lon="0.36061">
        <ele>5.3</ele>
        <time>2023-09-03T08:25:55Z</time>
      </trkpt>
      <trkpt lat="49.45158" lon="0.36066">
        <ele>5.3</ele>
        <time>2023-09-03T08:25:56Z</time>
      </trkpt>
      <trkpt lat="49.45164" lon="0.36071">
        <ele>5.2</ele>
        <time>2023-09-03T08:25:57Z</time>
      </trkpt>
      <trkpt lat="49.4517" lon="0.36075">
        <ele>5.2</ele>
        <time>2023-09-03T08:25:58Z</time>
      </trkpt>
      <trkpt lat="49.45176" lon="0.3608">
        <ele>5.2</ele>
        <time>2023-09-03T08:25:59Z</time>
      </trkpt>
      <trkpt lat="49.45182" lon="0.36084">
        <ele>5.2</ele>
        <time>2023-09-03T08:26:00Z</time>
      </trkpt>
      <trkpt lat="49.45188" lon="0.36087">
        <ele>5.2</ele>
        <time>2023-09-03T08:26:01Z</time>
      </trkpt>
      <trkpt lat="49.45194" lon="0.36091">
        <ele>5.2</ele>
        <time>2023-09-03T08:26:02Z</time>
      </trkpt>
      <trkpt lat="49.452" lon="0.36093">
        <ele>5.2</ele>
        <time>2023-09-03T08:26:03Z</time>
      </trkpt>
      <trkpt lat="49.45206" lon="0.36096">
        <ele>5.1</ele>
        <time>2023-09-03T08:26:04Z</time>
      </trkpt>
      <trkpt lat="49.45212" lon="0.36099">
        <ele>5.1</ele>
        <time>2023-09-03T08:26:05Z</time>
      </trkpt>
      <trkpt lat="49.45218" lon="0.36101">
        <ele>5.1</ele>
        <time>2023-09-03T08:26:06Z</time>
      </trkpt>
      <trkpt lat="49.45224" lon="0.36103">
        <ele>5.1</ele>
        <time>2023-09-03T08:26:07Z</time>
      </trkpt>
      <trkpt lat="49.4523" lon="0.36104">
        <ele>5.1</ele>
        <time>2023-09-03T08:26:08Z</time>
      </trkpt>
      <trkpt lat="49.45235" lon="0.36105">
        <ele>5</ele>
        <time>2023-09-03T08:26:09Z</time>
      </trkpt>
      <trkpt lat="49.45241" lon="0.36105">
        <ele>5</ele>
        <time>2023-09-03T08:26:10Z</time>
      </trkpt>
      <trkpt lat="49.45246" lon="0.36106">
        <ele>5</ele>
        <time>2023-09-03T08:26:11Z</time>
      </trkpt>
      <trkpt lat="49.45252" lon="0.36107">
        <ele>5</ele>
        <time>2023-09-03T08:26:12Z</time>
      </trkpt>
      <trkpt lat="49.45257" lon="0.36109">
        <ele>5</ele>
        <time>2023-09-03T08:26:13Z</time>
      </trkpt>
      <trkpt lat="49.45262" lon="0.3611">
        <ele>5</ele>
        <time>2023-09-03T08:26:14Z</time>
      </trkpt>
      <trkpt lat="49.45267" lon="0.36112">
        <ele>4.9</ele>
        <time>2023-09-03T08:26:15Z</time>
      </trkpt>
      <trkpt lat="49.45272" lon="0.36113">
        <ele>4.9</ele>
        <time>2023-09-03T08:26:16Z</time>
      </trkpt>
      <trkpt lat="49.45277" lon="0.36114">
        <ele>4.9</ele>
        <time>2023-09-03T08:26:17Z</time>
      </trkpt>
      <trkpt lat="49.45281" lon="0.36115">
        <ele>4.9</ele>
        <time>2023-09-03T08:26:18Z</time>
      </trkpt>
      <trkpt lat="49.45286" lon="0.36115">
        <ele>4.9</ele>
        <time>2023-09-03T08:26:19Z</time>
      </trkpt>
      <trkpt lat="49.45291" lon="0.36116">
        <ele>4.9</ele>
        <time>2023-09-03T08:26:20Z</time>
      </trkpt>
      <trkpt lat="49.45296" lon="0.36117">
        <ele>4.9</ele>
        <time>2023-09-03T08:26:21Z</time>
      </trkpt>
      <trkpt lat="49.45301" lon="0.36118">
        <ele>4.9</ele>
        <time>2023-09-03T08:26:22Z</time>
      </trkpt>
      <trkpt lat="49.45306" lon="0.36119">
        <ele>4.9</ele>
        <time>2023-09-03T08:26:23Z</time>
      </trkpt>
      <trkpt lat="49.4531" lon="0.3612">
        <ele>4.9</ele>
        <time>2023-09-03T08:26:24Z</time>
      </trkpt>
      <trkpt lat="49.45315" lon="0.36122">
        <ele>4.8</ele>
        <time>2023-09-03T08:26:25Z</time>
      </trkpt>
      <trkpt lat="49.4532" lon="0.36123">
        <ele>4.8</ele>
        <time>2023-09-03T08:26:26Z</time>
      </trkpt>
      <trkpt lat="49.45325" lon="0.36124">
        <ele>4.8</ele>
        <time>2023-09-03T08:26:27Z</time>
      </trkpt>
      <trkpt lat="49.4533" lon="0.36125">
        <ele>4.8</ele>
        <time>2023-09-03T08:26:28Z</time>
      </trkpt>
      <trkpt lat="49.45335" lon="0.36126">
        <ele>4.8</ele>
        <time>2023-09-03T08:26:29Z</time>
      </trkpt>
      <trkpt lat="49.4534" lon="0.36127">
        <ele>4.8</ele>
        <time>2023-09-03T08:26:30Z</time>
      </trkpt>
      <trkpt lat="49.45344" lon="0.36128">
        <ele>4.8</ele>
        <time>2023-09-03T08:26:31Z</time>
      </trkpt>
      <trkpt lat="49.45349" lon="0.36129">
        <ele>4.8</ele>
        <time>2023-09-03T08:26:32Z</time>
      </trkpt>
      <trkpt lat="49.45354" lon="0.3613">
        <ele>4.8</ele>
        <time>2023-09-03T08:26:33Z</time>
      </trkpt>
      <trkpt lat="49.45359" lon="0.36131">
        <ele>4.8</ele>
        <time>2023-09-03T08:26:34Z</time>
      </trkpt>
      <trkpt lat="49.45364" lon="0.36132">
        <ele>4.8</ele>
        <time>2023-09-03T08:26:35Z</time>
      </trkpt>
      <trkpt lat="49.45369" lon="0.36133">
        <ele>4.8</ele>
        <time>2023-09-03T08:26:36Z</time>
      </trkpt>
      <trkpt lat="49.45374" lon="0.36134">
        <ele>4.8</ele>
        <time>2023-09-03T08:26:37Z</time>
      </trkpt>
      <trkpt lat="49.45379" lon="0.36135">
        <ele>4.8</ele>
        <time>2023-09-03T08:26:38Z</time>
      </trkpt>
      <trkpt lat="49.45384" lon="0.36137">
        <ele>4.7</ele>
        <time>2023-09-03T08:26:39Z</time>
      </trkpt>
      <trkpt lat="49.45389" lon="0.36138">
        <ele>4.7</ele>
        <time>2023-09-03T08:26:40Z</time>
      </trkpt>
      <trkpt lat="49.45394" lon="0.36139">
        <ele>4.7</ele>
        <time>2023-09-03T08:26:41Z</time>
      </trkpt>
      <trkpt lat="49.45399" lon="0.3614">
        <ele>4.7</ele>
        <time>2023-09-03T08:26:42Z</time>
      </trkpt>
      <trkpt lat="49.45404" lon="0.36141">
        <ele>4.8</ele>
        <time>2023-09-03T08:26:43Z</time>
      </trkpt>
      <trkpt lat="49.45409" lon="0.36142">
        <ele>4.8</ele>
        <time>2023-09-03T08:26:44Z</time>
      </trkpt>
      <trkpt lat="49.45415" lon="0.36144">
        <ele>4.8</ele>
        <time>2023-09-03T08:26:45Z</time>
      </trkpt>
      <trkpt lat="49.4542" lon="0.36144">
        <ele>4.8</ele>
        <time>2023-09-03T08:26:46Z</time>
      </trkpt>
      <trkpt lat="49.45426" lon="0.36145">
        <ele>4.8</ele>
        <time>2023-09-03T08:26:47Z</time>
      </trkpt>
      <trkpt lat="49.45431" lon="0.36147">
        <ele>4.8</ele>
        <time>2023-09-03T08:26:48Z</time>
      </trkpt>
      <trkpt lat="49.45437" lon="0.36149">
        <ele>4.8</ele>
        <time>2023-09-03T08:26:49Z</time>
      </trkpt>
      <trkpt lat="49.45442" lon="0.3615">
        <ele>4.7</ele>
        <time>2023-09-03T08:26:50Z</time>
      </trkpt>
      <trkpt lat="49.45448" lon="0.36151">
        <ele>4.7</ele>
        <time>2023-09-03T08:26:51Z</time>
      </trkpt>
      <trkpt lat="49.45453" lon="0.36152">
        <ele>4.7</ele>
        <time>2023-09-03T08:26:52Z</time>
      </trkpt>
      <trkpt lat="49.45459" lon="0.36152">
        <ele>4.7</ele>
        <time>2023-09-03T08:26:53Z</time>
      </trkpt>
      <trkpt lat="49.45465" lon="0.36154">
        <ele>4.7</ele>
        <time>2023-09-03T08:26:54Z</time>
      </trkpt>
      <trkpt lat="49.45471" lon="0.36155">
        <ele>4.7</ele>
        <time>2023-09-03T08:26:55Z</time>
      </trkpt>
      <trkpt lat="49.45477" lon="0.36157">
        <ele>4.7</ele>
        <time>2023-09-03T08:26:56Z</time>
      </trkpt>
      <trkpt lat="49.45483" lon="0.36158">
        <ele>4.7</ele>
        <time>2023-09-03T08:26:57Z</time>
      </trkpt>
      <trkpt lat="49.4549" lon="0.36159">
        <ele>4.7</ele>
        <time>2023-09-03T08:26:58Z</time>
      </trkpt>
      <trkpt lat="49.45496" lon="0.3616">
        <ele>4.7</ele>
        <time>2023-09-03T08:26:59Z</time>
      </trkpt>
      <trkpt lat="49.45502" lon="0.36161">
        <ele>4.7</ele>
        <time>2023-09-03T08:27:00Z</time>
      </trkpt>
      <trkpt lat="49.45508" lon="0.36163">
        <ele>4.8</ele>
        <time>2023-09-03T08:27:01Z</time>
      </trkpt>
      <trkpt lat="49.45514" lon="0.36165">
        <ele>4.8</ele>
        <time>2023-09-03T08:27:02Z</time>
      </trkpt>
      <trkpt lat="49.4552" lon="0.36167">
        <ele>4.8</ele>
        <time>2023-09-03T08:27:03Z</time>
      </trkpt>
      <trkpt lat="49.45526" lon="0.36168">
        <ele>4.8</ele>
        <time>2023-09-03T08:27:04Z</time>
      </trkpt>
      <trkpt lat="49.45532" lon="0.36169">
        <ele>4.8</ele>
        <time>2023-09-03T08:27:05Z</time>
      </trkpt>
      <trkpt lat="49.45538" lon="0.36169">
        <ele>4.9</ele>
        <time>2023-09-03T08:27:06Z</time>
      </trkpt>
      <trkpt lat="49.45543" lon="0.3617">
        <ele>4.9</ele>
        <time>2023-09-03T08:27:07Z</time>
      </trkpt>
      <trkpt lat="49.45549" lon="0.36171">
        <ele>4.9</ele>
        <time>2023-09-03T08:27:08Z</time>
      </trkpt>
      <trkpt lat="49.45554" lon="0.36171">
        <ele>4.9</ele>
        <time>2023-09-03T08:27:09Z</time>
      </trkpt>
      <trkpt lat="49.4556" lon="0.36172">
        <ele>4.9</ele>
        <time>2023-09-03T08:27:10Z</time>
      </trkpt>
      <trkpt lat="49.45565" lon="0.36172">
        <ele>4.9</ele>
        <time>2023-09-03T08:27:11Z</time>
      </trkpt>
      <trkpt lat="49.45571" lon="0.36172">
        <ele>4.9</ele>
        <time>2023-09-03T08:27:12Z</time>
      </trkpt>
      <trkpt lat="49.45576" lon="0.36172">
        <ele>4.9</ele>
        <time>2023-09-03T08:27:13Z</time>
      </trkpt>
      <trkpt lat="49.45582" lon="0.36172">
        <ele>4.9</ele>
        <time>2023-09-03T08:27:14Z</time>
      </trkpt>
      <trkpt lat="49.45588" lon="0.36171">
        <ele>4.9</ele>
        <time>2023-09-03T08:27:15Z</time>
      </trkpt>
      <trkpt lat="49.45595" lon="0.3617">
        <ele>4.9</ele>
        <time>2023-09-03T08:27:16Z</time>
      </trkpt>
      <trkpt lat="49.45601" lon="0.36169">
        <ele>4.9</ele>
        <time>2023-09-03T08:27:17Z</time>
      </trkpt>
      <trkpt lat="49.45608" lon="0.36168">
        <ele>4.9</ele>
        <time>2023-09-03T08:27:18Z</time>
      </trkpt>
      <trkpt lat="49.45615" lon="0.36166">
        <ele>5</ele>
        <time>2023-09-03T08:27:19Z</time>
      </trkpt>
      <trkpt lat="49.45621" lon="0.36164">
        <ele>5</ele>
        <time>2023-09-03T08:27:20Z</time>
      </trkpt>
      <trkpt lat="49.45628" lon="0.36163">
        <ele>5</ele>
        <time>2023-09-03T08:27:21Z</time>
      </trkpt>
      <trkpt lat="49.45634" lon="0.36161">
        <ele>5</ele>
        <time>2023-09-03T08:27:22Z</time>
      </trkpt>
      <trkpt lat="49.45641" lon="0.3616">
        <ele>5</ele>
        <time>2023-09-03T08:27:23Z</time>
      </trkpt>
      <trkpt lat="49.45648" lon="0.36158">
        <ele>5</ele>
        <time>2023-09-03T08:27:24Z</time>
      </trkpt>
      <trkpt lat="49.45655" lon="0.36156">
        <ele>5</ele>
        <time>2023-09-03T08:27:25Z</time>
      </trkpt>
      <trkpt lat="49.45662" lon="0.36154">
        <ele>5.1</ele>
        <time>2023-09-03T08:27:26Z</time>
      </trkpt>
      <trkpt lat="49.45669" lon="0.3615">
        <ele>5.1</ele>
        <time>2023-09-03T08:27:27Z</time>
      </trkpt>
      <trkpt lat="49.45676" lon="0.36147">
        <ele>5.1</ele>
        <time>2023-09-03T08:27:28Z</time>
      </trkpt>
      <trkpt lat="49.45683" lon="0.36143">
        <ele>5.1</ele>
        <time>2023-09-03T08:27:29Z</time>
      </trkpt>
      <trkpt lat="49.4569" lon="0.3614">
        <ele>5.1</ele>
        <time>2023-09-03T08:27:30Z</time>
      </trkpt>
      <trkpt lat="49.45697" lon="0.36137">
        <ele>5.1</ele>
        <time>2023-09-03T08:27:31Z</time>
      </trkpt>
      <trkpt lat="49.45704" lon="0.36134">
        <ele>5.1</ele>
        <time>2023-09-03T08:27:32Z</time>
      </trkpt>
      <trkpt lat="49.45711" lon="0.3613">
        <ele>5.1</ele>
        <time>2023-09-03T08:27:33Z</time>
      </trkpt>
      <trkpt lat="49.45718" lon="0.36126">
        <ele>5.1</ele>
        <time>2023-09-03T08:27:34Z</time>
      </trkpt>
      <trkpt lat="49.45724" lon="0.36122">
        <ele>5.1</ele>
        <time>2023-09-03T08:27:35Z</time>
      </trkpt>
      <trkpt lat="49.45731" lon="0.36119">
        <ele>5</ele>
        <time>2023-09-03T08:27:36Z</time>
      </trkpt>
      <trkpt lat="49.45738" lon="0.36115">
        <ele>5</ele>
        <time>2023-09-03T08:27:37Z</time>
      </trkpt>
      <trkpt lat="49.45745" lon="0.36112">
        <ele>5</ele>
        <time>2023-09-03T08:27:38Z</time>
      </trkpt>
      <trkpt lat="49.45752" lon="0.36109">
        <ele>5</ele>
        <time>2023-09-03T08:27:39Z</time>
      </trkpt>
      <trkpt lat="49.45759" lon="0.36106">
        <ele>5</ele>
        <time>2023-09-03T08:27:40Z</time>
      </trkpt>
      <trkpt lat="49.45766" lon="0.36103">
        <ele>5</ele>
        <time>2023-09-03T08:27:41Z</time>
      </trkpt>
      <trkpt lat="49.45773" lon="0.361">
        <ele>5</ele>
        <time>2023-09-03T08:27:42Z</time>
      </trkpt>
      <trkpt lat="49.4578" lon="0.36097">
        <ele>5</ele>
        <time>2023-09-03T08:27:43Z</time>
      </trkpt>
      <trkpt lat="49.45788" lon="0.36094">
        <ele>5</ele>
        <time>2023-09-03T08:27:44Z</time>
      </trkpt>
      <trkpt lat="49.45795" lon="0.36091">
        <ele>5</ele>
        <time>2023-09-03T08:27:45Z</time>
      </trkpt>
      <trkpt lat="49.45803" lon="0.36087">
        <ele>5</ele>
        <time>2023-09-03T08:27:46Z</time>
      </trkpt>
      <trkpt lat="49.4581" lon="0.36084">
        <ele>5</ele>
        <time>2023-09-03T08:27:47Z</time>
      </trkpt>
      <trkpt lat="49.45818" lon="0.36081">
        <ele>4.9</ele>
        <time>2023-09-03T08:27:48Z</time>
      </trkpt>
      <trkpt lat="49.45825" lon="0.36078">
        <ele>4.9</ele>
        <time>2023-09-03T08:27:49Z</time>
      </trkpt>
      <trkpt lat="49.45832" lon="0.36074">
        <ele>4.9</ele>
        <time>2023-09-03T08:27:50Z</time>
      </trkpt>
      <trkpt lat="49.45839" lon="0.36071">
        <ele>4.9</ele>
        <time>2023-09-03T08:27:51Z</time>
      </trkpt>
      <trkpt lat="49.45847" lon="0.36068">
        <ele>4.9</ele>
        <time>2023-09-03T08:27:52Z</time>
      </trkpt>
      <trkpt lat="49.45854" lon="0.36065">
        <ele>4.9</ele>
        <time>2023-09-03T08:27:53Z</time>
      </trkpt>
      <trkpt lat="49.45862" lon="0.36062">
        <ele>4.9</ele>
        <time>2023-09-03T08:27:54Z</time>
      </trkpt>
      <trkpt lat="49.45869" lon="0.36059">
        <ele>4.9</ele>
        <time>2023-09-03T08:27:55Z</time>
      </trkpt>
      <trkpt lat="49.45876" lon="0.36056">
        <ele>4.9</ele>
        <time>2023-09-03T08:27:56Z</time>
      </trkpt>
      <trkpt lat="49.45883" lon="0.36054">
        <ele>4.9</ele>
        <time>2023-09-03T08:27:57Z</time>
      </trkpt>
      <trkpt lat="49.4589" lon="0.36051">
        <ele>4.9</ele>
        <time>2023-09-03T08:27:58Z</time>
      </trkpt>
      <trkpt lat="49.45897" lon="0.36047">
        <ele>4.9</ele>
        <time>2023-09-03T08:27:59Z</time>
      </trkpt>
      <trkpt lat="49.45905" lon="0.36044">
        <ele>4.9</ele>
        <time>2023-09-03T08:28:00Z</time>
      </trkpt>
      <trkpt lat="49.45912" lon="0.36041">
        <ele>4.9</ele>
        <time>2023-09-03T08:28:01Z</time>
      </trkpt>
      <trkpt lat="49.45919" lon="0.36038">
        <ele>4.9</ele>
        <time>2023-09-03T08:28:02Z</time>
      </trkpt>
      <trkpt lat="49.45926" lon="0.36035">
        <ele>4.9</ele>
        <time>2023-09-03T08:28:03Z</time>
      </trkpt>
      <trkpt lat="49.45933" lon="0.36032">
        <ele>4.9</ele>
        <time>2023-09-03T08:28:04Z</time>
      </trkpt>
      <trkpt lat="49.4594" lon="0.36028">
        <ele>4.9</ele>
        <time>2023-09-03T08:28:05Z</time>
      </trkpt>
      <trkpt lat="49.45948" lon="0.36025">
        <ele>4.9</ele>
        <time>2023-09-03T08:28:06Z</time>
      </trkpt>
      <trkpt lat="49.45955" lon="0.36023">
        <ele>4.9</ele>
        <time>2023-09-03T08:28:07Z</time>
      </trkpt>
      <trkpt lat="49.45963" lon="0.3602">
        <ele>4.9</ele>
        <time>2023-09-03T08:28:08Z</time>
      </trkpt>
      <trkpt lat="49.4597" lon="0.36017">
        <ele>4.9</ele>
        <time>2023-09-03T08:28:09Z</time>
      </trkpt>
      <trkpt lat="49.45977" lon="0.36014">
        <ele>4.9</ele>
        <time>2023-09-03T08:28:10Z</time>
      </trkpt>
      <trkpt lat="49.45984" lon="0.36011">
        <ele>4.9</ele>
        <time>2023-09-03T08:28:11Z</time>
      </trkpt>
      <trkpt lat="49.45991" lon="0.36008">
        <ele>5</ele>
        <time>2023-09-03T08:28:12Z</time>
      </trkpt>
      <trkpt lat="49.45998" lon="0.36005">
        <ele>5</ele>
        <time>2023-09-03T08:28:13Z</time>
      </trkpt>
      <trkpt lat="49.46005" lon="0.36002">
        <ele>5</ele>
        <time>2023-09-03T08:28:14Z</time>
      </trkpt>
      <trkpt lat="49.46012" lon="0.35999">
        <ele>5</ele>
        <time>2023-09-03T08:28:15Z</time>
      </trkpt>
      <trkpt lat="49.4602" lon="0.35996">
        <ele>5</ele>
        <time>2023-09-03T08:28:16Z</time>
      </trkpt>
      <trkpt lat="49.46027" lon="0.35993">
        <ele>5</ele>
        <time>2023-09-03T08:28:17Z</time>
      </trkpt>
      <trkpt lat="49.46034" lon="0.3599">
        <ele>5</ele>
        <time>2023-09-03T08:28:18Z</time>
      </trkpt>
      <trkpt lat="49.46041" lon="0.35987">
        <ele>5</ele>
        <time>2023-09-03T08:28:19Z</time>
      </trkpt>
      <trkpt lat="49.46048" lon="0.35984">
        <ele>5</ele>
        <time>2023-09-03T08:28:20Z</time>
      </trkpt>
      <trkpt lat="49.46056" lon="0.35981">
        <ele>5.1</ele>
        <time>2023-09-03T08:28:21Z</time>
      </trkpt>
      <trkpt lat="49.46063" lon="0.35978">
        <ele>5.1</ele>
        <time>2023-09-03T08:28:22Z</time>
      </trkpt>
      <trkpt lat="49.46071" lon="0.35975">
        <ele>5.1</ele>
        <time>2023-09-03T08:28:23Z</time>
      </trkpt>
      <trkpt lat="49.46078" lon="0.35972">
        <ele>5.1</ele>
        <time>2023-09-03T08:28:24Z</time>
      </trkpt>
      <trkpt lat="49.46085" lon="0.35968">
        <ele>5.1</ele>
        <time>2023-09-03T08:28:25Z</time>
      </trkpt>
      <trkpt lat="49.46092" lon="0.35966">
        <ele>5.1</ele>
        <time>2023-09-03T08:28:26Z</time>
      </trkpt>
      <trkpt lat="49.46099" lon="0.35963">
        <ele>5.1</ele>
        <time>2023-09-03T08:28:27Z</time>
      </trkpt>
      <trkpt lat="49.46107" lon="0.3596">
        <ele>5.1</ele>
        <time>2023-09-03T08:28:28Z</time>
      </trkpt>
      <trkpt lat="49.46114" lon="0.35957">
        <ele>5.2</ele>
        <time>2023-09-03T08:28:29Z</time>
      </trkpt>
      <trkpt lat="49.46121" lon="0.35954">
        <ele>5.2</ele>
        <time>2023-09-03T08:28:30Z</time>
      </trkpt>
      <trkpt lat="49.46129" lon="0.35951">
        <ele>5.2</ele>
        <time>2023-09-03T08:28:31Z</time>
      </trkpt>
      <trkpt lat="49.46136" lon="0.35948">
        <ele>5.2</ele>
        <time>2023-09-03T08:28:32Z</time>
      </trkpt>
      <trkpt lat="49.46143" lon="0.35944">
        <ele>5.2</ele>
        <time>2023-09-03T08:28:33Z</time>
      </trkpt>
      <trkpt lat="49.46151" lon="0.35941">
        <ele>5.2</ele>
        <time>2023-09-03T08:28:34Z</time>
      </trkpt>
      <trkpt lat="49.46158" lon="0.35938">
        <ele>5.2</ele>
        <time>2023-09-03T08:28:35Z</time>
      </trkpt>
      <trkpt lat="49.46165" lon="0.35935">
        <ele>5.2</ele>
        <time>2023-09-03T08:28:36Z</time>
      </trkpt>
      <trkpt lat="49.46172" lon="0.35932">
        <ele>5.2</ele>
        <time>2023-09-03T08:28:37Z</time>
      </trkpt>
      <trkpt lat="49.46179" lon="0.3593">
        <ele>5.2</ele>
        <time>2023-09-03T08:28:38Z</time>
      </trkpt>
      <trkpt lat="49.46187" lon="0.35927">
        <ele>5.2</ele>
        <time>2023-09-03T08:28:39Z</time>
      </trkpt>
      <trkpt lat="49.46194" lon="0.35923">
        <ele>5.2</ele>
        <time>2023-09-03T08:28:40Z</time>
      </trkpt>
      <trkpt lat="49.46202" lon="0.3592">
        <ele>5.2</ele>
        <time>2023-09-03T08:28:41Z</time>
      </trkpt>
      <trkpt lat="49.46209" lon="0.35917">
        <ele>5.2</ele>
        <time>2023-09-03T08:28:42Z</time>
      </trkpt>
      <trkpt lat="49.46217" lon="0.35914">
        <ele>5.2</ele>
        <time>2023-09-03T08:28:43Z</time>
      </trkpt>
      <trkpt lat="49.46224" lon="0.35911">
        <ele>5.2</ele>
        <time>2023-09-03T08:28:44Z</time>
      </trkpt>
      <trkpt lat="49.46232" lon="0.35908">
        <ele>5.2</ele>
        <time>2023-09-03T08:28:45Z</time>
      </trkpt>
      <trkpt lat="49.46239" lon="0.35905">
        <ele>5.2</ele>
        <time>2023-09-03T08:28:46Z</time>
      </trkpt>
      <trkpt lat="49.46247" lon="0.35902">
        <ele>5.2</ele>
        <time>2023-09-03T08:28:47Z</time>
      </trkpt>
      <trkpt lat="49.46254" lon="0.35899">
        <ele>5.2</ele>
        <time>2023-09-03T08:28:48Z</time>
      </trkpt>
      <trkpt lat="49.46262" lon="0.35896">
        <ele>5.2</ele>
        <time>2023-09-03T08:28:49Z</time>
      </trkpt>
      <trkpt lat="49.4627" lon="0.35892">
        <ele>5.2</ele>
        <time>2023-09-03T08:28:50Z</time>
      </trkpt>
      <trkpt lat="49.46277" lon="0.35889">
        <ele>5.2</ele>
        <time>2023-09-03T08:28:51Z</time>
      </trkpt>
      <trkpt lat="49.46285" lon="0.35885">
        <ele>5.2</ele>
        <time>2023-09-03T08:28:52Z</time>
      </trkpt>
      <trkpt lat="49.46292" lon="0.35882">
        <ele>5.2</ele>
        <time>2023-09-03T08:28:53Z</time>
      </trkpt>
      <trkpt lat="49.463" lon="0.35879">
        <ele>5.2</ele>
        <time>2023-09-03T08:28:54Z</time>
      </trkpt>
      <trkpt lat="49.46307" lon="0.35876">
        <ele>5.2</ele>
        <time>2023-09-03T08:28:55Z</time>
      </trkpt>
      <trkpt lat="49.46315" lon="0.35872">
        <ele>5.2</ele>
        <time>2023-09-03T08:28:56Z</time>
      </trkpt>
      <trkpt lat="49.46322" lon="0.35868">
        <ele>5.2</ele>
        <time>2023-09-03T08:28:57Z</time>
      </trkpt>
      <trkpt lat="49.4633" lon="0.35864">
        <ele>5.2</ele>
        <time>2023-09-03T08:28:58Z</time>
      </trkpt>
      <trkpt lat="49.46338" lon="0.3586">
        <ele>5.2</ele>
        <time>2023-09-03T08:28:59Z</time>
      </trkpt>
      <trkpt lat="49.46345" lon="0.35855">
        <ele>5.1</ele>
        <time>2023-09-03T08:29:00Z</time>
      </trkpt>
      <trkpt lat="49.46352" lon="0.3585">
        <ele>5.1</ele>
        <time>2023-09-03T08:29:01Z</time>
      </trkpt>
      <trkpt lat="49.46359" lon="0.35843">
        <ele>5.1</ele>
        <time>2023-09-03T08:29:02Z</time>
      </trkpt>
      <trkpt lat="49.46366" lon="0.35837">
        <ele>5.1</ele>
        <time>2023-09-03T08:29:03Z</time>
      </trkpt>
      <trkpt lat="49.46373" lon="0.35831">
        <ele>5.2</ele>
        <time>2023-09-03T08:29:04Z</time>
      </trkpt>
      <trkpt lat="49.4638" lon="0.35825">
        <ele>5.2</ele>
        <time>2023-09-03T08:29:05Z</time>
      </trkpt>
      <trkpt lat="49.46387" lon="0.35818">
        <ele>5.2</ele>
        <time>2023-09-03T08:29:06Z</time>
      </trkpt>
      <trkpt lat="49.46394" lon="0.35811">
        <ele>5.2</ele>
        <time>2023-09-03T08:29:07Z</time>
      </trkpt>
      <trkpt lat="49.46401" lon="0.35805">
        <ele>5.2</ele>
        <time>2023-09-03T08:29:08Z</time>
      </trkpt>
      <trkpt lat="49.46407" lon="0.35798">
        <ele>5.2</ele>
        <time>2023-09-03T08:29:09Z</time>
      </trkpt>
      <trkpt lat="49.46414" lon="0.35792">
        <ele>5.2</ele>
        <time>2023-09-03T08:29:10Z</time>
      </trkpt>
      <trkpt lat="49.46421" lon="0.35785">
        <ele>5.1</ele>
        <time>2023-09-03T08:29:11Z</time>
      </trkpt>
      <trkpt lat="49.46428" lon="0.35779">
        <ele>5.1</ele>
        <time>2023-09-03T08:29:12Z</time>
      </trkpt>
      <trkpt lat="49.46435" lon="0.35773">
        <ele>5.1</ele>
        <time>2023-09-03T08:29:13Z</time>
      </trkpt>
      <trkpt lat="49.46442" lon="0.35766">
        <ele>5.1</ele>
        <time>2023-09-03T08:29:14Z</time>
      </trkpt>
      <trkpt lat="49.46449" lon="0.3576">
        <ele>5.1</ele>
        <time>2023-09-03T08:29:15Z</time>
      </trkpt>
      <trkpt lat="49.46455" lon="0.35754">
        <ele>5.1</ele>
        <time>2023-09-03T08:29:16Z</time>
      </trkpt>
      <trkpt lat="49.46461" lon="0.35748">
        <ele>5.1</ele>
        <time>2023-09-03T08:29:17Z</time>
      </trkpt>
      <trkpt lat="49.46468" lon="0.35742">
        <ele>5.1</ele>
        <time>2023-09-03T08:29:18Z</time>
      </trkpt>
      <trkpt lat="49.46474" lon="0.35736">
        <ele>5.1</ele>
        <time>2023-09-03T08:29:19Z</time>
      </trkpt>
      <trkpt lat="49.4648" lon="0.3573">
        <ele>5.1</ele>
        <time>2023-09-03T08:29:20Z</time>
      </trkpt>
      <trkpt lat="49.46486" lon="0.35724">
        <ele>5.1</ele>
        <time>2023-09-03T08:29:21Z</time>
      </trkpt>
      <trkpt lat="49.46492" lon="0.35718">
        <ele>5.1</ele>
        <time>2023-09-03T08:29:22Z</time>
      </trkpt>
      <trkpt lat="49.46499" lon="0.35712">
        <ele>5.1</ele>
        <time>2023-09-03T08:29:23Z</time>
      </trkpt>
      <trkpt lat="49.46504" lon="0.35707">
        <ele>5.1</ele>
        <time>2023-09-03T08:29:24Z</time>
      </trkpt>
      <trkpt lat="49.4651" lon="0.35701">
        <ele>5.1</ele>
        <time>2023-09-03T08:29:25Z</time>
      </trkpt>
      <trkpt lat="49.46517" lon="0.35696">
        <ele>5.1</ele>
        <time>2023-09-03T08:29:26Z</time>
      </trkpt>
      <trkpt lat="49.46523" lon="0.3569">
        <ele>5.1</ele>
        <time>2023-09-03T08:29:27Z</time>
      </trkpt>
      <trkpt lat="49.46529" lon="0.35684">
        <ele>5.1</ele>
        <time>2023-09-03T08:29:28Z</time>
      </trkpt>
      <trkpt lat="49.46536" lon="0.35678">
        <ele>5.1</ele>
        <time>2023-09-03T08:29:29Z</time>
      </trkpt>
      <trkpt lat="49.46542" lon="0.35671">
        <ele>5.1</ele>
        <time>2023-09-03T08:29:30Z</time>
      </trkpt>
      <trkpt lat="49.46549" lon="0.35664">
        <ele>5.1</ele>
        <time>2023-09-03T08:29:31Z</time>
      </trkpt>
      <trkpt lat="49.46556" lon="0.35657">
        <ele>5.1</ele>
        <time>2023-09-03T08:29:32Z</time>
      </trkpt>
      <trkpt lat="49.46563" lon="0.3565">
        <ele>5.1</ele>
        <time>2023-09-03T08:29:33Z</time>
      </trkpt>
      <trkpt lat="49.4657" lon="0.35643">
        <ele>5.1</ele>
        <time>2023-09-03T08:29:34Z</time>
      </trkpt>
      <trkpt lat="49.46577" lon="0.35637">
        <ele>5.1</ele>
        <time>2023-09-03T08:29:35Z</time>
      </trkpt>
      <trkpt lat="49.46584" lon="0.3563">
        <ele>5</ele>
        <time>2023-09-03T08:29:36Z</time>
      </trkpt>
      <trkpt lat="49.4659" lon="0.35624">
        <ele>5</ele>
        <time>2023-09-03T08:29:37Z</time>
      </trkpt>
      <trkpt lat="49.46597" lon="0.35617">
        <ele>5</ele>
        <time>2023-09-03T08:29:38Z</time>
      </trkpt>
      <trkpt lat="49.46604" lon="0.35611">
        <ele>4.9</ele>
        <time>2023-09-03T08:29:39Z</time>
      </trkpt>
      <trkpt lat="49.4661" lon="0.35604">
        <ele>4.9</ele>
        <time>2023-09-03T08:29:40Z</time>
      </trkpt>
      <trkpt lat="49.46617" lon="0.35598">
        <ele>4.9</ele>
        <time>2023-09-03T08:29:41Z</time>
      </trkpt>
      <trkpt lat="49.46623" lon="0.35591">
        <ele>4.9</ele>
        <time>2023-09-03T08:29:42Z</time>
      </trkpt>
      <trkpt lat="49.4663" lon="0.35585">
        <ele>4.9</ele>
        <time>2023-09-03T08:29:43Z</time>
      </trkpt>
      <trkpt lat="49.46637" lon="0.35579">
        <ele>4.9</ele>
        <time>2023-09-03T08:29:44Z</time>
      </trkpt>
      <trkpt lat="49.46644" lon="0.35573">
        <ele>4.9</ele>
        <time>2023-09-03T08:29:45Z</time>
      </trkpt>
      <trkpt lat="49.46651" lon="0.35567">
        <ele>4.9</ele>
        <time>2023-09-03T08:29:46Z</time>
      </trkpt>
      <trkpt lat="49.46658" lon="0.35562">
        <ele>4.9</ele>
        <time>2023-09-03T08:29:47Z</time>
      </trkpt>
      <trkpt lat="49.46665" lon="0.35556">
        <ele>4.8</ele>
        <time>2023-09-03T08:29:48Z</time>
      </trkpt>
      <trkpt lat="49.46672" lon="0.35551">
        <ele>4.8</ele>
        <time>2023-09-03T08:29:49Z</time>
      </trkpt>
      <trkpt lat="49.4668" lon="0.35547">
        <ele>4.8</ele>
        <time>2023-09-03T08:29:50Z</time>
      </trkpt>
      <trkpt lat="49.46687" lon="0.35543">
        <ele>4.8</ele>
        <time>2023-09-03T08:29:51Z</time>
      </trkpt>
      <trkpt lat="49.46694" lon="0.3554">
        <ele>4.8</ele>
        <time>2023-09-03T08:29:52Z</time>
      </trkpt>
      <trkpt lat="49.46702" lon="0.35537">
        <ele>4.8</ele>
        <time>2023-09-03T08:29:53Z</time>
      </trkpt>
      <trkpt lat="49.46709" lon="0.35534">
        <ele>4.8</ele>
        <time>2023-09-03T08:29:54Z</time>
      </trkpt>
      <trkpt lat="49.46717" lon="0.35531">
        <ele>4.8</ele>
        <time>2023-09-03T08:29:55Z</time>
      </trkpt>
      <trkpt lat="49.46724" lon="0.35529">
        <ele>4.9</ele>
        <time>2023-09-03T08:29:56Z</time>
      </trkpt>
      <trkpt lat="49.46731" lon="0.35526">
        <ele>4.9</ele>
        <time>2023-09-03T08:29:57Z</time>
      </trkpt>
      <trkpt lat="49.46739" lon="0.35523">
        <ele>5</ele>
        <time>2023-09-03T08:29:58Z</time>
      </trkpt>
      <trkpt lat="49.46747" lon="0.3552">
        <ele>4.9</ele>
        <time>2023-09-03T08:29:59Z</time>
      </trkpt>
      <trkpt lat="49.46755" lon="0.35516">
        <ele>4.9</ele>
        <time>2023-09-03T08:30:00Z</time>
      </trkpt>
      <trkpt lat="49.46763" lon="0.35513">
        <ele>4.9</ele>
        <time>2023-09-03T08:30:01Z</time>
      </trkpt>
      <trkpt lat="49.4677" lon="0.3551">
        <ele>4.9</ele>
        <time>2023-09-03T08:30:02Z</time>
      </trkpt>
      <trkpt lat="49.46777" lon="0.35507">
        <ele>4.9</ele>
        <time>2023-09-03T08:30:03Z</time>
      </trkpt>
      <trkpt lat="49.46785" lon="0.35504">
        <ele>4.9</ele>
        <time>2023-09-03T08:30:04Z</time>
      </trkpt>
      <trkpt lat="49.46792" lon="0.35501">
        <ele>4.9</ele>
        <time>2023-09-03T08:30:05Z</time>
      </trkpt>
      <trkpt lat="49.468" lon="0.35498">
        <ele>4.9</ele>
        <time>2023-09-03T08:30:06Z</time>
      </trkpt>
      <trkpt lat="49.46807" lon="0.35494">
        <ele>4.9</ele>
        <time>2023-09-03T08:30:07Z</time>
      </trkpt>
      <trkpt lat="49.46815" lon="0.35491">
        <ele>5</ele>
        <time>2023-09-03T08:30:08Z</time>
      </trkpt>
      <trkpt lat="49.46822" lon="0.35487">
        <ele>5</ele>
        <time>2023-09-03T08:30:09Z</time>
      </trkpt>
      <trkpt lat="49.4683" lon="0.35483">
        <ele>5</ele>
        <time>2023-09-03T08:30:10Z</time>
      </trkpt>
      <trkpt lat="49.46837" lon="0.35479">
        <ele>5</ele>
        <time>2023-09-03T08:30:11Z</time>
      </trkpt>
      <trkpt lat="49.46845" lon="0.35475">
        <ele>5</ele>
        <time>2023-09-03T08:30:12Z</time>
      </trkpt>
      <trkpt lat="49.46852" lon="0.35471">
        <ele>5</ele>
        <time>2023-09-03T08:30:13Z</time>
      </trkpt>
      <trkpt lat="49.4686" lon="0.35467">
        <ele>5</ele>
        <time>2023-09-03T08:30:14Z</time>
      </trkpt>
      <trkpt lat="49.46867" lon="0.35462">
        <ele>5.1</ele>
        <time>2023-09-03T08:30:15Z</time>
      </trkpt>
      <trkpt lat="49.46874" lon="0.35457">
        <ele>5.1</ele>
        <time>2023-09-03T08:30:16Z</time>
      </trkpt>
      <trkpt lat="49.46881" lon="0.35451">
        <ele>5.1</ele>
        <time>2023-09-03T08:30:17Z</time>
      </trkpt>
      <trkpt lat="49.46888" lon="0.35445">
        <ele>5.1</ele>
        <time>2023-09-03T08:30:18Z</time>
      </trkpt>
      <trkpt lat="49.46894" lon="0.35438">
        <ele>5.1</ele>
        <time>2023-09-03T08:30:19Z</time>
      </trkpt>
      <trkpt lat="49.46901" lon="0.35431">
        <ele>5.1</ele>
        <time>2023-09-03T08:30:20Z</time>
      </trkpt>
      <trkpt lat="49.46908" lon="0.35424">
        <ele>5</ele>
        <time>2023-09-03T08:30:21Z</time>
      </trkpt>
      <trkpt lat="49.46914" lon="0.35417">
        <ele>5</ele>
        <time>2023-09-03T08:30:22Z</time>
      </trkpt>
      <trkpt lat="49.46921" lon="0.3541">
        <ele>5</ele>
        <time>2023-09-03T08:30:23Z</time>
      </trkpt>
      <trkpt lat="49.46927" lon="0.35402">
        <ele>5</ele>
        <time>2023-09-03T08:30:24Z</time>
      </trkpt>
      <trkpt lat="49.46934" lon="0.35395">
        <ele>5</ele>
        <time>2023-09-03T08:30:25Z</time>
      </trkpt>
      <trkpt lat="49.4694" lon="0.35387">
        <ele>5.1</ele>
        <time>2023-09-03T08:30:26Z</time>
      </trkpt>
      <trkpt lat="49.46946" lon="0.35379">
        <ele>5</ele>
        <time>2023-09-03T08:30:27Z</time>
      </trkpt>
      <trkpt lat="49.46952" lon="0.3537">
        <ele>5</ele>
        <time>2023-09-03T08:30:28Z</time>
      </trkpt>
      <trkpt lat="49.46958" lon="0.35362">
        <ele>5</ele>
        <time>2023-09-03T08:30:29Z</time>
      </trkpt>
      <trkpt lat="49.46964" lon="0.35353">
        <ele>5</ele>
        <time>2023-09-03T08:30:30Z</time>
      </trkpt>
      <trkpt lat="49.4697" lon="0.35345">
        <ele>4.9</ele>
        <time>2023-09-03T08:30:31Z</time>
      </trkpt>
      <trkpt lat="49.46976" lon="0.35336">
        <ele>4.9</ele>
        <time>2023-09-03T08:30:32Z</time>
      </trkpt>
      <trkpt lat="49.46982" lon="0.35328">
        <ele>4.8</ele>
        <time>2023-09-03T08:30:33Z</time>
      </trkpt>
      <trkpt lat="49.46988" lon="0.35319">
        <ele>4.8</ele>
        <time>2023-09-03T08:30:34Z</time>
      </trkpt>
      <trkpt lat="49.46994" lon="0.35311">
        <ele>4.8</ele>
        <time>2023-09-03T08:30:35Z</time>
      </trkpt>
      <trkpt lat="49.47" lon="0.35303">
        <ele>4.8</ele>
        <time>2023-09-03T08:30:36Z</time>
      </trkpt>
      <trkpt lat="49.47006" lon="0.35295">
        <ele>4.8</ele>
        <time>2023-09-03T08:30:37Z</time>
      </trkpt>
      <trkpt lat="49.47012" lon="0.35287">
        <ele>4.8</ele>
        <time>2023-09-03T08:30:38Z</time>
      </trkpt>
      <trkpt lat="49.47018" lon="0.35279">
        <ele>4.8</ele>
        <time>2023-09-03T08:30:39Z</time>
      </trkpt>
      <trkpt lat="49.47023" lon="0.35272">
        <ele>4.8</ele>
        <time>2023-09-03T08:30:40Z</time>
      </trkpt>
      <trkpt lat="49.47029" lon="0.35264">
        <ele>4.8</ele>
        <time>2023-09-03T08:30:41Z</time>
      </trkpt>
      <trkpt lat="49.47035" lon="0.35255">
        <ele>4.8</ele>
        <time>2023-09-03T08:30:42Z</time>
      </trkpt>
      <trkpt lat="49.47041" lon="0.35247">
        <ele>4.8</ele>
        <time>2023-09-03T08:30:43Z</time>
      </trkpt>
      <trkpt lat="49.47046" lon="0.35239">
        <ele>4.8</ele>
        <time>2023-09-03T08:30:44Z</time>
      </trkpt>
      <trkpt lat="49.47052" lon="0.35232">
        <ele>4.7</ele>
        <time>2023-09-03T08:30:45Z</time>
      </trkpt>
      <trkpt lat="49.47057" lon="0.35225">
        <ele>4.7</ele>
        <time>2023-09-03T08:30:46Z</time>
      </trkpt>
      <trkpt lat="49.47063" lon="0.35217">
        <ele>4.7</ele>
        <time>2023-09-03T08:30:47Z</time>
      </trkpt>
      <trkpt lat="49.47068" lon="0.3521">
        <ele>4.7</ele>
        <time>2023-09-03T08:30:48Z</time>
      </trkpt>
      <trkpt lat="49.47073" lon="0.35203">
        <ele>4.7</ele>
        <time>2023-09-03T08:30:49Z</time>
      </trkpt>
      <trkpt lat="49.47079" lon="0.35196">
        <ele>4.7</ele>
        <time>2023-09-03T08:30:50Z</time>
      </trkpt>
      <trkpt lat="49.47084" lon="0.35189">
        <ele>4.7</ele>
        <time>2023-09-03T08:30:51Z</time>
      </trkpt>
      <trkpt lat="49.47089" lon="0.35183">
        <ele>4.7</ele>
        <time>2023-09-03T08:30:52Z</time>
      </trkpt>
      <trkpt lat="49.47095" lon="0.35176">
        <ele>4.7</ele>
        <time>2023-09-03T08:30:53Z</time>
      </trkpt>
      <trkpt lat="49.471" lon="0.35169">
        <ele>4.8</ele>
        <time>2023-09-03T08:30:54Z</time>
      </trkpt>
      <trkpt lat="49.47105" lon="0.35163">
        <ele>4.8</ele>
        <time>2023-09-03T08:30:55Z</time>
      </trkpt>
      <trkpt lat="49.4711" lon="0.35157">
        <ele>4.8</ele>
        <time>2023-09-03T08:30:56Z</time>
      </trkpt>
      <trkpt lat="49.47115" lon="0.35151">
        <ele>4.9</ele>
        <time>2023-09-03T08:30:57Z</time>
      </trkpt>
      <trkpt lat="49.4712" lon="0.35145">
        <ele>5</ele>
        <time>2023-09-03T08:30:58Z</time>
      </trkpt>
      <trkpt lat="49.47125" lon="0.3514">
        <ele>5</ele>
        <time>2023-09-03T08:30:59Z</time>
      </trkpt>
      <trkpt lat="49.4713" lon="0.35135">
        <ele>5.1</ele>
        <time>2023-09-03T08:31:00Z</time>
      </trkpt>
      <trkpt lat="49.47136" lon="0.3513">
        <ele>5.2</ele>
        <time>2023-09-03T08:31:01Z</time>
      </trkpt>
      <trkpt lat="49.47142" lon="0.35125">
        <ele>5.2</ele>
        <time>2023-09-03T08:31:02Z</time>
      </trkpt>
      <trkpt lat="49.47148" lon="0.35123">
        <ele>5.3</ele>
        <time>2023-09-03T08:31:03Z</time>
      </trkpt>
      <trkpt lat="49.47155" lon="0.35123">
        <ele>5.1</ele>
        <time>2023-09-03T08:31:04Z</time>
      </trkpt>
      <trkpt lat="49.47162" lon="0.35125">
        <ele>5.1</ele>
        <time>2023-09-03T08:31:05Z</time>
      </trkpt>
      <trkpt lat="49.47169" lon="0.35129">
        <ele>5</ele>
        <time>2023-09-03T08:31:06Z</time>
      </trkpt>
      <trkpt lat="49.47175" lon="0.35135">
        <ele>5</ele>
        <time>2023-09-03T08:31:07Z</time>
      </trkpt>
      <trkpt lat="49.47181" lon="0.35142">
        <ele>4.9</ele>
        <time>2023-09-03T08:31:08Z</time>
      </trkpt>
      <trkpt lat="49.47186" lon="0.3515">
        <ele>4.9</ele>
        <time>2023-09-03T08:31:09Z</time>
      </trkpt>
      <trkpt lat="49.47192" lon="0.35158">
        <ele>4.9</ele>
        <time>2023-09-03T08:31:10Z</time>
      </trkpt>
      <trkpt lat="49.47198" lon="0.35166">
        <ele>4.9</ele>
        <time>2023-09-03T08:31:11Z</time>
      </trkpt>
      <trkpt lat="49.47204" lon="0.35174">
        <ele>4.9</ele>
        <time>2023-09-03T08:31:12Z</time>
      </trkpt>
      <trkpt lat="49.47209" lon="0.35182">
        <ele>4.8</ele>
        <time>2023-09-03T08:31:13Z</time>
      </trkpt>
      <trkpt lat="49.47215" lon="0.3519">
        <ele>4.8</ele>
        <time>2023-09-03T08:31:14Z</time>
      </trkpt>
      <trkpt lat="49.47221" lon="0.35197">
        <ele>4.8</ele>
        <time>2023-09-03T08:31:15Z</time>
      </trkpt>
      <trkpt lat="49.47227" lon="0.35204">
        <ele>4.8</ele>
        <time>2023-09-03T08:31:16Z</time>
      </trkpt>
      <trkpt lat="49.47233" lon="0.35211">
        <ele>4.7</ele>
        <time>2023-09-03T08:31:17Z</time>
      </trkpt>
      <trkpt lat="49.4724" lon="0.35218">
        <ele>4.7</ele>
        <time>2023-09-03T08:31:18Z</time>
      </trkpt>
      <trkpt lat="49.47246" lon="0.35225">
        <ele>4.7</ele>
        <time>2023-09-03T08:31:19Z</time>
      </trkpt>
      <trkpt lat="49.47253" lon="0.35232">
        <ele>4.7</ele>
        <time>2023-09-03T08:31:20Z</time>
      </trkpt>
      <trkpt lat="49.47259" lon="0.35238">
        <ele>4.7</ele>
        <time>2023-09-03T08:31:21Z</time>
      </trkpt>
      <trkpt lat="49.47266" lon="0.35244">
        <ele>4.7</ele>
        <time>2023-09-03T08:31:22Z</time>
      </trkpt>
      <trkpt lat="49.47273" lon="0.35251">
        <ele>4.7</ele>
        <time>2023-09-03T08:31:23Z</time>
      </trkpt>
      <trkpt lat="49.47279" lon="0.35256">
        <ele>4.7</ele>
        <time>2023-09-03T08:31:24Z</time>
      </trkpt>
      <trkpt lat="49.47286" lon="0.35262">
        <ele>4.7</ele>
        <time>2023-09-03T08:31:25Z</time>
      </trkpt>
      <trkpt lat="49.47293" lon="0.35268">
        <ele>4.7</ele>
        <time>2023-09-03T08:31:26Z</time>
      </trkpt>
      <trkpt lat="49.47301" lon="0.35273">
        <ele>4.6</ele>
        <time>2023-09-03T08:31:27Z</time>
      </trkpt>
      <trkpt lat="49.47308" lon="0.35279">
        <ele>4.6</ele>
        <time>2023-09-03T08:31:28Z</time>
      </trkpt>
      <trkpt lat="49.47315" lon="0.35284">
        <ele>4.6</ele>
        <time>2023-09-03T08:31:29Z</time>
      </trkpt>
      <trkpt lat="49.47322" lon="0.35289">
        <ele>4.6</ele>
        <time>2023-09-03T08:31:30Z</time>
      </trkpt>
      <trkpt lat="49.47329" lon="0.35294">
        <ele>4.6</ele>
        <time>2023-09-03T08:31:31Z</time>
      </trkpt>
      <trkpt lat="49.47336" lon="0.35299">
        <ele>4.6</ele>
        <time>2023-09-03T08:31:32Z</time>
      </trkpt>
      <trkpt lat="49.47343" lon="0.35304">
        <ele>4.6</ele>
        <time>2023-09-03T08:31:33Z</time>
      </trkpt>
      <trkpt lat="49.47351" lon="0.35309">
        <ele>4.6</ele>
        <time>2023-09-03T08:31:34Z</time>
      </trkpt>
      <trkpt lat="49.47358" lon="0.35314">
        <ele>4.6</ele>
        <time>2023-09-03T08:31:35Z</time>
      </trkpt>
      <trkpt lat="49.47365" lon="0.35318">
        <ele>4.6</ele>
        <time>2023-09-03T08:31:36Z</time>
      </trkpt>
      <trkpt lat="49.47373" lon="0.35323">
        <ele>4.6</ele>
        <time>2023-09-03T08:31:37Z</time>
      </trkpt>
      <trkpt lat="49.4738" lon="0.35327">
        <ele>4.6</ele>
        <time>2023-09-03T08:31:38Z</time>
      </trkpt>
      <trkpt lat="49.47387" lon="0.35331">
        <ele>4.6</ele>
        <time>2023-09-03T08:31:39Z</time>
      </trkpt>
      <trkpt lat="49.47394" lon="0.35335">
        <ele>4.6</ele>
        <time>2023-09-03T08:31:40Z</time>
      </trkpt>
      <trkpt lat="49.47401" lon="0.35339">
        <ele>4.6</ele>
        <time>2023-09-03T08:31:41Z</time>
      </trkpt>
      <trkpt lat="49.47408" lon="0.35343">
        <ele>4.7</ele>
        <time>2023-09-03T08:31:42Z</time>
      </trkpt>
      <trkpt lat="49.47415" lon="0.35347">
        <ele>4.7</ele>
        <time>2023-09-03T08:31:43Z</time>
      </trkpt>
      <trkpt lat="49.47423" lon="0.35351">
        <ele>4.8</ele>
        <time>2023-09-03T08:31:44Z</time>
      </trkpt>
      <trkpt lat="49.4743" lon="0.35354">
        <ele>4.9</ele>
        <time>2023-09-03T08:31:45Z</time>
      </trkpt>
      <trkpt lat="49.47437" lon="0.35358">
        <ele>5</ele>
        <time>2023-09-03T08:31:46Z</time>
      </trkpt>
      <trkpt lat="49.47445" lon="0.35361">
        <ele>5.1</ele>
        <time>2023-09-03T08:31:47Z</time>
      </trkpt>
      <trkpt lat="49.47451" lon="0.35364">
        <ele>5.2</ele>
        <time>2023-09-03T08:31:48Z</time>
      </trkpt>
      <trkpt lat="49.47458" lon="0.35367">
        <ele>5.3</ele>
        <time>2023-09-03T08:31:49Z</time>
      </trkpt>
      <trkpt lat="49.47465" lon="0.35369">
        <ele>5.5</ele>
        <time>2023-09-03T08:31:50Z</time>
      </trkpt>
      <trkpt lat="49.47472" lon="0.35372">
        <ele>5.6</ele>
        <time>2023-09-03T08:31:51Z</time>
      </trkpt>
      <trkpt lat="49.47479" lon="0.35375">
        <ele>5.7</ele>
        <time>2023-09-03T08:31:52Z</time>
      </trkpt>
      <trkpt lat="49.47485" lon="0.35377">
        <ele>5.9</ele>
        <time>2023-09-03T08:31:53Z</time>
      </trkpt>
      <trkpt lat="49.47492" lon="0.35379">
        <ele>6.1</ele>
        <time>2023-09-03T08:31:54Z</time>
      </trkpt>
      <trkpt lat="49.475" lon="0.35381">
        <ele>6.4</ele>
        <time>2023-09-03T08:31:55Z</time>
      </trkpt>
      <trkpt lat="49.47506" lon="0.35383">
        <ele>6.5</ele>
        <time>2023-09-03T08:31:56Z</time>
      </trkpt>
      <trkpt lat="49.47513" lon="0.35385">
        <ele>6.6</ele>
        <time>2023-09-03T08:31:57Z</time>
      </trkpt>
      <trkpt lat="49.4752" lon="0.35387">
        <ele>6.8</ele>
        <time>2023-09-03T08:31:58Z</time>
      </trkpt>
      <trkpt lat="49.47527" lon="0.35388">
        <ele>7</ele>
        <time>2023-09-03T08:31:59Z</time>
      </trkpt>
      <trkpt lat="49.47534" lon="0.3539">
        <ele>7.2</ele>
        <time>2023-09-03T08:32:00Z</time>
      </trkpt>
      <trkpt lat="49.47541" lon="0.35391">
        <ele>7.4</ele>
        <time>2023-09-03T08:32:01Z</time>
      </trkpt>
      <trkpt lat="49.47548" lon="0.35393">
        <ele>7.6</ele>
        <time>2023-09-03T08:32:02Z</time>
      </trkpt>
      <trkpt lat="49.47554" lon="0.35394">
        <ele>7.8</ele>
        <time>2023-09-03T08:32:03Z</time>
      </trkpt>
      <trkpt lat="49.47562" lon="0.35395">
        <ele>8</ele>
        <time>2023-09-03T08:32:04Z</time>
      </trkpt>
      <trkpt lat="49.47569" lon="0.35395">
        <ele>8.2</ele>
        <time>2023-09-03T08:32:05Z</time>
      </trkpt>
      <trkpt lat="49.47576" lon="0.35397">
        <ele>8.4</ele>
        <time>2023-09-03T08:32:06Z</time>
      </trkpt>
      <trkpt lat="49.47583" lon="0.35398">
        <ele>8.7</ele>
        <time>2023-09-03T08:32:07Z</time>
      </trkpt>
      <trkpt lat="49.47591" lon="0.35399">
        <ele>8.9</ele>
        <time>2023-09-03T08:32:08Z</time>
      </trkpt>
      <trkpt lat="49.47598" lon="0.354">
        <ele>9.2</ele>
        <time>2023-09-03T08:32:09Z</time>
      </trkpt>
      <trkpt lat="49.47605" lon="0.354">
        <ele>9.5</ele>
        <time>2023-09-03T08:32:10Z</time>
      </trkpt>
      <trkpt lat="49.47611" lon="0.354">
        <ele>9.8</ele>
        <time>2023-09-03T08:32:11Z</time>
      </trkpt>
      <trkpt lat="49.47618" lon="0.35401">
        <ele>10</ele>
        <time>2023-09-03T08:32:12Z</time>
      </trkpt>
      <trkpt lat="49.47625" lon="0.35402">
        <ele>10.2</ele>
        <time>2023-09-03T08:32:13Z</time>
      </trkpt>
      <trkpt lat="49.47632" lon="0.35402">
        <ele>10.4</ele>
        <time>2023-09-03T08:32:14Z</time>
      </trkpt>
      <trkpt lat="49.47638" lon="0.35403">
        <ele>10.6</ele>
        <time>2023-09-03T08:32:15Z</time>
      </trkpt>
      <trkpt lat="49.47645" lon="0.35403">
        <ele>10.8</ele>
        <time>2023-09-03T08:32:16Z</time>
      </trkpt>
      <trkpt lat="49.47652" lon="0.35404">
        <ele>11</ele>
        <time>2023-09-03T08:32:17Z</time>
      </trkpt>
      <trkpt lat="49.47658" lon="0.35404">
        <ele>11.2</ele>
        <time>2023-09-03T08:32:18Z</time>
      </trkpt>
      <trkpt lat="49.47665" lon="0.35404">
        <ele>11.4</ele>
        <time>2023-09-03T08:32:19Z</time>
      </trkpt>
      <trkpt lat="49.47672" lon="0.35404">
        <ele>11.5</ele>
        <time>2023-09-03T08:32:20Z</time>
      </trkpt>
      <trkpt lat="49.47679" lon="0.35405">
        <ele>11.6</ele>
        <time>2023-09-03T08:32:21Z</time>
      </trkpt>
      <trkpt lat="49.47685" lon="0.35405">
        <ele>11.8</ele>
        <time>2023-09-03T08:32:22Z</time>
      </trkpt>
      <trkpt lat="49.47692" lon="0.35405">
        <ele>11.9</ele>
        <time>2023-09-03T08:32:23Z</time>
      </trkpt>
      <trkpt lat="49.47699" lon="0.35406">
        <ele>12.1</ele>
        <time>2023-09-03T08:32:24Z</time>
      </trkpt>
      <trkpt lat="49.47706" lon="0.35406">
        <ele>12.2</ele>
        <time>2023-09-03T08:32:25Z</time>
      </trkpt>
      <trkpt lat="49.47714" lon="0.35407">
        <ele>12.3</ele>
        <time>2023-09-03T08:32:26Z</time>
      </trkpt>
      <trkpt lat="49.47721" lon="0.35408">
        <ele>12.4</ele>
        <time>2023-09-03T08:32:27Z</time>
      </trkpt>
      <trkpt lat="49.47728" lon="0.35408">
        <ele>12.5</ele>
        <time>2023-09-03T08:32:28Z</time>
      </trkpt>
      <trkpt lat="49.47736" lon="0.35409">
        <ele>12.6</ele>
        <time>2023-09-03T08:32:29Z</time>
      </trkpt>
      <trkpt lat="49.47743" lon="0.35409">
        <ele>12.7</ele>
        <time>2023-09-03T08:32:30Z</time>
      </trkpt>
      <trkpt lat="49.47751" lon="0.35409">
        <ele>12.8</ele>
        <time>2023-09-03T08:32:31Z</time>
      </trkpt>
      <trkpt lat="49.47758" lon="0.3541">
        <ele>12.9</ele>
        <time>2023-09-03T08:32:32Z</time>
      </trkpt>
      <trkpt lat="49.47765" lon="0.35411">
        <ele>13</ele>
        <time>2023-09-03T08:32:33Z</time>
      </trkpt>
      <trkpt lat="49.47772" lon="0.35411">
        <ele>13</ele>
        <time>2023-09-03T08:32:34Z</time>
      </trkpt>
      <trkpt lat="49.47779" lon="0.35412">
        <ele>13.1</ele>
        <time>2023-09-03T08:32:35Z</time>
      </trkpt>
      <trkpt lat="49.47787" lon="0.35412">
        <ele>13.1</ele>
        <time>2023-09-03T08:32:36Z</time>
      </trkpt>
      <trkpt lat="49.47794" lon="0.35412">
        <ele>13.1</ele>
        <time>2023-09-03T08:32:37Z</time>
      </trkpt>
      <trkpt lat="49.47802" lon="0.35413">
        <ele>13.1</ele>
        <time>2023-09-03T08:32:38Z</time>
      </trkpt>
      <trkpt lat="49.47809" lon="0.35413">
        <ele>13.1</ele>
        <time>2023-09-03T08:32:39Z</time>
      </trkpt>
      <trkpt lat="49.47817" lon="0.35414">
        <ele>13</ele>
        <time>2023-09-03T08:32:40Z</time>
      </trkpt>
      <trkpt lat="49.47824" lon="0.35415">
        <ele>13</ele>
        <time>2023-09-03T08:32:41Z</time>
      </trkpt>
      <trkpt lat="49.47832" lon="0.35415">
        <ele>13</ele>
        <time>2023-09-03T08:32:42Z</time>
      </trkpt>
      <trkpt lat="49.47839" lon="0.35415">
        <ele>12.9</ele>
        <time>2023-09-03T08:32:43Z</time>
      </trkpt>
      <trkpt lat="49.47847" lon="0.35416">
        <ele>12.9</ele>
        <time>2023-09-03T08:32:44Z</time>
      </trkpt>
      <trkpt lat="49.47855" lon="0.35416">
        <ele>12.8</ele>
        <time>2023-09-03T08:32:45Z</time>
      </trkpt>
      <trkpt lat="49.47864" lon="0.35417">
        <ele>12.8</ele>
        <time>2023-09-03T08:32:46Z</time>
      </trkpt>
      <trkpt lat="49.47872" lon="0.35417">
        <ele>12.8</ele>
        <time>2023-09-03T08:32:47Z</time>
      </trkpt>
      <trkpt lat="49.4788" lon="0.35418">
        <ele>12.7</ele>
        <time>2023-09-03T08:32:48Z</time>
      </trkpt>
      <trkpt lat="49.47888" lon="0.35419">
        <ele>12.7</ele>
        <time>2023-09-03T08:32:49Z</time>
      </trkpt>
      <trkpt lat="49.47896" lon="0.3542">
        <ele>12.7</ele>
        <time>2023-09-03T08:32:50Z</time>
      </trkpt>
      <trkpt lat="49.47904" lon="0.35421">
        <ele>12.7</ele>
        <time>2023-09-03T08:32:51Z</time>
      </trkpt>
      <trkpt lat="49.47912" lon="0.35422">
        <ele>12.7</ele>
        <time>2023-09-03T08:32:52Z</time>
      </trkpt>
      <trkpt lat="49.47919" lon="0.35423">
        <ele>12.7</ele>
        <time>2023-09-03T08:32:53Z</time>
      </trkpt>
      <trkpt lat="49.47927" lon="0.35423">
        <ele>12.6</ele>
        <time>2023-09-03T08:32:54Z</time>
      </trkpt>
      <trkpt lat="49.47935" lon="0.35423">
        <ele>12.6</ele>
        <time>2023-09-03T08:32:55Z</time>
      </trkpt>
      <trkpt lat="49.47943" lon="0.35424">
        <ele>12.6</ele>
        <time>2023-09-03T08:32:56Z</time>
      </trkpt>
      <trkpt lat="49.47951" lon="0.35425">
        <ele>12.6</ele>
        <time>2023-09-03T08:32:57Z</time>
      </trkpt>
      <trkpt lat="49.47959" lon="0.35427">
        <ele>12.6</ele>
        <time>2023-09-03T08:32:58Z</time>
      </trkpt>
      <trkpt lat="49.47966" lon="0.35429">
        <ele>12.5</ele>
        <time>2023-09-03T08:32:59Z</time>
      </trkpt>
      <trkpt lat="49.47974" lon="0.35431">
        <ele>12.5</ele>
        <time>2023-09-03T08:33:00Z</time>
      </trkpt>
      <trkpt lat="49.47982" lon="0.35432">
        <ele>12.5</ele>
        <time>2023-09-03T08:33:01Z</time>
      </trkpt>
      <trkpt lat="49.4799" lon="0.35434">
        <ele>12.5</ele>
        <time>2023-09-03T08:33:02Z</time>
      </trkpt>
      <trkpt lat="49.47997" lon="0.35435">
        <ele>12.5</ele>
        <time>2023-09-03T08:33:03Z</time>
      </trkpt>
      <trkpt lat="49.48005" lon="0.35436">
        <ele>12.5</ele>
        <time>2023-09-03T08:33:04Z</time>
      </trkpt>
      <trkpt lat="49.48012" lon="0.35438">
        <ele>12.5</ele>
        <time>2023-09-03T08:33:05Z</time>
      </trkpt>
      <trkpt lat="49.4802" lon="0.35439">
        <ele>12.5</ele>
        <time>2023-09-03T08:33:06Z</time>
      </trkpt>
      <trkpt lat="49.48027" lon="0.35441">
        <ele>12.5</ele>
        <time>2023-09-03T08:33:07Z</time>
      </trkpt>
      <trkpt lat="49.48035" lon="0.35442">
        <ele>12.5</ele>
        <time>2023-09-03T08:33:08Z</time>
      </trkpt>
      <trkpt lat="49.48042" lon="0.35444">
        <ele>12.6</ele>
        <time>2023-09-03T08:33:09Z</time>
      </trkpt>
      <trkpt lat="49.4805" lon="0.35446">
        <ele>12.6</ele>
        <time>2023-09-03T08:33:10Z</time>
      </trkpt>
      <trkpt lat="49.48057" lon="0.35448">
        <ele>12.6</ele>
        <time>2023-09-03T08:33:11Z</time>
      </trkpt>
      <trkpt lat="49.48065" lon="0.3545">
        <ele>12.6</ele>
        <time>2023-09-03T08:33:12Z</time>
      </trkpt>
      <trkpt lat="49.48072" lon="0.35453">
        <ele>12.5</ele>
        <time>2023-09-03T08:33:13Z</time>
      </trkpt>
      <trkpt lat="49.4808" lon="0.35456">
        <ele>12.5</ele>
        <time>2023-09-03T08:33:14Z</time>
      </trkpt>
      <trkpt lat="49.48088" lon="0.35458">
        <ele>12.5</ele>
        <time>2023-09-03T08:33:15Z</time>
      </trkpt>
      <trkpt lat="49.48095" lon="0.35461">
        <ele>12.5</ele>
        <time>2023-09-03T08:33:16Z</time>
      </trkpt>
      <trkpt lat="49.48103" lon="0.35465">
        <ele>12.5</ele>
        <time>2023-09-03T08:33:17Z</time>
      </trkpt>
      <trkpt lat="49.48111" lon="0.35469">
        <ele>12.5</ele>
        <time>2023-09-03T08:33:18Z</time>
      </trkpt>
      <trkpt lat="49.48118" lon="0.35472">
        <ele>12.5</ele>
        <time>2023-09-03T08:33:19Z</time>
      </trkpt>
      <trkpt lat="49.48126" lon="0.35476">
        <ele>12.5</ele>
        <time>2023-09-03T08:33:20Z</time>
      </trkpt>
      <trkpt lat="49.48133" lon="0.3548">
        <ele>12.5</ele>
        <time>2023-09-03T08:33:21Z</time>
      </trkpt>
      <trkpt lat="49.48141" lon="0.35484">
        <ele>12.5</ele>
        <time>2023-09-03T08:33:22Z</time>
      </trkpt>
      <trkpt lat="49.48149" lon="0.35488">
        <ele>12.4</ele>
        <time>2023-09-03T08:33:23Z</time>
      </trkpt>
      <trkpt lat="49.48156" lon="0.35492">
        <ele>12.4</ele>
        <time>2023-09-03T08:33:24Z</time>
      </trkpt>
      <trkpt lat="49.48164" lon="0.35496">
        <ele>12.4</ele>
        <time>2023-09-03T08:33:25Z</time>
      </trkpt>
      <trkpt lat="49.48172" lon="0.35501">
        <ele>12.4</ele>
        <time>2023-09-03T08:33:26Z</time>
      </trkpt>
      <trkpt lat="49.48179" lon="0.35505">
        <ele>12.4</ele>
        <time>2023-09-03T08:33:27Z</time>
      </trkpt>
      <trkpt lat="49.48187" lon="0.35509">
        <ele>12.4</ele>
        <time>2023-09-03T08:33:28Z</time>
      </trkpt>
      <trkpt lat="49.48194" lon="0.35513">
        <ele>12.4</ele>
        <time>2023-09-03T08:33:29Z</time>
      </trkpt>
      <trkpt lat="49.48202" lon="0.35518">
        <ele>12.4</ele>
        <time>2023-09-03T08:33:30Z</time>
      </trkpt>
      <trkpt lat="49.48209" lon="0.35523">
        <ele>12.3</ele>
        <time>2023-09-03T08:33:31Z</time>
      </trkpt>
      <trkpt lat="49.48216" lon="0.35528">
        <ele>12.3</ele>
        <time>2023-09-03T08:33:32Z</time>
      </trkpt>
      <trkpt lat="49.48223" lon="0.35533">
        <ele>12.2</ele>
        <time>2023-09-03T08:33:33Z</time>
      </trkpt>
      <trkpt lat="49.4823" lon="0.35538">
        <ele>12.1</ele>
        <time>2023-09-03T08:33:34Z</time>
      </trkpt>
      <trkpt lat="49.48237" lon="0.35543">
        <ele>12.1</ele>
        <time>2023-09-03T08:33:35Z</time>
      </trkpt>
      <trkpt lat="49.48244" lon="0.35549">
        <ele>12</ele>
        <time>2023-09-03T08:33:36Z</time>
      </trkpt>
      <trkpt lat="49.48251" lon="0.35555">
        <ele>12</ele>
        <time>2023-09-03T08:33:37Z</time>
      </trkpt>
      <trkpt lat="49.48258" lon="0.35561">
        <ele>11.8</ele>
        <time>2023-09-03T08:33:38Z</time>
      </trkpt>
      <trkpt lat="49.48265" lon="0.35567">
        <ele>11.7</ele>
        <time>2023-09-03T08:33:39Z</time>
      </trkpt>
      <trkpt lat="49.48272" lon="0.35573">
        <ele>11.5</ele>
        <time>2023-09-03T08:33:40Z</time>
      </trkpt>
      <trkpt lat="49.48279" lon="0.3558">
        <ele>11.4</ele>
        <time>2023-09-03T08:33:41Z</time>
      </trkpt>
      <trkpt lat="49.48285" lon="0.35586">
        <ele>11.2</ele>
        <time>2023-09-03T08:33:42Z</time>
      </trkpt>
      <trkpt lat="49.48292" lon="0.35592">
        <ele>11.1</ele>
        <time>2023-09-03T08:33:43Z</time>
      </trkpt>
      <trkpt lat="49.48298" lon="0.35599">
        <ele>10.9</ele>
        <time>2023-09-03T08:33:44Z</time>
      </trkpt>
      <trkpt lat="49.48305" lon="0.35606">
        <ele>10.7</ele>
        <time>2023-09-03T08:33:45Z</time>
      </trkpt>
      <trkpt lat="49.48311" lon="0.35612">
        <ele>10.6</ele>
        <time>2023-09-03T08:33:46Z</time>
      </trkpt>
      <trkpt lat="49.48317" lon="0.35619">
        <ele>10.4</ele>
        <time>2023-09-03T08:33:47Z</time>
      </trkpt>
      <trkpt lat="49.48324" lon="0.35626">
        <ele>10.2</ele>
        <time>2023-09-03T08:33:48Z</time>
      </trkpt>
      <trkpt lat="49.4833" lon="0.35633">
        <ele>10</ele>
        <time>2023-09-03T08:33:49Z</time>
      </trkpt>
      <trkpt lat="49.48336" lon="0.3564">
        <ele>9.8</ele>
        <time>2023-09-03T08:33:50Z</time>
      </trkpt>
      <trkpt lat="49.48342" lon="0.35647">
        <ele>9.6</ele>
        <time>2023-09-03T08:33:51Z</time>
      </trkpt>
      <trkpt lat="49.48348" lon="0.35653">
        <ele>9.5</ele>
        <time>2023-09-03T08:33:52Z</time>
      </trkpt>
      <trkpt lat="49.48353" lon="0.3566">
        <ele>9.3</ele>
        <time>2023-09-03T08:33:53Z</time>
      </trkpt>
      <trkpt lat="49.48358" lon="0.35666">
        <ele>9.1</ele>
        <time>2023-09-03T08:33:54Z</time>
      </trkpt>
      <trkpt lat="49.48363" lon="0.35672">
        <ele>9</ele>
        <time>2023-09-03T08:33:55Z</time>
      </trkpt>
      <trkpt lat="49.48367" lon="0.35677">
        <ele>8.9</ele>
        <time>2023-09-03T08:33:56Z</time>
      </trkpt>
      <trkpt lat="49.48371" lon="0.35682">
        <ele>8.7</ele>
        <time>2023-09-03T08:33:57Z</time>
      </trkpt>
      <trkpt lat="49.48375" lon="0.35688">
        <ele>8.6</ele>
        <time>2023-09-03T08:33:58Z</time>
      </trkpt>
      <trkpt lat="49.48379" lon="0.35694">
        <ele>8.4</ele>
        <time>2023-09-03T08:33:59Z</time>
      </trkpt>
      <trkpt lat="49.48383" lon="0.35698">
        <ele>8.3</ele>
        <time>2023-09-03T08:34:00Z</time>
      </trkpt>
      <trkpt lat="49.48387" lon="0.35703">
        <ele>8.2</ele>
        <time>2023-09-03T08:34:01Z</time>
      </trkpt>
      <trkpt lat="49.48391" lon="0.35707">
        <ele>8</ele>
        <time>2023-09-03T08:34:02Z</time>
      </trkpt>
      <trkpt lat="49.48395" lon="0.35711">
        <ele>7.9</ele>
        <time>2023-09-03T08:34:03Z</time>
      </trkpt>
      <trkpt lat="49.48399" lon="0.35716">
        <ele>7.8</ele>
        <time>2023-09-03T08:34:04Z</time>
      </trkpt>
      <trkpt lat="49.48402" lon="0.35721">
        <ele>7.7</ele>
        <time>2023-09-03T08:34:05Z</time>
      </trkpt>
      <trkpt lat="49.48404" lon="0.35727">
        <ele>7.6</ele>
        <time>2023-09-03T08:34:06Z</time>
      </trkpt>
      <trkpt lat="49.48408" lon="0.35732">
        <ele>7.5</ele>
        <time>2023-09-03T08:34:07Z</time>
      </trkpt>
      <trkpt lat="49.48411" lon="0.35737">
        <ele>7.5</ele>
        <time>2023-09-03T08:34:08Z</time>
      </trkpt>
      <trkpt lat="49.48414" lon="0.35742">
        <ele>7.5</ele>
        <time>2023-09-03T08:34:09Z</time>
      </trkpt>
      <trkpt lat="49.48416" lon="0.35748">
        <ele>7.6</ele>
        <time>2023-09-03T08:34:10Z</time>
      </trkpt>
      <trkpt lat="49.48419" lon="0.35753">
        <ele>7.6</ele>
        <time>2023-09-03T08:34:11Z</time>
      </trkpt>
      <trkpt lat="49.48421" lon="0.35758">
        <ele>7.6</ele>
        <time>2023-09-03T08:34:12Z</time>
      </trkpt>
      <trkpt lat="49.48423" lon="0.35763">
        <ele>7.6</ele>
        <time>2023-09-03T08:34:13Z</time>
      </trkpt>
      <trkpt lat="49.48424" lon="0.35766">
        <ele>7.6</ele>
        <time>2023-09-03T08:34:14Z</time>
      </trkpt>
      <trkpt lat="49.48427" lon="0.35767">
        <ele>7.5</ele>
        <time>2023-09-03T08:34:15Z</time>
      </trkpt>
      <trkpt lat="49.48428" lon="0.35766">
        <ele>7.4</ele>
        <time>2023-09-03T08:34:16Z</time>
      </trkpt>
      <trkpt lat="49.48429" lon="0.3576">
        <ele>7.3</ele>
        <time>2023-09-03T08:34:17Z</time>
      </trkpt>
      <trkpt lat="49.48429" lon="0.35758">
        <ele>7.3</ele>
        <time>2023-09-03T08:34:18Z</time>
      </trkpt>
      <trkpt lat="49.48431" lon="0.35752">
        <ele>7.2</ele>
        <time>2023-09-03T08:34:19Z</time>
      </trkpt>
      <trkpt lat="49.48432" lon="0.3575">
        <ele>7.2</ele>
        <time>2023-09-03T08:34:20Z</time>
      </trkpt>
      <trkpt lat="49.48433" lon="0.35746">
        <ele>7.1</ele>
        <time>2023-09-03T08:34:21Z</time>
      </trkpt>
      <trkpt lat="49.48435" lon="0.35741">
        <ele>7.1</ele>
        <time>2023-09-03T08:34:22Z</time>
      </trkpt>
      <trkpt lat="49.48436" lon="0.35736">
        <ele>7</ele>
        <time>2023-09-03T08:34:23Z</time>
      </trkpt>
      <trkpt lat="49.48439" lon="0.35732">
        <ele>6.9</ele>
        <time>2023-09-03T08:34:24Z</time>
      </trkpt>
      <trkpt lat="49.48443" lon="0.35729">
        <ele>6.8</ele>
        <time>2023-09-03T08:34:25Z</time>
      </trkpt>
      <trkpt lat="49.48449" lon="0.35727">
        <ele>6.7</ele>
        <time>2023-09-03T08:34:26Z</time>
      </trkpt>
      <trkpt lat="49.48454" lon="0.35727">
        <ele>6.6</ele>
        <time>2023-09-03T08:34:27Z</time>
      </trkpt>
      <trkpt lat="49.48459" lon="0.3573">
        <ele>6.6</ele>
        <time>2023-09-03T08:34:28Z</time>
      </trkpt>
      <trkpt lat="49.48462" lon="0.35735">
        <ele>6.6</ele>
        <time>2023-09-03T08:34:29Z</time>
      </trkpt>
      <trkpt lat="49.48464" lon="0.35741">
        <ele>6.6</ele>
        <time>2023-09-03T08:34:30Z</time>
      </trkpt>
      <trkpt lat="49.48467" lon="0.35746">
        <ele>6.6</ele>
        <time>2023-09-03T08:34:31Z</time>
      </trkpt>
      <trkpt lat="49.4847" lon="0.35752">
        <ele>6.5</ele>
        <time>2023-09-03T08:34:32Z</time>
      </trkpt>
      <trkpt lat="49.48473" lon="0.35758">
        <ele>6.5</ele>
        <time>2023-09-03T08:34:33Z</time>
      </trkpt>
      <trkpt lat="49.48476" lon="0.35763">
        <ele>6.5</ele>
        <time>2023-09-03T08:34:34Z</time>
      </trkpt>
      <trkpt lat="49.48479" lon="0.35768">
        <ele>6.5</ele>
        <time>2023-09-03T08:34:35Z</time>
      </trkpt>
      <trkpt lat="49.48482" lon="0.35773">
        <ele>6.6</ele>
        <time>2023-09-03T08:34:36Z</time>
      </trkpt>
      <trkpt lat="49.48485" lon="0.35777">
        <ele>6.6</ele>
        <time>2023-09-03T08:34:37Z</time>
      </trkpt>
      <trkpt lat="49.48489" lon="0.3578">
        <ele>6.6</ele>
        <time>2023-09-03T08:34:38Z</time>
      </trkpt>
      <trkpt lat="49.48492" lon="0.35784">
        <ele>6.6</ele>
        <time>2023-09-03T08:34:39Z</time>
      </trkpt>
      <trkpt lat="49.48496" lon="0.35787">
        <ele>6.7</ele>
        <time>2023-09-03T08:34:40Z</time>
      </trkpt>
      <trkpt lat="49.48499" lon="0.35792">
        <ele>6.7</ele>
        <time>2023-09-03T08:34:41Z</time>
      </trkpt>
      <trkpt lat="49.48503" lon="0.35796">
        <ele>6.7</ele>
        <time>2023-09-03T08:34:42Z</time>
      </trkpt>
      <trkpt lat="49.48506" lon="0.358">
        <ele>6.7</ele>
        <time>2023-09-03T08:34:43Z</time>
      </trkpt>
      <trkpt lat="49.48509" lon="0.35803">
        <ele>6.7</ele>
        <time>2023-09-03T08:34:44Z</time>
      </trkpt>
      <trkpt lat="49.48512" lon="0.35806">
        <ele>6.7</ele>
        <time>2023-09-03T08:34:45Z</time>
      </trkpt>
      <trkpt lat="49.48514" lon="0.35809">
        <ele>6.7</ele>
        <time>2023-09-03T08:34:46Z</time>
      </trkpt>
      <trkpt lat="49.48517" lon="0.35811">
        <ele>6.7</ele>
        <time>2023-09-03T08:34:47Z</time>
      </trkpt>
      <trkpt lat="49.4852" lon="0.35813">
        <ele>6.7</ele>
        <time>2023-09-03T08:34:48Z</time>
      </trkpt>
      <trkpt lat="49.48522" lon="0.35815">
        <ele>6.7</ele>
        <time>2023-09-03T08:34:49Z</time>
      </trkpt>
      <trkpt lat="49.48525" lon="0.35817">
        <ele>6.7</ele>
        <time>2023-09-03T08:34:50Z</time>
      </trkpt>
      <trkpt lat="49.48528" lon="0.35819">
        <ele>6.6</ele>
        <time>2023-09-03T08:34:51Z</time>
      </trkpt>
      <trkpt lat="49.4853" lon="0.35822">
        <ele>6.6</ele>
        <time>2023-09-03T08:34:52Z</time>
      </trkpt>
      <trkpt lat="49.48533" lon="0.35825">
        <ele>6.6</ele>
        <time>2023-09-03T08:34:53Z</time>
      </trkpt>
      <trkpt lat="49.48535" lon="0.35828">
        <ele>6.6</ele>
        <time>2023-09-03T08:34:54Z</time>
      </trkpt>
      <trkpt lat="49.48537" lon="0.35833">
        <ele>6.7</ele>
        <time>2023-09-03T08:34:55Z</time>
      </trkpt>
      <trkpt lat="49.48538" lon="0.35834">
        <ele>6.7</ele>
        <time>2023-09-03T08:34:56Z</time>
      </trkpt>
      <trkpt lat="49.4854" lon="0.35838">
        <ele>6.7</ele>
        <time>2023-09-03T08:34:57Z</time>
      </trkpt>
      <trkpt lat="49.4854" lon="0.35839">
        <ele>6.8</ele>
        <time>2023-09-03T08:34:58Z</time>
      </trkpt>
      <trkpt lat="49.48541" lon="0.35841">
        <ele>6.8</ele>
        <time>2023-09-03T08:34:59Z</time>
      </trkpt>
      <trkpt lat="49.48542" lon="0.35842">
        <ele>6.8</ele>
        <time>2023-09-03T08:35:00Z</time>
      </trkpt>
      <trkpt lat="49.48542" lon="0.35842">
        <ele>6.8</ele>
        <time>2023-09-03T08:35:01Z</time>
      </trkpt>
      <trkpt lat="49.48542" lon="0.35842">
        <ele>6.8</ele>
        <time>2023-09-03T08:35:02Z</time>
      </trkpt>
      <trkpt lat="49.48542" lon="0.35842">
        <ele>6.8</ele>
        <time>2023-09-03T08:35:03Z</time>
      </trkpt>
      <trkpt lat="49.48542" lon="0.35842">
        <ele>6.8</ele>
        <time>2023-09-03T08:35:04Z</time>
      </trkpt>
      <trkpt lat="49.48542" lon="0.35842">
        <ele>6.8</ele>
        <time>2023-09-03T08:35:05Z</time>
      </trkpt>
      <trkpt lat="49.48542" lon="0.35842">
        <ele>6.8</ele>
        <time>2023-09-03T08:35:06Z</time>
      </trkpt>
      <trkpt lat="49.48542" lon="0.35842">
        <ele>6.8</ele>
        <time>2023-09-03T08:35:07Z</time>
      </trkpt>
      <trkpt lat="49.48542" lon="0.35842">
        <ele>6.8</ele>
        <time>2023-09-03T08:35:08Z</time>
      </trkpt>
      <trkpt lat="49.48542" lon="0.35842">
        <ele>6.8</ele>
        <time>2023-09-03T08:35:09Z</time>
      </trkpt>
      <trkpt lat="49.48542" lon="0.35842">
        <ele>6.8</ele>
        <time>2023-09-03T08:35:10Z</time>
      </trkpt>
      <trkpt lat="49.48542" lon="0.35842">
        <ele>6.8</ele>
        <time>2023-09-03T08:35:11Z</time>
      </trkpt>
      <trkpt lat="49.48542" lon="0.35842">
        <ele>6.8</ele>
        <time>2023-09-03T08:35:12Z</time>
      </trkpt>
      <trkpt lat="49.48542" lon="0.35842">
        <ele>6.8</ele>
        <time>2023-09-03T08:35:13Z</time>
      </trkpt>
      <trkpt lat="49.48536" lon="0.3584">
        <ele>6.8</ele>
        <time>2023-09-03T08:36:21Z</time>
      </trkpt>
      <trkpt lat="49.48535" lon="0.35838">
        <ele>6.8</ele>
        <time>2023-09-03T08:36:22Z</time>
      </trkpt>
      <trkpt lat="49.48535" lon="0.35835">
        <ele>6.8</ele>
        <time>2023-09-03T08:36:23Z</time>
      </trkpt>
      <trkpt lat="49.48535" lon="0.35833">
        <ele>6.8</ele>
        <time>2023-09-03T08:36:24Z</time>
      </trkpt>
      <trkpt lat="49.48535" lon="0.35832">
        <ele>6.8</ele>
        <time>2023-09-03T08:36:25Z</time>
      </trkpt>
      <trkpt lat="49.48535" lon="0.35831">
        <ele>6.8</ele>
        <time>2023-09-03T08:36:26Z</time>
      </trkpt>
      <trkpt lat="49.48535" lon="0.3583">
        <ele>6.8</ele>
        <time>2023-09-03T08:36:27Z</time>
      </trkpt>
      <trkpt lat="49.48535" lon="0.35827">
        <ele>6.8</ele>
        <time>2023-09-03T08:36:28Z</time>
      </trkpt>
      <trkpt lat="49.48535" lon="0.35825">
        <ele>6.8</ele>
        <time>2023-09-03T08:36:29Z</time>
      </trkpt>
      <trkpt lat="49.48534" lon="0.3582">
        <ele>6.8</ele>
        <time>2023-09-03T08:36:30Z</time>
      </trkpt>
      <trkpt lat="49.48533" lon="0.35817">
        <ele>6.8</ele>
        <time>2023-09-03T08:36:31Z</time>
      </trkpt>
      <trkpt lat="49.48532" lon="0.35813">
        <ele>6.8</ele>
        <time>2023-09-03T08:36:32Z</time>
      </trkpt>
      <trkpt lat="49.48531" lon="0.35808">
        <ele>6.8</ele>
        <time>2023-09-03T08:36:33Z</time>
      </trkpt>
      <trkpt lat="49.48528" lon="0.35801">
        <ele>6.8</ele>
        <time>2023-09-03T08:36:34Z</time>
      </trkpt>
      <trkpt lat="49.48525" lon="0.35794">
        <ele>6.8</ele>
        <time>2023-09-03T08:36:35Z</time>
      </trkpt>
      <trkpt lat="49.48522" lon="0.35788">
        <ele>6.7</ele>
        <time>2023-09-03T08:36:36Z</time>
      </trkpt>
      <trkpt lat="49.48518" lon="0.35781">
        <ele>6.7</ele>
        <time>2023-09-03T08:36:37Z</time>
      </trkpt>
      <trkpt lat="49.48514" lon="0.35773">
        <ele>6.7</ele>
        <time>2023-09-03T08:36:38Z</time>
      </trkpt>
      <trkpt lat="49.48509" lon="0.35766">
        <ele>6.7</ele>
        <time>2023-09-03T08:36:39Z</time>
      </trkpt>
      <trkpt lat="49.48504" lon="0.35759">
        <ele>6.7</ele>
        <time>2023-09-03T08:36:40Z</time>
      </trkpt>
      <trkpt lat="49.485" lon="0.35753">
        <ele>6.7</ele>
        <time>2023-09-03T08:36:41Z</time>
      </trkpt>
      <trkpt lat="49.48495" lon="0.35747">
        <ele>6.7</ele>
        <time>2023-09-03T08:36:42Z</time>
      </trkpt>
      <trkpt lat="49.48491" lon="0.3574">
        <ele>6.7</ele>
        <time>2023-09-03T08:36:43Z</time>
      </trkpt>
      <trkpt lat="49.48486" lon="0.35734">
        <ele>6.7</ele>
        <time>2023-09-03T08:36:44Z</time>
      </trkpt>
      <trkpt lat="49.48481" lon="0.35728">
        <ele>6.7</ele>
        <time>2023-09-03T08:36:45Z</time>
      </trkpt>
      <trkpt lat="49.48476" lon="0.35725">
        <ele>6.7</ele>
        <time>2023-09-03T08:36:46Z</time>
      </trkpt>
      <trkpt lat="49.48471" lon="0.35724">
        <ele>6.7</ele>
        <time>2023-09-03T08:36:47Z</time>
      </trkpt>
      <trkpt lat="49.48466" lon="0.35724">
        <ele>6.6</ele>
        <time>2023-09-03T08:36:48Z</time>
      </trkpt>
      <trkpt lat="49.48461" lon="0.35724">
        <ele>6.6</ele>
        <time>2023-09-03T08:36:49Z</time>
      </trkpt>
      <trkpt lat="49.48457" lon="0.35723">
        <ele>6.6</ele>
        <time>2023-09-03T08:36:50Z</time>
      </trkpt>
      <trkpt lat="49.48454" lon="0.35723">
        <ele>6.6</ele>
        <time>2023-09-03T08:36:51Z</time>
      </trkpt>
      <trkpt lat="49.4845" lon="0.35724">
        <ele>6.7</ele>
        <time>2023-09-03T08:36:52Z</time>
      </trkpt>
      <trkpt lat="49.48446" lon="0.35725">
        <ele>6.7</ele>
        <time>2023-09-03T08:36:53Z</time>
      </trkpt>
      <trkpt lat="49.48442" lon="0.35725">
        <ele>6.7</ele>
        <time>2023-09-03T08:36:54Z</time>
      </trkpt>
      <trkpt lat="49.48437" lon="0.35725">
        <ele>6.8</ele>
        <time>2023-09-03T08:36:55Z</time>
      </trkpt>
      <trkpt lat="49.48433" lon="0.35724">
        <ele>6.9</ele>
        <time>2023-09-03T08:36:56Z</time>
      </trkpt>
      <trkpt lat="49.48428" lon="0.35723">
        <ele>7</ele>
        <time>2023-09-03T08:36:57Z</time>
      </trkpt>
      <trkpt lat="49.48423" lon="0.35722">
        <ele>7.2</ele>
        <time>2023-09-03T08:36:58Z</time>
      </trkpt>
      <trkpt lat="49.48419" lon="0.3572">
        <ele>7.3</ele>
        <time>2023-09-03T08:36:59Z</time>
      </trkpt>
      <trkpt lat="49.48414" lon="0.35717">
        <ele>7.5</ele>
        <time>2023-09-03T08:37:00Z</time>
      </trkpt>
      <trkpt lat="49.4841" lon="0.35713">
        <ele>7.6</ele>
        <time>2023-09-03T08:37:01Z</time>
      </trkpt>
      <trkpt lat="49.48406" lon="0.35708">
        <ele>7.7</ele>
        <time>2023-09-03T08:37:02Z</time>
      </trkpt>
      <trkpt lat="49.48402" lon="0.35703">
        <ele>7.9</ele>
        <time>2023-09-03T08:37:03Z</time>
      </trkpt>
      <trkpt lat="49.48398" lon="0.35697">
        <ele>8</ele>
        <time>2023-09-03T08:37:04Z</time>
      </trkpt>
      <trkpt lat="49.48393" lon="0.3569">
        <ele>8.2</ele>
        <time>2023-09-03T08:37:05Z</time>
      </trkpt>
      <trkpt lat="49.48389" lon="0.35683">
        <ele>8.3</ele>
        <time>2023-09-03T08:37:06Z</time>
      </trkpt>
      <trkpt lat="49.48383" lon="0.35677">
        <ele>8.5</ele>
        <time>2023-09-03T08:37:07Z</time>
      </trkpt>
      <trkpt lat="49.48378" lon="0.35671">
        <ele>8.7</ele>
        <time>2023-09-03T08:37:08Z</time>
      </trkpt>
      <trkpt lat="49.48374" lon="0.35665">
        <ele>8.8</ele>
        <time>2023-09-03T08:37:09Z</time>
      </trkpt>
      <trkpt lat="49.48369" lon="0.35659">
        <ele>9</ele>
        <time>2023-09-03T08:37:10Z</time>
      </trkpt>
      <trkpt lat="49.48364" lon="0.35653">
        <ele>9.2</ele>
        <time>2023-09-03T08:37:11Z</time>
      </trkpt>
      <trkpt lat="49.48359" lon="0.35647">
        <ele>9.3</ele>
        <time>2023-09-03T08:37:12Z</time>
      </trkpt>
      <trkpt lat="49.48355" lon="0.35641">
        <ele>9.5</ele>
        <time>2023-09-03T08:37:13Z</time>
      </trkpt>
      <trkpt lat="49.4835" lon="0.35636">
        <ele>9.6</ele>
        <time>2023-09-03T08:37:14Z</time>
      </trkpt>
      <trkpt lat="49.48345" lon="0.35631">
        <ele>9.7</ele>
        <time>2023-09-03T08:37:15Z</time>
      </trkpt>
      <trkpt lat="49.48341" lon="0.35625">
        <ele>9.9</ele>
        <time>2023-09-03T08:37:16Z</time>
      </trkpt>
      <trkpt lat="49.48336" lon="0.3562">
        <ele>10</ele>
        <time>2023-09-03T08:37:17Z</time>
      </trkpt>
      <trkpt lat="49.48331" lon="0.35615">
        <ele>10.2</ele>
        <time>2023-09-03T08:37:18Z</time>
      </trkpt>
      <trkpt lat="49.48326" lon="0.3561">
        <ele>10.3</ele>
        <time>2023-09-03T08:37:19Z</time>
      </trkpt>
      <trkpt lat="49.48321" lon="0.35605">
        <ele>10.4</ele>
        <time>2023-09-03T08:37:20Z</time>
      </trkpt>
      <trkpt lat="49.48316" lon="0.356">
        <ele>10.6</ele>
        <time>2023-09-03T08:37:21Z</time>
      </trkpt>
      <trkpt lat="49.48312" lon="0.35595">
        <ele>10.7</ele>
        <time>2023-09-03T08:37:22Z</time>
      </trkpt>
      <trkpt lat="49.48307" lon="0.3559">
        <ele>10.8</ele>
        <time>2023-09-03T08:37:23Z</time>
      </trkpt>
      <trkpt lat="49.48302" lon="0.35586">
        <ele>10.9</ele>
        <time>2023-09-03T08:37:24Z</time>
      </trkpt>
      <trkpt lat="49.48297" lon="0.35581">
        <ele>11</ele>
        <time>2023-09-03T08:37:25Z</time>
      </trkpt>
      <trkpt lat="49.48292" lon="0.35577">
        <ele>11.2</ele>
        <time>2023-09-03T08:37:26Z</time>
      </trkpt>
      <trkpt lat="49.48287" lon="0.35573">
        <ele>11.3</ele>
        <time>2023-09-03T08:37:27Z</time>
      </trkpt>
      <trkpt lat="49.48282" lon="0.35569">
        <ele>11.4</ele>
        <time>2023-09-03T08:37:28Z</time>
      </trkpt>
      <trkpt lat="49.48277" lon="0.35565">
        <ele>11.5</ele>
        <time>2023-09-03T08:37:29Z</time>
      </trkpt>
      <trkpt lat="49.48271" lon="0.35561">
        <ele>11.6</ele>
        <time>2023-09-03T08:37:30Z</time>
      </trkpt>
      <trkpt lat="49.48266" lon="0.35557">
        <ele>11.7</ele>
        <time>2023-09-03T08:37:31Z</time>
      </trkpt>
      <trkpt lat="49.48261" lon="0.35552">
        <ele>11.9</ele>
        <time>2023-09-03T08:37:32Z</time>
      </trkpt>
      <trkpt lat="49.48255" lon="0.35548">
        <ele>11.9</ele>
        <time>2023-09-03T08:37:33Z</time>
      </trkpt>
      <trkpt lat="49.4825" lon="0.35544">
        <ele>12</ele>
        <time>2023-09-03T08:37:34Z</time>
      </trkpt>
      <trkpt lat="49.48244" lon="0.3554">
        <ele>12</ele>
        <time>2023-09-03T08:37:35Z</time>
      </trkpt>
      <trkpt lat="49.48239" lon="0.35536">
        <ele>12.1</ele>
        <time>2023-09-03T08:37:36Z</time>
      </trkpt>
      <trkpt lat="49.48233" lon="0.35532">
        <ele>12.1</ele>
        <time>2023-09-03T08:37:37Z</time>
      </trkpt>
      <trkpt lat="49.48228" lon="0.35528">
        <ele>12.2</ele>
        <time>2023-09-03T08:37:38Z</time>
      </trkpt>
      <trkpt lat="49.48222" lon="0.35524">
        <ele>12.3</ele>
        <time>2023-09-03T08:37:39Z</time>
      </trkpt>
      <trkpt lat="49.48217" lon="0.3552">
        <ele>12.3</ele>
        <time>2023-09-03T08:37:40Z</time>
      </trkpt>
      <trkpt lat="49.48212" lon="0.35516">
        <ele>12.3</ele>
        <time>2023-09-03T08:37:41Z</time>
      </trkpt>
      <trkpt lat="49.48206" lon="0.35512">
        <ele>12.3</ele>
        <time>2023-09-03T08:37:42Z</time>
      </trkpt>
      <trkpt lat="49.482" lon="0.35508">
        <ele>12.4</ele>
        <time>2023-09-03T08:37:43Z</time>
      </trkpt>
      <trkpt lat="49.48194" lon="0.35504">
        <ele>12.4</ele>
        <time>2023-09-03T08:37:44Z</time>
      </trkpt>
      <trkpt lat="49.48188" lon="0.35501">
        <ele>12.4</ele>
        <time>2023-09-03T08:37:45Z</time>
      </trkpt>
      <trkpt lat="49.48182" lon="0.35497">
        <ele>12.4</ele>
        <time>2023-09-03T08:37:46Z</time>
      </trkpt>
      <trkpt lat="49.48176" lon="0.35494">
        <ele>12.4</ele>
        <time>2023-09-03T08:37:47Z</time>
      </trkpt>
      <trkpt lat="49.4817" lon="0.3549">
        <ele>12.4</ele>
        <time>2023-09-03T08:37:48Z</time>
      </trkpt>
      <trkpt lat="49.48164" lon="0.35486">
        <ele>12.4</ele>
        <time>2023-09-03T08:37:49Z</time>
      </trkpt>
      <trkpt lat="49.48158" lon="0.35482">
        <ele>12.4</ele>
        <time>2023-09-03T08:37:50Z</time>
      </trkpt>
      <trkpt lat="49.48151" lon="0.35479">
        <ele>12.4</ele>
        <time>2023-09-03T08:37:51Z</time>
      </trkpt>
      <trkpt lat="49.48145" lon="0.35475">
        <ele>12.5</ele>
        <time>2023-09-03T08:37:52Z</time>
      </trkpt>
      <trkpt lat="49.48138" lon="0.35472">
        <ele>12.5</ele>
        <time>2023-09-03T08:37:53Z</time>
      </trkpt>
      <trkpt lat="49.48132" lon="0.35468">
        <ele>12.5</ele>
        <time>2023-09-03T08:37:54Z</time>
      </trkpt>
      <trkpt lat="49.48125" lon="0.35466">
        <ele>12.5</ele>
        <time>2023-09-03T08:37:55Z</time>
      </trkpt>
      <trkpt lat="49.48118" lon="0.35463">
        <ele>12.5</ele>
        <time>2023-09-03T08:37:56Z</time>
      </trkpt>
      <trkpt lat="49.48111" lon="0.3546">
        <ele>12.5</ele>
        <time>2023-09-03T08:37:57Z</time>
      </trkpt>
      <trkpt lat="49.48105" lon="0.35457">
        <ele>12.5</ele>
        <time>2023-09-03T08:37:58Z</time>
      </trkpt>
      <trkpt lat="49.48098" lon="0.35453">
        <ele>12.5</ele>
        <time>2023-09-03T08:37:59Z</time>
      </trkpt>
      <trkpt lat="49.48092" lon="0.3545">
        <ele>12.5</ele>
        <time>2023-09-03T08:38:00Z</time>
      </trkpt>
      <trkpt lat="49.48085" lon="0.35447">
        <ele>12.5</ele>
        <time>2023-09-03T08:38:01Z</time>
      </trkpt>
      <trkpt lat="49.48079" lon="0.35444">
        <ele>12.5</ele>
        <time>2023-09-03T08:38:02Z</time>
      </trkpt>
      <trkpt lat="49.48072" lon="0.35442">
        <ele>12.5</ele>
        <time>2023-09-03T08:38:03Z</time>
      </trkpt>
      <trkpt lat="49.48066" lon="0.3544">
        <ele>12.6</ele>
        <time>2023-09-03T08:38:04Z</time>
      </trkpt>
      <trkpt lat="49.48059" lon="0.35438">
        <ele>12.6</ele>
        <time>2023-09-03T08:38:05Z</time>
      </trkpt>
      <trkpt lat="49.48053" lon="0.35436">
        <ele>12.6</ele>
        <time>2023-09-03T08:38:06Z</time>
      </trkpt>
      <trkpt lat="49.48047" lon="0.35434">
        <ele>12.6</ele>
        <time>2023-09-03T08:38:07Z</time>
      </trkpt>
      <trkpt lat="49.48041" lon="0.35432">
        <ele>12.5</ele>
        <time>2023-09-03T08:38:08Z</time>
      </trkpt>
      <trkpt lat="49.48034" lon="0.3543">
        <ele>12.5</ele>
        <time>2023-09-03T08:38:09Z</time>
      </trkpt>
      <trkpt lat="49.48028" lon="0.35429">
        <ele>12.5</ele>
        <time>2023-09-03T08:38:10Z</time>
      </trkpt>
      <trkpt lat="49.48022" lon="0.35428">
        <ele>12.5</ele>
        <time>2023-09-03T08:38:11Z</time>
      </trkpt>
      <trkpt lat="49.48015" lon="0.35427">
        <ele>12.5</ele>
        <time>2023-09-03T08:38:12Z</time>
      </trkpt>
      <trkpt lat="49.48008" lon="0.35425">
        <ele>12.5</ele>
        <time>2023-09-03T08:38:13Z</time>
      </trkpt>
      <trkpt lat="49.48001" lon="0.35423">
        <ele>12.5</ele>
        <time>2023-09-03T08:38:14Z</time>
      </trkpt>
      <trkpt lat="49.47994" lon="0.35422">
        <ele>12.5</ele>
        <time>2023-09-03T08:38:15Z</time>
      </trkpt>
      <trkpt lat="49.47986" lon="0.35421">
        <ele>12.5</ele>
        <time>2023-09-03T08:38:16Z</time>
      </trkpt>
      <trkpt lat="49.47979" lon="0.3542">
        <ele>12.5</ele>
        <time>2023-09-03T08:38:17Z</time>
      </trkpt>
      <trkpt lat="49.47972" lon="0.35419">
        <ele>12.5</ele>
        <time>2023-09-03T08:38:18Z</time>
      </trkpt>
      <trkpt lat="49.47965" lon="0.35417">
        <ele>12.6</ele>
        <time>2023-09-03T08:38:19Z</time>
      </trkpt>
      <trkpt lat="49.47957" lon="0.35416">
        <ele>12.6</ele>
        <time>2023-09-03T08:38:20Z</time>
      </trkpt>
      <trkpt lat="49.4795" lon="0.35415">
        <ele>12.6</ele>
        <time>2023-09-03T08:38:21Z</time>
      </trkpt>
      <trkpt lat="49.47943" lon="0.35414">
        <ele>12.6</ele>
        <time>2023-09-03T08:38:22Z</time>
      </trkpt>
      <trkpt lat="49.47936" lon="0.35413">
        <ele>12.6</ele>
        <time>2023-09-03T08:38:23Z</time>
      </trkpt>
      <trkpt lat="49.47929" lon="0.35412">
        <ele>12.6</ele>
        <time>2023-09-03T08:38:24Z</time>
      </trkpt>
      <trkpt lat="49.47922" lon="0.35412">
        <ele>12.7</ele>
        <time>2023-09-03T08:38:25Z</time>
      </trkpt>
      <trkpt lat="49.47915" lon="0.35411">
        <ele>12.7</ele>
        <time>2023-09-03T08:38:26Z</time>
      </trkpt>
      <trkpt lat="49.47908" lon="0.3541">
        <ele>12.7</ele>
        <time>2023-09-03T08:38:27Z</time>
      </trkpt>
      <trkpt lat="49.47901" lon="0.35409">
        <ele>12.7</ele>
        <time>2023-09-03T08:38:28Z</time>
      </trkpt>
      <trkpt lat="49.47894" lon="0.35409">
        <ele>12.7</ele>
        <time>2023-09-03T08:38:29Z</time>
      </trkpt>
      <trkpt lat="49.47887" lon="0.35408">
        <ele>12.7</ele>
        <time>2023-09-03T08:38:30Z</time>
      </trkpt>
      <trkpt lat="49.47879" lon="0.35408">
        <ele>12.7</ele>
        <time>2023-09-03T08:38:31Z</time>
      </trkpt>
      <trkpt lat="49.47873" lon="0.35407">
        <ele>12.8</ele>
        <time>2023-09-03T08:38:32Z</time>
      </trkpt>
      <trkpt lat="49.47866" lon="0.35406">
        <ele>12.8</ele>
        <time>2023-09-03T08:38:33Z</time>
      </trkpt>
      <trkpt lat="49.47858" lon="0.35406">
        <ele>12.8</ele>
        <time>2023-09-03T08:38:34Z</time>
      </trkpt>
      <trkpt lat="49.47851" lon="0.35405">
        <ele>12.8</ele>
        <time>2023-09-03T08:38:35Z</time>
      </trkpt>
      <trkpt lat="49.47844" lon="0.35405">
        <ele>12.9</ele>
        <time>2023-09-03T08:38:36Z</time>
      </trkpt>
      <trkpt lat="49.47838" lon="0.35404">
        <ele>12.9</ele>
        <time>2023-09-03T08:38:37Z</time>
      </trkpt>
      <trkpt lat="49.47831" lon="0.35403">
        <ele>13</ele>
        <time>2023-09-03T08:38:38Z</time>
      </trkpt>
      <trkpt lat="49.47824" lon="0.35403">
        <ele>13</ele>
        <time>2023-09-03T08:38:39Z</time>
      </trkpt>
      <trkpt lat="49.47817" lon="0.35403">
        <ele>13</ele>
        <time>2023-09-03T08:38:40Z</time>
      </trkpt>
      <trkpt lat="49.4781" lon="0.35403">
        <ele>13.1</ele>
        <time>2023-09-03T08:38:41Z</time>
      </trkpt>
      <trkpt lat="49.47804" lon="0.35402">
        <ele>13.1</ele>
        <time>2023-09-03T08:38:42Z</time>
      </trkpt>
      <trkpt lat="49.47798" lon="0.35401">
        <ele>13.1</ele>
        <time>2023-09-03T08:38:43Z</time>
      </trkpt>
      <trkpt lat="49.47791" lon="0.35401">
        <ele>13.1</ele>
        <time>2023-09-03T08:38:44Z</time>
      </trkpt>
      <trkpt lat="49.47784" lon="0.354">
        <ele>13.1</ele>
        <time>2023-09-03T08:38:45Z</time>
      </trkpt>
      <trkpt lat="49.47777" lon="0.35399">
        <ele>13.1</ele>
        <time>2023-09-03T08:38:46Z</time>
      </trkpt>
      <trkpt lat="49.4777" lon="0.35399">
        <ele>13</ele>
        <time>2023-09-03T08:38:47Z</time>
      </trkpt>
      <trkpt lat="49.47764" lon="0.35398">
        <ele>12.9</ele>
        <time>2023-09-03T08:38:48Z</time>
      </trkpt>
      <trkpt lat="49.47757" lon="0.35398">
        <ele>12.9</ele>
        <time>2023-09-03T08:38:49Z</time>
      </trkpt>
      <trkpt lat="49.4775" lon="0.35397">
        <ele>12.8</ele>
        <time>2023-09-03T08:38:50Z</time>
      </trkpt>
      <trkpt lat="49.47744" lon="0.35396">
        <ele>12.7</ele>
        <time>2023-09-03T08:38:51Z</time>
      </trkpt>
      <trkpt lat="49.47736" lon="0.35396">
        <ele>12.6</ele>
        <time>2023-09-03T08:38:52Z</time>
      </trkpt>
      <trkpt lat="49.47729" lon="0.35396">
        <ele>12.5</ele>
        <time>2023-09-03T08:38:53Z</time>
      </trkpt>
      <trkpt lat="49.47722" lon="0.35395">
        <ele>12.4</ele>
        <time>2023-09-03T08:38:54Z</time>
      </trkpt>
      <trkpt lat="49.47715" lon="0.35395">
        <ele>12.3</ele>
        <time>2023-09-03T08:38:55Z</time>
      </trkpt>
      <trkpt lat="49.47708" lon="0.35394">
        <ele>12.2</ele>
        <time>2023-09-03T08:38:56Z</time>
      </trkpt>
      <trkpt lat="49.47701" lon="0.35393">
        <ele>12.1</ele>
        <time>2023-09-03T08:38:57Z</time>
      </trkpt>
      <trkpt lat="49.47693" lon="0.35393">
        <ele>11.9</ele>
        <time>2023-09-03T08:38:58Z</time>
      </trkpt>
      <trkpt lat="49.47686" lon="0.35392">
        <ele>11.8</ele>
        <time>2023-09-03T08:38:59Z</time>
      </trkpt>
      <trkpt lat="49.47679" lon="0.35392">
        <ele>11.6</ele>
        <time>2023-09-03T08:39:00Z</time>
      </trkpt>
      <trkpt lat="49.47671" lon="0.35392">
        <ele>11.5</ele>
        <time>2023-09-03T08:39:01Z</time>
      </trkpt>
      <trkpt lat="49.47664" lon="0.35392">
        <ele>11.3</ele>
        <time>2023-09-03T08:39:02Z</time>
      </trkpt>
      <trkpt lat="49.47656" lon="0.35392">
        <ele>11.1</ele>
        <time>2023-09-03T08:39:03Z</time>
      </trkpt>
      <trkpt lat="49.47649" lon="0.35392">
        <ele>10.9</ele>
        <time>2023-09-03T08:39:04Z</time>
      </trkpt>
      <trkpt lat="49.47642" lon="0.35391">
        <ele>10.7</ele>
        <time>2023-09-03T08:39:05Z</time>
      </trkpt>
      <trkpt lat="49.47634" lon="0.3539">
        <ele>10.5</ele>
        <time>2023-09-03T08:39:06Z</time>
      </trkpt>
      <trkpt lat="49.47627" lon="0.35389">
        <ele>10.3</ele>
        <time>2023-09-03T08:39:07Z</time>
      </trkpt>
      <trkpt lat="49.4762" lon="0.35388">
        <ele>10</ele>
        <time>2023-09-03T08:39:08Z</time>
      </trkpt>
      <trkpt lat="49.47613" lon="0.35388">
        <ele>9.8</ele>
        <time>2023-09-03T08:39:09Z</time>
      </trkpt>
      <trkpt lat="49.47605" lon="0.35387">
        <ele>9.4</ele>
        <time>2023-09-03T08:39:10Z</time>
      </trkpt>
      <trkpt lat="49.47598" lon="0.35386">
        <ele>9.1</ele>
        <time>2023-09-03T08:39:11Z</time>
      </trkpt>
      <trkpt lat="49.4759" lon="0.35387">
        <ele>8.8</ele>
        <time>2023-09-03T08:39:12Z</time>
      </trkpt>
      <trkpt lat="49.47583" lon="0.35386">
        <ele>8.6</ele>
        <time>2023-09-03T08:39:13Z</time>
      </trkpt>
      <trkpt lat="49.47575" lon="0.35384">
        <ele>8.4</ele>
        <time>2023-09-03T08:39:14Z</time>
      </trkpt>
      <trkpt lat="49.47567" lon="0.35382">
        <ele>8.2</ele>
        <time>2023-09-03T08:39:15Z</time>
      </trkpt>
      <trkpt lat="49.4756" lon="0.35381">
        <ele>8</ele>
        <time>2023-09-03T08:39:16Z</time>
      </trkpt>
      <trkpt lat="49.47552" lon="0.3538">
        <ele>7.7</ele>
        <time>2023-09-03T08:39:17Z</time>
      </trkpt>
      <trkpt lat="49.47544" lon="0.35378">
        <ele>7.5</ele>
        <time>2023-09-03T08:39:18Z</time>
      </trkpt>
      <trkpt lat="49.47536" lon="0.35377">
        <ele>7.2</ele>
        <time>2023-09-03T08:39:19Z</time>
      </trkpt>
      <trkpt lat="49.47528" lon="0.35375">
        <ele>7</ele>
        <time>2023-09-03T08:39:20Z</time>
      </trkpt>
      <trkpt lat="49.4752" lon="0.35373">
        <ele>6.8</ele>
        <time>2023-09-03T08:39:21Z</time>
      </trkpt>
      <trkpt lat="49.47512" lon="0.35371">
        <ele>6.6</ele>
        <time>2023-09-03T08:39:22Z</time>
      </trkpt>
      <trkpt lat="49.47505" lon="0.35368">
        <ele>6.4</ele>
        <time>2023-09-03T08:39:23Z</time>
      </trkpt>
      <trkpt lat="49.47497" lon="0.35366">
        <ele>6.2</ele>
        <time>2023-09-03T08:39:24Z</time>
      </trkpt>
      <trkpt lat="49.47489" lon="0.35363">
        <ele>5.9</ele>
        <time>2023-09-03T08:39:25Z</time>
      </trkpt>
      <trkpt lat="49.47481" lon="0.35361">
        <ele>5.7</ele>
        <time>2023-09-03T08:39:26Z</time>
      </trkpt>
      <trkpt lat="49.47473" lon="0.35358">
        <ele>5.6</ele>
        <time>2023-09-03T08:39:27Z</time>
      </trkpt>
      <trkpt lat="49.47466" lon="0.35356">
        <ele>5.4</ele>
        <time>2023-09-03T08:39:28Z</time>
      </trkpt>
      <trkpt lat="49.47458" lon="0.35354">
        <ele>5.3</ele>
        <time>2023-09-03T08:39:29Z</time>
      </trkpt>
      <trkpt lat="49.47451" lon="0.35351">
        <ele>5.2</ele>
        <time>2023-09-03T08:39:30Z</time>
      </trkpt>
      <trkpt lat="49.47443" lon="0.35349">
        <ele>5</ele>
        <time>2023-09-03T08:39:31Z</time>
      </trkpt>
      <trkpt lat="49.47436" lon="0.35346">
        <ele>4.9</ele>
        <time>2023-09-03T08:39:32Z</time>
      </trkpt>
      <trkpt lat="49.47429" lon="0.35343">
        <ele>4.8</ele>
        <time>2023-09-03T08:39:33Z</time>
      </trkpt>
      <trkpt lat="49.47422" lon="0.35339">
        <ele>4.8</ele>
        <time>2023-09-03T08:39:34Z</time>
      </trkpt>
      <trkpt lat="49.47415" lon="0.35335">
        <ele>4.7</ele>
        <time>2023-09-03T08:39:35Z</time>
      </trkpt>
      <trkpt lat="49.47409" lon="0.35332">
        <ele>4.7</ele>
        <time>2023-09-03T08:39:36Z</time>
      </trkpt>
      <trkpt lat="49.47402" lon="0.35329">
        <ele>4.6</ele>
        <time>2023-09-03T08:39:37Z</time>
      </trkpt>
      <trkpt lat="49.47396" lon="0.35325">
        <ele>4.6</ele>
        <time>2023-09-03T08:39:38Z</time>
      </trkpt>
      <trkpt lat="49.47389" lon="0.35322">
        <ele>4.6</ele>
        <time>2023-09-03T08:39:39Z</time>
      </trkpt>
      <trkpt lat="49.47383" lon="0.35318">
        <ele>4.6</ele>
        <time>2023-09-03T08:39:40Z</time>
      </trkpt>
      <trkpt lat="49.47376" lon="0.35314">
        <ele>4.6</ele>
        <time>2023-09-03T08:39:41Z</time>
      </trkpt>
      <trkpt lat="49.4737" lon="0.3531">
        <ele>4.6</ele>
        <time>2023-09-03T08:39:42Z</time>
      </trkpt>
      <trkpt lat="49.47363" lon="0.35306">
        <ele>4.6</ele>
        <time>2023-09-03T08:39:43Z</time>
      </trkpt>
      <trkpt lat="49.47357" lon="0.35302">
        <ele>4.6</ele>
        <time>2023-09-03T08:39:44Z</time>
      </trkpt>
      <trkpt lat="49.47351" lon="0.35297">
        <ele>4.6</ele>
        <time>2023-09-03T08:39:45Z</time>
      </trkpt>
      <trkpt lat="49.47345" lon="0.35293">
        <ele>4.6</ele>
        <time>2023-09-03T08:39:46Z</time>
      </trkpt>
      <trkpt lat="49.47338" lon="0.35289">
        <ele>4.6</ele>
        <time>2023-09-03T08:39:47Z</time>
      </trkpt>
      <trkpt lat="49.47332" lon="0.35284">
        <ele>4.6</ele>
        <time>2023-09-03T08:39:48Z</time>
      </trkpt>
      <trkpt lat="49.47325" lon="0.35279">
        <ele>4.6</ele>
        <time>2023-09-03T08:39:49Z</time>
      </trkpt>
      <trkpt lat="49.47319" lon="0.35275">
        <ele>4.6</ele>
        <time>2023-09-03T08:39:50Z</time>
      </trkpt>
      <trkpt lat="49.47313" lon="0.3527">
        <ele>4.6</ele>
        <time>2023-09-03T08:39:51Z</time>
      </trkpt>
      <trkpt lat="49.47307" lon="0.35264">
        <ele>4.6</ele>
        <time>2023-09-03T08:39:52Z</time>
      </trkpt>
      <trkpt lat="49.47301" lon="0.3526">
        <ele>4.6</ele>
        <time>2023-09-03T08:39:53Z</time>
      </trkpt>
      <trkpt lat="49.47296" lon="0.35256">
        <ele>4.7</ele>
        <time>2023-09-03T08:39:54Z</time>
      </trkpt>
      <trkpt lat="49.47292" lon="0.35253">
        <ele>4.7</ele>
        <time>2023-09-03T08:39:55Z</time>
      </trkpt>
      <trkpt lat="49.47288" lon="0.35251">
        <ele>4.7</ele>
        <time>2023-09-03T08:39:56Z</time>
      </trkpt>
      <trkpt lat="49.47285" lon="0.35251">
        <ele>4.7</ele>
        <time>2023-09-03T08:39:57Z</time>
      </trkpt>
      <trkpt lat="49.47282" lon="0.35254">
        <ele>4.7</ele>
        <time>2023-09-03T08:39:58Z</time>
      </trkpt>
      <trkpt lat="49.47281" lon="0.35255">
        <ele>4.7</ele>
        <time>2023-09-03T08:39:59Z</time>
      </trkpt>
      <trkpt lat="49.47282" lon="0.35259">
        <ele>4.7</ele>
        <time>2023-09-03T08:40:00Z</time>
      </trkpt>
      <trkpt lat="49.47283" lon="0.3526">
        <ele>4.7</ele>
        <time>2023-09-03T08:40:01Z</time>
      </trkpt>
      <trkpt lat="49.47284" lon="0.3526">
        <ele>4.7</ele>
        <time>2023-09-03T08:40:02Z</time>
      </trkpt>
      <trkpt lat="49.47285" lon="0.35261">
        <ele>4.7</ele>
        <time>2023-09-03T08:40:03Z</time>
      </trkpt>
      <trkpt lat="49.47285" lon="0.35261">
        <ele>4.7</ele>
        <time>2023-09-03T08:40:04Z</time>
      </trkpt>
      <trkpt lat="49.47286" lon="0.35261">
        <ele>4.7</ele>
        <time>2023-09-03T08:40:05Z</time>
      </trkpt>
      <trkpt lat="49.47286" lon="0.35262">
        <ele>4.7</ele>
        <time>2023-09-03T08:40:06Z</time>
      </trkpt>
      <trkpt lat="49.47287" lon="0.35262">
        <ele>4.7</ele>
        <time>2023-09-03T08:40:07Z</time>
      </trkpt>
      <trkpt lat="49.47289" lon="0.35264">
        <ele>4.7</ele>
        <time>2023-09-03T08:40:08Z</time>
      </trkpt>
      <trkpt lat="49.4729" lon="0.35265">
        <ele>4.7</ele>
        <time>2023-09-03T08:40:09Z</time>
      </trkpt>
      <trkpt lat="49.47293" lon="0.35267">
        <ele>4.7</ele>
        <time>2023-09-03T08:40:10Z</time>
      </trkpt>
      <trkpt lat="49.47295" lon="0.3527">
        <ele>4.6</ele>
        <time>2023-09-03T08:40:11Z</time>
      </trkpt>
      <trkpt lat="49.47298" lon="0.35273">
        <ele>4.6</ele>
        <time>2023-09-03T08:40:12Z</time>
      </trkpt>
      <trkpt lat="49.47301" lon="0.35276">
        <ele>4.6</ele>
        <time>2023-09-03T08:40:13Z</time>
      </trkpt>
      <trkpt lat="49.47304" lon="0.35279">
        <ele>4.6</ele>
        <time>2023-09-03T08:40:14Z</time>
      </trkpt>
      <trkpt lat="49.47308" lon="0.35281">
        <ele>4.6</ele>
        <time>2023-09-03T08:40:15Z</time>
      </trkpt>
      <trkpt lat="49.47312" lon="0.35284">
        <ele>4.6</ele>
        <time>2023-09-03T08:40:16Z</time>
      </trkpt>
      <trkpt lat="49.47316" lon="0.35287">
        <ele>4.6</ele>
        <time>2023-09-03T08:40:17Z</time>
      </trkpt>
      <trkpt lat="49.4732" lon="0.35289">
        <ele>4.6</ele>
        <time>2023-09-03T08:40:18Z</time>
      </trkpt>
      <trkpt lat="49.47324" lon="0.35292">
        <ele>4.6</ele>
        <time>2023-09-03T08:40:19Z</time>
      </trkpt>
      <trkpt lat="49.47329" lon="0.35295">
        <ele>4.6</ele>
        <time>2023-09-03T08:40:20Z</time>
      </trkpt>
      <trkpt lat="49.47333" lon="0.35298">
        <ele>4.6</ele>
        <time>2023-09-03T08:40:21Z</time>
      </trkpt>
      <trkpt lat="49.47338" lon="0.35301">
        <ele>4.6</ele>
        <time>2023-09-03T08:40:22Z</time>
      </trkpt>
      <trkpt lat="49.47342" lon="0.35304">
        <ele>4.6</ele>
        <time>2023-09-03T08:40:23Z</time>
      </trkpt>
      <trkpt lat="49.47347" lon="0.35307">
        <ele>4.6</ele>
        <time>2023-09-03T08:40:24Z</time>
      </trkpt>
      <trkpt lat="49.47351" lon="0.3531">
        <ele>4.6</ele>
        <time>2023-09-03T08:40:25Z</time>
      </trkpt>
      <trkpt lat="49.47356" lon="0.35313">
        <ele>4.6</ele>
        <time>2023-09-03T08:40:26Z</time>
      </trkpt>
      <trkpt lat="49.4736" lon="0.35316">
        <ele>4.6</ele>
        <time>2023-09-03T08:40:27Z</time>
      </trkpt>
      <trkpt lat="49.47364" lon="0.35319">
        <ele>4.6</ele>
        <time>2023-09-03T08:40:28Z</time>
      </trkpt>
      <trkpt lat="49.47369" lon="0.35322">
        <ele>4.6</ele>
        <time>2023-09-03T08:40:29Z</time>
      </trkpt>
      <trkpt lat="49.47374" lon="0.35325">
        <ele>4.6</ele>
        <time>2023-09-03T08:40:30Z</time>
      </trkpt>
      <trkpt lat="49.47379" lon="0.35328">
        <ele>4.6</ele>
        <time>2023-09-03T08:40:31Z</time>
      </trkpt>
      <trkpt lat="49.47383" lon="0.3533">
        <ele>4.6</ele>
        <time>2023-09-03T08:40:32Z</time>
      </trkpt>
      <trkpt lat="49.47388" lon="0.35331">
        <ele>4.6</ele>
        <time>2023-09-03T08:40:33Z</time>
      </trkpt>
      <trkpt lat="49.47392" lon="0.35333">
        <ele>4.6</ele>
        <time>2023-09-03T08:40:34Z</time>
      </trkpt>
      <trkpt lat="49.47397" lon="0.35336">
        <ele>4.6</ele>
        <time>2023-09-03T08:40:35Z</time>
      </trkpt>
      <trkpt lat="49.47402" lon="0.35339">
        <ele>4.6</ele>
        <time>2023-09-03T08:40:36Z</time>
      </trkpt>
      <trkpt lat="49.47406" lon="0.35343">
        <ele>4.7</ele>
        <time>2023-09-03T08:40:37Z</time>
      </trkpt>
      <trkpt lat="49.47411" lon="0.35346">
        <ele>4.7</ele>
        <time>2023-09-03T08:40:38Z</time>
      </trkpt>
      <trkpt lat="49.47415" lon="0.35349">
        <ele>4.7</ele>
        <time>2023-09-03T08:40:39Z</time>
      </trkpt>
      <trkpt lat="49.4742" lon="0.35352">
        <ele>4.8</ele>
        <time>2023-09-03T08:40:40Z</time>
      </trkpt>
      <trkpt lat="49.47425" lon="0.35354">
        <ele>4.8</ele>
        <time>2023-09-03T08:40:41Z</time>
      </trkpt>
      <trkpt lat="49.4743" lon="0.35357">
        <ele>4.9</ele>
        <time>2023-09-03T08:40:42Z</time>
      </trkpt>
      <trkpt lat="49.47435" lon="0.3536">
        <ele>5</ele>
        <time>2023-09-03T08:40:43Z</time>
      </trkpt>
      <trkpt lat="49.47441" lon="0.35362">
        <ele>5</ele>
        <time>2023-09-03T08:40:44Z</time>
      </trkpt>
      <trkpt lat="49.47446" lon="0.35364">
        <ele>5.1</ele>
        <time>2023-09-03T08:40:45Z</time>
      </trkpt>
      <trkpt lat="49.47451" lon="0.35366">
        <ele>5.2</ele>
        <time>2023-09-03T08:40:46Z</time>
      </trkpt>
      <trkpt lat="49.47456" lon="0.35368">
        <ele>5.3</ele>
        <time>2023-09-03T08:40:47Z</time>
      </trkpt>
      <trkpt lat="49.47461" lon="0.35371">
        <ele>5.4</ele>
        <time>2023-09-03T08:40:48Z</time>
      </trkpt>
      <trkpt lat="49.47467" lon="0.35373">
        <ele>5.5</ele>
        <time>2023-09-03T08:40:49Z</time>
      </trkpt>
      <trkpt lat="49.47473" lon="0.35375">
        <ele>5.6</ele>
        <time>2023-09-03T08:40:50Z</time>
      </trkpt>
      <trkpt lat="49.47478" lon="0.35377">
        <ele>5.7</ele>
        <time>2023-09-03T08:40:51Z</time>
      </trkpt>
      <trkpt lat="49.47484" lon="0.35379">
        <ele>5.8</ele>
        <time>2023-09-03T08:40:52Z</time>
      </trkpt>
      <trkpt lat="49.4749" lon="0.35381">
        <ele>6</ele>
        <time>2023-09-03T08:40:53Z</time>
      </trkpt>
      <trkpt lat="49.47496" lon="0.35382">
        <ele>6.2</ele>
        <time>2023-09-03T08:40:54Z</time>
      </trkpt>
      <trkpt lat="49.47502" lon="0.35383">
        <ele>6.4</ele>
        <time>2023-09-03T08:40:55Z</time>
      </trkpt>
      <trkpt lat="49.47508" lon="0.35385">
        <ele>6.5</ele>
        <time>2023-09-03T08:40:56Z</time>
      </trkpt>
      <trkpt lat="49.47514" lon="0.35386">
        <ele>6.6</ele>
        <time>2023-09-03T08:40:57Z</time>
      </trkpt>
      <trkpt lat="49.4752" lon="0.35387">
        <ele>6.8</ele>
        <time>2023-09-03T08:40:58Z</time>
      </trkpt>
      <trkpt lat="49.47527" lon="0.35389">
        <ele>7</ele>
        <time>2023-09-03T08:40:59Z</time>
      </trkpt>
      <trkpt lat="49.47533" lon="0.35391">
        <ele>7.2</ele>
        <time>2023-09-03T08:41:00Z</time>
      </trkpt>
      <trkpt lat="49.47539" lon="0.35392">
        <ele>7.4</ele>
        <time>2023-09-03T08:41:01Z</time>
      </trkpt>
      <trkpt lat="49.47545" lon="0.35393">
        <ele>7.5</ele>
        <time>2023-09-03T08:41:02Z</time>
      </trkpt>
      <trkpt lat="49.47551" lon="0.35394">
        <ele>7.7</ele>
        <time>2023-09-03T08:41:03Z</time>
      </trkpt>
      <trkpt lat="49.47557" lon="0.35395">
        <ele>7.9</ele>
        <time>2023-09-03T08:41:04Z</time>
      </trkpt>
      <trkpt lat="49.47563" lon="0.35396">
        <ele>8.1</ele>
        <time>2023-09-03T08:41:05Z</time>
      </trkpt>
      <trkpt lat="49.47569" lon="0.35397">
        <ele>8.2</ele>
        <time>2023-09-03T08:41:06Z</time>
      </trkpt>
      <trkpt lat="49.47575" lon="0.35398">
        <ele>8.4</ele>
        <time>2023-09-03T08:41:07Z</time>
      </trkpt>
      <trkpt lat="49.47581" lon="0.35399">
        <ele>8.6</ele>
        <time>2023-09-03T08:41:08Z</time>
      </trkpt>
      <trkpt lat="49.47586" lon="0.354">
        <ele>8.8</ele>
        <time>2023-09-03T08:41:09Z</time>
      </trkpt>
      <trkpt lat="49.47592" lon="0.35401">
        <ele>9</ele>
        <time>2023-09-03T08:41:10Z</time>
      </trkpt>
      <trkpt lat="49.47598" lon="0.35402">
        <ele>9.2</ele>
        <time>2023-09-03T08:41:11Z</time>
      </trkpt>
      <trkpt lat="49.47604" lon="0.35402">
        <ele>9.4</ele>
        <time>2023-09-03T08:41:12Z</time>
      </trkpt>
      <trkpt lat="49.4761" lon="0.35402">
        <ele>9.7</ele>
        <time>2023-09-03T08:41:13Z</time>
      </trkpt>
      <trkpt lat="49.47616" lon="0.35402">
        <ele>9.9</ele>
        <time>2023-09-03T08:41:14Z</time>
      </trkpt>
      <trkpt lat="49.47622" lon="0.35403">
        <ele>10.2</ele>
        <time>2023-09-03T08:41:15Z</time>
      </trkpt>
      <trkpt lat="49.47628" lon="0.35403">
        <ele>10.3</ele>
        <time>2023-09-03T08:41:16Z</time>
      </trkpt>
      <trkpt lat="49.47635" lon="0.35404">
        <ele>10.5</ele>
        <time>2023-09-03T08:41:17Z</time>
      </trkpt>
      <trkpt lat="49.47641" lon="0.35404">
        <ele>10.7</ele>
        <time>2023-09-03T08:41:18Z</time>
      </trkpt>
      <trkpt lat="49.47646" lon="0.35404">
        <ele>10.9</ele>
        <time>2023-09-03T08:41:19Z</time>
      </trkpt>
      <trkpt lat="49.47652" lon="0.35404">
        <ele>11</ele>
        <time>2023-09-03T08:41:20Z</time>
      </trkpt>
      <trkpt lat="49.47658" lon="0.35404">
        <ele>11.2</ele>
        <time>2023-09-03T08:41:21Z</time>
      </trkpt>
      <trkpt lat="49.47664" lon="0.35405">
        <ele>11.3</ele>
        <time>2023-09-03T08:41:22Z</time>
      </trkpt>
      <trkpt lat="49.4767" lon="0.35405">
        <ele>11.5</ele>
        <time>2023-09-03T08:41:23Z</time>
      </trkpt>
      <trkpt lat="49.47676" lon="0.35406">
        <ele>11.6</ele>
        <time>2023-09-03T08:41:24Z</time>
      </trkpt>
      <trkpt lat="49.47682" lon="0.35406">
        <ele>11.7</ele>
        <time>2023-09-03T08:41:25Z</time>
      </trkpt>
      <trkpt lat="49.47688" lon="0.35407">
        <ele>11.8</ele>
        <time>2023-09-03T08:41:26Z</time>
      </trkpt>
      <trkpt lat="49.47694" lon="0.35407">
        <ele>11.9</ele>
        <time>2023-09-03T08:41:27Z</time>
      </trkpt>
      <trkpt lat="49.477" lon="0.35408">
        <ele>12.1</ele>
        <time>2023-09-03T08:41:28Z</time>
      </trkpt>
      <trkpt lat="49.47706" lon="0.35408">
        <ele>12.2</ele>
        <time>2023-09-03T08:41:29Z</time>
      </trkpt>
      <trkpt lat="49.47713" lon="0.35408">
        <ele>12.3</ele>
        <time>2023-09-03T08:41:30Z</time>
      </trkpt>
      <trkpt lat="49.47719" lon="0.35409">
        <ele>12.4</ele>
        <time>2023-09-03T08:41:31Z</time>
      </trkpt>
      <trkpt lat="49.47725" lon="0.3541">
        <ele>12.5</ele>
        <time>2023-09-03T08:41:32Z</time>
      </trkpt>
      <trkpt lat="49.47732" lon="0.3541">
        <ele>12.6</ele>
        <time>2023-09-03T08:41:33Z</time>
      </trkpt>
      <trkpt lat="49.47738" lon="0.35411">
        <ele>12.7</ele>
        <time>2023-09-03T08:41:34Z</time>
      </trkpt>
      <trkpt lat="49.47745" lon="0.35411">
        <ele>12.7</ele>
        <time>2023-09-03T08:41:35Z</time>
      </trkpt>
      <trkpt lat="49.47752" lon="0.35411">
        <ele>12.8</ele>
        <time>2023-09-03T08:41:36Z</time>
      </trkpt>
      <trkpt lat="49.47758" lon="0.35411">
        <ele>12.9</ele>
        <time>2023-09-03T08:41:37Z</time>
      </trkpt>
      <trkpt lat="49.47765" lon="0.35412">
        <ele>13</ele>
        <time>2023-09-03T08:41:38Z</time>
      </trkpt>
      <trkpt lat="49.47771" lon="0.35412">
        <ele>13</ele>
        <time>2023-09-03T08:41:39Z</time>
      </trkpt>
      <trkpt lat="49.47777" lon="0.35412">
        <ele>13.1</ele>
        <time>2023-09-03T08:41:40Z</time>
      </trkpt>
      <trkpt lat="49.47784" lon="0.35412">
        <ele>13.1</ele>
        <time>2023-09-03T08:41:41Z</time>
      </trkpt>
      <trkpt lat="49.47791" lon="0.35413">
        <ele>13.1</ele>
        <time>2023-09-03T08:41:42Z</time>
      </trkpt>
      <trkpt lat="49.47797" lon="0.35413">
        <ele>13.1</ele>
        <time>2023-09-03T08:41:43Z</time>
      </trkpt>
      <trkpt lat="49.47804" lon="0.35414">
        <ele>13.1</ele>
        <time>2023-09-03T08:41:44Z</time>
      </trkpt>
      <trkpt lat="49.47811" lon="0.35414">
        <ele>13.1</ele>
        <time>2023-09-03T08:41:45Z</time>
      </trkpt>
      <trkpt lat="49.47818" lon="0.35415">
        <ele>13</ele>
        <time>2023-09-03T08:41:46Z</time>
      </trkpt>
      <trkpt lat="49.47825" lon="0.35415">
        <ele>13</ele>
        <time>2023-09-03T08:41:47Z</time>
      </trkpt>
      <trkpt lat="49.47832" lon="0.35415">
        <ele>13</ele>
        <time>2023-09-03T08:41:48Z</time>
      </trkpt>
      <trkpt lat="49.47839" lon="0.35415">
        <ele>12.9</ele>
        <time>2023-09-03T08:41:49Z</time>
      </trkpt>
      <trkpt lat="49.47846" lon="0.35416">
        <ele>12.9</ele>
        <time>2023-09-03T08:41:50Z</time>
      </trkpt>
      <trkpt lat="49.47854" lon="0.35416">
        <ele>12.8</ele>
        <time>2023-09-03T08:41:51Z</time>
      </trkpt>
      <trkpt lat="49.47861" lon="0.35416">
        <ele>12.8</ele>
        <time>2023-09-03T08:41:52Z</time>
      </trkpt>
      <trkpt lat="49.47868" lon="0.35417">
        <ele>12.8</ele>
        <time>2023-09-03T08:41:53Z</time>
      </trkpt>
      <trkpt lat="49.47876" lon="0.35418">
        <ele>12.7</ele>
        <time>2023-09-03T08:41:54Z</time>
      </trkpt>
      <trkpt lat="49.47883" lon="0.35419">
        <ele>12.7</ele>
        <time>2023-09-03T08:41:55Z</time>
      </trkpt>
      <trkpt lat="49.4789" lon="0.3542">
        <ele>12.7</ele>
        <time>2023-09-03T08:41:56Z</time>
      </trkpt>
      <trkpt lat="49.47897" lon="0.3542">
        <ele>12.7</ele>
        <time>2023-09-03T08:41:57Z</time>
      </trkpt>
      <trkpt lat="49.47904" lon="0.35421">
        <ele>12.7</ele>
        <time>2023-09-03T08:41:58Z</time>
      </trkpt>
      <trkpt lat="49.47911" lon="0.35422">
        <ele>12.7</ele>
        <time>2023-09-03T08:41:59Z</time>
      </trkpt>
      <trkpt lat="49.47919" lon="0.35423">
        <ele>12.7</ele>
        <time>2023-09-03T08:42:00Z</time>
      </trkpt>
      <trkpt lat="49.47926" lon="0.35424">
        <ele>12.6</ele>
        <time>2023-09-03T08:42:01Z</time>
      </trkpt>
      <trkpt lat="49.47933" lon="0.35425">
        <ele>12.6</ele>
        <time>2023-09-03T08:42:02Z</time>
      </trkpt>
      <trkpt lat="49.4794" lon="0.35426">
        <ele>12.6</ele>
        <time>2023-09-03T08:42:03Z</time>
      </trkpt>
      <trkpt lat="49.47947" lon="0.35427">
        <ele>12.6</ele>
        <time>2023-09-03T08:42:04Z</time>
      </trkpt>
      <trkpt lat="49.47954" lon="0.35428">
        <ele>12.6</ele>
        <time>2023-09-03T08:42:05Z</time>
      </trkpt>
      <trkpt lat="49.47961" lon="0.35429">
        <ele>12.6</ele>
        <time>2023-09-03T08:42:06Z</time>
      </trkpt>
      <trkpt lat="49.47968" lon="0.3543">
        <ele>12.5</ele>
        <time>2023-09-03T08:42:07Z</time>
      </trkpt>
      <trkpt lat="49.47975" lon="0.35431">
        <ele>12.5</ele>
        <time>2023-09-03T08:42:08Z</time>
      </trkpt>
      <trkpt lat="49.47982" lon="0.35432">
        <ele>12.5</ele>
        <time>2023-09-03T08:42:09Z</time>
      </trkpt>
      <trkpt lat="49.47989" lon="0.35433">
        <ele>12.6</ele>
        <time>2023-09-03T08:42:10Z</time>
      </trkpt>
      <trkpt lat="49.47997" lon="0.35434">
        <ele>12.5</ele>
        <time>2023-09-03T08:42:11Z</time>
      </trkpt>
      <trkpt lat="49.48004" lon="0.35436">
        <ele>12.5</ele>
        <time>2023-09-03T08:42:12Z</time>
      </trkpt>
      <trkpt lat="49.48012" lon="0.35438">
        <ele>12.5</ele>
        <time>2023-09-03T08:42:13Z</time>
      </trkpt>
      <trkpt lat="49.48019" lon="0.3544">
        <ele>12.5</ele>
        <time>2023-09-03T08:42:14Z</time>
      </trkpt>
      <trkpt lat="49.48027" lon="0.35442">
        <ele>12.5</ele>
        <time>2023-09-03T08:42:15Z</time>
      </trkpt>
      <trkpt lat="49.48034" lon="0.35443">
        <ele>12.5</ele>
        <time>2023-09-03T08:42:16Z</time>
      </trkpt>
      <trkpt lat="49.48042" lon="0.35445">
        <ele>12.6</ele>
        <time>2023-09-03T08:42:17Z</time>
      </trkpt>
      <trkpt lat="49.48049" lon="0.35447">
        <ele>12.6</ele>
        <time>2023-09-03T08:42:18Z</time>
      </trkpt>
      <trkpt lat="49.48056" lon="0.35449">
        <ele>12.6</ele>
        <time>2023-09-03T08:42:19Z</time>
      </trkpt>
      <trkpt lat="49.48063" lon="0.35451">
        <ele>12.6</ele>
        <time>2023-09-03T08:42:20Z</time>
      </trkpt>
      <trkpt lat="49.4807" lon="0.35454">
        <ele>12.5</ele>
        <time>2023-09-03T08:42:21Z</time>
      </trkpt>
      <trkpt lat="49.48077" lon="0.35456">
        <ele>12.5</ele>
        <time>2023-09-03T08:42:22Z</time>
      </trkpt>
      <trkpt lat="49.48085" lon="0.35459">
        <ele>12.5</ele>
        <time>2023-09-03T08:42:23Z</time>
      </trkpt>
      <trkpt lat="49.48092" lon="0.35462">
        <ele>12.5</ele>
        <time>2023-09-03T08:42:24Z</time>
      </trkpt>
      <trkpt lat="49.48099" lon="0.35464">
        <ele>12.5</ele>
        <time>2023-09-03T08:42:25Z</time>
      </trkpt>
      <trkpt lat="49.48107" lon="0.35468">
        <ele>12.5</ele>
        <time>2023-09-03T08:42:26Z</time>
      </trkpt>
      <trkpt lat="49.48114" lon="0.35471">
        <ele>12.5</ele>
        <time>2023-09-03T08:42:27Z</time>
      </trkpt>
      <trkpt lat="49.48122" lon="0.35474">
        <ele>12.5</ele>
        <time>2023-09-03T08:42:28Z</time>
      </trkpt>
      <trkpt lat="49.48129" lon="0.35478">
        <ele>12.5</ele>
        <time>2023-09-03T08:42:29Z</time>
      </trkpt>
      <trkpt lat="49.48136" lon="0.35481">
        <ele>12.5</ele>
        <time>2023-09-03T08:42:30Z</time>
      </trkpt>
      <trkpt lat="49.48144" lon="0.35486">
        <ele>12.5</ele>
        <time>2023-09-03T08:42:31Z</time>
      </trkpt>
      <trkpt lat="49.48151" lon="0.3549">
        <ele>12.4</ele>
        <time>2023-09-03T08:42:32Z</time>
      </trkpt>
      <trkpt lat="49.48158" lon="0.35494">
        <ele>12.4</ele>
        <time>2023-09-03T08:42:33Z</time>
      </trkpt>
      <trkpt lat="49.48166" lon="0.35498">
        <ele>12.4</ele>
        <time>2023-09-03T08:42:34Z</time>
      </trkpt>
      <trkpt lat="49.48173" lon="0.35502">
        <ele>12.4</ele>
        <time>2023-09-03T08:42:35Z</time>
      </trkpt>
      <trkpt lat="49.4818" lon="0.35505">
        <ele>12.4</ele>
        <time>2023-09-03T08:42:36Z</time>
      </trkpt>
      <trkpt lat="49.48187" lon="0.35509">
        <ele>12.4</ele>
        <time>2023-09-03T08:42:37Z</time>
      </trkpt>
      <trkpt lat="49.48194" lon="0.35514">
        <ele>12.4</ele>
        <time>2023-09-03T08:42:38Z</time>
      </trkpt>
      <trkpt lat="49.48201" lon="0.35518">
        <ele>12.4</ele>
        <time>2023-09-03T08:42:39Z</time>
      </trkpt>
      <trkpt lat="49.48209" lon="0.35523">
        <ele>12.3</ele>
        <time>2023-09-03T08:42:40Z</time>
      </trkpt>
      <trkpt lat="49.48216" lon="0.35528">
        <ele>12.3</ele>
        <time>2023-09-03T08:42:41Z</time>
      </trkpt>
      <trkpt lat="49.48223" lon="0.35533">
        <ele>12.2</ele>
        <time>2023-09-03T08:42:42Z</time>
      </trkpt>
      <trkpt lat="49.4823" lon="0.35538">
        <ele>12.1</ele>
        <time>2023-09-03T08:42:43Z</time>
      </trkpt>
      <trkpt lat="49.48237" lon="0.35544">
        <ele>12.1</ele>
        <time>2023-09-03T08:42:44Z</time>
      </trkpt>
      <trkpt lat="49.48244" lon="0.35549">
        <ele>12</ele>
        <time>2023-09-03T08:42:45Z</time>
      </trkpt>
      <trkpt lat="49.48251" lon="0.35554">
        <ele>12</ele>
        <time>2023-09-03T08:42:46Z</time>
      </trkpt>
      <trkpt lat="49.48258" lon="0.3556">
        <ele>11.9</ele>
        <time>2023-09-03T08:42:47Z</time>
      </trkpt>
      <trkpt lat="49.48265" lon="0.35566">
        <ele>11.7</ele>
        <time>2023-09-03T08:42:48Z</time>
      </trkpt>
      <trkpt lat="49.48272" lon="0.35571">
        <ele>11.6</ele>
        <time>2023-09-03T08:42:49Z</time>
      </trkpt>
      <trkpt lat="49.48279" lon="0.35577">
        <ele>11.4</ele>
        <time>2023-09-03T08:42:50Z</time>
      </trkpt>
      <trkpt lat="49.48286" lon="0.35584">
        <ele>11.2</ele>
        <time>2023-09-03T08:42:51Z</time>
      </trkpt>
      <trkpt lat="49.48293" lon="0.35589">
        <ele>11.1</ele>
        <time>2023-09-03T08:42:52Z</time>
      </trkpt>
      <trkpt lat="49.483" lon="0.35595">
        <ele>10.9</ele>
        <time>2023-09-03T08:42:53Z</time>
      </trkpt>
      <trkpt lat="49.48308" lon="0.35601">
        <ele>10.7</ele>
        <time>2023-09-03T08:42:54Z</time>
      </trkpt>
      <trkpt lat="49.48315" lon="0.35608">
        <ele>10.5</ele>
        <time>2023-09-03T08:42:55Z</time>
      </trkpt>
      <trkpt lat="49.48321" lon="0.35615">
        <ele>10.3</ele>
        <time>2023-09-03T08:42:56Z</time>
      </trkpt>
      <trkpt lat="49.48328" lon="0.35621">
        <ele>10.2</ele>
        <time>2023-09-03T08:42:57Z</time>
      </trkpt>
      <trkpt lat="49.48334" lon="0.35627">
        <ele>10</ele>
        <time>2023-09-03T08:42:58Z</time>
      </trkpt>
      <trkpt lat="49.48339" lon="0.35633">
        <ele>9.8</ele>
        <time>2023-09-03T08:42:59Z</time>
      </trkpt>
      <trkpt lat="49.48345" lon="0.35638">
        <ele>9.7</ele>
        <time>2023-09-03T08:43:00Z</time>
      </trkpt>
      <trkpt lat="49.48351" lon="0.35644">
        <ele>9.5</ele>
        <time>2023-09-03T08:43:01Z</time>
      </trkpt>
      <trkpt lat="49.48356" lon="0.3565">
        <ele>9.3</ele>
        <time>2023-09-03T08:43:02Z</time>
      </trkpt>
      <trkpt lat="49.48361" lon="0.35656">
        <ele>9.2</ele>
        <time>2023-09-03T08:43:03Z</time>
      </trkpt>
      <trkpt lat="49.48367" lon="0.35662">
        <ele>9</ele>
        <time>2023-09-03T08:43:04Z</time>
      </trkpt>
      <trkpt lat="49.48372" lon="0.35668">
        <ele>8.9</ele>
        <time>2023-09-03T08:43:05Z</time>
      </trkpt>
      <trkpt lat="49.48377" lon="0.35674">
        <ele>8.7</ele>
        <time>2023-09-03T08:43:06Z</time>
      </trkpt>
      <trkpt lat="49.48383" lon="0.35681">
        <ele>8.5</ele>
        <time>2023-09-03T08:43:07Z</time>
      </trkpt>
      <trkpt lat="49.48389" lon="0.35688">
        <ele>8.3</ele>
        <time>2023-09-03T08:43:08Z</time>
      </trkpt>
      <trkpt lat="49.48395" lon="0.35696">
        <ele>8.1</ele>
        <time>2023-09-03T08:43:09Z</time>
      </trkpt>
      <trkpt lat="49.48401" lon="0.35703">
        <ele>7.9</ele>
        <time>2023-09-03T08:43:10Z</time>
      </trkpt>
      <trkpt lat="49.48406" lon="0.3571">
        <ele>7.7</ele>
        <time>2023-09-03T08:43:11Z</time>
      </trkpt>
      <trkpt lat="49.48412" lon="0.35716">
        <ele>7.5</ele>
        <time>2023-09-03T08:43:12Z</time>
      </trkpt>
      <trkpt lat="49.48418" lon="0.35721">
        <ele>7.3</ele>
        <time>2023-09-03T08:43:13Z</time>
      </trkpt>
      <trkpt lat="49.48425" lon="0.35724">
        <ele>7.1</ele>
        <time>2023-09-03T08:43:14Z</time>
      </trkpt>
      <trkpt lat="49.48432" lon="0.35725">
        <ele>6.9</ele>
        <time>2023-09-03T08:43:15Z</time>
      </trkpt>
      <trkpt lat="49.4844" lon="0.35725">
        <ele>6.8</ele>
        <time>2023-09-03T08:43:16Z</time>
      </trkpt>
      <trkpt lat="49.48447" lon="0.35724">
        <ele>6.7</ele>
        <time>2023-09-03T08:43:17Z</time>
      </trkpt>
      <trkpt lat="49.48454" lon="0.35725">
        <ele>6.6</ele>
        <time>2023-09-03T08:43:18Z</time>
      </trkpt>
      <trkpt lat="49.4846" lon="0.3573">
        <ele>6.6</ele>
        <time>2023-09-03T08:43:19Z</time>
      </trkpt>
      <trkpt lat="49.48465" lon="0.35737">
        <ele>6.6</ele>
        <time>2023-09-03T08:43:20Z</time>
      </trkpt>
      <trkpt lat="49.48468" lon="0.35746">
        <ele>6.6</ele>
        <time>2023-09-03T08:43:21Z</time>
      </trkpt>
      <trkpt lat="49.48472" lon="0.35755">
        <ele>6.5</ele>
        <time>2023-09-03T08:43:22Z</time>
      </trkpt>
      <trkpt lat="49.48476" lon="0.35764">
        <ele>6.5</ele>
        <time>2023-09-03T08:43:23Z</time>
      </trkpt>
      <trkpt lat="49.4848" lon="0.35772">
        <ele>6.5</ele>
        <time>2023-09-03T08:43:24Z</time>
      </trkpt>
      <trkpt lat="49.48485" lon="0.3578">
        <ele>6.6</ele>
        <time>2023-09-03T08:43:25Z</time>
      </trkpt>
      <trkpt lat="49.48491" lon="0.35787">
        <ele>6.6</ele>
        <time>2023-09-03T08:43:26Z</time>
      </trkpt>
      <trkpt lat="49.48496" lon="0.35794">
        <ele>6.7</ele>
        <time>2023-09-03T08:43:27Z</time>
      </trkpt>
      <trkpt lat="49.48501" lon="0.358">
        <ele>6.7</ele>
        <time>2023-09-03T08:43:28Z</time>
      </trkpt>
      <trkpt lat="49.48507" lon="0.35806">
        <ele>6.7</ele>
        <time>2023-09-03T08:43:29Z</time>
      </trkpt>
      <trkpt lat="49.48512" lon="0.35812">
        <ele>6.7</ele>
        <time>2023-09-03T08:43:30Z</time>
      </trkpt>
      <trkpt lat="49.48518" lon="0.35818">
        <ele>6.7</ele>
        <time>2023-09-03T08:43:31Z</time>
      </trkpt>
      <trkpt lat="49.48523" lon="0.35824">
        <ele>6.6</ele>
        <time>2023-09-03T08:43:32Z</time>
      </trkpt>
      <trkpt lat="49.48529" lon="0.35831">
        <ele>6.6</ele>
        <time>2023-09-03T08:43:33Z</time>
      </trkpt>
      <trkpt lat="49.48535" lon="0.35838">
        <ele>6.7</ele>
        <time>2023-09-03T08:43:34Z</time>
      </trkpt>
      <trkpt lat="49.4854" lon="0.35845">
        <ele>6.7</ele>
        <time>2023-09-03T08:43:35Z</time>
      </trkpt>
      <trkpt lat="49.48543" lon="0.35852">
        <ele>6.8</ele>
        <time>2023-09-03T08:43:36Z</time>
      </trkpt>
      <trkpt lat="49.48546" lon="0.35859">
        <ele>6.8</ele>
        <time>2023-09-03T08:43:37Z</time>
      </trkpt>
      <trkpt lat="49.48549" lon="0.35866">
        <ele>6.8</ele>
        <time>2023-09-03T08:43:38Z</time>
      </trkpt>
      <trkpt lat="49.48551" lon="0.35874">
        <ele>6.8</ele>
        <time>2023-09-03T08:43:39Z</time>
      </trkpt>
      <trkpt lat="49.48553" lon="0.35881">
        <ele>6.8</ele>
        <time>2023-09-03T08:43:40Z</time>
      </trkpt>
      <trkpt lat="49.48555" lon="0.35889">
        <ele>6.8</ele>
        <time>2023-09-03T08:43:41Z</time>
      </trkpt>
      <trkpt lat="49.48557" lon="0.35898">
        <ele>6.8</ele>
        <time>2023-09-03T08:43:42Z</time>
      </trkpt>
      <trkpt lat="49.48558" lon="0.35908">
        <ele>6.8</ele>
        <time>2023-09-03T08:43:43Z</time>
      </trkpt>
      <trkpt lat="49.48559" lon="0.35918">
        <ele>6.7</ele>
        <time>2023-09-03T08:43:44Z</time>
      </trkpt>
      <trkpt lat="49.4856" lon="0.35928">
        <ele>6.6</ele>
        <time>2023-09-03T08:43:45Z</time>
      </trkpt>
      <trkpt lat="49.4856" lon="0.35937">
        <ele>6.6</ele>
        <time>2023-09-03T08:43:46Z</time>
      </trkpt>
      <trkpt lat="49.4856" lon="0.35948">
        <ele>6.6</ele>
        <time>2023-09-03T08:43:47Z</time>
      </trkpt>
      <trkpt lat="49.48561" lon="0.35957">
        <ele>6.7</ele>
        <time>2023-09-03T08:43:48Z</time>
      </trkpt>
      <trkpt lat="49.48561" lon="0.35967">
        <ele>6.7</ele>
        <time>2023-09-03T08:43:49Z</time>
      </trkpt>
      <trkpt lat="49.48561" lon="0.35977">
        <ele>6.8</ele>
        <time>2023-09-03T08:43:50Z</time>
      </trkpt>
      <trkpt lat="49.48561" lon="0.35987">
        <ele>6.8</ele>
        <time>2023-09-03T08:43:51Z</time>
      </trkpt>
      <trkpt lat="49.48562" lon="0.35997">
        <ele>6.8</ele>
        <time>2023-09-03T08:43:52Z</time>
      </trkpt>
      <trkpt lat="49.48564" lon="0.36006">
        <ele>6.8</ele>
        <time>2023-09-03T08:43:53Z</time>
      </trkpt>
      <trkpt lat="49.48565" lon="0.36016">
        <ele>6.8</ele>
        <time>2023-09-03T08:43:54Z</time>
      </trkpt>
      <trkpt lat="49.48567" lon="0.36026">
        <ele>6.8</ele>
        <time>2023-09-03T08:43:55Z</time>
      </trkpt>
      <trkpt lat="49.4857" lon="0.36036">
        <ele>6.7</ele>
        <time>2023-09-03T08:43:56Z</time>
      </trkpt>
      <trkpt lat="49.48573" lon="0.36045">
        <ele>6.7</ele>
        <time>2023-09-03T08:43:57Z</time>
      </trkpt>
      <trkpt lat="49.48575" lon="0.36055">
        <ele>6.7</ele>
        <time>2023-09-03T08:43:58Z</time>
      </trkpt>
      <trkpt lat="49.48578" lon="0.36064">
        <ele>6.7</ele>
        <time>2023-09-03T08:43:59Z</time>
      </trkpt>
      <trkpt lat="49.4858" lon="0.36073">
        <ele>6.7</ele>
        <time>2023-09-03T08:44:00Z</time>
      </trkpt>
      <trkpt lat="49.48583" lon="0.36083">
        <ele>6.7</ele>
        <time>2023-09-03T08:44:01Z</time>
      </trkpt>
      <trkpt lat="49.48585" lon="0.36092">
        <ele>6.7</ele>
        <time>2023-09-03T08:44:02Z</time>
      </trkpt>
      <trkpt lat="49.48588" lon="0.36101">
        <ele>6.7</ele>
        <time>2023-09-03T08:44:03Z</time>
      </trkpt>
      <trkpt lat="49.4859" lon="0.3611">
        <ele>6.7</ele>
        <time>2023-09-03T08:44:04Z</time>
      </trkpt>
      <trkpt lat="49.48593" lon="0.3612">
        <ele>6.7</ele>
        <time>2023-09-03T08:44:05Z</time>
      </trkpt>
      <trkpt lat="49.48595" lon="0.36129">
        <ele>6.7</ele>
        <time>2023-09-03T08:44:06Z</time>
      </trkpt>
      <trkpt lat="49.48598" lon="0.36138">
        <ele>6.8</ele>
        <time>2023-09-03T08:44:07Z</time>
      </trkpt>
      <trkpt lat="49.486" lon="0.36147">
        <ele>6.8</ele>
        <time>2023-09-03T08:44:08Z</time>
      </trkpt>
      <trkpt lat="49.48602" lon="0.36157">
        <ele>6.7</ele>
        <time>2023-09-03T08:44:09Z</time>
      </trkpt>
      <trkpt lat="49.48604" lon="0.36167">
        <ele>6.7</ele>
        <time>2023-09-03T08:44:10Z</time>
      </trkpt>
      <trkpt lat="49.48605" lon="0.36177">
        <ele>6.7</ele>
        <time>2023-09-03T08:44:11Z</time>
      </trkpt>
      <trkpt lat="49.48607" lon="0.36186">
        <ele>6.7</ele>
        <time>2023-09-03T08:44:12Z</time>
      </trkpt>
      <trkpt lat="49.48609" lon="0.36196">
        <ele>6.7</ele>
        <time>2023-09-03T08:44:13Z</time>
      </trkpt>
      <trkpt lat="49.48611" lon="0.36206">
        <ele>6.8</ele>
        <time>2023-09-03T08:44:14Z</time>
      </trkpt>
      <trkpt lat="49.48613" lon="0.36216">
        <ele>6.8</ele>
        <time>2023-09-03T08:44:15Z</time>
      </trkpt>
      <trkpt lat="49.48615" lon="0.36226">
        <ele>6.8</ele>
        <time>2023-09-03T08:44:16Z</time>
      </trkpt>
      <trkpt lat="49.48617" lon="0.36235">
        <ele>6.8</ele>
        <time>2023-09-03T08:44:17Z</time>
      </trkpt>
      <trkpt lat="49.48619" lon="0.36245">
        <ele>6.8</ele>
        <time>2023-09-03T08:44:18Z</time>
      </trkpt>
      <trkpt lat="49.48621" lon="0.36255">
        <ele>6.8</ele>
        <time>2023-09-03T08:44:19Z</time>
      </trkpt>
      <trkpt lat="49.48622" lon="0.36266">
        <ele>6.7</ele>
        <time>2023-09-03T08:44:20Z</time>
      </trkpt>
      <trkpt lat="49.48624" lon="0.36276">
        <ele>6.8</ele>
        <time>2023-09-03T08:44:21Z</time>
      </trkpt>
      <trkpt lat="49.48626" lon="0.36287">
        <ele>6.8</ele>
        <time>2023-09-03T08:44:22Z</time>
      </trkpt>
      <trkpt lat="49.48628" lon="0.36297">
        <ele>6.8</ele>
        <time>2023-09-03T08:44:23Z</time>
      </trkpt>
      <trkpt lat="49.48631" lon="0.36307">
        <ele>6.8</ele>
        <time>2023-09-03T08:44:24Z</time>
      </trkpt>
      <trkpt lat="49.48632" lon="0.36318">
        <ele>6.7</ele>
        <time>2023-09-03T08:44:25Z</time>
      </trkpt>
      <trkpt lat="49.48634" lon="0.36328">
        <ele>6.7</ele>
        <time>2023-09-03T08:44:26Z</time>
      </trkpt>
      <trkpt lat="49.48636" lon="0.36339">
        <ele>6.7</ele>
        <time>2023-09-03T08:44:27Z</time>
      </trkpt>
      <trkpt lat="49.48638" lon="0.3635">
        <ele>6.7</ele>
        <time>2023-09-03T08:44:28Z</time>
      </trkpt>
      <trkpt lat="49.4864" lon="0.3636">
        <ele>6.7</ele>
        <time>2023-09-03T08:44:29Z</time>
      </trkpt>
      <trkpt lat="49.48643" lon="0.36371">
        <ele>6.7</ele>
        <time>2023-09-03T08:44:30Z</time>
      </trkpt>
      <trkpt lat="49.48645" lon="0.36382">
        <ele>6.7</ele>
        <time>2023-09-03T08:44:31Z</time>
      </trkpt>
      <trkpt lat="49.48647" lon="0.36392">
        <ele>6.7</ele>
        <time>2023-09-03T08:44:32Z</time>
      </trkpt>
      <trkpt lat="49.48648" lon="0.36403">
        <ele>6.7</ele>
        <time>2023-09-03T08:44:33Z</time>
      </trkpt>
      <trkpt lat="49.4865" lon="0.36414">
        <ele>6.6</ele>
        <time>2023-09-03T08:44:34Z</time>
      </trkpt>
      <trkpt lat="49.48653" lon="0.36425">
        <ele>6.6</ele>
        <time>2023-09-03T08:44:35Z</time>
      </trkpt>
      <trkpt lat="49.48655" lon="0.36436">
        <ele>6.6</ele>
        <time>2023-09-03T08:44:36Z</time>
      </trkpt>
      <trkpt lat="49.48657" lon="0.36447">
        <ele>6.6</ele>
        <time>2023-09-03T08:44:37Z</time>
      </trkpt>
      <trkpt lat="49.48659" lon="0.36458">
        <ele>6.6</ele>
        <time>2023-09-03T08:44:38Z</time>
      </trkpt>
      <trkpt lat="49.48661" lon="0.36468">
        <ele>6.6</ele>
        <time>2023-09-03T08:44:39Z</time>
      </trkpt>
      <trkpt lat="49.48663" lon="0.36479">
        <ele>6.7</ele>
        <time>2023-09-03T08:44:40Z</time>
      </trkpt>
      <trkpt lat="49.48665" lon="0.3649">
        <ele>6.7</ele>
        <time>2023-09-03T08:44:41Z</time>
      </trkpt>
      <trkpt lat="49.48667" lon="0.36501">
        <ele>6.8</ele>
        <time>2023-09-03T08:44:42Z</time>
      </trkpt>
      <trkpt lat="49.48669" lon="0.36512">
        <ele>6.8</ele>
        <time>2023-09-03T08:44:43Z</time>
      </trkpt>
      <trkpt lat="49.48671" lon="0.36523">
        <ele>6.8</ele>
        <time>2023-09-03T08:44:44Z</time>
      </trkpt>
      <trkpt lat="49.48673" lon="0.36534">
        <ele>6.9</ele>
        <time>2023-09-03T08:44:45Z</time>
      </trkpt>
      <trkpt lat="49.48676" lon="0.36545">
        <ele>6.9</ele>
        <time>2023-09-03T08:44:46Z</time>
      </trkpt>
      <trkpt lat="49.48678" lon="0.36556">
        <ele>6.9</ele>
        <time>2023-09-03T08:44:47Z</time>
      </trkpt>
      <trkpt lat="49.4868" lon="0.36567">
        <ele>6.8</ele>
        <time>2023-09-03T08:44:48Z</time>
      </trkpt>
      <trkpt lat="49.48682" lon="0.36578">
        <ele>6.8</ele>
        <time>2023-09-03T08:44:49Z</time>
      </trkpt>
      <trkpt lat="49.48684" lon="0.36589">
        <ele>6.8</ele>
        <time>2023-09-03T08:44:50Z</time>
      </trkpt>
      <trkpt lat="49.48686" lon="0.366">
        <ele>6.8</ele>
        <time>2023-09-03T08:44:51Z</time>
      </trkpt>
      <trkpt lat="49.48688" lon="0.36611">
        <ele>6.8</ele>
        <time>2023-09-03T08:44:52Z</time>
      </trkpt>
      <trkpt lat="49.4869" lon="0.36622">
        <ele>6.8</ele>
        <time>2023-09-03T08:44:53Z</time>
      </trkpt>
      <trkpt lat="49.48692" lon="0.36633">
        <ele>6.8</ele>
        <time>2023-09-03T08:44:54Z</time>
      </trkpt>
      <trkpt lat="49.48695" lon="0.36644">
        <ele>6.8</ele>
        <time>2023-09-03T08:44:55Z</time>
      </trkpt>
      <trkpt lat="49.48697" lon="0.36655">
        <ele>6.8</ele>
        <time>2023-09-03T08:44:56Z</time>
      </trkpt>
      <trkpt lat="49.48699" lon="0.36667">
        <ele>6.8</ele>
        <time>2023-09-03T08:44:57Z</time>
      </trkpt>
      <trkpt lat="49.48702" lon="0.36678">
        <ele>6.8</ele>
        <time>2023-09-03T08:44:58Z</time>
      </trkpt>
      <trkpt lat="49.48704" lon="0.36689">
        <ele>6.7</ele>
        <time>2023-09-03T08:44:59Z</time>
      </trkpt>
      <trkpt lat="49.48706" lon="0.367">
        <ele>6.7</ele>
        <time>2023-09-03T08:45:00Z</time>
      </trkpt>
      <trkpt lat="49.48708" lon="0.36711">
        <ele>6.7</ele>
        <time>2023-09-03T08:45:01Z</time>
      </trkpt>
      <trkpt lat="49.4871" lon="0.36722">
        <ele>6.7</ele>
        <time>2023-09-03T08:45:02Z</time>
      </trkpt>
      <trkpt lat="49.48712" lon="0.36734">
        <ele>6.8</ele>
        <time>2023-09-03T08:45:03Z</time>
      </trkpt>
      <trkpt lat="49.48714" lon="0.36745">
        <ele>6.8</ele>
        <time>2023-09-03T08:45:04Z</time>
      </trkpt>
      <trkpt lat="49.48716" lon="0.36755">
        <ele>6.8</ele>
        <time>2023-09-03T08:45:05Z</time>
      </trkpt>
      <trkpt lat="49.48719" lon="0.36766">
        <ele>6.9</ele>
        <time>2023-09-03T08:45:06Z</time>
      </trkpt>
      <trkpt lat="49.48721" lon="0.36777">
        <ele>6.9</ele>
        <time>2023-09-03T08:45:07Z</time>
      </trkpt>
      <trkpt lat="49.48723" lon="0.36788">
        <ele>6.9</ele>
        <time>2023-09-03T08:45:08Z</time>
      </trkpt>
      <trkpt lat="49.48725" lon="0.36799">
        <ele>6.8</ele>
        <time>2023-09-03T08:45:09Z</time>
      </trkpt>
      <trkpt lat="49.48728" lon="0.3681">
        <ele>6.8</ele>
        <time>2023-09-03T08:45:10Z</time>
      </trkpt>
      <trkpt lat="49.4873" lon="0.36821">
        <ele>6.8</ele>
        <time>2023-09-03T08:45:11Z</time>
      </trkpt>
      <trkpt lat="49.48732" lon="0.36832">
        <ele>6.8</ele>
        <time>2023-09-03T08:45:12Z</time>
      </trkpt>
      <trkpt lat="49.48734" lon="0.36843">
        <ele>6.9</ele>
        <time>2023-09-03T08:45:13Z</time>
      </trkpt>
      <trkpt lat="49.48736" lon="0.36854">
        <ele>7</ele>
        <time>2023-09-03T08:45:14Z</time>
      </trkpt>
      <trkpt lat="49.48738" lon="0.36866">
        <ele>7</ele>
        <time>2023-09-03T08:45:15Z</time>
      </trkpt>
      <trkpt lat="49.48741" lon="0.36876">
        <ele>7.1</ele>
        <time>2023-09-03T08:45:16Z</time>
      </trkpt>
      <trkpt lat="49.48743" lon="0.36888">
        <ele>7.1</ele>
        <time>2023-09-03T08:45:17Z</time>
      </trkpt>
      <trkpt lat="49.48745" lon="0.36899">
        <ele>7.1</ele>
        <time>2023-09-03T08:45:18Z</time>
      </trkpt>
      <trkpt lat="49.48747" lon="0.3691">
        <ele>7</ele>
        <time>2023-09-03T08:45:19Z</time>
      </trkpt>
      <trkpt lat="49.48749" lon="0.36921">
        <ele>7</ele>
        <time>2023-09-03T08:45:20Z</time>
      </trkpt>
      <trkpt lat="49.48751" lon="0.36932">
        <ele>7</ele>
        <time>2023-09-03T08:45:21Z</time>
      </trkpt>
      <trkpt lat="49.48753" lon="0.36943">
        <ele>7</ele>
        <time>2023-09-03T08:45:22Z</time>
      </trkpt>
      <trkpt lat="49.48756" lon="0.36954">
        <ele>7</ele>
        <time>2023-09-03T08:45:23Z</time>
      </trkpt>
      <trkpt lat="49.48758" lon="0.36966">
        <ele>7</ele>
        <time>2023-09-03T08:45:24Z</time>
      </trkpt>
      <trkpt lat="49.4876" lon="0.36977">
        <ele>7</ele>
        <time>2023-09-03T08:45:25Z</time>
      </trkpt>
      <trkpt lat="49.48762" lon="0.36987">
        <ele>7</ele>
        <time>2023-09-03T08:45:26Z</time>
      </trkpt>
      <trkpt lat="49.48764" lon="0.36998">
        <ele>7</ele>
        <time>2023-09-03T08:45:27Z</time>
      </trkpt>
      <trkpt lat="49.48766" lon="0.37009">
        <ele>7</ele>
        <time>2023-09-03T08:45:28Z</time>
      </trkpt>
      <trkpt lat="49.48768" lon="0.3702">
        <ele>7</ele>
        <time>2023-09-03T08:45:29Z</time>
      </trkpt>
      <trkpt lat="49.48771" lon="0.37031">
        <ele>7</ele>
        <time>2023-09-03T08:45:30Z</time>
      </trkpt>
      <trkpt lat="49.48772" lon="0.37042">
        <ele>7</ele>
        <time>2023-09-03T08:45:31Z</time>
      </trkpt>
      <trkpt lat="49.48774" lon="0.37052">
        <ele>7</ele>
        <time>2023-09-03T08:45:32Z</time>
      </trkpt>
      <trkpt lat="49.48776" lon="0.37063">
        <ele>7</ele>
        <time>2023-09-03T08:45:33Z</time>
      </trkpt>
      <trkpt lat="49.48779" lon="0.37074">
        <ele>7</ele>
        <time>2023-09-03T08:45:34Z</time>
      </trkpt>
      <trkpt lat="49.48781" lon="0.37085">
        <ele>7</ele>
        <time>2023-09-03T08:45:35Z</time>
      </trkpt>
      <trkpt lat="49.48783" lon="0.37096">
        <ele>7</ele>
        <time>2023-09-03T08:45:36Z</time>
      </trkpt>
      <trkpt lat="49.48786" lon="0.37108">
        <ele>7</ele>
        <time>2023-09-03T08:45:37Z</time>
      </trkpt>
      <trkpt lat="49.48788" lon="0.37119">
        <ele>7</ele>
        <time>2023-09-03T08:45:38Z</time>
      </trkpt>
      <trkpt lat="49.4879" lon="0.37131">
        <ele>7</ele>
        <time>2023-09-03T08:45:39Z</time>
      </trkpt>
      <trkpt lat="49.48792" lon="0.37143">
        <ele>7</ele>
        <time>2023-09-03T08:45:40Z</time>
      </trkpt>
      <trkpt lat="49.48795" lon="0.37155">
        <ele>6.9</ele>
        <time>2023-09-03T08:45:41Z</time>
      </trkpt>
      <trkpt lat="49.48796" lon="0.37166">
        <ele>6.9</ele>
        <time>2023-09-03T08:45:42Z</time>
      </trkpt>
      <trkpt lat="49.48798" lon="0.37178">
        <ele>6.9</ele>
        <time>2023-09-03T08:45:43Z</time>
      </trkpt>
      <trkpt lat="49.48801" lon="0.37189">
        <ele>6.9</ele>
        <time>2023-09-03T08:45:44Z</time>
      </trkpt>
      <trkpt lat="49.48803" lon="0.372">
        <ele>6.9</ele>
        <time>2023-09-03T08:45:45Z</time>
      </trkpt>
      <trkpt lat="49.48805" lon="0.37212">
        <ele>6.9</ele>
        <time>2023-09-03T08:45:46Z</time>
      </trkpt>
      <trkpt lat="49.48807" lon="0.37223">
        <ele>6.9</ele>
        <time>2023-09-03T08:45:47Z</time>
      </trkpt>
      <trkpt lat="49.48809" lon="0.37234">
        <ele>6.9</ele>
        <time>2023-09-03T08:45:48Z</time>
      </trkpt>
      <trkpt lat="49.48811" lon="0.37245">
        <ele>7</ele>
        <time>2023-09-03T08:45:49Z</time>
      </trkpt>
      <trkpt lat="49.48813" lon="0.37257">
        <ele>7</ele>
        <time>2023-09-03T08:45:50Z</time>
      </trkpt>
      <trkpt lat="49.48815" lon="0.37268">
        <ele>7</ele>
        <time>2023-09-03T08:45:51Z</time>
      </trkpt>
      <trkpt lat="49.48817" lon="0.37279">
        <ele>7</ele>
        <time>2023-09-03T08:45:52Z</time>
      </trkpt>
      <trkpt lat="49.48819" lon="0.37291">
        <ele>7</ele>
        <time>2023-09-03T08:45:53Z</time>
      </trkpt>
      <trkpt lat="49.48822" lon="0.37302">
        <ele>7.1</ele>
        <time>2023-09-03T08:45:54Z</time>
      </trkpt>
      <trkpt lat="49.48824" lon="0.37314">
        <ele>7.1</ele>
        <time>2023-09-03T08:45:55Z</time>
      </trkpt>
      <trkpt lat="49.48826" lon="0.37325">
        <ele>7.1</ele>
        <time>2023-09-03T08:45:56Z</time>
      </trkpt>
      <trkpt lat="49.48828" lon="0.37337">
        <ele>7.1</ele>
        <time>2023-09-03T08:45:57Z</time>
      </trkpt>
      <trkpt lat="49.4883" lon="0.37349">
        <ele>7.1</ele>
        <time>2023-09-03T08:45:58Z</time>
      </trkpt>
      <trkpt lat="49.48832" lon="0.3736">
        <ele>7.1</ele>
        <time>2023-09-03T08:45:59Z</time>
      </trkpt>
      <trkpt lat="49.48834" lon="0.37371">
        <ele>7.1</ele>
        <time>2023-09-03T08:46:00Z</time>
      </trkpt>
      <trkpt lat="49.48837" lon="0.37383">
        <ele>7.1</ele>
        <time>2023-09-03T08:46:01Z</time>
      </trkpt>
      <trkpt lat="49.48839" lon="0.37395">
        <ele>7.1</ele>
        <time>2023-09-03T08:46:02Z</time>
      </trkpt>
      <trkpt lat="49.48841" lon="0.37406">
        <ele>7.1</ele>
        <time>2023-09-03T08:46:03Z</time>
      </trkpt>
      <trkpt lat="49.48843" lon="0.37418">
        <ele>7.1</ele>
        <time>2023-09-03T08:46:04Z</time>
      </trkpt>
      <trkpt lat="49.48845" lon="0.37429">
        <ele>7.1</ele>
        <time>2023-09-03T08:46:05Z</time>
      </trkpt>
      <trkpt lat="49.48847" lon="0.37441">
        <ele>7</ele>
        <time>2023-09-03T08:46:06Z</time>
      </trkpt>
      <trkpt lat="49.48849" lon="0.37452">
        <ele>7</ele>
        <time>2023-09-03T08:46:07Z</time>
      </trkpt>
      <trkpt lat="49.48852" lon="0.37464">
        <ele>7</ele>
        <time>2023-09-03T08:46:08Z</time>
      </trkpt>
      <trkpt lat="49.48854" lon="0.37475">
        <ele>7</ele>
        <time>2023-09-03T08:46:09Z</time>
      </trkpt>
      <trkpt lat="49.48856" lon="0.37486">
        <ele>7</ele>
        <time>2023-09-03T08:46:10Z</time>
      </trkpt>
      <trkpt lat="49.48858" lon="0.37498">
        <ele>7</ele>
        <time>2023-09-03T08:46:11Z</time>
      </trkpt>
      <trkpt lat="49.48861" lon="0.37509">
        <ele>7</ele>
        <time>2023-09-03T08:46:12Z</time>
      </trkpt>
      <trkpt lat="49.48863" lon="0.37521">
        <ele>7</ele>
        <time>2023-09-03T08:46:13Z</time>
      </trkpt>
      <trkpt lat="49.48865" lon="0.37532">
        <ele>7</ele>
        <time>2023-09-03T08:46:14Z</time>
      </trkpt>
      <trkpt lat="49.48867" lon="0.37544">
        <ele>7</ele>
        <time>2023-09-03T08:46:15Z</time>
      </trkpt>
      <trkpt lat="49.48869" lon="0.37556">
        <ele>6.9</ele>
        <time>2023-09-03T08:46:16Z</time>
      </trkpt>
      <trkpt lat="49.48871" lon="0.37567">
        <ele>6.9</ele>
        <time>2023-09-03T08:46:17Z</time>
      </trkpt>
      <trkpt lat="49.48873" lon="0.37577">
        <ele>6.9</ele>
        <time>2023-09-03T08:46:18Z</time>
      </trkpt>
      <trkpt lat="49.48875" lon="0.37588">
        <ele>6.9</ele>
        <time>2023-09-03T08:46:19Z</time>
      </trkpt>
      <trkpt lat="49.48877" lon="0.37599">
        <ele>6.8</ele>
        <time>2023-09-03T08:46:20Z</time>
      </trkpt>
      <trkpt lat="49.48879" lon="0.37611">
        <ele>6.9</ele>
        <time>2023-09-03T08:46:21Z</time>
      </trkpt>
      <trkpt lat="49.48882" lon="0.37622">
        <ele>6.9</ele>
        <time>2023-09-03T08:46:22Z</time>
      </trkpt>
      <trkpt lat="49.48885" lon="0.37633">
        <ele>6.9</ele>
        <time>2023-09-03T08:46:23Z</time>
      </trkpt>
      <trkpt lat="49.48887" lon="0.37645">
        <ele>6.9</ele>
        <time>2023-09-03T08:46:24Z</time>
      </trkpt>
      <trkpt lat="49.48889" lon="0.37655">
        <ele>6.9</ele>
        <time>2023-09-03T08:46:25Z</time>
      </trkpt>
      <trkpt lat="49.48891" lon="0.37666">
        <ele>6.8</ele>
        <time>2023-09-03T08:46:26Z</time>
      </trkpt>
      <trkpt lat="49.48893" lon="0.37676">
        <ele>6.8</ele>
        <time>2023-09-03T08:46:27Z</time>
      </trkpt>
      <trkpt lat="49.48895" lon="0.37687">
        <ele>6.8</ele>
        <time>2023-09-03T08:46:28Z</time>
      </trkpt>
      <trkpt lat="49.48897" lon="0.37698">
        <ele>6.8</ele>
        <time>2023-09-03T08:46:29Z</time>
      </trkpt>
      <trkpt lat="49.48899" lon="0.37708">
        <ele>6.8</ele>
        <time>2023-09-03T08:46:30Z</time>
      </trkpt>
      <trkpt lat="49.48901" lon="0.37719">
        <ele>6.8</ele>
        <time>2023-09-03T08:46:31Z</time>
      </trkpt>
      <trkpt lat="49.48903" lon="0.3773">
        <ele>6.8</ele>
        <time>2023-09-03T08:46:32Z</time>
      </trkpt>
      <trkpt lat="49.48905" lon="0.3774">
        <ele>6.8</ele>
        <time>2023-09-03T08:46:33Z</time>
      </trkpt>
      <trkpt lat="49.48907" lon="0.37751">
        <ele>6.8</ele>
        <time>2023-09-03T08:46:34Z</time>
      </trkpt>
      <trkpt lat="49.48909" lon="0.37762">
        <ele>6.8</ele>
        <time>2023-09-03T08:46:35Z</time>
      </trkpt>
      <trkpt lat="49.48911" lon="0.37772">
        <ele>6.9</ele>
        <time>2023-09-03T08:46:36Z</time>
      </trkpt>
      <trkpt lat="49.48912" lon="0.37783">
        <ele>6.9</ele>
        <time>2023-09-03T08:46:37Z</time>
      </trkpt>
      <trkpt lat="49.48914" lon="0.37794">
        <ele>6.9</ele>
        <time>2023-09-03T08:46:38Z</time>
      </trkpt>
      <trkpt lat="49.48916" lon="0.37805">
        <ele>6.9</ele>
        <time>2023-09-03T08:46:39Z</time>
      </trkpt>
      <trkpt lat="49.48918" lon="0.37816">
        <ele>6.8</ele>
        <time>2023-09-03T08:46:40Z</time>
      </trkpt>
      <trkpt lat="49.4892" lon="0.37827">
        <ele>6.8</ele>
        <time>2023-09-03T08:46:41Z</time>
      </trkpt>
      <trkpt lat="49.48923" lon="0.37838">
        <ele>6.8</ele>
        <time>2023-09-03T08:46:42Z</time>
      </trkpt>
      <trkpt lat="49.48925" lon="0.37848">
        <ele>6.8</ele>
        <time>2023-09-03T08:46:43Z</time>
      </trkpt>
      <trkpt lat="49.48927" lon="0.37859">
        <ele>6.8</ele>
        <time>2023-09-03T08:46:44Z</time>
      </trkpt>
      <trkpt lat="49.48929" lon="0.3787">
        <ele>6.8</ele>
        <time>2023-09-03T08:46:45Z</time>
      </trkpt>
      <trkpt lat="49.48931" lon="0.37881">
        <ele>6.8</ele>
        <time>2023-09-03T08:46:46Z</time>
      </trkpt>
      <trkpt lat="49.48933" lon="0.37892">
        <ele>6.9</ele>
        <time>2023-09-03T08:46:47Z</time>
      </trkpt>
      <trkpt lat="49.48936" lon="0.37903">
        <ele>6.9</ele>
        <time>2023-09-03T08:46:48Z</time>
      </trkpt>
      <trkpt lat="49.48937" lon="0.37913">
        <ele>6.8</ele>
        <time>2023-09-03T08:46:49Z</time>
      </trkpt>
      <trkpt lat="49.48939" lon="0.37924">
        <ele>6.7</ele>
        <time>2023-09-03T08:46:50Z</time>
      </trkpt>
      <trkpt lat="49.48941" lon="0.37935">
        <ele>6.7</ele>
        <time>2023-09-03T08:46:51Z</time>
      </trkpt>
      <trkpt lat="49.48943" lon="0.37945">
        <ele>6.6</ele>
        <time>2023-09-03T08:46:52Z</time>
      </trkpt>
      <trkpt lat="49.48945" lon="0.37956">
        <ele>6.6</ele>
        <time>2023-09-03T08:46:53Z</time>
      </trkpt>
      <trkpt lat="49.48946" lon="0.37966">
        <ele>6.7</ele>
        <time>2023-09-03T08:46:54Z</time>
      </trkpt>
      <trkpt lat="49.48948" lon="0.37977">
        <ele>6.7</ele>
        <time>2023-09-03T08:46:55Z</time>
      </trkpt>
      <trkpt lat="49.48949" lon="0.37987">
        <ele>6.7</ele>
        <time>2023-09-03T08:46:56Z</time>
      </trkpt>
      <trkpt lat="49.48952" lon="0.37998">
        <ele>6.7</ele>
        <time>2023-09-03T08:46:57Z</time>
      </trkpt>
      <trkpt lat="49.48953" lon="0.38009">
        <ele>6.7</ele>
        <time>2023-09-03T08:46:58Z</time>
      </trkpt>
      <trkpt lat="49.48955" lon="0.38019">
        <ele>6.7</ele>
        <time>2023-09-03T08:46:59Z</time>
      </trkpt>
      <trkpt lat="49.48957" lon="0.3803">
        <ele>6.7</ele>
        <time>2023-09-03T08:47:00Z</time>
      </trkpt>
      <trkpt lat="49.48959" lon="0.38041">
        <ele>6.7</ele>
        <time>2023-09-03T08:47:01Z</time>
      </trkpt>
      <trkpt lat="49.48962" lon="0.38052">
        <ele>6.7</ele>
        <time>2023-09-03T08:47:02Z</time>
      </trkpt>
      <trkpt lat="49.48964" lon="0.38063">
        <ele>6.7</ele>
        <time>2023-09-03T08:47:03Z</time>
      </trkpt>
      <trkpt lat="49.48966" lon="0.38074">
        <ele>6.7</ele>
        <time>2023-09-03T08:47:04Z</time>
      </trkpt>
      <trkpt lat="49.48968" lon="0.38085">
        <ele>6.7</ele>
        <time>2023-09-03T08:47:05Z</time>
      </trkpt>
      <trkpt lat="49.4897" lon="0.38096">
        <ele>6.8</ele>
        <time>2023-09-03T08:47:06Z</time>
      </trkpt>
      <trkpt lat="49.48972" lon="0.38107">
        <ele>6.8</ele>
        <time>2023-09-03T08:47:07Z</time>
      </trkpt>
      <trkpt lat="49.48974" lon="0.38118">
        <ele>6.9</ele>
        <time>2023-09-03T08:47:08Z</time>
      </trkpt>
      <trkpt lat="49.48976" lon="0.3813">
        <ele>7.1</ele>
        <time>2023-09-03T08:47:09Z</time>
      </trkpt>
      <trkpt lat="49.48978" lon="0.38141">
        <ele>7.2</ele>
        <time>2023-09-03T08:47:10Z</time>
      </trkpt>
      <trkpt lat="49.4898" lon="0.38152">
        <ele>7.3</ele>
        <time>2023-09-03T08:47:11Z</time>
      </trkpt>
      <trkpt lat="49.48982" lon="0.38164">
        <ele>7.3</ele>
        <time>2023-09-03T08:47:12Z</time>
      </trkpt>
      <trkpt lat="49.48984" lon="0.38175">
        <ele>7.2</ele>
        <time>2023-09-03T08:47:13Z</time>
      </trkpt>
      <trkpt lat="49.48986" lon="0.38186">
        <ele>7.1</ele>
        <time>2023-09-03T08:47:14Z</time>
      </trkpt>
      <trkpt lat="49.48989" lon="0.38198">
        <ele>7</ele>
        <time>2023-09-03T08:47:15Z</time>
      </trkpt>
      <trkpt lat="49.48991" lon="0.38209">
        <ele>6.9</ele>
        <time>2023-09-03T08:47:16Z</time>
      </trkpt>
      <trkpt lat="49.48993" lon="0.3822">
        <ele>6.9</ele>
        <time>2023-09-03T08:47:17Z</time>
      </trkpt>
      <trkpt lat="49.48995" lon="0.38231">
        <ele>6.9</ele>
        <time>2023-09-03T08:47:18Z</time>
      </trkpt>
      <trkpt lat="49.48996" lon="0.38243">
        <ele>6.9</ele>
        <time>2023-09-03T08:47:19Z</time>
      </trkpt>
      <trkpt lat="49.48998" lon="0.38254">
        <ele>7</ele>
        <time>2023-09-03T08:47:20Z</time>
      </trkpt>
      <trkpt lat="49.49001" lon="0.38265">
        <ele>7.1</ele>
        <time>2023-09-03T08:47:21Z</time>
      </trkpt>
      <trkpt lat="49.49003" lon="0.38276">
        <ele>7.1</ele>
        <time>2023-09-03T08:47:22Z</time>
      </trkpt>
      <trkpt lat="49.49005" lon="0.38287">
        <ele>7.2</ele>
        <time>2023-09-03T08:47:23Z</time>
      </trkpt>
      <trkpt lat="49.49007" lon="0.38299">
        <ele>7.2</ele>
        <time>2023-09-03T08:47:24Z</time>
      </trkpt>
      <trkpt lat="49.49009" lon="0.3831">
        <ele>7.2</ele>
        <time>2023-09-03T08:47:25Z</time>
      </trkpt>
      <trkpt lat="49.49012" lon="0.38321">
        <ele>7.1</ele>
        <time>2023-09-03T08:47:26Z</time>
      </trkpt>
      <trkpt lat="49.49014" lon="0.38332">
        <ele>7</ele>
        <time>2023-09-03T08:47:27Z</time>
      </trkpt>
      <trkpt lat="49.49016" lon="0.38344">
        <ele>6.9</ele>
        <time>2023-09-03T08:47:28Z</time>
      </trkpt>
      <trkpt lat="49.49018" lon="0.38355">
        <ele>6.9</ele>
        <time>2023-09-03T08:47:29Z</time>
      </trkpt>
      <trkpt lat="49.4902" lon="0.38366">
        <ele>6.8</ele>
        <time>2023-09-03T08:47:30Z</time>
      </trkpt>
      <trkpt lat="49.49021" lon="0.38378">
        <ele>6.8</ele>
        <time>2023-09-03T08:47:31Z</time>
      </trkpt>
      <trkpt lat="49.49024" lon="0.38389">
        <ele>6.7</ele>
        <time>2023-09-03T08:47:32Z</time>
      </trkpt>
      <trkpt lat="49.49026" lon="0.384">
        <ele>6.7</ele>
        <time>2023-09-03T08:47:33Z</time>
      </trkpt>
      <trkpt lat="49.49028" lon="0.38411">
        <ele>6.7</ele>
        <time>2023-09-03T08:47:34Z</time>
      </trkpt>
      <trkpt lat="49.49031" lon="0.38423">
        <ele>6.7</ele>
        <time>2023-09-03T08:47:35Z</time>
      </trkpt>
      <trkpt lat="49.49033" lon="0.38434">
        <ele>6.7</ele>
        <time>2023-09-03T08:47:36Z</time>
      </trkpt>
      <trkpt lat="49.49035" lon="0.38445">
        <ele>6.7</ele>
        <time>2023-09-03T08:47:37Z</time>
      </trkpt>
      <trkpt lat="49.49037" lon="0.38456">
        <ele>6.7</ele>
        <time>2023-09-03T08:47:38Z</time>
      </trkpt>
      <trkpt lat="49.49039" lon="0.38467">
        <ele>6.7</ele>
        <time>2023-09-03T08:47:39Z</time>
      </trkpt>
      <trkpt lat="49.49041" lon="0.38479">
        <ele>6.7</ele>
        <time>2023-09-03T08:47:40Z</time>
      </trkpt>
      <trkpt lat="49.49043" lon="0.3849">
        <ele>6.6</ele>
        <time>2023-09-03T08:47:41Z</time>
      </trkpt>
      <trkpt lat="49.49045" lon="0.38501">
        <ele>6.6</ele>
        <time>2023-09-03T08:47:42Z</time>
      </trkpt>
      <trkpt lat="49.49047" lon="0.38513">
        <ele>6.6</ele>
        <time>2023-09-03T08:47:43Z</time>
      </trkpt>
      <trkpt lat="49.49049" lon="0.38525">
        <ele>6.6</ele>
        <time>2023-09-03T08:47:44Z</time>
      </trkpt>
      <trkpt lat="49.49051" lon="0.38536">
        <ele>6.7</ele>
        <time>2023-09-03T08:47:45Z</time>
      </trkpt>
      <trkpt lat="49.49054" lon="0.38547">
        <ele>6.8</ele>
        <time>2023-09-03T08:47:46Z</time>
      </trkpt>
      <trkpt lat="49.49056" lon="0.38558">
        <ele>7</ele>
        <time>2023-09-03T08:47:47Z</time>
      </trkpt>
      <trkpt lat="49.49058" lon="0.38569">
        <ele>7.2</ele>
        <time>2023-09-03T08:47:48Z</time>
      </trkpt>
      <trkpt lat="49.4906" lon="0.3858">
        <ele>7.3</ele>
        <time>2023-09-03T08:47:49Z</time>
      </trkpt>
      <trkpt lat="49.49062" lon="0.3859">
        <ele>7.4</ele>
        <time>2023-09-03T08:47:50Z</time>
      </trkpt>
      <trkpt lat="49.49064" lon="0.38602">
        <ele>7.5</ele>
        <time>2023-09-03T08:47:51Z</time>
      </trkpt>
      <trkpt lat="49.49066" lon="0.38612">
        <ele>7.4</ele>
        <time>2023-09-03T08:47:52Z</time>
      </trkpt>
      <trkpt lat="49.49068" lon="0.38623">
        <ele>7.3</ele>
        <time>2023-09-03T08:47:53Z</time>
      </trkpt>
      <trkpt lat="49.4907" lon="0.38635">
        <ele>7.1</ele>
        <time>2023-09-03T08:47:54Z</time>
      </trkpt>
      <trkpt lat="49.49072" lon="0.38646">
        <ele>7</ele>
        <time>2023-09-03T08:47:55Z</time>
      </trkpt>
      <trkpt lat="49.49074" lon="0.38657">
        <ele>6.9</ele>
        <time>2023-09-03T08:47:56Z</time>
      </trkpt>
      <trkpt lat="49.49076" lon="0.38669">
        <ele>6.8</ele>
        <time>2023-09-03T08:47:57Z</time>
      </trkpt>
      <trkpt lat="49.49078" lon="0.38681">
        <ele>6.8</ele>
        <time>2023-09-03T08:47:58Z</time>
      </trkpt>
      <trkpt lat="49.49081" lon="0.38693">
        <ele>6.8</ele>
        <time>2023-09-03T08:47:59Z</time>
      </trkpt>
      <trkpt lat="49.49083" lon="0.38705">
        <ele>6.8</ele>
        <time>2023-09-03T08:48:00Z</time>
      </trkpt>
      <trkpt lat="49.49085" lon="0.38718">
        <ele>6.8</ele>
        <time>2023-09-03T08:48:01Z</time>
      </trkpt>
      <trkpt lat="49.49087" lon="0.3873">
        <ele>6.8</ele>
        <time>2023-09-03T08:48:02Z</time>
      </trkpt>
      <trkpt lat="49.4909" lon="0.38743">
        <ele>6.8</ele>
        <time>2023-09-03T08:48:03Z</time>
      </trkpt>
      <trkpt lat="49.49092" lon="0.38755">
        <ele>6.8</ele>
        <time>2023-09-03T08:48:04Z</time>
      </trkpt>
      <trkpt lat="49.49094" lon="0.38767">
        <ele>6.7</ele>
        <time>2023-09-03T08:48:05Z</time>
      </trkpt>
      <trkpt lat="49.49096" lon="0.38779">
        <ele>6.7</ele>
        <time>2023-09-03T08:48:06Z</time>
      </trkpt>
      <trkpt lat="49.49099" lon="0.38791">
        <ele>6.7</ele>
        <time>2023-09-03T08:48:07Z</time>
      </trkpt>
      <trkpt lat="49.49101" lon="0.38803">
        <ele>6.6</ele>
        <time>2023-09-03T08:48:08Z</time>
      </trkpt>
      <trkpt lat="49.49103" lon="0.38815">
        <ele>6.6</ele>
        <time>2023-09-03T08:48:09Z</time>
      </trkpt>
      <trkpt lat="49.49105" lon="0.38827">
        <ele>6.6</ele>
        <time>2023-09-03T08:48:10Z</time>
      </trkpt>
      <trkpt lat="49.49107" lon="0.38839">
        <ele>6.6</ele>
        <time>2023-09-03T08:48:11Z</time>
      </trkpt>
      <trkpt lat="49.4911" lon="0.3885">
        <ele>6.6</ele>
        <time>2023-09-03T08:48:12Z</time>
      </trkpt>
      <trkpt lat="49.49112" lon="0.38862">
        <ele>6.6</ele>
        <time>2023-09-03T08:48:13Z</time>
      </trkpt>
      <trkpt lat="49.49114" lon="0.38873">
        <ele>6.6</ele>
        <time>2023-09-03T08:48:14Z</time>
      </trkpt>
      <trkpt lat="49.49116" lon="0.38885">
        <ele>6.5</ele>
        <time>2023-09-03T08:48:15Z</time>
      </trkpt>
      <trkpt lat="49.49119" lon="0.38896">
        <ele>6.5</ele>
        <time>2023-09-03T08:48:16Z</time>
      </trkpt>
      <trkpt lat="49.49121" lon="0.38908">
        <ele>6.5</ele>
        <time>2023-09-03T08:48:17Z</time>
      </trkpt>
      <trkpt lat="49.49123" lon="0.3892">
        <ele>6.5</ele>
        <time>2023-09-03T08:48:18Z</time>
      </trkpt>
      <trkpt lat="49.49125" lon="0.38932">
        <ele>6.5</ele>
        <time>2023-09-03T08:48:19Z</time>
      </trkpt>
      <trkpt lat="49.49127" lon="0.38943">
        <ele>6.5</ele>
        <time>2023-09-03T08:48:20Z</time>
      </trkpt>
      <trkpt lat="49.4913" lon="0.38955">
        <ele>6.4</ele>
        <time>2023-09-03T08:48:21Z</time>
      </trkpt>
      <trkpt lat="49.49132" lon="0.38967">
        <ele>6.4</ele>
        <time>2023-09-03T08:48:22Z</time>
      </trkpt>
      <trkpt lat="49.49134" lon="0.38979">
        <ele>6.3</ele>
        <time>2023-09-03T08:48:23Z</time>
      </trkpt>
      <trkpt lat="49.49137" lon="0.38991">
        <ele>6.3</ele>
        <time>2023-09-03T08:48:24Z</time>
      </trkpt>
      <trkpt lat="49.49139" lon="0.39003">
        <ele>6.3</ele>
        <time>2023-09-03T08:48:25Z</time>
      </trkpt>
      <trkpt lat="49.49141" lon="0.39015">
        <ele>6.3</ele>
        <time>2023-09-03T08:48:26Z</time>
      </trkpt>
      <trkpt lat="49.49143" lon="0.39028">
        <ele>6.3</ele>
        <time>2023-09-03T08:48:27Z</time>
      </trkpt>
      <trkpt lat="49.49145" lon="0.3904">
        <ele>6.3</ele>
        <time>2023-09-03T08:48:28Z</time>
      </trkpt>
      <trkpt lat="49.49147" lon="0.39052">
        <ele>6.3</ele>
        <time>2023-09-03T08:48:29Z</time>
      </trkpt>
      <trkpt lat="49.49149" lon="0.39064">
        <ele>6.3</ele>
        <time>2023-09-03T08:48:30Z</time>
      </trkpt>
      <trkpt lat="49.49151" lon="0.39076">
        <ele>6.3</ele>
        <time>2023-09-03T08:48:31Z</time>
      </trkpt>
      <trkpt lat="49.49154" lon="0.39088">
        <ele>6.3</ele>
        <time>2023-09-03T08:48:32Z</time>
      </trkpt>
      <trkpt lat="49.49156" lon="0.391">
        <ele>6.3</ele>
        <time>2023-09-03T08:48:33Z</time>
      </trkpt>
      <trkpt lat="49.49158" lon="0.39112">
        <ele>6.3</ele>
        <time>2023-09-03T08:48:34Z</time>
      </trkpt>
      <trkpt lat="49.49161" lon="0.39124">
        <ele>6.3</ele>
        <time>2023-09-03T08:48:35Z</time>
      </trkpt>
      <trkpt lat="49.49163" lon="0.39137">
        <ele>6.2</ele>
        <time>2023-09-03T08:48:36Z</time>
      </trkpt>
      <trkpt lat="49.49165" lon="0.39149">
        <ele>6.2</ele>
        <time>2023-09-03T08:48:37Z</time>
      </trkpt>
      <trkpt lat="49.49167" lon="0.39161">
        <ele>6.3</ele>
        <time>2023-09-03T08:48:38Z</time>
      </trkpt>
      <trkpt lat="49.49169" lon="0.39173">
        <ele>6.3</ele>
        <time>2023-09-03T08:48:39Z</time>
      </trkpt>
      <trkpt lat="49.49172" lon="0.39185">
        <ele>6.3</ele>
        <time>2023-09-03T08:48:40Z</time>
      </trkpt>
      <trkpt lat="49.49174" lon="0.39197">
        <ele>6.3</ele>
        <time>2023-09-03T08:48:41Z</time>
      </trkpt>
      <trkpt lat="49.49176" lon="0.39209">
        <ele>6.4</ele>
        <time>2023-09-03T08:48:42Z</time>
      </trkpt>
      <trkpt lat="49.49179" lon="0.39221">
        <ele>6.4</ele>
        <time>2023-09-03T08:48:43Z</time>
      </trkpt>
      <trkpt lat="49.49181" lon="0.39233">
        <ele>6.4</ele>
        <time>2023-09-03T08:48:44Z</time>
      </trkpt>
      <trkpt lat="49.49183" lon="0.39244">
        <ele>6.3</ele>
        <time>2023-09-03T08:48:45Z</time>
      </trkpt>
      <trkpt lat="49.49186" lon="0.39256">
        <ele>6.3</ele>
        <time>2023-09-03T08:48:46Z</time>
      </trkpt>
      <trkpt lat="49.49188" lon="0.39269">
        <ele>6.2</ele>
        <time>2023-09-03T08:48:47Z</time>
      </trkpt>
      <trkpt lat="49.4919" lon="0.39281">
        <ele>6.1</ele>
        <time>2023-09-03T08:48:48Z</time>
      </trkpt>
      <trkpt lat="49.49192" lon="0.39293">
        <ele>6.1</ele>
        <time>2023-09-03T08:48:49Z</time>
      </trkpt>
      <trkpt lat="49.49195" lon="0.39305">
        <ele>6.2</ele>
        <time>2023-09-03T08:48:50Z</time>
      </trkpt>
      <trkpt lat="49.49197" lon="0.39317">
        <ele>6.2</ele>
        <time>2023-09-03T08:48:51Z</time>
      </trkpt>
      <trkpt lat="49.49199" lon="0.3933">
        <ele>6.2</ele>
        <time>2023-09-03T08:48:52Z</time>
      </trkpt>
      <trkpt lat="49.49201" lon="0.39342">
        <ele>6.1</ele>
        <time>2023-09-03T08:48:53Z</time>
      </trkpt>
      <trkpt lat="49.49204" lon="0.39355">
        <ele>6</ele>
        <time>2023-09-03T08:48:54Z</time>
      </trkpt>
      <trkpt lat="49.49206" lon="0.39367">
        <ele>6</ele>
        <time>2023-09-03T08:48:55Z</time>
      </trkpt>
      <trkpt lat="49.49208" lon="0.3938">
        <ele>5.9</ele>
        <time>2023-09-03T08:48:56Z</time>
      </trkpt>
      <trkpt lat="49.4921" lon="0.39392">
        <ele>5.9</ele>
        <time>2023-09-03T08:48:57Z</time>
      </trkpt>
      <trkpt lat="49.49212" lon="0.39403">
        <ele>6</ele>
        <time>2023-09-03T08:48:58Z</time>
      </trkpt>
      <trkpt lat="49.49215" lon="0.39415">
        <ele>6</ele>
        <time>2023-09-03T08:48:59Z</time>
      </trkpt>
      <trkpt lat="49.49217" lon="0.39426">
        <ele>6</ele>
        <time>2023-09-03T08:49:00Z</time>
      </trkpt>
      <trkpt lat="49.49219" lon="0.39437">
        <ele>6</ele>
        <time>2023-09-03T08:49:01Z</time>
      </trkpt>
      <trkpt lat="49.49221" lon="0.39449">
        <ele>6</ele>
        <time>2023-09-03T08:49:02Z</time>
      </trkpt>
      <trkpt lat="49.49223" lon="0.39461">
        <ele>6</ele>
        <time>2023-09-03T08:49:03Z</time>
      </trkpt>
      <trkpt lat="49.49225" lon="0.39473">
        <ele>5.9</ele>
        <time>2023-09-03T08:49:04Z</time>
      </trkpt>
      <trkpt lat="49.49227" lon="0.39485">
        <ele>5.9</ele>
        <time>2023-09-03T08:49:05Z</time>
      </trkpt>
      <trkpt lat="49.49229" lon="0.39496">
        <ele>5.9</ele>
        <time>2023-09-03T08:49:06Z</time>
      </trkpt>
      <trkpt lat="49.4923" lon="0.39508">
        <ele>5.9</ele>
        <time>2023-09-03T08:49:07Z</time>
      </trkpt>
      <trkpt lat="49.49232" lon="0.3952">
        <ele>5.9</ele>
        <time>2023-09-03T08:49:08Z</time>
      </trkpt>
      <trkpt lat="49.49235" lon="0.39532">
        <ele>5.9</ele>
        <time>2023-09-03T08:49:09Z</time>
      </trkpt>
      <trkpt lat="49.49236" lon="0.39544">
        <ele>5.9</ele>
        <time>2023-09-03T08:49:10Z</time>
      </trkpt>
      <trkpt lat="49.49238" lon="0.39556">
        <ele>5.8</ele>
        <time>2023-09-03T08:49:11Z</time>
      </trkpt>
      <trkpt lat="49.4924" lon="0.39568">
        <ele>5.8</ele>
        <time>2023-09-03T08:49:12Z</time>
      </trkpt>
      <trkpt lat="49.49242" lon="0.3958">
        <ele>5.8</ele>
        <time>2023-09-03T08:49:13Z</time>
      </trkpt>
      <trkpt lat="49.49243" lon="0.39592">
        <ele>5.8</ele>
        <time>2023-09-03T08:49:14Z</time>
      </trkpt>
      <trkpt lat="49.49245" lon="0.39604">
        <ele>5.8</ele>
        <time>2023-09-03T08:49:15Z</time>
      </trkpt>
      <trkpt lat="49.49246" lon="0.39616">
        <ele>5.8</ele>
        <time>2023-09-03T08:49:16Z</time>
      </trkpt>
      <trkpt lat="49.49247" lon="0.39628">
        <ele>5.9</ele>
        <time>2023-09-03T08:49:17Z</time>
      </trkpt>
      <trkpt lat="49.49249" lon="0.3964">
        <ele>5.9</ele>
        <time>2023-09-03T08:49:18Z</time>
      </trkpt>
      <trkpt lat="49.4925" lon="0.39652">
        <ele>6</ele>
        <time>2023-09-03T08:49:19Z</time>
      </trkpt>
      <trkpt lat="49.49251" lon="0.39663">
        <ele>6</ele>
        <time>2023-09-03T08:49:20Z</time>
      </trkpt>
      <trkpt lat="49.49253" lon="0.39675">
        <ele>6</ele>
        <time>2023-09-03T08:49:21Z</time>
      </trkpt>
      <trkpt lat="49.49254" lon="0.39687">
        <ele>5.9</ele>
        <time>2023-09-03T08:49:22Z</time>
      </trkpt>
      <trkpt lat="49.49255" lon="0.39699">
        <ele>5.9</ele>
        <time>2023-09-03T08:49:23Z</time>
      </trkpt>
      <trkpt lat="49.49256" lon="0.39711">
        <ele>5.9</ele>
        <time>2023-09-03T08:49:24Z</time>
      </trkpt>
      <trkpt lat="49.49257" lon="0.39723">
        <ele>5.8</ele>
        <time>2023-09-03T08:49:25Z</time>
      </trkpt>
      <trkpt lat="49.49258" lon="0.39735">
        <ele>5.8</ele>
        <time>2023-09-03T08:49:26Z</time>
      </trkpt>
      <trkpt lat="49.49258" lon="0.39747">
        <ele>5.7</ele>
        <time>2023-09-03T08:49:27Z</time>
      </trkpt>
      <trkpt lat="49.49259" lon="0.39759">
        <ele>5.7</ele>
        <time>2023-09-03T08:49:28Z</time>
      </trkpt>
      <trkpt lat="49.4926" lon="0.39771">
        <ele>5.8</ele>
        <time>2023-09-03T08:49:29Z</time>
      </trkpt>
      <trkpt lat="49.49261" lon="0.39783">
        <ele>5.8</ele>
        <time>2023-09-03T08:49:30Z</time>
      </trkpt>
      <trkpt lat="49.49262" lon="0.39795">
        <ele>5.8</ele>
        <time>2023-09-03T08:49:31Z</time>
      </trkpt>
      <trkpt lat="49.49263" lon="0.39807">
        <ele>5.8</ele>
        <time>2023-09-03T08:49:32Z</time>
      </trkpt>
      <trkpt lat="49.49264" lon="0.39818">
        <ele>5.8</ele>
        <time>2023-09-03T08:49:33Z</time>
      </trkpt>
      <trkpt lat="49.49265" lon="0.3983">
        <ele>5.7</ele>
        <time>2023-09-03T08:49:34Z</time>
      </trkpt>
      <trkpt lat="49.49267" lon="0.39841">
        <ele>5.7</ele>
        <time>2023-09-03T08:49:35Z</time>
      </trkpt>
      <trkpt lat="49.49268" lon="0.39852">
        <ele>5.7</ele>
        <time>2023-09-03T08:49:36Z</time>
      </trkpt>
      <trkpt lat="49.49268" lon="0.39864">
        <ele>5.6</ele>
        <time>2023-09-03T08:49:37Z</time>
      </trkpt>
      <trkpt lat="49.49269" lon="0.39876">
        <ele>5.6</ele>
        <time>2023-09-03T08:49:38Z</time>
      </trkpt>
      <trkpt lat="49.4927" lon="0.39887">
        <ele>5.6</ele>
        <time>2023-09-03T08:49:39Z</time>
      </trkpt>
      <trkpt lat="49.49271" lon="0.39898">
        <ele>5.6</ele>
        <time>2023-09-03T08:49:40Z</time>
      </trkpt>
      <trkpt lat="49.49272" lon="0.3991">
        <ele>5.6</ele>
        <time>2023-09-03T08:49:41Z</time>
      </trkpt>
      <trkpt lat="49.49273" lon="0.39921">
        <ele>5.6</ele>
        <time>2023-09-03T08:49:42Z</time>
      </trkpt>
      <trkpt lat="49.49274" lon="0.39933">
        <ele>5.6</ele>
        <time>2023-09-03T08:49:43Z</time>
      </trkpt>
      <trkpt lat="49.49274" lon="0.39945">
        <ele>5.5</ele>
        <time>2023-09-03T08:49:44Z</time>
      </trkpt>
      <trkpt lat="49.49275" lon="0.39957">
        <ele>5.5</ele>
        <time>2023-09-03T08:49:45Z</time>
      </trkpt>
      <trkpt lat="49.49276" lon="0.39968">
        <ele>5.6</ele>
        <time>2023-09-03T08:49:46Z</time>
      </trkpt>
      <trkpt lat="49.49277" lon="0.3998">
        <ele>5.6</ele>
        <time>2023-09-03T08:49:47Z</time>
      </trkpt>
      <trkpt lat="49.49278" lon="0.39991">
        <ele>5.6</ele>
        <time>2023-09-03T08:49:48Z</time>
      </trkpt>
      <trkpt lat="49.49279" lon="0.40003">
        <ele>5.7</ele>
        <time>2023-09-03T08:49:49Z</time>
      </trkpt>
      <trkpt lat="49.4928" lon="0.40014">
        <ele>5.7</ele>
        <time>2023-09-03T08:49:50Z</time>
      </trkpt>
      <trkpt lat="49.49281" lon="0.40026">
        <ele>5.8</ele>
        <time>2023-09-03T08:49:51Z</time>
      </trkpt>
      <trkpt lat="49.49282" lon="0.40037">
        <ele>5.9</ele>
        <time>2023-09-03T08:49:52Z</time>
      </trkpt>
      <trkpt lat="49.49282" lon="0.40048">
        <ele>6.1</ele>
        <time>2023-09-03T08:49:53Z</time>
      </trkpt>
      <trkpt lat="49.49283" lon="0.40058">
        <ele>6.3</ele>
        <time>2023-09-03T08:49:54Z</time>
      </trkpt>
      <trkpt lat="49.49284" lon="0.40069">
        <ele>6.5</ele>
        <time>2023-09-03T08:49:55Z</time>
      </trkpt>
      <trkpt lat="49.49285" lon="0.4008">
        <ele>6.7</ele>
        <time>2023-09-03T08:49:56Z</time>
      </trkpt>
      <trkpt lat="49.49286" lon="0.40091">
        <ele>7</ele>
        <time>2023-09-03T08:49:57Z</time>
      </trkpt>
      <trkpt lat="49.49287" lon="0.40101">
        <ele>7.3</ele>
        <time>2023-09-03T08:49:58Z</time>
      </trkpt>
      <trkpt lat="49.49288" lon="0.40111">
        <ele>7.6</ele>
        <time>2023-09-03T08:49:59Z</time>
      </trkpt>
      <trkpt lat="49.49289" lon="0.40122">
        <ele>7.9</ele>
        <time>2023-09-03T08:50:00Z</time>
      </trkpt>
      <trkpt lat="49.49289" lon="0.40132">
        <ele>8.2</ele>
        <time>2023-09-03T08:50:01Z</time>
      </trkpt>
      <trkpt lat="49.4929" lon="0.40141">
        <ele>8.5</ele>
        <time>2023-09-03T08:50:02Z</time>
      </trkpt>
      <trkpt lat="49.4929" lon="0.40151">
        <ele>8.8</ele>
        <time>2023-09-03T08:50:03Z</time>
      </trkpt>
      <trkpt lat="49.4929" lon="0.4016">
        <ele>9.2</ele>
        <time>2023-09-03T08:50:04Z</time>
      </trkpt>
      <trkpt lat="49.4929" lon="0.40169">
        <ele>9.5</ele>
        <time>2023-09-03T08:50:05Z</time>
      </trkpt>
      <trkpt lat="49.49289" lon="0.40178">
        <ele>9.9</ele>
        <time>2023-09-03T08:50:06Z</time>
      </trkpt>
      <trkpt lat="49.49288" lon="0.40187">
        <ele>10.2</ele>
        <time>2023-09-03T08:50:07Z</time>
      </trkpt>
      <trkpt lat="49.49286" lon="0.40195">
        <ele>10.6</ele>
        <time>2023-09-03T08:50:08Z</time>
      </trkpt>
      <trkpt lat="49.49284" lon="0.40203">
        <ele>10.7</ele>
        <time>2023-09-03T08:50:09Z</time>
      </trkpt>
      <trkpt lat="49.49281" lon="0.40211">
        <ele>10.8</ele>
        <time>2023-09-03T08:50:10Z</time>
      </trkpt>
      <trkpt lat="49.49277" lon="0.40218">
        <ele>10.9</ele>
        <time>2023-09-03T08:50:11Z</time>
      </trkpt>
      <trkpt lat="49.49273" lon="0.40224">
        <ele>11</ele>
        <time>2023-09-03T08:50:12Z</time>
      </trkpt>
      <trkpt lat="49.49268" lon="0.40229">
        <ele>11</ele>
        <time>2023-09-03T08:50:13Z</time>
      </trkpt>
      <trkpt lat="49.49263" lon="0.40234">
        <ele>11.1</ele>
        <time>2023-09-03T08:50:14Z</time>
      </trkpt>
      <trkpt lat="49.49258" lon="0.40238">
        <ele>11.2</ele>
        <time>2023-09-03T08:50:15Z</time>
      </trkpt>
      <trkpt lat="49.49253" lon="0.40242">
        <ele>11.2</ele>
        <time>2023-09-03T08:50:16Z</time>
      </trkpt>
      <trkpt lat="49.49248" lon="0.40245">
        <ele>11.2</ele>
        <time>2023-09-03T08:50:17Z</time>
      </trkpt>
      <trkpt lat="49.49243" lon="0.40249">
        <ele>11.3</ele>
        <time>2023-09-03T08:50:18Z</time>
      </trkpt>
      <trkpt lat="49.49238" lon="0.40253">
        <ele>11.3</ele>
        <time>2023-09-03T08:50:19Z</time>
      </trkpt>
      <trkpt lat="49.49233" lon="0.40257">
        <ele>11.3</ele>
        <time>2023-09-03T08:50:20Z</time>
      </trkpt>
      <trkpt lat="49.49227" lon="0.40261">
        <ele>11.3</ele>
        <time>2023-09-03T08:50:21Z</time>
      </trkpt>
      <trkpt lat="49.49221" lon="0.40265">
        <ele>11.3</ele>
        <time>2023-09-03T08:50:22Z</time>
      </trkpt>
      <trkpt lat="49.49215" lon="0.4027">
        <ele>11.2</ele>
        <time>2023-09-03T08:50:23Z</time>
      </trkpt>
      <trkpt lat="49.49209" lon="0.40275">
        <ele>11.2</ele>
        <time>2023-09-03T08:50:24Z</time>
      </trkpt>
      <trkpt lat="49.49203" lon="0.40279">
        <ele>11.1</ele>
        <time>2023-09-03T08:50:25Z</time>
      </trkpt>
      <trkpt lat="49.49197" lon="0.40285">
        <ele>10.9</ele>
        <time>2023-09-03T08:50:26Z</time>
      </trkpt>
      <trkpt lat="49.49191" lon="0.4029">
        <ele>10.7</ele>
        <time>2023-09-03T08:50:27Z</time>
      </trkpt>
      <trkpt lat="49.49185" lon="0.40297">
        <ele>10.5</ele>
        <time>2023-09-03T08:50:28Z</time>
      </trkpt>
      <trkpt lat="49.49181" lon="0.40305">
        <ele>10.3</ele>
        <time>2023-09-03T08:50:29Z</time>
      </trkpt>
      <trkpt lat="49.49177" lon="0.40314">
        <ele>10.1</ele>
        <time>2023-09-03T08:50:30Z</time>
      </trkpt>
      <trkpt lat="49.49174" lon="0.40324">
        <ele>9.8</ele>
        <time>2023-09-03T08:50:31Z</time>
      </trkpt>
      <trkpt lat="49.49171" lon="0.40335">
        <ele>9.6</ele>
        <time>2023-09-03T08:50:32Z</time>
      </trkpt>
      <trkpt lat="49.49168" lon="0.40346">
        <ele>9.3</ele>
        <time>2023-09-03T08:50:33Z</time>
      </trkpt>
      <trkpt lat="49.49166" lon="0.40358">
        <ele>9</ele>
        <time>2023-09-03T08:50:34Z</time>
      </trkpt>
      <trkpt lat="49.49164" lon="0.4037">
        <ele>8.6</ele>
        <time>2023-09-03T08:50:35Z</time>
      </trkpt>
      <trkpt lat="49.49162" lon="0.40383">
        <ele>8.2</ele>
        <time>2023-09-03T08:50:36Z</time>
      </trkpt>
      <trkpt lat="49.49161" lon="0.40396">
        <ele>7.9</ele>
        <time>2023-09-03T08:50:37Z</time>
      </trkpt>
      <trkpt lat="49.4916" lon="0.4041">
        <ele>7.6</ele>
        <time>2023-09-03T08:50:38Z</time>
      </trkpt>
      <trkpt lat="49.49159" lon="0.40423">
        <ele>7.2</ele>
        <time>2023-09-03T08:50:39Z</time>
      </trkpt>
      <trkpt lat="49.49157" lon="0.40436">
        <ele>6.8</ele>
        <time>2023-09-03T08:50:40Z</time>
      </trkpt>
      <trkpt lat="49.49156" lon="0.40449">
        <ele>6.5</ele>
        <time>2023-09-03T08:50:41Z</time>
      </trkpt>
      <trkpt lat="49.49154" lon="0.40463">
        <ele>6.2</ele>
        <time>2023-09-03T08:50:42Z</time>
      </trkpt>
      <trkpt lat="49.49153" lon="0.40476">
        <ele>5.9</ele>
        <time>2023-09-03T08:50:43Z</time>
      </trkpt>
      <trkpt lat="49.49151" lon="0.40489">
        <ele>5.7</ele>
        <time>2023-09-03T08:50:44Z</time>
      </trkpt>
      <trkpt lat="49.4915" lon="0.40502">
        <ele>5.6</ele>
        <time>2023-09-03T08:50:45Z</time>
      </trkpt>
      <trkpt lat="49.49149" lon="0.40514">
        <ele>5.5</ele>
        <time>2023-09-03T08:50:46Z</time>
      </trkpt>
      <trkpt lat="49.49147" lon="0.40526">
        <ele>5.5</ele>
        <time>2023-09-03T08:50:47Z</time>
      </trkpt>
      <trkpt lat="49.49146" lon="0.40538">
        <ele>5.5</ele>
        <time>2023-09-03T08:50:48Z</time>
      </trkpt>
      <trkpt lat="49.49144" lon="0.40549">
        <ele>5.5</ele>
        <time>2023-09-03T08:50:49Z</time>
      </trkpt>
      <trkpt lat="49.49143" lon="0.40561">
        <ele>5.5</ele>
        <time>2023-09-03T08:50:50Z</time>
      </trkpt>
      <trkpt lat="49.49141" lon="0.40572">
        <ele>5.6</ele>
        <time>2023-09-03T08:50:51Z</time>
      </trkpt>
      <trkpt lat="49.49139" lon="0.40583">
        <ele>5.6</ele>
        <time>2023-09-03T08:50:52Z</time>
      </trkpt>
      <trkpt lat="49.49137" lon="0.40594">
        <ele>5.6</ele>
        <time>2023-09-03T08:50:53Z</time>
      </trkpt>
      <trkpt lat="49.49134" lon="0.40606">
        <ele>5.6</ele>
        <time>2023-09-03T08:50:54Z</time>
      </trkpt>
      <trkpt lat="49.49132" lon="0.40619">
        <ele>5.6</ele>
        <time>2023-09-03T08:50:55Z</time>
      </trkpt>
      <trkpt lat="49.4913" lon="0.40631">
        <ele>5.6</ele>
        <time>2023-09-03T08:50:56Z</time>
      </trkpt>
      <trkpt lat="49.49128" lon="0.40644">
        <ele>5.5</ele>
        <time>2023-09-03T08:50:57Z</time>
      </trkpt>
      <trkpt lat="49.49126" lon="0.40657">
        <ele>5.5</ele>
        <time>2023-09-03T08:50:58Z</time>
      </trkpt>
      <trkpt lat="49.49124" lon="0.4067">
        <ele>5.5</ele>
        <time>2023-09-03T08:50:59Z</time>
      </trkpt>
      <trkpt lat="49.49122" lon="0.40682">
        <ele>5.4</ele>
        <time>2023-09-03T08:51:00Z</time>
      </trkpt>
      <trkpt lat="49.4912" lon="0.40695">
        <ele>5.4</ele>
        <time>2023-09-03T08:51:01Z</time>
      </trkpt>
      <trkpt lat="49.49118" lon="0.40707">
        <ele>5.4</ele>
        <time>2023-09-03T08:51:02Z</time>
      </trkpt>
      <trkpt lat="49.49116" lon="0.40719">
        <ele>5.3</ele>
        <time>2023-09-03T08:51:03Z</time>
      </trkpt>
      <trkpt lat="49.49115" lon="0.4073">
        <ele>5.3</ele>
        <time>2023-09-03T08:51:04Z</time>
      </trkpt>
      <trkpt lat="49.49113" lon="0.40742">
        <ele>5.3</ele>
        <time>2023-09-03T08:51:05Z</time>
      </trkpt>
      <trkpt lat="49.49112" lon="0.40755">
        <ele>5.3</ele>
        <time>2023-09-03T08:51:06Z</time>
      </trkpt>
      <trkpt lat="49.4911" lon="0.40767">
        <ele>5.3</ele>
        <time>2023-09-03T08:51:07Z</time>
      </trkpt>
      <trkpt lat="49.49109" lon="0.4078">
        <ele>5.3</ele>
        <time>2023-09-03T08:51:08Z</time>
      </trkpt>
      <trkpt lat="49.49108" lon="0.40792">
        <ele>5.4</ele>
        <time>2023-09-03T08:51:09Z</time>
      </trkpt>
      <trkpt lat="49.49107" lon="0.40805">
        <ele>5.4</ele>
        <time>2023-09-03T08:51:10Z</time>
      </trkpt>
      <trkpt lat="49.49106" lon="0.40817">
        <ele>5.4</ele>
        <time>2023-09-03T08:51:11Z</time>
      </trkpt>
      <trkpt lat="49.49105" lon="0.4083">
        <ele>5.5</ele>
        <time>2023-09-03T08:51:12Z</time>
      </trkpt>
      <trkpt lat="49.49104" lon="0.40842">
        <ele>5.5</ele>
        <time>2023-09-03T08:51:13Z</time>
      </trkpt>
      <trkpt lat="49.49103" lon="0.40855">
        <ele>5.5</ele>
        <time>2023-09-03T08:51:14Z</time>
      </trkpt>
      <trkpt lat="49.49103" lon="0.40867">
        <ele>5.6</ele>
        <time>2023-09-03T08:51:15Z</time>
      </trkpt>
      <trkpt lat="49.49102" lon="0.4088">
        <ele>5.6</ele>
        <time>2023-09-03T08:51:16Z</time>
      </trkpt>
      <trkpt lat="49.49101" lon="0.40892">
        <ele>5.7</ele>
        <time>2023-09-03T08:51:17Z</time>
      </trkpt>
      <trkpt lat="49.491" lon="0.40904">
        <ele>5.7</ele>
        <time>2023-09-03T08:51:18Z</time>
      </trkpt>
      <trkpt lat="49.49099" lon="0.40916">
        <ele>5.7</ele>
        <time>2023-09-03T08:51:19Z</time>
      </trkpt>
      <trkpt lat="49.49099" lon="0.40928">
        <ele>5.6</ele>
        <time>2023-09-03T08:51:20Z</time>
      </trkpt>
      <trkpt lat="49.49098" lon="0.4094">
        <ele>5.6</ele>
        <time>2023-09-03T08:51:21Z</time>
      </trkpt>
      <trkpt lat="49.49097" lon="0.40952">
        <ele>5.6</ele>
        <time>2023-09-03T08:51:22Z</time>
      </trkpt>
      <trkpt lat="49.49096" lon="0.40964">
        <ele>5.6</ele>
        <time>2023-09-03T08:51:23Z</time>
      </trkpt>
      <trkpt lat="49.49096" lon="0.40977">
        <ele>5.6</ele>
        <time>2023-09-03T08:51:24Z</time>
      </trkpt>
      <trkpt lat="49.49095" lon="0.40989">
        <ele>5.7</ele>
        <time>2023-09-03T08:51:25Z</time>
      </trkpt>
      <trkpt lat="49.49095" lon="0.41">
        <ele>5.8</ele>
        <time>2023-09-03T08:51:26Z</time>
      </trkpt>
      <trkpt lat="49.49094" lon="0.41012">
        <ele>5.8</ele>
        <time>2023-09-03T08:51:27Z</time>
      </trkpt>
      <trkpt lat="49.49094" lon="0.41023">
        <ele>5.8</ele>
        <time>2023-09-03T08:51:28Z</time>
      </trkpt>
      <trkpt lat="49.49094" lon="0.41035">
        <ele>5.8</ele>
        <time>2023-09-03T08:51:29Z</time>
      </trkpt>
      <trkpt lat="49.49094" lon="0.41046">
        <ele>5.8</ele>
        <time>2023-09-03T08:51:30Z</time>
      </trkpt>
      <trkpt lat="49.49093" lon="0.41058">
        <ele>5.9</ele>
        <time>2023-09-03T08:51:31Z</time>
      </trkpt>
      <trkpt lat="49.49093" lon="0.4107">
        <ele>5.9</ele>
        <time>2023-09-03T08:51:32Z</time>
      </trkpt>
      <trkpt lat="49.49092" lon="0.41082">
        <ele>5.9</ele>
        <time>2023-09-03T08:51:33Z</time>
      </trkpt>
      <trkpt lat="49.49092" lon="0.41094">
        <ele>5.9</ele>
        <time>2023-09-03T08:51:34Z</time>
      </trkpt>
      <trkpt lat="49.49092" lon="0.41106">
        <ele>5.9</ele>
        <time>2023-09-03T08:51:35Z</time>
      </trkpt>
      <trkpt lat="49.49092" lon="0.41118">
        <ele>5.9</ele>
        <time>2023-09-03T08:51:36Z</time>
      </trkpt>
      <trkpt lat="49.49092" lon="0.4113">
        <ele>5.9</ele>
        <time>2023-09-03T08:51:37Z</time>
      </trkpt>
      <trkpt lat="49.49092" lon="0.41143">
        <ele>5.9</ele>
        <time>2023-09-03T08:51:38Z</time>
      </trkpt>
      <trkpt lat="49.49092" lon="0.41156">
        <ele>5.9</ele>
        <time>2023-09-03T08:51:39Z</time>
      </trkpt>
      <trkpt lat="49.49092" lon="0.41169">
        <ele>5.8</ele>
        <time>2023-09-03T08:51:40Z</time>
      </trkpt>
      <trkpt lat="49.49092" lon="0.41181">
        <ele>5.8</ele>
        <time>2023-09-03T08:51:41Z</time>
      </trkpt>
      <trkpt lat="49.49092" lon="0.41194">
        <ele>5.8</ele>
        <time>2023-09-03T08:51:42Z</time>
      </trkpt>
      <trkpt lat="49.49092" lon="0.41207">
        <ele>5.7</ele>
        <time>2023-09-03T08:51:43Z</time>
      </trkpt>
      <trkpt lat="49.49093" lon="0.41219">
        <ele>5.7</ele>
        <time>2023-09-03T08:51:44Z</time>
      </trkpt>
      <trkpt lat="49.49093" lon="0.41231">
        <ele>5.7</ele>
        <time>2023-09-03T08:51:45Z</time>
      </trkpt>
      <trkpt lat="49.49094" lon="0.41243">
        <ele>5.7</ele>
        <time>2023-09-03T08:51:46Z</time>
      </trkpt>
      <trkpt lat="49.49094" lon="0.41255">
        <ele>5.7</ele>
        <time>2023-09-03T08:51:47Z</time>
      </trkpt>
      <trkpt lat="49.49095" lon="0.41267">
        <ele>5.8</ele>
        <time>2023-09-03T08:51:48Z</time>
      </trkpt>
      <trkpt lat="49.49095" lon="0.41279">
        <ele>5.8</ele>
        <time>2023-09-03T08:51:49Z</time>
      </trkpt>
      <trkpt lat="49.49096" lon="0.41291">
        <ele>5.8</ele>
        <time>2023-09-03T08:51:50Z</time>
      </trkpt>
      <trkpt lat="49.49096" lon="0.41302">
        <ele>5.8</ele>
        <time>2023-09-03T08:51:51Z</time>
      </trkpt>
      <trkpt lat="49.49097" lon="0.41314">
        <ele>5.8</ele>
        <time>2023-09-03T08:51:52Z</time>
      </trkpt>
      <trkpt lat="49.49097" lon="0.41326">
        <ele>5.8</ele>
        <time>2023-09-03T08:51:53Z</time>
      </trkpt>
      <trkpt lat="49.49098" lon="0.41338">
        <ele>5.8</ele>
        <time>2023-09-03T08:51:54Z</time>
      </trkpt>
      <trkpt lat="49.49099" lon="0.41351">
        <ele>5.8</ele>
        <time>2023-09-03T08:51:55Z</time>
      </trkpt>
      <trkpt lat="49.491" lon="0.41363">
        <ele>5.8</ele>
        <time>2023-09-03T08:51:56Z</time>
      </trkpt>
      <trkpt lat="49.49101" lon="0.41375">
        <ele>5.8</ele>
        <time>2023-09-03T08:51:57Z</time>
      </trkpt>
      <trkpt lat="49.49102" lon="0.41388">
        <ele>5.8</ele>
        <time>2023-09-03T08:51:58Z</time>
      </trkpt>
      <trkpt lat="49.49103" lon="0.414">
        <ele>5.8</ele>
        <time>2023-09-03T08:51:59Z</time>
      </trkpt>
      <trkpt lat="49.49104" lon="0.41413">
        <ele>5.8</ele>
        <time>2023-09-03T08:52:00Z</time>
      </trkpt>
      <trkpt lat="49.49105" lon="0.41426">
        <ele>5.8</ele>
        <time>2023-09-03T08:52:01Z</time>
      </trkpt>
      <trkpt lat="49.49106" lon="0.41439">
        <ele>5.9</ele>
        <time>2023-09-03T08:52:02Z</time>
      </trkpt>
      <trkpt lat="49.49107" lon="0.41451">
        <ele>6</ele>
        <time>2023-09-03T08:52:03Z</time>
      </trkpt>
      <trkpt lat="49.49108" lon="0.41464">
        <ele>5.9</ele>
        <time>2023-09-03T08:52:04Z</time>
      </trkpt>
      <trkpt lat="49.49108" lon="0.41477">
        <ele>5.9</ele>
        <time>2023-09-03T08:52:05Z</time>
      </trkpt>
      <trkpt lat="49.49109" lon="0.41489">
        <ele>5.9</ele>
        <time>2023-09-03T08:52:06Z</time>
      </trkpt>
      <trkpt lat="49.4911" lon="0.41502">
        <ele>5.9</ele>
        <time>2023-09-03T08:52:07Z</time>
      </trkpt>
      <trkpt lat="49.4911" lon="0.41514">
        <ele>5.9</ele>
        <time>2023-09-03T08:52:08Z</time>
      </trkpt>
      <trkpt lat="49.49111" lon="0.41526">
        <ele>5.9</ele>
        <time>2023-09-03T08:52:09Z</time>
      </trkpt>
      <trkpt lat="49.49111" lon="0.41538">
        <ele>6</ele>
        <time>2023-09-03T08:52:10Z</time>
      </trkpt>
      <trkpt lat="49.49112" lon="0.4155">
        <ele>6</ele>
        <time>2023-09-03T08:52:11Z</time>
      </trkpt>
      <trkpt lat="49.49113" lon="0.41562">
        <ele>6</ele>
        <time>2023-09-03T08:52:12Z</time>
      </trkpt>
      <trkpt lat="49.49113" lon="0.41574">
        <ele>6</ele>
        <time>2023-09-03T08:52:13Z</time>
      </trkpt>
      <trkpt lat="49.49113" lon="0.41586">
        <ele>6</ele>
        <time>2023-09-03T08:52:14Z</time>
      </trkpt>
      <trkpt lat="49.49113" lon="0.41598">
        <ele>6</ele>
        <time>2023-09-03T08:52:15Z</time>
      </trkpt>
      <trkpt lat="49.49113" lon="0.41609">
        <ele>6</ele>
        <time>2023-09-03T08:52:16Z</time>
      </trkpt>
      <trkpt lat="49.49113" lon="0.4162">
        <ele>6</ele>
        <time>2023-09-03T08:52:17Z</time>
      </trkpt>
      <trkpt lat="49.49113" lon="0.41631">
        <ele>6.1</ele>
        <time>2023-09-03T08:52:18Z</time>
      </trkpt>
      <trkpt lat="49.49113" lon="0.41642">
        <ele>6</ele>
        <time>2023-09-03T08:52:19Z</time>
      </trkpt>
      <trkpt lat="49.49112" lon="0.41653">
        <ele>6</ele>
        <time>2023-09-03T08:52:20Z</time>
      </trkpt>
      <trkpt lat="49.49112" lon="0.41665">
        <ele>6</ele>
        <time>2023-09-03T08:52:21Z</time>
      </trkpt>
      <trkpt lat="49.49111" lon="0.41676">
        <ele>6</ele>
        <time>2023-09-03T08:52:22Z</time>
      </trkpt>
      <trkpt lat="49.4911" lon="0.41688">
        <ele>5.9</ele>
        <time>2023-09-03T08:52:23Z</time>
      </trkpt>
      <trkpt lat="49.4911" lon="0.41701">
        <ele>6</ele>
        <time>2023-09-03T08:52:24Z</time>
      </trkpt>
      <trkpt lat="49.49109" lon="0.41713">
        <ele>6</ele>
        <time>2023-09-03T08:52:25Z</time>
      </trkpt>
      <trkpt lat="49.49108" lon="0.41725">
        <ele>6</ele>
        <time>2023-09-03T08:52:26Z</time>
      </trkpt>
      <trkpt lat="49.49108" lon="0.41736">
        <ele>6.1</ele>
        <time>2023-09-03T08:52:27Z</time>
      </trkpt>
      <trkpt lat="49.49107" lon="0.41748">
        <ele>6.1</ele>
        <time>2023-09-03T08:52:28Z</time>
      </trkpt>
      <trkpt lat="49.49107" lon="0.4176">
        <ele>6.1</ele>
        <time>2023-09-03T08:52:29Z</time>
      </trkpt>
      <trkpt lat="49.49106" lon="0.41771">
        <ele>6.1</ele>
        <time>2023-09-03T08:52:30Z</time>
      </trkpt>
      <trkpt lat="49.49106" lon="0.41782">
        <ele>6.1</ele>
        <time>2023-09-03T08:52:31Z</time>
      </trkpt>
      <trkpt lat="49.49105" lon="0.41793">
        <ele>6.1</ele>
        <time>2023-09-03T08:52:32Z</time>
      </trkpt>
      <trkpt lat="49.49104" lon="0.41804">
        <ele>6.1</ele>
        <time>2023-09-03T08:52:33Z</time>
      </trkpt>
      <trkpt lat="49.49103" lon="0.41816">
        <ele>6.1</ele>
        <time>2023-09-03T08:52:34Z</time>
      </trkpt>
      <trkpt lat="49.49101" lon="0.41828">
        <ele>6.1</ele>
        <time>2023-09-03T08:52:35Z</time>
      </trkpt>
      <trkpt lat="49.491" lon="0.41839">
        <ele>6.1</ele>
        <time>2023-09-03T08:52:36Z</time>
      </trkpt>
      <trkpt lat="49.49099" lon="0.41851">
        <ele>6</ele>
        <time>2023-09-03T08:52:37Z</time>
      </trkpt>
      <trkpt lat="49.49098" lon="0.41863">
        <ele>6</ele>
        <time>2023-09-03T08:52:38Z</time>
      </trkpt>
      <trkpt lat="49.49097" lon="0.41875">
        <ele>6</ele>
        <time>2023-09-03T08:52:39Z</time>
      </trkpt>
      <trkpt lat="49.49095" lon="0.41888">
        <ele>5.9</ele>
        <time>2023-09-03T08:52:40Z</time>
      </trkpt>
      <trkpt lat="49.49094" lon="0.419">
        <ele>5.9</ele>
        <time>2023-09-03T08:52:41Z</time>
      </trkpt>
      <trkpt lat="49.49093" lon="0.41912">
        <ele>5.9</ele>
        <time>2023-09-03T08:52:42Z</time>
      </trkpt>
      <trkpt lat="49.49091" lon="0.41924">
        <ele>5.9</ele>
        <time>2023-09-03T08:52:43Z</time>
      </trkpt>
      <trkpt lat="49.4909" lon="0.41937">
        <ele>5.9</ele>
        <time>2023-09-03T08:52:44Z</time>
      </trkpt>
      <trkpt lat="49.49089" lon="0.41949">
        <ele>5.8</ele>
        <time>2023-09-03T08:52:45Z</time>
      </trkpt>
      <trkpt lat="49.49087" lon="0.41962">
        <ele>5.8</ele>
        <time>2023-09-03T08:52:46Z</time>
      </trkpt>
      <trkpt lat="49.49085" lon="0.41975">
        <ele>5.8</ele>
        <time>2023-09-03T08:52:47Z</time>
      </trkpt>
      <trkpt lat="49.49083" lon="0.41988">
        <ele>5.8</ele>
        <time>2023-09-03T08:52:48Z</time>
      </trkpt>
      <trkpt lat="49.49081" lon="0.42">
        <ele>5.8</ele>
        <time>2023-09-03T08:52:49Z</time>
      </trkpt>
      <trkpt lat="49.49079" lon="0.42012">
        <ele>5.8</ele>
        <time>2023-09-03T08:52:50Z</time>
      </trkpt>
      <trkpt lat="49.49077" lon="0.42025">
        <ele>5.8</ele>
        <time>2023-09-03T08:52:51Z</time>
      </trkpt>
      <trkpt lat="49.49075" lon="0.42037">
        <ele>5.8</ele>
        <time>2023-09-03T08:52:52Z</time>
      </trkpt>
      <trkpt lat="49.49073" lon="0.42049">
        <ele>5.8</ele>
        <time>2023-09-03T08:52:53Z</time>
      </trkpt>
      <trkpt lat="49.49071" lon="0.42062">
        <ele>5.8</ele>
        <time>2023-09-03T08:52:54Z</time>
      </trkpt>
      <trkpt lat="49.49069" lon="0.42074">
        <ele>5.8</ele>
        <time>2023-09-03T08:52:55Z</time>
      </trkpt>
      <trkpt lat="49.49067" lon="0.42086">
        <ele>5.8</ele>
        <time>2023-09-03T08:52:56Z</time>
      </trkpt>
      <trkpt lat="49.49064" lon="0.42098">
        <ele>5.8</ele>
        <time>2023-09-03T08:52:57Z</time>
      </trkpt>
      <trkpt lat="49.49062" lon="0.4211">
        <ele>5.8</ele>
        <time>2023-09-03T08:52:58Z</time>
      </trkpt>
      <trkpt lat="49.49059" lon="0.42122">
        <ele>5.8</ele>
        <time>2023-09-03T08:52:59Z</time>
      </trkpt>
      <trkpt lat="49.49057" lon="0.42134">
        <ele>5.8</ele>
        <time>2023-09-03T08:53:00Z</time>
      </trkpt>
      <trkpt lat="49.49055" lon="0.42146">
        <ele>5.8</ele>
        <time>2023-09-03T08:53:01Z</time>
      </trkpt>
      <trkpt lat="49.49053" lon="0.42158">
        <ele>5.8</ele>
        <time>2023-09-03T08:53:02Z</time>
      </trkpt>
      <trkpt lat="49.49051" lon="0.42168">
        <ele>5.8</ele>
        <time>2023-09-03T08:53:03Z</time>
      </trkpt>
      <trkpt lat="49.49048" lon="0.4218">
        <ele>5.8</ele>
        <time>2023-09-03T08:53:04Z</time>
      </trkpt>
      <trkpt lat="49.49046" lon="0.42191">
        <ele>5.8</ele>
        <time>2023-09-03T08:53:05Z</time>
      </trkpt>
      <trkpt lat="49.49044" lon="0.42202">
        <ele>5.8</ele>
        <time>2023-09-03T08:53:06Z</time>
      </trkpt>
      <trkpt lat="49.49042" lon="0.42213">
        <ele>5.8</ele>
        <time>2023-09-03T08:53:07Z</time>
      </trkpt>
      <trkpt lat="49.4904" lon="0.42225">
        <ele>5.8</ele>
        <time>2023-09-03T08:53:08Z</time>
      </trkpt>
      <trkpt lat="49.49039" lon="0.42236">
        <ele>5.8</ele>
        <time>2023-09-03T08:53:09Z</time>
      </trkpt>
      <trkpt lat="49.49037" lon="0.42247">
        <ele>5.8</ele>
        <time>2023-09-03T08:53:10Z</time>
      </trkpt>
      <trkpt lat="49.49034" lon="0.42258">
        <ele>5.8</ele>
        <time>2023-09-03T08:53:11Z</time>
      </trkpt>
      <trkpt lat="49.49032" lon="0.4227">
        <ele>5.8</ele>
        <time>2023-09-03T08:53:12Z</time>
      </trkpt>
      <trkpt lat="49.4903" lon="0.42281">
        <ele>5.9</ele>
        <time>2023-09-03T08:53:13Z</time>
      </trkpt>
      <trkpt lat="49.49028" lon="0.42292">
        <ele>5.9</ele>
        <time>2023-09-03T08:53:14Z</time>
      </trkpt>
      <trkpt lat="49.49026" lon="0.42304">
        <ele>5.9</ele>
        <time>2023-09-03T08:53:15Z</time>
      </trkpt>
      <trkpt lat="49.49024" lon="0.42315">
        <ele>5.9</ele>
        <time>2023-09-03T08:53:16Z</time>
      </trkpt>
      <trkpt lat="49.49021" lon="0.42326">
        <ele>5.8</ele>
        <time>2023-09-03T08:53:17Z</time>
      </trkpt>
      <trkpt lat="49.49019" lon="0.42338">
        <ele>5.8</ele>
        <time>2023-09-03T08:53:18Z</time>
      </trkpt>
      <trkpt lat="49.49016" lon="0.42349">
        <ele>5.8</ele>
        <time>2023-09-03T08:53:19Z</time>
      </trkpt>
      <trkpt lat="49.49014" lon="0.4236">
        <ele>5.8</ele>
        <time>2023-09-03T08:53:20Z</time>
      </trkpt>
      <trkpt lat="49.49011" lon="0.42371">
        <ele>5.8</ele>
        <time>2023-09-03T08:53:21Z</time>
      </trkpt>
      <trkpt lat="49.49009" lon="0.42382">
        <ele>5.8</ele>
        <time>2023-09-03T08:53:22Z</time>
      </trkpt>
      <trkpt lat="49.49007" lon="0.42394">
        <ele>5.8</ele>
        <time>2023-09-03T08:53:23Z</time>
      </trkpt>
      <trkpt lat="49.49004" lon="0.42405">
        <ele>5.8</ele>
        <time>2023-09-03T08:53:24Z</time>
      </trkpt>
      <trkpt lat="49.49001" lon="0.42416">
        <ele>5.8</ele>
        <time>2023-09-03T08:53:25Z</time>
      </trkpt>
      <trkpt lat="49.48999" lon="0.42428">
        <ele>5.8</ele>
        <time>2023-09-03T08:53:26Z</time>
      </trkpt>
      <trkpt lat="49.48996" lon="0.42439">
        <ele>5.8</ele>
        <time>2023-09-03T08:53:27Z</time>
      </trkpt>
      <trkpt lat="49.48993" lon="0.42451">
        <ele>5.8</ele>
        <time>2023-09-03T08:53:28Z</time>
      </trkpt>
      <trkpt lat="49.4899" lon="0.42463">
        <ele>5.8</ele>
        <time>2023-09-03T08:53:29Z</time>
      </trkpt>
      <trkpt lat="49.48987" lon="0.42475">
        <ele>5.8</ele>
        <time>2023-09-03T08:53:30Z</time>
      </trkpt>
      <trkpt lat="49.48984" lon="0.42487">
        <ele>5.8</ele>
        <time>2023-09-03T08:53:31Z</time>
      </trkpt>
      <trkpt lat="49.48981" lon="0.42499">
        <ele>5.8</ele>
        <time>2023-09-03T08:53:32Z</time>
      </trkpt>
      <trkpt lat="49.48978" lon="0.4251">
        <ele>5.8</ele>
        <time>2023-09-03T08:53:33Z</time>
      </trkpt>
      <trkpt lat="49.48975" lon="0.42522">
        <ele>5.8</ele>
        <time>2023-09-03T08:53:34Z</time>
      </trkpt>
      <trkpt lat="49.48973" lon="0.42534">
        <ele>5.8</ele>
        <time>2023-09-03T08:53:35Z</time>
      </trkpt>
      <trkpt lat="49.4897" lon="0.42546">
        <ele>5.7</ele>
        <time>2023-09-03T08:53:36Z</time>
      </trkpt>
      <trkpt lat="49.48967" lon="0.42558">
        <ele>5.7</ele>
        <time>2023-09-03T08:53:37Z</time>
      </trkpt>
      <trkpt lat="49.48963" lon="0.4257">
        <ele>5.7</ele>
        <time>2023-09-03T08:53:38Z</time>
      </trkpt>
      <trkpt lat="49.4896" lon="0.42581">
        <ele>5.7</ele>
        <time>2023-09-03T08:53:39Z</time>
      </trkpt>
      <trkpt lat="49.48956" lon="0.42592">
        <ele>5.7</ele>
        <time>2023-09-03T08:53:40Z</time>
      </trkpt>
      <trkpt lat="49.48953" lon="0.42604">
        <ele>5.7</ele>
        <time>2023-09-03T08:53:41Z</time>
      </trkpt>
      <trkpt lat="49.4895" lon="0.42615">
        <ele>5.8</ele>
        <time>2023-09-03T08:53:42Z</time>
      </trkpt>
      <trkpt lat="49.48947" lon="0.42627">
        <ele>5.8</ele>
        <time>2023-09-03T08:53:43Z</time>
      </trkpt>
      <trkpt lat="49.48943" lon="0.42639">
        <ele>5.8</ele>
        <time>2023-09-03T08:53:44Z</time>
      </trkpt>
      <trkpt lat="49.4894" lon="0.42651">
        <ele>5.8</ele>
        <time>2023-09-03T08:53:45Z</time>
      </trkpt>
      <trkpt lat="49.48936" lon="0.42662">
        <ele>5.9</ele>
        <time>2023-09-03T08:53:46Z</time>
      </trkpt>
      <trkpt lat="49.48933" lon="0.42673">
        <ele>5.9</ele>
        <time>2023-09-03T08:53:47Z</time>
      </trkpt>
      <trkpt lat="49.48929" lon="0.42684">
        <ele>5.9</ele>
        <time>2023-09-03T08:53:48Z</time>
      </trkpt>
      <trkpt lat="49.48926" lon="0.42695">
        <ele>5.9</ele>
        <time>2023-09-03T08:53:49Z</time>
      </trkpt>
      <trkpt lat="49.48922" lon="0.42707">
        <ele>5.9</ele>
        <time>2023-09-03T08:53:50Z</time>
      </trkpt>
      <trkpt lat="49.48918" lon="0.42718">
        <ele>5.9</ele>
        <time>2023-09-03T08:53:51Z</time>
      </trkpt>
      <trkpt lat="49.48915" lon="0.42728">
        <ele>5.9</ele>
        <time>2023-09-03T08:53:52Z</time>
      </trkpt>
      <trkpt lat="49.48911" lon="0.42739">
        <ele>5.9</ele>
        <time>2023-09-03T08:53:53Z</time>
      </trkpt>
      <trkpt lat="49.48907" lon="0.42749">
        <ele>6</ele>
        <time>2023-09-03T08:53:54Z</time>
      </trkpt>
      <trkpt lat="49.48904" lon="0.4276">
        <ele>6</ele>
        <time>2023-09-03T08:53:55Z</time>
      </trkpt>
      <trkpt lat="49.489" lon="0.4277">
        <ele>6</ele>
        <time>2023-09-03T08:53:56Z</time>
      </trkpt>
      <trkpt lat="49.48897" lon="0.42781">
        <ele>6</ele>
        <time>2023-09-03T08:53:57Z</time>
      </trkpt>
      <trkpt lat="49.48893" lon="0.42791">
        <ele>5.9</ele>
        <time>2023-09-03T08:53:58Z</time>
      </trkpt>
      <trkpt lat="49.48889" lon="0.42802">
        <ele>5.9</ele>
        <time>2023-09-03T08:53:59Z</time>
      </trkpt>
      <trkpt lat="49.48885" lon="0.42813">
        <ele>5.9</ele>
        <time>2023-09-03T08:54:00Z</time>
      </trkpt>
      <trkpt lat="49.48882" lon="0.42823">
        <ele>5.9</ele>
        <time>2023-09-03T08:54:01Z</time>
      </trkpt>
      <trkpt lat="49.48878" lon="0.42834">
        <ele>5.9</ele>
        <time>2023-09-03T08:54:02Z</time>
      </trkpt>
      <trkpt lat="49.48874" lon="0.42845">
        <ele>5.9</ele>
        <time>2023-09-03T08:54:03Z</time>
      </trkpt>
      <trkpt lat="49.48871" lon="0.42856">
        <ele>5.9</ele>
        <time>2023-09-03T08:54:04Z</time>
      </trkpt>
      <trkpt lat="49.48867" lon="0.42866">
        <ele>6</ele>
        <time>2023-09-03T08:54:05Z</time>
      </trkpt>
      <trkpt lat="49.48863" lon="0.42877">
        <ele>6</ele>
        <time>2023-09-03T08:54:06Z</time>
      </trkpt>
      <trkpt lat="49.4886" lon="0.42887">
        <ele>6</ele>
        <time>2023-09-03T08:54:07Z</time>
      </trkpt>
      <trkpt lat="49.48856" lon="0.42898">
        <ele>6</ele>
        <time>2023-09-03T08:54:08Z</time>
      </trkpt>
      <trkpt lat="49.48853" lon="0.42909">
        <ele>6</ele>
        <time>2023-09-03T08:54:09Z</time>
      </trkpt>
      <trkpt lat="49.48849" lon="0.42921">
        <ele>6</ele>
        <time>2023-09-03T08:54:10Z</time>
      </trkpt>
      <trkpt lat="49.48845" lon="0.42931">
        <ele>5.9</ele>
        <time>2023-09-03T08:54:11Z</time>
      </trkpt>
      <trkpt lat="49.48842" lon="0.42941">
        <ele>5.9</ele>
        <time>2023-09-03T08:54:12Z</time>
      </trkpt>
      <trkpt lat="49.48838" lon="0.42952">
        <ele>5.9</ele>
        <time>2023-09-03T08:54:13Z</time>
      </trkpt>
      <trkpt lat="49.48834" lon="0.42962">
        <ele>6</ele>
        <time>2023-09-03T08:54:14Z</time>
      </trkpt>
      <trkpt lat="49.48831" lon="0.42974">
        <ele>6</ele>
        <time>2023-09-03T08:54:15Z</time>
      </trkpt>
      <trkpt lat="49.48827" lon="0.42985">
        <ele>6</ele>
        <time>2023-09-03T08:54:16Z</time>
      </trkpt>
      <trkpt lat="49.48823" lon="0.42996">
        <ele>6</ele>
        <time>2023-09-03T08:54:17Z</time>
      </trkpt>
      <trkpt lat="49.48819" lon="0.43007">
        <ele>6</ele>
        <time>2023-09-03T08:54:18Z</time>
      </trkpt>
      <trkpt lat="49.48815" lon="0.43018">
        <ele>6</ele>
        <time>2023-09-03T08:54:19Z</time>
      </trkpt>
      <trkpt lat="49.48812" lon="0.43029">
        <ele>6</ele>
        <time>2023-09-03T08:54:20Z</time>
      </trkpt>
      <trkpt lat="49.48808" lon="0.43039">
        <ele>6</ele>
        <time>2023-09-03T08:54:21Z</time>
      </trkpt>
      <trkpt lat="49.48805" lon="0.4305">
        <ele>6</ele>
        <time>2023-09-03T08:54:22Z</time>
      </trkpt>
      <trkpt lat="49.48801" lon="0.43061">
        <ele>6</ele>
        <time>2023-09-03T08:54:23Z</time>
      </trkpt>
      <trkpt lat="49.48798" lon="0.43071">
        <ele>6</ele>
        <time>2023-09-03T08:54:24Z</time>
      </trkpt>
      <trkpt lat="49.48794" lon="0.43082">
        <ele>5.9</ele>
        <time>2023-09-03T08:54:25Z</time>
      </trkpt>
      <trkpt lat="49.4879" lon="0.43093">
        <ele>5.9</ele>
        <time>2023-09-03T08:54:26Z</time>
      </trkpt>
      <trkpt lat="49.48787" lon="0.43103">
        <ele>5.9</ele>
        <time>2023-09-03T08:54:27Z</time>
      </trkpt>
      <trkpt lat="49.48783" lon="0.43114">
        <ele>5.8</ele>
        <time>2023-09-03T08:54:28Z</time>
      </trkpt>
      <trkpt lat="49.4878" lon="0.43125">
        <ele>5.8</ele>
        <time>2023-09-03T08:54:29Z</time>
      </trkpt>
      <trkpt lat="49.48776" lon="0.43136">
        <ele>5.9</ele>
        <time>2023-09-03T08:54:30Z</time>
      </trkpt>
      <trkpt lat="49.48773" lon="0.43147">
        <ele>5.9</ele>
        <time>2023-09-03T08:54:31Z</time>
      </trkpt>
      <trkpt lat="49.48769" lon="0.43158">
        <ele>6</ele>
        <time>2023-09-03T08:54:32Z</time>
      </trkpt>
      <trkpt lat="49.48765" lon="0.4317">
        <ele>6</ele>
        <time>2023-09-03T08:54:33Z</time>
      </trkpt>
      <trkpt lat="49.48762" lon="0.43181">
        <ele>6</ele>
        <time>2023-09-03T08:54:34Z</time>
      </trkpt>
      <trkpt lat="49.48758" lon="0.43191">
        <ele>6</ele>
        <time>2023-09-03T08:54:35Z</time>
      </trkpt>
      <trkpt lat="49.48754" lon="0.43202">
        <ele>5.9</ele>
        <time>2023-09-03T08:54:36Z</time>
      </trkpt>
      <trkpt lat="49.4875" lon="0.43214">
        <ele>5.9</ele>
        <time>2023-09-03T08:54:37Z</time>
      </trkpt>
      <trkpt lat="49.48746" lon="0.43225">
        <ele>5.9</ele>
        <time>2023-09-03T08:54:38Z</time>
      </trkpt>
      <trkpt lat="49.48742" lon="0.43236">
        <ele>5.8</ele>
        <time>2023-09-03T08:54:39Z</time>
      </trkpt>
      <trkpt lat="49.48738" lon="0.43247">
        <ele>5.8</ele>
        <time>2023-09-03T08:54:40Z</time>
      </trkpt>
      <trkpt lat="49.48735" lon="0.43258">
        <ele>5.9</ele>
        <time>2023-09-03T08:54:41Z</time>
      </trkpt>
      <trkpt lat="49.48731" lon="0.43269">
        <ele>5.9</ele>
        <time>2023-09-03T08:54:42Z</time>
      </trkpt>
      <trkpt lat="49.48727" lon="0.43281">
        <ele>5.9</ele>
        <time>2023-09-03T08:54:43Z</time>
      </trkpt>
      <trkpt lat="49.48723" lon="0.43292">
        <ele>5.9</ele>
        <time>2023-09-03T08:54:44Z</time>
      </trkpt>
      <trkpt lat="49.4872" lon="0.43303">
        <ele>5.9</ele>
        <time>2023-09-03T08:54:45Z</time>
      </trkpt>
      <trkpt lat="49.48715" lon="0.43315">
        <ele>5.9</ele>
        <time>2023-09-03T08:54:46Z</time>
      </trkpt>
      <trkpt lat="49.48711" lon="0.43326">
        <ele>5.9</ele>
        <time>2023-09-03T08:54:47Z</time>
      </trkpt>
      <trkpt lat="49.48707" lon="0.43337">
        <ele>5.9</ele>
        <time>2023-09-03T08:54:48Z</time>
      </trkpt>
      <trkpt lat="49.48704" lon="0.43349">
        <ele>5.9</ele>
        <time>2023-09-03T08:54:49Z</time>
      </trkpt>
      <trkpt lat="49.487" lon="0.4336">
        <ele>5.8</ele>
        <time>2023-09-03T08:54:50Z</time>
      </trkpt>
      <trkpt lat="49.48697" lon="0.43371">
        <ele>5.8</ele>
        <time>2023-09-03T08:54:51Z</time>
      </trkpt>
      <trkpt lat="49.48693" lon="0.43382">
        <ele>5.8</ele>
        <time>2023-09-03T08:54:52Z</time>
      </trkpt>
      <trkpt lat="49.48689" lon="0.43394">
        <ele>5.7</ele>
        <time>2023-09-03T08:54:53Z</time>
      </trkpt>
      <trkpt lat="49.48685" lon="0.43405">
        <ele>5.7</ele>
        <time>2023-09-03T08:54:54Z</time>
      </trkpt>
      <trkpt lat="49.48682" lon="0.43416">
        <ele>5.7</ele>
        <time>2023-09-03T08:54:55Z</time>
      </trkpt>
      <trkpt lat="49.48678" lon="0.43426">
        <ele>5.7</ele>
        <time>2023-09-03T08:54:56Z</time>
      </trkpt>
      <trkpt lat="49.48674" lon="0.43438">
        <ele>5.7</ele>
        <time>2023-09-03T08:54:57Z</time>
      </trkpt>
      <trkpt lat="49.48671" lon="0.43449">
        <ele>5.7</ele>
        <time>2023-09-03T08:54:58Z</time>
      </trkpt>
      <trkpt lat="49.48667" lon="0.4346">
        <ele>5.7</ele>
        <time>2023-09-03T08:54:59Z</time>
      </trkpt>
      <trkpt lat="49.48663" lon="0.4347">
        <ele>5.7</ele>
        <time>2023-09-03T08:55:00Z</time>
      </trkpt>
      <trkpt lat="49.4866" lon="0.43482">
        <ele>5.7</ele>
        <time>2023-09-03T08:55:01Z</time>
      </trkpt>
      <trkpt lat="49.48656" lon="0.43492">
        <ele>5.7</ele>
        <time>2023-09-03T08:55:02Z</time>
      </trkpt>
      <trkpt lat="49.48653" lon="0.43503">
        <ele>5.7</ele>
        <time>2023-09-03T08:55:03Z</time>
      </trkpt>
      <trkpt lat="49.48649" lon="0.43514">
        <ele>5.7</ele>
        <time>2023-09-03T08:55:04Z</time>
      </trkpt>
      <trkpt lat="49.48646" lon="0.43524">
        <ele>5.7</ele>
        <time>2023-09-03T08:55:05Z</time>
      </trkpt>
      <trkpt lat="49.48643" lon="0.43534">
        <ele>5.7</ele>
        <time>2023-09-03T08:55:06Z</time>
      </trkpt>
      <trkpt lat="49.48639" lon="0.43545">
        <ele>5.7</ele>
        <time>2023-09-03T08:55:07Z</time>
      </trkpt>
      <trkpt lat="49.48636" lon="0.43556">
        <ele>5.7</ele>
        <time>2023-09-03T08:55:08Z</time>
      </trkpt>
      <trkpt lat="49.48632" lon="0.43567">
        <ele>5.7</ele>
        <time>2023-09-03T08:55:09Z</time>
      </trkpt>
      <trkpt lat="49.48629" lon="0.43578">
        <ele>5.7</ele>
        <time>2023-09-03T08:55:10Z</time>
      </trkpt>
      <trkpt lat="49.48625" lon="0.43589">
        <ele>5.7</ele>
        <time>2023-09-03T08:55:11Z</time>
      </trkpt>
      <trkpt lat="49.48621" lon="0.43599">
        <ele>5.7</ele>
        <time>2023-09-03T08:55:12Z</time>
      </trkpt>
      <trkpt lat="49.48618" lon="0.43609">
        <ele>5.7</ele>
        <time>2023-09-03T08:55:13Z</time>
      </trkpt>
      <trkpt lat="49.48615" lon="0.43619">
        <ele>5.7</ele>
        <time>2023-09-03T08:55:14Z</time>
      </trkpt>
      <trkpt lat="49.48611" lon="0.43629">
        <ele>5.7</ele>
        <time>2023-09-03T08:55:15Z</time>
      </trkpt>
      <trkpt lat="49.48608" lon="0.43639">
        <ele>5.7</ele>
        <time>2023-09-03T08:55:16Z</time>
      </trkpt>
      <trkpt lat="49.48604" lon="0.4365">
        <ele>5.6</ele>
        <time>2023-09-03T08:55:17Z</time>
      </trkpt>
      <trkpt lat="49.48601" lon="0.43661">
        <ele>5.5</ele>
        <time>2023-09-03T08:55:18Z</time>
      </trkpt>
      <trkpt lat="49.48597" lon="0.43671">
        <ele>5.5</ele>
        <time>2023-09-03T08:55:19Z</time>
      </trkpt>
      <trkpt lat="49.48593" lon="0.43682">
        <ele>5.5</ele>
        <time>2023-09-03T08:55:20Z</time>
      </trkpt>
      <trkpt lat="49.4859" lon="0.43692">
        <ele>5.6</ele>
        <time>2023-09-03T08:55:21Z</time>
      </trkpt>
      <trkpt lat="49.48586" lon="0.43703">
        <ele>5.6</ele>
        <time>2023-09-03T08:55:22Z</time>
      </trkpt>
      <trkpt lat="49.48582" lon="0.43714">
        <ele>5.6</ele>
        <time>2023-09-03T08:55:23Z</time>
      </trkpt>
      <trkpt lat="49.48578" lon="0.43725">
        <ele>5.6</ele>
        <time>2023-09-03T08:55:24Z</time>
      </trkpt>
      <trkpt lat="49.48574" lon="0.43736">
        <ele>5.7</ele>
        <time>2023-09-03T08:55:25Z</time>
      </trkpt>
      <trkpt lat="49.4857" lon="0.43746">
        <ele>5.7</ele>
        <time>2023-09-03T08:55:26Z</time>
      </trkpt>
      <trkpt lat="49.48566" lon="0.43756">
        <ele>5.8</ele>
        <time>2023-09-03T08:55:27Z</time>
      </trkpt>
      <trkpt lat="49.48562" lon="0.43767">
        <ele>5.9</ele>
        <time>2023-09-03T08:55:28Z</time>
      </trkpt>
      <trkpt lat="49.48558" lon="0.43778">
        <ele>5.9</ele>
        <time>2023-09-03T08:55:29Z</time>
      </trkpt>
      <trkpt lat="49.48554" lon="0.43788">
        <ele>5.9</ele>
        <time>2023-09-03T08:55:30Z</time>
      </trkpt>
      <trkpt lat="49.48549" lon="0.43798">
        <ele>5.9</ele>
        <time>2023-09-03T08:55:31Z</time>
      </trkpt>
      <trkpt lat="49.48545" lon="0.43809">
        <ele>6</ele>
        <time>2023-09-03T08:55:32Z</time>
      </trkpt>
      <trkpt lat="49.48541" lon="0.43819">
        <ele>6</ele>
        <time>2023-09-03T08:55:33Z</time>
      </trkpt>
      <trkpt lat="49.48536" lon="0.4383">
        <ele>6</ele>
        <time>2023-09-03T08:55:34Z</time>
      </trkpt>
      <trkpt lat="49.48532" lon="0.43841">
        <ele>6</ele>
        <time>2023-09-03T08:55:35Z</time>
      </trkpt>
      <trkpt lat="49.48528" lon="0.43852">
        <ele>6</ele>
        <time>2023-09-03T08:55:36Z</time>
      </trkpt>
      <trkpt lat="49.48524" lon="0.43863">
        <ele>6</ele>
        <time>2023-09-03T08:55:37Z</time>
      </trkpt>
      <trkpt lat="49.4852" lon="0.43874">
        <ele>6</ele>
        <time>2023-09-03T08:55:38Z</time>
      </trkpt>
      <trkpt lat="49.48516" lon="0.43885">
        <ele>6</ele>
        <time>2023-09-03T08:55:39Z</time>
      </trkpt>
      <trkpt lat="49.48512" lon="0.43896">
        <ele>6.1</ele>
        <time>2023-09-03T08:55:40Z</time>
      </trkpt>
      <trkpt lat="49.48508" lon="0.43907">
        <ele>6.1</ele>
        <time>2023-09-03T08:55:41Z</time>
      </trkpt>
      <trkpt lat="49.48504" lon="0.43917">
        <ele>6.2</ele>
        <time>2023-09-03T08:55:42Z</time>
      </trkpt>
      <trkpt lat="49.485" lon="0.43928">
        <ele>6.3</ele>
        <time>2023-09-03T08:55:43Z</time>
      </trkpt>
      <trkpt lat="49.48497" lon="0.43938">
        <ele>6.4</ele>
        <time>2023-09-03T08:55:44Z</time>
      </trkpt>
      <trkpt lat="49.48493" lon="0.43949">
        <ele>6.5</ele>
        <time>2023-09-03T08:55:45Z</time>
      </trkpt>
      <trkpt lat="49.48489" lon="0.4396">
        <ele>6.5</ele>
        <time>2023-09-03T08:55:46Z</time>
      </trkpt>
      <trkpt lat="49.48484" lon="0.4397">
        <ele>6.5</ele>
        <time>2023-09-03T08:55:47Z</time>
      </trkpt>
      <trkpt lat="49.4848" lon="0.4398">
        <ele>6.6</ele>
        <time>2023-09-03T08:55:48Z</time>
      </trkpt>
      <trkpt lat="49.48475" lon="0.43989">
        <ele>6.6</ele>
        <time>2023-09-03T08:55:49Z</time>
      </trkpt>
      <trkpt lat="49.4847" lon="0.43999">
        <ele>6.6</ele>
        <time>2023-09-03T08:55:50Z</time>
      </trkpt>
      <trkpt lat="49.48465" lon="0.44008">
        <ele>6.5</ele>
        <time>2023-09-03T08:55:51Z</time>
      </trkpt>
      <trkpt lat="49.48459" lon="0.44018">
        <ele>6.5</ele>
        <time>2023-09-03T08:55:52Z</time>
      </trkpt>
      <trkpt lat="49.48454" lon="0.44027">
        <ele>6.4</ele>
        <time>2023-09-03T08:55:53Z</time>
      </trkpt>
      <trkpt lat="49.48448" lon="0.44036">
        <ele>6.4</ele>
        <time>2023-09-03T08:55:54Z</time>
      </trkpt>
      <trkpt lat="49.48442" lon="0.44043">
        <ele>6.3</ele>
        <time>2023-09-03T08:55:55Z</time>
      </trkpt>
      <trkpt lat="49.48435" lon="0.44051">
        <ele>6.3</ele>
        <time>2023-09-03T08:55:56Z</time>
      </trkpt>
      <trkpt lat="49.48429" lon="0.44058">
        <ele>6.2</ele>
        <time>2023-09-03T08:55:57Z</time>
      </trkpt>
      <trkpt lat="49.48422" lon="0.44065">
        <ele>6.2</ele>
        <time>2023-09-03T08:55:58Z</time>
      </trkpt>
      <trkpt lat="49.48416" lon="0.44072">
        <ele>6.2</ele>
        <time>2023-09-03T08:55:59Z</time>
      </trkpt>
      <trkpt lat="49.48409" lon="0.44079">
        <ele>6.2</ele>
        <time>2023-09-03T08:56:00Z</time>
      </trkpt>
      <trkpt lat="49.48402" lon="0.44085">
        <ele>6.1</ele>
        <time>2023-09-03T08:56:01Z</time>
      </trkpt>
      <trkpt lat="49.48395" lon="0.4409">
        <ele>6</ele>
        <time>2023-09-03T08:56:02Z</time>
      </trkpt>
      <trkpt lat="49.48389" lon="0.44094">
        <ele>6</ele>
        <time>2023-09-03T08:56:03Z</time>
      </trkpt>
      <trkpt lat="49.48382" lon="0.44098">
        <ele>5.9</ele>
        <time>2023-09-03T08:56:04Z</time>
      </trkpt>
      <trkpt lat="49.48374" lon="0.44102">
        <ele>5.9</ele>
        <time>2023-09-03T08:56:05Z</time>
      </trkpt>
      <trkpt lat="49.48367" lon="0.44104">
        <ele>5.9</ele>
        <time>2023-09-03T08:56:06Z</time>
      </trkpt>
      <trkpt lat="49.48359" lon="0.44106">
        <ele>5.9</ele>
        <time>2023-09-03T08:56:07Z</time>
      </trkpt>
      <trkpt lat="49.48351" lon="0.44108">
        <ele>5.9</ele>
        <time>2023-09-03T08:56:08Z</time>
      </trkpt>
      <trkpt lat="49.48343" lon="0.44109">
        <ele>5.9</ele>
        <time>2023-09-03T08:56:09Z</time>
      </trkpt>
      <trkpt lat="49.48335" lon="0.4411">
        <ele>5.9</ele>
        <time>2023-09-03T08:56:10Z</time>
      </trkpt>
      <trkpt lat="49.48327" lon="0.44111">
        <ele>5.9</ele>
        <time>2023-09-03T08:56:11Z</time>
      </trkpt>
      <trkpt lat="49.48319" lon="0.4411">
        <ele>5.9</ele>
        <time>2023-09-03T08:56:12Z</time>
      </trkpt>
      <trkpt lat="49.48311" lon="0.4411">
        <ele>5.9</ele>
        <time>2023-09-03T08:56:13Z</time>
      </trkpt>
      <trkpt lat="49.48303" lon="0.44111">
        <ele>5.9</ele>
        <time>2023-09-03T08:56:14Z</time>
      </trkpt>
      <trkpt lat="49.48295" lon="0.44111">
        <ele>5.9</ele>
        <time>2023-09-03T08:56:15Z</time>
      </trkpt>
      <trkpt lat="49.48287" lon="0.44111">
        <ele>6</ele>
        <time>2023-09-03T08:56:16Z</time>
      </trkpt>
      <trkpt lat="49.48279" lon="0.44112">
        <ele>6</ele>
        <time>2023-09-03T08:56:17Z</time>
      </trkpt>
      <trkpt lat="49.48271" lon="0.44112">
        <ele>5.9</ele>
        <time>2023-09-03T08:56:18Z</time>
      </trkpt>
      <trkpt lat="49.48264" lon="0.44113">
        <ele>5.9</ele>
        <time>2023-09-03T08:56:19Z</time>
      </trkpt>
      <trkpt lat="49.48256" lon="0.44113">
        <ele>5.9</ele>
        <time>2023-09-03T08:56:20Z</time>
      </trkpt>
      <trkpt lat="49.48249" lon="0.44114">
        <ele>5.9</ele>
        <time>2023-09-03T08:56:21Z</time>
      </trkpt>
      <trkpt lat="49.48242" lon="0.44116">
        <ele>5.9</ele>
        <time>2023-09-03T08:56:22Z</time>
      </trkpt>
      <trkpt lat="49.48235" lon="0.44118">
        <ele>6</ele>
        <time>2023-09-03T08:56:23Z</time>
      </trkpt>
      <trkpt lat="49.48228" lon="0.44122">
        <ele>6.1</ele>
        <time>2023-09-03T08:56:24Z</time>
      </trkpt>
      <trkpt lat="49.48221" lon="0.44128">
        <ele>6.1</ele>
        <time>2023-09-03T08:56:25Z</time>
      </trkpt>
      <trkpt lat="49.48216" lon="0.44135">
        <ele>6.2</ele>
        <time>2023-09-03T08:56:26Z</time>
      </trkpt>
      <trkpt lat="49.48211" lon="0.44143">
        <ele>6.2</ele>
        <time>2023-09-03T08:56:27Z</time>
      </trkpt>
      <trkpt lat="49.48207" lon="0.44151">
        <ele>6.3</ele>
        <time>2023-09-03T08:56:28Z</time>
      </trkpt>
      <trkpt lat="49.48204" lon="0.4416">
        <ele>6.3</ele>
        <time>2023-09-03T08:56:29Z</time>
      </trkpt>
      <trkpt lat="49.48204" lon="0.44167">
        <ele>6.3</ele>
        <time>2023-09-03T08:56:30Z</time>
      </trkpt>
      <trkpt lat="49.48204" lon="0.44174">
        <ele>6.3</ele>
        <time>2023-09-03T08:56:31Z</time>
      </trkpt>
      <trkpt lat="49.48204" lon="0.44178">
        <ele>6.3</ele>
        <time>2023-09-03T08:56:32Z</time>
      </trkpt>
      <trkpt lat="49.48205" lon="0.44183">
        <ele>6.3</ele>
        <time>2023-09-03T08:56:33Z</time>
      </trkpt>
      <trkpt lat="49.48206" lon="0.44187">
        <ele>6.3</ele>
        <time>2023-09-03T08:56:34Z</time>
      </trkpt>
      <trkpt lat="49.48207" lon="0.4419">
        <ele>6.3</ele>
        <time>2023-09-03T08:56:35Z</time>
      </trkpt>
      <trkpt lat="49.48209" lon="0.44194">
        <ele>6.3</ele>
        <time>2023-09-03T08:56:36Z</time>
      </trkpt>
      <trkpt lat="49.4821" lon="0.44198">
        <ele>6.3</ele>
        <time>2023-09-03T08:56:37Z</time>
      </trkpt>
      <trkpt lat="49.48211" lon="0.44202">
        <ele>6.3</ele>
        <time>2023-09-03T08:56:38Z</time>
      </trkpt>
      <trkpt lat="49.48212" lon="0.44208">
        <ele>6.3</ele>
        <time>2023-09-03T08:56:39Z</time>
      </trkpt>
      <trkpt lat="49.48212" lon="0.4421">
        <ele>6.3</ele>
        <time>2023-09-03T08:56:40Z</time>
      </trkpt>
      <trkpt lat="49.48212" lon="0.44213">
        <ele>6.3</ele>
        <time>2023-09-03T08:56:41Z</time>
      </trkpt>
      <trkpt lat="49.48212" lon="0.44215">
        <ele>6.3</ele>
        <time>2023-09-03T08:56:42Z</time>
      </trkpt>
      <trkpt lat="49.48212" lon="0.44216">
        <ele>6.3</ele>
        <time>2023-09-03T08:56:43Z</time>
      </trkpt>
      <trkpt lat="49.48212" lon="0.44215">
        <ele>6.3</ele>
        <time>2023-09-03T08:56:44Z</time>
      </trkpt>
      <trkpt lat="49.48212" lon="0.44215">
        <ele>6.3</ele>
        <time>2023-09-03T08:56:45Z</time>
      </trkpt>
      <trkpt lat="49.48212" lon="0.44215">
        <ele>6.3</ele>
        <time>2023-09-03T08:56:46Z</time>
      </trkpt>
      <trkpt lat="49.48212" lon="0.44215">
        <ele>6.3</ele>
        <time>2023-09-03T08:56:47Z</time>
      </trkpt>
      <trkpt lat="49.48212" lon="0.44215">
        <ele>6.3</ele>
        <time>2023-09-03T08:56:48Z</time>
      </trkpt>
      <trkpt lat="49.48212" lon="0.44215">
        <ele>6.3</ele>
        <time>2023-09-03T08:56:49Z</time>
      </trkpt>
      <trkpt lat="49.48212" lon="0.44215">
        <ele>6.3</ele>
        <time>2023-09-03T08:56:50Z</time>
      </trkpt>
      <trkpt lat="49.48212" lon="0.44215">
        <ele>6.3</ele>
        <time>2023-09-03T08:56:51Z</time>
      </trkpt>
      <trkpt lat="49.48212" lon="0.44215">
        <ele>6.3</ele>
        <time>2023-09-03T08:56:52Z</time>
      </trkpt>
      <trkpt lat="49.48212" lon="0.44215">
        <ele>6.3</ele>
        <time>2023-09-03T08:56:53Z</time>
      </trkpt>
      <trkpt lat="49.48212" lon="0.44215">
        <ele>6.3</ele>
        <time>2023-09-03T08:56:54Z</time>
      </trkpt>
      <trkpt lat="49.48213" lon="0.44219">
        <ele>6.3</ele>
        <time>2023-09-03T08:57:34Z</time>
      </trkpt>
      <trkpt lat="49.48213" lon="0.4422">
        <ele>6.3</ele>
        <time>2023-09-03T08:57:35Z</time>
      </trkpt>
      <trkpt lat="49.48214" lon="0.4422">
        <ele>6.3</ele>
        <time>2023-09-03T08:57:36Z</time>
      </trkpt>
      <trkpt lat="49.48215" lon="0.44219">
        <ele>6.3</ele>
        <time>2023-09-03T08:57:37Z</time>
      </trkpt>
      <trkpt lat="49.48215" lon="0.44215">
        <ele>6.3</ele>
        <time>2023-09-03T08:57:38Z</time>
      </trkpt>
      <trkpt lat="49.48214" lon="0.44213">
        <ele>6.3</ele>
        <time>2023-09-03T08:57:39Z</time>
      </trkpt>
      <trkpt lat="49.48213" lon="0.44212">
        <ele>6.3</ele>
        <time>2023-09-03T08:57:40Z</time>
      </trkpt>
      <trkpt lat="49.48212" lon="0.44213">
        <ele>6.3</ele>
        <time>2023-09-03T08:57:41Z</time>
      </trkpt>
      <trkpt lat="49.48212" lon="0.44215">
        <ele>6.3</ele>
        <time>2023-09-03T08:57:42Z</time>
      </trkpt>
      <trkpt lat="49.48212" lon="0.44218">
        <ele>6.3</ele>
        <time>2023-09-03T08:57:43Z</time>
      </trkpt>
      <trkpt lat="49.48212" lon="0.44221">
        <ele>6.4</ele>
        <time>2023-09-03T08:57:44Z</time>
      </trkpt>
      <trkpt lat="49.48212" lon="0.44223">
        <ele>6.4</ele>
        <time>2023-09-03T08:57:45Z</time>
      </trkpt>
      <trkpt lat="49.4821" lon="0.44227">
        <ele>6.4</ele>
        <time>2023-09-03T08:57:46Z</time>
      </trkpt>
      <trkpt lat="49.4821" lon="0.44229">
        <ele>6.4</ele>
        <time>2023-09-03T08:57:47Z</time>
      </trkpt>
      <trkpt lat="49.48208" lon="0.44233">
        <ele>6.4</ele>
        <time>2023-09-03T08:57:48Z</time>
      </trkpt>
      <trkpt lat="49.48207" lon="0.44234">
        <ele>6.4</ele>
        <time>2023-09-03T08:57:49Z</time>
      </trkpt>
      <trkpt lat="49.48204" lon="0.44239">
        <ele>6.4</ele>
        <time>2023-09-03T08:57:50Z</time>
      </trkpt>
      <trkpt lat="49.48203" lon="0.4424">
        <ele>6.5</ele>
        <time>2023-09-03T08:57:51Z</time>
      </trkpt>
      <trkpt lat="49.48201" lon="0.44243">
        <ele>6.5</ele>
        <time>2023-09-03T08:57:52Z</time>
      </trkpt>
      <trkpt lat="49.48198" lon="0.44246">
        <ele>6.5</ele>
        <time>2023-09-03T08:57:53Z</time>
      </trkpt>
      <trkpt lat="49.48195" lon="0.44248">
        <ele>6.5</ele>
        <time>2023-09-03T08:57:54Z</time>
      </trkpt>
      <trkpt lat="49.48192" lon="0.4425">
        <ele>6.5</ele>
        <time>2023-09-03T08:57:55Z</time>
      </trkpt>
      <trkpt lat="49.4819" lon="0.44252">
        <ele>6.6</ele>
        <time>2023-09-03T08:57:56Z</time>
      </trkpt>
      <trkpt lat="49.48187" lon="0.44254">
        <ele>6.6</ele>
        <time>2023-09-03T08:57:57Z</time>
      </trkpt>
      <trkpt lat="49.48183" lon="0.44257">
        <ele>6.6</ele>
        <time>2023-09-03T08:57:58Z</time>
      </trkpt>
      <trkpt lat="49.48181" lon="0.44261">
        <ele>6.6</ele>
        <time>2023-09-03T08:57:59Z</time>
      </trkpt>
      <trkpt lat="49.48178" lon="0.44265">
        <ele>6.6</ele>
        <time>2023-09-03T08:58:00Z</time>
      </trkpt>
      <trkpt lat="49.48176" lon="0.44269">
        <ele>6.6</ele>
        <time>2023-09-03T08:58:01Z</time>
      </trkpt>
      <trkpt lat="49.48174" lon="0.44273">
        <ele>6.6</ele>
        <time>2023-09-03T08:58:02Z</time>
      </trkpt>
      <trkpt lat="49.48172" lon="0.44277">
        <ele>6.6</ele>
        <time>2023-09-03T08:58:03Z</time>
      </trkpt>
      <trkpt lat="49.48171" lon="0.44281">
        <ele>6.6</ele>
        <time>2023-09-03T08:58:04Z</time>
      </trkpt>
      <trkpt lat="49.48169" lon="0.44286">
        <ele>6.6</ele>
        <time>2023-09-03T08:58:05Z</time>
      </trkpt>
      <trkpt lat="49.48168" lon="0.44288">
        <ele>6.6</ele>
        <time>2023-09-03T08:58:06Z</time>
      </trkpt>
      <trkpt lat="49.48168" lon="0.44292">
        <ele>6.6</ele>
        <time>2023-09-03T08:58:07Z</time>
      </trkpt>
      <trkpt lat="49.48167" lon="0.44294">
        <ele>6.6</ele>
        <time>2023-09-03T08:58:08Z</time>
      </trkpt>
      <trkpt lat="49.48167" lon="0.44295">
        <ele>6.6</ele>
        <time>2023-09-03T08:58:09Z</time>
      </trkpt>
      <trkpt lat="49.48167" lon="0.44296">
        <ele>6.6</ele>
        <time>2023-09-03T08:58:10Z</time>
      </trkpt>
      <trkpt lat="49.48168" lon="0.44296">
        <ele>6.6</ele>
        <time>2023-09-03T08:58:11Z</time>
      </trkpt>
      <trkpt lat="49.48168" lon="0.44296">
        <ele>6.6</ele>
        <time>2023-09-03T08:58:12Z</time>
      </trkpt>
      <trkpt lat="49.48168" lon="0.44296">
        <ele>6.6</ele>
        <time>2023-09-03T08:58:13Z</time>
      </trkpt>
      <trkpt lat="49.48168" lon="0.44296">
        <ele>6.6</ele>
        <time>2023-09-03T08:58:14Z</time>
      </trkpt>
      <trkpt lat="49.48168" lon="0.44295">
        <ele>6.6</ele>
        <time>2023-09-03T08:58:15Z</time>
      </trkpt>
      <trkpt lat="49.48167" lon="0.44296">
        <ele>6.6</ele>
        <time>2023-09-03T08:58:16Z</time>
      </trkpt>
      <trkpt lat="49.48167" lon="0.44298">
        <ele>6.6</ele>
        <time>2023-09-03T08:58:17Z</time>
      </trkpt>
      <trkpt lat="49.48167" lon="0.44303">
        <ele>6.5</ele>
        <time>2023-09-03T08:58:18Z</time>
      </trkpt>
      <trkpt lat="49.48167" lon="0.44304">
        <ele>6.5</ele>
        <time>2023-09-03T08:58:19Z</time>
      </trkpt>
      <trkpt lat="49.48167" lon="0.4431">
        <ele>6.4</ele>
        <time>2023-09-03T08:58:20Z</time>
      </trkpt>
      <trkpt lat="49.48167" lon="0.44312">
        <ele>6.4</ele>
        <time>2023-09-03T08:58:21Z</time>
      </trkpt>
      <trkpt lat="49.48167" lon="0.44317">
        <ele>6.4</ele>
        <time>2023-09-03T08:58:22Z</time>
      </trkpt>
      <trkpt lat="49.48166" lon="0.44323">
        <ele>6.3</ele>
        <time>2023-09-03T08:58:23Z</time>
      </trkpt>
      <trkpt lat="49.48168" lon="0.44329">
        <ele>6.3</ele>
        <time>2023-09-03T08:58:24Z</time>
      </trkpt>
      <trkpt lat="49.48168" lon="0.44336">
        <ele>6.3</ele>
        <time>2023-09-03T08:58:25Z</time>
      </trkpt>
      <trkpt lat="49.48169" lon="0.44343">
        <ele>6.2</ele>
        <time>2023-09-03T08:58:26Z</time>
      </trkpt>
      <trkpt lat="49.4817" lon="0.44352">
        <ele>6.2</ele>
        <time>2023-09-03T08:58:27Z</time>
      </trkpt>
      <trkpt lat="49.48171" lon="0.44361">
        <ele>6.1</ele>
        <time>2023-09-03T08:58:28Z</time>
      </trkpt>
      <trkpt lat="49.48172" lon="0.4437">
        <ele>6.1</ele>
        <time>2023-09-03T08:58:29Z</time>
      </trkpt>
      <trkpt lat="49.48173" lon="0.4438">
        <ele>6.1</ele>
        <time>2023-09-03T08:58:30Z</time>
      </trkpt>
      <trkpt lat="49.48173" lon="0.4439">
        <ele>6.1</ele>
        <time>2023-09-03T08:58:31Z</time>
      </trkpt>
      <trkpt lat="49.48174" lon="0.444">
        <ele>6</ele>
        <time>2023-09-03T08:58:32Z</time>
      </trkpt>
      <trkpt lat="49.48175" lon="0.4441">
        <ele>6</ele>
        <time>2023-09-03T08:58:33Z</time>
      </trkpt>
      <trkpt lat="49.48176" lon="0.44421">
        <ele>6</ele>
        <time>2023-09-03T08:58:34Z</time>
      </trkpt>
      <trkpt lat="49.48176" lon="0.44432">
        <ele>6</ele>
        <time>2023-09-03T08:58:35Z</time>
      </trkpt>
      <trkpt lat="49.48177" lon="0.44442">
        <ele>6</ele>
        <time>2023-09-03T08:58:36Z</time>
      </trkpt>
      <trkpt lat="49.48178" lon="0.44453">
        <ele>6</ele>
        <time>2023-09-03T08:58:37Z</time>
      </trkpt>
      <trkpt lat="49.48178" lon="0.44464">
        <ele>6.1</ele>
        <time>2023-09-03T08:58:38Z</time>
      </trkpt>
      <trkpt lat="49.48178" lon="0.44475">
        <ele>6.1</ele>
        <time>2023-09-03T08:58:39Z</time>
      </trkpt>
      <trkpt lat="49.48179" lon="0.44486">
        <ele>6.2</ele>
        <time>2023-09-03T08:58:40Z</time>
      </trkpt>
      <trkpt lat="49.48179" lon="0.44496">
        <ele>6.2</ele>
        <time>2023-09-03T08:58:41Z</time>
      </trkpt>
      <trkpt lat="49.48179" lon="0.44507">
        <ele>6.2</ele>
        <time>2023-09-03T08:58:42Z</time>
      </trkpt>
      <trkpt lat="49.48179" lon="0.44518">
        <ele>6.3</ele>
        <time>2023-09-03T08:58:43Z</time>
      </trkpt>
      <trkpt lat="49.48178" lon="0.44529">
        <ele>6.3</ele>
        <time>2023-09-03T08:58:44Z</time>
      </trkpt>
      <trkpt lat="49.48177" lon="0.4454">
        <ele>6.3</ele>
        <time>2023-09-03T08:58:45Z</time>
      </trkpt>
      <trkpt lat="49.48176" lon="0.4455">
        <ele>6.3</ele>
        <time>2023-09-03T08:58:46Z</time>
      </trkpt>
      <trkpt lat="49.48175" lon="0.44561">
        <ele>6.3</ele>
        <time>2023-09-03T08:58:47Z</time>
      </trkpt>
      <trkpt lat="49.48173" lon="0.44572">
        <ele>6.3</ele>
        <time>2023-09-03T08:58:48Z</time>
      </trkpt>
      <trkpt lat="49.48171" lon="0.44583">
        <ele>6.3</ele>
        <time>2023-09-03T08:58:49Z</time>
      </trkpt>
      <trkpt lat="49.48169" lon="0.44593">
        <ele>6.3</ele>
        <time>2023-09-03T08:58:50Z</time>
      </trkpt>
      <trkpt lat="49.48167" lon="0.44604">
        <ele>6.4</ele>
        <time>2023-09-03T08:58:51Z</time>
      </trkpt>
      <trkpt lat="49.48165" lon="0.44614">
        <ele>6.4</ele>
        <time>2023-09-03T08:58:52Z</time>
      </trkpt>
      <trkpt lat="49.48163" lon="0.44625">
        <ele>6.4</ele>
        <time>2023-09-03T08:58:53Z</time>
      </trkpt>
      <trkpt lat="49.4816" lon="0.44635">
        <ele>6.4</ele>
        <time>2023-09-03T08:58:54Z</time>
      </trkpt>
      <trkpt lat="49.48158" lon="0.44646">
        <ele>6.4</ele>
        <time>2023-09-03T08:58:55Z</time>
      </trkpt>
      <trkpt lat="49.48155" lon="0.44656">
        <ele>6.4</ele>
        <time>2023-09-03T08:58:56Z</time>
      </trkpt>
      <trkpt lat="49.48152" lon="0.44666">
        <ele>6.4</ele>
        <time>2023-09-03T08:58:57Z</time>
      </trkpt>
      <trkpt lat="49.48149" lon="0.44677">
        <ele>6.4</ele>
        <time>2023-09-03T08:58:58Z</time>
      </trkpt>
      <trkpt lat="49.48146" lon="0.44687">
        <ele>6.4</ele>
        <time>2023-09-03T08:58:59Z</time>
      </trkpt>
      <trkpt lat="49.48144" lon="0.44697">
        <ele>6.4</ele>
        <time>2023-09-03T08:59:00Z</time>
      </trkpt>
      <trkpt lat="49.48141" lon="0.44707">
        <ele>6.4</ele>
        <time>2023-09-03T08:59:01Z</time>
      </trkpt>
      <trkpt lat="49.48138" lon="0.44717">
        <ele>6.4</ele>
        <time>2023-09-03T08:59:02Z</time>
      </trkpt>
      <trkpt lat="49.48134" lon="0.44727">
        <ele>6.4</ele>
        <time>2023-09-03T08:59:03Z</time>
      </trkpt>
      <trkpt lat="49.48131" lon="0.44737">
        <ele>6.4</ele>
        <time>2023-09-03T08:59:04Z</time>
      </trkpt>
      <trkpt lat="49.48128" lon="0.44747">
        <ele>6.5</ele>
        <time>2023-09-03T08:59:05Z</time>
      </trkpt>
      <trkpt lat="49.48124" lon="0.44757">
        <ele>6.5</ele>
        <time>2023-09-03T08:59:06Z</time>
      </trkpt>
      <trkpt lat="49.48121" lon="0.44767">
        <ele>6.5</ele>
        <time>2023-09-03T08:59:07Z</time>
      </trkpt>
      <trkpt lat="49.48117" lon="0.44776">
        <ele>6.6</ele>
        <time>2023-09-03T08:59:08Z</time>
      </trkpt>
      <trkpt lat="49.48113" lon="0.44785">
        <ele>6.7</ele>
        <time>2023-09-03T08:59:09Z</time>
      </trkpt>
      <trkpt lat="49.48109" lon="0.44795">
        <ele>6.7</ele>
        <time>2023-09-03T08:59:10Z</time>
      </trkpt>
      <trkpt lat="49.48106" lon="0.44804">
        <ele>6.8</ele>
        <time>2023-09-03T08:59:11Z</time>
      </trkpt>
      <trkpt lat="49.48102" lon="0.44813">
        <ele>6.8</ele>
        <time>2023-09-03T08:59:12Z</time>
      </trkpt>
      <trkpt lat="49.48098" lon="0.44822">
        <ele>6.9</ele>
        <time>2023-09-03T08:59:13Z</time>
      </trkpt>
      <trkpt lat="49.48094" lon="0.4483">
        <ele>6.9</ele>
        <time>2023-09-03T08:59:14Z</time>
      </trkpt>
      <trkpt lat="49.4809" lon="0.44839">
        <ele>6.9</ele>
        <time>2023-09-03T08:59:15Z</time>
      </trkpt>
      <trkpt lat="49.48086" lon="0.44848">
        <ele>6.9</ele>
        <time>2023-09-03T08:59:16Z</time>
      </trkpt>
      <trkpt lat="49.48082" lon="0.44857">
        <ele>6.9</ele>
        <time>2023-09-03T08:59:17Z</time>
      </trkpt>
      <trkpt lat="49.48078" lon="0.44866">
        <ele>6.8</ele>
        <time>2023-09-03T08:59:18Z</time>
      </trkpt>
      <trkpt lat="49.48074" lon="0.44876">
        <ele>6.7</ele>
        <time>2023-09-03T08:59:19Z</time>
      </trkpt>
      <trkpt lat="49.4807" lon="0.44885">
        <ele>6.6</ele>
        <time>2023-09-03T08:59:20Z</time>
      </trkpt>
      <trkpt lat="49.48066" lon="0.44895">
        <ele>6.6</ele>
        <time>2023-09-03T08:59:21Z</time>
      </trkpt>
      <trkpt lat="49.48062" lon="0.44904">
        <ele>6.5</ele>
        <time>2023-09-03T08:59:22Z</time>
      </trkpt>
      <trkpt lat="49.48058" lon="0.44913">
        <ele>6.5</ele>
        <time>2023-09-03T08:59:23Z</time>
      </trkpt>
      <trkpt lat="49.48053" lon="0.44922">
        <ele>6.4</ele>
        <time>2023-09-03T08:59:24Z</time>
      </trkpt>
      <trkpt lat="49.48049" lon="0.44931">
        <ele>6.4</ele>
        <time>2023-09-03T08:59:25Z</time>
      </trkpt>
      <trkpt lat="49.48045" lon="0.44939">
        <ele>6.4</ele>
        <time>2023-09-03T08:59:26Z</time>
      </trkpt>
      <trkpt lat="49.4804" lon="0.44948">
        <ele>6.4</ele>
        <time>2023-09-03T08:59:27Z</time>
      </trkpt>
      <trkpt lat="49.48035" lon="0.44957">
        <ele>6.4</ele>
        <time>2023-09-03T08:59:28Z</time>
      </trkpt>
      <trkpt lat="49.48031" lon="0.44965">
        <ele>6.3</ele>
        <time>2023-09-03T08:59:29Z</time>
      </trkpt>
      <trkpt lat="49.48026" lon="0.44974">
        <ele>6.3</ele>
        <time>2023-09-03T08:59:30Z</time>
      </trkpt>
      <trkpt lat="49.48021" lon="0.44982">
        <ele>6.2</ele>
        <time>2023-09-03T08:59:31Z</time>
      </trkpt>
      <trkpt lat="49.48016" lon="0.44991">
        <ele>6.2</ele>
        <time>2023-09-03T08:59:32Z</time>
      </trkpt>
      <trkpt lat="49.48012" lon="0.45">
        <ele>6.1</ele>
        <time>2023-09-03T08:59:33Z</time>
      </trkpt>
      <trkpt lat="49.48007" lon="0.45007">
        <ele>6.1</ele>
        <time>2023-09-03T08:59:34Z</time>
      </trkpt>
      <trkpt lat="49.48003" lon="0.45015">
        <ele>6</ele>
        <time>2023-09-03T08:59:35Z</time>
      </trkpt>
      <trkpt lat="49.47998" lon="0.45024">
        <ele>6</ele>
        <time>2023-09-03T08:59:36Z</time>
      </trkpt>
      <trkpt lat="49.47993" lon="0.45032">
        <ele>6</ele>
        <time>2023-09-03T08:59:37Z</time>
      </trkpt>
      <trkpt lat="49.47989" lon="0.4504">
        <ele>6</ele>
        <time>2023-09-03T08:59:38Z</time>
      </trkpt>
      <trkpt lat="49.47984" lon="0.45048">
        <ele>6</ele>
        <time>2023-09-03T08:59:39Z</time>
      </trkpt>
      <trkpt lat="49.4798" lon="0.45056">
        <ele>6</ele>
        <time>2023-09-03T08:59:40Z</time>
      </trkpt>
      <trkpt lat="49.47976" lon="0.45064">
        <ele>5.9</ele>
        <time>2023-09-03T08:59:41Z</time>
      </trkpt>
      <trkpt lat="49.47971" lon="0.45072">
        <ele>5.9</ele>
        <time>2023-09-03T08:59:42Z</time>
      </trkpt>
      <trkpt lat="49.47967" lon="0.4508">
        <ele>5.9</ele>
        <time>2023-09-03T08:59:43Z</time>
      </trkpt>
      <trkpt lat="49.47962" lon="0.45089">
        <ele>5.9</ele>
        <time>2023-09-03T08:59:44Z</time>
      </trkpt>
      <trkpt lat="49.47958" lon="0.45097">
        <ele>5.9</ele>
        <time>2023-09-03T08:59:45Z</time>
      </trkpt>
      <trkpt lat="49.47953" lon="0.45105">
        <ele>5.9</ele>
        <time>2023-09-03T08:59:46Z</time>
      </trkpt>
      <trkpt lat="49.47948" lon="0.45114">
        <ele>5.9</ele>
        <time>2023-09-03T08:59:47Z</time>
      </trkpt>
      <trkpt lat="49.47943" lon="0.45122">
        <ele>5.9</ele>
        <time>2023-09-03T08:59:48Z</time>
      </trkpt>
      <trkpt lat="49.47938" lon="0.4513">
        <ele>5.9</ele>
        <time>2023-09-03T08:59:49Z</time>
      </trkpt>
      <trkpt lat="49.47934" lon="0.45138">
        <ele>5.9</ele>
        <time>2023-09-03T08:59:50Z</time>
      </trkpt>
      <trkpt lat="49.47929" lon="0.45146">
        <ele>5.9</ele>
        <time>2023-09-03T08:59:51Z</time>
      </trkpt>
      <trkpt lat="49.47924" lon="0.45155">
        <ele>6</ele>
        <time>2023-09-03T08:59:52Z</time>
      </trkpt>
      <trkpt lat="49.4792" lon="0.45164">
        <ele>6</ele>
        <time>2023-09-03T08:59:53Z</time>
      </trkpt>
      <trkpt lat="49.47915" lon="0.45173">
        <ele>6</ele>
        <time>2023-09-03T08:59:54Z</time>
      </trkpt>
      <trkpt lat="49.4791" lon="0.45181">
        <ele>6</ele>
        <time>2023-09-03T08:59:55Z</time>
      </trkpt>
      <trkpt lat="49.47905" lon="0.4519">
        <ele>6.1</ele>
        <time>2023-09-03T08:59:56Z</time>
      </trkpt>
      <trkpt lat="49.479" lon="0.45198">
        <ele>6.1</ele>
        <time>2023-09-03T08:59:57Z</time>
      </trkpt>
      <trkpt lat="49.47894" lon="0.45207">
        <ele>6.1</ele>
        <time>2023-09-03T08:59:58Z</time>
      </trkpt>
      <trkpt lat="49.47889" lon="0.45215">
        <ele>6.1</ele>
        <time>2023-09-03T08:59:59Z</time>
      </trkpt>
      <trkpt lat="49.47884" lon="0.45224">
        <ele>6.1</ele>
        <time>2023-09-03T09:00:00Z</time>
      </trkpt>
      <trkpt lat="49.47879" lon="0.45233">
        <ele>6.1</ele>
        <time>2023-09-03T09:00:01Z</time>
      </trkpt>
      <trkpt lat="49.47874" lon="0.45241">
        <ele>6.1</ele>
        <time>2023-09-03T09:00:02Z</time>
      </trkpt>
      <trkpt lat="49.47869" lon="0.4525">
        <ele>6.2</ele>
        <time>2023-09-03T09:00:03Z</time>
      </trkpt>
      <trkpt lat="49.47865" lon="0.45259">
        <ele>6.2</ele>
        <time>2023-09-03T09:00:04Z</time>
      </trkpt>
      <trkpt lat="49.4786" lon="0.45268">
        <ele>6.2</ele>
        <time>2023-09-03T09:00:05Z</time>
      </trkpt>
      <trkpt lat="49.47856" lon="0.45276">
        <ele>6.3</ele>
        <time>2023-09-03T09:00:06Z</time>
      </trkpt>
      <trkpt lat="49.47851" lon="0.45285">
        <ele>6.3</ele>
        <time>2023-09-03T09:00:07Z</time>
      </trkpt>
      <trkpt lat="49.47846" lon="0.45293">
        <ele>6.3</ele>
        <time>2023-09-03T09:00:08Z</time>
      </trkpt>
      <trkpt lat="49.47841" lon="0.45302">
        <ele>6.3</ele>
        <time>2023-09-03T09:00:09Z</time>
      </trkpt>
      <trkpt lat="49.47837" lon="0.45311">
        <ele>6.3</ele>
        <time>2023-09-03T09:00:10Z</time>
      </trkpt>
      <trkpt lat="49.47832" lon="0.4532">
        <ele>6.3</ele>
        <time>2023-09-03T09:00:11Z</time>
      </trkpt>
      <trkpt lat="49.47827" lon="0.45328">
        <ele>6.4</ele>
        <time>2023-09-03T09:00:12Z</time>
      </trkpt>
      <trkpt lat="49.47822" lon="0.45337">
        <ele>6.4</ele>
        <time>2023-09-03T09:00:13Z</time>
      </trkpt>
      <trkpt lat="49.47818" lon="0.45346">
        <ele>6.4</ele>
        <time>2023-09-03T09:00:14Z</time>
      </trkpt>
      <trkpt lat="49.47813" lon="0.45354">
        <ele>6.4</ele>
        <time>2023-09-03T09:00:15Z</time>
      </trkpt>
      <trkpt lat="49.47808" lon="0.45363">
        <ele>6.4</ele>
        <time>2023-09-03T09:00:16Z</time>
      </trkpt>
      <trkpt lat="49.47803" lon="0.45371">
        <ele>6.4</ele>
        <time>2023-09-03T09:00:17Z</time>
      </trkpt>
      <trkpt lat="49.47799" lon="0.4538">
        <ele>6.4</ele>
        <time>2023-09-03T09:00:18Z</time>
      </trkpt>
      <trkpt lat="49.47794" lon="0.45389">
        <ele>6.4</ele>
        <time>2023-09-03T09:00:19Z</time>
      </trkpt>
      <trkpt lat="49.47789" lon="0.45398">
        <ele>6.4</ele>
        <time>2023-09-03T09:00:20Z</time>
      </trkpt>
      <trkpt lat="49.47784" lon="0.45407">
        <ele>6.4</ele>
        <time>2023-09-03T09:00:21Z</time>
      </trkpt>
      <trkpt lat="49.47779" lon="0.45416">
        <ele>6.4</ele>
        <time>2023-09-03T09:00:22Z</time>
      </trkpt>
      <trkpt lat="49.47774" lon="0.45424">
        <ele>6.4</ele>
        <time>2023-09-03T09:00:23Z</time>
      </trkpt>
      <trkpt lat="49.47768" lon="0.45433">
        <ele>6.4</ele>
        <time>2023-09-03T09:00:24Z</time>
      </trkpt>
      <trkpt lat="49.47763" lon="0.45442">
        <ele>6.4</ele>
        <time>2023-09-03T09:00:25Z</time>
      </trkpt>
      <trkpt lat="49.47758" lon="0.45451">
        <ele>6.4</ele>
        <time>2023-09-03T09:00:26Z</time>
      </trkpt>
      <trkpt lat="49.47753" lon="0.45461">
        <ele>6.5</ele>
        <time>2023-09-03T09:00:27Z</time>
      </trkpt>
      <trkpt lat="49.47748" lon="0.4547">
        <ele>6.6</ele>
        <time>2023-09-03T09:00:28Z</time>
      </trkpt>
      <trkpt lat="49.47743" lon="0.45479">
        <ele>6.7</ele>
        <time>2023-09-03T09:00:29Z</time>
      </trkpt>
      <trkpt lat="49.47738" lon="0.45488">
        <ele>6.7</ele>
        <time>2023-09-03T09:00:30Z</time>
      </trkpt>
      <trkpt lat="49.47734" lon="0.45496">
        <ele>6.7</ele>
        <time>2023-09-03T09:00:31Z</time>
      </trkpt>
      <trkpt lat="49.47729" lon="0.45504">
        <ele>6.7</ele>
        <time>2023-09-03T09:00:32Z</time>
      </trkpt>
      <trkpt lat="49.47724" lon="0.45513">
        <ele>6.7</ele>
        <time>2023-09-03T09:00:33Z</time>
      </trkpt>
      <trkpt lat="49.4772" lon="0.45522">
        <ele>6.7</ele>
        <time>2023-09-03T09:00:34Z</time>
      </trkpt>
      <trkpt lat="49.47715" lon="0.45531">
        <ele>6.7</ele>
        <time>2023-09-03T09:00:35Z</time>
      </trkpt>
      <trkpt lat="49.4771" lon="0.4554">
        <ele>6.6</ele>
        <time>2023-09-03T09:00:36Z</time>
      </trkpt>
      <trkpt lat="49.47705" lon="0.45548">
        <ele>6.6</ele>
        <time>2023-09-03T09:00:37Z</time>
      </trkpt>
      <trkpt lat="49.477" lon="0.45557">
        <ele>6.6</ele>
        <time>2023-09-03T09:00:38Z</time>
      </trkpt>
      <trkpt lat="49.47695" lon="0.45566">
        <ele>6.7</ele>
        <time>2023-09-03T09:00:39Z</time>
      </trkpt>
      <trkpt lat="49.4769" lon="0.45575">
        <ele>6.8</ele>
        <time>2023-09-03T09:00:40Z</time>
      </trkpt>
      <trkpt lat="49.47685" lon="0.45584">
        <ele>6.8</ele>
        <time>2023-09-03T09:00:41Z</time>
      </trkpt>
      <trkpt lat="49.4768" lon="0.45593">
        <ele>6.9</ele>
        <time>2023-09-03T09:00:42Z</time>
      </trkpt>
      <trkpt lat="49.47675" lon="0.45602">
        <ele>6.9</ele>
        <time>2023-09-03T09:00:43Z</time>
      </trkpt>
      <trkpt lat="49.4767" lon="0.45611">
        <ele>7</ele>
        <time>2023-09-03T09:00:44Z</time>
      </trkpt>
      <trkpt lat="49.47666" lon="0.4562">
        <ele>7</ele>
        <time>2023-09-03T09:00:45Z</time>
      </trkpt>
      <trkpt lat="49.47661" lon="0.45629">
        <ele>7</ele>
        <time>2023-09-03T09:00:46Z</time>
      </trkpt>
      <trkpt lat="49.47656" lon="0.45637">
        <ele>7</ele>
        <time>2023-09-03T09:00:47Z</time>
      </trkpt>
      <trkpt lat="49.47651" lon="0.45646">
        <ele>7</ele>
        <time>2023-09-03T09:00:48Z</time>
      </trkpt>
      <trkpt lat="49.47645" lon="0.45654">
        <ele>7.1</ele>
        <time>2023-09-03T09:00:49Z</time>
      </trkpt>
      <trkpt lat="49.47641" lon="0.45663">
        <ele>7.1</ele>
        <time>2023-09-03T09:00:50Z</time>
      </trkpt>
      <trkpt lat="49.47636" lon="0.45672">
        <ele>7.1</ele>
        <time>2023-09-03T09:00:51Z</time>
      </trkpt>
      <trkpt lat="49.47631" lon="0.45681">
        <ele>7.2</ele>
        <time>2023-09-03T09:00:52Z</time>
      </trkpt>
      <trkpt lat="49.47625" lon="0.4569">
        <ele>7.2</ele>
        <time>2023-09-03T09:00:53Z</time>
      </trkpt>
      <trkpt lat="49.4762" lon="0.45699">
        <ele>7.2</ele>
        <time>2023-09-03T09:00:54Z</time>
      </trkpt>
      <trkpt lat="49.47616" lon="0.45708">
        <ele>7.2</ele>
        <time>2023-09-03T09:00:55Z</time>
      </trkpt>
      <trkpt lat="49.47611" lon="0.45717">
        <ele>7.2</ele>
        <time>2023-09-03T09:00:56Z</time>
      </trkpt>
      <trkpt lat="49.47606" lon="0.45726">
        <ele>7.1</ele>
        <time>2023-09-03T09:00:57Z</time>
      </trkpt>
      <trkpt lat="49.47601" lon="0.45735">
        <ele>7.1</ele>
        <time>2023-09-03T09:00:58Z</time>
      </trkpt>
      <trkpt lat="49.47597" lon="0.45743">
        <ele>7.1</ele>
        <time>2023-09-03T09:00:59Z</time>
      </trkpt>
      <trkpt lat="49.47592" lon="0.45752">
        <ele>7.2</ele>
        <time>2023-09-03T09:01:00Z</time>
      </trkpt>
      <trkpt lat="49.47587" lon="0.4576">
        <ele>7.2</ele>
        <time>2023-09-03T09:01:01Z</time>
      </trkpt>
      <trkpt lat="49.47583" lon="0.45769">
        <ele>7.2</ele>
        <time>2023-09-03T09:01:02Z</time>
      </trkpt>
      <trkpt lat="49.47579" lon="0.45776">
        <ele>7.2</ele>
        <time>2023-09-03T09:01:03Z</time>
      </trkpt>
      <trkpt lat="49.47574" lon="0.45784">
        <ele>7.2</ele>
        <time>2023-09-03T09:01:04Z</time>
      </trkpt>
      <trkpt lat="49.4757" lon="0.45791">
        <ele>7.2</ele>
        <time>2023-09-03T09:01:05Z</time>
      </trkpt>
      <trkpt lat="49.47566" lon="0.45798">
        <ele>7.2</ele>
        <time>2023-09-03T09:01:06Z</time>
      </trkpt>
      <trkpt lat="49.47563" lon="0.45805">
        <ele>7.2</ele>
        <time>2023-09-03T09:01:07Z</time>
      </trkpt>
      <trkpt lat="49.47559" lon="0.45811">
        <ele>7.2</ele>
        <time>2023-09-03T09:01:08Z</time>
      </trkpt>
      <trkpt lat="49.47555" lon="0.45818">
        <ele>7.2</ele>
        <time>2023-09-03T09:01:09Z</time>
      </trkpt>
      <trkpt lat="49.47552" lon="0.45825">
        <ele>7.2</ele>
        <time>2023-09-03T09:01:10Z</time>
      </trkpt>
      <trkpt lat="49.47548" lon="0.4583">
        <ele>7.2</ele>
        <time>2023-09-03T09:01:11Z</time>
      </trkpt>
      <trkpt lat="49.47546" lon="0.45836">
        <ele>7.2</ele>
        <time>2023-09-03T09:01:12Z</time>
      </trkpt>
      <trkpt lat="49.47543" lon="0.45841">
        <ele>7.3</ele>
        <time>2023-09-03T09:01:13Z</time>
      </trkpt>
      <trkpt lat="49.4754" lon="0.45846">
        <ele>7.3</ele>
        <time>2023-09-03T09:01:14Z</time>
      </trkpt>
      <trkpt lat="49.47539" lon="0.45851">
        <ele>7.3</ele>
        <time>2023-09-03T09:01:15Z</time>
      </trkpt>
      <trkpt lat="49.47538" lon="0.45857">
        <ele>7.4</ele>
        <time>2023-09-03T09:01:16Z</time>
      </trkpt>
      <trkpt lat="49.47538" lon="0.45863">
        <ele>7.6</ele>
        <time>2023-09-03T09:01:17Z</time>
      </trkpt>
      <trkpt lat="49.47539" lon="0.45869">
        <ele>7.7</ele>
        <time>2023-09-03T09:01:18Z</time>
      </trkpt>
      <trkpt lat="49.47541" lon="0.45875">
        <ele>7.9</ele>
        <time>2023-09-03T09:01:19Z</time>
      </trkpt>
      <trkpt lat="49.47542" lon="0.45881">
        <ele>8.1</ele>
        <time>2023-09-03T09:01:20Z</time>
      </trkpt>
      <trkpt lat="49.47543" lon="0.45887">
        <ele>8.3</ele>
        <time>2023-09-03T09:01:21Z</time>
      </trkpt>
      <trkpt lat="49.47542" lon="0.45892">
        <ele>8.6</ele>
        <time>2023-09-03T09:01:22Z</time>
      </trkpt>
      <trkpt lat="49.47541" lon="0.45896">
        <ele>8.8</ele>
        <time>2023-09-03T09:01:23Z</time>
      </trkpt>
      <trkpt lat="49.4754" lon="0.45901">
        <ele>9.1</ele>
        <time>2023-09-03T09:01:24Z</time>
      </trkpt>
      <trkpt lat="49.47539" lon="0.45905">
        <ele>9.3</ele>
        <time>2023-09-03T09:01:25Z</time>
      </trkpt>
      <trkpt lat="49.47538" lon="0.45909">
        <ele>9.6</ele>
        <time>2023-09-03T09:01:26Z</time>
      </trkpt>
      <trkpt lat="49.47537" lon="0.45914">
        <ele>10</ele>
        <time>2023-09-03T09:01:27Z</time>
      </trkpt>
      <trkpt lat="49.47537" lon="0.45916">
        <ele>10.1</ele>
        <time>2023-09-03T09:01:28Z</time>
      </trkpt>
      <trkpt lat="49.47536" lon="0.45922">
        <ele>10.5</ele>
        <time>2023-09-03T09:01:29Z</time>
      </trkpt>
      <trkpt lat="49.47536" lon="0.45923">
        <ele>10.7</ele>
        <time>2023-09-03T09:01:30Z</time>
      </trkpt>
      <trkpt lat="49.47534" lon="0.45928">
        <ele>11.1</ele>
        <time>2023-09-03T09:01:31Z</time>
      </trkpt>
      <trkpt lat="49.47533" lon="0.4593">
        <ele>11.2</ele>
        <time>2023-09-03T09:01:32Z</time>
      </trkpt>
      <trkpt lat="49.47532" lon="0.45936">
        <ele>11.7</ele>
        <time>2023-09-03T09:01:33Z</time>
      </trkpt>
      <trkpt lat="49.47532" lon="0.45938">
        <ele>11.9</ele>
        <time>2023-09-03T09:01:34Z</time>
      </trkpt>
      <trkpt lat="49.4753" lon="0.45943">
        <ele>12.4</ele>
        <time>2023-09-03T09:01:35Z</time>
      </trkpt>
      <trkpt lat="49.4753" lon="0.45945">
        <ele>12.5</ele>
        <time>2023-09-03T09:01:36Z</time>
      </trkpt>
      <trkpt lat="49.47529" lon="0.4595">
        <ele>13</ele>
        <time>2023-09-03T09:01:37Z</time>
      </trkpt>
      <trkpt lat="49.47529" lon="0.45952">
        <ele>13.2</ele>
        <time>2023-09-03T09:01:38Z</time>
      </trkpt>
      <trkpt lat="49.47528" lon="0.45957">
        <ele>13.6</ele>
        <time>2023-09-03T09:01:39Z</time>
      </trkpt>
      <trkpt lat="49.47527" lon="0.45959">
        <ele>13.8</ele>
        <time>2023-09-03T09:01:40Z</time>
      </trkpt>
      <trkpt lat="49.47526" lon="0.45964">
        <ele>14.3</ele>
        <time>2023-09-03T09:01:41Z</time>
      </trkpt>
      <trkpt lat="49.47526" lon="0.45965">
        <ele>14.4</ele>
        <time>2023-09-03T09:01:42Z</time>
      </trkpt>
      <trkpt lat="49.47524" lon="0.45971">
        <ele>14.9</ele>
        <time>2023-09-03T09:01:43Z</time>
      </trkpt>
      <trkpt lat="49.47524" lon="0.45973">
        <ele>15</ele>
        <time>2023-09-03T09:01:44Z</time>
      </trkpt>
      <trkpt lat="49.47523" lon="0.45978">
        <ele>15.5</ele>
        <time>2023-09-03T09:01:45Z</time>
      </trkpt>
      <trkpt lat="49.47522" lon="0.4598">
        <ele>15.7</ele>
        <time>2023-09-03T09:01:46Z</time>
      </trkpt>
      <trkpt lat="49.47521" lon="0.45985">
        <ele>16.1</ele>
        <time>2023-09-03T09:01:47Z</time>
      </trkpt>
      <trkpt lat="49.4752" lon="0.45986">
        <ele>16.2</ele>
        <time>2023-09-03T09:01:48Z</time>
      </trkpt>
      <trkpt lat="49.47519" lon="0.4599">
        <ele>16.6</ele>
        <time>2023-09-03T09:01:49Z</time>
      </trkpt>
      <trkpt lat="49.47518" lon="0.45992">
        <ele>16.8</ele>
        <time>2023-09-03T09:01:50Z</time>
      </trkpt>
      <trkpt lat="49.47517" lon="0.45997">
        <ele>17.2</ele>
        <time>2023-09-03T09:01:51Z</time>
      </trkpt>
      <trkpt lat="49.47516" lon="0.45999">
        <ele>17.4</ele>
        <time>2023-09-03T09:01:52Z</time>
      </trkpt>
      <trkpt lat="49.47516" lon="0.46005">
        <ele>18.2</ele>
        <time>2023-09-03T09:01:53Z</time>
      </trkpt>
      <trkpt lat="49.47516" lon="0.46007">
        <ele>18.3</ele>
        <time>2023-09-03T09:01:54Z</time>
      </trkpt>
      <trkpt lat="49.47517" lon="0.46012">
        <ele>18.7</ele>
        <time>2023-09-03T09:01:55Z</time>
      </trkpt>
      <trkpt lat="49.47518" lon="0.46014">
        <ele>18.9</ele>
        <time>2023-09-03T09:01:56Z</time>
      </trkpt>
      <trkpt lat="49.4752" lon="0.46017">
        <ele>19.2</ele>
        <time>2023-09-03T09:01:57Z</time>
      </trkpt>
      <trkpt lat="49.47523" lon="0.46019">
        <ele>19.5</ele>
        <time>2023-09-03T09:01:58Z</time>
      </trkpt>
      <trkpt lat="49.47527" lon="0.46021">
        <ele>19.8</ele>
        <time>2023-09-03T09:01:59Z</time>
      </trkpt>
      <trkpt lat="49.47528" lon="0.46021">
        <ele>20</ele>
        <time>2023-09-03T09:02:00Z</time>
      </trkpt>
      <trkpt lat="49.4753" lon="0.46022">
        <ele>20.2</ele>
        <time>2023-09-03T09:02:01Z</time>
      </trkpt>
      <trkpt lat="49.47533" lon="0.46021">
        <ele>20.5</ele>
        <time>2023-09-03T09:02:02Z</time>
      </trkpt>
      <trkpt lat="49.47536" lon="0.46021">
        <ele>20.7</ele>
        <time>2023-09-03T09:02:03Z</time>
      </trkpt>
      <trkpt lat="49.47539" lon="0.46019">
        <ele>21</ele>
        <time>2023-09-03T09:02:04Z</time>
      </trkpt>
      <trkpt lat="49.47541" lon="0.46016">
        <ele>21.2</ele>
        <time>2023-09-03T09:02:05Z</time>
      </trkpt>
      <trkpt lat="49.47544" lon="0.46014">
        <ele>21.5</ele>
        <time>2023-09-03T09:02:06Z</time>
      </trkpt>
      <trkpt lat="49.47546" lon="0.46011">
        <ele>21.7</ele>
        <time>2023-09-03T09:02:07Z</time>
      </trkpt>
      <trkpt lat="49.47548" lon="0.46008">
        <ele>22</ele>
        <time>2023-09-03T09:02:08Z</time>
      </trkpt>
      <trkpt lat="49.47551" lon="0.46005">
        <ele>22.3</ele>
        <time>2023-09-03T09:02:09Z</time>
      </trkpt>
      <trkpt lat="49.47553" lon="0.46003">
        <ele>22.6</ele>
        <time>2023-09-03T09:02:10Z</time>
      </trkpt>
      <trkpt lat="49.47556" lon="0.46001">
        <ele>22.9</ele>
        <time>2023-09-03T09:02:11Z</time>
      </trkpt>
      <trkpt lat="49.47558" lon="0.45999">
        <ele>23.1</ele>
        <time>2023-09-03T09:02:12Z</time>
      </trkpt>
      <trkpt lat="49.47562" lon="0.45996">
        <ele>23.5</ele>
        <time>2023-09-03T09:02:13Z</time>
      </trkpt>
      <trkpt lat="49.47563" lon="0.45995">
        <ele>23.6</ele>
        <time>2023-09-03T09:02:14Z</time>
      </trkpt>
      <trkpt lat="49.47566" lon="0.45993">
        <ele>24</ele>
        <time>2023-09-03T09:02:15Z</time>
      </trkpt>
      <trkpt lat="49.47568" lon="0.45992">
        <ele>24.2</ele>
        <time>2023-09-03T09:02:16Z</time>
      </trkpt>
      <trkpt lat="49.47571" lon="0.4599">
        <ele>24.6</ele>
        <time>2023-09-03T09:02:17Z</time>
      </trkpt>
      <trkpt lat="49.47572" lon="0.45989">
        <ele>24.7</ele>
        <time>2023-09-03T09:02:18Z</time>
      </trkpt>
      <trkpt lat="49.47575" lon="0.45987">
        <ele>25.1</ele>
        <time>2023-09-03T09:02:19Z</time>
      </trkpt>
      <trkpt lat="49.47576" lon="0.45987">
        <ele>25.2</ele>
        <time>2023-09-03T09:02:20Z</time>
      </trkpt>
      <trkpt lat="49.4758" lon="0.45985">
        <ele>25.6</ele>
        <time>2023-09-03T09:02:21Z</time>
      </trkpt>
      <trkpt lat="49.47581" lon="0.45984">
        <ele>25.7</ele>
        <time>2023-09-03T09:02:22Z</time>
      </trkpt>
      <trkpt lat="49.47584" lon="0.45983">
        <ele>26.2</ele>
        <time>2023-09-03T09:02:23Z</time>
      </trkpt>
      <trkpt lat="49.47585" lon="0.45982">
        <ele>26.3</ele>
        <time>2023-09-03T09:02:24Z</time>
      </trkpt>
      <trkpt lat="49.47589" lon="0.45981">
        <ele>26.7</ele>
        <time>2023-09-03T09:02:25Z</time>
      </trkpt>
      <trkpt lat="49.4759" lon="0.45981">
        <ele>26.8</ele>
        <time>2023-09-03T09:02:26Z</time>
      </trkpt>
      <trkpt lat="49.47593" lon="0.45979">
        <ele>27.2</ele>
        <time>2023-09-03T09:02:27Z</time>
      </trkpt>
      <trkpt lat="49.47594" lon="0.45979">
        <ele>27.3</ele>
        <time>2023-09-03T09:02:28Z</time>
      </trkpt>
      <trkpt lat="49.47598" lon="0.45977">
        <ele>27.8</ele>
        <time>2023-09-03T09:02:29Z</time>
      </trkpt>
      <trkpt lat="49.47599" lon="0.45976">
        <ele>27.9</ele>
        <time>2023-09-03T09:02:30Z</time>
      </trkpt>
      <trkpt lat="49.47602" lon="0.45975">
        <ele>28.4</ele>
        <time>2023-09-03T09:02:31Z</time>
      </trkpt>
      <trkpt lat="49.47603" lon="0.45974">
        <ele>28.5</ele>
        <time>2023-09-03T09:02:32Z</time>
      </trkpt>
      <trkpt lat="49.47606" lon="0.45972">
        <ele>29</ele>
        <time>2023-09-03T09:02:33Z</time>
      </trkpt>
      <trkpt lat="49.47607" lon="0.45971">
        <ele>29.1</ele>
        <time>2023-09-03T09:02:34Z</time>
      </trkpt>
      <trkpt lat="49.4761" lon="0.45968">
        <ele>29.6</ele>
        <time>2023-09-03T09:02:35Z</time>
      </trkpt>
      <trkpt lat="49.47611" lon="0.45967">
        <ele>29.7</ele>
        <time>2023-09-03T09:02:36Z</time>
      </trkpt>
      <trkpt lat="49.47613" lon="0.45965">
        <ele>30.2</ele>
        <time>2023-09-03T09:02:37Z</time>
      </trkpt>
      <trkpt lat="49.47614" lon="0.45964">
        <ele>30.3</ele>
        <time>2023-09-03T09:02:38Z</time>
      </trkpt>
      <trkpt lat="49.47616" lon="0.45962">
        <ele>30.8</ele>
        <time>2023-09-03T09:02:39Z</time>
      </trkpt>
      <trkpt lat="49.47617" lon="0.45961">
        <ele>30.9</ele>
        <time>2023-09-03T09:02:40Z</time>
      </trkpt>
      <trkpt lat="49.4762" lon="0.45959">
        <ele>31.4</ele>
        <time>2023-09-03T09:02:41Z</time>
      </trkpt>
      <trkpt lat="49.47621" lon="0.45959">
        <ele>31.5</ele>
        <time>2023-09-03T09:02:42Z</time>
      </trkpt>
      <trkpt lat="49.47623" lon="0.45956">
        <ele>32</ele>
        <time>2023-09-03T09:02:43Z</time>
      </trkpt>
      <trkpt lat="49.47624" lon="0.45956">
        <ele>32.2</ele>
        <time>2023-09-03T09:02:44Z</time>
      </trkpt>
      <trkpt lat="49.47627" lon="0.45954">
        <ele>32.7</ele>
        <time>2023-09-03T09:02:45Z</time>
      </trkpt>
      <trkpt lat="49.47628" lon="0.45953">
        <ele>32.8</ele>
        <time>2023-09-03T09:02:46Z</time>
      </trkpt>
      <trkpt lat="49.47629" lon="0.45953">
        <ele>33.1</ele>
        <time>2023-09-03T09:02:47Z</time>
      </trkpt>
      <trkpt lat="49.47631" lon="0.45953">
        <ele>33.4</ele>
        <time>2023-09-03T09:02:48Z</time>
      </trkpt>
      <trkpt lat="49.47633" lon="0.45953">
        <ele>33.7</ele>
        <time>2023-09-03T09:02:49Z</time>
      </trkpt>
      <trkpt lat="49.47635" lon="0.45954">
        <ele>33.9</ele>
        <time>2023-09-03T09:02:50Z</time>
      </trkpt>
      <trkpt lat="49.47637" lon="0.45956">
        <ele>34.3</ele>
        <time>2023-09-03T09:02:51Z</time>
      </trkpt>
      <trkpt lat="49.47638" lon="0.45957">
        <ele>34.5</ele>
        <time>2023-09-03T09:02:52Z</time>
      </trkpt>
      <trkpt lat="49.47639" lon="0.45961">
        <ele>34.8</ele>
        <time>2023-09-03T09:02:53Z</time>
      </trkpt>
      <trkpt lat="49.4764" lon="0.45962">
        <ele>35</ele>
        <time>2023-09-03T09:02:54Z</time>
      </trkpt>
      <trkpt lat="49.47639" lon="0.45966">
        <ele>35.3</ele>
        <time>2023-09-03T09:02:55Z</time>
      </trkpt>
      <trkpt lat="49.47639" lon="0.45968">
        <ele>35.4</ele>
        <time>2023-09-03T09:02:56Z</time>
      </trkpt>
      <trkpt lat="49.47637" lon="0.45972">
        <ele>35.8</ele>
        <time>2023-09-03T09:02:57Z</time>
      </trkpt>
      <trkpt lat="49.47637" lon="0.45974">
        <ele>35.9</ele>
        <time>2023-09-03T09:02:58Z</time>
      </trkpt>
      <trkpt lat="49.47635" lon="0.45977">
        <ele>36.2</ele>
        <time>2023-09-03T09:02:59Z</time>
      </trkpt>
      <trkpt lat="49.47634" lon="0.45978">
        <ele>36.3</ele>
        <time>2023-09-03T09:03:00Z</time>
      </trkpt>
      <trkpt lat="49.47632" lon="0.45982">
        <ele>36.6</ele>
        <time>2023-09-03T09:03:01Z</time>
      </trkpt>
      <trkpt lat="49.47631" lon="0.45983">
        <ele>36.7</ele>
        <time>2023-09-03T09:03:02Z</time>
      </trkpt>
      <trkpt lat="49.47629" lon="0.45986">
        <ele>37</ele>
        <time>2023-09-03T09:03:03Z</time>
      </trkpt>
      <trkpt lat="49.47628" lon="0.45987">
        <ele>37.1</ele>
        <time>2023-09-03T09:03:04Z</time>
      </trkpt>
      <trkpt lat="49.47626" lon="0.45991">
        <ele>37.4</ele>
        <time>2023-09-03T09:03:05Z</time>
      </trkpt>
      <trkpt lat="49.47626" lon="0.45993">
        <ele>37.5</ele>
        <time>2023-09-03T09:03:06Z</time>
      </trkpt>
      <trkpt lat="49.47624" lon="0.45997">
        <ele>37.9</ele>
        <time>2023-09-03T09:03:07Z</time>
      </trkpt>
      <trkpt lat="49.47623" lon="0.45998">
        <ele>38</ele>
        <time>2023-09-03T09:03:08Z</time>
      </trkpt>
      <trkpt lat="49.47621" lon="0.46003">
        <ele>38.3</ele>
        <time>2023-09-03T09:03:09Z</time>
      </trkpt>
      <trkpt lat="49.47621" lon="0.46004">
        <ele>38.4</ele>
        <time>2023-09-03T09:03:10Z</time>
      </trkpt>
      <trkpt lat="49.47619" lon="0.46008">
        <ele>38.8</ele>
        <time>2023-09-03T09:03:11Z</time>
      </trkpt>
      <trkpt lat="49.47619" lon="0.46009">
        <ele>38.9</ele>
        <time>2023-09-03T09:03:12Z</time>
      </trkpt>
      <trkpt lat="49.47617" lon="0.46013">
        <ele>39.3</ele>
        <time>2023-09-03T09:03:13Z</time>
      </trkpt>
      <trkpt lat="49.47617" lon="0.46015">
        <ele>39.4</ele>
        <time>2023-09-03T09:03:14Z</time>
      </trkpt>
      <trkpt lat="49.47615" lon="0.46019">
        <ele>39.8</ele>
        <time>2023-09-03T09:03:15Z</time>
      </trkpt>
      <trkpt lat="49.47614" lon="0.46021">
        <ele>40</ele>
        <time>2023-09-03T09:03:16Z</time>
      </trkpt>
      <trkpt lat="49.47612" lon="0.46025">
        <ele>40.4</ele>
        <time>2023-09-03T09:03:17Z</time>
      </trkpt>
      <trkpt lat="49.47612" lon="0.46027">
        <ele>40.5</ele>
        <time>2023-09-03T09:03:18Z</time>
      </trkpt>
      <trkpt lat="49.4761" lon="0.46032">
        <ele>41</ele>
        <time>2023-09-03T09:03:19Z</time>
      </trkpt>
      <trkpt lat="49.47609" lon="0.46034">
        <ele>41.2</ele>
        <time>2023-09-03T09:03:20Z</time>
      </trkpt>
      <trkpt lat="49.47607" lon="0.46039">
        <ele>41.7</ele>
        <time>2023-09-03T09:03:21Z</time>
      </trkpt>
      <trkpt lat="49.47607" lon="0.4604">
        <ele>41.8</ele>
        <time>2023-09-03T09:03:22Z</time>
      </trkpt>
      <trkpt lat="49.47605" lon="0.46046">
        <ele>42.3</ele>
        <time>2023-09-03T09:03:23Z</time>
      </trkpt>
      <trkpt lat="49.47605" lon="0.46048">
        <ele>42.5</ele>
        <time>2023-09-03T09:03:24Z</time>
      </trkpt>
      <trkpt lat="49.47606" lon="0.46053">
        <ele>43</ele>
        <time>2023-09-03T09:03:25Z</time>
      </trkpt>
      <trkpt lat="49.47607" lon="0.46055">
        <ele>43.2</ele>
        <time>2023-09-03T09:03:26Z</time>
      </trkpt>
      <trkpt lat="49.47609" lon="0.46058">
        <ele>43.6</ele>
        <time>2023-09-03T09:03:27Z</time>
      </trkpt>
      <trkpt lat="49.47612" lon="0.46059">
        <ele>43.9</ele>
        <time>2023-09-03T09:03:28Z</time>
      </trkpt>
      <trkpt lat="49.47614" lon="0.46059">
        <ele>44</ele>
        <time>2023-09-03T09:03:29Z</time>
      </trkpt>
      <trkpt lat="49.47617" lon="0.46056">
        <ele>44.3</ele>
        <time>2023-09-03T09:03:30Z</time>
      </trkpt>
      <trkpt lat="49.47618" lon="0.46054">
        <ele>44.4</ele>
        <time>2023-09-03T09:03:31Z</time>
      </trkpt>
      <trkpt lat="49.47621" lon="0.4605">
        <ele>44.7</ele>
        <time>2023-09-03T09:03:32Z</time>
      </trkpt>
      <trkpt lat="49.47621" lon="0.46049">
        <ele>44.8</ele>
        <time>2023-09-03T09:03:33Z</time>
      </trkpt>
      <trkpt lat="49.47624" lon="0.46045">
        <ele>45.1</ele>
        <time>2023-09-03T09:03:34Z</time>
      </trkpt>
      <trkpt lat="49.47625" lon="0.46043">
        <ele>45.2</ele>
        <time>2023-09-03T09:03:35Z</time>
      </trkpt>
      <trkpt lat="49.47628" lon="0.46039">
        <ele>45.5</ele>
        <time>2023-09-03T09:03:36Z</time>
      </trkpt>
      <trkpt lat="49.47629" lon="0.46038">
        <ele>45.6</ele>
        <time>2023-09-03T09:03:37Z</time>
      </trkpt>
      <trkpt lat="49.47631" lon="0.46034">
        <ele>45.9</ele>
        <time>2023-09-03T09:03:38Z</time>
      </trkpt>
      <trkpt lat="49.47632" lon="0.46033">
        <ele>46</ele>
        <time>2023-09-03T09:03:39Z</time>
      </trkpt>
      <trkpt lat="49.47635" lon="0.46029">
        <ele>46.4</ele>
        <time>2023-09-03T09:03:40Z</time>
      </trkpt>
      <trkpt lat="49.47635" lon="0.46028">
        <ele>46.5</ele>
        <time>2023-09-03T09:03:41Z</time>
      </trkpt>
      <trkpt lat="49.47638" lon="0.46024">
        <ele>46.8</ele>
        <time>2023-09-03T09:03:42Z</time>
      </trkpt>
      <trkpt lat="49.47639" lon="0.46023">
        <ele>46.9</ele>
        <time>2023-09-03T09:03:43Z</time>
      </trkpt>
      <trkpt lat="49.47642" lon="0.46019">
        <ele>47.2</ele>
        <time>2023-09-03T09:03:44Z</time>
      </trkpt>
      <trkpt lat="49.47642" lon="0.46018">
        <ele>47.3</ele>
        <time>2023-09-03T09:03:45Z</time>
      </trkpt>
      <trkpt lat="49.47645" lon="0.46013">
        <ele>47.7</ele>
        <time>2023-09-03T09:03:46Z</time>
      </trkpt>
      <trkpt lat="49.47646" lon="0.46012">
        <ele>47.8</ele>
        <time>2023-09-03T09:03:47Z</time>
      </trkpt>
      <trkpt lat="49.47648" lon="0.46008">
        <ele>48.2</ele>
        <time>2023-09-03T09:03:48Z</time>
      </trkpt>
      <trkpt lat="49.47649" lon="0.46006">
        <ele>48.3</ele>
        <time>2023-09-03T09:03:49Z</time>
      </trkpt>
      <trkpt lat="49.47651" lon="0.46002">
        <ele>48.7</ele>
        <time>2023-09-03T09:03:50Z</time>
      </trkpt>
      <trkpt lat="49.47652" lon="0.46001">
        <ele>48.8</ele>
        <time>2023-09-03T09:03:51Z</time>
      </trkpt>
      <trkpt lat="49.47654" lon="0.45996">
        <ele>49.2</ele>
        <time>2023-09-03T09:03:52Z</time>
      </trkpt>
      <trkpt lat="49.47655" lon="0.45995">
        <ele>49.4</ele>
        <time>2023-09-03T09:03:53Z</time>
      </trkpt>
      <trkpt lat="49.47658" lon="0.45991">
        <ele>49.8</ele>
        <time>2023-09-03T09:03:54Z</time>
      </trkpt>
      <trkpt lat="49.47658" lon="0.4599">
        <ele>49.9</ele>
        <time>2023-09-03T09:03:55Z</time>
      </trkpt>
      <trkpt lat="49.47661" lon="0.45986">
        <ele>50.3</ele>
        <time>2023-09-03T09:03:56Z</time>
      </trkpt>
      <trkpt lat="49.47662" lon="0.45985">
        <ele>50.4</ele>
        <time>2023-09-03T09:03:57Z</time>
      </trkpt>
      <trkpt lat="49.47665" lon="0.45982">
        <ele>50.9</ele>
        <time>2023-09-03T09:03:58Z</time>
      </trkpt>
      <trkpt lat="49.47666" lon="0.45981">
        <ele>51</ele>
        <time>2023-09-03T09:03:59Z</time>
      </trkpt>
      <trkpt lat="49.47668" lon="0.45978">
        <ele>51.4</ele>
        <time>2023-09-03T09:04:00Z</time>
      </trkpt>
      <trkpt lat="49.47669" lon="0.45977">
        <ele>51.5</ele>
        <time>2023-09-03T09:04:01Z</time>
      </trkpt>
      <trkpt lat="49.47672" lon="0.45975">
        <ele>51.9</ele>
        <time>2023-09-03T09:04:02Z</time>
      </trkpt>
      <trkpt lat="49.47673" lon="0.45975">
        <ele>52</ele>
        <time>2023-09-03T09:04:03Z</time>
      </trkpt>
      <trkpt lat="49.47676" lon="0.45976">
        <ele>52.3</ele>
        <time>2023-09-03T09:04:04Z</time>
      </trkpt>
      <trkpt lat="49.47677" lon="0.45977">
        <ele>52.4</ele>
        <time>2023-09-03T09:04:05Z</time>
      </trkpt>
      <trkpt lat="49.47678" lon="0.45981">
        <ele>52.6</ele>
        <time>2023-09-03T09:04:06Z</time>
      </trkpt>
      <trkpt lat="49.47679" lon="0.45983">
        <ele>52.7</ele>
        <time>2023-09-03T09:04:07Z</time>
      </trkpt>
      <trkpt lat="49.47678" lon="0.45988">
        <ele>52.8</ele>
        <time>2023-09-03T09:04:08Z</time>
      </trkpt>
      <trkpt lat="49.47677" lon="0.45992">
        <ele>52.9</ele>
        <time>2023-09-03T09:04:09Z</time>
      </trkpt>
      <trkpt lat="49.47676" lon="0.45996">
        <ele>53</ele>
        <time>2023-09-03T09:04:10Z</time>
      </trkpt>
      <trkpt lat="49.47674" lon="0.45999">
        <ele>53.1</ele>
        <time>2023-09-03T09:04:11Z</time>
      </trkpt>
      <trkpt lat="49.47672" lon="0.46002">
        <ele>53.2</ele>
        <time>2023-09-03T09:04:12Z</time>
      </trkpt>
      <trkpt lat="49.4767" lon="0.46005">
        <ele>53.2</ele>
        <time>2023-09-03T09:04:13Z</time>
      </trkpt>
      <trkpt lat="49.47668" lon="0.46008">
        <ele>53.3</ele>
        <time>2023-09-03T09:04:14Z</time>
      </trkpt>
      <trkpt lat="49.47666" lon="0.46011">
        <ele>53.3</ele>
        <time>2023-09-03T09:04:15Z</time>
      </trkpt>
      <trkpt lat="49.47664" lon="0.46015">
        <ele>53.4</ele>
        <time>2023-09-03T09:04:16Z</time>
      </trkpt>
      <trkpt lat="49.47662" lon="0.46019">
        <ele>53.4</ele>
        <time>2023-09-03T09:04:17Z</time>
      </trkpt>
      <trkpt lat="49.4766" lon="0.46022">
        <ele>53.4</ele>
        <time>2023-09-03T09:04:18Z</time>
      </trkpt>
      <trkpt lat="49.47659" lon="0.46026">
        <ele>53.4</ele>
        <time>2023-09-03T09:04:19Z</time>
      </trkpt>
      <trkpt lat="49.47657" lon="0.46029">
        <ele>53.5</ele>
        <time>2023-09-03T09:04:20Z</time>
      </trkpt>
      <trkpt lat="49.47655" lon="0.46033">
        <ele>53.5</ele>
        <time>2023-09-03T09:04:21Z</time>
      </trkpt>
      <trkpt lat="49.47653" lon="0.46035">
        <ele>53.5</ele>
        <time>2023-09-03T09:04:22Z</time>
      </trkpt>
      <trkpt lat="49.4765" lon="0.46039">
        <ele>53.6</ele>
        <time>2023-09-03T09:04:23Z</time>
      </trkpt>
      <trkpt lat="49.47649" lon="0.4604">
        <ele>53.6</ele>
        <time>2023-09-03T09:04:24Z</time>
      </trkpt>
      <trkpt lat="49.47646" lon="0.46043">
        <ele>53.6</ele>
        <time>2023-09-03T09:04:25Z</time>
      </trkpt>
      <trkpt lat="49.47645" lon="0.46044">
        <ele>53.7</ele>
        <time>2023-09-03T09:04:26Z</time>
      </trkpt>
      <trkpt lat="49.47642" lon="0.46047">
        <ele>53.7</ele>
        <time>2023-09-03T09:04:27Z</time>
      </trkpt>
      <trkpt lat="49.47641" lon="0.46048">
        <ele>53.7</ele>
        <time>2023-09-03T09:04:28Z</time>
      </trkpt>
      <trkpt lat="49.4764" lon="0.46052">
        <ele>53.8</ele>
        <time>2023-09-03T09:04:29Z</time>
      </trkpt>
      <trkpt lat="49.47639" lon="0.46053">
        <ele>53.8</ele>
        <time>2023-09-03T09:04:30Z</time>
      </trkpt>
      <trkpt lat="49.47638" lon="0.46056">
        <ele>53.9</ele>
        <time>2023-09-03T09:04:31Z</time>
      </trkpt>
      <trkpt lat="49.47638" lon="0.46058">
        <ele>53.9</ele>
        <time>2023-09-03T09:04:32Z</time>
      </trkpt>
      <trkpt lat="49.47637" lon="0.46059">
        <ele>53.9</ele>
        <time>2023-09-03T09:04:33Z</time>
      </trkpt>
      <trkpt lat="49.47637" lon="0.4606">
        <ele>53.9</ele>
        <time>2023-09-03T09:04:34Z</time>
      </trkpt>
      <trkpt lat="49.47637" lon="0.46059">
        <ele>54</ele>
        <time>2023-09-03T09:04:35Z</time>
      </trkpt>
      <trkpt lat="49.47638" lon="0.46059">
        <ele>54</ele>
        <time>2023-09-03T09:04:36Z</time>
      </trkpt>
      <trkpt lat="49.47638" lon="0.46059">
        <ele>54</ele>
        <time>2023-09-03T09:04:37Z</time>
      </trkpt>
      <trkpt lat="49.47638" lon="0.46059">
        <ele>54</ele>
        <time>2023-09-03T09:04:38Z</time>
      </trkpt>
      <trkpt lat="49.47638" lon="0.46059">
        <ele>54</ele>
        <time>2023-09-03T09:04:39Z</time>
      </trkpt>
      <trkpt lat="49.47638" lon="0.46059">
        <ele>54</ele>
        <time>2023-09-03T09:04:40Z</time>
      </trkpt>
      <trkpt lat="49.47638" lon="0.46059">
        <ele>54</ele>
        <time>2023-09-03T09:04:41Z</time>
      </trkpt>
      <trkpt lat="49.47638" lon="0.46059">
        <ele>54</ele>
        <time>2023-09-03T09:04:42Z</time>
      </trkpt>
      <trkpt lat="49.47638" lon="0.4606">
        <ele>54</ele>
        <time>2023-09-03T09:04:43Z</time>
      </trkpt>
      <trkpt lat="49.47638" lon="0.4606">
        <ele>54</ele>
        <time>2023-09-03T09:04:44Z</time>
      </trkpt>
      <trkpt lat="49.47638" lon="0.4606">
        <ele>54</ele>
        <time>2023-09-03T09:04:45Z</time>
      </trkpt>
      <trkpt lat="49.47638" lon="0.4606">
        <ele>54</ele>
        <time>2023-09-03T09:04:46Z</time>
      </trkpt>
      <trkpt lat="49.47638" lon="0.4606">
        <ele>54</ele>
        <time>2023-09-03T09:04:47Z</time>
      </trkpt>
      <trkpt lat="49.47638" lon="0.4606">
        <ele>54</ele>
        <time>2023-09-03T09:04:48Z</time>
      </trkpt>
      <trkpt lat="49.47638" lon="0.4606">
        <ele>54</ele>
        <time>2023-09-03T09:04:49Z</time>
      </trkpt>
      <trkpt lat="49.47638" lon="0.4606">
        <ele>54</ele>
        <time>2023-09-03T09:04:50Z</time>
      </trkpt>
      <trkpt lat="49.47638" lon="0.4606">
        <ele>54</ele>
        <time>2023-09-03T09:04:51Z</time>
      </trkpt>
      <trkpt lat="49.47638" lon="0.4606">
        <ele>54</ele>
        <time>2023-09-03T09:04:52Z</time>
      </trkpt>
      <trkpt lat="49.47638" lon="0.4606">
        <ele>54</ele>
        <time>2023-09-03T09:04:53Z</time>
      </trkpt>
      <trkpt lat="49.47637" lon="0.46079">
        <ele>54.5</ele>
        <time>2023-09-03T09:05:55Z</time>
      </trkpt>
      <trkpt lat="49.47637" lon="0.46081">
        <ele>54.5</ele>
        <time>2023-09-03T09:05:56Z</time>
      </trkpt>
      <trkpt lat="49.47636" lon="0.46081">
        <ele>54.5</ele>
        <time>2023-09-03T09:05:57Z</time>
      </trkpt>
      <trkpt lat="49.47635" lon="0.46082">
        <ele>54.5</ele>
        <time>2023-09-03T09:05:58Z</time>
      </trkpt>
      <trkpt lat="49.47635" lon="0.46082">
        <ele>54.5</ele>
        <time>2023-09-03T09:05:59Z</time>
      </trkpt>
      <trkpt lat="49.47634" lon="0.46083">
        <ele>54.5</ele>
        <time>2023-09-03T09:06:00Z</time>
      </trkpt>
      <trkpt lat="49.47634" lon="0.46084">
        <ele>54.5</ele>
        <time>2023-09-03T09:06:01Z</time>
      </trkpt>
      <trkpt lat="49.47633" lon="0.46084">
        <ele>54.5</ele>
        <time>2023-09-03T09:06:02Z</time>
      </trkpt>
      <trkpt lat="49.47633" lon="0.46085">
        <ele>54.5</ele>
        <time>2023-09-03T09:06:03Z</time>
      </trkpt>
      <trkpt lat="49.47633" lon="0.46085">
        <ele>54.5</ele>
        <time>2023-09-03T09:06:04Z</time>
      </trkpt>
      <trkpt lat="49.47633" lon="0.46085">
        <ele>54.5</ele>
        <time>2023-09-03T09:06:05Z</time>
      </trkpt>
      <trkpt lat="49.47632" lon="0.46086">
        <ele>54.5</ele>
        <time>2023-09-03T09:06:06Z</time>
      </trkpt>
      <trkpt lat="49.47632" lon="0.46086">
        <ele>54.5</ele>
        <time>2023-09-03T09:06:07Z</time>
      </trkpt>
      <trkpt lat="49.47631" lon="0.46086">
        <ele>54.6</ele>
        <time>2023-09-03T09:06:08Z</time>
      </trkpt>
      <trkpt lat="49.47631" lon="0.46087">
        <ele>54.6</ele>
        <time>2023-09-03T09:06:09Z</time>
      </trkpt>
      <trkpt lat="49.47631" lon="0.46087">
        <ele>54.6</ele>
        <time>2023-09-03T09:06:10Z</time>
      </trkpt>
      <trkpt lat="49.47631" lon="0.46088">
        <ele>54.6</ele>
        <time>2023-09-03T09:06:11Z</time>
      </trkpt>
      <trkpt lat="49.4763" lon="0.46089">
        <ele>54.6</ele>
        <time>2023-09-03T09:06:12Z</time>
      </trkpt>
      <trkpt lat="49.47629" lon="0.46089">
        <ele>54.6</ele>
        <time>2023-09-03T09:06:13Z</time>
      </trkpt>
      <trkpt lat="49.47629" lon="0.46089">
        <ele>54.6</ele>
        <time>2023-09-03T09:06:14Z</time>
      </trkpt>
      <trkpt lat="49.47628" lon="0.4609">
        <ele>54.6</ele>
        <time>2023-09-03T09:06:15Z</time>
      </trkpt>
      <trkpt lat="49.47628" lon="0.4609">
        <ele>54.6</ele>
        <time>2023-09-03T09:06:16Z</time>
      </trkpt>
      <trkpt lat="49.47627" lon="0.4609">
        <ele>54.6</ele>
        <time>2023-09-03T09:06:17Z</time>
      </trkpt>
      <trkpt lat="49.47626" lon="0.46091">
        <ele>54.7</ele>
        <time>2023-09-03T09:06:18Z</time>
      </trkpt>
      <trkpt lat="49.47625" lon="0.46092">
        <ele>54.7</ele>
        <time>2023-09-03T09:06:19Z</time>
      </trkpt>
      <trkpt lat="49.47625" lon="0.46093">
        <ele>54.7</ele>
        <time>2023-09-03T09:06:20Z</time>
      </trkpt>
      <trkpt lat="49.47625" lon="0.46093">
        <ele>54.7</ele>
        <time>2023-09-03T09:06:21Z</time>
      </trkpt>
      <trkpt lat="49.47624" lon="0.46094">
        <ele>54.7</ele>
        <time>2023-09-03T09:06:22Z</time>
      </trkpt>
      <trkpt lat="49.47623" lon="0.46094">
        <ele>54.7</ele>
        <time>2023-09-03T09:06:23Z</time>
      </trkpt>
      <trkpt lat="49.47623" lon="0.46095">
        <ele>54.7</ele>
        <time>2023-09-03T09:06:25Z</time>
      </trkpt>
      <trkpt lat="49.47623" lon="0.46095">
        <ele>54.8</ele>
        <time>2023-09-03T09:06:26Z</time>
      </trkpt>
      <trkpt lat="49.47622" lon="0.46096">
        <ele>54.8</ele>
        <time>2023-09-03T09:06:27Z</time>
      </trkpt>
      <trkpt lat="49.47622" lon="0.46096">
        <ele>54.8</ele>
        <time>2023-09-03T09:06:28Z</time>
      </trkpt>
      <trkpt lat="49.47622" lon="0.46097">
        <ele>54.8</ele>
        <time>2023-09-03T09:06:29Z</time>
      </trkpt>
      <trkpt lat="49.4762" lon="0.46098">
        <ele>54.8</ele>
        <time>2023-09-03T09:06:31Z</time>
      </trkpt>
      <trkpt lat="49.4762" lon="0.46099">
        <ele>54.8</ele>
        <time>2023-09-03T09:06:32Z</time>
      </trkpt>
      <trkpt lat="49.4762" lon="0.46099">
        <ele>54.8</ele>
        <time>2023-09-03T09:06:33Z</time>
      </trkpt>
      <trkpt lat="49.4762" lon="0.461">
        <ele>54.8</ele>
        <time>2023-09-03T09:06:34Z</time>
      </trkpt>
      <trkpt lat="49.4762" lon="0.461">
        <ele>54.8</ele>
        <time>2023-09-03T09:06:35Z</time>
      </trkpt>
      <trkpt lat="49.47619" lon="0.46101">
        <ele>54.8</ele>
        <time>2023-09-03T09:06:36Z</time>
      </trkpt>
      <trkpt lat="49.47619" lon="0.46102">
        <ele>54.9</ele>
        <time>2023-09-03T09:06:37Z</time>
      </trkpt>
      <trkpt lat="49.47618" lon="0.46103">
        <ele>54.9</ele>
        <time>2023-09-03T09:06:38Z</time>
      </trkpt>
      <trkpt lat="49.47618" lon="0.46103">
        <ele>54.9</ele>
        <time>2023-09-03T09:06:39Z</time>
      </trkpt>
      <trkpt lat="49.47617" lon="0.46104">
        <ele>54.9</ele>
        <time>2023-09-03T09:06:41Z</time>
      </trkpt>
      <trkpt lat="49.47617" lon="0.46105">
        <ele>54.9</ele>
        <time>2023-09-03T09:06:42Z</time>
      </trkpt>
      <trkpt lat="49.47615" lon="0.46108">
        <ele>54.9</ele>
        <time>2023-09-03T09:06:44Z</time>
      </trkpt>
      <trkpt lat="49.47613" lon="0.4611">
        <ele>55</ele>
        <time>2023-09-03T09:06:45Z</time>
      </trkpt>
      <trkpt lat="49.47611" lon="0.46112">
        <ele>55</ele>
        <time>2023-09-03T09:06:46Z</time>
      </trkpt>
      <trkpt lat="49.47608" lon="0.46115">
        <ele>55.1</ele>
        <time>2023-09-03T09:06:48Z</time>
      </trkpt>
      <trkpt lat="49.47605" lon="0.46118">
        <ele>55.1</ele>
        <time>2023-09-03T09:06:49Z</time>
      </trkpt>
      <trkpt lat="49.47601" lon="0.46122">
        <ele>55.2</ele>
        <time>2023-09-03T09:06:50Z</time>
      </trkpt>
      <trkpt lat="49.47598" lon="0.46126">
        <ele>55.3</ele>
        <time>2023-09-03T09:06:51Z</time>
      </trkpt>
      <trkpt lat="49.47593" lon="0.4613">
        <ele>55.4</ele>
        <time>2023-09-03T09:06:52Z</time>
      </trkpt>
      <trkpt lat="49.4759" lon="0.46133">
        <ele>55.5</ele>
        <time>2023-09-03T09:06:53Z</time>
      </trkpt>
      <trkpt lat="49.47586" lon="0.46138">
        <ele>55.7</ele>
        <time>2023-09-03T09:06:55Z</time>
      </trkpt>
      <trkpt lat="49.47581" lon="0.46142">
        <ele>55.9</ele>
        <time>2023-09-03T09:06:56Z</time>
      </trkpt>
      <trkpt lat="49.47577" lon="0.46147">
        <ele>56</ele>
        <time>2023-09-03T09:06:57Z</time>
      </trkpt>
      <trkpt lat="49.47573" lon="0.46151">
        <ele>56.1</ele>
        <time>2023-09-03T09:06:58Z</time>
      </trkpt>
      <trkpt lat="49.47568" lon="0.46156">
        <ele>56.3</ele>
        <time>2023-09-03T09:06:59Z</time>
      </trkpt>
      <trkpt lat="49.47564" lon="0.4616">
        <ele>56.4</ele>
        <time>2023-09-03T09:07:00Z</time>
      </trkpt>
      <trkpt lat="49.4756" lon="0.46165">
        <ele>56.5</ele>
        <time>2023-09-03T09:07:01Z</time>
      </trkpt>
      <trkpt lat="49.47556" lon="0.4617">
        <ele>56.7</ele>
        <time>2023-09-03T09:07:02Z</time>
      </trkpt>
      <trkpt lat="49.47552" lon="0.46174">
        <ele>56.8</ele>
        <time>2023-09-03T09:07:03Z</time>
      </trkpt>
      <trkpt lat="49.47548" lon="0.46178">
        <ele>57</ele>
        <time>2023-09-03T09:07:04Z</time>
      </trkpt>
      <trkpt lat="49.47544" lon="0.46182">
        <ele>57.1</ele>
        <time>2023-09-03T09:07:05Z</time>
      </trkpt>
      <trkpt lat="49.4754" lon="0.46186">
        <ele>57.3</ele>
        <time>2023-09-03T09:07:06Z</time>
      </trkpt>
      <trkpt lat="49.47535" lon="0.4619">
        <ele>57.4</ele>
        <time>2023-09-03T09:07:07Z</time>
      </trkpt>
      <trkpt lat="49.47531" lon="0.46195">
        <ele>57.6</ele>
        <time>2023-09-03T09:07:08Z</time>
      </trkpt>
      <trkpt lat="49.47526" lon="0.46199">
        <ele>57.8</ele>
        <time>2023-09-03T09:07:09Z</time>
      </trkpt>
      <trkpt lat="49.47522" lon="0.46204">
        <ele>57.9</ele>
        <time>2023-09-03T09:07:10Z</time>
      </trkpt>
      <trkpt lat="49.47517" lon="0.46209">
        <ele>58.1</ele>
        <time>2023-09-03T09:07:11Z</time>
      </trkpt>
      <trkpt lat="49.47512" lon="0.46214">
        <ele>58.2</ele>
        <time>2023-09-03T09:07:12Z</time>
      </trkpt>
      <trkpt lat="49.47507" lon="0.46219">
        <ele>58.4</ele>
        <time>2023-09-03T09:07:13Z</time>
      </trkpt>
      <trkpt lat="49.47503" lon="0.46224">
        <ele>58.5</ele>
        <time>2023-09-03T09:07:14Z</time>
      </trkpt>
      <trkpt lat="49.47498" lon="0.46229">
        <ele>58.6</ele>
        <time>2023-09-03T09:07:15Z</time>
      </trkpt>
      <trkpt lat="49.47493" lon="0.46234">
        <ele>58.8</ele>
        <time>2023-09-03T09:07:16Z</time>
      </trkpt>
      <trkpt lat="49.47488" lon="0.46239">
        <ele>58.9</ele>
        <time>2023-09-03T09:07:17Z</time>
      </trkpt>
      <trkpt lat="49.47484" lon="0.46244">
        <ele>59</ele>
        <time>2023-09-03T09:07:18Z</time>
      </trkpt>
      <trkpt lat="49.47479" lon="0.46248">
        <ele>59.1</ele>
        <time>2023-09-03T09:07:19Z</time>
      </trkpt>
      <trkpt lat="49.47474" lon="0.46253">
        <ele>59.2</ele>
        <time>2023-09-03T09:07:20Z</time>
      </trkpt>
      <trkpt lat="49.4747" lon="0.46259">
        <ele>59.3</ele>
        <time>2023-09-03T09:07:21Z</time>
      </trkpt>
      <trkpt lat="49.47465" lon="0.46263">
        <ele>59.4</ele>
        <time>2023-09-03T09:07:22Z</time>
      </trkpt>
      <trkpt lat="49.4746" lon="0.46269">
        <ele>59.5</ele>
        <time>2023-09-03T09:07:23Z</time>
      </trkpt>
      <trkpt lat="49.47455" lon="0.46274">
        <ele>59.6</ele>
        <time>2023-09-03T09:07:24Z</time>
      </trkpt>
      <trkpt lat="49.4745" lon="0.46279">
        <ele>59.7</ele>
        <time>2023-09-03T09:07:25Z</time>
      </trkpt>
      <trkpt lat="49.47445" lon="0.46284">
        <ele>59.8</ele>
        <time>2023-09-03T09:07:26Z</time>
      </trkpt>
      <trkpt lat="49.4744" lon="0.46289">
        <ele>59.9</ele>
        <time>2023-09-03T09:07:27Z</time>
      </trkpt>
      <trkpt lat="49.47434" lon="0.46294">
        <ele>60</ele>
        <time>2023-09-03T09:07:28Z</time>
      </trkpt>
      <trkpt lat="49.47429" lon="0.46299">
        <ele>60.1</ele>
        <time>2023-09-03T09:07:29Z</time>
      </trkpt>
      <trkpt lat="49.47424" lon="0.46304">
        <ele>60.1</ele>
        <time>2023-09-03T09:07:30Z</time>
      </trkpt>
      <trkpt lat="49.47419" lon="0.46309">
        <ele>60.2</ele>
        <time>2023-09-03T09:07:31Z</time>
      </trkpt>
      <trkpt lat="49.47414" lon="0.46315">
        <ele>60.3</ele>
        <time>2023-09-03T09:07:32Z</time>
      </trkpt>
      <trkpt lat="49.47409" lon="0.4632">
        <ele>60.3</ele>
        <time>2023-09-03T09:07:33Z</time>
      </trkpt>
      <trkpt lat="49.47404" lon="0.46325">
        <ele>60.4</ele>
        <time>2023-09-03T09:07:34Z</time>
      </trkpt>
      <trkpt lat="49.47398" lon="0.46331">
        <ele>60.5</ele>
        <time>2023-09-03T09:07:35Z</time>
      </trkpt>
      <trkpt lat="49.47393" lon="0.46337">
        <ele>60.5</ele>
        <time>2023-09-03T09:07:36Z</time>
      </trkpt>
      <trkpt lat="49.47387" lon="0.46343">
        <ele>60.6</ele>
        <time>2023-09-03T09:07:37Z</time>
      </trkpt>
      <trkpt lat="49.47381" lon="0.46349">
        <ele>60.7</ele>
        <time>2023-09-03T09:07:38Z</time>
      </trkpt>
      <trkpt lat="49.47376" lon="0.46355">
        <ele>60.8</ele>
        <time>2023-09-03T09:07:39Z</time>
      </trkpt>
      <trkpt lat="49.4737" lon="0.4636">
        <ele>60.8</ele>
        <time>2023-09-03T09:07:40Z</time>
      </trkpt>
      <trkpt lat="49.47364" lon="0.46366">
        <ele>60.9</ele>
        <time>2023-09-03T09:07:41Z</time>
      </trkpt>
      <trkpt lat="49.47359" lon="0.46372">
        <ele>61</ele>
        <time>2023-09-03T09:07:42Z</time>
      </trkpt>
      <trkpt lat="49.47353" lon="0.46378">
        <ele>61</ele>
        <time>2023-09-03T09:07:43Z</time>
      </trkpt>
      <trkpt lat="49.47348" lon="0.46384">
        <ele>61</ele>
        <time>2023-09-03T09:07:44Z</time>
      </trkpt>
      <trkpt lat="49.47342" lon="0.4639">
        <ele>61</ele>
        <time>2023-09-03T09:07:45Z</time>
      </trkpt>
      <trkpt lat="49.47337" lon="0.46396">
        <ele>61</ele>
        <time>2023-09-03T09:07:46Z</time>
      </trkpt>
      <trkpt lat="49.47332" lon="0.46401">
        <ele>61</ele>
        <time>2023-09-03T09:07:47Z</time>
      </trkpt>
      <trkpt lat="49.47327" lon="0.46406">
        <ele>60.9</ele>
        <time>2023-09-03T09:07:48Z</time>
      </trkpt>
      <trkpt lat="49.47322" lon="0.4641">
        <ele>60.9</ele>
        <time>2023-09-03T09:07:49Z</time>
      </trkpt>
      <trkpt lat="49.47317" lon="0.46416">
        <ele>60.9</ele>
        <time>2023-09-03T09:07:50Z</time>
      </trkpt>
      <trkpt lat="49.47311" lon="0.46422">
        <ele>61</ele>
        <time>2023-09-03T09:07:51Z</time>
      </trkpt>
      <trkpt lat="49.47306" lon="0.46427">
        <ele>61</ele>
        <time>2023-09-03T09:07:52Z</time>
      </trkpt>
      <trkpt lat="49.473" lon="0.46434">
        <ele>61.1</ele>
        <time>2023-09-03T09:07:53Z</time>
      </trkpt>
      <trkpt lat="49.47294" lon="0.4644">
        <ele>61.1</ele>
        <time>2023-09-03T09:07:54Z</time>
      </trkpt>
      <trkpt lat="49.47288" lon="0.46445">
        <ele>61.2</ele>
        <time>2023-09-03T09:07:55Z</time>
      </trkpt>
      <trkpt lat="49.47282" lon="0.46451">
        <ele>61.2</ele>
        <time>2023-09-03T09:07:56Z</time>
      </trkpt>
      <trkpt lat="49.47276" lon="0.46457">
        <ele>61.2</ele>
        <time>2023-09-03T09:07:57Z</time>
      </trkpt>
      <trkpt lat="49.4727" lon="0.46463">
        <ele>61.1</ele>
        <time>2023-09-03T09:07:58Z</time>
      </trkpt>
      <trkpt lat="49.47265" lon="0.46469">
        <ele>61</ele>
        <time>2023-09-03T09:07:59Z</time>
      </trkpt>
      <trkpt lat="49.47259" lon="0.46475">
        <ele>61</ele>
        <time>2023-09-03T09:08:00Z</time>
      </trkpt>
      <trkpt lat="49.47253" lon="0.46482">
        <ele>61</ele>
        <time>2023-09-03T09:08:01Z</time>
      </trkpt>
      <trkpt lat="49.47247" lon="0.46488">
        <ele>61</ele>
        <time>2023-09-03T09:08:02Z</time>
      </trkpt>
      <trkpt lat="49.47241" lon="0.46494">
        <ele>61.1</ele>
        <time>2023-09-03T09:08:03Z</time>
      </trkpt>
      <trkpt lat="49.47235" lon="0.465">
        <ele>61.1</ele>
        <time>2023-09-03T09:08:04Z</time>
      </trkpt>
      <trkpt lat="49.47229" lon="0.46506">
        <ele>61.1</ele>
        <time>2023-09-03T09:08:05Z</time>
      </trkpt>
      <trkpt lat="49.47224" lon="0.46511">
        <ele>61</ele>
        <time>2023-09-03T09:08:06Z</time>
      </trkpt>
      <trkpt lat="49.47218" lon="0.46517">
        <ele>61</ele>
        <time>2023-09-03T09:08:07Z</time>
      </trkpt>
      <trkpt lat="49.47212" lon="0.46523">
        <ele>61</ele>
        <time>2023-09-03T09:08:08Z</time>
      </trkpt>
      <trkpt lat="49.47207" lon="0.46528">
        <ele>61</ele>
        <time>2023-09-03T09:08:09Z</time>
      </trkpt>
      <trkpt lat="49.47201" lon="0.46533">
        <ele>61</ele>
        <time>2023-09-03T09:08:10Z</time>
      </trkpt>
      <trkpt lat="49.47195" lon="0.46539">
        <ele>61</ele>
        <time>2023-09-03T09:08:11Z</time>
      </trkpt>
      <trkpt lat="49.4719" lon="0.46544">
        <ele>60.9</ele>
        <time>2023-09-03T09:08:12Z</time>
      </trkpt>
      <trkpt lat="49.47184" lon="0.4655">
        <ele>60.9</ele>
        <time>2023-09-03T09:08:13Z</time>
      </trkpt>
      <trkpt lat="49.47178" lon="0.46557">
        <ele>60.9</ele>
        <time>2023-09-03T09:08:14Z</time>
      </trkpt>
      <trkpt lat="49.47173" lon="0.46563">
        <ele>60.8</ele>
        <time>2023-09-03T09:08:15Z</time>
      </trkpt>
      <trkpt lat="49.47167" lon="0.46569">
        <ele>60.7</ele>
        <time>2023-09-03T09:08:16Z</time>
      </trkpt>
      <trkpt lat="49.47161" lon="0.46575">
        <ele>60.6</ele>
        <time>2023-09-03T09:08:17Z</time>
      </trkpt>
      <trkpt lat="49.47155" lon="0.46581">
        <ele>60.5</ele>
        <time>2023-09-03T09:08:18Z</time>
      </trkpt>
      <trkpt lat="49.47149" lon="0.46587">
        <ele>60.4</ele>
        <time>2023-09-03T09:08:19Z</time>
      </trkpt>
      <trkpt lat="49.47143" lon="0.46593">
        <ele>60.3</ele>
        <time>2023-09-03T09:08:20Z</time>
      </trkpt>
      <trkpt lat="49.47136" lon="0.46599">
        <ele>60.2</ele>
        <time>2023-09-03T09:08:21Z</time>
      </trkpt>
      <trkpt lat="49.4713" lon="0.46606">
        <ele>60.1</ele>
        <time>2023-09-03T09:08:22Z</time>
      </trkpt>
      <trkpt lat="49.47124" lon="0.46612">
        <ele>59.9</ele>
        <time>2023-09-03T09:08:23Z</time>
      </trkpt>
      <trkpt lat="49.47118" lon="0.46619">
        <ele>59.8</ele>
        <time>2023-09-03T09:08:24Z</time>
      </trkpt>
      <trkpt lat="49.47112" lon="0.46625">
        <ele>59.7</ele>
        <time>2023-09-03T09:08:25Z</time>
      </trkpt>
      <trkpt lat="49.47105" lon="0.46631">
        <ele>59.6</ele>
        <time>2023-09-03T09:08:26Z</time>
      </trkpt>
      <trkpt lat="49.47099" lon="0.46637">
        <ele>59.5</ele>
        <time>2023-09-03T09:08:27Z</time>
      </trkpt>
      <trkpt lat="49.47093" lon="0.46644">
        <ele>59.3</ele>
        <time>2023-09-03T09:08:28Z</time>
      </trkpt>
      <trkpt lat="49.47087" lon="0.46651">
        <ele>59.2</ele>
        <time>2023-09-03T09:08:29Z</time>
      </trkpt>
      <trkpt lat="49.4708" lon="0.46658">
        <ele>59</ele>
        <time>2023-09-03T09:08:30Z</time>
      </trkpt>
      <trkpt lat="49.47073" lon="0.46665">
        <ele>58.8</ele>
        <time>2023-09-03T09:08:31Z</time>
      </trkpt>
      <trkpt lat="49.47066" lon="0.46672">
        <ele>58.6</ele>
        <time>2023-09-03T09:08:32Z</time>
      </trkpt>
      <trkpt lat="49.4706" lon="0.46679">
        <ele>58.4</ele>
        <time>2023-09-03T09:08:33Z</time>
      </trkpt>
      <trkpt lat="49.47053" lon="0.46685">
        <ele>58.2</ele>
        <time>2023-09-03T09:08:34Z</time>
      </trkpt>
      <trkpt lat="49.47046" lon="0.46693">
        <ele>58</ele>
        <time>2023-09-03T09:08:35Z</time>
      </trkpt>
      <trkpt lat="49.47039" lon="0.467">
        <ele>57.8</ele>
        <time>2023-09-03T09:08:36Z</time>
      </trkpt>
      <trkpt lat="49.47033" lon="0.46708">
        <ele>57.6</ele>
        <time>2023-09-03T09:08:37Z</time>
      </trkpt>
      <trkpt lat="49.47026" lon="0.46714">
        <ele>57.4</ele>
        <time>2023-09-03T09:08:38Z</time>
      </trkpt>
      <trkpt lat="49.47019" lon="0.4672">
        <ele>57.1</ele>
        <time>2023-09-03T09:08:39Z</time>
      </trkpt>
      <trkpt lat="49.47012" lon="0.46727">
        <ele>56.9</ele>
        <time>2023-09-03T09:08:40Z</time>
      </trkpt>
      <trkpt lat="49.47006" lon="0.46734">
        <ele>56.6</ele>
        <time>2023-09-03T09:08:41Z</time>
      </trkpt>
      <trkpt lat="49.46999" lon="0.46741">
        <ele>56.3</ele>
        <time>2023-09-03T09:08:42Z</time>
      </trkpt>
      <trkpt lat="49.46992" lon="0.46749">
        <ele>56</ele>
        <time>2023-09-03T09:08:43Z</time>
      </trkpt>
      <trkpt lat="49.46985" lon="0.46757">
        <ele>55.7</ele>
        <time>2023-09-03T09:08:44Z</time>
      </trkpt>
      <trkpt lat="49.46978" lon="0.46764">
        <ele>55.3</ele>
        <time>2023-09-03T09:08:45Z</time>
      </trkpt>
      <trkpt lat="49.46971" lon="0.46771">
        <ele>55</ele>
        <time>2023-09-03T09:08:46Z</time>
      </trkpt>
      <trkpt lat="49.46963" lon="0.46779">
        <ele>54.6</ele>
        <time>2023-09-03T09:08:47Z</time>
      </trkpt>
      <trkpt lat="49.46955" lon="0.46787">
        <ele>54.1</ele>
        <time>2023-09-03T09:08:48Z</time>
      </trkpt>
      <trkpt lat="49.46948" lon="0.46794">
        <ele>53.7</ele>
        <time>2023-09-03T09:08:49Z</time>
      </trkpt>
      <trkpt lat="49.46941" lon="0.46802">
        <ele>53.3</ele>
        <time>2023-09-03T09:08:50Z</time>
      </trkpt>
      <trkpt lat="49.46934" lon="0.46809">
        <ele>52.9</ele>
        <time>2023-09-03T09:08:51Z</time>
      </trkpt>
      <trkpt lat="49.46927" lon="0.46816">
        <ele>52.4</ele>
        <time>2023-09-03T09:08:52Z</time>
      </trkpt>
      <trkpt lat="49.46921" lon="0.46823">
        <ele>51.9</ele>
        <time>2023-09-03T09:08:53Z</time>
      </trkpt>
      <trkpt lat="49.46914" lon="0.4683">
        <ele>51.4</ele>
        <time>2023-09-03T09:08:54Z</time>
      </trkpt>
      <trkpt lat="49.46907" lon="0.46836">
        <ele>50.8</ele>
        <time>2023-09-03T09:08:55Z</time>
      </trkpt>
      <trkpt lat="49.46901" lon="0.46843">
        <ele>50.3</ele>
        <time>2023-09-03T09:08:56Z</time>
      </trkpt>
      <trkpt lat="49.46894" lon="0.4685">
        <ele>49.7</ele>
        <time>2023-09-03T09:08:57Z</time>
      </trkpt>
      <trkpt lat="49.46887" lon="0.46857">
        <ele>49.2</ele>
        <time>2023-09-03T09:08:58Z</time>
      </trkpt>
      <trkpt lat="49.46879" lon="0.46864">
        <ele>48.6</ele>
        <time>2023-09-03T09:08:59Z</time>
      </trkpt>
      <trkpt lat="49.46872" lon="0.46872">
        <ele>48</ele>
        <time>2023-09-03T09:09:00Z</time>
      </trkpt>
      <trkpt lat="49.46864" lon="0.4688">
        <ele>47.4</ele>
        <time>2023-09-03T09:09:01Z</time>
      </trkpt>
      <trkpt lat="49.46855" lon="0.46888">
        <ele>46.7</ele>
        <time>2023-09-03T09:09:02Z</time>
      </trkpt>
      <trkpt lat="49.46848" lon="0.46896">
        <ele>45.8</ele>
        <time>2023-09-03T09:09:03Z</time>
      </trkpt>
      <trkpt lat="49.4684" lon="0.46904">
        <ele>45</ele>
        <time>2023-09-03T09:09:04Z</time>
      </trkpt>
      <trkpt lat="49.46833" lon="0.46913">
        <ele>44.4</ele>
        <time>2023-09-03T09:09:05Z</time>
      </trkpt>
      <trkpt lat="49.46825" lon="0.46921">
        <ele>43.6</ele>
        <time>2023-09-03T09:09:06Z</time>
      </trkpt>
      <trkpt lat="49.46817" lon="0.46929">
        <ele>42.8</ele>
        <time>2023-09-03T09:09:07Z</time>
      </trkpt>
      <trkpt lat="49.46808" lon="0.46938">
        <ele>42</ele>
        <time>2023-09-03T09:09:08Z</time>
      </trkpt>
      <trkpt lat="49.468" lon="0.46946">
        <ele>41.1</ele>
        <time>2023-09-03T09:09:09Z</time>
      </trkpt>
      <trkpt lat="49.46791" lon="0.46955">
        <ele>40.3</ele>
        <time>2023-09-03T09:09:10Z</time>
      </trkpt>
      <trkpt lat="49.46782" lon="0.46964">
        <ele>39.5</ele>
        <time>2023-09-03T09:09:11Z</time>
      </trkpt>
      <trkpt lat="49.46774" lon="0.46973">
        <ele>38.7</ele>
        <time>2023-09-03T09:09:12Z</time>
      </trkpt>
      <trkpt lat="49.46765" lon="0.46981">
        <ele>37.9</ele>
        <time>2023-09-03T09:09:13Z</time>
      </trkpt>
      <trkpt lat="49.46757" lon="0.4699">
        <ele>37.1</ele>
        <time>2023-09-03T09:09:14Z</time>
      </trkpt>
      <trkpt lat="49.46748" lon="0.46999">
        <ele>36.4</ele>
        <time>2023-09-03T09:09:15Z</time>
      </trkpt>
      <trkpt lat="49.46739" lon="0.47008">
        <ele>35.6</ele>
        <time>2023-09-03T09:09:16Z</time>
      </trkpt>
      <trkpt lat="49.4673" lon="0.47017">
        <ele>34.8</ele>
        <time>2023-09-03T09:09:17Z</time>
      </trkpt>
      <trkpt lat="49.46721" lon="0.47026">
        <ele>33.9</ele>
        <time>2023-09-03T09:09:18Z</time>
      </trkpt>
      <trkpt lat="49.46713" lon="0.47035">
        <ele>33</ele>
        <time>2023-09-03T09:09:19Z</time>
      </trkpt>
      <trkpt lat="49.46704" lon="0.47044">
        <ele>32.2</ele>
        <time>2023-09-03T09:09:20Z</time>
      </trkpt>
      <trkpt lat="49.46695" lon="0.47053">
        <ele>31.4</ele>
        <time>2023-09-03T09:09:21Z</time>
      </trkpt>
      <trkpt lat="49.46687" lon="0.47062">
        <ele>30.6</ele>
        <time>2023-09-03T09:09:22Z</time>
      </trkpt>
      <trkpt lat="49.46678" lon="0.47071">
        <ele>29.9</ele>
        <time>2023-09-03T09:09:23Z</time>
      </trkpt>
      <trkpt lat="49.46669" lon="0.4708">
        <ele>29.1</ele>
        <time>2023-09-03T09:09:24Z</time>
      </trkpt>
      <trkpt lat="49.46659" lon="0.4709">
        <ele>28.4</ele>
        <time>2023-09-03T09:09:25Z</time>
      </trkpt>
      <trkpt lat="49.4665" lon="0.47101">
        <ele>27.6</ele>
        <time>2023-09-03T09:09:26Z</time>
      </trkpt>
      <trkpt lat="49.46641" lon="0.4711">
        <ele>26.9</ele>
        <time>2023-09-03T09:09:27Z</time>
      </trkpt>
      <trkpt lat="49.46632" lon="0.47119">
        <ele>26.2</ele>
        <time>2023-09-03T09:09:28Z</time>
      </trkpt>
      <trkpt lat="49.46623" lon="0.47129">
        <ele>25.4</ele>
        <time>2023-09-03T09:09:29Z</time>
      </trkpt>
      <trkpt lat="49.46615" lon="0.47137">
        <ele>24.7</ele>
        <time>2023-09-03T09:09:30Z</time>
      </trkpt>
      <trkpt lat="49.46606" lon="0.47146">
        <ele>24</ele>
        <time>2023-09-03T09:09:31Z</time>
      </trkpt>
      <trkpt lat="49.46598" lon="0.47154">
        <ele>23.3</ele>
        <time>2023-09-03T09:09:32Z</time>
      </trkpt>
      <trkpt lat="49.4659" lon="0.47163">
        <ele>22.6</ele>
        <time>2023-09-03T09:09:33Z</time>
      </trkpt>
      <trkpt lat="49.46581" lon="0.47172">
        <ele>22</ele>
        <time>2023-09-03T09:09:34Z</time>
      </trkpt>
      <trkpt lat="49.46572" lon="0.47181">
        <ele>21.1</ele>
        <time>2023-09-03T09:09:35Z</time>
      </trkpt>
      <trkpt lat="49.46563" lon="0.4719">
        <ele>20.2</ele>
        <time>2023-09-03T09:09:36Z</time>
      </trkpt>
      <trkpt lat="49.46555" lon="0.47199">
        <ele>19.4</ele>
        <time>2023-09-03T09:09:37Z</time>
      </trkpt>
      <trkpt lat="49.46546" lon="0.47208">
        <ele>18.5</ele>
        <time>2023-09-03T09:09:38Z</time>
      </trkpt>
      <trkpt lat="49.46537" lon="0.47217">
        <ele>17.6</ele>
        <time>2023-09-03T09:09:39Z</time>
      </trkpt>
      <trkpt lat="49.46527" lon="0.47227">
        <ele>16.8</ele>
        <time>2023-09-03T09:09:40Z</time>
      </trkpt>
      <trkpt lat="49.46518" lon="0.47236">
        <ele>16.1</ele>
        <time>2023-09-03T09:09:41Z</time>
      </trkpt>
      <trkpt lat="49.46508" lon="0.47246">
        <ele>15.3</ele>
        <time>2023-09-03T09:09:42Z</time>
      </trkpt>
      <trkpt lat="49.46498" lon="0.47255">
        <ele>14.6</ele>
        <time>2023-09-03T09:09:43Z</time>
      </trkpt>
      <trkpt lat="49.46488" lon="0.47263">
        <ele>13.8</ele>
        <time>2023-09-03T09:09:44Z</time>
      </trkpt>
      <trkpt lat="49.46478" lon="0.47271">
        <ele>13.1</ele>
        <time>2023-09-03T09:09:45Z</time>
      </trkpt>
      <trkpt lat="49.46467" lon="0.47278">
        <ele>12.4</ele>
        <time>2023-09-03T09:09:46Z</time>
      </trkpt>
      <trkpt lat="49.46456" lon="0.47285">
        <ele>11.8</ele>
        <time>2023-09-03T09:09:47Z</time>
      </trkpt>
      <trkpt lat="49.46445" lon="0.47291">
        <ele>11.2</ele>
        <time>2023-09-03T09:09:48Z</time>
      </trkpt>
      <trkpt lat="49.46434" lon="0.47298">
        <ele>10.8</ele>
        <time>2023-09-03T09:09:49Z</time>
      </trkpt>
      <trkpt lat="49.46424" lon="0.47305">
        <ele>10.3</ele>
        <time>2023-09-03T09:09:50Z</time>
      </trkpt>
      <trkpt lat="49.46414" lon="0.47312">
        <ele>9.9</ele>
        <time>2023-09-03T09:09:51Z</time>
      </trkpt>
      <trkpt lat="49.46405" lon="0.47318">
        <ele>9.7</ele>
        <time>2023-09-03T09:09:52Z</time>
      </trkpt>
      <trkpt lat="49.46396" lon="0.47324">
        <ele>9.5</ele>
        <time>2023-09-03T09:09:53Z</time>
      </trkpt>
      <trkpt lat="49.46388" lon="0.47329">
        <ele>9.2</ele>
        <time>2023-09-03T09:09:54Z</time>
      </trkpt>
      <trkpt lat="49.4638" lon="0.47335">
        <ele>9.1</ele>
        <time>2023-09-03T09:09:55Z</time>
      </trkpt>
      <trkpt lat="49.46373" lon="0.47341">
        <ele>9</ele>
        <time>2023-09-03T09:09:56Z</time>
      </trkpt>
      <trkpt lat="49.46367" lon="0.47347">
        <ele>8.9</ele>
        <time>2023-09-03T09:09:57Z</time>
      </trkpt>
      <trkpt lat="49.46362" lon="0.47353">
        <ele>8.9</ele>
        <time>2023-09-03T09:09:58Z</time>
      </trkpt>
      <trkpt lat="49.46356" lon="0.47359">
        <ele>8.9</ele>
        <time>2023-09-03T09:09:59Z</time>
      </trkpt>
      <trkpt lat="49.46351" lon="0.47364">
        <ele>8.9</ele>
        <time>2023-09-03T09:10:00Z</time>
      </trkpt>
      <trkpt lat="49.46346" lon="0.47368">
        <ele>8.9</ele>
        <time>2023-09-03T09:10:01Z</time>
      </trkpt>
      <trkpt lat="49.46343" lon="0.47372">
        <ele>8.9</ele>
        <time>2023-09-03T09:10:02Z</time>
      </trkpt>
      <trkpt lat="49.46339" lon="0.47375">
        <ele>8.9</ele>
        <time>2023-09-03T09:10:03Z</time>
      </trkpt>
      <trkpt lat="49.46336" lon="0.47378">
        <ele>8.9</ele>
        <time>2023-09-03T09:10:04Z</time>
      </trkpt>
      <trkpt lat="49.46334" lon="0.47381">
        <ele>8.9</ele>
        <time>2023-09-03T09:10:05Z</time>
      </trkpt>
      <trkpt lat="49.46331" lon="0.47384">
        <ele>8.9</ele>
        <time>2023-09-03T09:10:06Z</time>
      </trkpt>
      <trkpt lat="49.46328" lon="0.47387">
        <ele>8.9</ele>
        <time>2023-09-03T09:10:07Z</time>
      </trkpt>
      <trkpt lat="49.46326" lon="0.4739">
        <ele>8.9</ele>
        <time>2023-09-03T09:10:08Z</time>
      </trkpt>
      <trkpt lat="49.46325" lon="0.4739">
        <ele>8.9</ele>
        <time>2023-09-03T09:10:09Z</time>
      </trkpt>
      <trkpt lat="49.46325" lon="0.47391">
        <ele>8.9</ele>
        <time>2023-09-03T09:10:10Z</time>
      </trkpt>
      <trkpt lat="49.46325" lon="0.47391">
        <ele>8.9</ele>
        <time>2023-09-03T09:10:11Z</time>
      </trkpt>
      <trkpt lat="49.46325" lon="0.47391">
        <ele>8.9</ele>
        <time>2023-09-03T09:10:12Z</time>
      </trkpt>
      <trkpt lat="49.46325" lon="0.4739">
        <ele>8.9</ele>
        <time>2023-09-03T09:10:13Z</time>
      </trkpt>
      <trkpt lat="49.46325" lon="0.4739">
        <ele>8.9</ele>
        <time>2023-09-03T09:10:14Z</time>
      </trkpt>
      <trkpt lat="49.46325" lon="0.4739">
        <ele>8.9</ele>
        <time>2023-09-03T09:10:15Z</time>
      </trkpt>
      <trkpt lat="49.46325" lon="0.4739">
        <ele>8.9</ele>
        <time>2023-09-03T09:10:16Z</time>
      </trkpt>
      <trkpt lat="49.46325" lon="0.4739">
        <ele>8.9</ele>
        <time>2023-09-03T09:10:17Z</time>
      </trkpt>
      <trkpt lat="49.46325" lon="0.4739">
        <ele>8.9</ele>
        <time>2023-09-03T09:10:18Z</time>
      </trkpt>
      <trkpt lat="49.46325" lon="0.4739">
        <ele>8.9</ele>
        <time>2023-09-03T09:10:19Z</time>
      </trkpt>
      <trkpt lat="49.46325" lon="0.4739">
        <ele>8.9</ele>
        <time>2023-09-03T09:10:20Z</time>
      </trkpt>
      <trkpt lat="49.46323" lon="0.47394">
        <ele>8.8</ele>
        <time>2023-09-03T09:11:15Z</time>
      </trkpt>
      <trkpt lat="49.46323" lon="0.47394">
        <ele>8.8</ele>
        <time>2023-09-03T09:11:16Z</time>
      </trkpt>
      <trkpt lat="49.46323" lon="0.47394">
        <ele>8.8</ele>
        <time>2023-09-03T09:11:17Z</time>
      </trkpt>
      <trkpt lat="49.46323" lon="0.47394">
        <ele>8.8</ele>
        <time>2023-09-03T09:11:18Z</time>
      </trkpt>
      <trkpt lat="49.46323" lon="0.47394">
        <ele>8.8</ele>
        <time>2023-09-03T09:11:19Z</time>
      </trkpt>
      <trkpt lat="49.46323" lon="0.47394">
        <ele>8.8</ele>
        <time>2023-09-03T09:11:20Z</time>
      </trkpt>
      <trkpt lat="49.46323" lon="0.47394">
        <ele>8.8</ele>
        <time>2023-09-03T09:11:21Z</time>
      </trkpt>
      <trkpt lat="49.46322" lon="0.47395">
        <ele>8.8</ele>
        <time>2023-09-03T09:11:22Z</time>
      </trkpt>
      <trkpt lat="49.46322" lon="0.47396">
        <ele>8.8</ele>
        <time>2023-09-03T09:11:23Z</time>
      </trkpt>
      <trkpt lat="49.46321" lon="0.47396">
        <ele>8.8</ele>
        <time>2023-09-03T09:11:24Z</time>
      </trkpt>
      <trkpt lat="49.46319" lon="0.47399">
        <ele>8.8</ele>
        <time>2023-09-03T09:11:25Z</time>
      </trkpt>
      <trkpt lat="49.46318" lon="0.474">
        <ele>8.7</ele>
        <time>2023-09-03T09:11:26Z</time>
      </trkpt>
      <trkpt lat="49.46316" lon="0.47404">
        <ele>8.7</ele>
        <time>2023-09-03T09:11:27Z</time>
      </trkpt>
      <trkpt lat="49.46315" lon="0.47405">
        <ele>8.7</ele>
        <time>2023-09-03T09:11:28Z</time>
      </trkpt>
      <trkpt lat="49.46312" lon="0.47409">
        <ele>8.6</ele>
        <time>2023-09-03T09:11:29Z</time>
      </trkpt>
      <trkpt lat="49.46311" lon="0.47411">
        <ele>8.6</ele>
        <time>2023-09-03T09:11:30Z</time>
      </trkpt>
      <trkpt lat="49.46309" lon="0.47414">
        <ele>8.5</ele>
        <time>2023-09-03T09:11:31Z</time>
      </trkpt>
      <trkpt lat="49.46306" lon="0.47417">
        <ele>8.5</ele>
        <time>2023-09-03T09:11:32Z</time>
      </trkpt>
      <trkpt lat="49.46304" lon="0.4742">
        <ele>8.5</ele>
        <time>2023-09-03T09:11:33Z</time>
      </trkpt>
      <trkpt lat="49.46302" lon="0.47424">
        <ele>8.5</ele>
        <time>2023-09-03T09:11:34Z</time>
      </trkpt>
      <trkpt lat="49.463" lon="0.47427">
        <ele>8.4</ele>
        <time>2023-09-03T09:11:35Z</time>
      </trkpt>
      <trkpt lat="49.46297" lon="0.4743">
        <ele>8.4</ele>
        <time>2023-09-03T09:11:36Z</time>
      </trkpt>
      <trkpt lat="49.46295" lon="0.47433">
        <ele>8.4</ele>
        <time>2023-09-03T09:11:37Z</time>
      </trkpt>
      <trkpt lat="49.46293" lon="0.47436">
        <ele>8.3</ele>
        <time>2023-09-03T09:11:38Z</time>
      </trkpt>
      <trkpt lat="49.4629" lon="0.47438">
        <ele>8.3</ele>
        <time>2023-09-03T09:11:39Z</time>
      </trkpt>
      <trkpt lat="49.46288" lon="0.47439">
        <ele>8.3</ele>
        <time>2023-09-03T09:11:40Z</time>
      </trkpt>
      <trkpt lat="49.46286" lon="0.47434">
        <ele>8.2</ele>
        <time>2023-09-03T09:11:41Z</time>
      </trkpt>
      <trkpt lat="49.46285" lon="0.47433">
        <ele>8.1</ele>
        <time>2023-09-03T09:11:42Z</time>
      </trkpt>
      <trkpt lat="49.46284" lon="0.47428">
        <ele>8.1</ele>
        <time>2023-09-03T09:11:43Z</time>
      </trkpt>
      <trkpt lat="49.46285" lon="0.47424">
        <ele>8</ele>
        <time>2023-09-03T09:11:44Z</time>
      </trkpt>
      <trkpt lat="49.46284" lon="0.47419">
        <ele>7.9</ele>
        <time>2023-09-03T09:11:45Z</time>
      </trkpt>
      <trkpt lat="49.46283" lon="0.47418">
        <ele>7.8</ele>
        <time>2023-09-03T09:11:46Z</time>
      </trkpt>
      <trkpt lat="49.4628" lon="0.47417">
        <ele>7.7</ele>
        <time>2023-09-03T09:11:47Z</time>
      </trkpt>
      <trkpt lat="49.46277" lon="0.47419">
        <ele>7.6</ele>
        <time>2023-09-03T09:11:48Z</time>
      </trkpt>
      <trkpt lat="49.46274" lon="0.47423">
        <ele>7.4</ele>
        <time>2023-09-03T09:11:49Z</time>
      </trkpt>
      <trkpt lat="49.46271" lon="0.47426">
        <ele>7.2</ele>
        <time>2023-09-03T09:11:50Z</time>
      </trkpt>
      <trkpt lat="49.46268" lon="0.4743">
        <ele>6.9</ele>
        <time>2023-09-03T09:11:51Z</time>
      </trkpt>
      <trkpt lat="49.46264" lon="0.47434">
        <ele>6.4</ele>
        <time>2023-09-03T09:11:52Z</time>
      </trkpt>
      <trkpt lat="49.46261" lon="0.47438">
        <ele>6.2</ele>
        <time>2023-09-03T09:11:53Z</time>
      </trkpt>
      <trkpt lat="49.46258" lon="0.47442">
        <ele>6.1</ele>
        <time>2023-09-03T09:11:54Z</time>
      </trkpt>
      <trkpt lat="49.46256" lon="0.47447">
        <ele>6.1</ele>
        <time>2023-09-03T09:11:55Z</time>
      </trkpt>
      <trkpt lat="49.46254" lon="0.47452">
        <ele>6</ele>
        <time>2023-09-03T09:11:56Z</time>
      </trkpt>
      <trkpt lat="49.46251" lon="0.47456">
        <ele>5.9</ele>
        <time>2023-09-03T09:11:57Z</time>
      </trkpt>
      <trkpt lat="49.46248" lon="0.47459">
        <ele>5.9</ele>
        <time>2023-09-03T09:11:58Z</time>
      </trkpt>
      <trkpt lat="49.46244" lon="0.47461">
        <ele>5.8</ele>
        <time>2023-09-03T09:11:59Z</time>
      </trkpt>
      <trkpt lat="49.4624" lon="0.47463">
        <ele>5.8</ele>
        <time>2023-09-03T09:12:00Z</time>
      </trkpt>
      <trkpt lat="49.46236" lon="0.47466">
        <ele>5.7</ele>
        <time>2023-09-03T09:12:01Z</time>
      </trkpt>
      <trkpt lat="49.46233" lon="0.47469">
        <ele>5.7</ele>
        <time>2023-09-03T09:12:02Z</time>
      </trkpt>
      <trkpt lat="49.46229" lon="0.47471">
        <ele>5.6</ele>
        <time>2023-09-03T09:12:03Z</time>
      </trkpt>
      <trkpt lat="49.46226" lon="0.47472">
        <ele>5.6</ele>
        <time>2023-09-03T09:12:04Z</time>
      </trkpt>
      <trkpt lat="49.46222" lon="0.47473">
        <ele>5.6</ele>
        <time>2023-09-03T09:12:05Z</time>
      </trkpt>
      <trkpt lat="49.46218" lon="0.47474">
        <ele>5.6</ele>
        <time>2023-09-03T09:12:06Z</time>
      </trkpt>
      <trkpt lat="49.46215" lon="0.47476">
        <ele>5.5</ele>
        <time>2023-09-03T09:12:07Z</time>
      </trkpt>
      <trkpt lat="49.46211" lon="0.47476">
        <ele>5.5</ele>
        <time>2023-09-03T09:12:08Z</time>
      </trkpt>
      <trkpt lat="49.46207" lon="0.47476">
        <ele>5.5</ele>
        <time>2023-09-03T09:12:09Z</time>
      </trkpt>
      <trkpt lat="49.46203" lon="0.47476">
        <ele>5.5</ele>
        <time>2023-09-03T09:12:10Z</time>
      </trkpt>
      <trkpt lat="49.462" lon="0.47477">
        <ele>5.5</ele>
        <time>2023-09-03T09:12:11Z</time>
      </trkpt>
      <trkpt lat="49.46196" lon="0.47476">
        <ele>5.4</ele>
        <time>2023-09-03T09:12:12Z</time>
      </trkpt>
      <trkpt lat="49.46193" lon="0.47476">
        <ele>5.4</ele>
        <time>2023-09-03T09:12:13Z</time>
      </trkpt>
      <trkpt lat="49.46189" lon="0.47476">
        <ele>5.4</ele>
        <time>2023-09-03T09:12:14Z</time>
      </trkpt>
      <trkpt lat="49.46185" lon="0.47477">
        <ele>5.4</ele>
        <time>2023-09-03T09:12:15Z</time>
      </trkpt>
      <trkpt lat="49.46181" lon="0.47479">
        <ele>5.4</ele>
        <time>2023-09-03T09:12:16Z</time>
      </trkpt>
      <trkpt lat="49.46178" lon="0.47481">
        <ele>5.4</ele>
        <time>2023-09-03T09:12:17Z</time>
      </trkpt>
      <trkpt lat="49.46175" lon="0.47483">
        <ele>5.4</ele>
        <time>2023-09-03T09:12:18Z</time>
      </trkpt>
      <trkpt lat="49.46171" lon="0.47483">
        <ele>5.4</ele>
        <time>2023-09-03T09:12:19Z</time>
      </trkpt>
      <trkpt lat="49.46166" lon="0.47482">
        <ele>5.5</ele>
        <time>2023-09-03T09:12:20Z</time>
      </trkpt>
      <trkpt lat="49.46162" lon="0.47481">
        <ele>5.5</ele>
        <time>2023-09-03T09:12:21Z</time>
      </trkpt>
      <trkpt lat="49.46158" lon="0.47481">
        <ele>5.5</ele>
        <time>2023-09-03T09:12:22Z</time>
      </trkpt>
      <trkpt lat="49.46153" lon="0.47481">
        <ele>5.5</ele>
        <time>2023-09-03T09:12:23Z</time>
      </trkpt>
      <trkpt lat="49.46149" lon="0.47482">
        <ele>5.5</ele>
        <time>2023-09-03T09:12:24Z</time>
      </trkpt>
      <trkpt lat="49.46145" lon="0.47482">
        <ele>5.5</ele>
        <time>2023-09-03T09:12:25Z</time>
      </trkpt>
      <trkpt lat="49.4614" lon="0.47483">
        <ele>5.6</ele>
        <time>2023-09-03T09:12:26Z</time>
      </trkpt>
      <trkpt lat="49.46136" lon="0.47483">
        <ele>5.6</ele>
        <time>2023-09-03T09:12:27Z</time>
      </trkpt>
      <trkpt lat="49.46132" lon="0.47483">
        <ele>5.6</ele>
        <time>2023-09-03T09:12:28Z</time>
      </trkpt>
      <trkpt lat="49.46127" lon="0.47483">
        <ele>5.6</ele>
        <time>2023-09-03T09:12:29Z</time>
      </trkpt>
      <trkpt lat="49.46122" lon="0.47483">
        <ele>5.6</ele>
        <time>2023-09-03T09:12:30Z</time>
      </trkpt>
      <trkpt lat="49.46118" lon="0.47483">
        <ele>5.7</ele>
        <time>2023-09-03T09:12:31Z</time>
      </trkpt>
      <trkpt lat="49.46113" lon="0.47484">
        <ele>5.7</ele>
        <time>2023-09-03T09:12:32Z</time>
      </trkpt>
      <trkpt lat="49.46108" lon="0.47484">
        <ele>5.7</ele>
        <time>2023-09-03T09:12:33Z</time>
      </trkpt>
      <trkpt lat="49.46103" lon="0.47484">
        <ele>5.7</ele>
        <time>2023-09-03T09:12:34Z</time>
      </trkpt>
      <trkpt lat="49.46098" lon="0.47484">
        <ele>5.7</ele>
        <time>2023-09-03T09:12:35Z</time>
      </trkpt>
      <trkpt lat="49.46093" lon="0.47484">
        <ele>5.7</ele>
        <time>2023-09-03T09:12:36Z</time>
      </trkpt>
      <trkpt lat="49.46088" lon="0.47484">
        <ele>5.8</ele>
        <time>2023-09-03T09:12:37Z</time>
      </trkpt>
      <trkpt lat="49.46083" lon="0.47483">
        <ele>5.8</ele>
        <time>2023-09-03T09:12:38Z</time>
      </trkpt>
      <trkpt lat="49.46078" lon="0.47483">
        <ele>5.8</ele>
        <time>2023-09-03T09:12:39Z</time>
      </trkpt>
      <trkpt lat="49.46073" lon="0.47482">
        <ele>5.9</ele>
        <time>2023-09-03T09:12:40Z</time>
      </trkpt>
      <trkpt lat="49.46067" lon="0.47482">
        <ele>5.9</ele>
        <time>2023-09-03T09:12:41Z</time>
      </trkpt>
      <trkpt lat="49.46062" lon="0.47481">
        <ele>5.9</ele>
        <time>2023-09-03T09:12:42Z</time>
      </trkpt>
      <trkpt lat="49.46056" lon="0.47479">
        <ele>5.8</ele>
        <time>2023-09-03T09:12:43Z</time>
      </trkpt>
      <trkpt lat="49.46051" lon="0.47478">
        <ele>5.8</ele>
        <time>2023-09-03T09:12:44Z</time>
      </trkpt>
      <trkpt lat="49.46045" lon="0.47477">
        <ele>5.7</ele>
        <time>2023-09-03T09:12:45Z</time>
      </trkpt>
      <trkpt lat="49.46039" lon="0.47476">
        <ele>5.7</ele>
        <time>2023-09-03T09:12:46Z</time>
      </trkpt>
      <trkpt lat="49.46034" lon="0.47475">
        <ele>5.6</ele>
        <time>2023-09-03T09:12:47Z</time>
      </trkpt>
      <trkpt lat="49.46028" lon="0.47474">
        <ele>5.6</ele>
        <time>2023-09-03T09:12:48Z</time>
      </trkpt>
      <trkpt lat="49.46022" lon="0.47472">
        <ele>5.6</ele>
        <time>2023-09-03T09:12:49Z</time>
      </trkpt>
      <trkpt lat="49.46017" lon="0.47471">
        <ele>5.6</ele>
        <time>2023-09-03T09:12:50Z</time>
      </trkpt>
      <trkpt lat="49.46011" lon="0.47469">
        <ele>5.6</ele>
        <time>2023-09-03T09:12:51Z</time>
      </trkpt>
      <trkpt lat="49.46005" lon="0.47467">
        <ele>5.6</ele>
        <time>2023-09-03T09:12:52Z</time>
      </trkpt>
      <trkpt lat="49.46" lon="0.47465">
        <ele>5.6</ele>
        <time>2023-09-03T09:12:53Z</time>
      </trkpt>
      <trkpt lat="49.45994" lon="0.47463">
        <ele>5.6</ele>
        <time>2023-09-03T09:12:54Z</time>
      </trkpt>
      <trkpt lat="49.45988" lon="0.47461">
        <ele>5.6</ele>
        <time>2023-09-03T09:12:55Z</time>
      </trkpt>
      <trkpt lat="49.45982" lon="0.47461">
        <ele>5.6</ele>
        <time>2023-09-03T09:12:56Z</time>
      </trkpt>
      <trkpt lat="49.45976" lon="0.47463">
        <ele>5.6</ele>
        <time>2023-09-03T09:12:57Z</time>
      </trkpt>
      <trkpt lat="49.45971" lon="0.47465">
        <ele>5.6</ele>
        <time>2023-09-03T09:12:58Z</time>
      </trkpt>
      <trkpt lat="49.45965" lon="0.47468">
        <ele>5.6</ele>
        <time>2023-09-03T09:12:59Z</time>
      </trkpt>
      <trkpt lat="49.45959" lon="0.47472">
        <ele>5.6</ele>
        <time>2023-09-03T09:13:00Z</time>
      </trkpt>
      <trkpt lat="49.45955" lon="0.47477">
        <ele>5.6</ele>
        <time>2023-09-03T09:13:01Z</time>
      </trkpt>
      <trkpt lat="49.45951" lon="0.47483">
        <ele>5.7</ele>
        <time>2023-09-03T09:13:02Z</time>
      </trkpt>
      <trkpt lat="49.45947" lon="0.4749">
        <ele>5.8</ele>
        <time>2023-09-03T09:13:03Z</time>
      </trkpt>
      <trkpt lat="49.45943" lon="0.47496">
        <ele>5.8</ele>
        <time>2023-09-03T09:13:04Z</time>
      </trkpt>
      <trkpt lat="49.45939" lon="0.47503">
        <ele>5.9</ele>
        <time>2023-09-03T09:13:05Z</time>
      </trkpt>
      <trkpt lat="49.45935" lon="0.47509">
        <ele>6</ele>
        <time>2023-09-03T09:13:06Z</time>
      </trkpt>
      <trkpt lat="49.4593" lon="0.47513">
        <ele>6.1</ele>
        <time>2023-09-03T09:13:07Z</time>
      </trkpt>
      <trkpt lat="49.45925" lon="0.47515">
        <ele>6.1</ele>
        <time>2023-09-03T09:13:08Z</time>
      </trkpt>
      <trkpt lat="49.45919" lon="0.47515">
        <ele>6.1</ele>
        <time>2023-09-03T09:13:09Z</time>
      </trkpt>
      <trkpt lat="49.45914" lon="0.47511">
        <ele>6</ele>
        <time>2023-09-03T09:13:10Z</time>
      </trkpt>
      <trkpt lat="49.45909" lon="0.47505">
        <ele>5.9</ele>
        <time>2023-09-03T09:13:11Z</time>
      </trkpt>
      <trkpt lat="49.45904" lon="0.47498">
        <ele>5.7</ele>
        <time>2023-09-03T09:13:12Z</time>
      </trkpt>
      <trkpt lat="49.459" lon="0.4749">
        <ele>5.6</ele>
        <time>2023-09-03T09:13:13Z</time>
      </trkpt>
      <trkpt lat="49.45895" lon="0.47483">
        <ele>5.5</ele>
        <time>2023-09-03T09:13:14Z</time>
      </trkpt>
      <trkpt lat="49.45891" lon="0.47475">
        <ele>5.4</ele>
        <time>2023-09-03T09:13:15Z</time>
      </trkpt>
      <trkpt lat="49.45886" lon="0.47467">
        <ele>5.3</ele>
        <time>2023-09-03T09:13:16Z</time>
      </trkpt>
      <trkpt lat="49.45882" lon="0.47459">
        <ele>5.3</ele>
        <time>2023-09-03T09:13:17Z</time>
      </trkpt>
      <trkpt lat="49.45877" lon="0.47451">
        <ele>5.2</ele>
        <time>2023-09-03T09:13:18Z</time>
      </trkpt>
      <trkpt lat="49.45873" lon="0.47442">
        <ele>5.2</ele>
        <time>2023-09-03T09:13:19Z</time>
      </trkpt>
      <trkpt lat="49.45868" lon="0.47434">
        <ele>5.1</ele>
        <time>2023-09-03T09:13:20Z</time>
      </trkpt>
      <trkpt lat="49.45864" lon="0.47426">
        <ele>5.1</ele>
        <time>2023-09-03T09:13:21Z</time>
      </trkpt>
      <trkpt lat="49.45859" lon="0.47418">
        <ele>5.1</ele>
        <time>2023-09-03T09:13:22Z</time>
      </trkpt>
      <trkpt lat="49.45854" lon="0.47411">
        <ele>5</ele>
        <time>2023-09-03T09:13:23Z</time>
      </trkpt>
      <trkpt lat="49.4585" lon="0.47403">
        <ele>5</ele>
        <time>2023-09-03T09:13:24Z</time>
      </trkpt>
      <trkpt lat="49.45845" lon="0.47395">
        <ele>5</ele>
        <time>2023-09-03T09:13:25Z</time>
      </trkpt>
      <trkpt lat="49.45839" lon="0.47387">
        <ele>5</ele>
        <time>2023-09-03T09:13:26Z</time>
      </trkpt>
      <trkpt lat="49.45834" lon="0.4738">
        <ele>5</ele>
        <time>2023-09-03T09:13:27Z</time>
      </trkpt>
      <trkpt lat="49.45829" lon="0.47372">
        <ele>5</ele>
        <time>2023-09-03T09:13:28Z</time>
      </trkpt>
      <trkpt lat="49.45824" lon="0.47364">
        <ele>5</ele>
        <time>2023-09-03T09:13:29Z</time>
      </trkpt>
      <trkpt lat="49.45818" lon="0.47356">
        <ele>5</ele>
        <time>2023-09-03T09:13:30Z</time>
      </trkpt>
      <trkpt lat="49.45813" lon="0.47348">
        <ele>5</ele>
        <time>2023-09-03T09:13:31Z</time>
      </trkpt>
      <trkpt lat="49.45807" lon="0.4734">
        <ele>5</ele>
        <time>2023-09-03T09:13:32Z</time>
      </trkpt>
      <trkpt lat="49.45801" lon="0.47332">
        <ele>5</ele>
        <time>2023-09-03T09:13:33Z</time>
      </trkpt>
      <trkpt lat="49.45795" lon="0.47324">
        <ele>5.1</ele>
        <time>2023-09-03T09:13:34Z</time>
      </trkpt>
      <trkpt lat="49.45789" lon="0.47315">
        <ele>5.1</ele>
        <time>2023-09-03T09:13:35Z</time>
      </trkpt>
      <trkpt lat="49.45783" lon="0.47307">
        <ele>5.1</ele>
        <time>2023-09-03T09:13:36Z</time>
      </trkpt>
      <trkpt lat="49.45777" lon="0.47299">
        <ele>5.2</ele>
        <time>2023-09-03T09:13:37Z</time>
      </trkpt>
      <trkpt lat="49.45771" lon="0.4729">
        <ele>5.2</ele>
        <time>2023-09-03T09:13:38Z</time>
      </trkpt>
      <trkpt lat="49.45765" lon="0.47281">
        <ele>5.2</ele>
        <time>2023-09-03T09:13:39Z</time>
      </trkpt>
      <trkpt lat="49.45758" lon="0.47272">
        <ele>5.3</ele>
        <time>2023-09-03T09:13:40Z</time>
      </trkpt>
      <trkpt lat="49.45752" lon="0.47263">
        <ele>5.3</ele>
        <time>2023-09-03T09:13:41Z</time>
      </trkpt>
      <trkpt lat="49.45746" lon="0.47254">
        <ele>5.3</ele>
        <time>2023-09-03T09:13:42Z</time>
      </trkpt>
      <trkpt lat="49.4574" lon="0.47245">
        <ele>5.4</ele>
        <time>2023-09-03T09:13:43Z</time>
      </trkpt>
      <trkpt lat="49.45734" lon="0.47236">
        <ele>5.4</ele>
        <time>2023-09-03T09:13:44Z</time>
      </trkpt>
      <trkpt lat="49.45728" lon="0.47227">
        <ele>5.4</ele>
        <time>2023-09-03T09:13:45Z</time>
      </trkpt>
      <trkpt lat="49.45722" lon="0.47218">
        <ele>5.5</ele>
        <time>2023-09-03T09:13:46Z</time>
      </trkpt>
      <trkpt lat="49.45716" lon="0.47209">
        <ele>5.5</ele>
        <time>2023-09-03T09:13:47Z</time>
      </trkpt>
      <trkpt lat="49.45711" lon="0.47199">
        <ele>5.5</ele>
        <time>2023-09-03T09:13:48Z</time>
      </trkpt>
      <trkpt lat="49.45706" lon="0.47189">
        <ele>5.6</ele>
        <time>2023-09-03T09:13:49Z</time>
      </trkpt>
      <trkpt lat="49.457" lon="0.47179">
        <ele>5.6</ele>
        <time>2023-09-03T09:13:50Z</time>
      </trkpt>
      <trkpt lat="49.45695" lon="0.4717">
        <ele>5.7</ele>
        <time>2023-09-03T09:13:51Z</time>
      </trkpt>
      <trkpt lat="49.4569" lon="0.47161">
        <ele>5.7</ele>
        <time>2023-09-03T09:13:52Z</time>
      </trkpt>
      <trkpt lat="49.45685" lon="0.47151">
        <ele>5.7</ele>
        <time>2023-09-03T09:13:53Z</time>
      </trkpt>
      <trkpt lat="49.4568" lon="0.47141">
        <ele>5.8</ele>
        <time>2023-09-03T09:13:54Z</time>
      </trkpt>
      <trkpt lat="49.45675" lon="0.47131">
        <ele>5.8</ele>
        <time>2023-09-03T09:13:55Z</time>
      </trkpt>
      <trkpt lat="49.45671" lon="0.4712">
        <ele>5.8</ele>
        <time>2023-09-03T09:13:56Z</time>
      </trkpt>
      <trkpt lat="49.45666" lon="0.4711">
        <ele>5.8</ele>
        <time>2023-09-03T09:13:57Z</time>
      </trkpt>
      <trkpt lat="49.45661" lon="0.47099">
        <ele>5.8</ele>
        <time>2023-09-03T09:13:58Z</time>
      </trkpt>
      <trkpt lat="49.45656" lon="0.47088">
        <ele>5.8</ele>
        <time>2023-09-03T09:13:59Z</time>
      </trkpt>
      <trkpt lat="49.45652" lon="0.47078">
        <ele>5.8</ele>
        <time>2023-09-03T09:14:00Z</time>
      </trkpt>
      <trkpt lat="49.45647" lon="0.47068">
        <ele>5.8</ele>
        <time>2023-09-03T09:14:01Z</time>
      </trkpt>
      <trkpt lat="49.45642" lon="0.47058">
        <ele>5.8</ele>
        <time>2023-09-03T09:14:02Z</time>
      </trkpt>
      <trkpt lat="49.45638" lon="0.47047">
        <ele>5.8</ele>
        <time>2023-09-03T09:14:03Z</time>
      </trkpt>
      <trkpt lat="49.45633" lon="0.47037">
        <ele>5.8</ele>
        <time>2023-09-03T09:14:04Z</time>
      </trkpt>
      <trkpt lat="49.45629" lon="0.47026">
        <ele>5.8</ele>
        <time>2023-09-03T09:14:05Z</time>
      </trkpt>
      <trkpt lat="49.45624" lon="0.47016">
        <ele>5.8</ele>
        <time>2023-09-03T09:14:06Z</time>
      </trkpt>
      <trkpt lat="49.4562" lon="0.47006">
        <ele>5.7</ele>
        <time>2023-09-03T09:14:07Z</time>
      </trkpt>
      <trkpt lat="49.45616" lon="0.46996">
        <ele>5.7</ele>
        <time>2023-09-03T09:14:08Z</time>
      </trkpt>
      <trkpt lat="49.45612" lon="0.46987">
        <ele>5.6</ele>
        <time>2023-09-03T09:14:09Z</time>
      </trkpt>
      <trkpt lat="49.45607" lon="0.46977">
        <ele>5.6</ele>
        <time>2023-09-03T09:14:10Z</time>
      </trkpt>
      <trkpt lat="49.45603" lon="0.46967">
        <ele>5.5</ele>
        <time>2023-09-03T09:14:11Z</time>
      </trkpt>
      <trkpt lat="49.45598" lon="0.46956">
        <ele>5.5</ele>
        <time>2023-09-03T09:14:12Z</time>
      </trkpt>
      <trkpt lat="49.45593" lon="0.46945">
        <ele>5.5</ele>
        <time>2023-09-03T09:14:13Z</time>
      </trkpt>
      <trkpt lat="49.45589" lon="0.46934">
        <ele>5.5</ele>
        <time>2023-09-03T09:14:14Z</time>
      </trkpt>
      <trkpt lat="49.45584" lon="0.46923">
        <ele>5.5</ele>
        <time>2023-09-03T09:14:15Z</time>
      </trkpt>
      <trkpt lat="49.45579" lon="0.46911">
        <ele>5.5</ele>
        <time>2023-09-03T09:14:16Z</time>
      </trkpt>
      <trkpt lat="49.45574" lon="0.469">
        <ele>5.5</ele>
        <time>2023-09-03T09:14:17Z</time>
      </trkpt>
      <trkpt lat="49.45569" lon="0.46889">
        <ele>5.6</ele>
        <time>2023-09-03T09:14:18Z</time>
      </trkpt>
      <trkpt lat="49.45563" lon="0.46877">
        <ele>5.6</ele>
        <time>2023-09-03T09:14:19Z</time>
      </trkpt>
      <trkpt lat="49.45558" lon="0.46865">
        <ele>5.5</ele>
        <time>2023-09-03T09:14:20Z</time>
      </trkpt>
      <trkpt lat="49.45553" lon="0.46853">
        <ele>5.5</ele>
        <time>2023-09-03T09:14:21Z</time>
      </trkpt>
      <trkpt lat="49.45548" lon="0.46842">
        <ele>5.6</ele>
        <time>2023-09-03T09:14:22Z</time>
      </trkpt>
      <trkpt lat="49.45543" lon="0.4683">
        <ele>5.6</ele>
        <time>2023-09-03T09:14:23Z</time>
      </trkpt>
      <trkpt lat="49.45537" lon="0.46819">
        <ele>5.6</ele>
        <time>2023-09-03T09:14:24Z</time>
      </trkpt>
      <trkpt lat="49.45532" lon="0.46807">
        <ele>5.7</ele>
        <time>2023-09-03T09:14:25Z</time>
      </trkpt>
      <trkpt lat="49.45526" lon="0.46795">
        <ele>5.7</ele>
        <time>2023-09-03T09:14:26Z</time>
      </trkpt>
      <trkpt lat="49.45521" lon="0.46783">
        <ele>5.6</ele>
        <time>2023-09-03T09:14:27Z</time>
      </trkpt>
      <trkpt lat="49.45515" lon="0.4677">
        <ele>5.6</ele>
        <time>2023-09-03T09:14:28Z</time>
      </trkpt>
      <trkpt lat="49.4551" lon="0.46759">
        <ele>5.6</ele>
        <time>2023-09-03T09:14:29Z</time>
      </trkpt>
      <trkpt lat="49.45505" lon="0.46746">
        <ele>5.6</ele>
        <time>2023-09-03T09:14:30Z</time>
      </trkpt>
      <trkpt lat="49.455" lon="0.46734">
        <ele>5.5</ele>
        <time>2023-09-03T09:14:31Z</time>
      </trkpt>
      <trkpt lat="49.45495" lon="0.46722">
        <ele>5.5</ele>
        <time>2023-09-03T09:14:32Z</time>
      </trkpt>
      <trkpt lat="49.4549" lon="0.4671">
        <ele>5.4</ele>
        <time>2023-09-03T09:14:33Z</time>
      </trkpt>
      <trkpt lat="49.45484" lon="0.46698">
        <ele>5.4</ele>
        <time>2023-09-03T09:14:34Z</time>
      </trkpt>
      <trkpt lat="49.45479" lon="0.46685">
        <ele>5.4</ele>
        <time>2023-09-03T09:14:35Z</time>
      </trkpt>
      <trkpt lat="49.45474" lon="0.46673">
        <ele>5.4</ele>
        <time>2023-09-03T09:14:36Z</time>
      </trkpt>
      <trkpt lat="49.45469" lon="0.46661">
        <ele>5.4</ele>
        <time>2023-09-03T09:14:37Z</time>
      </trkpt>
      <trkpt lat="49.45464" lon="0.46648">
        <ele>5.5</ele>
        <time>2023-09-03T09:14:38Z</time>
      </trkpt>
      <trkpt lat="49.45459" lon="0.46636">
        <ele>5.5</ele>
        <time>2023-09-03T09:14:39Z</time>
      </trkpt>
      <trkpt lat="49.45454" lon="0.46624">
        <ele>5.6</ele>
        <time>2023-09-03T09:14:40Z</time>
      </trkpt>
      <trkpt lat="49.45449" lon="0.46612">
        <ele>5.6</ele>
        <time>2023-09-03T09:14:41Z</time>
      </trkpt>
      <trkpt lat="49.45444" lon="0.46601">
        <ele>5.7</ele>
        <time>2023-09-03T09:14:42Z</time>
      </trkpt>
      <trkpt lat="49.45439" lon="0.4659">
        <ele>5.7</ele>
        <time>2023-09-03T09:14:43Z</time>
      </trkpt>
      <trkpt lat="49.45434" lon="0.46579">
        <ele>5.7</ele>
        <time>2023-09-03T09:14:44Z</time>
      </trkpt>
      <trkpt lat="49.45429" lon="0.46568">
        <ele>5.6</ele>
        <time>2023-09-03T09:14:45Z</time>
      </trkpt>
      <trkpt lat="49.45425" lon="0.46557">
        <ele>5.6</ele>
        <time>2023-09-03T09:14:46Z</time>
      </trkpt>
      <trkpt lat="49.4542" lon="0.46547">
        <ele>5.6</ele>
        <time>2023-09-03T09:14:47Z</time>
      </trkpt>
      <trkpt lat="49.45415" lon="0.46536">
        <ele>5.5</ele>
        <time>2023-09-03T09:14:48Z</time>
      </trkpt>
      <trkpt lat="49.4541" lon="0.46525">
        <ele>5.5</ele>
        <time>2023-09-03T09:14:49Z</time>
      </trkpt>
      <trkpt lat="49.45406" lon="0.46515">
        <ele>5.5</ele>
        <time>2023-09-03T09:14:50Z</time>
      </trkpt>
      <trkpt lat="49.45401" lon="0.46505">
        <ele>5.4</ele>
        <time>2023-09-03T09:14:51Z</time>
      </trkpt>
      <trkpt lat="49.45396" lon="0.46495">
        <ele>5.4</ele>
        <time>2023-09-03T09:14:52Z</time>
      </trkpt>
      <trkpt lat="49.45392" lon="0.46485">
        <ele>5.3</ele>
        <time>2023-09-03T09:14:53Z</time>
      </trkpt>
      <trkpt lat="49.45387" lon="0.46475">
        <ele>5.3</ele>
        <time>2023-09-03T09:14:54Z</time>
      </trkpt>
      <trkpt lat="49.45382" lon="0.46464">
        <ele>5.2</ele>
        <time>2023-09-03T09:14:55Z</time>
      </trkpt>
      <trkpt lat="49.45378" lon="0.46454">
        <ele>5.2</ele>
        <time>2023-09-03T09:14:56Z</time>
      </trkpt>
      <trkpt lat="49.45374" lon="0.46444">
        <ele>5.2</ele>
        <time>2023-09-03T09:14:57Z</time>
      </trkpt>
      <trkpt lat="49.4537" lon="0.46433">
        <ele>5.3</ele>
        <time>2023-09-03T09:14:58Z</time>
      </trkpt>
      <trkpt lat="49.45365" lon="0.46423">
        <ele>5.3</ele>
        <time>2023-09-03T09:14:59Z</time>
      </trkpt>
      <trkpt lat="49.4536" lon="0.46412">
        <ele>5.3</ele>
        <time>2023-09-03T09:15:00Z</time>
      </trkpt>
      <trkpt lat="49.45356" lon="0.46401">
        <ele>5.3</ele>
        <time>2023-09-03T09:15:01Z</time>
      </trkpt>
      <trkpt lat="49.45351" lon="0.46391">
        <ele>5.4</ele>
        <time>2023-09-03T09:15:02Z</time>
      </trkpt>
      <trkpt lat="49.45346" lon="0.4638">
        <ele>5.4</ele>
        <time>2023-09-03T09:15:03Z</time>
      </trkpt>
      <trkpt lat="49.45341" lon="0.4637">
        <ele>5.4</ele>
        <time>2023-09-03T09:15:04Z</time>
      </trkpt>
      <trkpt lat="49.45337" lon="0.4636">
        <ele>5.5</ele>
        <time>2023-09-03T09:15:05Z</time>
      </trkpt>
      <trkpt lat="49.45333" lon="0.4635">
        <ele>5.5</ele>
        <time>2023-09-03T09:15:06Z</time>
      </trkpt>
      <trkpt lat="49.45329" lon="0.46341">
        <ele>5.5</ele>
        <time>2023-09-03T09:15:07Z</time>
      </trkpt>
      <trkpt lat="49.45325" lon="0.46331">
        <ele>5.5</ele>
        <time>2023-09-03T09:15:08Z</time>
      </trkpt>
      <trkpt lat="49.45322" lon="0.46322">
        <ele>5.5</ele>
        <time>2023-09-03T09:15:09Z</time>
      </trkpt>
      <trkpt lat="49.45318" lon="0.46313">
        <ele>5.5</ele>
        <time>2023-09-03T09:15:10Z</time>
      </trkpt>
      <trkpt lat="49.45314" lon="0.46303">
        <ele>5.5</ele>
        <time>2023-09-03T09:15:11Z</time>
      </trkpt>
      <trkpt lat="49.45311" lon="0.46293">
        <ele>5.4</ele>
        <time>2023-09-03T09:15:12Z</time>
      </trkpt>
      <trkpt lat="49.45306" lon="0.46283">
        <ele>5.4</ele>
        <time>2023-09-03T09:15:13Z</time>
      </trkpt>
      <trkpt lat="49.45303" lon="0.46273">
        <ele>5.3</ele>
        <time>2023-09-03T09:15:14Z</time>
      </trkpt>
      <trkpt lat="49.45299" lon="0.46262">
        <ele>5.3</ele>
        <time>2023-09-03T09:15:15Z</time>
      </trkpt>
      <trkpt lat="49.45296" lon="0.46251">
        <ele>5.2</ele>
        <time>2023-09-03T09:15:16Z</time>
      </trkpt>
      <trkpt lat="49.45292" lon="0.4624">
        <ele>5.3</ele>
        <time>2023-09-03T09:15:17Z</time>
      </trkpt>
      <trkpt lat="49.45288" lon="0.46229">
        <ele>5.3</ele>
        <time>2023-09-03T09:15:18Z</time>
      </trkpt>
      <trkpt lat="49.45284" lon="0.46218">
        <ele>5.3</ele>
        <time>2023-09-03T09:15:19Z</time>
      </trkpt>
      <trkpt lat="49.45281" lon="0.46207">
        <ele>5.3</ele>
        <time>2023-09-03T09:15:20Z</time>
      </trkpt>
      <trkpt lat="49.45277" lon="0.46197">
        <ele>5.3</ele>
        <time>2023-09-03T09:15:21Z</time>
      </trkpt>
      <trkpt lat="49.45274" lon="0.46185">
        <ele>5.3</ele>
        <time>2023-09-03T09:15:22Z</time>
      </trkpt>
      <trkpt lat="49.4527" lon="0.46174">
        <ele>5.4</ele>
        <time>2023-09-03T09:15:23Z</time>
      </trkpt>
      <trkpt lat="49.45267" lon="0.46164">
        <ele>5.4</ele>
        <time>2023-09-03T09:15:24Z</time>
      </trkpt>
      <trkpt lat="49.45264" lon="0.46152">
        <ele>5.5</ele>
        <time>2023-09-03T09:15:25Z</time>
      </trkpt>
      <trkpt lat="49.45261" lon="0.46141">
        <ele>5.5</ele>
        <time>2023-09-03T09:15:26Z</time>
      </trkpt>
      <trkpt lat="49.45258" lon="0.4613">
        <ele>5.6</ele>
        <time>2023-09-03T09:15:27Z</time>
      </trkpt>
      <trkpt lat="49.45255" lon="0.46119">
        <ele>5.6</ele>
        <time>2023-09-03T09:15:28Z</time>
      </trkpt>
      <trkpt lat="49.45252" lon="0.46108">
        <ele>5.6</ele>
        <time>2023-09-03T09:15:29Z</time>
      </trkpt>
      <trkpt lat="49.45249" lon="0.46097">
        <ele>5.7</ele>
        <time>2023-09-03T09:15:30Z</time>
      </trkpt>
      <trkpt lat="49.45246" lon="0.46086">
        <ele>5.7</ele>
        <time>2023-09-03T09:15:31Z</time>
      </trkpt>
      <trkpt lat="49.45244" lon="0.46074">
        <ele>5.7</ele>
        <time>2023-09-03T09:15:32Z</time>
      </trkpt>
      <trkpt lat="49.45241" lon="0.46062">
        <ele>5.6</ele>
        <time>2023-09-03T09:15:33Z</time>
      </trkpt>
      <trkpt lat="49.45238" lon="0.46051">
        <ele>5.6</ele>
        <time>2023-09-03T09:15:34Z</time>
      </trkpt>
      <trkpt lat="49.45236" lon="0.46039">
        <ele>5.5</ele>
        <time>2023-09-03T09:15:35Z</time>
      </trkpt>
      <trkpt lat="49.45233" lon="0.46028">
        <ele>5.5</ele>
        <time>2023-09-03T09:15:36Z</time>
      </trkpt>
      <trkpt lat="49.45231" lon="0.46016">
        <ele>5.5</ele>
        <time>2023-09-03T09:15:37Z</time>
      </trkpt>
      <trkpt lat="49.45228" lon="0.46004">
        <ele>5.4</ele>
        <time>2023-09-03T09:15:38Z</time>
      </trkpt>
      <trkpt lat="49.45226" lon="0.45992">
        <ele>5.4</ele>
        <time>2023-09-03T09:15:39Z</time>
      </trkpt>
      <trkpt lat="49.45224" lon="0.4598">
        <ele>5.4</ele>
        <time>2023-09-03T09:15:40Z</time>
      </trkpt>
      <trkpt lat="49.45221" lon="0.45969">
        <ele>5.4</ele>
        <time>2023-09-03T09:15:41Z</time>
      </trkpt>
      <trkpt lat="49.45219" lon="0.45957">
        <ele>5.5</ele>
        <time>2023-09-03T09:15:42Z</time>
      </trkpt>
      <trkpt lat="49.45217" lon="0.45945">
        <ele>5.6</ele>
        <time>2023-09-03T09:15:43Z</time>
      </trkpt>
      <trkpt lat="49.45215" lon="0.45932">
        <ele>5.6</ele>
        <time>2023-09-03T09:15:44Z</time>
      </trkpt>
      <trkpt lat="49.45213" lon="0.4592">
        <ele>5.6</ele>
        <time>2023-09-03T09:15:45Z</time>
      </trkpt>
      <trkpt lat="49.45211" lon="0.45907">
        <ele>5.6</ele>
        <time>2023-09-03T09:15:46Z</time>
      </trkpt>
      <trkpt lat="49.4521" lon="0.45895">
        <ele>5.6</ele>
        <time>2023-09-03T09:15:47Z</time>
      </trkpt>
      <trkpt lat="49.45208" lon="0.45883">
        <ele>5.7</ele>
        <time>2023-09-03T09:15:48Z</time>
      </trkpt>
      <trkpt lat="49.45206" lon="0.4587">
        <ele>5.7</ele>
        <time>2023-09-03T09:15:49Z</time>
      </trkpt>
      <trkpt lat="49.45204" lon="0.45858">
        <ele>5.8</ele>
        <time>2023-09-03T09:15:50Z</time>
      </trkpt>
      <trkpt lat="49.45203" lon="0.45845">
        <ele>5.8</ele>
        <time>2023-09-03T09:15:51Z</time>
      </trkpt>
      <trkpt lat="49.45202" lon="0.45832">
        <ele>5.8</ele>
        <time>2023-09-03T09:15:52Z</time>
      </trkpt>
      <trkpt lat="49.452" lon="0.45819">
        <ele>5.8</ele>
        <time>2023-09-03T09:15:53Z</time>
      </trkpt>
      <trkpt lat="49.45199" lon="0.45806">
        <ele>5.8</ele>
        <time>2023-09-03T09:15:54Z</time>
      </trkpt>
      <trkpt lat="49.45197" lon="0.45793">
        <ele>5.7</ele>
        <time>2023-09-03T09:15:55Z</time>
      </trkpt>
      <trkpt lat="49.45196" lon="0.4578">
        <ele>5.7</ele>
        <time>2023-09-03T09:15:56Z</time>
      </trkpt>
      <trkpt lat="49.45195" lon="0.45767">
        <ele>5.7</ele>
        <time>2023-09-03T09:15:57Z</time>
      </trkpt>
      <trkpt lat="49.45194" lon="0.45754">
        <ele>5.7</ele>
        <time>2023-09-03T09:15:58Z</time>
      </trkpt>
      <trkpt lat="49.45193" lon="0.45741">
        <ele>5.7</ele>
        <time>2023-09-03T09:15:59Z</time>
      </trkpt>
      <trkpt lat="49.45192" lon="0.45728">
        <ele>5.7</ele>
        <time>2023-09-03T09:16:00Z</time>
      </trkpt>
      <trkpt lat="49.45191" lon="0.45715">
        <ele>5.7</ele>
        <time>2023-09-03T09:16:01Z</time>
      </trkpt>
      <trkpt lat="49.4519" lon="0.45702">
        <ele>5.7</ele>
        <time>2023-09-03T09:16:02Z</time>
      </trkpt>
      <trkpt lat="49.45189" lon="0.45689">
        <ele>5.7</ele>
        <time>2023-09-03T09:16:03Z</time>
      </trkpt>
      <trkpt lat="49.45188" lon="0.45676">
        <ele>5.7</ele>
        <time>2023-09-03T09:16:04Z</time>
      </trkpt>
      <trkpt lat="49.45187" lon="0.45663">
        <ele>5.7</ele>
        <time>2023-09-03T09:16:05Z</time>
      </trkpt>
      <trkpt lat="49.45186" lon="0.4565">
        <ele>5.8</ele>
        <time>2023-09-03T09:16:06Z</time>
      </trkpt>
      <trkpt lat="49.45186" lon="0.45637">
        <ele>5.8</ele>
        <time>2023-09-03T09:16:07Z</time>
      </trkpt>
      <trkpt lat="49.45185" lon="0.45625">
        <ele>5.8</ele>
        <time>2023-09-03T09:16:08Z</time>
      </trkpt>
      <trkpt lat="49.45184" lon="0.45612">
        <ele>5.8</ele>
        <time>2023-09-03T09:16:09Z</time>
      </trkpt>
      <trkpt lat="49.45183" lon="0.45599">
        <ele>5.8</ele>
        <time>2023-09-03T09:16:10Z</time>
      </trkpt>
      <trkpt lat="49.45181" lon="0.45586">
        <ele>5.9</ele>
        <time>2023-09-03T09:16:11Z</time>
      </trkpt>
      <trkpt lat="49.4518" lon="0.45573">
        <ele>5.9</ele>
        <time>2023-09-03T09:16:12Z</time>
      </trkpt>
      <trkpt lat="49.45179" lon="0.45561">
        <ele>5.9</ele>
        <time>2023-09-03T09:16:13Z</time>
      </trkpt>
      <trkpt lat="49.45178" lon="0.45549">
        <ele>5.8</ele>
        <time>2023-09-03T09:16:14Z</time>
      </trkpt>
      <trkpt lat="49.45177" lon="0.45536">
        <ele>5.8</ele>
        <time>2023-09-03T09:16:15Z</time>
      </trkpt>
      <trkpt lat="49.45176" lon="0.45524">
        <ele>5.8</ele>
        <time>2023-09-03T09:16:16Z</time>
      </trkpt>
      <trkpt lat="49.45175" lon="0.45512">
        <ele>5.8</ele>
        <time>2023-09-03T09:16:17Z</time>
      </trkpt>
      <trkpt lat="49.45174" lon="0.45499">
        <ele>5.7</ele>
        <time>2023-09-03T09:16:18Z</time>
      </trkpt>
      <trkpt lat="49.45173" lon="0.45485">
        <ele>5.7</ele>
        <time>2023-09-03T09:16:19Z</time>
      </trkpt>
      <trkpt lat="49.45172" lon="0.45473">
        <ele>5.6</ele>
        <time>2023-09-03T09:16:20Z</time>
      </trkpt>
      <trkpt lat="49.45171" lon="0.4546">
        <ele>5.6</ele>
        <time>2023-09-03T09:16:21Z</time>
      </trkpt>
      <trkpt lat="49.4517" lon="0.45448">
        <ele>5.6</ele>
        <time>2023-09-03T09:16:22Z</time>
      </trkpt>
      <trkpt lat="49.45169" lon="0.45434">
        <ele>5.6</ele>
        <time>2023-09-03T09:16:23Z</time>
      </trkpt>
      <trkpt lat="49.45168" lon="0.45421">
        <ele>5.6</ele>
        <time>2023-09-03T09:16:24Z</time>
      </trkpt>
      <trkpt lat="49.45167" lon="0.45408">
        <ele>5.6</ele>
        <time>2023-09-03T09:16:25Z</time>
      </trkpt>
      <trkpt lat="49.45166" lon="0.45395">
        <ele>5.6</ele>
        <time>2023-09-03T09:16:26Z</time>
      </trkpt>
      <trkpt lat="49.45165" lon="0.45381">
        <ele>5.6</ele>
        <time>2023-09-03T09:16:27Z</time>
      </trkpt>
      <trkpt lat="49.45164" lon="0.45368">
        <ele>5.7</ele>
        <time>2023-09-03T09:16:28Z</time>
      </trkpt>
      <trkpt lat="49.45163" lon="0.45355">
        <ele>5.7</ele>
        <time>2023-09-03T09:16:29Z</time>
      </trkpt>
      <trkpt lat="49.45163" lon="0.45341">
        <ele>5.7</ele>
        <time>2023-09-03T09:16:30Z</time>
      </trkpt>
      <trkpt lat="49.45162" lon="0.45328">
        <ele>5.8</ele>
        <time>2023-09-03T09:16:31Z</time>
      </trkpt>
      <trkpt lat="49.45161" lon="0.45315">
        <ele>5.8</ele>
        <time>2023-09-03T09:16:32Z</time>
      </trkpt>
      <trkpt lat="49.4516" lon="0.45302">
        <ele>5.7</ele>
        <time>2023-09-03T09:16:33Z</time>
      </trkpt>
      <trkpt lat="49.45159" lon="0.4529">
        <ele>5.7</ele>
        <time>2023-09-03T09:16:34Z</time>
      </trkpt>
      <trkpt lat="49.45158" lon="0.45277">
        <ele>5.7</ele>
        <time>2023-09-03T09:16:35Z</time>
      </trkpt>
      <trkpt lat="49.45157" lon="0.45264">
        <ele>5.7</ele>
        <time>2023-09-03T09:16:36Z</time>
      </trkpt>
      <trkpt lat="49.45155" lon="0.45251">
        <ele>5.7</ele>
        <time>2023-09-03T09:16:37Z</time>
      </trkpt>
      <trkpt lat="49.45154" lon="0.45238">
        <ele>5.6</ele>
        <time>2023-09-03T09:16:38Z</time>
      </trkpt>
      <trkpt lat="49.45153" lon="0.45224">
        <ele>5.6</ele>
        <time>2023-09-03T09:16:39Z</time>
      </trkpt>
      <trkpt lat="49.45152" lon="0.45211">
        <ele>5.6</ele>
        <time>2023-09-03T09:16:40Z</time>
      </trkpt>
      <trkpt lat="49.45151" lon="0.45198">
        <ele>5.6</ele>
        <time>2023-09-03T09:16:41Z</time>
      </trkpt>
      <trkpt lat="49.4515" lon="0.45185">
        <ele>5.5</ele>
        <time>2023-09-03T09:16:42Z</time>
      </trkpt>
      <trkpt lat="49.45149" lon="0.45171">
        <ele>5.5</ele>
        <time>2023-09-03T09:16:43Z</time>
      </trkpt>
      <trkpt lat="49.45148" lon="0.45158">
        <ele>5.5</ele>
        <time>2023-09-03T09:16:44Z</time>
      </trkpt>
      <trkpt lat="49.45147" lon="0.45145">
        <ele>5.5</ele>
        <time>2023-09-03T09:16:45Z</time>
      </trkpt>
      <trkpt lat="49.45146" lon="0.45131">
        <ele>5.6</ele>
        <time>2023-09-03T09:16:46Z</time>
      </trkpt>
      <trkpt lat="49.45145" lon="0.45118">
        <ele>5.6</ele>
        <time>2023-09-03T09:16:47Z</time>
      </trkpt>
      <trkpt lat="49.45144" lon="0.45104">
        <ele>5.6</ele>
        <time>2023-09-03T09:16:48Z</time>
      </trkpt>
      <trkpt lat="49.45143" lon="0.4509">
        <ele>5.7</ele>
        <time>2023-09-03T09:16:49Z</time>
      </trkpt>
      <trkpt lat="49.45142" lon="0.45076">
        <ele>5.7</ele>
        <time>2023-09-03T09:16:50Z</time>
      </trkpt>
      <trkpt lat="49.45141" lon="0.45063">
        <ele>5.7</ele>
        <time>2023-09-03T09:16:51Z</time>
      </trkpt>
      <trkpt lat="49.45139" lon="0.45049">
        <ele>5.7</ele>
        <time>2023-09-03T09:16:52Z</time>
      </trkpt>
      <trkpt lat="49.45138" lon="0.45035">
        <ele>5.8</ele>
        <time>2023-09-03T09:16:53Z</time>
      </trkpt>
      <trkpt lat="49.45137" lon="0.45021">
        <ele>5.8</ele>
        <time>2023-09-03T09:16:54Z</time>
      </trkpt>
      <trkpt lat="49.45136" lon="0.45006">
        <ele>5.8</ele>
        <time>2023-09-03T09:16:55Z</time>
      </trkpt>
      <trkpt lat="49.45135" lon="0.44992">
        <ele>5.8</ele>
        <time>2023-09-03T09:16:56Z</time>
      </trkpt>
      <trkpt lat="49.45135" lon="0.44977">
        <ele>5.8</ele>
        <time>2023-09-03T09:16:57Z</time>
      </trkpt>
      <trkpt lat="49.45134" lon="0.44962">
        <ele>5.8</ele>
        <time>2023-09-03T09:16:58Z</time>
      </trkpt>
      <trkpt lat="49.45133" lon="0.44947">
        <ele>5.7</ele>
        <time>2023-09-03T09:16:59Z</time>
      </trkpt>
      <trkpt lat="49.45131" lon="0.44932">
        <ele>5.7</ele>
        <time>2023-09-03T09:17:00Z</time>
      </trkpt>
      <trkpt lat="49.4513" lon="0.44917">
        <ele>5.7</ele>
        <time>2023-09-03T09:17:01Z</time>
      </trkpt>
      <trkpt lat="49.45129" lon="0.44902">
        <ele>5.7</ele>
        <time>2023-09-03T09:17:02Z</time>
      </trkpt>
      <trkpt lat="49.45128" lon="0.44887">
        <ele>5.7</ele>
        <time>2023-09-03T09:17:03Z</time>
      </trkpt>
      <trkpt lat="49.45127" lon="0.44872">
        <ele>5.7</ele>
        <time>2023-09-03T09:17:04Z</time>
      </trkpt>
      <trkpt lat="49.45126" lon="0.44857">
        <ele>5.7</ele>
        <time>2023-09-03T09:17:05Z</time>
      </trkpt>
      <trkpt lat="49.45124" lon="0.44842">
        <ele>5.7</ele>
        <time>2023-09-03T09:17:06Z</time>
      </trkpt>
      <trkpt lat="49.45123" lon="0.44827">
        <ele>5.7</ele>
        <time>2023-09-03T09:17:07Z</time>
      </trkpt>
      <trkpt lat="49.45122" lon="0.44812">
        <ele>5.7</ele>
        <time>2023-09-03T09:17:08Z</time>
      </trkpt>
      <trkpt lat="49.45121" lon="0.44797">
        <ele>5.7</ele>
        <time>2023-09-03T09:17:09Z</time>
      </trkpt>
      <trkpt lat="49.4512" lon="0.44782">
        <ele>5.8</ele>
        <time>2023-09-03T09:17:10Z</time>
      </trkpt>
      <trkpt lat="49.45119" lon="0.44768">
        <ele>5.8</ele>
        <time>2023-09-03T09:17:11Z</time>
      </trkpt>
      <trkpt lat="49.45118" lon="0.44754">
        <ele>5.8</ele>
        <time>2023-09-03T09:17:12Z</time>
      </trkpt>
      <trkpt lat="49.45117" lon="0.4474">
        <ele>5.7</ele>
        <time>2023-09-03T09:17:13Z</time>
      </trkpt>
      <trkpt lat="49.45115" lon="0.44725">
        <ele>5.7</ele>
        <time>2023-09-03T09:17:14Z</time>
      </trkpt>
      <trkpt lat="49.45114" lon="0.44712">
        <ele>5.6</ele>
        <time>2023-09-03T09:17:15Z</time>
      </trkpt>
      <trkpt lat="49.45113" lon="0.44698">
        <ele>5.6</ele>
        <time>2023-09-03T09:17:16Z</time>
      </trkpt>
      <trkpt lat="49.45112" lon="0.44685">
        <ele>5.6</ele>
        <time>2023-09-03T09:17:17Z</time>
      </trkpt>
      <trkpt lat="49.45111" lon="0.44672">
        <ele>5.5</ele>
        <time>2023-09-03T09:17:18Z</time>
      </trkpt>
      <trkpt lat="49.45109" lon="0.44658">
        <ele>5.5</ele>
        <time>2023-09-03T09:17:19Z</time>
      </trkpt>
      <trkpt lat="49.45109" lon="0.44645">
        <ele>5.4</ele>
        <time>2023-09-03T09:17:20Z</time>
      </trkpt>
      <trkpt lat="49.45108" lon="0.44632">
        <ele>5.3</ele>
        <time>2023-09-03T09:17:21Z</time>
      </trkpt>
      <trkpt lat="49.45107" lon="0.4462">
        <ele>5.3</ele>
        <time>2023-09-03T09:17:22Z</time>
      </trkpt>
      <trkpt lat="49.45105" lon="0.44607">
        <ele>5.3</ele>
        <time>2023-09-03T09:17:23Z</time>
      </trkpt>
      <trkpt lat="49.45104" lon="0.44595">
        <ele>5.3</ele>
        <time>2023-09-03T09:17:24Z</time>
      </trkpt>
      <trkpt lat="49.45103" lon="0.44582">
        <ele>5.3</ele>
        <time>2023-09-03T09:17:25Z</time>
      </trkpt>
      <trkpt lat="49.45102" lon="0.44569">
        <ele>5.3</ele>
        <time>2023-09-03T09:17:26Z</time>
      </trkpt>
      <trkpt lat="49.45101" lon="0.44557">
        <ele>5.3</ele>
        <time>2023-09-03T09:17:27Z</time>
      </trkpt>
      <trkpt lat="49.451" lon="0.44544">
        <ele>5.3</ele>
        <time>2023-09-03T09:17:28Z</time>
      </trkpt>
      <trkpt lat="49.45099" lon="0.44531">
        <ele>5.4</ele>
        <time>2023-09-03T09:17:29Z</time>
      </trkpt>
      <trkpt lat="49.45098" lon="0.44518">
        <ele>5.4</ele>
        <time>2023-09-03T09:17:30Z</time>
      </trkpt>
      <trkpt lat="49.45098" lon="0.44505">
        <ele>5.4</ele>
        <time>2023-09-03T09:17:31Z</time>
      </trkpt>
      <trkpt lat="49.45097" lon="0.44491">
        <ele>5.4</ele>
        <time>2023-09-03T09:17:32Z</time>
      </trkpt>
      <trkpt lat="49.45096" lon="0.44478">
        <ele>5.4</ele>
        <time>2023-09-03T09:17:33Z</time>
      </trkpt>
      <trkpt lat="49.45095" lon="0.44465">
        <ele>5.4</ele>
        <time>2023-09-03T09:17:34Z</time>
      </trkpt>
      <trkpt lat="49.45094" lon="0.44451">
        <ele>5.4</ele>
        <time>2023-09-03T09:17:35Z</time>
      </trkpt>
      <trkpt lat="49.45093" lon="0.44438">
        <ele>5.4</ele>
        <time>2023-09-03T09:17:36Z</time>
      </trkpt>
      <trkpt lat="49.45092" lon="0.44424">
        <ele>5.4</ele>
        <time>2023-09-03T09:17:37Z</time>
      </trkpt>
      <trkpt lat="49.45091" lon="0.44411">
        <ele>5.4</ele>
        <time>2023-09-03T09:17:38Z</time>
      </trkpt>
      <trkpt lat="49.4509" lon="0.44397">
        <ele>5.4</ele>
        <time>2023-09-03T09:17:39Z</time>
      </trkpt>
      <trkpt lat="49.45088" lon="0.44384">
        <ele>5.4</ele>
        <time>2023-09-03T09:17:40Z</time>
      </trkpt>
      <trkpt lat="49.45087" lon="0.4437">
        <ele>5.3</ele>
        <time>2023-09-03T09:17:41Z</time>
      </trkpt>
      <trkpt lat="49.45086" lon="0.44355">
        <ele>5.3</ele>
        <time>2023-09-03T09:17:42Z</time>
      </trkpt>
      <trkpt lat="49.45085" lon="0.44341">
        <ele>5.3</ele>
        <time>2023-09-03T09:17:43Z</time>
      </trkpt>
      <trkpt lat="49.45083" lon="0.44327">
        <ele>5.3</ele>
        <time>2023-09-03T09:17:44Z</time>
      </trkpt>
      <trkpt lat="49.45082" lon="0.44313">
        <ele>5.4</ele>
        <time>2023-09-03T09:17:45Z</time>
      </trkpt>
      <trkpt lat="49.45081" lon="0.44299">
        <ele>5.5</ele>
        <time>2023-09-03T09:17:46Z</time>
      </trkpt>
      <trkpt lat="49.4508" lon="0.44286">
        <ele>5.5</ele>
        <time>2023-09-03T09:17:47Z</time>
      </trkpt>
      <trkpt lat="49.45079" lon="0.44272">
        <ele>5.6</ele>
        <time>2023-09-03T09:17:48Z</time>
      </trkpt>
      <trkpt lat="49.45078" lon="0.44259">
        <ele>5.7</ele>
        <time>2023-09-03T09:17:49Z</time>
      </trkpt>
      <trkpt lat="49.45077" lon="0.44245">
        <ele>5.7</ele>
        <time>2023-09-03T09:17:50Z</time>
      </trkpt>
      <trkpt lat="49.45076" lon="0.44232">
        <ele>5.8</ele>
        <time>2023-09-03T09:17:51Z</time>
      </trkpt>
      <trkpt lat="49.45075" lon="0.44218">
        <ele>5.8</ele>
        <time>2023-09-03T09:17:52Z</time>
      </trkpt>
      <trkpt lat="49.45074" lon="0.44204">
        <ele>5.8</ele>
        <time>2023-09-03T09:17:53Z</time>
      </trkpt>
      <trkpt lat="49.45073" lon="0.4419">
        <ele>5.8</ele>
        <time>2023-09-03T09:17:54Z</time>
      </trkpt>
      <trkpt lat="49.45072" lon="0.44176">
        <ele>5.8</ele>
        <time>2023-09-03T09:17:55Z</time>
      </trkpt>
      <trkpt lat="49.45071" lon="0.44162">
        <ele>5.8</ele>
        <time>2023-09-03T09:17:56Z</time>
      </trkpt>
      <trkpt lat="49.4507" lon="0.44148">
        <ele>5.8</ele>
        <time>2023-09-03T09:17:57Z</time>
      </trkpt>
      <trkpt lat="49.45068" lon="0.44134">
        <ele>5.8</ele>
        <time>2023-09-03T09:17:58Z</time>
      </trkpt>
      <trkpt lat="49.45067" lon="0.44119">
        <ele>5.8</ele>
        <time>2023-09-03T09:17:59Z</time>
      </trkpt>
      <trkpt lat="49.45066" lon="0.44106">
        <ele>5.8</ele>
        <time>2023-09-03T09:18:00Z</time>
      </trkpt>
      <trkpt lat="49.45065" lon="0.44092">
        <ele>5.9</ele>
        <time>2023-09-03T09:18:01Z</time>
      </trkpt>
      <trkpt lat="49.45064" lon="0.44078">
        <ele>5.9</ele>
        <time>2023-09-03T09:18:02Z</time>
      </trkpt>
      <trkpt lat="49.45063" lon="0.44064">
        <ele>5.9</ele>
        <time>2023-09-03T09:18:03Z</time>
      </trkpt>
      <trkpt lat="49.45062" lon="0.4405">
        <ele>5.9</ele>
        <time>2023-09-03T09:18:04Z</time>
      </trkpt>
      <trkpt lat="49.45061" lon="0.44036">
        <ele>5.9</ele>
        <time>2023-09-03T09:18:05Z</time>
      </trkpt>
      <trkpt lat="49.4506" lon="0.44021">
        <ele>6</ele>
        <time>2023-09-03T09:18:06Z</time>
      </trkpt>
      <trkpt lat="49.45059" lon="0.44008">
        <ele>6</ele>
        <time>2023-09-03T09:18:07Z</time>
      </trkpt>
      <trkpt lat="49.45058" lon="0.43993">
        <ele>6</ele>
        <time>2023-09-03T09:18:08Z</time>
      </trkpt>
      <trkpt lat="49.45056" lon="0.4398">
        <ele>6.1</ele>
        <time>2023-09-03T09:18:09Z</time>
      </trkpt>
      <trkpt lat="49.45055" lon="0.43966">
        <ele>6.1</ele>
        <time>2023-09-03T09:18:10Z</time>
      </trkpt>
      <trkpt lat="49.45054" lon="0.43952">
        <ele>6.1</ele>
        <time>2023-09-03T09:18:11Z</time>
      </trkpt>
      <trkpt lat="49.45053" lon="0.43939">
        <ele>6.1</ele>
        <time>2023-09-03T09:18:12Z</time>
      </trkpt>
      <trkpt lat="49.45052" lon="0.43925">
        <ele>6.1</ele>
        <time>2023-09-03T09:18:13Z</time>
      </trkpt>
      <trkpt lat="49.45051" lon="0.43912">
        <ele>6.1</ele>
        <time>2023-09-03T09:18:14Z</time>
      </trkpt>
      <trkpt lat="49.4505" lon="0.43899">
        <ele>6.1</ele>
        <time>2023-09-03T09:18:15Z</time>
      </trkpt>
      <trkpt lat="49.45049" lon="0.43885">
        <ele>6.1</ele>
        <time>2023-09-03T09:18:16Z</time>
      </trkpt>
      <trkpt lat="49.45048" lon="0.43872">
        <ele>6.1</ele>
        <time>2023-09-03T09:18:17Z</time>
      </trkpt>
      <trkpt lat="49.45047" lon="0.43858">
        <ele>6</ele>
        <time>2023-09-03T09:18:18Z</time>
      </trkpt>
      <trkpt lat="49.45046" lon="0.43844">
        <ele>6</ele>
        <time>2023-09-03T09:18:19Z</time>
      </trkpt>
      <trkpt lat="49.45045" lon="0.4383">
        <ele>5.9</ele>
        <time>2023-09-03T09:18:20Z</time>
      </trkpt>
      <trkpt lat="49.45044" lon="0.43816">
        <ele>5.9</ele>
        <time>2023-09-03T09:18:21Z</time>
      </trkpt>
      <trkpt lat="49.45043" lon="0.43801">
        <ele>5.8</ele>
        <time>2023-09-03T09:18:22Z</time>
      </trkpt>
      <trkpt lat="49.45042" lon="0.43787">
        <ele>5.8</ele>
        <time>2023-09-03T09:18:23Z</time>
      </trkpt>
      <trkpt lat="49.45041" lon="0.43772">
        <ele>5.8</ele>
        <time>2023-09-03T09:18:24Z</time>
      </trkpt>
      <trkpt lat="49.4504" lon="0.43758">
        <ele>5.8</ele>
        <time>2023-09-03T09:18:25Z</time>
      </trkpt>
      <trkpt lat="49.45039" lon="0.43744">
        <ele>5.9</ele>
        <time>2023-09-03T09:18:26Z</time>
      </trkpt>
      <trkpt lat="49.45038" lon="0.4373">
        <ele>5.9</ele>
        <time>2023-09-03T09:18:27Z</time>
      </trkpt>
      <trkpt lat="49.45037" lon="0.43716">
        <ele>6</ele>
        <time>2023-09-03T09:18:28Z</time>
      </trkpt>
      <trkpt lat="49.45036" lon="0.43702">
        <ele>6</ele>
        <time>2023-09-03T09:18:29Z</time>
      </trkpt>
      <trkpt lat="49.45035" lon="0.43688">
        <ele>6</ele>
        <time>2023-09-03T09:18:30Z</time>
      </trkpt>
      <trkpt lat="49.45034" lon="0.43675">
        <ele>6</ele>
        <time>2023-09-03T09:18:31Z</time>
      </trkpt>
      <trkpt lat="49.45033" lon="0.43661">
        <ele>6</ele>
        <time>2023-09-03T09:18:32Z</time>
      </trkpt>
      <trkpt lat="49.45032" lon="0.43647">
        <ele>6</ele>
        <time>2023-09-03T09:18:33Z</time>
      </trkpt>
      <trkpt lat="49.45031" lon="0.43634">
        <ele>6</ele>
        <time>2023-09-03T09:18:34Z</time>
      </trkpt>
      <trkpt lat="49.4503" lon="0.4362">
        <ele>6</ele>
        <time>2023-09-03T09:18:35Z</time>
      </trkpt>
      <trkpt lat="49.45028" lon="0.43606">
        <ele>6</ele>
        <time>2023-09-03T09:18:36Z</time>
      </trkpt>
      <trkpt lat="49.45027" lon="0.43592">
        <ele>5.9</ele>
        <time>2023-09-03T09:18:37Z</time>
      </trkpt>
      <trkpt lat="49.45026" lon="0.43577">
        <ele>5.9</ele>
        <time>2023-09-03T09:18:38Z</time>
      </trkpt>
      <trkpt lat="49.45024" lon="0.43563">
        <ele>5.9</ele>
        <time>2023-09-03T09:18:39Z</time>
      </trkpt>
      <trkpt lat="49.45023" lon="0.43549">
        <ele>5.8</ele>
        <time>2023-09-03T09:18:40Z</time>
      </trkpt>
      <trkpt lat="49.45022" lon="0.43535">
        <ele>5.8</ele>
        <time>2023-09-03T09:18:41Z</time>
      </trkpt>
      <trkpt lat="49.45021" lon="0.4352">
        <ele>5.8</ele>
        <time>2023-09-03T09:18:42Z</time>
      </trkpt>
      <trkpt lat="49.4502" lon="0.43506">
        <ele>5.7</ele>
        <time>2023-09-03T09:18:43Z</time>
      </trkpt>
      <trkpt lat="49.45018" lon="0.43492">
        <ele>5.7</ele>
        <time>2023-09-03T09:18:44Z</time>
      </trkpt>
      <trkpt lat="49.45017" lon="0.43478">
        <ele>5.7</ele>
        <time>2023-09-03T09:18:45Z</time>
      </trkpt>
      <trkpt lat="49.45016" lon="0.43464">
        <ele>5.7</ele>
        <time>2023-09-03T09:18:46Z</time>
      </trkpt>
      <trkpt lat="49.45015" lon="0.4345">
        <ele>5.8</ele>
        <time>2023-09-03T09:18:47Z</time>
      </trkpt>
      <trkpt lat="49.45015" lon="0.43437">
        <ele>5.8</ele>
        <time>2023-09-03T09:18:48Z</time>
      </trkpt>
      <trkpt lat="49.45014" lon="0.43423">
        <ele>5.8</ele>
        <time>2023-09-03T09:18:49Z</time>
      </trkpt>
      <trkpt lat="49.45012" lon="0.43409">
        <ele>5.8</ele>
        <time>2023-09-03T09:18:50Z</time>
      </trkpt>
      <trkpt lat="49.45011" lon="0.43394">
        <ele>5.8</ele>
        <time>2023-09-03T09:18:51Z</time>
      </trkpt>
      <trkpt lat="49.4501" lon="0.4338">
        <ele>5.9</ele>
        <time>2023-09-03T09:18:52Z</time>
      </trkpt>
      <trkpt lat="49.45009" lon="0.43366">
        <ele>5.9</ele>
        <time>2023-09-03T09:18:53Z</time>
      </trkpt>
      <trkpt lat="49.45008" lon="0.43352">
        <ele>5.9</ele>
        <time>2023-09-03T09:18:54Z</time>
      </trkpt>
      <trkpt lat="49.45007" lon="0.43338">
        <ele>5.9</ele>
        <time>2023-09-03T09:18:55Z</time>
      </trkpt>
      <trkpt lat="49.45006" lon="0.43324">
        <ele>5.9</ele>
        <time>2023-09-03T09:18:56Z</time>
      </trkpt>
      <trkpt lat="49.45005" lon="0.4331">
        <ele>5.9</ele>
        <time>2023-09-03T09:18:57Z</time>
      </trkpt>
      <trkpt lat="49.45004" lon="0.43295">
        <ele>5.9</ele>
        <time>2023-09-03T09:18:58Z</time>
      </trkpt>
      <trkpt lat="49.45003" lon="0.43281">
        <ele>5.9</ele>
        <time>2023-09-03T09:18:59Z</time>
      </trkpt>
      <trkpt lat="49.45001" lon="0.43267">
        <ele>5.9</ele>
        <time>2023-09-03T09:19:00Z</time>
      </trkpt>
      <trkpt lat="49.45" lon="0.43253">
        <ele>5.9</ele>
        <time>2023-09-03T09:19:01Z</time>
      </trkpt>
      <trkpt lat="49.44999" lon="0.43239">
        <ele>5.9</ele>
        <time>2023-09-03T09:19:02Z</time>
      </trkpt>
      <trkpt lat="49.44998" lon="0.43224">
        <ele>5.9</ele>
        <time>2023-09-03T09:19:03Z</time>
      </trkpt>
      <trkpt lat="49.44996" lon="0.4321">
        <ele>5.9</ele>
        <time>2023-09-03T09:19:04Z</time>
      </trkpt>
      <trkpt lat="49.44995" lon="0.43196">
        <ele>6</ele>
        <time>2023-09-03T09:19:05Z</time>
      </trkpt>
      <trkpt lat="49.44994" lon="0.43182">
        <ele>6</ele>
        <time>2023-09-03T09:19:06Z</time>
      </trkpt>
      <trkpt lat="49.44992" lon="0.43167">
        <ele>6</ele>
        <time>2023-09-03T09:19:07Z</time>
      </trkpt>
      <trkpt lat="49.44991" lon="0.43153">
        <ele>6</ele>
        <time>2023-09-03T09:19:08Z</time>
      </trkpt>
      <trkpt lat="49.44989" lon="0.43139">
        <ele>6</ele>
        <time>2023-09-03T09:19:09Z</time>
      </trkpt>
      <trkpt lat="49.44987" lon="0.43126">
        <ele>6.1</ele>
        <time>2023-09-03T09:19:10Z</time>
      </trkpt>
      <trkpt lat="49.44985" lon="0.43112">
        <ele>6.1</ele>
        <time>2023-09-03T09:19:11Z</time>
      </trkpt>
      <trkpt lat="49.44983" lon="0.43098">
        <ele>6.1</ele>
        <time>2023-09-03T09:19:12Z</time>
      </trkpt>
      <trkpt lat="49.44981" lon="0.43084">
        <ele>6.1</ele>
        <time>2023-09-03T09:19:13Z</time>
      </trkpt>
      <trkpt lat="49.44978" lon="0.4307">
        <ele>6.1</ele>
        <time>2023-09-03T09:19:14Z</time>
      </trkpt>
      <trkpt lat="49.44976" lon="0.43056">
        <ele>6.1</ele>
        <time>2023-09-03T09:19:15Z</time>
      </trkpt>
      <trkpt lat="49.44974" lon="0.43042">
        <ele>6.1</ele>
        <time>2023-09-03T09:19:16Z</time>
      </trkpt>
      <trkpt lat="49.44971" lon="0.43028">
        <ele>6</ele>
        <time>2023-09-03T09:19:17Z</time>
      </trkpt>
      <trkpt lat="49.44968" lon="0.43014">
        <ele>6</ele>
        <time>2023-09-03T09:19:18Z</time>
      </trkpt>
      <trkpt lat="49.44965" lon="0.43">
        <ele>6</ele>
        <time>2023-09-03T09:19:19Z</time>
      </trkpt>
      <trkpt lat="49.44962" lon="0.42986">
        <ele>6</ele>
        <time>2023-09-03T09:19:20Z</time>
      </trkpt>
      <trkpt lat="49.44959" lon="0.42972">
        <ele>6</ele>
        <time>2023-09-03T09:19:21Z</time>
      </trkpt>
      <trkpt lat="49.44956" lon="0.42958">
        <ele>5.9</ele>
        <time>2023-09-03T09:19:22Z</time>
      </trkpt>
      <trkpt lat="49.44953" lon="0.42943">
        <ele>6</ele>
        <time>2023-09-03T09:19:23Z</time>
      </trkpt>
      <trkpt lat="49.44949" lon="0.42929">
        <ele>6</ele>
        <time>2023-09-03T09:19:24Z</time>
      </trkpt>
      <trkpt lat="49.44946" lon="0.42916">
        <ele>6</ele>
        <time>2023-09-03T09:19:25Z</time>
      </trkpt>
      <trkpt lat="49.44942" lon="0.42902">
        <ele>6</ele>
        <time>2023-09-03T09:19:26Z</time>
      </trkpt>
      <trkpt lat="49.44939" lon="0.42888">
        <ele>6</ele>
        <time>2023-09-03T09:19:27Z</time>
      </trkpt>
      <trkpt lat="49.44935" lon="0.42876">
        <ele>6</ele>
        <time>2023-09-03T09:19:28Z</time>
      </trkpt>
      <trkpt lat="49.44931" lon="0.42863">
        <ele>6</ele>
        <time>2023-09-03T09:19:29Z</time>
      </trkpt>
      <trkpt lat="49.44928" lon="0.42851">
        <ele>6</ele>
        <time>2023-09-03T09:19:30Z</time>
      </trkpt>
      <trkpt lat="49.44924" lon="0.4284">
        <ele>6</ele>
        <time>2023-09-03T09:19:31Z</time>
      </trkpt>
      <trkpt lat="49.44921" lon="0.42828">
        <ele>6</ele>
        <time>2023-09-03T09:19:32Z</time>
      </trkpt>
      <trkpt lat="49.44918" lon="0.42818">
        <ele>6</ele>
        <time>2023-09-03T09:19:33Z</time>
      </trkpt>
      <trkpt lat="49.44915" lon="0.42808">
        <ele>6</ele>
        <time>2023-09-03T09:19:34Z</time>
      </trkpt>
      <trkpt lat="49.44912" lon="0.428">
        <ele>6</ele>
        <time>2023-09-03T09:19:35Z</time>
      </trkpt>
      <trkpt lat="49.4491" lon="0.42793">
        <ele>6</ele>
        <time>2023-09-03T09:19:36Z</time>
      </trkpt>
      <trkpt lat="49.44908" lon="0.42787">
        <ele>6</ele>
        <time>2023-09-03T09:19:37Z</time>
      </trkpt>
      <trkpt lat="49.44906" lon="0.42782">
        <ele>6</ele>
        <time>2023-09-03T09:19:38Z</time>
      </trkpt>
      <trkpt lat="49.44905" lon="0.42778">
        <ele>6</ele>
        <time>2023-09-03T09:19:39Z</time>
      </trkpt>
      <trkpt lat="49.44904" lon="0.42774">
        <ele>6</ele>
        <time>2023-09-03T09:19:40Z</time>
      </trkpt>
      <trkpt lat="49.44903" lon="0.4277">
        <ele>6</ele>
        <time>2023-09-03T09:19:41Z</time>
      </trkpt>
      <trkpt lat="49.44903" lon="0.42768">
        <ele>6</ele>
        <time>2023-09-03T09:19:42Z</time>
      </trkpt>
      <trkpt lat="49.44903" lon="0.42767">
        <ele>6</ele>
        <time>2023-09-03T09:19:43Z</time>
      </trkpt>
      <trkpt lat="49.44903" lon="0.42767">
        <ele>6</ele>
        <time>2023-09-03T09:19:44Z</time>
      </trkpt>
      <trkpt lat="49.44902" lon="0.42768">
        <ele>6</ele>
        <time>2023-09-03T09:19:45Z</time>
      </trkpt>
      <trkpt lat="49.44902" lon="0.42769">
        <ele>6</ele>
        <time>2023-09-03T09:19:46Z</time>
      </trkpt>
      <trkpt lat="49.44902" lon="0.42769">
        <ele>6</ele>
        <time>2023-09-03T09:19:47Z</time>
      </trkpt>
      <trkpt lat="49.44902" lon="0.42769">
        <ele>6</ele>
        <time>2023-09-03T09:19:48Z</time>
      </trkpt>
      <trkpt lat="49.44902" lon="0.42769">
        <ele>6</ele>
        <time>2023-09-03T09:19:49Z</time>
      </trkpt>
      <trkpt lat="49.44902" lon="0.42769">
        <ele>6</ele>
        <time>2023-09-03T09:19:50Z</time>
      </trkpt>
      <trkpt lat="49.44902" lon="0.42769">
        <ele>6</ele>
        <time>2023-09-03T09:19:51Z</time>
      </trkpt>
      <trkpt lat="49.44902" lon="0.42769">
        <ele>6</ele>
        <time>2023-09-03T09:19:52Z</time>
      </trkpt>
      <trkpt lat="49.44902" lon="0.42769">
        <ele>6</ele>
        <time>2023-09-03T09:19:53Z</time>
      </trkpt>
      <trkpt lat="49.44902" lon="0.42769">
        <ele>6</ele>
        <time>2023-09-03T09:19:54Z</time>
      </trkpt>
      <trkpt lat="49.44905" lon="0.42773">
        <ele>6</ele>
        <time>2023-09-03T09:20:12Z</time>
      </trkpt>
      <trkpt lat="49.44905" lon="0.42775">
        <ele>6</ele>
        <time>2023-09-03T09:20:13Z</time>
      </trkpt>
      <trkpt lat="49.44905" lon="0.42776">
        <ele>6</ele>
        <time>2023-09-03T09:20:14Z</time>
      </trkpt>
      <trkpt lat="49.44906" lon="0.42778">
        <ele>6</ele>
        <time>2023-09-03T09:20:15Z</time>
      </trkpt>
      <trkpt lat="49.44906" lon="0.42777">
        <ele>6</ele>
        <time>2023-09-03T09:20:16Z</time>
      </trkpt>
      <trkpt lat="49.44905" lon="0.42776">
        <ele>6</ele>
        <time>2023-09-03T09:20:17Z</time>
      </trkpt>
      <trkpt lat="49.44905" lon="0.42775">
        <ele>6</ele>
        <time>2023-09-03T09:20:18Z</time>
      </trkpt>
      <trkpt lat="49.44905" lon="0.42774">
        <ele>6</ele>
        <time>2023-09-03T09:20:19Z</time>
      </trkpt>
      <trkpt lat="49.44904" lon="0.42772">
        <ele>6</ele>
        <time>2023-09-03T09:20:20Z</time>
      </trkpt>
      <trkpt lat="49.44904" lon="0.4277">
        <ele>6</ele>
        <time>2023-09-03T09:20:21Z</time>
      </trkpt>
      <trkpt lat="49.44904" lon="0.42769">
        <ele>6</ele>
        <time>2023-09-03T09:20:22Z</time>
      </trkpt>
      <trkpt lat="49.44903" lon="0.42767">
        <ele>6</ele>
        <time>2023-09-03T09:20:23Z</time>
      </trkpt>
      <trkpt lat="49.44904" lon="0.42768">
        <ele>6</ele>
        <time>2023-09-03T09:20:24Z</time>
      </trkpt>
      <trkpt lat="49.44904" lon="0.42768">
        <ele>6</ele>
        <time>2023-09-03T09:20:25Z</time>
      </trkpt>
      <trkpt lat="49.44904" lon="0.42769">
        <ele>6</ele>
        <time>2023-09-03T09:20:26Z</time>
      </trkpt>
      <trkpt lat="49.44904" lon="0.4277">
        <ele>6</ele>
        <time>2023-09-03T09:20:27Z</time>
      </trkpt>
      <trkpt lat="49.44905" lon="0.42771">
        <ele>6</ele>
        <time>2023-09-03T09:20:28Z</time>
      </trkpt>
      <trkpt lat="49.44905" lon="0.42772">
        <ele>6</ele>
        <time>2023-09-03T09:20:29Z</time>
      </trkpt>
      <trkpt lat="49.44905" lon="0.42773">
        <ele>6</ele>
        <time>2023-09-03T09:20:30Z</time>
      </trkpt>
      <trkpt lat="49.44905" lon="0.42774">
        <ele>6</ele>
        <time>2023-09-03T09:20:31Z</time>
      </trkpt>
      <trkpt lat="49.44906" lon="0.42778">
        <ele>6</ele>
        <time>2023-09-03T09:20:32Z</time>
      </trkpt>
      <trkpt lat="49.44907" lon="0.4278">
        <ele>6</ele>
        <time>2023-09-03T09:20:33Z</time>
      </trkpt>
      <trkpt lat="49.44908" lon="0.42784">
        <ele>6</ele>
        <time>2023-09-03T09:20:34Z</time>
      </trkpt>
      <trkpt lat="49.44909" lon="0.42788">
        <ele>6</ele>
        <time>2023-09-03T09:20:35Z</time>
      </trkpt>
      <trkpt lat="49.44911" lon="0.42792">
        <ele>6</ele>
        <time>2023-09-03T09:20:36Z</time>
      </trkpt>
      <trkpt lat="49.44912" lon="0.42797">
        <ele>6</ele>
        <time>2023-09-03T09:20:37Z</time>
      </trkpt>
      <trkpt lat="49.44914" lon="0.42802">
        <ele>6</ele>
        <time>2023-09-03T09:20:38Z</time>
      </trkpt>
      <trkpt lat="49.44916" lon="0.42807">
        <ele>6</ele>
        <time>2023-09-03T09:20:39Z</time>
      </trkpt>
      <trkpt lat="49.44917" lon="0.42811">
        <ele>6</ele>
        <time>2023-09-03T09:20:40Z</time>
      </trkpt>
      <trkpt lat="49.44919" lon="0.42815">
        <ele>5.9</ele>
        <time>2023-09-03T09:20:41Z</time>
      </trkpt>
      <trkpt lat="49.4492" lon="0.42815">
        <ele>5.9</ele>
        <time>2023-09-03T09:20:42Z</time>
      </trkpt>
      <trkpt lat="49.44921" lon="0.42815">
        <ele>5.9</ele>
        <time>2023-09-03T09:20:43Z</time>
      </trkpt>
      <trkpt lat="49.44921" lon="0.42814">
        <ele>5.9</ele>
        <time>2023-09-03T09:20:44Z</time>
      </trkpt>
      <trkpt lat="49.44921" lon="0.42814">
        <ele>5.9</ele>
        <time>2023-09-03T09:20:45Z</time>
      </trkpt>
      <trkpt lat="49.44921" lon="0.42813">
        <ele>5.9</ele>
        <time>2023-09-03T09:20:46Z</time>
      </trkpt>
      <trkpt lat="49.44921" lon="0.42814">
        <ele>5.9</ele>
        <time>2023-09-03T09:20:47Z</time>
      </trkpt>
      <trkpt lat="49.44921" lon="0.42815">
        <ele>5.9</ele>
        <time>2023-09-03T09:20:48Z</time>
      </trkpt>
      <trkpt lat="49.44922" lon="0.42817">
        <ele>5.9</ele>
        <time>2023-09-03T09:20:49Z</time>
      </trkpt>
      <trkpt lat="49.44922" lon="0.42817">
        <ele>5.9</ele>
        <time>2023-09-03T09:20:50Z</time>
      </trkpt>
      <trkpt lat="49.44922" lon="0.42817">
        <ele>5.9</ele>
        <time>2023-09-03T09:20:51Z</time>
      </trkpt>
      <trkpt lat="49.44923" lon="0.42817">
        <ele>5.9</ele>
        <time>2023-09-03T09:20:52Z</time>
      </trkpt>
      <trkpt lat="49.44923" lon="0.42817">
        <ele>5.9</ele>
        <time>2023-09-03T09:20:53Z</time>
      </trkpt>
      <trkpt lat="49.44923" lon="0.42817">
        <ele>5.9</ele>
        <time>2023-09-03T09:20:54Z</time>
      </trkpt>
      <trkpt lat="49.44923" lon="0.42817">
        <ele>5.9</ele>
        <time>2023-09-03T09:20:55Z</time>
      </trkpt>
      <trkpt lat="49.44923" lon="0.42817">
        <ele>5.9</ele>
        <time>2023-09-03T09:20:56Z</time>
      </trkpt>
      <trkpt lat="49.44923" lon="0.42817">
        <ele>5.9</ele>
        <time>2023-09-03T09:20:57Z</time>
      </trkpt>
      <trkpt lat="49.44923" lon="0.42817">
        <ele>5.9</ele>
        <time>2023-09-03T09:20:58Z</time>
      </trkpt>
      <trkpt lat="49.44923" lon="0.42817">
        <ele>5.9</ele>
        <time>2023-09-03T09:20:59Z</time>
      </trkpt>
      <trkpt lat="49.44923" lon="0.42817">
        <ele>5.9</ele>
        <time>2023-09-03T09:21:00Z</time>
      </trkpt>
      <trkpt lat="49.44925" lon="0.42818">
        <ele>5.9</ele>
        <time>2023-09-03T09:33:29Z</time>
      </trkpt>
      <trkpt lat="49.44926" lon="0.42818">
        <ele>5.9</ele>
        <time>2023-09-03T09:33:30Z</time>
      </trkpt>
      <trkpt lat="49.44926" lon="0.42817">
        <ele>5.9</ele>
        <time>2023-09-03T09:33:31Z</time>
      </trkpt>
      <trkpt lat="49.44926" lon="0.42817">
        <ele>5.9</ele>
        <time>2023-09-03T09:33:32Z</time>
      </trkpt>
      <trkpt lat="49.44926" lon="0.42817">
        <ele>5.9</ele>
        <time>2023-09-03T09:33:33Z</time>
      </trkpt>
      <trkpt lat="49.44925" lon="0.42817">
        <ele>5.9</ele>
        <time>2023-09-03T09:33:34Z</time>
      </trkpt>
      <trkpt lat="49.44925" lon="0.42817">
        <ele>5.9</ele>
        <time>2023-09-03T09:33:35Z</time>
      </trkpt>
      <trkpt lat="49.44925" lon="0.42817">
        <ele>5.9</ele>
        <time>2023-09-03T09:33:36Z</time>
      </trkpt>
      <trkpt lat="49.44925" lon="0.42817">
        <ele>5.9</ele>
        <time>2023-09-03T09:33:37Z</time>
      </trkpt>
      <trkpt lat="49.44925" lon="0.42817">
        <ele>5.9</ele>
        <time>2023-09-03T09:33:38Z</time>
      </trkpt>
      <trkpt lat="49.44925" lon="0.42817">
        <ele>5.9</ele>
        <time>2023-09-03T09:33:39Z</time>
      </trkpt>
      <trkpt lat="49.44925" lon="0.42817">
        <ele>5.9</ele>
        <time>2023-09-03T09:33:40Z</time>
      </trkpt>
      <trkpt lat="49.44925" lon="0.42817">
        <ele>5.9</ele>
        <time>2023-09-03T09:33:41Z</time>
      </trkpt>
      <trkpt lat="49.44925" lon="0.42817">
        <ele>5.9</ele>
        <time>2023-09-03T09:33:42Z</time>
      </trkpt>
      <trkpt lat="49.44922" lon="0.42813">
        <ele>5.9</ele>
        <time>2023-09-03T09:34:22Z</time>
      </trkpt>
      <trkpt lat="49.44922" lon="0.42813">
        <ele>5.9</ele>
        <time>2023-09-03T09:34:23Z</time>
      </trkpt>
      <trkpt lat="49.44922" lon="0.42813">
        <ele>5.9</ele>
        <time>2023-09-03T09:34:24Z</time>
      </trkpt>
      <trkpt lat="49.44922" lon="0.42813">
        <ele>5.9</ele>
        <time>2023-09-03T09:34:25Z</time>
      </trkpt>
      <trkpt lat="49.44922" lon="0.42812">
        <ele>5.9</ele>
        <time>2023-09-03T09:34:26Z</time>
      </trkpt>
      <trkpt lat="49.44921" lon="0.42811">
        <ele>5.9</ele>
        <time>2023-09-03T09:34:27Z</time>
      </trkpt>
      <trkpt lat="49.4492" lon="0.42809">
        <ele>5.9</ele>
        <time>2023-09-03T09:34:28Z</time>
      </trkpt>
      <trkpt lat="49.44918" lon="0.42805">
        <ele>5.9</ele>
        <time>2023-09-03T09:34:29Z</time>
      </trkpt>
      <trkpt lat="49.44917" lon="0.42804">
        <ele>5.9</ele>
        <time>2023-09-03T09:34:30Z</time>
      </trkpt>
      <trkpt lat="49.44915" lon="0.42799">
        <ele>5.9</ele>
        <time>2023-09-03T09:34:31Z</time>
      </trkpt>
      <trkpt lat="49.44913" lon="0.42794">
        <ele>5.9</ele>
        <time>2023-09-03T09:34:32Z</time>
      </trkpt>
      <trkpt lat="49.44912" lon="0.42789">
        <ele>5.9</ele>
        <time>2023-09-03T09:34:33Z</time>
      </trkpt>
      <trkpt lat="49.44909" lon="0.42783">
        <ele>5.9</ele>
        <time>2023-09-03T09:34:34Z</time>
      </trkpt>
      <trkpt lat="49.44906" lon="0.42777">
        <ele>5.9</ele>
        <time>2023-09-03T09:34:35Z</time>
      </trkpt>
      <trkpt lat="49.44904" lon="0.42771">
        <ele>5.9</ele>
        <time>2023-09-03T09:34:36Z</time>
      </trkpt>
      <trkpt lat="49.44902" lon="0.42766">
        <ele>5.9</ele>
        <time>2023-09-03T09:34:37Z</time>
      </trkpt>
      <trkpt lat="49.44899" lon="0.42761">
        <ele>5.9</ele>
        <time>2023-09-03T09:34:38Z</time>
      </trkpt>
      <trkpt lat="49.44898" lon="0.42756">
        <ele>5.9</ele>
        <time>2023-09-03T09:34:39Z</time>
      </trkpt>
      <trkpt lat="49.44896" lon="0.42751">
        <ele>5.9</ele>
        <time>2023-09-03T09:34:40Z</time>
      </trkpt>
      <trkpt lat="49.44895" lon="0.42746">
        <ele>5.9</ele>
        <time>2023-09-03T09:34:41Z</time>
      </trkpt>
      <trkpt lat="49.44892" lon="0.4274">
        <ele>5.9</ele>
        <time>2023-09-03T09:34:42Z</time>
      </trkpt>
      <trkpt lat="49.4489" lon="0.42734">
        <ele>5.9</ele>
        <time>2023-09-03T09:34:43Z</time>
      </trkpt>
      <trkpt lat="49.44887" lon="0.42728">
        <ele>6</ele>
        <time>2023-09-03T09:34:44Z</time>
      </trkpt>
      <trkpt lat="49.44885" lon="0.42721">
        <ele>6</ele>
        <time>2023-09-03T09:34:45Z</time>
      </trkpt>
      <trkpt lat="49.44882" lon="0.42714">
        <ele>6</ele>
        <time>2023-09-03T09:34:46Z</time>
      </trkpt>
      <trkpt lat="49.44879" lon="0.42707">
        <ele>6</ele>
        <time>2023-09-03T09:34:47Z</time>
      </trkpt>
      <trkpt lat="49.44875" lon="0.427">
        <ele>6</ele>
        <time>2023-09-03T09:34:48Z</time>
      </trkpt>
      <trkpt lat="49.44872" lon="0.42692">
        <ele>6</ele>
        <time>2023-09-03T09:34:49Z</time>
      </trkpt>
      <trkpt lat="49.44868" lon="0.42683">
        <ele>6</ele>
        <time>2023-09-03T09:34:50Z</time>
      </trkpt>
      <trkpt lat="49.44864" lon="0.42675">
        <ele>6</ele>
        <time>2023-09-03T09:34:51Z</time>
      </trkpt>
      <trkpt lat="49.4486" lon="0.42667">
        <ele>5.9</ele>
        <time>2023-09-03T09:34:52Z</time>
      </trkpt>
      <trkpt lat="49.44856" lon="0.42658">
        <ele>5.9</ele>
        <time>2023-09-03T09:34:53Z</time>
      </trkpt>
      <trkpt lat="49.44852" lon="0.4265">
        <ele>5.9</ele>
        <time>2023-09-03T09:34:54Z</time>
      </trkpt>
      <trkpt lat="49.44849" lon="0.42642">
        <ele>5.9</ele>
        <time>2023-09-03T09:34:55Z</time>
      </trkpt>
      <trkpt lat="49.44844" lon="0.42633">
        <ele>5.9</ele>
        <time>2023-09-03T09:34:56Z</time>
      </trkpt>
      <trkpt lat="49.4484" lon="0.42625">
        <ele>5.9</ele>
        <time>2023-09-03T09:34:57Z</time>
      </trkpt>
      <trkpt lat="49.44836" lon="0.42616">
        <ele>5.9</ele>
        <time>2023-09-03T09:34:58Z</time>
      </trkpt>
      <trkpt lat="49.44831" lon="0.42608">
        <ele>5.9</ele>
        <time>2023-09-03T09:34:59Z</time>
      </trkpt>
      <trkpt lat="49.44826" lon="0.426">
        <ele>5.9</ele>
        <time>2023-09-03T09:35:00Z</time>
      </trkpt>
      <trkpt lat="49.44822" lon="0.42591">
        <ele>5.9</ele>
        <time>2023-09-03T09:35:01Z</time>
      </trkpt>
      <trkpt lat="49.44817" lon="0.42583">
        <ele>5.9</ele>
        <time>2023-09-03T09:35:02Z</time>
      </trkpt>
      <trkpt lat="49.44812" lon="0.42574">
        <ele>6</ele>
        <time>2023-09-03T09:35:03Z</time>
      </trkpt>
      <trkpt lat="49.44807" lon="0.42566">
        <ele>6</ele>
        <time>2023-09-03T09:35:04Z</time>
      </trkpt>
      <trkpt lat="49.44802" lon="0.42558">
        <ele>6</ele>
        <time>2023-09-03T09:35:05Z</time>
      </trkpt>
      <trkpt lat="49.44797" lon="0.42551">
        <ele>6</ele>
        <time>2023-09-03T09:35:06Z</time>
      </trkpt>
      <trkpt lat="49.44792" lon="0.42543">
        <ele>6.1</ele>
        <time>2023-09-03T09:35:07Z</time>
      </trkpt>
      <trkpt lat="49.44786" lon="0.42535">
        <ele>6</ele>
        <time>2023-09-03T09:35:08Z</time>
      </trkpt>
      <trkpt lat="49.44781" lon="0.42527">
        <ele>6</ele>
        <time>2023-09-03T09:35:09Z</time>
      </trkpt>
      <trkpt lat="49.44776" lon="0.4252">
        <ele>6</ele>
        <time>2023-09-03T09:35:10Z</time>
      </trkpt>
      <trkpt lat="49.44771" lon="0.42512">
        <ele>6</ele>
        <time>2023-09-03T09:35:11Z</time>
      </trkpt>
      <trkpt lat="49.44766" lon="0.42504">
        <ele>6</ele>
        <time>2023-09-03T09:35:12Z</time>
      </trkpt>
      <trkpt lat="49.44761" lon="0.42496">
        <ele>6</ele>
        <time>2023-09-03T09:35:13Z</time>
      </trkpt>
      <trkpt lat="49.44755" lon="0.42489">
        <ele>6</ele>
        <time>2023-09-03T09:35:14Z</time>
      </trkpt>
      <trkpt lat="49.4475" lon="0.42482">
        <ele>6</ele>
        <time>2023-09-03T09:35:15Z</time>
      </trkpt>
      <trkpt lat="49.44745" lon="0.42474">
        <ele>6</ele>
        <time>2023-09-03T09:35:16Z</time>
      </trkpt>
      <trkpt lat="49.4474" lon="0.42467">
        <ele>6</ele>
        <time>2023-09-03T09:35:17Z</time>
      </trkpt>
      <trkpt lat="49.44735" lon="0.4246">
        <ele>5.9</ele>
        <time>2023-09-03T09:35:18Z</time>
      </trkpt>
      <trkpt lat="49.44729" lon="0.42453">
        <ele>5.9</ele>
        <time>2023-09-03T09:35:19Z</time>
      </trkpt>
      <trkpt lat="49.44725" lon="0.42447">
        <ele>5.9</ele>
        <time>2023-09-03T09:35:20Z</time>
      </trkpt>
      <trkpt lat="49.4472" lon="0.4244">
        <ele>5.9</ele>
        <time>2023-09-03T09:35:21Z</time>
      </trkpt>
      <trkpt lat="49.44715" lon="0.42434">
        <ele>5.9</ele>
        <time>2023-09-03T09:35:22Z</time>
      </trkpt>
      <trkpt lat="49.4471" lon="0.42428">
        <ele>5.9</ele>
        <time>2023-09-03T09:35:23Z</time>
      </trkpt>
      <trkpt lat="49.44705" lon="0.42423">
        <ele>5.9</ele>
        <time>2023-09-03T09:35:24Z</time>
      </trkpt>
      <trkpt lat="49.447" lon="0.42417">
        <ele>5.9</ele>
        <time>2023-09-03T09:35:25Z</time>
      </trkpt>
      <trkpt lat="49.44696" lon="0.42412">
        <ele>5.9</ele>
        <time>2023-09-03T09:35:26Z</time>
      </trkpt>
      <trkpt lat="49.44693" lon="0.42408">
        <ele>5.9</ele>
        <time>2023-09-03T09:35:27Z</time>
      </trkpt>
      <trkpt lat="49.4469" lon="0.42404">
        <ele>5.9</ele>
        <time>2023-09-03T09:35:28Z</time>
      </trkpt>
      <trkpt lat="49.44687" lon="0.424">
        <ele>5.9</ele>
        <time>2023-09-03T09:35:29Z</time>
      </trkpt>
      <trkpt lat="49.44684" lon="0.42397">
        <ele>5.9</ele>
        <time>2023-09-03T09:35:30Z</time>
      </trkpt>
      <trkpt lat="49.4468" lon="0.42393">
        <ele>5.9</ele>
        <time>2023-09-03T09:35:31Z</time>
      </trkpt>
      <trkpt lat="49.44677" lon="0.42389">
        <ele>5.9</ele>
        <time>2023-09-03T09:35:32Z</time>
      </trkpt>
      <trkpt lat="49.44673" lon="0.42386">
        <ele>5.9</ele>
        <time>2023-09-03T09:35:33Z</time>
      </trkpt>
      <trkpt lat="49.44669" lon="0.42382">
        <ele>5.9</ele>
        <time>2023-09-03T09:35:34Z</time>
      </trkpt>
      <trkpt lat="49.44665" lon="0.42378">
        <ele>6</ele>
        <time>2023-09-03T09:35:35Z</time>
      </trkpt>
      <trkpt lat="49.44661" lon="0.42374">
        <ele>6</ele>
        <time>2023-09-03T09:35:36Z</time>
      </trkpt>
      <trkpt lat="49.44657" lon="0.42369">
        <ele>6</ele>
        <time>2023-09-03T09:35:37Z</time>
      </trkpt>
      <trkpt lat="49.44652" lon="0.42365">
        <ele>6</ele>
        <time>2023-09-03T09:35:38Z</time>
      </trkpt>
      <trkpt lat="49.44648" lon="0.42361">
        <ele>6</ele>
        <time>2023-09-03T09:35:39Z</time>
      </trkpt>
      <trkpt lat="49.44645" lon="0.42356">
        <ele>6</ele>
        <time>2023-09-03T09:35:40Z</time>
      </trkpt>
      <trkpt lat="49.44641" lon="0.42351">
        <ele>6.1</ele>
        <time>2023-09-03T09:35:41Z</time>
      </trkpt>
      <trkpt lat="49.44636" lon="0.42347">
        <ele>6.1</ele>
        <time>2023-09-03T09:35:42Z</time>
      </trkpt>
      <trkpt lat="49.44631" lon="0.42343">
        <ele>6.1</ele>
        <time>2023-09-03T09:35:43Z</time>
      </trkpt>
      <trkpt lat="49.44627" lon="0.42339">
        <ele>6.1</ele>
        <time>2023-09-03T09:35:44Z</time>
      </trkpt>
      <trkpt lat="49.44623" lon="0.42334">
        <ele>6.1</ele>
        <time>2023-09-03T09:35:45Z</time>
      </trkpt>
      <trkpt lat="49.44619" lon="0.42329">
        <ele>6.1</ele>
        <time>2023-09-03T09:35:46Z</time>
      </trkpt>
      <trkpt lat="49.44614" lon="0.42325">
        <ele>6.1</ele>
        <time>2023-09-03T09:35:47Z</time>
      </trkpt>
      <trkpt lat="49.4461" lon="0.42321">
        <ele>6.1</ele>
        <time>2023-09-03T09:35:48Z</time>
      </trkpt>
      <trkpt lat="49.44605" lon="0.42318">
        <ele>6.1</ele>
        <time>2023-09-03T09:35:49Z</time>
      </trkpt>
      <trkpt lat="49.446" lon="0.42314">
        <ele>6.1</ele>
        <time>2023-09-03T09:35:50Z</time>
      </trkpt>
      <trkpt lat="49.44596" lon="0.42309">
        <ele>6.1</ele>
        <time>2023-09-03T09:35:51Z</time>
      </trkpt>
      <trkpt lat="49.44592" lon="0.42305">
        <ele>6.1</ele>
        <time>2023-09-03T09:35:52Z</time>
      </trkpt>
      <trkpt lat="49.44587" lon="0.42301">
        <ele>6.1</ele>
        <time>2023-09-03T09:35:53Z</time>
      </trkpt>
      <trkpt lat="49.44583" lon="0.42298">
        <ele>6.1</ele>
        <time>2023-09-03T09:35:54Z</time>
      </trkpt>
      <trkpt lat="49.44579" lon="0.42294">
        <ele>6.1</ele>
        <time>2023-09-03T09:35:55Z</time>
      </trkpt>
      <trkpt lat="49.44574" lon="0.4229">
        <ele>6.1</ele>
        <time>2023-09-03T09:35:56Z</time>
      </trkpt>
      <trkpt lat="49.44569" lon="0.42286">
        <ele>6.1</ele>
        <time>2023-09-03T09:35:57Z</time>
      </trkpt>
      <trkpt lat="49.44564" lon="0.42282">
        <ele>6.1</ele>
        <time>2023-09-03T09:35:58Z</time>
      </trkpt>
      <trkpt lat="49.44559" lon="0.42278">
        <ele>6.1</ele>
        <time>2023-09-03T09:35:59Z</time>
      </trkpt>
      <trkpt lat="49.44554" lon="0.42274">
        <ele>6.1</ele>
        <time>2023-09-03T09:36:00Z</time>
      </trkpt>
      <trkpt lat="49.44549" lon="0.42269">
        <ele>6.1</ele>
        <time>2023-09-03T09:36:01Z</time>
      </trkpt>
      <trkpt lat="49.44544" lon="0.42265">
        <ele>6.1</ele>
        <time>2023-09-03T09:36:02Z</time>
      </trkpt>
      <trkpt lat="49.44539" lon="0.42262">
        <ele>6.1</ele>
        <time>2023-09-03T09:36:03Z</time>
      </trkpt>
      <trkpt lat="49.44534" lon="0.42258">
        <ele>6.1</ele>
        <time>2023-09-03T09:36:04Z</time>
      </trkpt>
      <trkpt lat="49.44529" lon="0.42255">
        <ele>6.1</ele>
        <time>2023-09-03T09:36:05Z</time>
      </trkpt>
      <trkpt lat="49.44524" lon="0.42251">
        <ele>6.1</ele>
        <time>2023-09-03T09:36:06Z</time>
      </trkpt>
      <trkpt lat="49.44519" lon="0.42248">
        <ele>6.1</ele>
        <time>2023-09-03T09:36:07Z</time>
      </trkpt>
      <trkpt lat="49.44514" lon="0.42244">
        <ele>6.1</ele>
        <time>2023-09-03T09:36:08Z</time>
      </trkpt>
      <trkpt lat="49.44508" lon="0.42241">
        <ele>6.1</ele>
        <time>2023-09-03T09:36:09Z</time>
      </trkpt>
      <trkpt lat="49.44502" lon="0.42238">
        <ele>6.1</ele>
        <time>2023-09-03T09:36:10Z</time>
      </trkpt>
      <trkpt lat="49.44497" lon="0.42234">
        <ele>6.1</ele>
        <time>2023-09-03T09:36:11Z</time>
      </trkpt>
      <trkpt lat="49.44491" lon="0.42231">
        <ele>6.1</ele>
        <time>2023-09-03T09:36:12Z</time>
      </trkpt>
      <trkpt lat="49.44486" lon="0.42227">
        <ele>6.1</ele>
        <time>2023-09-03T09:36:13Z</time>
      </trkpt>
      <trkpt lat="49.44481" lon="0.42224">
        <ele>6.1</ele>
        <time>2023-09-03T09:36:14Z</time>
      </trkpt>
      <trkpt lat="49.44475" lon="0.42221">
        <ele>6.1</ele>
        <time>2023-09-03T09:36:15Z</time>
      </trkpt>
      <trkpt lat="49.4447" lon="0.42218">
        <ele>6.1</ele>
        <time>2023-09-03T09:36:16Z</time>
      </trkpt>
      <trkpt lat="49.44465" lon="0.42215">
        <ele>6.1</ele>
        <time>2023-09-03T09:36:17Z</time>
      </trkpt>
      <trkpt lat="49.44459" lon="0.42212">
        <ele>6.1</ele>
        <time>2023-09-03T09:36:18Z</time>
      </trkpt>
      <trkpt lat="49.44454" lon="0.42209">
        <ele>6.1</ele>
        <time>2023-09-03T09:36:19Z</time>
      </trkpt>
      <trkpt lat="49.44448" lon="0.42206">
        <ele>6.1</ele>
        <time>2023-09-03T09:36:20Z</time>
      </trkpt>
      <trkpt lat="49.44442" lon="0.42203">
        <ele>6.1</ele>
        <time>2023-09-03T09:36:21Z</time>
      </trkpt>
      <trkpt lat="49.44436" lon="0.422">
        <ele>6.1</ele>
        <time>2023-09-03T09:36:22Z</time>
      </trkpt>
      <trkpt lat="49.4443" lon="0.42197">
        <ele>6.1</ele>
        <time>2023-09-03T09:36:23Z</time>
      </trkpt>
      <trkpt lat="49.44424" lon="0.42194">
        <ele>6</ele>
        <time>2023-09-03T09:36:24Z</time>
      </trkpt>
      <trkpt lat="49.44419" lon="0.42192">
        <ele>6</ele>
        <time>2023-09-03T09:36:25Z</time>
      </trkpt>
      <trkpt lat="49.44413" lon="0.42189">
        <ele>6</ele>
        <time>2023-09-03T09:36:26Z</time>
      </trkpt>
      <trkpt lat="49.44408" lon="0.42187">
        <ele>6</ele>
        <time>2023-09-03T09:36:27Z</time>
      </trkpt>
      <trkpt lat="49.44401" lon="0.42184">
        <ele>6</ele>
        <time>2023-09-03T09:36:28Z</time>
      </trkpt>
      <trkpt lat="49.44395" lon="0.42182">
        <ele>6.1</ele>
        <time>2023-09-03T09:36:29Z</time>
      </trkpt>
      <trkpt lat="49.44389" lon="0.4218">
        <ele>6.1</ele>
        <time>2023-09-03T09:36:30Z</time>
      </trkpt>
      <trkpt lat="49.44383" lon="0.42178">
        <ele>6</ele>
        <time>2023-09-03T09:36:31Z</time>
      </trkpt>
      <trkpt lat="49.44377" lon="0.42176">
        <ele>6</ele>
        <time>2023-09-03T09:36:32Z</time>
      </trkpt>
      <trkpt lat="49.44371" lon="0.42174">
        <ele>6</ele>
        <time>2023-09-03T09:36:33Z</time>
      </trkpt>
      <trkpt lat="49.44365" lon="0.42172">
        <ele>6</ele>
        <time>2023-09-03T09:36:34Z</time>
      </trkpt>
      <trkpt lat="49.44359" lon="0.4217">
        <ele>6.1</ele>
        <time>2023-09-03T09:36:35Z</time>
      </trkpt>
      <trkpt lat="49.44353" lon="0.42169">
        <ele>6.1</ele>
        <time>2023-09-03T09:36:36Z</time>
      </trkpt>
      <trkpt lat="49.44347" lon="0.42167">
        <ele>6.1</ele>
        <time>2023-09-03T09:36:37Z</time>
      </trkpt>
      <trkpt lat="49.44341" lon="0.42165">
        <ele>6.1</ele>
        <time>2023-09-03T09:36:38Z</time>
      </trkpt>
      <trkpt lat="49.44334" lon="0.42163">
        <ele>6.1</ele>
        <time>2023-09-03T09:36:39Z</time>
      </trkpt>
      <trkpt lat="49.44328" lon="0.42161">
        <ele>6.1</ele>
        <time>2023-09-03T09:36:40Z</time>
      </trkpt>
      <trkpt lat="49.44322" lon="0.4216">
        <ele>6.1</ele>
        <time>2023-09-03T09:36:41Z</time>
      </trkpt>
      <trkpt lat="49.44316" lon="0.42158">
        <ele>6.1</ele>
        <time>2023-09-03T09:36:42Z</time>
      </trkpt>
      <trkpt lat="49.4431" lon="0.42157">
        <ele>6.1</ele>
        <time>2023-09-03T09:36:43Z</time>
      </trkpt>
      <trkpt lat="49.44304" lon="0.42155">
        <ele>6.1</ele>
        <time>2023-09-03T09:36:44Z</time>
      </trkpt>
      <trkpt lat="49.44298" lon="0.42154">
        <ele>6.1</ele>
        <time>2023-09-03T09:36:45Z</time>
      </trkpt>
      <trkpt lat="49.44291" lon="0.42154">
        <ele>6</ele>
        <time>2023-09-03T09:36:46Z</time>
      </trkpt>
      <trkpt lat="49.44285" lon="0.42153">
        <ele>6</ele>
        <time>2023-09-03T09:36:47Z</time>
      </trkpt>
      <trkpt lat="49.44279" lon="0.42152">
        <ele>6</ele>
        <time>2023-09-03T09:36:48Z</time>
      </trkpt>
      <trkpt lat="49.44273" lon="0.42152">
        <ele>6</ele>
        <time>2023-09-03T09:36:49Z</time>
      </trkpt>
      <trkpt lat="49.44266" lon="0.42151">
        <ele>6</ele>
        <time>2023-09-03T09:36:50Z</time>
      </trkpt>
      <trkpt lat="49.4426" lon="0.4215">
        <ele>6</ele>
        <time>2023-09-03T09:36:51Z</time>
      </trkpt>
      <trkpt lat="49.44254" lon="0.4215">
        <ele>6</ele>
        <time>2023-09-03T09:36:52Z</time>
      </trkpt>
      <trkpt lat="49.44248" lon="0.42149">
        <ele>6</ele>
        <time>2023-09-03T09:36:53Z</time>
      </trkpt>
      <trkpt lat="49.44242" lon="0.42148">
        <ele>6</ele>
        <time>2023-09-03T09:36:54Z</time>
      </trkpt>
      <trkpt lat="49.44236" lon="0.42148">
        <ele>6</ele>
        <time>2023-09-03T09:36:55Z</time>
      </trkpt>
      <trkpt lat="49.44231" lon="0.42148">
        <ele>6</ele>
        <time>2023-09-03T09:36:56Z</time>
      </trkpt>
      <trkpt lat="49.44224" lon="0.42148">
        <ele>6</ele>
        <time>2023-09-03T09:36:57Z</time>
      </trkpt>
      <trkpt lat="49.44218" lon="0.42147">
        <ele>6</ele>
        <time>2023-09-03T09:36:58Z</time>
      </trkpt>
      <trkpt lat="49.44212" lon="0.42147">
        <ele>5.9</ele>
        <time>2023-09-03T09:36:59Z</time>
      </trkpt>
      <trkpt lat="49.44206" lon="0.42147">
        <ele>5.9</ele>
        <time>2023-09-03T09:37:00Z</time>
      </trkpt>
      <trkpt lat="49.44199" lon="0.42147">
        <ele>5.9</ele>
        <time>2023-09-03T09:37:01Z</time>
      </trkpt>
      <trkpt lat="49.44193" lon="0.42147">
        <ele>5.9</ele>
        <time>2023-09-03T09:37:02Z</time>
      </trkpt>
      <trkpt lat="49.44187" lon="0.42146">
        <ele>5.9</ele>
        <time>2023-09-03T09:37:03Z</time>
      </trkpt>
      <trkpt lat="49.44181" lon="0.42146">
        <ele>5.9</ele>
        <time>2023-09-03T09:37:04Z</time>
      </trkpt>
      <trkpt lat="49.44175" lon="0.42147">
        <ele>5.9</ele>
        <time>2023-09-03T09:37:05Z</time>
      </trkpt>
      <trkpt lat="49.44168" lon="0.42147">
        <ele>5.9</ele>
        <time>2023-09-03T09:37:06Z</time>
      </trkpt>
      <trkpt lat="49.44162" lon="0.42147">
        <ele>5.9</ele>
        <time>2023-09-03T09:37:07Z</time>
      </trkpt>
      <trkpt lat="49.44156" lon="0.42147">
        <ele>5.9</ele>
        <time>2023-09-03T09:37:08Z</time>
      </trkpt>
      <trkpt lat="49.44149" lon="0.42148">
        <ele>5.9</ele>
        <time>2023-09-03T09:37:09Z</time>
      </trkpt>
      <trkpt lat="49.44143" lon="0.42149">
        <ele>5.9</ele>
        <time>2023-09-03T09:37:10Z</time>
      </trkpt>
      <trkpt lat="49.44136" lon="0.42149">
        <ele>5.9</ele>
        <time>2023-09-03T09:37:11Z</time>
      </trkpt>
      <trkpt lat="49.4413" lon="0.4215">
        <ele>6</ele>
        <time>2023-09-03T09:37:12Z</time>
      </trkpt>
      <trkpt lat="49.44124" lon="0.4215">
        <ele>6</ele>
        <time>2023-09-03T09:37:13Z</time>
      </trkpt>
      <trkpt lat="49.44117" lon="0.42151">
        <ele>6</ele>
        <time>2023-09-03T09:37:14Z</time>
      </trkpt>
      <trkpt lat="49.4411" lon="0.42151">
        <ele>6</ele>
        <time>2023-09-03T09:37:15Z</time>
      </trkpt>
      <trkpt lat="49.44104" lon="0.42153">
        <ele>6</ele>
        <time>2023-09-03T09:37:16Z</time>
      </trkpt>
      <trkpt lat="49.44097" lon="0.42154">
        <ele>6</ele>
        <time>2023-09-03T09:37:17Z</time>
      </trkpt>
      <trkpt lat="49.4409" lon="0.42155">
        <ele>6</ele>
        <time>2023-09-03T09:37:18Z</time>
      </trkpt>
      <trkpt lat="49.44084" lon="0.42156">
        <ele>6</ele>
        <time>2023-09-03T09:37:19Z</time>
      </trkpt>
      <trkpt lat="49.44078" lon="0.42158">
        <ele>6</ele>
        <time>2023-09-03T09:37:20Z</time>
      </trkpt>
      <trkpt lat="49.44071" lon="0.4216">
        <ele>6</ele>
        <time>2023-09-03T09:37:21Z</time>
      </trkpt>
      <trkpt lat="49.44064" lon="0.42161">
        <ele>6</ele>
        <time>2023-09-03T09:37:22Z</time>
      </trkpt>
      <trkpt lat="49.44057" lon="0.42162">
        <ele>6</ele>
        <time>2023-09-03T09:37:23Z</time>
      </trkpt>
      <trkpt lat="49.44051" lon="0.42164">
        <ele>6</ele>
        <time>2023-09-03T09:37:24Z</time>
      </trkpt>
      <trkpt lat="49.44044" lon="0.42166">
        <ele>6</ele>
        <time>2023-09-03T09:37:25Z</time>
      </trkpt>
      <trkpt lat="49.44037" lon="0.42168">
        <ele>6</ele>
        <time>2023-09-03T09:37:26Z</time>
      </trkpt>
      <trkpt lat="49.4403" lon="0.4217">
        <ele>6</ele>
        <time>2023-09-03T09:37:27Z</time>
      </trkpt>
      <trkpt lat="49.44024" lon="0.42173">
        <ele>6</ele>
        <time>2023-09-03T09:37:28Z</time>
      </trkpt>
      <trkpt lat="49.44017" lon="0.42175">
        <ele>6</ele>
        <time>2023-09-03T09:37:29Z</time>
      </trkpt>
      <trkpt lat="49.44011" lon="0.42177">
        <ele>6</ele>
        <time>2023-09-03T09:37:30Z</time>
      </trkpt>
      <trkpt lat="49.44005" lon="0.42179">
        <ele>6</ele>
        <time>2023-09-03T09:37:31Z</time>
      </trkpt>
      <trkpt lat="49.43998" lon="0.42182">
        <ele>6</ele>
        <time>2023-09-03T09:37:32Z</time>
      </trkpt>
      <trkpt lat="49.43991" lon="0.42184">
        <ele>6</ele>
        <time>2023-09-03T09:37:33Z</time>
      </trkpt>
      <trkpt lat="49.43985" lon="0.42187">
        <ele>6</ele>
        <time>2023-09-03T09:37:34Z</time>
      </trkpt>
      <trkpt lat="49.43978" lon="0.42189">
        <ele>5.9</ele>
        <time>2023-09-03T09:37:35Z</time>
      </trkpt>
      <trkpt lat="49.43971" lon="0.42191">
        <ele>5.9</ele>
        <time>2023-09-03T09:37:36Z</time>
      </trkpt>
      <trkpt lat="49.43964" lon="0.42193">
        <ele>5.9</ele>
        <time>2023-09-03T09:37:37Z</time>
      </trkpt>
      <trkpt lat="49.43957" lon="0.42196">
        <ele>5.9</ele>
        <time>2023-09-03T09:37:38Z</time>
      </trkpt>
      <trkpt lat="49.4395" lon="0.42198">
        <ele>5.9</ele>
        <time>2023-09-03T09:37:39Z</time>
      </trkpt>
      <trkpt lat="49.43943" lon="0.422">
        <ele>5.9</ele>
        <time>2023-09-03T09:37:40Z</time>
      </trkpt>
      <trkpt lat="49.43936" lon="0.42202">
        <ele>5.9</ele>
        <time>2023-09-03T09:37:41Z</time>
      </trkpt>
      <trkpt lat="49.43929" lon="0.42205">
        <ele>5.9</ele>
        <time>2023-09-03T09:37:42Z</time>
      </trkpt>
      <trkpt lat="49.43921" lon="0.42207">
        <ele>5.9</ele>
        <time>2023-09-03T09:37:43Z</time>
      </trkpt>
      <trkpt lat="49.43914" lon="0.42209">
        <ele>5.9</ele>
        <time>2023-09-03T09:37:44Z</time>
      </trkpt>
      <trkpt lat="49.43908" lon="0.42212">
        <ele>5.9</ele>
        <time>2023-09-03T09:37:45Z</time>
      </trkpt>
      <trkpt lat="49.43901" lon="0.42214">
        <ele>5.9</ele>
        <time>2023-09-03T09:37:46Z</time>
      </trkpt>
      <trkpt lat="49.43894" lon="0.42217">
        <ele>5.9</ele>
        <time>2023-09-03T09:37:47Z</time>
      </trkpt>
      <trkpt lat="49.43887" lon="0.42219">
        <ele>5.9</ele>
        <time>2023-09-03T09:37:48Z</time>
      </trkpt>
      <trkpt lat="49.4388" lon="0.42221">
        <ele>5.9</ele>
        <time>2023-09-03T09:37:49Z</time>
      </trkpt>
      <trkpt lat="49.43873" lon="0.42224">
        <ele>5.9</ele>
        <time>2023-09-03T09:37:50Z</time>
      </trkpt>
      <trkpt lat="49.43866" lon="0.42226">
        <ele>6</ele>
        <time>2023-09-03T09:37:51Z</time>
      </trkpt>
      <trkpt lat="49.43859" lon="0.42229">
        <ele>6</ele>
        <time>2023-09-03T09:37:52Z</time>
      </trkpt>
      <trkpt lat="49.43852" lon="0.42231">
        <ele>6</ele>
        <time>2023-09-03T09:37:53Z</time>
      </trkpt>
      <trkpt lat="49.43845" lon="0.42234">
        <ele>6.1</ele>
        <time>2023-09-03T09:37:54Z</time>
      </trkpt>
      <trkpt lat="49.43839" lon="0.42236">
        <ele>6.1</ele>
        <time>2023-09-03T09:37:55Z</time>
      </trkpt>
      <trkpt lat="49.43832" lon="0.42238">
        <ele>6.2</ele>
        <time>2023-09-03T09:37:56Z</time>
      </trkpt>
      <trkpt lat="49.43825" lon="0.42241">
        <ele>6.3</ele>
        <time>2023-09-03T09:37:57Z</time>
      </trkpt>
      <trkpt lat="49.43819" lon="0.42243">
        <ele>6.3</ele>
        <time>2023-09-03T09:37:58Z</time>
      </trkpt>
      <trkpt lat="49.43812" lon="0.42246">
        <ele>6.4</ele>
        <time>2023-09-03T09:37:59Z</time>
      </trkpt>
      <trkpt lat="49.43806" lon="0.42248">
        <ele>6.5</ele>
        <time>2023-09-03T09:38:00Z</time>
      </trkpt>
      <trkpt lat="49.43799" lon="0.42251">
        <ele>6.5</ele>
        <time>2023-09-03T09:38:01Z</time>
      </trkpt>
      <trkpt lat="49.43792" lon="0.42253">
        <ele>6.6</ele>
        <time>2023-09-03T09:38:02Z</time>
      </trkpt>
      <trkpt lat="49.43785" lon="0.42255">
        <ele>6.6</ele>
        <time>2023-09-03T09:38:03Z</time>
      </trkpt>
      <trkpt lat="49.43778" lon="0.42258">
        <ele>6.6</ele>
        <time>2023-09-03T09:38:04Z</time>
      </trkpt>
      <trkpt lat="49.43771" lon="0.4226">
        <ele>6.6</ele>
        <time>2023-09-03T09:38:05Z</time>
      </trkpt>
      <trkpt lat="49.43764" lon="0.42263">
        <ele>6.6</ele>
        <time>2023-09-03T09:38:06Z</time>
      </trkpt>
      <trkpt lat="49.43757" lon="0.42265">
        <ele>6.7</ele>
        <time>2023-09-03T09:38:07Z</time>
      </trkpt>
      <trkpt lat="49.4375" lon="0.42267">
        <ele>6.8</ele>
        <time>2023-09-03T09:38:08Z</time>
      </trkpt>
      <trkpt lat="49.43742" lon="0.42269">
        <ele>6.8</ele>
        <time>2023-09-03T09:38:09Z</time>
      </trkpt>
      <trkpt lat="49.43735" lon="0.42271">
        <ele>6.9</ele>
        <time>2023-09-03T09:38:10Z</time>
      </trkpt>
      <trkpt lat="49.43729" lon="0.42273">
        <ele>6.9</ele>
        <time>2023-09-03T09:38:11Z</time>
      </trkpt>
      <trkpt lat="49.43722" lon="0.42276">
        <ele>7</ele>
        <time>2023-09-03T09:38:12Z</time>
      </trkpt>
      <trkpt lat="49.43715" lon="0.42279">
        <ele>7</ele>
        <time>2023-09-03T09:38:13Z</time>
      </trkpt>
      <trkpt lat="49.43708" lon="0.42282">
        <ele>7</ele>
        <time>2023-09-03T09:38:14Z</time>
      </trkpt>
      <trkpt lat="49.437" lon="0.42284">
        <ele>7.1</ele>
        <time>2023-09-03T09:38:15Z</time>
      </trkpt>
      <trkpt lat="49.43693" lon="0.42286">
        <ele>7.1</ele>
        <time>2023-09-03T09:38:16Z</time>
      </trkpt>
      <trkpt lat="49.43686" lon="0.42288">
        <ele>7.1</ele>
        <time>2023-09-03T09:38:17Z</time>
      </trkpt>
      <trkpt lat="49.43679" lon="0.4229">
        <ele>7.1</ele>
        <time>2023-09-03T09:38:18Z</time>
      </trkpt>
      <trkpt lat="49.43672" lon="0.42293">
        <ele>7.2</ele>
        <time>2023-09-03T09:38:19Z</time>
      </trkpt>
      <trkpt lat="49.43666" lon="0.42296">
        <ele>7.2</ele>
        <time>2023-09-03T09:38:20Z</time>
      </trkpt>
      <trkpt lat="49.43659" lon="0.42298">
        <ele>7.1</ele>
        <time>2023-09-03T09:38:21Z</time>
      </trkpt>
      <trkpt lat="49.43652" lon="0.423">
        <ele>7.1</ele>
        <time>2023-09-03T09:38:22Z</time>
      </trkpt>
      <trkpt lat="49.43645" lon="0.42302">
        <ele>7.1</ele>
        <time>2023-09-03T09:38:23Z</time>
      </trkpt>
      <trkpt lat="49.43638" lon="0.42305">
        <ele>7.1</ele>
        <time>2023-09-03T09:38:24Z</time>
      </trkpt>
      <trkpt lat="49.43631" lon="0.42307">
        <ele>7.1</ele>
        <time>2023-09-03T09:38:25Z</time>
      </trkpt>
      <trkpt lat="49.43624" lon="0.42309">
        <ele>7.1</ele>
        <time>2023-09-03T09:38:26Z</time>
      </trkpt>
      <trkpt lat="49.43617" lon="0.42312">
        <ele>7.1</ele>
        <time>2023-09-03T09:38:27Z</time>
      </trkpt>
      <trkpt lat="49.4361" lon="0.42314">
        <ele>7</ele>
        <time>2023-09-03T09:38:28Z</time>
      </trkpt>
      <trkpt lat="49.43603" lon="0.42316">
        <ele>7</ele>
        <time>2023-09-03T09:38:29Z</time>
      </trkpt>
      <trkpt lat="49.43597" lon="0.42319">
        <ele>7</ele>
        <time>2023-09-03T09:38:30Z</time>
      </trkpt>
      <trkpt lat="49.4359" lon="0.42321">
        <ele>6.9</ele>
        <time>2023-09-03T09:38:31Z</time>
      </trkpt>
      <trkpt lat="49.43583" lon="0.42324">
        <ele>6.9</ele>
        <time>2023-09-03T09:38:32Z</time>
      </trkpt>
      <trkpt lat="49.43577" lon="0.42326">
        <ele>6.9</ele>
        <time>2023-09-03T09:38:33Z</time>
      </trkpt>
      <trkpt lat="49.4357" lon="0.42329">
        <ele>6.9</ele>
        <time>2023-09-03T09:38:34Z</time>
      </trkpt>
      <trkpt lat="49.43564" lon="0.42331">
        <ele>6.8</ele>
        <time>2023-09-03T09:38:35Z</time>
      </trkpt>
      <trkpt lat="49.43558" lon="0.42333">
        <ele>6.8</ele>
        <time>2023-09-03T09:38:36Z</time>
      </trkpt>
      <trkpt lat="49.43552" lon="0.42335">
        <ele>6.8</ele>
        <time>2023-09-03T09:38:37Z</time>
      </trkpt>
      <trkpt lat="49.43546" lon="0.42337">
        <ele>6.7</ele>
        <time>2023-09-03T09:38:38Z</time>
      </trkpt>
      <trkpt lat="49.43539" lon="0.42339">
        <ele>6.7</ele>
        <time>2023-09-03T09:38:39Z</time>
      </trkpt>
      <trkpt lat="49.43533" lon="0.42342">
        <ele>6.7</ele>
        <time>2023-09-03T09:38:40Z</time>
      </trkpt>
      <trkpt lat="49.43527" lon="0.42344">
        <ele>6.7</ele>
        <time>2023-09-03T09:38:41Z</time>
      </trkpt>
      <trkpt lat="49.43521" lon="0.42346">
        <ele>6.6</ele>
        <time>2023-09-03T09:38:42Z</time>
      </trkpt>
      <trkpt lat="49.43515" lon="0.42348">
        <ele>6.6</ele>
        <time>2023-09-03T09:38:43Z</time>
      </trkpt>
      <trkpt lat="49.43509" lon="0.4235">
        <ele>6.6</ele>
        <time>2023-09-03T09:38:44Z</time>
      </trkpt>
      <trkpt lat="49.43503" lon="0.42352">
        <ele>6.6</ele>
        <time>2023-09-03T09:38:45Z</time>
      </trkpt>
      <trkpt lat="49.43497" lon="0.42354">
        <ele>6.5</ele>
        <time>2023-09-03T09:38:46Z</time>
      </trkpt>
      <trkpt lat="49.4349" lon="0.42356">
        <ele>6.5</ele>
        <time>2023-09-03T09:38:47Z</time>
      </trkpt>
      <trkpt lat="49.43484" lon="0.42359">
        <ele>6.4</ele>
        <time>2023-09-03T09:38:48Z</time>
      </trkpt>
      <trkpt lat="49.43478" lon="0.4236">
        <ele>6.4</ele>
        <time>2023-09-03T09:38:49Z</time>
      </trkpt>
      <trkpt lat="49.43471" lon="0.42363">
        <ele>6.4</ele>
        <time>2023-09-03T09:38:50Z</time>
      </trkpt>
      <trkpt lat="49.43465" lon="0.42365">
        <ele>6.3</ele>
        <time>2023-09-03T09:38:51Z</time>
      </trkpt>
      <trkpt lat="49.43458" lon="0.42367">
        <ele>6.3</ele>
        <time>2023-09-03T09:38:52Z</time>
      </trkpt>
      <trkpt lat="49.43451" lon="0.42369">
        <ele>6.2</ele>
        <time>2023-09-03T09:38:53Z</time>
      </trkpt>
      <trkpt lat="49.43445" lon="0.42372">
        <ele>6.2</ele>
        <time>2023-09-03T09:38:54Z</time>
      </trkpt>
      <trkpt lat="49.43438" lon="0.42374">
        <ele>6.2</ele>
        <time>2023-09-03T09:38:55Z</time>
      </trkpt>
      <trkpt lat="49.43432" lon="0.42376">
        <ele>6.2</ele>
        <time>2023-09-03T09:38:56Z</time>
      </trkpt>
      <trkpt lat="49.43426" lon="0.42378">
        <ele>6.2</ele>
        <time>2023-09-03T09:38:57Z</time>
      </trkpt>
      <trkpt lat="49.43419" lon="0.4238">
        <ele>6.1</ele>
        <time>2023-09-03T09:38:58Z</time>
      </trkpt>
      <trkpt lat="49.43412" lon="0.42382">
        <ele>6.1</ele>
        <time>2023-09-03T09:38:59Z</time>
      </trkpt>
      <trkpt lat="49.43406" lon="0.42383">
        <ele>6.1</ele>
        <time>2023-09-03T09:39:00Z</time>
      </trkpt>
      <trkpt lat="49.43399" lon="0.42385">
        <ele>6.2</ele>
        <time>2023-09-03T09:39:01Z</time>
      </trkpt>
      <trkpt lat="49.43393" lon="0.42387">
        <ele>6.1</ele>
        <time>2023-09-03T09:39:02Z</time>
      </trkpt>
      <trkpt lat="49.43386" lon="0.42388">
        <ele>6.1</ele>
        <time>2023-09-03T09:39:03Z</time>
      </trkpt>
      <trkpt lat="49.4338" lon="0.42388">
        <ele>6.1</ele>
        <time>2023-09-03T09:39:04Z</time>
      </trkpt>
      <trkpt lat="49.43375" lon="0.42388">
        <ele>6.1</ele>
        <time>2023-09-03T09:39:05Z</time>
      </trkpt>
      <trkpt lat="49.43369" lon="0.42388">
        <ele>6.1</ele>
        <time>2023-09-03T09:39:06Z</time>
      </trkpt>
      <trkpt lat="49.43363" lon="0.4239">
        <ele>6</ele>
        <time>2023-09-03T09:39:07Z</time>
      </trkpt>
      <trkpt lat="49.43357" lon="0.42392">
        <ele>6</ele>
        <time>2023-09-03T09:39:08Z</time>
      </trkpt>
      <trkpt lat="49.43351" lon="0.42393">
        <ele>6</ele>
        <time>2023-09-03T09:39:09Z</time>
      </trkpt>
      <trkpt lat="49.43345" lon="0.42394">
        <ele>6</ele>
        <time>2023-09-03T09:39:10Z</time>
      </trkpt>
      <trkpt lat="49.43339" lon="0.42395">
        <ele>6</ele>
        <time>2023-09-03T09:39:11Z</time>
      </trkpt>
      <trkpt lat="49.43333" lon="0.42396">
        <ele>6</ele>
        <time>2023-09-03T09:39:12Z</time>
      </trkpt>
      <trkpt lat="49.43327" lon="0.42397">
        <ele>6</ele>
        <time>2023-09-03T09:39:13Z</time>
      </trkpt>
      <trkpt lat="49.43321" lon="0.42398">
        <ele>6</ele>
        <time>2023-09-03T09:39:14Z</time>
      </trkpt>
      <trkpt lat="49.43314" lon="0.42398">
        <ele>6</ele>
        <time>2023-09-03T09:39:15Z</time>
      </trkpt>
      <trkpt lat="49.43309" lon="0.42399">
        <ele>6</ele>
        <time>2023-09-03T09:39:16Z</time>
      </trkpt>
      <trkpt lat="49.43302" lon="0.424">
        <ele>6</ele>
        <time>2023-09-03T09:39:17Z</time>
      </trkpt>
      <trkpt lat="49.43297" lon="0.424">
        <ele>6</ele>
        <time>2023-09-03T09:39:18Z</time>
      </trkpt>
      <trkpt lat="49.43291" lon="0.42401">
        <ele>6</ele>
        <time>2023-09-03T09:39:19Z</time>
      </trkpt>
      <trkpt lat="49.43284" lon="0.42402">
        <ele>6</ele>
        <time>2023-09-03T09:39:20Z</time>
      </trkpt>
      <trkpt lat="49.43279" lon="0.42402">
        <ele>6</ele>
        <time>2023-09-03T09:39:21Z</time>
      </trkpt>
      <trkpt lat="49.43273" lon="0.42403">
        <ele>6</ele>
        <time>2023-09-03T09:39:22Z</time>
      </trkpt>
      <trkpt lat="49.43267" lon="0.42404">
        <ele>6</ele>
        <time>2023-09-03T09:39:23Z</time>
      </trkpt>
      <trkpt lat="49.43261" lon="0.42405">
        <ele>6.1</ele>
        <time>2023-09-03T09:39:24Z</time>
      </trkpt>
      <trkpt lat="49.43255" lon="0.42405">
        <ele>6.1</ele>
        <time>2023-09-03T09:39:25Z</time>
      </trkpt>
      <trkpt lat="49.43249" lon="0.42406">
        <ele>6.1</ele>
        <time>2023-09-03T09:39:26Z</time>
      </trkpt>
      <trkpt lat="49.43243" lon="0.42407">
        <ele>6.1</ele>
        <time>2023-09-03T09:39:27Z</time>
      </trkpt>
      <trkpt lat="49.43237" lon="0.42408">
        <ele>6.1</ele>
        <time>2023-09-03T09:39:28Z</time>
      </trkpt>
      <trkpt lat="49.43231" lon="0.42409">
        <ele>6.2</ele>
        <time>2023-09-03T09:39:29Z</time>
      </trkpt>
      <trkpt lat="49.43225" lon="0.42409">
        <ele>6.2</ele>
        <time>2023-09-03T09:39:30Z</time>
      </trkpt>
      <trkpt lat="49.43219" lon="0.4241">
        <ele>6.2</ele>
        <time>2023-09-03T09:39:31Z</time>
      </trkpt>
      <trkpt lat="49.43214" lon="0.42411">
        <ele>6.1</ele>
        <time>2023-09-03T09:39:32Z</time>
      </trkpt>
      <trkpt lat="49.43208" lon="0.42412">
        <ele>6.1</ele>
        <time>2023-09-03T09:39:33Z</time>
      </trkpt>
      <trkpt lat="49.43202" lon="0.42413">
        <ele>6.1</ele>
        <time>2023-09-03T09:39:34Z</time>
      </trkpt>
      <trkpt lat="49.43196" lon="0.42414">
        <ele>6.1</ele>
        <time>2023-09-03T09:39:35Z</time>
      </trkpt>
      <trkpt lat="49.4319" lon="0.42415">
        <ele>6.1</ele>
        <time>2023-09-03T09:39:36Z</time>
      </trkpt>
      <trkpt lat="49.43184" lon="0.42416">
        <ele>6.1</ele>
        <time>2023-09-03T09:39:37Z</time>
      </trkpt>
      <trkpt lat="49.43178" lon="0.42416">
        <ele>6.1</ele>
        <time>2023-09-03T09:39:38Z</time>
      </trkpt>
      <trkpt lat="49.43171" lon="0.42417">
        <ele>6.2</ele>
        <time>2023-09-03T09:39:39Z</time>
      </trkpt>
      <trkpt lat="49.43164" lon="0.42419">
        <ele>6.2</ele>
        <time>2023-09-03T09:39:40Z</time>
      </trkpt>
      <trkpt lat="49.43157" lon="0.42419">
        <ele>6.1</ele>
        <time>2023-09-03T09:39:41Z</time>
      </trkpt>
      <trkpt lat="49.4315" lon="0.4242">
        <ele>6.1</ele>
        <time>2023-09-03T09:39:42Z</time>
      </trkpt>
      <trkpt lat="49.43143" lon="0.4242">
        <ele>6.1</ele>
        <time>2023-09-03T09:39:43Z</time>
      </trkpt>
      <trkpt lat="49.43135" lon="0.42422">
        <ele>6</ele>
        <time>2023-09-03T09:39:44Z</time>
      </trkpt>
      <trkpt lat="49.43127" lon="0.42423">
        <ele>6</ele>
        <time>2023-09-03T09:39:45Z</time>
      </trkpt>
      <trkpt lat="49.43119" lon="0.42425">
        <ele>6</ele>
        <time>2023-09-03T09:39:46Z</time>
      </trkpt>
      <trkpt lat="49.43111" lon="0.42426">
        <ele>5.9</ele>
        <time>2023-09-03T09:39:47Z</time>
      </trkpt>
      <trkpt lat="49.43103" lon="0.42427">
        <ele>5.9</ele>
        <time>2023-09-03T09:39:48Z</time>
      </trkpt>
      <trkpt lat="49.43095" lon="0.42428">
        <ele>5.9</ele>
        <time>2023-09-03T09:39:49Z</time>
      </trkpt>
      <trkpt lat="49.43087" lon="0.42428">
        <ele>5.9</ele>
        <time>2023-09-03T09:39:50Z</time>
      </trkpt>
      <trkpt lat="49.43079" lon="0.42429">
        <ele>5.9</ele>
        <time>2023-09-03T09:39:51Z</time>
      </trkpt>
      <trkpt lat="49.43071" lon="0.42429">
        <ele>5.8</ele>
        <time>2023-09-03T09:39:52Z</time>
      </trkpt>
      <trkpt lat="49.43063" lon="0.4243">
        <ele>5.8</ele>
        <time>2023-09-03T09:39:53Z</time>
      </trkpt>
      <trkpt lat="49.43055" lon="0.42432">
        <ele>5.8</ele>
        <time>2023-09-03T09:39:54Z</time>
      </trkpt>
      <trkpt lat="49.43047" lon="0.42432">
        <ele>5.8</ele>
        <time>2023-09-03T09:39:55Z</time>
      </trkpt>
      <trkpt lat="49.43038" lon="0.42433">
        <ele>5.8</ele>
        <time>2023-09-03T09:39:56Z</time>
      </trkpt>
      <trkpt lat="49.4303" lon="0.42434">
        <ele>5.9</ele>
        <time>2023-09-03T09:39:57Z</time>
      </trkpt>
      <trkpt lat="49.43023" lon="0.42435">
        <ele>5.9</ele>
        <time>2023-09-03T09:39:58Z</time>
      </trkpt>
      <trkpt lat="49.43014" lon="0.42436">
        <ele>5.9</ele>
        <time>2023-09-03T09:39:59Z</time>
      </trkpt>
      <trkpt lat="49.43006" lon="0.42437">
        <ele>6</ele>
        <time>2023-09-03T09:40:00Z</time>
      </trkpt>
      <trkpt lat="49.42998" lon="0.42438">
        <ele>6</ele>
        <time>2023-09-03T09:40:01Z</time>
      </trkpt>
      <trkpt lat="49.4299" lon="0.42439">
        <ele>6</ele>
        <time>2023-09-03T09:40:02Z</time>
      </trkpt>
      <trkpt lat="49.42982" lon="0.4244">
        <ele>6</ele>
        <time>2023-09-03T09:40:03Z</time>
      </trkpt>
      <trkpt lat="49.42973" lon="0.42441">
        <ele>6</ele>
        <time>2023-09-03T09:40:04Z</time>
      </trkpt>
      <trkpt lat="49.42964" lon="0.42442">
        <ele>6</ele>
        <time>2023-09-03T09:40:05Z</time>
      </trkpt>
      <trkpt lat="49.42956" lon="0.42443">
        <ele>6</ele>
        <time>2023-09-03T09:40:06Z</time>
      </trkpt>
      <trkpt lat="49.42947" lon="0.42445">
        <ele>6.1</ele>
        <time>2023-09-03T09:40:07Z</time>
      </trkpt>
      <trkpt lat="49.42939" lon="0.42445">
        <ele>6.1</ele>
        <time>2023-09-03T09:40:08Z</time>
      </trkpt>
      <trkpt lat="49.42931" lon="0.42446">
        <ele>6.1</ele>
        <time>2023-09-03T09:40:09Z</time>
      </trkpt>
      <trkpt lat="49.42923" lon="0.42447">
        <ele>6.1</ele>
        <time>2023-09-03T09:40:10Z</time>
      </trkpt>
      <trkpt lat="49.42915" lon="0.42448">
        <ele>6.1</ele>
        <time>2023-09-03T09:40:11Z</time>
      </trkpt>
      <trkpt lat="49.42907" lon="0.42449">
        <ele>6.1</ele>
        <time>2023-09-03T09:40:12Z</time>
      </trkpt>
      <trkpt lat="49.42899" lon="0.4245">
        <ele>6.1</ele>
        <time>2023-09-03T09:40:13Z</time>
      </trkpt>
      <trkpt lat="49.42891" lon="0.42451">
        <ele>6.1</ele>
        <time>2023-09-03T09:40:14Z</time>
      </trkpt>
      <trkpt lat="49.42883" lon="0.42452">
        <ele>6.1</ele>
        <time>2023-09-03T09:40:15Z</time>
      </trkpt>
      <trkpt lat="49.42875" lon="0.42453">
        <ele>6.1</ele>
        <time>2023-09-03T09:40:16Z</time>
      </trkpt>
      <trkpt lat="49.42867" lon="0.42454">
        <ele>6.1</ele>
        <time>2023-09-03T09:40:17Z</time>
      </trkpt>
      <trkpt lat="49.42858" lon="0.42454">
        <ele>6.1</ele>
        <time>2023-09-03T09:40:18Z</time>
      </trkpt>
      <trkpt lat="49.4285" lon="0.42455">
        <ele>6.1</ele>
        <time>2023-09-03T09:40:19Z</time>
      </trkpt>
      <trkpt lat="49.42842" lon="0.42456">
        <ele>6.1</ele>
        <time>2023-09-03T09:40:20Z</time>
      </trkpt>
      <trkpt lat="49.42834" lon="0.42456">
        <ele>6.2</ele>
        <time>2023-09-03T09:40:21Z</time>
      </trkpt>
      <trkpt lat="49.42826" lon="0.42457">
        <ele>6.2</ele>
        <time>2023-09-03T09:40:22Z</time>
      </trkpt>
      <trkpt lat="49.42818" lon="0.42459">
        <ele>6.2</ele>
        <time>2023-09-03T09:40:23Z</time>
      </trkpt>
      <trkpt lat="49.4281" lon="0.42459">
        <ele>6.2</ele>
        <time>2023-09-03T09:40:24Z</time>
      </trkpt>
      <trkpt lat="49.42801" lon="0.4246">
        <ele>6.1</ele>
        <time>2023-09-03T09:40:25Z</time>
      </trkpt>
      <trkpt lat="49.42793" lon="0.42461">
        <ele>6.1</ele>
        <time>2023-09-03T09:40:26Z</time>
      </trkpt>
      <trkpt lat="49.42785" lon="0.42462">
        <ele>6.1</ele>
        <time>2023-09-03T09:40:27Z</time>
      </trkpt>
      <trkpt lat="49.42776" lon="0.42463">
        <ele>6.1</ele>
        <time>2023-09-03T09:40:28Z</time>
      </trkpt>
      <trkpt lat="49.42768" lon="0.42463">
        <ele>6.1</ele>
        <time>2023-09-03T09:40:29Z</time>
      </trkpt>
      <trkpt lat="49.4276" lon="0.42464">
        <ele>6.1</ele>
        <time>2023-09-03T09:40:30Z</time>
      </trkpt>
      <trkpt lat="49.42752" lon="0.42466">
        <ele>6.1</ele>
        <time>2023-09-03T09:40:31Z</time>
      </trkpt>
      <trkpt lat="49.42744" lon="0.42466">
        <ele>6.2</ele>
        <time>2023-09-03T09:40:32Z</time>
      </trkpt>
      <trkpt lat="49.42737" lon="0.42467">
        <ele>6.2</ele>
        <time>2023-09-03T09:40:33Z</time>
      </trkpt>
      <trkpt lat="49.42729" lon="0.42468">
        <ele>6.2</ele>
        <time>2023-09-03T09:40:34Z</time>
      </trkpt>
      <trkpt lat="49.42721" lon="0.42469">
        <ele>6.2</ele>
        <time>2023-09-03T09:40:35Z</time>
      </trkpt>
      <trkpt lat="49.42713" lon="0.42469">
        <ele>6.2</ele>
        <time>2023-09-03T09:40:36Z</time>
      </trkpt>
      <trkpt lat="49.42705" lon="0.4247">
        <ele>6.2</ele>
        <time>2023-09-03T09:40:37Z</time>
      </trkpt>
      <trkpt lat="49.42697" lon="0.42471">
        <ele>6.2</ele>
        <time>2023-09-03T09:40:38Z</time>
      </trkpt>
      <trkpt lat="49.4269" lon="0.42471">
        <ele>6.2</ele>
        <time>2023-09-03T09:40:39Z</time>
      </trkpt>
      <trkpt lat="49.42682" lon="0.42471">
        <ele>6.2</ele>
        <time>2023-09-03T09:40:40Z</time>
      </trkpt>
      <trkpt lat="49.42674" lon="0.42472">
        <ele>6.2</ele>
        <time>2023-09-03T09:40:41Z</time>
      </trkpt>
      <trkpt lat="49.42666" lon="0.42472">
        <ele>6.2</ele>
        <time>2023-09-03T09:40:42Z</time>
      </trkpt>
      <trkpt lat="49.42658" lon="0.42472">
        <ele>6.2</ele>
        <time>2023-09-03T09:40:43Z</time>
      </trkpt>
      <trkpt lat="49.4265" lon="0.42472">
        <ele>6.2</ele>
        <time>2023-09-03T09:40:44Z</time>
      </trkpt>
      <trkpt lat="49.42642" lon="0.42472">
        <ele>6.3</ele>
        <time>2023-09-03T09:40:45Z</time>
      </trkpt>
      <trkpt lat="49.42634" lon="0.42473">
        <ele>6.4</ele>
        <time>2023-09-03T09:40:46Z</time>
      </trkpt>
      <trkpt lat="49.42626" lon="0.42473">
        <ele>6.5</ele>
        <time>2023-09-03T09:40:47Z</time>
      </trkpt>
      <trkpt lat="49.42618" lon="0.42473">
        <ele>6.5</ele>
        <time>2023-09-03T09:40:48Z</time>
      </trkpt>
      <trkpt lat="49.4261" lon="0.42473">
        <ele>6.6</ele>
        <time>2023-09-03T09:40:49Z</time>
      </trkpt>
      <trkpt lat="49.42602" lon="0.42473">
        <ele>6.7</ele>
        <time>2023-09-03T09:40:50Z</time>
      </trkpt>
      <trkpt lat="49.42594" lon="0.42473">
        <ele>6.8</ele>
        <time>2023-09-03T09:40:51Z</time>
      </trkpt>
      <trkpt lat="49.42586" lon="0.42473">
        <ele>6.9</ele>
        <time>2023-09-03T09:40:52Z</time>
      </trkpt>
      <trkpt lat="49.42578" lon="0.42473">
        <ele>6.9</ele>
        <time>2023-09-03T09:40:53Z</time>
      </trkpt>
      <trkpt lat="49.4257" lon="0.42474">
        <ele>7</ele>
        <time>2023-09-03T09:40:54Z</time>
      </trkpt>
      <trkpt lat="49.42562" lon="0.42474">
        <ele>7</ele>
        <time>2023-09-03T09:40:55Z</time>
      </trkpt>
      <trkpt lat="49.42553" lon="0.42474">
        <ele>7.1</ele>
        <time>2023-09-03T09:40:56Z</time>
      </trkpt>
      <trkpt lat="49.42545" lon="0.42475">
        <ele>7.2</ele>
        <time>2023-09-03T09:40:57Z</time>
      </trkpt>
      <trkpt lat="49.42537" lon="0.42474">
        <ele>7.4</ele>
        <time>2023-09-03T09:40:58Z</time>
      </trkpt>
      <trkpt lat="49.42529" lon="0.42474">
        <ele>7.6</ele>
        <time>2023-09-03T09:40:59Z</time>
      </trkpt>
      <trkpt lat="49.42521" lon="0.42473">
        <ele>7.7</ele>
        <time>2023-09-03T09:41:00Z</time>
      </trkpt>
      <trkpt lat="49.42514" lon="0.42473">
        <ele>7.8</ele>
        <time>2023-09-03T09:41:01Z</time>
      </trkpt>
      <trkpt lat="49.42507" lon="0.42473">
        <ele>7.9</ele>
        <time>2023-09-03T09:41:02Z</time>
      </trkpt>
      <trkpt lat="49.42499" lon="0.42473">
        <ele>7.9</ele>
        <time>2023-09-03T09:41:03Z</time>
      </trkpt>
      <trkpt lat="49.42492" lon="0.42473">
        <ele>7.9</ele>
        <time>2023-09-03T09:41:04Z</time>
      </trkpt>
      <trkpt lat="49.42485" lon="0.42474">
        <ele>8</ele>
        <time>2023-09-03T09:41:05Z</time>
      </trkpt>
      <trkpt lat="49.42477" lon="0.42474">
        <ele>8.1</ele>
        <time>2023-09-03T09:41:06Z</time>
      </trkpt>
      <trkpt lat="49.4247" lon="0.42474">
        <ele>8.2</ele>
        <time>2023-09-03T09:41:07Z</time>
      </trkpt>
      <trkpt lat="49.42462" lon="0.42474">
        <ele>8.3</ele>
        <time>2023-09-03T09:41:08Z</time>
      </trkpt>
      <trkpt lat="49.42455" lon="0.42474">
        <ele>8.4</ele>
        <time>2023-09-03T09:41:09Z</time>
      </trkpt>
      <trkpt lat="49.42447" lon="0.42474">
        <ele>8.5</ele>
        <time>2023-09-03T09:41:10Z</time>
      </trkpt>
      <trkpt lat="49.42438" lon="0.42474">
        <ele>8.6</ele>
        <time>2023-09-03T09:41:11Z</time>
      </trkpt>
      <trkpt lat="49.42431" lon="0.42474">
        <ele>8.7</ele>
        <time>2023-09-03T09:41:12Z</time>
      </trkpt>
      <trkpt lat="49.42423" lon="0.42474">
        <ele>8.8</ele>
        <time>2023-09-03T09:41:13Z</time>
      </trkpt>
      <trkpt lat="49.42416" lon="0.42474">
        <ele>8.9</ele>
        <time>2023-09-03T09:41:14Z</time>
      </trkpt>
      <trkpt lat="49.42408" lon="0.42474">
        <ele>8.9</ele>
        <time>2023-09-03T09:41:15Z</time>
      </trkpt>
      <trkpt lat="49.42401" lon="0.42474">
        <ele>9</ele>
        <time>2023-09-03T09:41:16Z</time>
      </trkpt>
      <trkpt lat="49.42393" lon="0.42474">
        <ele>9.1</ele>
        <time>2023-09-03T09:41:17Z</time>
      </trkpt>
      <trkpt lat="49.42385" lon="0.42474">
        <ele>9.2</ele>
        <time>2023-09-03T09:41:18Z</time>
      </trkpt>
      <trkpt lat="49.42377" lon="0.42474">
        <ele>9.4</ele>
        <time>2023-09-03T09:41:19Z</time>
      </trkpt>
      <trkpt lat="49.4237" lon="0.42474">
        <ele>9.5</ele>
        <time>2023-09-03T09:41:20Z</time>
      </trkpt>
      <trkpt lat="49.42362" lon="0.42474">
        <ele>9.5</ele>
        <time>2023-09-03T09:41:21Z</time>
      </trkpt>
      <trkpt lat="49.42354" lon="0.42474">
        <ele>9.6</ele>
        <time>2023-09-03T09:41:22Z</time>
      </trkpt>
      <trkpt lat="49.42346" lon="0.42474">
        <ele>9.7</ele>
        <time>2023-09-03T09:41:23Z</time>
      </trkpt>
      <trkpt lat="49.42339" lon="0.42474">
        <ele>9.8</ele>
        <time>2023-09-03T09:41:24Z</time>
      </trkpt>
      <trkpt lat="49.42331" lon="0.42474">
        <ele>9.9</ele>
        <time>2023-09-03T09:41:25Z</time>
      </trkpt>
      <trkpt lat="49.42323" lon="0.42474">
        <ele>10</ele>
        <time>2023-09-03T09:41:26Z</time>
      </trkpt>
      <trkpt lat="49.42315" lon="0.42474">
        <ele>10.1</ele>
        <time>2023-09-03T09:41:27Z</time>
      </trkpt>
      <trkpt lat="49.42307" lon="0.42474">
        <ele>10.2</ele>
        <time>2023-09-03T09:41:28Z</time>
      </trkpt>
      <trkpt lat="49.423" lon="0.42474">
        <ele>10.2</ele>
        <time>2023-09-03T09:41:29Z</time>
      </trkpt>
      <trkpt lat="49.42293" lon="0.42475">
        <ele>10.3</ele>
        <time>2023-09-03T09:41:30Z</time>
      </trkpt>
      <trkpt lat="49.42286" lon="0.42475">
        <ele>10.4</ele>
        <time>2023-09-03T09:41:31Z</time>
      </trkpt>
      <trkpt lat="49.42278" lon="0.42475">
        <ele>10.5</ele>
        <time>2023-09-03T09:41:32Z</time>
      </trkpt>
      <trkpt lat="49.4227" lon="0.42475">
        <ele>10.6</ele>
        <time>2023-09-03T09:41:33Z</time>
      </trkpt>
      <trkpt lat="49.42263" lon="0.42475">
        <ele>10.7</ele>
        <time>2023-09-03T09:41:34Z</time>
      </trkpt>
      <trkpt lat="49.42255" lon="0.42475">
        <ele>10.8</ele>
        <time>2023-09-03T09:41:35Z</time>
      </trkpt>
      <trkpt lat="49.42248" lon="0.42474">
        <ele>10.9</ele>
        <time>2023-09-03T09:41:36Z</time>
      </trkpt>
      <trkpt lat="49.42241" lon="0.42474">
        <ele>11</ele>
        <time>2023-09-03T09:41:37Z</time>
      </trkpt>
      <trkpt lat="49.42233" lon="0.42473">
        <ele>11.1</ele>
        <time>2023-09-03T09:41:38Z</time>
      </trkpt>
      <trkpt lat="49.42226" lon="0.42473">
        <ele>11.2</ele>
        <time>2023-09-03T09:41:39Z</time>
      </trkpt>
      <trkpt lat="49.42219" lon="0.42472">
        <ele>11.3</ele>
        <time>2023-09-03T09:41:40Z</time>
      </trkpt>
      <trkpt lat="49.42211" lon="0.42472">
        <ele>11.4</ele>
        <time>2023-09-03T09:41:41Z</time>
      </trkpt>
      <trkpt lat="49.42204" lon="0.42471">
        <ele>11.5</ele>
        <time>2023-09-03T09:41:42Z</time>
      </trkpt>
      <trkpt lat="49.42196" lon="0.4247">
        <ele>11.6</ele>
        <time>2023-09-03T09:41:43Z</time>
      </trkpt>
      <trkpt lat="49.42189" lon="0.42469">
        <ele>11.7</ele>
        <time>2023-09-03T09:41:44Z</time>
      </trkpt>
      <trkpt lat="49.42182" lon="0.42468">
        <ele>11.8</ele>
        <time>2023-09-03T09:41:45Z</time>
      </trkpt>
      <trkpt lat="49.42174" lon="0.42467">
        <ele>11.9</ele>
        <time>2023-09-03T09:41:46Z</time>
      </trkpt>
      <trkpt lat="49.42167" lon="0.42467">
        <ele>12</ele>
        <time>2023-09-03T09:41:47Z</time>
      </trkpt>
      <trkpt lat="49.42159" lon="0.42466">
        <ele>12</ele>
        <time>2023-09-03T09:41:48Z</time>
      </trkpt>
      <trkpt lat="49.42152" lon="0.42465">
        <ele>12.1</ele>
        <time>2023-09-03T09:41:49Z</time>
      </trkpt>
      <trkpt lat="49.42145" lon="0.42464">
        <ele>12.2</ele>
        <time>2023-09-03T09:41:50Z</time>
      </trkpt>
      <trkpt lat="49.42137" lon="0.42462">
        <ele>12.3</ele>
        <time>2023-09-03T09:41:51Z</time>
      </trkpt>
      <trkpt lat="49.4213" lon="0.4246">
        <ele>12.3</ele>
        <time>2023-09-03T09:41:52Z</time>
      </trkpt>
      <trkpt lat="49.42123" lon="0.42458">
        <ele>12.3</ele>
        <time>2023-09-03T09:41:53Z</time>
      </trkpt>
      <trkpt lat="49.42115" lon="0.42457">
        <ele>12.4</ele>
        <time>2023-09-03T09:41:54Z</time>
      </trkpt>
      <trkpt lat="49.42108" lon="0.42456">
        <ele>12.4</ele>
        <time>2023-09-03T09:41:55Z</time>
      </trkpt>
      <trkpt lat="49.421" lon="0.42455">
        <ele>12.5</ele>
        <time>2023-09-03T09:41:56Z</time>
      </trkpt>
      <trkpt lat="49.42093" lon="0.42453">
        <ele>12.5</ele>
        <time>2023-09-03T09:41:57Z</time>
      </trkpt>
      <trkpt lat="49.42086" lon="0.42452">
        <ele>12.6</ele>
        <time>2023-09-03T09:41:58Z</time>
      </trkpt>
      <trkpt lat="49.42079" lon="0.4245">
        <ele>12.7</ele>
        <time>2023-09-03T09:41:59Z</time>
      </trkpt>
      <trkpt lat="49.42072" lon="0.42449">
        <ele>12.8</ele>
        <time>2023-09-03T09:42:00Z</time>
      </trkpt>
      <trkpt lat="49.42064" lon="0.42447">
        <ele>12.8</ele>
        <time>2023-09-03T09:42:01Z</time>
      </trkpt>
      <trkpt lat="49.42056" lon="0.42445">
        <ele>12.9</ele>
        <time>2023-09-03T09:42:02Z</time>
      </trkpt>
      <trkpt lat="49.42049" lon="0.42444">
        <ele>12.9</ele>
        <time>2023-09-03T09:42:03Z</time>
      </trkpt>
      <trkpt lat="49.42041" lon="0.42442">
        <ele>12.9</ele>
        <time>2023-09-03T09:42:04Z</time>
      </trkpt>
      <trkpt lat="49.42034" lon="0.4244">
        <ele>12.9</ele>
        <time>2023-09-03T09:42:05Z</time>
      </trkpt>
      <trkpt lat="49.42025" lon="0.42439">
        <ele>13</ele>
        <time>2023-09-03T09:42:06Z</time>
      </trkpt>
      <trkpt lat="49.42017" lon="0.42437">
        <ele>13</ele>
        <time>2023-09-03T09:42:07Z</time>
      </trkpt>
      <trkpt lat="49.4201" lon="0.42435">
        <ele>13.1</ele>
        <time>2023-09-03T09:42:08Z</time>
      </trkpt>
      <trkpt lat="49.42002" lon="0.42434">
        <ele>13.1</ele>
        <time>2023-09-03T09:42:09Z</time>
      </trkpt>
      <trkpt lat="49.41994" lon="0.42432">
        <ele>13.1</ele>
        <time>2023-09-03T09:42:10Z</time>
      </trkpt>
      <trkpt lat="49.41987" lon="0.42431">
        <ele>13.1</ele>
        <time>2023-09-03T09:42:11Z</time>
      </trkpt>
      <trkpt lat="49.4198" lon="0.42429">
        <ele>13.1</ele>
        <time>2023-09-03T09:42:12Z</time>
      </trkpt>
      <trkpt lat="49.41973" lon="0.42428">
        <ele>13.1</ele>
        <time>2023-09-03T09:42:13Z</time>
      </trkpt>
      <trkpt lat="49.41966" lon="0.42426">
        <ele>13.1</ele>
        <time>2023-09-03T09:42:14Z</time>
      </trkpt>
      <trkpt lat="49.41959" lon="0.42424">
        <ele>13.1</ele>
        <time>2023-09-03T09:42:15Z</time>
      </trkpt>
      <trkpt lat="49.41952" lon="0.42423">
        <ele>13</ele>
        <time>2023-09-03T09:42:16Z</time>
      </trkpt>
      <trkpt lat="49.41944" lon="0.42422">
        <ele>13</ele>
        <time>2023-09-03T09:42:17Z</time>
      </trkpt>
      <trkpt lat="49.41937" lon="0.4242">
        <ele>13</ele>
        <time>2023-09-03T09:42:18Z</time>
      </trkpt>
      <trkpt lat="49.41929" lon="0.42418">
        <ele>12.9</ele>
        <time>2023-09-03T09:42:19Z</time>
      </trkpt>
      <trkpt lat="49.41921" lon="0.42416">
        <ele>12.9</ele>
        <time>2023-09-03T09:42:20Z</time>
      </trkpt>
      <trkpt lat="49.41914" lon="0.42414">
        <ele>12.9</ele>
        <time>2023-09-03T09:42:21Z</time>
      </trkpt>
      <trkpt lat="49.41906" lon="0.42412">
        <ele>12.9</ele>
        <time>2023-09-03T09:42:22Z</time>
      </trkpt>
      <trkpt lat="49.41898" lon="0.4241">
        <ele>12.8</ele>
        <time>2023-09-03T09:42:23Z</time>
      </trkpt>
      <trkpt lat="49.4189" lon="0.42408">
        <ele>12.8</ele>
        <time>2023-09-03T09:42:24Z</time>
      </trkpt>
      <trkpt lat="49.41882" lon="0.42406">
        <ele>12.7</ele>
        <time>2023-09-03T09:42:25Z</time>
      </trkpt>
      <trkpt lat="49.41874" lon="0.42404">
        <ele>12.6</ele>
        <time>2023-09-03T09:42:26Z</time>
      </trkpt>
      <trkpt lat="49.41867" lon="0.42403">
        <ele>12.5</ele>
        <time>2023-09-03T09:42:27Z</time>
      </trkpt>
      <trkpt lat="49.41859" lon="0.42401">
        <ele>12.3</ele>
        <time>2023-09-03T09:42:28Z</time>
      </trkpt>
      <trkpt lat="49.41851" lon="0.424">
        <ele>12.2</ele>
        <time>2023-09-03T09:42:29Z</time>
      </trkpt>
      <trkpt lat="49.41843" lon="0.42398">
        <ele>12</ele>
        <time>2023-09-03T09:42:30Z</time>
      </trkpt>
      <trkpt lat="49.41834" lon="0.42395">
        <ele>11.9</ele>
        <time>2023-09-03T09:42:31Z</time>
      </trkpt>
      <trkpt lat="49.41825" lon="0.42394">
        <ele>11.7</ele>
        <time>2023-09-03T09:42:32Z</time>
      </trkpt>
      <trkpt lat="49.41817" lon="0.42392">
        <ele>11.5</ele>
        <time>2023-09-03T09:42:33Z</time>
      </trkpt>
      <trkpt lat="49.41808" lon="0.4239">
        <ele>11.3</ele>
        <time>2023-09-03T09:42:34Z</time>
      </trkpt>
      <trkpt lat="49.41799" lon="0.42388">
        <ele>11</ele>
        <time>2023-09-03T09:42:35Z</time>
      </trkpt>
      <trkpt lat="49.4179" lon="0.42385">
        <ele>10.7</ele>
        <time>2023-09-03T09:42:36Z</time>
      </trkpt>
      <trkpt lat="49.41781" lon="0.42383">
        <ele>10.4</ele>
        <time>2023-09-03T09:42:37Z</time>
      </trkpt>
      <trkpt lat="49.41772" lon="0.42381">
        <ele>10.1</ele>
        <time>2023-09-03T09:42:38Z</time>
      </trkpt>
      <trkpt lat="49.41762" lon="0.4238">
        <ele>9.8</ele>
        <time>2023-09-03T09:42:39Z</time>
      </trkpt>
      <trkpt lat="49.41753" lon="0.42378">
        <ele>9.4</ele>
        <time>2023-09-03T09:42:40Z</time>
      </trkpt>
      <trkpt lat="49.41743" lon="0.42376">
        <ele>9.1</ele>
        <time>2023-09-03T09:42:41Z</time>
      </trkpt>
      <trkpt lat="49.41734" lon="0.42374">
        <ele>8.7</ele>
        <time>2023-09-03T09:42:42Z</time>
      </trkpt>
      <trkpt lat="49.41724" lon="0.42373">
        <ele>8.3</ele>
        <time>2023-09-03T09:42:43Z</time>
      </trkpt>
      <trkpt lat="49.41714" lon="0.42371">
        <ele>8</ele>
        <time>2023-09-03T09:42:44Z</time>
      </trkpt>
      <trkpt lat="49.41704" lon="0.4237">
        <ele>7.7</ele>
        <time>2023-09-03T09:42:45Z</time>
      </trkpt>
      <trkpt lat="49.41695" lon="0.42369">
        <ele>7.4</ele>
        <time>2023-09-03T09:42:46Z</time>
      </trkpt>
      <trkpt lat="49.41685" lon="0.42367">
        <ele>7.1</ele>
        <time>2023-09-03T09:42:47Z</time>
      </trkpt>
      <trkpt lat="49.41675" lon="0.42366">
        <ele>6.8</ele>
        <time>2023-09-03T09:42:48Z</time>
      </trkpt>
      <trkpt lat="49.41666" lon="0.42366">
        <ele>6.5</ele>
        <time>2023-09-03T09:42:49Z</time>
      </trkpt>
      <trkpt lat="49.41656" lon="0.42365">
        <ele>6.3</ele>
        <time>2023-09-03T09:42:50Z</time>
      </trkpt>
      <trkpt lat="49.41646" lon="0.42364">
        <ele>6</ele>
        <time>2023-09-03T09:42:51Z</time>
      </trkpt>
      <trkpt lat="49.41636" lon="0.42364">
        <ele>5.8</ele>
        <time>2023-09-03T09:42:52Z</time>
      </trkpt>
      <trkpt lat="49.41626" lon="0.42363">
        <ele>5.5</ele>
        <time>2023-09-03T09:42:53Z</time>
      </trkpt>
      <trkpt lat="49.41617" lon="0.42363">
        <ele>5.3</ele>
        <time>2023-09-03T09:42:54Z</time>
      </trkpt>
      <trkpt lat="49.41607" lon="0.42363">
        <ele>5.1</ele>
        <time>2023-09-03T09:42:55Z</time>
      </trkpt>
      <trkpt lat="49.41597" lon="0.42363">
        <ele>4.9</ele>
        <time>2023-09-03T09:42:56Z</time>
      </trkpt>
      <trkpt lat="49.41587" lon="0.42363">
        <ele>4.7</ele>
        <time>2023-09-03T09:42:57Z</time>
      </trkpt>
      <trkpt lat="49.41577" lon="0.42363">
        <ele>4.6</ele>
        <time>2023-09-03T09:42:58Z</time>
      </trkpt>
      <trkpt lat="49.41567" lon="0.42363">
        <ele>4.5</ele>
        <time>2023-09-03T09:42:59Z</time>
      </trkpt>
      <trkpt lat="49.41558" lon="0.42363">
        <ele>4.4</ele>
        <time>2023-09-03T09:43:00Z</time>
      </trkpt>
      <trkpt lat="49.41549" lon="0.42363">
        <ele>4.3</ele>
        <time>2023-09-03T09:43:01Z</time>
      </trkpt>
      <trkpt lat="49.41539" lon="0.42363">
        <ele>4.3</ele>
        <time>2023-09-03T09:43:02Z</time>
      </trkpt>
      <trkpt lat="49.4153" lon="0.42364">
        <ele>4.3</ele>
        <time>2023-09-03T09:43:03Z</time>
      </trkpt>
      <trkpt lat="49.41521" lon="0.42364">
        <ele>4.3</ele>
        <time>2023-09-03T09:43:04Z</time>
      </trkpt>
      <trkpt lat="49.41512" lon="0.42364">
        <ele>4.3</ele>
        <time>2023-09-03T09:43:05Z</time>
      </trkpt>
      <trkpt lat="49.41503" lon="0.42365">
        <ele>4.3</ele>
        <time>2023-09-03T09:43:06Z</time>
      </trkpt>
      <trkpt lat="49.41494" lon="0.42365">
        <ele>4.3</ele>
        <time>2023-09-03T09:43:07Z</time>
      </trkpt>
      <trkpt lat="49.41485" lon="0.42365">
        <ele>4.3</ele>
        <time>2023-09-03T09:43:08Z</time>
      </trkpt>
      <trkpt lat="49.41476" lon="0.42365">
        <ele>4.3</ele>
        <time>2023-09-03T09:43:09Z</time>
      </trkpt>
      <trkpt lat="49.41466" lon="0.42366">
        <ele>4.3</ele>
        <time>2023-09-03T09:43:10Z</time>
      </trkpt>
      <trkpt lat="49.41457" lon="0.42366">
        <ele>4.3</ele>
        <time>2023-09-03T09:43:11Z</time>
      </trkpt>
      <trkpt lat="49.41448" lon="0.42367">
        <ele>4.3</ele>
        <time>2023-09-03T09:43:12Z</time>
      </trkpt>
      <trkpt lat="49.41439" lon="0.42367">
        <ele>4.3</ele>
        <time>2023-09-03T09:43:13Z</time>
      </trkpt>
      <trkpt lat="49.4143" lon="0.42368">
        <ele>4.4</ele>
        <time>2023-09-03T09:43:14Z</time>
      </trkpt>
      <trkpt lat="49.41421" lon="0.4237">
        <ele>4.4</ele>
        <time>2023-09-03T09:43:15Z</time>
      </trkpt>
      <trkpt lat="49.41413" lon="0.42371">
        <ele>4.4</ele>
        <time>2023-09-03T09:43:16Z</time>
      </trkpt>
      <trkpt lat="49.41404" lon="0.42372">
        <ele>4.4</ele>
        <time>2023-09-03T09:43:17Z</time>
      </trkpt>
      <trkpt lat="49.41396" lon="0.42374">
        <ele>4.5</ele>
        <time>2023-09-03T09:43:18Z</time>
      </trkpt>
      <trkpt lat="49.41387" lon="0.42375">
        <ele>4.5</ele>
        <time>2023-09-03T09:43:19Z</time>
      </trkpt>
      <trkpt lat="49.41379" lon="0.42376">
        <ele>4.5</ele>
        <time>2023-09-03T09:43:20Z</time>
      </trkpt>
      <trkpt lat="49.41371" lon="0.42377">
        <ele>4.6</ele>
        <time>2023-09-03T09:43:21Z</time>
      </trkpt>
      <trkpt lat="49.41363" lon="0.42378">
        <ele>4.6</ele>
        <time>2023-09-03T09:43:22Z</time>
      </trkpt>
      <trkpt lat="49.41354" lon="0.42379">
        <ele>4.6</ele>
        <time>2023-09-03T09:43:23Z</time>
      </trkpt>
      <trkpt lat="49.41346" lon="0.4238">
        <ele>4.6</ele>
        <time>2023-09-03T09:43:24Z</time>
      </trkpt>
      <trkpt lat="49.41338" lon="0.42381">
        <ele>4.7</ele>
        <time>2023-09-03T09:43:25Z</time>
      </trkpt>
      <trkpt lat="49.41329" lon="0.42383">
        <ele>4.7</ele>
        <time>2023-09-03T09:43:26Z</time>
      </trkpt>
      <trkpt lat="49.41321" lon="0.42384">
        <ele>4.7</ele>
        <time>2023-09-03T09:43:27Z</time>
      </trkpt>
      <trkpt lat="49.41313" lon="0.42385">
        <ele>4.7</ele>
        <time>2023-09-03T09:43:28Z</time>
      </trkpt>
      <trkpt lat="49.41304" lon="0.42387">
        <ele>4.8</ele>
        <time>2023-09-03T09:43:29Z</time>
      </trkpt>
      <trkpt lat="49.41296" lon="0.42389">
        <ele>4.8</ele>
        <time>2023-09-03T09:43:30Z</time>
      </trkpt>
      <trkpt lat="49.41288" lon="0.42391">
        <ele>4.9</ele>
        <time>2023-09-03T09:43:31Z</time>
      </trkpt>
      <trkpt lat="49.4128" lon="0.42393">
        <ele>4.9</ele>
        <time>2023-09-03T09:43:32Z</time>
      </trkpt>
      <trkpt lat="49.41272" lon="0.42395">
        <ele>4.8</ele>
        <time>2023-09-03T09:43:33Z</time>
      </trkpt>
      <trkpt lat="49.41264" lon="0.42396">
        <ele>4.8</ele>
        <time>2023-09-03T09:43:34Z</time>
      </trkpt>
      <trkpt lat="49.41256" lon="0.42398">
        <ele>4.7</ele>
        <time>2023-09-03T09:43:35Z</time>
      </trkpt>
      <trkpt lat="49.41248" lon="0.42399">
        <ele>4.7</ele>
        <time>2023-09-03T09:43:36Z</time>
      </trkpt>
      <trkpt lat="49.4124" lon="0.42401">
        <ele>4.7</ele>
        <time>2023-09-03T09:43:37Z</time>
      </trkpt>
      <trkpt lat="49.41233" lon="0.42403">
        <ele>4.7</ele>
        <time>2023-09-03T09:43:38Z</time>
      </trkpt>
      <trkpt lat="49.41225" lon="0.42404">
        <ele>4.6</ele>
        <time>2023-09-03T09:43:39Z</time>
      </trkpt>
      <trkpt lat="49.41217" lon="0.42406">
        <ele>4.7</ele>
        <time>2023-09-03T09:43:40Z</time>
      </trkpt>
      <trkpt lat="49.41209" lon="0.42408">
        <ele>4.7</ele>
        <time>2023-09-03T09:43:41Z</time>
      </trkpt>
      <trkpt lat="49.41201" lon="0.42409">
        <ele>4.7</ele>
        <time>2023-09-03T09:43:42Z</time>
      </trkpt>
      <trkpt lat="49.41194" lon="0.42411">
        <ele>4.7</ele>
        <time>2023-09-03T09:43:43Z</time>
      </trkpt>
      <trkpt lat="49.41186" lon="0.42412">
        <ele>4.8</ele>
        <time>2023-09-03T09:43:44Z</time>
      </trkpt>
      <trkpt lat="49.41179" lon="0.42414">
        <ele>4.8</ele>
        <time>2023-09-03T09:43:45Z</time>
      </trkpt>
      <trkpt lat="49.41171" lon="0.42415">
        <ele>4.8</ele>
        <time>2023-09-03T09:43:46Z</time>
      </trkpt>
      <trkpt lat="49.41163" lon="0.42417">
        <ele>4.8</ele>
        <time>2023-09-03T09:43:47Z</time>
      </trkpt>
      <trkpt lat="49.41155" lon="0.42419">
        <ele>4.8</ele>
        <time>2023-09-03T09:43:48Z</time>
      </trkpt>
      <trkpt lat="49.41147" lon="0.42421">
        <ele>4.8</ele>
        <time>2023-09-03T09:43:49Z</time>
      </trkpt>
      <trkpt lat="49.41139" lon="0.42423">
        <ele>4.8</ele>
        <time>2023-09-03T09:43:50Z</time>
      </trkpt>
      <trkpt lat="49.41131" lon="0.42424">
        <ele>4.8</ele>
        <time>2023-09-03T09:43:51Z</time>
      </trkpt>
      <trkpt lat="49.41124" lon="0.42426">
        <ele>4.8</ele>
        <time>2023-09-03T09:43:52Z</time>
      </trkpt>
      <trkpt lat="49.41116" lon="0.42427">
        <ele>4.8</ele>
        <time>2023-09-03T09:43:53Z</time>
      </trkpt>
      <trkpt lat="49.41108" lon="0.42429">
        <ele>4.8</ele>
        <time>2023-09-03T09:43:54Z</time>
      </trkpt>
      <trkpt lat="49.411" lon="0.42431">
        <ele>4.9</ele>
        <time>2023-09-03T09:43:55Z</time>
      </trkpt>
      <trkpt lat="49.41091" lon="0.42432">
        <ele>5</ele>
        <time>2023-09-03T09:43:56Z</time>
      </trkpt>
      <trkpt lat="49.41083" lon="0.42434">
        <ele>5</ele>
        <time>2023-09-03T09:43:57Z</time>
      </trkpt>
      <trkpt lat="49.41074" lon="0.42436">
        <ele>4.9</ele>
        <time>2023-09-03T09:43:58Z</time>
      </trkpt>
      <trkpt lat="49.41065" lon="0.42438">
        <ele>4.9</ele>
        <time>2023-09-03T09:43:59Z</time>
      </trkpt>
      <trkpt lat="49.41057" lon="0.4244">
        <ele>4.9</ele>
        <time>2023-09-03T09:44:00Z</time>
      </trkpt>
      <trkpt lat="49.41048" lon="0.42442">
        <ele>4.9</ele>
        <time>2023-09-03T09:44:01Z</time>
      </trkpt>
      <trkpt lat="49.4104" lon="0.42444">
        <ele>4.9</ele>
        <time>2023-09-03T09:44:02Z</time>
      </trkpt>
      <trkpt lat="49.41031" lon="0.42446">
        <ele>4.9</ele>
        <time>2023-09-03T09:44:03Z</time>
      </trkpt>
      <trkpt lat="49.41023" lon="0.42448">
        <ele>4.9</ele>
        <time>2023-09-03T09:44:04Z</time>
      </trkpt>
      <trkpt lat="49.41015" lon="0.4245">
        <ele>4.9</ele>
        <time>2023-09-03T09:44:05Z</time>
      </trkpt>
      <trkpt lat="49.41006" lon="0.42451">
        <ele>4.9</ele>
        <time>2023-09-03T09:44:06Z</time>
      </trkpt>
      <trkpt lat="49.40998" lon="0.42453">
        <ele>4.9</ele>
        <time>2023-09-03T09:44:07Z</time>
      </trkpt>
      <trkpt lat="49.40989" lon="0.42455">
        <ele>4.9</ele>
        <time>2023-09-03T09:44:08Z</time>
      </trkpt>
      <trkpt lat="49.40981" lon="0.42457">
        <ele>4.9</ele>
        <time>2023-09-03T09:44:09Z</time>
      </trkpt>
      <trkpt lat="49.40972" lon="0.42459">
        <ele>4.9</ele>
        <time>2023-09-03T09:44:10Z</time>
      </trkpt>
      <trkpt lat="49.40963" lon="0.42461">
        <ele>4.9</ele>
        <time>2023-09-03T09:44:11Z</time>
      </trkpt>
      <trkpt lat="49.40955" lon="0.42463">
        <ele>4.9</ele>
        <time>2023-09-03T09:44:12Z</time>
      </trkpt>
      <trkpt lat="49.40946" lon="0.42465">
        <ele>4.9</ele>
        <time>2023-09-03T09:44:13Z</time>
      </trkpt>
      <trkpt lat="49.40938" lon="0.42467">
        <ele>4.9</ele>
        <time>2023-09-03T09:44:14Z</time>
      </trkpt>
      <trkpt lat="49.40929" lon="0.42468">
        <ele>4.9</ele>
        <time>2023-09-03T09:44:15Z</time>
      </trkpt>
      <trkpt lat="49.4092" lon="0.4247">
        <ele>4.8</ele>
        <time>2023-09-03T09:44:16Z</time>
      </trkpt>
      <trkpt lat="49.40911" lon="0.42472">
        <ele>4.8</ele>
        <time>2023-09-03T09:44:17Z</time>
      </trkpt>
      <trkpt lat="49.40902" lon="0.42474">
        <ele>4.8</ele>
        <time>2023-09-03T09:44:18Z</time>
      </trkpt>
      <trkpt lat="49.40893" lon="0.42476">
        <ele>4.8</ele>
        <time>2023-09-03T09:44:19Z</time>
      </trkpt>
      <trkpt lat="49.40884" lon="0.42477">
        <ele>4.8</ele>
        <time>2023-09-03T09:44:20Z</time>
      </trkpt>
      <trkpt lat="49.40875" lon="0.42479">
        <ele>4.8</ele>
        <time>2023-09-03T09:44:21Z</time>
      </trkpt>
      <trkpt lat="49.40865" lon="0.42481">
        <ele>4.8</ele>
        <time>2023-09-03T09:44:22Z</time>
      </trkpt>
      <trkpt lat="49.40856" lon="0.42483">
        <ele>4.8</ele>
        <time>2023-09-03T09:44:23Z</time>
      </trkpt>
      <trkpt lat="49.40846" lon="0.42486">
        <ele>4.8</ele>
        <time>2023-09-03T09:44:24Z</time>
      </trkpt>
      <trkpt lat="49.40836" lon="0.42488">
        <ele>4.8</ele>
        <time>2023-09-03T09:44:25Z</time>
      </trkpt>
      <trkpt lat="49.40827" lon="0.4249">
        <ele>4.8</ele>
        <time>2023-09-03T09:44:26Z</time>
      </trkpt>
      <trkpt lat="49.40817" lon="0.42491">
        <ele>4.8</ele>
        <time>2023-09-03T09:44:27Z</time>
      </trkpt>
      <trkpt lat="49.40808" lon="0.42493">
        <ele>4.8</ele>
        <time>2023-09-03T09:44:28Z</time>
      </trkpt>
      <trkpt lat="49.40799" lon="0.42494">
        <ele>4.8</ele>
        <time>2023-09-03T09:44:29Z</time>
      </trkpt>
      <trkpt lat="49.40791" lon="0.42496">
        <ele>4.8</ele>
        <time>2023-09-03T09:44:30Z</time>
      </trkpt>
      <trkpt lat="49.40783" lon="0.42498">
        <ele>4.8</ele>
        <time>2023-09-03T09:44:31Z</time>
      </trkpt>
      <trkpt lat="49.40775" lon="0.425">
        <ele>4.8</ele>
        <time>2023-09-03T09:44:32Z</time>
      </trkpt>
      <trkpt lat="49.40767" lon="0.42501">
        <ele>4.8</ele>
        <time>2023-09-03T09:44:33Z</time>
      </trkpt>
      <trkpt lat="49.40759" lon="0.42503">
        <ele>4.7</ele>
        <time>2023-09-03T09:44:34Z</time>
      </trkpt>
      <trkpt lat="49.40751" lon="0.42505">
        <ele>4.7</ele>
        <time>2023-09-03T09:44:35Z</time>
      </trkpt>
      <trkpt lat="49.40743" lon="0.42507">
        <ele>4.7</ele>
        <time>2023-09-03T09:44:36Z</time>
      </trkpt>
      <trkpt lat="49.40735" lon="0.42508">
        <ele>4.8</ele>
        <time>2023-09-03T09:44:37Z</time>
      </trkpt>
      <trkpt lat="49.40727" lon="0.4251">
        <ele>4.7</ele>
        <time>2023-09-03T09:44:38Z</time>
      </trkpt>
      <trkpt lat="49.40719" lon="0.42513">
        <ele>4.7</ele>
        <time>2023-09-03T09:44:39Z</time>
      </trkpt>
      <trkpt lat="49.4071" lon="0.42515">
        <ele>4.7</ele>
        <time>2023-09-03T09:44:40Z</time>
      </trkpt>
      <trkpt lat="49.40702" lon="0.42517">
        <ele>4.7</ele>
        <time>2023-09-03T09:44:41Z</time>
      </trkpt>
      <trkpt lat="49.40693" lon="0.42519">
        <ele>4.7</ele>
        <time>2023-09-03T09:44:42Z</time>
      </trkpt>
      <trkpt lat="49.40685" lon="0.42521">
        <ele>4.7</ele>
        <time>2023-09-03T09:44:43Z</time>
      </trkpt>
      <trkpt lat="49.40678" lon="0.42522">
        <ele>4.7</ele>
        <time>2023-09-03T09:44:44Z</time>
      </trkpt>
      <trkpt lat="49.4067" lon="0.42523">
        <ele>4.7</ele>
        <time>2023-09-03T09:44:45Z</time>
      </trkpt>
      <trkpt lat="49.40662" lon="0.42524">
        <ele>4.7</ele>
        <time>2023-09-03T09:44:46Z</time>
      </trkpt>
      <trkpt lat="49.40654" lon="0.42526">
        <ele>4.7</ele>
        <time>2023-09-03T09:44:47Z</time>
      </trkpt>
      <trkpt lat="49.40647" lon="0.42527">
        <ele>4.7</ele>
        <time>2023-09-03T09:44:48Z</time>
      </trkpt>
      <trkpt lat="49.40639" lon="0.42529">
        <ele>4.7</ele>
        <time>2023-09-03T09:44:49Z</time>
      </trkpt>
      <trkpt lat="49.40631" lon="0.4253">
        <ele>4.7</ele>
        <time>2023-09-03T09:44:50Z</time>
      </trkpt>
      <trkpt lat="49.40623" lon="0.42531">
        <ele>4.7</ele>
        <time>2023-09-03T09:44:51Z</time>
      </trkpt>
      <trkpt lat="49.40616" lon="0.42533">
        <ele>4.7</ele>
        <time>2023-09-03T09:44:52Z</time>
      </trkpt>
      <trkpt lat="49.40608" lon="0.42535">
        <ele>4.7</ele>
        <time>2023-09-03T09:44:53Z</time>
      </trkpt>
      <trkpt lat="49.40601" lon="0.42537">
        <ele>4.7</ele>
        <time>2023-09-03T09:44:54Z</time>
      </trkpt>
      <trkpt lat="49.40593" lon="0.42538">
        <ele>4.7</ele>
        <time>2023-09-03T09:44:55Z</time>
      </trkpt>
      <trkpt lat="49.40586" lon="0.4254">
        <ele>4.7</ele>
        <time>2023-09-03T09:44:56Z</time>
      </trkpt>
      <trkpt lat="49.40578" lon="0.42541">
        <ele>4.7</ele>
        <time>2023-09-03T09:44:57Z</time>
      </trkpt>
      <trkpt lat="49.40571" lon="0.42543">
        <ele>4.8</ele>
        <time>2023-09-03T09:44:58Z</time>
      </trkpt>
      <trkpt lat="49.40563" lon="0.42544">
        <ele>4.8</ele>
        <time>2023-09-03T09:44:59Z</time>
      </trkpt>
      <trkpt lat="49.40556" lon="0.42546">
        <ele>4.8</ele>
        <time>2023-09-03T09:45:00Z</time>
      </trkpt>
      <trkpt lat="49.40548" lon="0.42547">
        <ele>4.9</ele>
        <time>2023-09-03T09:45:01Z</time>
      </trkpt>
      <trkpt lat="49.4054" lon="0.42549">
        <ele>4.9</ele>
        <time>2023-09-03T09:45:02Z</time>
      </trkpt>
      <trkpt lat="49.40533" lon="0.42551">
        <ele>4.9</ele>
        <time>2023-09-03T09:45:03Z</time>
      </trkpt>
      <trkpt lat="49.40526" lon="0.42552">
        <ele>4.9</ele>
        <time>2023-09-03T09:45:04Z</time>
      </trkpt>
      <trkpt lat="49.40519" lon="0.42554">
        <ele>5</ele>
        <time>2023-09-03T09:45:05Z</time>
      </trkpt>
      <trkpt lat="49.40511" lon="0.42556">
        <ele>5</ele>
        <time>2023-09-03T09:45:06Z</time>
      </trkpt>
      <trkpt lat="49.40504" lon="0.42557">
        <ele>5</ele>
        <time>2023-09-03T09:45:07Z</time>
      </trkpt>
      <trkpt lat="49.40497" lon="0.42559">
        <ele>5</ele>
        <time>2023-09-03T09:45:08Z</time>
      </trkpt>
      <trkpt lat="49.4049" lon="0.4256">
        <ele>5.1</ele>
        <time>2023-09-03T09:45:09Z</time>
      </trkpt>
      <trkpt lat="49.40482" lon="0.42561">
        <ele>5.1</ele>
        <time>2023-09-03T09:45:10Z</time>
      </trkpt>
      <trkpt lat="49.40475" lon="0.42563">
        <ele>5.1</ele>
        <time>2023-09-03T09:45:11Z</time>
      </trkpt>
      <trkpt lat="49.40467" lon="0.42564">
        <ele>5.2</ele>
        <time>2023-09-03T09:45:12Z</time>
      </trkpt>
      <trkpt lat="49.4046" lon="0.42566">
        <ele>5.2</ele>
        <time>2023-09-03T09:45:13Z</time>
      </trkpt>
      <trkpt lat="49.40452" lon="0.42567">
        <ele>5.2</ele>
        <time>2023-09-03T09:45:14Z</time>
      </trkpt>
      <trkpt lat="49.40445" lon="0.42569">
        <ele>5.2</ele>
        <time>2023-09-03T09:45:15Z</time>
      </trkpt>
      <trkpt lat="49.40438" lon="0.42571">
        <ele>5.2</ele>
        <time>2023-09-03T09:45:16Z</time>
      </trkpt>
      <trkpt lat="49.4043" lon="0.42573">
        <ele>5.2</ele>
        <time>2023-09-03T09:45:17Z</time>
      </trkpt>
      <trkpt lat="49.40423" lon="0.42574">
        <ele>5.2</ele>
        <time>2023-09-03T09:45:18Z</time>
      </trkpt>
      <trkpt lat="49.40416" lon="0.42576">
        <ele>5.2</ele>
        <time>2023-09-03T09:45:19Z</time>
      </trkpt>
      <trkpt lat="49.40409" lon="0.42577">
        <ele>5.2</ele>
        <time>2023-09-03T09:45:20Z</time>
      </trkpt>
      <trkpt lat="49.40402" lon="0.42579">
        <ele>5.2</ele>
        <time>2023-09-03T09:45:21Z</time>
      </trkpt>
      <trkpt lat="49.40394" lon="0.4258">
        <ele>5.2</ele>
        <time>2023-09-03T09:45:22Z</time>
      </trkpt>
      <trkpt lat="49.40387" lon="0.42582">
        <ele>5.2</ele>
        <time>2023-09-03T09:45:23Z</time>
      </trkpt>
      <trkpt lat="49.40379" lon="0.42583">
        <ele>5.2</ele>
        <time>2023-09-03T09:45:24Z</time>
      </trkpt>
      <trkpt lat="49.40372" lon="0.42585">
        <ele>5.2</ele>
        <time>2023-09-03T09:45:25Z</time>
      </trkpt>
      <trkpt lat="49.40364" lon="0.42586">
        <ele>5.2</ele>
        <time>2023-09-03T09:45:26Z</time>
      </trkpt>
      <trkpt lat="49.40357" lon="0.42587">
        <ele>5.1</ele>
        <time>2023-09-03T09:45:27Z</time>
      </trkpt>
      <trkpt lat="49.4035" lon="0.42588">
        <ele>5.1</ele>
        <time>2023-09-03T09:45:28Z</time>
      </trkpt>
      <trkpt lat="49.40342" lon="0.42589">
        <ele>5.1</ele>
        <time>2023-09-03T09:45:29Z</time>
      </trkpt>
      <trkpt lat="49.40334" lon="0.42589">
        <ele>5</ele>
        <time>2023-09-03T09:45:30Z</time>
      </trkpt>
      <trkpt lat="49.40327" lon="0.42589">
        <ele>5</ele>
        <time>2023-09-03T09:45:31Z</time>
      </trkpt>
      <trkpt lat="49.40319" lon="0.42589">
        <ele>5</ele>
        <time>2023-09-03T09:45:32Z</time>
      </trkpt>
      <trkpt lat="49.40312" lon="0.42589">
        <ele>5</ele>
        <time>2023-09-03T09:45:33Z</time>
      </trkpt>
      <trkpt lat="49.40304" lon="0.42588">
        <ele>5</ele>
        <time>2023-09-03T09:45:34Z</time>
      </trkpt>
      <trkpt lat="49.40296" lon="0.42588">
        <ele>5</ele>
        <time>2023-09-03T09:45:35Z</time>
      </trkpt>
      <trkpt lat="49.40289" lon="0.42587">
        <ele>5</ele>
        <time>2023-09-03T09:45:36Z</time>
      </trkpt>
      <trkpt lat="49.40282" lon="0.42586">
        <ele>5</ele>
        <time>2023-09-03T09:45:37Z</time>
      </trkpt>
      <trkpt lat="49.40275" lon="0.42585">
        <ele>5</ele>
        <time>2023-09-03T09:45:38Z</time>
      </trkpt>
      <trkpt lat="49.40267" lon="0.42584">
        <ele>5.1</ele>
        <time>2023-09-03T09:45:39Z</time>
      </trkpt>
      <trkpt lat="49.4026" lon="0.42582">
        <ele>5.1</ele>
        <time>2023-09-03T09:45:40Z</time>
      </trkpt>
      <trkpt lat="49.40252" lon="0.4258">
        <ele>5.1</ele>
        <time>2023-09-03T09:45:41Z</time>
      </trkpt>
      <trkpt lat="49.40245" lon="0.42577">
        <ele>5.1</ele>
        <time>2023-09-03T09:45:42Z</time>
      </trkpt>
      <trkpt lat="49.40238" lon="0.42575">
        <ele>5.1</ele>
        <time>2023-09-03T09:45:43Z</time>
      </trkpt>
      <trkpt lat="49.4023" lon="0.42573">
        <ele>5.2</ele>
        <time>2023-09-03T09:45:44Z</time>
      </trkpt>
      <trkpt lat="49.40223" lon="0.42571">
        <ele>5.2</ele>
        <time>2023-09-03T09:45:45Z</time>
      </trkpt>
      <trkpt lat="49.40216" lon="0.42568">
        <ele>5.1</ele>
        <time>2023-09-03T09:45:46Z</time>
      </trkpt>
      <trkpt lat="49.40209" lon="0.42565">
        <ele>5.1</ele>
        <time>2023-09-03T09:45:47Z</time>
      </trkpt>
      <trkpt lat="49.40202" lon="0.42561">
        <ele>5.2</ele>
        <time>2023-09-03T09:45:48Z</time>
      </trkpt>
      <trkpt lat="49.40195" lon="0.42556">
        <ele>5.2</ele>
        <time>2023-09-03T09:45:49Z</time>
      </trkpt>
      <trkpt lat="49.40189" lon="0.4255">
        <ele>5.3</ele>
        <time>2023-09-03T09:45:50Z</time>
      </trkpt>
      <trkpt lat="49.40183" lon="0.42543">
        <ele>5.3</ele>
        <time>2023-09-03T09:45:51Z</time>
      </trkpt>
      <trkpt lat="49.40178" lon="0.42535">
        <ele>5.4</ele>
        <time>2023-09-03T09:45:52Z</time>
      </trkpt>
      <trkpt lat="49.40175" lon="0.42525">
        <ele>5.5</ele>
        <time>2023-09-03T09:45:53Z</time>
      </trkpt>
      <trkpt lat="49.40173" lon="0.42516">
        <ele>5.6</ele>
        <time>2023-09-03T09:45:54Z</time>
      </trkpt>
      <trkpt lat="49.40171" lon="0.42506">
        <ele>5.8</ele>
        <time>2023-09-03T09:45:55Z</time>
      </trkpt>
      <trkpt lat="49.4017" lon="0.42496">
        <ele>5.9</ele>
        <time>2023-09-03T09:45:56Z</time>
      </trkpt>
      <trkpt lat="49.4017" lon="0.42487">
        <ele>6</ele>
        <time>2023-09-03T09:45:57Z</time>
      </trkpt>
      <trkpt lat="49.40169" lon="0.42479">
        <ele>6</ele>
        <time>2023-09-03T09:45:58Z</time>
      </trkpt>
      <trkpt lat="49.40167" lon="0.42473">
        <ele>6.1</ele>
        <time>2023-09-03T09:45:59Z</time>
      </trkpt>
      <trkpt lat="49.40161" lon="0.42469">
        <ele>6.1</ele>
        <time>2023-09-03T09:46:00Z</time>
      </trkpt>
      <trkpt lat="49.40155" lon="0.42466">
        <ele>6.1</ele>
        <time>2023-09-03T09:46:01Z</time>
      </trkpt>
      <trkpt lat="49.4015" lon="0.42464">
        <ele>6.1</ele>
        <time>2023-09-03T09:46:02Z</time>
      </trkpt>
      <trkpt lat="49.40144" lon="0.42462">
        <ele>6.1</ele>
        <time>2023-09-03T09:46:03Z</time>
      </trkpt>
      <trkpt lat="49.40138" lon="0.42458">
        <ele>6.1</ele>
        <time>2023-09-03T09:46:04Z</time>
      </trkpt>
      <trkpt lat="49.40133" lon="0.42453">
        <ele>6.1</ele>
        <time>2023-09-03T09:46:05Z</time>
      </trkpt>
      <trkpt lat="49.40128" lon="0.42448">
        <ele>6.2</ele>
        <time>2023-09-03T09:46:06Z</time>
      </trkpt>
      <trkpt lat="49.40123" lon="0.42443">
        <ele>6.2</ele>
        <time>2023-09-03T09:46:07Z</time>
      </trkpt>
      <trkpt lat="49.40118" lon="0.42438">
        <ele>6.2</ele>
        <time>2023-09-03T09:46:08Z</time>
      </trkpt>
      <trkpt lat="49.40113" lon="0.42433">
        <ele>6.3</ele>
        <time>2023-09-03T09:46:09Z</time>
      </trkpt>
      <trkpt lat="49.40107" lon="0.42427">
        <ele>6.3</ele>
        <time>2023-09-03T09:46:10Z</time>
      </trkpt>
      <trkpt lat="49.40102" lon="0.42422">
        <ele>6.4</ele>
        <time>2023-09-03T09:46:11Z</time>
      </trkpt>
      <trkpt lat="49.40096" lon="0.42417">
        <ele>6.5</ele>
        <time>2023-09-03T09:46:12Z</time>
      </trkpt>
      <trkpt lat="49.4009" lon="0.42413">
        <ele>6.6</ele>
        <time>2023-09-03T09:46:13Z</time>
      </trkpt>
      <trkpt lat="49.40084" lon="0.42408">
        <ele>6.7</ele>
        <time>2023-09-03T09:46:14Z</time>
      </trkpt>
      <trkpt lat="49.40079" lon="0.42402">
        <ele>6.8</ele>
        <time>2023-09-03T09:46:15Z</time>
      </trkpt>
      <trkpt lat="49.40074" lon="0.42395">
        <ele>7.1</ele>
        <time>2023-09-03T09:46:16Z</time>
      </trkpt>
      <trkpt lat="49.40069" lon="0.42389">
        <ele>7.2</ele>
        <time>2023-09-03T09:46:17Z</time>
      </trkpt>
      <trkpt lat="49.40065" lon="0.42382">
        <ele>7.2</ele>
        <time>2023-09-03T09:46:18Z</time>
      </trkpt>
      <trkpt lat="49.40061" lon="0.42375">
        <ele>7.2</ele>
        <time>2023-09-03T09:46:19Z</time>
      </trkpt>
      <trkpt lat="49.40057" lon="0.42367">
        <ele>7.1</ele>
        <time>2023-09-03T09:46:20Z</time>
      </trkpt>
      <trkpt lat="49.40053" lon="0.42359">
        <ele>6.9</ele>
        <time>2023-09-03T09:46:21Z</time>
      </trkpt>
      <trkpt lat="49.40048" lon="0.42351">
        <ele>6.9</ele>
        <time>2023-09-03T09:46:22Z</time>
      </trkpt>
      <trkpt lat="49.40044" lon="0.42344">
        <ele>6.8</ele>
        <time>2023-09-03T09:46:23Z</time>
      </trkpt>
      <trkpt lat="49.4004" lon="0.42337">
        <ele>6.8</ele>
        <time>2023-09-03T09:46:24Z</time>
      </trkpt>
      <trkpt lat="49.40036" lon="0.4233">
        <ele>6.8</ele>
        <time>2023-09-03T09:46:25Z</time>
      </trkpt>
      <trkpt lat="49.40032" lon="0.42323">
        <ele>6.7</ele>
        <time>2023-09-03T09:46:26Z</time>
      </trkpt>
      <trkpt lat="49.40028" lon="0.42316">
        <ele>6.7</ele>
        <time>2023-09-03T09:46:27Z</time>
      </trkpt>
      <trkpt lat="49.40024" lon="0.42309">
        <ele>6.7</ele>
        <time>2023-09-03T09:46:28Z</time>
      </trkpt>
      <trkpt lat="49.40019" lon="0.42302">
        <ele>6.7</ele>
        <time>2023-09-03T09:46:29Z</time>
      </trkpt>
      <trkpt lat="49.40015" lon="0.42295">
        <ele>6.7</ele>
        <time>2023-09-03T09:46:30Z</time>
      </trkpt>
      <trkpt lat="49.40011" lon="0.42288">
        <ele>6.7</ele>
        <time>2023-09-03T09:46:31Z</time>
      </trkpt>
      <trkpt lat="49.40007" lon="0.4228">
        <ele>6.7</ele>
        <time>2023-09-03T09:46:32Z</time>
      </trkpt>
      <trkpt lat="49.40003" lon="0.42273">
        <ele>6.8</ele>
        <time>2023-09-03T09:46:33Z</time>
      </trkpt>
      <trkpt lat="49.39998" lon="0.42265">
        <ele>6.8</ele>
        <time>2023-09-03T09:46:34Z</time>
      </trkpt>
      <trkpt lat="49.39993" lon="0.42258">
        <ele>6.8</ele>
        <time>2023-09-03T09:46:35Z</time>
      </trkpt>
      <trkpt lat="49.39988" lon="0.4225">
        <ele>6.8</ele>
        <time>2023-09-03T09:46:36Z</time>
      </trkpt>
      <trkpt lat="49.39983" lon="0.42242">
        <ele>6.8</ele>
        <time>2023-09-03T09:46:37Z</time>
      </trkpt>
      <trkpt lat="49.39978" lon="0.42234">
        <ele>6.8</ele>
        <time>2023-09-03T09:46:38Z</time>
      </trkpt>
      <trkpt lat="49.39973" lon="0.42227">
        <ele>6.8</ele>
        <time>2023-09-03T09:46:39Z</time>
      </trkpt>
      <trkpt lat="49.39968" lon="0.42218">
        <ele>6.8</ele>
        <time>2023-09-03T09:46:40Z</time>
      </trkpt>
      <trkpt lat="49.39963" lon="0.4221">
        <ele>6.9</ele>
        <time>2023-09-03T09:46:41Z</time>
      </trkpt>
      <trkpt lat="49.39957" lon="0.42202">
        <ele>6.9</ele>
        <time>2023-09-03T09:46:42Z</time>
      </trkpt>
      <trkpt lat="49.39952" lon="0.42193">
        <ele>7</ele>
        <time>2023-09-03T09:46:43Z</time>
      </trkpt>
      <trkpt lat="49.39946" lon="0.42185">
        <ele>7</ele>
        <time>2023-09-03T09:46:44Z</time>
      </trkpt>
      <trkpt lat="49.39941" lon="0.42176">
        <ele>7.2</ele>
        <time>2023-09-03T09:46:45Z</time>
      </trkpt>
      <trkpt lat="49.39936" lon="0.42168">
        <ele>7.2</ele>
        <time>2023-09-03T09:46:46Z</time>
      </trkpt>
      <trkpt lat="49.39931" lon="0.4216">
        <ele>7.3</ele>
        <time>2023-09-03T09:46:47Z</time>
      </trkpt>
      <trkpt lat="49.39926" lon="0.42152">
        <ele>7.3</ele>
        <time>2023-09-03T09:46:48Z</time>
      </trkpt>
      <trkpt lat="49.39921" lon="0.42144">
        <ele>7.4</ele>
        <time>2023-09-03T09:46:49Z</time>
      </trkpt>
      <trkpt lat="49.39916" lon="0.42136">
        <ele>7.5</ele>
        <time>2023-09-03T09:46:50Z</time>
      </trkpt>
      <trkpt lat="49.39912" lon="0.42128">
        <ele>7.6</ele>
        <time>2023-09-03T09:46:51Z</time>
      </trkpt>
      <trkpt lat="49.39907" lon="0.42121">
        <ele>7.7</ele>
        <time>2023-09-03T09:46:52Z</time>
      </trkpt>
      <trkpt lat="49.39902" lon="0.42114">
        <ele>7.8</ele>
        <time>2023-09-03T09:46:53Z</time>
      </trkpt>
      <trkpt lat="49.39897" lon="0.42107">
        <ele>7.9</ele>
        <time>2023-09-03T09:46:54Z</time>
      </trkpt>
      <trkpt lat="49.39893" lon="0.421">
        <ele>8.1</ele>
        <time>2023-09-03T09:46:55Z</time>
      </trkpt>
      <trkpt lat="49.39888" lon="0.42093">
        <ele>8.2</ele>
        <time>2023-09-03T09:46:56Z</time>
      </trkpt>
      <trkpt lat="49.39883" lon="0.42086">
        <ele>8.3</ele>
        <time>2023-09-03T09:46:57Z</time>
      </trkpt>
      <trkpt lat="49.39877" lon="0.42079">
        <ele>8.4</ele>
        <time>2023-09-03T09:46:58Z</time>
      </trkpt>
      <trkpt lat="49.39872" lon="0.42073">
        <ele>8.5</ele>
        <time>2023-09-03T09:46:59Z</time>
      </trkpt>
      <trkpt lat="49.39867" lon="0.42066">
        <ele>8.6</ele>
        <time>2023-09-03T09:47:00Z</time>
      </trkpt>
      <trkpt lat="49.39861" lon="0.42059">
        <ele>8.7</ele>
        <time>2023-09-03T09:47:01Z</time>
      </trkpt>
      <trkpt lat="49.39856" lon="0.42053">
        <ele>8.9</ele>
        <time>2023-09-03T09:47:02Z</time>
      </trkpt>
      <trkpt lat="49.39851" lon="0.42047">
        <ele>9</ele>
        <time>2023-09-03T09:47:03Z</time>
      </trkpt>
      <trkpt lat="49.39846" lon="0.42041">
        <ele>9.2</ele>
        <time>2023-09-03T09:47:04Z</time>
      </trkpt>
      <trkpt lat="49.3984" lon="0.42034">
        <ele>9.4</ele>
        <time>2023-09-03T09:47:05Z</time>
      </trkpt>
      <trkpt lat="49.39836" lon="0.42027">
        <ele>9.5</ele>
        <time>2023-09-03T09:47:06Z</time>
      </trkpt>
      <trkpt lat="49.39831" lon="0.4202">
        <ele>9.7</ele>
        <time>2023-09-03T09:47:07Z</time>
      </trkpt>
      <trkpt lat="49.39825" lon="0.42013">
        <ele>9.9</ele>
        <time>2023-09-03T09:47:08Z</time>
      </trkpt>
      <trkpt lat="49.3982" lon="0.42007">
        <ele>10</ele>
        <time>2023-09-03T09:47:09Z</time>
      </trkpt>
      <trkpt lat="49.39815" lon="0.42001">
        <ele>10.2</ele>
        <time>2023-09-03T09:47:10Z</time>
      </trkpt>
      <trkpt lat="49.39809" lon="0.41994">
        <ele>10.3</ele>
        <time>2023-09-03T09:47:11Z</time>
      </trkpt>
      <trkpt lat="49.39804" lon="0.41987">
        <ele>10.5</ele>
        <time>2023-09-03T09:47:12Z</time>
      </trkpt>
      <trkpt lat="49.39799" lon="0.41981">
        <ele>10.6</ele>
        <time>2023-09-03T09:47:13Z</time>
      </trkpt>
      <trkpt lat="49.39793" lon="0.41974">
        <ele>10.7</ele>
        <time>2023-09-03T09:47:14Z</time>
      </trkpt>
      <trkpt lat="49.39788" lon="0.41967">
        <ele>10.8</ele>
        <time>2023-09-03T09:47:15Z</time>
      </trkpt>
      <trkpt lat="49.39783" lon="0.4196">
        <ele>11</ele>
        <time>2023-09-03T09:47:16Z</time>
      </trkpt>
      <trkpt lat="49.39777" lon="0.41953">
        <ele>11.1</ele>
        <time>2023-09-03T09:47:17Z</time>
      </trkpt>
      <trkpt lat="49.39772" lon="0.41946">
        <ele>11.2</ele>
        <time>2023-09-03T09:47:18Z</time>
      </trkpt>
      <trkpt lat="49.39767" lon="0.41939">
        <ele>11.4</ele>
        <time>2023-09-03T09:47:19Z</time>
      </trkpt>
      <trkpt lat="49.39762" lon="0.41933">
        <ele>11.5</ele>
        <time>2023-09-03T09:47:20Z</time>
      </trkpt>
      <trkpt lat="49.39758" lon="0.41926">
        <ele>11.6</ele>
        <time>2023-09-03T09:47:21Z</time>
      </trkpt>
      <trkpt lat="49.39753" lon="0.41919">
        <ele>11.8</ele>
        <time>2023-09-03T09:47:22Z</time>
      </trkpt>
      <trkpt lat="49.39748" lon="0.41912">
        <ele>12</ele>
        <time>2023-09-03T09:47:23Z</time>
      </trkpt>
      <trkpt lat="49.39743" lon="0.41906">
        <ele>12.2</ele>
        <time>2023-09-03T09:47:24Z</time>
      </trkpt>
      <trkpt lat="49.39739" lon="0.41899">
        <ele>12.3</ele>
        <time>2023-09-03T09:47:25Z</time>
      </trkpt>
      <trkpt lat="49.39734" lon="0.41893">
        <ele>12.4</ele>
        <time>2023-09-03T09:47:26Z</time>
      </trkpt>
      <trkpt lat="49.39729" lon="0.41886">
        <ele>12.6</ele>
        <time>2023-09-03T09:47:27Z</time>
      </trkpt>
      <trkpt lat="49.39725" lon="0.41879">
        <ele>12.7</ele>
        <time>2023-09-03T09:47:28Z</time>
      </trkpt>
      <trkpt lat="49.39721" lon="0.41873">
        <ele>12.8</ele>
        <time>2023-09-03T09:47:29Z</time>
      </trkpt>
      <trkpt lat="49.39717" lon="0.41866">
        <ele>13</ele>
        <time>2023-09-03T09:47:30Z</time>
      </trkpt>
      <trkpt lat="49.39712" lon="0.41859">
        <ele>13.1</ele>
        <time>2023-09-03T09:47:31Z</time>
      </trkpt>
      <trkpt lat="49.39708" lon="0.41853">
        <ele>13.2</ele>
        <time>2023-09-03T09:47:32Z</time>
      </trkpt>
      <trkpt lat="49.39703" lon="0.41846">
        <ele>13.3</ele>
        <time>2023-09-03T09:47:33Z</time>
      </trkpt>
      <trkpt lat="49.39699" lon="0.41839">
        <ele>13.5</ele>
        <time>2023-09-03T09:47:34Z</time>
      </trkpt>
      <trkpt lat="49.39695" lon="0.41833">
        <ele>13.6</ele>
        <time>2023-09-03T09:47:35Z</time>
      </trkpt>
      <trkpt lat="49.3969" lon="0.41826">
        <ele>13.7</ele>
        <time>2023-09-03T09:47:36Z</time>
      </trkpt>
      <trkpt lat="49.39686" lon="0.41819">
        <ele>13.9</ele>
        <time>2023-09-03T09:47:37Z</time>
      </trkpt>
      <trkpt lat="49.39681" lon="0.41812">
        <ele>14</ele>
        <time>2023-09-03T09:47:38Z</time>
      </trkpt>
      <trkpt lat="49.39677" lon="0.41806">
        <ele>14.1</ele>
        <time>2023-09-03T09:47:39Z</time>
      </trkpt>
      <trkpt lat="49.39672" lon="0.41799">
        <ele>14.3</ele>
        <time>2023-09-03T09:47:40Z</time>
      </trkpt>
      <trkpt lat="49.39668" lon="0.41792">
        <ele>14.4</ele>
        <time>2023-09-03T09:47:41Z</time>
      </trkpt>
      <trkpt lat="49.39663" lon="0.41785">
        <ele>14.5</ele>
        <time>2023-09-03T09:47:42Z</time>
      </trkpt>
      <trkpt lat="49.39659" lon="0.41779">
        <ele>14.6</ele>
        <time>2023-09-03T09:47:43Z</time>
      </trkpt>
      <trkpt lat="49.39654" lon="0.41772">
        <ele>14.8</ele>
        <time>2023-09-03T09:47:44Z</time>
      </trkpt>
      <trkpt lat="49.39649" lon="0.41766">
        <ele>15</ele>
        <time>2023-09-03T09:47:45Z</time>
      </trkpt>
      <trkpt lat="49.39644" lon="0.41759">
        <ele>15.1</ele>
        <time>2023-09-03T09:47:46Z</time>
      </trkpt>
      <trkpt lat="49.3964" lon="0.41753">
        <ele>15.3</ele>
        <time>2023-09-03T09:47:47Z</time>
      </trkpt>
      <trkpt lat="49.39635" lon="0.41747">
        <ele>15.4</ele>
        <time>2023-09-03T09:47:48Z</time>
      </trkpt>
      <trkpt lat="49.3963" lon="0.41741">
        <ele>15.5</ele>
        <time>2023-09-03T09:47:49Z</time>
      </trkpt>
      <trkpt lat="49.39625" lon="0.41735">
        <ele>15.6</ele>
        <time>2023-09-03T09:47:50Z</time>
      </trkpt>
      <trkpt lat="49.3962" lon="0.41729">
        <ele>15.8</ele>
        <time>2023-09-03T09:47:51Z</time>
      </trkpt>
      <trkpt lat="49.39615" lon="0.41723">
        <ele>15.9</ele>
        <time>2023-09-03T09:47:52Z</time>
      </trkpt>
      <trkpt lat="49.39609" lon="0.41718">
        <ele>16.1</ele>
        <time>2023-09-03T09:47:53Z</time>
      </trkpt>
      <trkpt lat="49.39604" lon="0.41712">
        <ele>16.2</ele>
        <time>2023-09-03T09:47:54Z</time>
      </trkpt>
      <trkpt lat="49.39599" lon="0.41706">
        <ele>16.3</ele>
        <time>2023-09-03T09:47:55Z</time>
      </trkpt>
      <trkpt lat="49.39593" lon="0.417">
        <ele>16.4</ele>
        <time>2023-09-03T09:47:56Z</time>
      </trkpt>
      <trkpt lat="49.39588" lon="0.41695">
        <ele>16.5</ele>
        <time>2023-09-03T09:47:57Z</time>
      </trkpt>
      <trkpt lat="49.39583" lon="0.41689">
        <ele>16.6</ele>
        <time>2023-09-03T09:47:58Z</time>
      </trkpt>
      <trkpt lat="49.39578" lon="0.41683">
        <ele>16.7</ele>
        <time>2023-09-03T09:47:59Z</time>
      </trkpt>
      <trkpt lat="49.39573" lon="0.41677">
        <ele>16.8</ele>
        <time>2023-09-03T09:48:00Z</time>
      </trkpt>
      <trkpt lat="49.39568" lon="0.41672">
        <ele>16.9</ele>
        <time>2023-09-03T09:48:01Z</time>
      </trkpt>
      <trkpt lat="49.39563" lon="0.41666">
        <ele>17.1</ele>
        <time>2023-09-03T09:48:02Z</time>
      </trkpt>
      <trkpt lat="49.39558" lon="0.4166">
        <ele>17.2</ele>
        <time>2023-09-03T09:48:03Z</time>
      </trkpt>
      <trkpt lat="49.39553" lon="0.41655">
        <ele>17.3</ele>
        <time>2023-09-03T09:48:04Z</time>
      </trkpt>
      <trkpt lat="49.39549" lon="0.41649">
        <ele>17.4</ele>
        <time>2023-09-03T09:48:05Z</time>
      </trkpt>
      <trkpt lat="49.39544" lon="0.41643">
        <ele>17.5</ele>
        <time>2023-09-03T09:48:06Z</time>
      </trkpt>
      <trkpt lat="49.39539" lon="0.41637">
        <ele>17.6</ele>
        <time>2023-09-03T09:48:07Z</time>
      </trkpt>
      <trkpt lat="49.39534" lon="0.41631">
        <ele>17.7</ele>
        <time>2023-09-03T09:48:08Z</time>
      </trkpt>
      <trkpt lat="49.39529" lon="0.41624">
        <ele>17.8</ele>
        <time>2023-09-03T09:48:09Z</time>
      </trkpt>
      <trkpt lat="49.39524" lon="0.41618">
        <ele>17.8</ele>
        <time>2023-09-03T09:48:10Z</time>
      </trkpt>
      <trkpt lat="49.39519" lon="0.41611">
        <ele>17.9</ele>
        <time>2023-09-03T09:48:11Z</time>
      </trkpt>
      <trkpt lat="49.39515" lon="0.41604">
        <ele>18</ele>
        <time>2023-09-03T09:48:12Z</time>
      </trkpt>
      <trkpt lat="49.39511" lon="0.41597">
        <ele>18.1</ele>
        <time>2023-09-03T09:48:13Z</time>
      </trkpt>
      <trkpt lat="49.39506" lon="0.4159">
        <ele>18.1</ele>
        <time>2023-09-03T09:48:14Z</time>
      </trkpt>
      <trkpt lat="49.39502" lon="0.41582">
        <ele>18.2</ele>
        <time>2023-09-03T09:48:15Z</time>
      </trkpt>
      <trkpt lat="49.39497" lon="0.41574">
        <ele>18.2</ele>
        <time>2023-09-03T09:48:16Z</time>
      </trkpt>
      <trkpt lat="49.39492" lon="0.41566">
        <ele>18.3</ele>
        <time>2023-09-03T09:48:17Z</time>
      </trkpt>
      <trkpt lat="49.39488" lon="0.41559">
        <ele>18.3</ele>
        <time>2023-09-03T09:48:18Z</time>
      </trkpt>
      <trkpt lat="49.39483" lon="0.41552">
        <ele>18.3</ele>
        <time>2023-09-03T09:48:19Z</time>
      </trkpt>
      <trkpt lat="49.39479" lon="0.41545">
        <ele>18.4</ele>
        <time>2023-09-03T09:48:20Z</time>
      </trkpt>
      <trkpt lat="49.39474" lon="0.41537">
        <ele>18.4</ele>
        <time>2023-09-03T09:48:21Z</time>
      </trkpt>
      <trkpt lat="49.39469" lon="0.4153">
        <ele>18.4</ele>
        <time>2023-09-03T09:48:22Z</time>
      </trkpt>
      <trkpt lat="49.39465" lon="0.41523">
        <ele>18.5</ele>
        <time>2023-09-03T09:48:23Z</time>
      </trkpt>
      <trkpt lat="49.3946" lon="0.41516">
        <ele>18.6</ele>
        <time>2023-09-03T09:48:24Z</time>
      </trkpt>
      <trkpt lat="49.39455" lon="0.41509">
        <ele>18.6</ele>
        <time>2023-09-03T09:48:25Z</time>
      </trkpt>
      <trkpt lat="49.3945" lon="0.41502">
        <ele>18.8</ele>
        <time>2023-09-03T09:48:26Z</time>
      </trkpt>
      <trkpt lat="49.39445" lon="0.41496">
        <ele>18.9</ele>
        <time>2023-09-03T09:48:27Z</time>
      </trkpt>
      <trkpt lat="49.3944" lon="0.41489">
        <ele>19.1</ele>
        <time>2023-09-03T09:48:28Z</time>
      </trkpt>
      <trkpt lat="49.39435" lon="0.41483">
        <ele>19.2</ele>
        <time>2023-09-03T09:48:29Z</time>
      </trkpt>
      <trkpt lat="49.39431" lon="0.41477">
        <ele>19.4</ele>
        <time>2023-09-03T09:48:30Z</time>
      </trkpt>
      <trkpt lat="49.39426" lon="0.4147">
        <ele>19.5</ele>
        <time>2023-09-03T09:48:31Z</time>
      </trkpt>
      <trkpt lat="49.39421" lon="0.41464">
        <ele>19.7</ele>
        <time>2023-09-03T09:48:32Z</time>
      </trkpt>
      <trkpt lat="49.39416" lon="0.41457">
        <ele>19.9</ele>
        <time>2023-09-03T09:48:33Z</time>
      </trkpt>
      <trkpt lat="49.39411" lon="0.41451">
        <ele>20</ele>
        <time>2023-09-03T09:48:34Z</time>
      </trkpt>
      <trkpt lat="49.39407" lon="0.41445">
        <ele>20.2</ele>
        <time>2023-09-03T09:48:35Z</time>
      </trkpt>
      <trkpt lat="49.39402" lon="0.41439">
        <ele>20.4</ele>
        <time>2023-09-03T09:48:36Z</time>
      </trkpt>
      <trkpt lat="49.39397" lon="0.41433">
        <ele>20.6</ele>
        <time>2023-09-03T09:48:37Z</time>
      </trkpt>
      <trkpt lat="49.39392" lon="0.41426">
        <ele>20.8</ele>
        <time>2023-09-03T09:48:38Z</time>
      </trkpt>
      <trkpt lat="49.39388" lon="0.4142">
        <ele>21</ele>
        <time>2023-09-03T09:48:39Z</time>
      </trkpt>
      <trkpt lat="49.39383" lon="0.41414">
        <ele>21.2</ele>
        <time>2023-09-03T09:48:40Z</time>
      </trkpt>
      <trkpt lat="49.39379" lon="0.41408">
        <ele>21.4</ele>
        <time>2023-09-03T09:48:41Z</time>
      </trkpt>
      <trkpt lat="49.39374" lon="0.41402">
        <ele>21.6</ele>
        <time>2023-09-03T09:48:42Z</time>
      </trkpt>
      <trkpt lat="49.39371" lon="0.41395">
        <ele>21.7</ele>
        <time>2023-09-03T09:48:43Z</time>
      </trkpt>
      <trkpt lat="49.39367" lon="0.41388">
        <ele>21.9</ele>
        <time>2023-09-03T09:48:44Z</time>
      </trkpt>
      <trkpt lat="49.39363" lon="0.41382">
        <ele>22.1</ele>
        <time>2023-09-03T09:48:45Z</time>
      </trkpt>
      <trkpt lat="49.39359" lon="0.41374">
        <ele>22.3</ele>
        <time>2023-09-03T09:48:46Z</time>
      </trkpt>
      <trkpt lat="49.39356" lon="0.41367">
        <ele>22.5</ele>
        <time>2023-09-03T09:48:47Z</time>
      </trkpt>
      <trkpt lat="49.39352" lon="0.4136">
        <ele>22.6</ele>
        <time>2023-09-03T09:48:48Z</time>
      </trkpt>
      <trkpt lat="49.39349" lon="0.41352">
        <ele>22.8</ele>
        <time>2023-09-03T09:48:49Z</time>
      </trkpt>
      <trkpt lat="49.39346" lon="0.41345">
        <ele>23</ele>
        <time>2023-09-03T09:48:50Z</time>
      </trkpt>
      <trkpt lat="49.39343" lon="0.41337">
        <ele>23.1</ele>
        <time>2023-09-03T09:48:51Z</time>
      </trkpt>
      <trkpt lat="49.3934" lon="0.4133">
        <ele>23.3</ele>
        <time>2023-09-03T09:48:52Z</time>
      </trkpt>
      <trkpt lat="49.39337" lon="0.41323">
        <ele>23.5</ele>
        <time>2023-09-03T09:48:53Z</time>
      </trkpt>
      <trkpt lat="49.39334" lon="0.41316">
        <ele>23.6</ele>
        <time>2023-09-03T09:48:54Z</time>
      </trkpt>
      <trkpt lat="49.39331" lon="0.41308">
        <ele>23.8</ele>
        <time>2023-09-03T09:48:55Z</time>
      </trkpt>
      <trkpt lat="49.39328" lon="0.41301">
        <ele>23.9</ele>
        <time>2023-09-03T09:48:56Z</time>
      </trkpt>
      <trkpt lat="49.39325" lon="0.41294">
        <ele>24.1</ele>
        <time>2023-09-03T09:48:57Z</time>
      </trkpt>
      <trkpt lat="49.39323" lon="0.41287">
        <ele>24.2</ele>
        <time>2023-09-03T09:48:58Z</time>
      </trkpt>
      <trkpt lat="49.3932" lon="0.4128">
        <ele>24.3</ele>
        <time>2023-09-03T09:48:59Z</time>
      </trkpt>
      <trkpt lat="49.39317" lon="0.41274">
        <ele>24.4</ele>
        <time>2023-09-03T09:49:00Z</time>
      </trkpt>
      <trkpt lat="49.39315" lon="0.41267">
        <ele>24.6</ele>
        <time>2023-09-03T09:49:01Z</time>
      </trkpt>
      <trkpt lat="49.39312" lon="0.41261">
        <ele>24.7</ele>
        <time>2023-09-03T09:49:02Z</time>
      </trkpt>
      <trkpt lat="49.3931" lon="0.41255">
        <ele>24.9</ele>
        <time>2023-09-03T09:49:03Z</time>
      </trkpt>
      <trkpt lat="49.39307" lon="0.41249">
        <ele>25.1</ele>
        <time>2023-09-03T09:49:04Z</time>
      </trkpt>
      <trkpt lat="49.39304" lon="0.41243">
        <ele>25.3</ele>
        <time>2023-09-03T09:49:05Z</time>
      </trkpt>
      <trkpt lat="49.39302" lon="0.41237">
        <ele>25.4</ele>
        <time>2023-09-03T09:49:06Z</time>
      </trkpt>
      <trkpt lat="49.39299" lon="0.41231">
        <ele>25.6</ele>
        <time>2023-09-03T09:49:07Z</time>
      </trkpt>
      <trkpt lat="49.39296" lon="0.41225">
        <ele>25.8</ele>
        <time>2023-09-03T09:49:08Z</time>
      </trkpt>
      <trkpt lat="49.39294" lon="0.41219">
        <ele>25.9</ele>
        <time>2023-09-03T09:49:09Z</time>
      </trkpt>
      <trkpt lat="49.39291" lon="0.41212">
        <ele>26.1</ele>
        <time>2023-09-03T09:49:10Z</time>
      </trkpt>
      <trkpt lat="49.39288" lon="0.41206">
        <ele>26.3</ele>
        <time>2023-09-03T09:49:11Z</time>
      </trkpt>
      <trkpt lat="49.39284" lon="0.41199">
        <ele>26.5</ele>
        <time>2023-09-03T09:49:12Z</time>
      </trkpt>
      <trkpt lat="49.39281" lon="0.41192">
        <ele>26.7</ele>
        <time>2023-09-03T09:49:13Z</time>
      </trkpt>
      <trkpt lat="49.39278" lon="0.41186">
        <ele>26.9</ele>
        <time>2023-09-03T09:49:14Z</time>
      </trkpt>
      <trkpt lat="49.39275" lon="0.41179">
        <ele>27.1</ele>
        <time>2023-09-03T09:49:15Z</time>
      </trkpt>
      <trkpt lat="49.39272" lon="0.41171">
        <ele>27.3</ele>
        <time>2023-09-03T09:49:16Z</time>
      </trkpt>
      <trkpt lat="49.3927" lon="0.41164">
        <ele>27.5</ele>
        <time>2023-09-03T09:49:17Z</time>
      </trkpt>
      <trkpt lat="49.39267" lon="0.41158">
        <ele>27.6</ele>
        <time>2023-09-03T09:49:18Z</time>
      </trkpt>
      <trkpt lat="49.39264" lon="0.41151">
        <ele>27.8</ele>
        <time>2023-09-03T09:49:19Z</time>
      </trkpt>
      <trkpt lat="49.39261" lon="0.41144">
        <ele>28</ele>
        <time>2023-09-03T09:49:20Z</time>
      </trkpt>
      <trkpt lat="49.39258" lon="0.41137">
        <ele>28.2</ele>
        <time>2023-09-03T09:49:21Z</time>
      </trkpt>
      <trkpt lat="49.39256" lon="0.4113">
        <ele>28.4</ele>
        <time>2023-09-03T09:49:22Z</time>
      </trkpt>
      <trkpt lat="49.39253" lon="0.41123">
        <ele>28.6</ele>
        <time>2023-09-03T09:49:23Z</time>
      </trkpt>
      <trkpt lat="49.39251" lon="0.41116">
        <ele>28.8</ele>
        <time>2023-09-03T09:49:24Z</time>
      </trkpt>
      <trkpt lat="49.39248" lon="0.4111">
        <ele>29</ele>
        <time>2023-09-03T09:49:25Z</time>
      </trkpt>
      <trkpt lat="49.39246" lon="0.41103">
        <ele>29.1</ele>
        <time>2023-09-03T09:49:26Z</time>
      </trkpt>
      <trkpt lat="49.39243" lon="0.41097">
        <ele>29.3</ele>
        <time>2023-09-03T09:49:27Z</time>
      </trkpt>
      <trkpt lat="49.39239" lon="0.4109">
        <ele>29.5</ele>
        <time>2023-09-03T09:49:28Z</time>
      </trkpt>
      <trkpt lat="49.39236" lon="0.41083">
        <ele>29.7</ele>
        <time>2023-09-03T09:49:29Z</time>
      </trkpt>
      <trkpt lat="49.39232" lon="0.41077">
        <ele>29.8</ele>
        <time>2023-09-03T09:49:30Z</time>
      </trkpt>
      <trkpt lat="49.39229" lon="0.41071">
        <ele>30</ele>
        <time>2023-09-03T09:49:31Z</time>
      </trkpt>
      <trkpt lat="49.39225" lon="0.41064">
        <ele>30.2</ele>
        <time>2023-09-03T09:49:32Z</time>
      </trkpt>
      <trkpt lat="49.39221" lon="0.41059">
        <ele>30.4</ele>
        <time>2023-09-03T09:49:33Z</time>
      </trkpt>
      <trkpt lat="49.39218" lon="0.41053">
        <ele>30.6</ele>
        <time>2023-09-03T09:49:34Z</time>
      </trkpt>
      <trkpt lat="49.39214" lon="0.41047">
        <ele>30.8</ele>
        <time>2023-09-03T09:49:35Z</time>
      </trkpt>
      <trkpt lat="49.3921" lon="0.41042">
        <ele>31</ele>
        <time>2023-09-03T09:49:36Z</time>
      </trkpt>
      <trkpt lat="49.39206" lon="0.41036">
        <ele>31.2</ele>
        <time>2023-09-03T09:49:37Z</time>
      </trkpt>
      <trkpt lat="49.39203" lon="0.41031">
        <ele>31.4</ele>
        <time>2023-09-03T09:49:38Z</time>
      </trkpt>
      <trkpt lat="49.39199" lon="0.41026">
        <ele>31.6</ele>
        <time>2023-09-03T09:49:39Z</time>
      </trkpt>
      <trkpt lat="49.39195" lon="0.41021">
        <ele>31.7</ele>
        <time>2023-09-03T09:49:40Z</time>
      </trkpt>
      <trkpt lat="49.39191" lon="0.41016">
        <ele>31.9</ele>
        <time>2023-09-03T09:49:41Z</time>
      </trkpt>
      <trkpt lat="49.39188" lon="0.41011">
        <ele>32.1</ele>
        <time>2023-09-03T09:49:42Z</time>
      </trkpt>
      <trkpt lat="49.39184" lon="0.41005">
        <ele>32.3</ele>
        <time>2023-09-03T09:49:43Z</time>
      </trkpt>
      <trkpt lat="49.3918" lon="0.41">
        <ele>32.5</ele>
        <time>2023-09-03T09:49:44Z</time>
      </trkpt>
      <trkpt lat="49.39176" lon="0.40995">
        <ele>32.6</ele>
        <time>2023-09-03T09:49:45Z</time>
      </trkpt>
      <trkpt lat="49.39172" lon="0.4099">
        <ele>32.8</ele>
        <time>2023-09-03T09:49:46Z</time>
      </trkpt>
      <trkpt lat="49.39168" lon="0.40984">
        <ele>33</ele>
        <time>2023-09-03T09:49:47Z</time>
      </trkpt>
      <trkpt lat="49.39164" lon="0.40979">
        <ele>33.2</ele>
        <time>2023-09-03T09:49:48Z</time>
      </trkpt>
      <trkpt lat="49.39159" lon="0.40973">
        <ele>33.3</ele>
        <time>2023-09-03T09:49:49Z</time>
      </trkpt>
      <trkpt lat="49.39155" lon="0.40968">
        <ele>33.5</ele>
        <time>2023-09-03T09:49:50Z</time>
      </trkpt>
      <trkpt lat="49.39151" lon="0.40963">
        <ele>33.7</ele>
        <time>2023-09-03T09:49:51Z</time>
      </trkpt>
      <trkpt lat="49.39147" lon="0.40958">
        <ele>33.9</ele>
        <time>2023-09-03T09:49:52Z</time>
      </trkpt>
      <trkpt lat="49.39143" lon="0.40953">
        <ele>34.1</ele>
        <time>2023-09-03T09:49:53Z</time>
      </trkpt>
      <trkpt lat="49.39139" lon="0.40948">
        <ele>34.2</ele>
        <time>2023-09-03T09:49:54Z</time>
      </trkpt>
      <trkpt lat="49.39135" lon="0.40942">
        <ele>34.4</ele>
        <time>2023-09-03T09:49:55Z</time>
      </trkpt>
      <trkpt lat="49.39131" lon="0.40938">
        <ele>34.5</ele>
        <time>2023-09-03T09:49:56Z</time>
      </trkpt>
      <trkpt lat="49.39126" lon="0.40933">
        <ele>34.7</ele>
        <time>2023-09-03T09:49:57Z</time>
      </trkpt>
      <trkpt lat="49.39121" lon="0.40929">
        <ele>34.8</ele>
        <time>2023-09-03T09:49:58Z</time>
      </trkpt>
      <trkpt lat="49.39116" lon="0.40925">
        <ele>34.9</ele>
        <time>2023-09-03T09:49:59Z</time>
      </trkpt>
      <trkpt lat="49.39112" lon="0.40921">
        <ele>35</ele>
        <time>2023-09-03T09:50:00Z</time>
      </trkpt>
      <trkpt lat="49.39107" lon="0.40917">
        <ele>35.1</ele>
        <time>2023-09-03T09:50:01Z</time>
      </trkpt>
      <trkpt lat="49.39102" lon="0.40913">
        <ele>35.2</ele>
        <time>2023-09-03T09:50:02Z</time>
      </trkpt>
      <trkpt lat="49.39097" lon="0.40909">
        <ele>35.3</ele>
        <time>2023-09-03T09:50:03Z</time>
      </trkpt>
      <trkpt lat="49.39092" lon="0.40906">
        <ele>35.4</ele>
        <time>2023-09-03T09:50:04Z</time>
      </trkpt>
      <trkpt lat="49.39087" lon="0.40901">
        <ele>35.6</ele>
        <time>2023-09-03T09:50:05Z</time>
      </trkpt>
      <trkpt lat="49.39082" lon="0.40897">
        <ele>35.7</ele>
        <time>2023-09-03T09:50:06Z</time>
      </trkpt>
      <trkpt lat="49.39077" lon="0.40893">
        <ele>35.8</ele>
        <time>2023-09-03T09:50:07Z</time>
      </trkpt>
      <trkpt lat="49.39072" lon="0.4089">
        <ele>36</ele>
        <time>2023-09-03T09:50:08Z</time>
      </trkpt>
      <trkpt lat="49.39067" lon="0.40887">
        <ele>36.1</ele>
        <time>2023-09-03T09:50:09Z</time>
      </trkpt>
      <trkpt lat="49.39061" lon="0.40885">
        <ele>36.2</ele>
        <time>2023-09-03T09:50:10Z</time>
      </trkpt>
      <trkpt lat="49.39056" lon="0.40882">
        <ele>36.3</ele>
        <time>2023-09-03T09:50:11Z</time>
      </trkpt>
      <trkpt lat="49.39051" lon="0.4088">
        <ele>36.4</ele>
        <time>2023-09-03T09:50:12Z</time>
      </trkpt>
      <trkpt lat="49.39045" lon="0.40879">
        <ele>36.5</ele>
        <time>2023-09-03T09:50:13Z</time>
      </trkpt>
      <trkpt lat="49.3904" lon="0.40877">
        <ele>36.6</ele>
        <time>2023-09-03T09:50:14Z</time>
      </trkpt>
      <trkpt lat="49.39034" lon="0.40876">
        <ele>36.7</ele>
        <time>2023-09-03T09:50:15Z</time>
      </trkpt>
      <trkpt lat="49.39027" lon="0.40875">
        <ele>36.8</ele>
        <time>2023-09-03T09:50:16Z</time>
      </trkpt>
      <trkpt lat="49.39022" lon="0.40875">
        <ele>36.8</ele>
        <time>2023-09-03T09:50:17Z</time>
      </trkpt>
      <trkpt lat="49.39016" lon="0.40875">
        <ele>36.9</ele>
        <time>2023-09-03T09:50:18Z</time>
      </trkpt>
      <trkpt lat="49.3901" lon="0.40875">
        <ele>37</ele>
        <time>2023-09-03T09:50:19Z</time>
      </trkpt>
      <trkpt lat="49.39004" lon="0.40876">
        <ele>37.1</ele>
        <time>2023-09-03T09:50:20Z</time>
      </trkpt>
      <trkpt lat="49.38998" lon="0.40877">
        <ele>37.3</ele>
        <time>2023-09-03T09:50:21Z</time>
      </trkpt>
      <trkpt lat="49.38992" lon="0.40879">
        <ele>37.4</ele>
        <time>2023-09-03T09:50:22Z</time>
      </trkpt>
      <trkpt lat="49.38987" lon="0.40879">
        <ele>37.6</ele>
        <time>2023-09-03T09:50:23Z</time>
      </trkpt>
      <trkpt lat="49.38982" lon="0.40879">
        <ele>37.7</ele>
        <time>2023-09-03T09:50:24Z</time>
      </trkpt>
      <trkpt lat="49.38977" lon="0.40879">
        <ele>37.8</ele>
        <time>2023-09-03T09:50:25Z</time>
      </trkpt>
      <trkpt lat="49.38971" lon="0.40881">
        <ele>37.9</ele>
        <time>2023-09-03T09:50:26Z</time>
      </trkpt>
      <trkpt lat="49.38964" lon="0.40883">
        <ele>37.9</ele>
        <time>2023-09-03T09:50:27Z</time>
      </trkpt>
      <trkpt lat="49.38957" lon="0.40889">
        <ele>38</ele>
        <time>2023-09-03T09:50:28Z</time>
      </trkpt>
      <trkpt lat="49.3895" lon="0.40894">
        <ele>38</ele>
        <time>2023-09-03T09:50:29Z</time>
      </trkpt>
      <trkpt lat="49.38942" lon="0.40898">
        <ele>38</ele>
        <time>2023-09-03T09:50:30Z</time>
      </trkpt>
      <trkpt lat="49.38936" lon="0.40903">
        <ele>38.1</ele>
        <time>2023-09-03T09:50:31Z</time>
      </trkpt>
      <trkpt lat="49.3893" lon="0.40907">
        <ele>38.2</ele>
        <time>2023-09-03T09:50:32Z</time>
      </trkpt>
      <trkpt lat="49.38924" lon="0.40911">
        <ele>38.3</ele>
        <time>2023-09-03T09:50:33Z</time>
      </trkpt>
      <trkpt lat="49.38918" lon="0.40915">
        <ele>38.4</ele>
        <time>2023-09-03T09:50:34Z</time>
      </trkpt>
      <trkpt lat="49.38912" lon="0.40918">
        <ele>38.5</ele>
        <time>2023-09-03T09:50:35Z</time>
      </trkpt>
      <trkpt lat="49.38906" lon="0.40921">
        <ele>38.6</ele>
        <time>2023-09-03T09:50:36Z</time>
      </trkpt>
      <trkpt lat="49.38901" lon="0.40924">
        <ele>38.7</ele>
        <time>2023-09-03T09:50:37Z</time>
      </trkpt>
      <trkpt lat="49.38896" lon="0.40927">
        <ele>38.9</ele>
        <time>2023-09-03T09:50:38Z</time>
      </trkpt>
      <trkpt lat="49.38891" lon="0.4093">
        <ele>39</ele>
        <time>2023-09-03T09:50:39Z</time>
      </trkpt>
      <trkpt lat="49.38886" lon="0.40933">
        <ele>39.2</ele>
        <time>2023-09-03T09:50:40Z</time>
      </trkpt>
      <trkpt lat="49.38881" lon="0.40937">
        <ele>39.3</ele>
        <time>2023-09-03T09:50:41Z</time>
      </trkpt>
      <trkpt lat="49.38876" lon="0.4094">
        <ele>39.5</ele>
        <time>2023-09-03T09:50:42Z</time>
      </trkpt>
      <trkpt lat="49.38872" lon="0.40944">
        <ele>39.6</ele>
        <time>2023-09-03T09:50:43Z</time>
      </trkpt>
      <trkpt lat="49.38867" lon="0.40947">
        <ele>39.8</ele>
        <time>2023-09-03T09:50:44Z</time>
      </trkpt>
      <trkpt lat="49.38863" lon="0.40951">
        <ele>39.9</ele>
        <time>2023-09-03T09:50:45Z</time>
      </trkpt>
      <trkpt lat="49.38858" lon="0.40954">
        <ele>40.1</ele>
        <time>2023-09-03T09:50:46Z</time>
      </trkpt>
      <trkpt lat="49.38853" lon="0.40957">
        <ele>40.3</ele>
        <time>2023-09-03T09:50:47Z</time>
      </trkpt>
      <trkpt lat="49.38848" lon="0.4096">
        <ele>40.5</ele>
        <time>2023-09-03T09:50:48Z</time>
      </trkpt>
      <trkpt lat="49.38843" lon="0.40964">
        <ele>40.7</ele>
        <time>2023-09-03T09:50:49Z</time>
      </trkpt>
      <trkpt lat="49.38838" lon="0.40967">
        <ele>41</ele>
        <time>2023-09-03T09:50:50Z</time>
      </trkpt>
      <trkpt lat="49.38834" lon="0.4097">
        <ele>41.2</ele>
        <time>2023-09-03T09:50:51Z</time>
      </trkpt>
      <trkpt lat="49.3883" lon="0.40973">
        <ele>41.5</ele>
        <time>2023-09-03T09:50:52Z</time>
      </trkpt>
      <trkpt lat="49.38826" lon="0.40976">
        <ele>41.7</ele>
        <time>2023-09-03T09:50:53Z</time>
      </trkpt>
      <trkpt lat="49.38822" lon="0.40979">
        <ele>41.9</ele>
        <time>2023-09-03T09:50:54Z</time>
      </trkpt>
      <trkpt lat="49.38818" lon="0.40982">
        <ele>42.1</ele>
        <time>2023-09-03T09:50:55Z</time>
      </trkpt>
      <trkpt lat="49.38813" lon="0.40985">
        <ele>42.3</ele>
        <time>2023-09-03T09:50:56Z</time>
      </trkpt>
      <trkpt lat="49.38808" lon="0.40989">
        <ele>42.5</ele>
        <time>2023-09-03T09:50:57Z</time>
      </trkpt>
      <trkpt lat="49.38803" lon="0.40992">
        <ele>42.7</ele>
        <time>2023-09-03T09:50:58Z</time>
      </trkpt>
      <trkpt lat="49.38798" lon="0.40995">
        <ele>42.9</ele>
        <time>2023-09-03T09:50:59Z</time>
      </trkpt>
      <trkpt lat="49.38793" lon="0.40999">
        <ele>43.1</ele>
        <time>2023-09-03T09:51:00Z</time>
      </trkpt>
      <trkpt lat="49.38789" lon="0.41002">
        <ele>43.3</ele>
        <time>2023-09-03T09:51:01Z</time>
      </trkpt>
      <trkpt lat="49.38785" lon="0.41005">
        <ele>43.5</ele>
        <time>2023-09-03T09:51:02Z</time>
      </trkpt>
      <trkpt lat="49.38781" lon="0.41008">
        <ele>43.7</ele>
        <time>2023-09-03T09:51:03Z</time>
      </trkpt>
      <trkpt lat="49.38776" lon="0.4101">
        <ele>43.9</ele>
        <time>2023-09-03T09:51:04Z</time>
      </trkpt>
      <trkpt lat="49.38773" lon="0.41011">
        <ele>44</ele>
        <time>2023-09-03T09:51:05Z</time>
      </trkpt>
      <trkpt lat="49.38769" lon="0.41012">
        <ele>44.2</ele>
        <time>2023-09-03T09:51:06Z</time>
      </trkpt>
      <trkpt lat="49.38766" lon="0.41014">
        <ele>44.3</ele>
        <time>2023-09-03T09:51:07Z</time>
      </trkpt>
      <trkpt lat="49.38762" lon="0.41016">
        <ele>44.4</ele>
        <time>2023-09-03T09:51:08Z</time>
      </trkpt>
      <trkpt lat="49.38759" lon="0.41017">
        <ele>44.5</ele>
        <time>2023-09-03T09:51:09Z</time>
      </trkpt>
      <trkpt lat="49.38754" lon="0.41018">
        <ele>44.7</ele>
        <time>2023-09-03T09:51:10Z</time>
      </trkpt>
      <trkpt lat="49.38749" lon="0.41017">
        <ele>44.8</ele>
        <time>2023-09-03T09:51:11Z</time>
      </trkpt>
      <trkpt lat="49.38743" lon="0.41016">
        <ele>44.9</ele>
        <time>2023-09-03T09:51:12Z</time>
      </trkpt>
      <trkpt lat="49.38738" lon="0.41015">
        <ele>45</ele>
        <time>2023-09-03T09:51:13Z</time>
      </trkpt>
      <trkpt lat="49.38732" lon="0.41016">
        <ele>45.1</ele>
        <time>2023-09-03T09:51:14Z</time>
      </trkpt>
      <trkpt lat="49.38725" lon="0.41017">
        <ele>45.3</ele>
        <time>2023-09-03T09:51:15Z</time>
      </trkpt>
      <trkpt lat="49.38719" lon="0.41018">
        <ele>45.4</ele>
        <time>2023-09-03T09:51:16Z</time>
      </trkpt>
      <trkpt lat="49.38714" lon="0.4102">
        <ele>45.5</ele>
        <time>2023-09-03T09:51:17Z</time>
      </trkpt>
      <trkpt lat="49.38708" lon="0.41021">
        <ele>45.7</ele>
        <time>2023-09-03T09:51:18Z</time>
      </trkpt>
      <trkpt lat="49.38703" lon="0.41022">
        <ele>45.8</ele>
        <time>2023-09-03T09:51:19Z</time>
      </trkpt>
      <trkpt lat="49.38698" lon="0.41022">
        <ele>45.9</ele>
        <time>2023-09-03T09:51:20Z</time>
      </trkpt>
      <trkpt lat="49.38693" lon="0.41023">
        <ele>45.9</ele>
        <time>2023-09-03T09:51:21Z</time>
      </trkpt>
      <trkpt lat="49.38688" lon="0.41023">
        <ele>46</ele>
        <time>2023-09-03T09:51:22Z</time>
      </trkpt>
      <trkpt lat="49.38682" lon="0.41023">
        <ele>46</ele>
        <time>2023-09-03T09:51:23Z</time>
      </trkpt>
      <trkpt lat="49.38677" lon="0.41023">
        <ele>46.1</ele>
        <time>2023-09-03T09:51:24Z</time>
      </trkpt>
      <trkpt lat="49.38672" lon="0.41024">
        <ele>46.1</ele>
        <time>2023-09-03T09:51:25Z</time>
      </trkpt>
      <trkpt lat="49.38667" lon="0.41024">
        <ele>46.2</ele>
        <time>2023-09-03T09:51:26Z</time>
      </trkpt>
      <trkpt lat="49.38661" lon="0.41024">
        <ele>46.2</ele>
        <time>2023-09-03T09:51:27Z</time>
      </trkpt>
      <trkpt lat="49.38656" lon="0.41024">
        <ele>46.3</ele>
        <time>2023-09-03T09:51:28Z</time>
      </trkpt>
      <trkpt lat="49.38651" lon="0.41024">
        <ele>46.4</ele>
        <time>2023-09-03T09:51:29Z</time>
      </trkpt>
      <trkpt lat="49.38645" lon="0.41025">
        <ele>46.6</ele>
        <time>2023-09-03T09:51:30Z</time>
      </trkpt>
      <trkpt lat="49.38639" lon="0.41025">
        <ele>46.7</ele>
        <time>2023-09-03T09:51:31Z</time>
      </trkpt>
      <trkpt lat="49.38633" lon="0.41025">
        <ele>46.8</ele>
        <time>2023-09-03T09:51:32Z</time>
      </trkpt>
      <trkpt lat="49.38628" lon="0.41026">
        <ele>46.9</ele>
        <time>2023-09-03T09:51:33Z</time>
      </trkpt>
      <trkpt lat="49.38622" lon="0.41026">
        <ele>47.1</ele>
        <time>2023-09-03T09:51:34Z</time>
      </trkpt>
      <trkpt lat="49.38616" lon="0.41027">
        <ele>47.2</ele>
        <time>2023-09-03T09:51:35Z</time>
      </trkpt>
      <trkpt lat="49.38611" lon="0.41026">
        <ele>47.3</ele>
        <time>2023-09-03T09:51:36Z</time>
      </trkpt>
      <trkpt lat="49.38606" lon="0.41026">
        <ele>47.4</ele>
        <time>2023-09-03T09:51:37Z</time>
      </trkpt>
      <trkpt lat="49.38601" lon="0.41025">
        <ele>47.4</ele>
        <time>2023-09-03T09:51:38Z</time>
      </trkpt>
      <trkpt lat="49.38595" lon="0.41024">
        <ele>47.5</ele>
        <time>2023-09-03T09:51:39Z</time>
      </trkpt>
      <trkpt lat="49.38589" lon="0.41023">
        <ele>47.5</ele>
        <time>2023-09-03T09:51:40Z</time>
      </trkpt>
      <trkpt lat="49.38583" lon="0.41022">
        <ele>47.6</ele>
        <time>2023-09-03T09:51:41Z</time>
      </trkpt>
      <trkpt lat="49.38578" lon="0.41022">
        <ele>47.7</ele>
        <time>2023-09-03T09:51:42Z</time>
      </trkpt>
      <trkpt lat="49.38572" lon="0.41022">
        <ele>47.7</ele>
        <time>2023-09-03T09:51:43Z</time>
      </trkpt>
      <trkpt lat="49.38566" lon="0.41022">
        <ele>47.8</ele>
        <time>2023-09-03T09:51:44Z</time>
      </trkpt>
      <trkpt lat="49.3856" lon="0.41022">
        <ele>47.9</ele>
        <time>2023-09-03T09:51:45Z</time>
      </trkpt>
      <trkpt lat="49.38554" lon="0.41024">
        <ele>48</ele>
        <time>2023-09-03T09:51:46Z</time>
      </trkpt>
      <trkpt lat="49.38548" lon="0.41026">
        <ele>48.1</ele>
        <time>2023-09-03T09:51:47Z</time>
      </trkpt>
      <trkpt lat="49.38542" lon="0.41029">
        <ele>48.2</ele>
        <time>2023-09-03T09:51:48Z</time>
      </trkpt>
      <trkpt lat="49.38536" lon="0.41033">
        <ele>48.4</ele>
        <time>2023-09-03T09:51:49Z</time>
      </trkpt>
      <trkpt lat="49.38531" lon="0.41038">
        <ele>48.5</ele>
        <time>2023-09-03T09:51:50Z</time>
      </trkpt>
      <trkpt lat="49.38527" lon="0.41044">
        <ele>48.6</ele>
        <time>2023-09-03T09:51:51Z</time>
      </trkpt>
      <trkpt lat="49.38522" lon="0.41049">
        <ele>48.8</ele>
        <time>2023-09-03T09:51:52Z</time>
      </trkpt>
      <trkpt lat="49.38517" lon="0.41055">
        <ele>48.9</ele>
        <time>2023-09-03T09:51:53Z</time>
      </trkpt>
      <trkpt lat="49.38512" lon="0.41059">
        <ele>49</ele>
        <time>2023-09-03T09:51:54Z</time>
      </trkpt>
      <trkpt lat="49.38507" lon="0.41063">
        <ele>49.1</ele>
        <time>2023-09-03T09:51:55Z</time>
      </trkpt>
      <trkpt lat="49.38503" lon="0.41068">
        <ele>49.2</ele>
        <time>2023-09-03T09:51:56Z</time>
      </trkpt>
      <trkpt lat="49.38498" lon="0.41074">
        <ele>49.2</ele>
        <time>2023-09-03T09:51:57Z</time>
      </trkpt>
      <trkpt lat="49.38494" lon="0.41081">
        <ele>49.3</ele>
        <time>2023-09-03T09:51:58Z</time>
      </trkpt>
      <trkpt lat="49.38489" lon="0.41088">
        <ele>49.4</ele>
        <time>2023-09-03T09:51:59Z</time>
      </trkpt>
      <trkpt lat="49.38485" lon="0.41095">
        <ele>49.6</ele>
        <time>2023-09-03T09:52:00Z</time>
      </trkpt>
      <trkpt lat="49.38481" lon="0.41102">
        <ele>49.7</ele>
        <time>2023-09-03T09:52:01Z</time>
      </trkpt>
      <trkpt lat="49.38477" lon="0.41109">
        <ele>49.8</ele>
        <time>2023-09-03T09:52:02Z</time>
      </trkpt>
      <trkpt lat="49.38473" lon="0.41115">
        <ele>49.9</ele>
        <time>2023-09-03T09:52:03Z</time>
      </trkpt>
      <trkpt lat="49.38468" lon="0.41122">
        <ele>50</ele>
        <time>2023-09-03T09:52:04Z</time>
      </trkpt>
      <trkpt lat="49.38464" lon="0.41129">
        <ele>50.2</ele>
        <time>2023-09-03T09:52:05Z</time>
      </trkpt>
      <trkpt lat="49.3846" lon="0.41135">
        <ele>50.3</ele>
        <time>2023-09-03T09:52:06Z</time>
      </trkpt>
      <trkpt lat="49.38456" lon="0.41142">
        <ele>50.4</ele>
        <time>2023-09-03T09:52:07Z</time>
      </trkpt>
      <trkpt lat="49.38453" lon="0.41149">
        <ele>50.5</ele>
        <time>2023-09-03T09:52:08Z</time>
      </trkpt>
      <trkpt lat="49.38449" lon="0.41156">
        <ele>50.5</ele>
        <time>2023-09-03T09:52:09Z</time>
      </trkpt>
      <trkpt lat="49.38445" lon="0.41163">
        <ele>50.6</ele>
        <time>2023-09-03T09:52:10Z</time>
      </trkpt>
      <trkpt lat="49.38441" lon="0.4117">
        <ele>50.7</ele>
        <time>2023-09-03T09:52:11Z</time>
      </trkpt>
      <trkpt lat="49.38437" lon="0.41177">
        <ele>50.8</ele>
        <time>2023-09-03T09:52:12Z</time>
      </trkpt>
      <trkpt lat="49.38433" lon="0.41184">
        <ele>50.9</ele>
        <time>2023-09-03T09:52:13Z</time>
      </trkpt>
      <trkpt lat="49.38429" lon="0.4119">
        <ele>51.1</ele>
        <time>2023-09-03T09:52:14Z</time>
      </trkpt>
      <trkpt lat="49.38425" lon="0.41196">
        <ele>51.2</ele>
        <time>2023-09-03T09:52:15Z</time>
      </trkpt>
      <trkpt lat="49.38421" lon="0.41202">
        <ele>51.3</ele>
        <time>2023-09-03T09:52:16Z</time>
      </trkpt>
      <trkpt lat="49.38417" lon="0.41208">
        <ele>51.4</ele>
        <time>2023-09-03T09:52:17Z</time>
      </trkpt>
      <trkpt lat="49.38413" lon="0.41214">
        <ele>51.6</ele>
        <time>2023-09-03T09:52:18Z</time>
      </trkpt>
      <trkpt lat="49.3841" lon="0.41221">
        <ele>51.7</ele>
        <time>2023-09-03T09:52:19Z</time>
      </trkpt>
      <trkpt lat="49.38407" lon="0.41227">
        <ele>51.8</ele>
        <time>2023-09-03T09:52:20Z</time>
      </trkpt>
      <trkpt lat="49.38404" lon="0.41235">
        <ele>51.9</ele>
        <time>2023-09-03T09:52:21Z</time>
      </trkpt>
      <trkpt lat="49.384" lon="0.41242">
        <ele>52</ele>
        <time>2023-09-03T09:52:22Z</time>
      </trkpt>
      <trkpt lat="49.38397" lon="0.4125">
        <ele>52.1</ele>
        <time>2023-09-03T09:52:23Z</time>
      </trkpt>
      <trkpt lat="49.38394" lon="0.41257">
        <ele>52.3</ele>
        <time>2023-09-03T09:52:24Z</time>
      </trkpt>
      <trkpt lat="49.38391" lon="0.41264">
        <ele>52.4</ele>
        <time>2023-09-03T09:52:25Z</time>
      </trkpt>
      <trkpt lat="49.38388" lon="0.41271">
        <ele>52.5</ele>
        <time>2023-09-03T09:52:26Z</time>
      </trkpt>
      <trkpt lat="49.38385" lon="0.41278">
        <ele>52.7</ele>
        <time>2023-09-03T09:52:27Z</time>
      </trkpt>
      <trkpt lat="49.38382" lon="0.41286">
        <ele>52.8</ele>
        <time>2023-09-03T09:52:28Z</time>
      </trkpt>
      <trkpt lat="49.38379" lon="0.41293">
        <ele>53</ele>
        <time>2023-09-03T09:52:29Z</time>
      </trkpt>
      <trkpt lat="49.38376" lon="0.413">
        <ele>53.1</ele>
        <time>2023-09-03T09:52:30Z</time>
      </trkpt>
      <trkpt lat="49.38373" lon="0.41307">
        <ele>53.2</ele>
        <time>2023-09-03T09:52:31Z</time>
      </trkpt>
      <trkpt lat="49.3837" lon="0.41313">
        <ele>53.4</ele>
        <time>2023-09-03T09:52:32Z</time>
      </trkpt>
      <trkpt lat="49.38367" lon="0.4132">
        <ele>53.5</ele>
        <time>2023-09-03T09:52:33Z</time>
      </trkpt>
      <trkpt lat="49.38364" lon="0.41327">
        <ele>53.7</ele>
        <time>2023-09-03T09:52:34Z</time>
      </trkpt>
      <trkpt lat="49.38361" lon="0.41334">
        <ele>53.8</ele>
        <time>2023-09-03T09:52:35Z</time>
      </trkpt>
      <trkpt lat="49.38357" lon="0.4134">
        <ele>53.9</ele>
        <time>2023-09-03T09:52:36Z</time>
      </trkpt>
      <trkpt lat="49.38354" lon="0.41347">
        <ele>54.1</ele>
        <time>2023-09-03T09:52:37Z</time>
      </trkpt>
      <trkpt lat="49.3835" lon="0.41353">
        <ele>54.2</ele>
        <time>2023-09-03T09:52:38Z</time>
      </trkpt>
      <trkpt lat="49.38346" lon="0.41359">
        <ele>54.3</ele>
        <time>2023-09-03T09:52:39Z</time>
      </trkpt>
      <trkpt lat="49.38342" lon="0.41364">
        <ele>54.4</ele>
        <time>2023-09-03T09:52:40Z</time>
      </trkpt>
      <trkpt lat="49.38337" lon="0.4137">
        <ele>54.5</ele>
        <time>2023-09-03T09:52:41Z</time>
      </trkpt>
      <trkpt lat="49.38333" lon="0.41376">
        <ele>54.6</ele>
        <time>2023-09-03T09:52:42Z</time>
      </trkpt>
      <trkpt lat="49.38328" lon="0.41382">
        <ele>54.7</ele>
        <time>2023-09-03T09:52:43Z</time>
      </trkpt>
      <trkpt lat="49.38323" lon="0.41387">
        <ele>54.8</ele>
        <time>2023-09-03T09:52:44Z</time>
      </trkpt>
      <trkpt lat="49.38319" lon="0.41392">
        <ele>55</ele>
        <time>2023-09-03T09:52:45Z</time>
      </trkpt>
      <trkpt lat="49.38314" lon="0.41397">
        <ele>55.1</ele>
        <time>2023-09-03T09:52:46Z</time>
      </trkpt>
      <trkpt lat="49.38309" lon="0.41402">
        <ele>55.2</ele>
        <time>2023-09-03T09:52:47Z</time>
      </trkpt>
      <trkpt lat="49.38304" lon="0.41406">
        <ele>55.3</ele>
        <time>2023-09-03T09:52:48Z</time>
      </trkpt>
      <trkpt lat="49.383" lon="0.41411">
        <ele>55.4</ele>
        <time>2023-09-03T09:52:49Z</time>
      </trkpt>
      <trkpt lat="49.38294" lon="0.41415">
        <ele>55.5</ele>
        <time>2023-09-03T09:52:50Z</time>
      </trkpt>
      <trkpt lat="49.38288" lon="0.41419">
        <ele>55.6</ele>
        <time>2023-09-03T09:52:51Z</time>
      </trkpt>
      <trkpt lat="49.38283" lon="0.41422">
        <ele>55.7</ele>
        <time>2023-09-03T09:52:52Z</time>
      </trkpt>
      <trkpt lat="49.38277" lon="0.41424">
        <ele>55.9</ele>
        <time>2023-09-03T09:52:53Z</time>
      </trkpt>
      <trkpt lat="49.38272" lon="0.41426">
        <ele>56</ele>
        <time>2023-09-03T09:52:54Z</time>
      </trkpt>
      <trkpt lat="49.38265" lon="0.41428">
        <ele>56.2</ele>
        <time>2023-09-03T09:52:55Z</time>
      </trkpt>
      <trkpt lat="49.3826" lon="0.41429">
        <ele>56.3</ele>
        <time>2023-09-03T09:52:56Z</time>
      </trkpt>
      <trkpt lat="49.38254" lon="0.4143">
        <ele>56.5</ele>
        <time>2023-09-03T09:52:57Z</time>
      </trkpt>
      <trkpt lat="49.38248" lon="0.41431">
        <ele>56.6</ele>
        <time>2023-09-03T09:52:58Z</time>
      </trkpt>
      <trkpt lat="49.38243" lon="0.41432">
        <ele>56.8</ele>
        <time>2023-09-03T09:52:59Z</time>
      </trkpt>
      <trkpt lat="49.38238" lon="0.41434">
        <ele>56.9</ele>
        <time>2023-09-03T09:53:00Z</time>
      </trkpt>
      <trkpt lat="49.38232" lon="0.41436">
        <ele>57.1</ele>
        <time>2023-09-03T09:53:01Z</time>
      </trkpt>
      <trkpt lat="49.38227" lon="0.41437">
        <ele>57.2</ele>
        <time>2023-09-03T09:53:02Z</time>
      </trkpt>
      <trkpt lat="49.38222" lon="0.41439">
        <ele>57.4</ele>
        <time>2023-09-03T09:53:03Z</time>
      </trkpt>
      <trkpt lat="49.38217" lon="0.41441">
        <ele>57.5</ele>
        <time>2023-09-03T09:53:04Z</time>
      </trkpt>
      <trkpt lat="49.38212" lon="0.41443">
        <ele>57.6</ele>
        <time>2023-09-03T09:53:05Z</time>
      </trkpt>
      <trkpt lat="49.38207" lon="0.41446">
        <ele>57.8</ele>
        <time>2023-09-03T09:53:06Z</time>
      </trkpt>
      <trkpt lat="49.38202" lon="0.41449">
        <ele>58</ele>
        <time>2023-09-03T09:53:07Z</time>
      </trkpt>
      <trkpt lat="49.38197" lon="0.41452">
        <ele>58.2</ele>
        <time>2023-09-03T09:53:08Z</time>
      </trkpt>
      <trkpt lat="49.38193" lon="0.41454">
        <ele>58.4</ele>
        <time>2023-09-03T09:53:09Z</time>
      </trkpt>
      <trkpt lat="49.38188" lon="0.41457">
        <ele>58.6</ele>
        <time>2023-09-03T09:53:10Z</time>
      </trkpt>
      <trkpt lat="49.38183" lon="0.4146">
        <ele>58.8</ele>
        <time>2023-09-03T09:53:11Z</time>
      </trkpt>
      <trkpt lat="49.38178" lon="0.41464">
        <ele>59</ele>
        <time>2023-09-03T09:53:12Z</time>
      </trkpt>
      <trkpt lat="49.38174" lon="0.41469">
        <ele>59.1</ele>
        <time>2023-09-03T09:53:13Z</time>
      </trkpt>
      <trkpt lat="49.38169" lon="0.41473">
        <ele>59.3</ele>
        <time>2023-09-03T09:53:14Z</time>
      </trkpt>
      <trkpt lat="49.38165" lon="0.41477">
        <ele>59.5</ele>
        <time>2023-09-03T09:53:15Z</time>
      </trkpt>
      <trkpt lat="49.38161" lon="0.41482">
        <ele>59.6</ele>
        <time>2023-09-03T09:53:16Z</time>
      </trkpt>
      <trkpt lat="49.38157" lon="0.41487">
        <ele>59.8</ele>
        <time>2023-09-03T09:53:17Z</time>
      </trkpt>
      <trkpt lat="49.38153" lon="0.41493">
        <ele>59.9</ele>
        <time>2023-09-03T09:53:18Z</time>
      </trkpt>
      <trkpt lat="49.3815" lon="0.41498">
        <ele>60.1</ele>
        <time>2023-09-03T09:53:19Z</time>
      </trkpt>
      <trkpt lat="49.38146" lon="0.41504">
        <ele>60.2</ele>
        <time>2023-09-03T09:53:20Z</time>
      </trkpt>
      <trkpt lat="49.38142" lon="0.41509">
        <ele>60.3</ele>
        <time>2023-09-03T09:53:21Z</time>
      </trkpt>
      <trkpt lat="49.38138" lon="0.41515">
        <ele>60.5</ele>
        <time>2023-09-03T09:53:22Z</time>
      </trkpt>
      <trkpt lat="49.38134" lon="0.4152">
        <ele>60.6</ele>
        <time>2023-09-03T09:53:23Z</time>
      </trkpt>
      <trkpt lat="49.3813" lon="0.41525">
        <ele>60.7</ele>
        <time>2023-09-03T09:53:24Z</time>
      </trkpt>
      <trkpt lat="49.38126" lon="0.41531">
        <ele>60.8</ele>
        <time>2023-09-03T09:53:25Z</time>
      </trkpt>
      <trkpt lat="49.38122" lon="0.41536">
        <ele>60.9</ele>
        <time>2023-09-03T09:53:26Z</time>
      </trkpt>
      <trkpt lat="49.38118" lon="0.41541">
        <ele>61</ele>
        <time>2023-09-03T09:53:27Z</time>
      </trkpt>
      <trkpt lat="49.38114" lon="0.41546">
        <ele>61.2</ele>
        <time>2023-09-03T09:53:28Z</time>
      </trkpt>
      <trkpt lat="49.3811" lon="0.41551">
        <ele>61.3</ele>
        <time>2023-09-03T09:53:29Z</time>
      </trkpt>
      <trkpt lat="49.38106" lon="0.41557">
        <ele>61.4</ele>
        <time>2023-09-03T09:53:30Z</time>
      </trkpt>
      <trkpt lat="49.38101" lon="0.41562">
        <ele>61.6</ele>
        <time>2023-09-03T09:53:31Z</time>
      </trkpt>
      <trkpt lat="49.38097" lon="0.41567">
        <ele>61.7</ele>
        <time>2023-09-03T09:53:32Z</time>
      </trkpt>
      <trkpt lat="49.38093" lon="0.41572">
        <ele>61.8</ele>
        <time>2023-09-03T09:53:33Z</time>
      </trkpt>
      <trkpt lat="49.38089" lon="0.41576">
        <ele>61.9</ele>
        <time>2023-09-03T09:53:34Z</time>
      </trkpt>
      <trkpt lat="49.38084" lon="0.41581">
        <ele>61.9</ele>
        <time>2023-09-03T09:53:35Z</time>
      </trkpt>
      <trkpt lat="49.3808" lon="0.41585">
        <ele>62</ele>
        <time>2023-09-03T09:53:36Z</time>
      </trkpt>
      <trkpt lat="49.38076" lon="0.41589">
        <ele>62.1</ele>
        <time>2023-09-03T09:53:37Z</time>
      </trkpt>
      <trkpt lat="49.38071" lon="0.41592">
        <ele>62.2</ele>
        <time>2023-09-03T09:53:38Z</time>
      </trkpt>
      <trkpt lat="49.38067" lon="0.41595">
        <ele>62.3</ele>
        <time>2023-09-03T09:53:39Z</time>
      </trkpt>
      <trkpt lat="49.38062" lon="0.41599">
        <ele>62.5</ele>
        <time>2023-09-03T09:53:40Z</time>
      </trkpt>
      <trkpt lat="49.38058" lon="0.41602">
        <ele>62.6</ele>
        <time>2023-09-03T09:53:41Z</time>
      </trkpt>
      <trkpt lat="49.38053" lon="0.41605">
        <ele>62.8</ele>
        <time>2023-09-03T09:53:42Z</time>
      </trkpt>
      <trkpt lat="49.38048" lon="0.41608">
        <ele>63</ele>
        <time>2023-09-03T09:53:43Z</time>
      </trkpt>
      <trkpt lat="49.38043" lon="0.41611">
        <ele>63.1</ele>
        <time>2023-09-03T09:53:44Z</time>
      </trkpt>
      <trkpt lat="49.38039" lon="0.41612">
        <ele>63.3</ele>
        <time>2023-09-03T09:53:45Z</time>
      </trkpt>
      <trkpt lat="49.38034" lon="0.41615">
        <ele>63.4</ele>
        <time>2023-09-03T09:53:46Z</time>
      </trkpt>
      <trkpt lat="49.3803" lon="0.41616">
        <ele>63.5</ele>
        <time>2023-09-03T09:53:47Z</time>
      </trkpt>
      <trkpt lat="49.38025" lon="0.41618">
        <ele>63.6</ele>
        <time>2023-09-03T09:53:48Z</time>
      </trkpt>
      <trkpt lat="49.3802" lon="0.4162">
        <ele>63.7</ele>
        <time>2023-09-03T09:53:49Z</time>
      </trkpt>
      <trkpt lat="49.38015" lon="0.41621">
        <ele>63.8</ele>
        <time>2023-09-03T09:53:50Z</time>
      </trkpt>
      <trkpt lat="49.3801" lon="0.41623">
        <ele>63.8</ele>
        <time>2023-09-03T09:53:51Z</time>
      </trkpt>
      <trkpt lat="49.38005" lon="0.41624">
        <ele>63.9</ele>
        <time>2023-09-03T09:53:52Z</time>
      </trkpt>
      <trkpt lat="49.37999" lon="0.41625">
        <ele>64</ele>
        <time>2023-09-03T09:53:53Z</time>
      </trkpt>
      <trkpt lat="49.37994" lon="0.41627">
        <ele>64.1</ele>
        <time>2023-09-03T09:53:54Z</time>
      </trkpt>
      <trkpt lat="49.37988" lon="0.41629">
        <ele>64.2</ele>
        <time>2023-09-03T09:53:55Z</time>
      </trkpt>
      <trkpt lat="49.37983" lon="0.4163">
        <ele>64.3</ele>
        <time>2023-09-03T09:53:56Z</time>
      </trkpt>
      <trkpt lat="49.37977" lon="0.41631">
        <ele>64.4</ele>
        <time>2023-09-03T09:53:57Z</time>
      </trkpt>
      <trkpt lat="49.37971" lon="0.41632">
        <ele>64.6</ele>
        <time>2023-09-03T09:53:58Z</time>
      </trkpt>
      <trkpt lat="49.37965" lon="0.41634">
        <ele>64.8</ele>
        <time>2023-09-03T09:53:59Z</time>
      </trkpt>
      <trkpt lat="49.37959" lon="0.41636">
        <ele>65</ele>
        <time>2023-09-03T09:54:00Z</time>
      </trkpt>
      <trkpt lat="49.37953" lon="0.41637">
        <ele>65.3</ele>
        <time>2023-09-03T09:54:01Z</time>
      </trkpt>
      <trkpt lat="49.37948" lon="0.41639">
        <ele>65.4</ele>
        <time>2023-09-03T09:54:02Z</time>
      </trkpt>
      <trkpt lat="49.37942" lon="0.4164">
        <ele>65.6</ele>
        <time>2023-09-03T09:54:03Z</time>
      </trkpt>
      <trkpt lat="49.37937" lon="0.41641">
        <ele>65.8</ele>
        <time>2023-09-03T09:54:04Z</time>
      </trkpt>
      <trkpt lat="49.37931" lon="0.41642">
        <ele>65.9</ele>
        <time>2023-09-03T09:54:05Z</time>
      </trkpt>
      <trkpt lat="49.37926" lon="0.41644">
        <ele>65.9</ele>
        <time>2023-09-03T09:54:06Z</time>
      </trkpt>
      <trkpt lat="49.37921" lon="0.41646">
        <ele>65.9</ele>
        <time>2023-09-03T09:54:07Z</time>
      </trkpt>
      <trkpt lat="49.37915" lon="0.41649">
        <ele>66</ele>
        <time>2023-09-03T09:54:08Z</time>
      </trkpt>
      <trkpt lat="49.3791" lon="0.41652">
        <ele>66</ele>
        <time>2023-09-03T09:54:09Z</time>
      </trkpt>
      <trkpt lat="49.37905" lon="0.41655">
        <ele>66</ele>
        <time>2023-09-03T09:54:10Z</time>
      </trkpt>
      <trkpt lat="49.379" lon="0.41659">
        <ele>66</ele>
        <time>2023-09-03T09:54:11Z</time>
      </trkpt>
      <trkpt lat="49.37895" lon="0.41662">
        <ele>66.1</ele>
        <time>2023-09-03T09:54:12Z</time>
      </trkpt>
      <trkpt lat="49.37889" lon="0.41666">
        <ele>66.1</ele>
        <time>2023-09-03T09:54:13Z</time>
      </trkpt>
      <trkpt lat="49.37884" lon="0.41669">
        <ele>66.3</ele>
        <time>2023-09-03T09:54:14Z</time>
      </trkpt>
      <trkpt lat="49.37878" lon="0.41672">
        <ele>66.4</ele>
        <time>2023-09-03T09:54:15Z</time>
      </trkpt>
      <trkpt lat="49.37872" lon="0.41675">
        <ele>66.5</ele>
        <time>2023-09-03T09:54:16Z</time>
      </trkpt>
      <trkpt lat="49.37866" lon="0.41679">
        <ele>66.6</ele>
        <time>2023-09-03T09:54:17Z</time>
      </trkpt>
      <trkpt lat="49.37861" lon="0.41682">
        <ele>66.7</ele>
        <time>2023-09-03T09:54:18Z</time>
      </trkpt>
      <trkpt lat="49.37856" lon="0.41686">
        <ele>66.8</ele>
        <time>2023-09-03T09:54:19Z</time>
      </trkpt>
      <trkpt lat="49.37851" lon="0.41689">
        <ele>66.9</ele>
        <time>2023-09-03T09:54:20Z</time>
      </trkpt>
      <trkpt lat="49.37846" lon="0.41691">
        <ele>67</ele>
        <time>2023-09-03T09:54:21Z</time>
      </trkpt>
      <trkpt lat="49.37841" lon="0.41694">
        <ele>67.1</ele>
        <time>2023-09-03T09:54:22Z</time>
      </trkpt>
      <trkpt lat="49.37836" lon="0.41698">
        <ele>67.2</ele>
        <time>2023-09-03T09:54:23Z</time>
      </trkpt>
      <trkpt lat="49.37831" lon="0.41701">
        <ele>67.3</ele>
        <time>2023-09-03T09:54:24Z</time>
      </trkpt>
      <trkpt lat="49.37826" lon="0.41703">
        <ele>67.3</ele>
        <time>2023-09-03T09:54:25Z</time>
      </trkpt>
      <trkpt lat="49.37821" lon="0.41705">
        <ele>67.4</ele>
        <time>2023-09-03T09:54:26Z</time>
      </trkpt>
      <trkpt lat="49.37816" lon="0.41706">
        <ele>67.5</ele>
        <time>2023-09-03T09:54:27Z</time>
      </trkpt>
      <trkpt lat="49.3781" lon="0.41707">
        <ele>67.5</ele>
        <time>2023-09-03T09:54:28Z</time>
      </trkpt>
      <trkpt lat="49.37805" lon="0.41708">
        <ele>67.6</ele>
        <time>2023-09-03T09:54:29Z</time>
      </trkpt>
      <trkpt lat="49.378" lon="0.41709">
        <ele>67.7</ele>
        <time>2023-09-03T09:54:30Z</time>
      </trkpt>
      <trkpt lat="49.37794" lon="0.41709">
        <ele>67.7</ele>
        <time>2023-09-03T09:54:31Z</time>
      </trkpt>
      <trkpt lat="49.37789" lon="0.41708">
        <ele>67.8</ele>
        <time>2023-09-03T09:54:32Z</time>
      </trkpt>
      <trkpt lat="49.37785" lon="0.41707">
        <ele>67.9</ele>
        <time>2023-09-03T09:54:33Z</time>
      </trkpt>
      <trkpt lat="49.3778" lon="0.41706">
        <ele>67.9</ele>
        <time>2023-09-03T09:54:34Z</time>
      </trkpt>
      <trkpt lat="49.37774" lon="0.41705">
        <ele>68</ele>
        <time>2023-09-03T09:54:35Z</time>
      </trkpt>
      <trkpt lat="49.37769" lon="0.41703">
        <ele>68.1</ele>
        <time>2023-09-03T09:54:36Z</time>
      </trkpt>
      <trkpt lat="49.37762" lon="0.41702">
        <ele>68.3</ele>
        <time>2023-09-03T09:54:37Z</time>
      </trkpt>
      <trkpt lat="49.37756" lon="0.41701">
        <ele>68.5</ele>
        <time>2023-09-03T09:54:38Z</time>
      </trkpt>
      <trkpt lat="49.3775" lon="0.41701">
        <ele>68.7</ele>
        <time>2023-09-03T09:54:39Z</time>
      </trkpt>
      <trkpt lat="49.37744" lon="0.417">
        <ele>68.9</ele>
        <time>2023-09-03T09:54:40Z</time>
      </trkpt>
      <trkpt lat="49.37738" lon="0.417">
        <ele>69</ele>
        <time>2023-09-03T09:54:41Z</time>
      </trkpt>
      <trkpt lat="49.37732" lon="0.417">
        <ele>69.2</ele>
        <time>2023-09-03T09:54:42Z</time>
      </trkpt>
      <trkpt lat="49.37727" lon="0.41701">
        <ele>69.4</ele>
        <time>2023-09-03T09:54:43Z</time>
      </trkpt>
      <trkpt lat="49.37721" lon="0.41702">
        <ele>69.5</ele>
        <time>2023-09-03T09:54:44Z</time>
      </trkpt>
      <trkpt lat="49.37716" lon="0.41704">
        <ele>69.7</ele>
        <time>2023-09-03T09:54:45Z</time>
      </trkpt>
      <trkpt lat="49.3771" lon="0.41706">
        <ele>69.8</ele>
        <time>2023-09-03T09:54:46Z</time>
      </trkpt>
      <trkpt lat="49.37704" lon="0.41708">
        <ele>69.8</ele>
        <time>2023-09-03T09:54:47Z</time>
      </trkpt>
      <trkpt lat="49.377" lon="0.41711">
        <ele>69.9</ele>
        <time>2023-09-03T09:54:48Z</time>
      </trkpt>
      <trkpt lat="49.37695" lon="0.41714">
        <ele>70</ele>
        <time>2023-09-03T09:54:49Z</time>
      </trkpt>
      <trkpt lat="49.3769" lon="0.41718">
        <ele>70</ele>
        <time>2023-09-03T09:54:50Z</time>
      </trkpt>
      <trkpt lat="49.37686" lon="0.41723">
        <ele>70.1</ele>
        <time>2023-09-03T09:54:51Z</time>
      </trkpt>
      <trkpt lat="49.37681" lon="0.41729">
        <ele>70.2</ele>
        <time>2023-09-03T09:54:52Z</time>
      </trkpt>
      <trkpt lat="49.37676" lon="0.41734">
        <ele>70.2</ele>
        <time>2023-09-03T09:54:53Z</time>
      </trkpt>
      <trkpt lat="49.37672" lon="0.41739">
        <ele>70.3</ele>
        <time>2023-09-03T09:54:54Z</time>
      </trkpt>
      <trkpt lat="49.37667" lon="0.41745">
        <ele>70.4</ele>
        <time>2023-09-03T09:54:55Z</time>
      </trkpt>
      <trkpt lat="49.37662" lon="0.4175">
        <ele>70.5</ele>
        <time>2023-09-03T09:54:56Z</time>
      </trkpt>
      <trkpt lat="49.37656" lon="0.41756">
        <ele>70.6</ele>
        <time>2023-09-03T09:54:57Z</time>
      </trkpt>
      <trkpt lat="49.3765" lon="0.41761">
        <ele>70.8</ele>
        <time>2023-09-03T09:54:58Z</time>
      </trkpt>
      <trkpt lat="49.37645" lon="0.41767">
        <ele>70.9</ele>
        <time>2023-09-03T09:54:59Z</time>
      </trkpt>
      <trkpt lat="49.3764" lon="0.41772">
        <ele>71.1</ele>
        <time>2023-09-03T09:55:00Z</time>
      </trkpt>
      <trkpt lat="49.37635" lon="0.41778">
        <ele>71.2</ele>
        <time>2023-09-03T09:55:01Z</time>
      </trkpt>
      <trkpt lat="49.3763" lon="0.41783">
        <ele>71.4</ele>
        <time>2023-09-03T09:55:02Z</time>
      </trkpt>
      <trkpt lat="49.37625" lon="0.41788">
        <ele>71.5</ele>
        <time>2023-09-03T09:55:03Z</time>
      </trkpt>
      <trkpt lat="49.37621" lon="0.41794">
        <ele>71.7</ele>
        <time>2023-09-03T09:55:04Z</time>
      </trkpt>
      <trkpt lat="49.37616" lon="0.418">
        <ele>71.8</ele>
        <time>2023-09-03T09:55:05Z</time>
      </trkpt>
      <trkpt lat="49.37612" lon="0.41805">
        <ele>71.9</ele>
        <time>2023-09-03T09:55:06Z</time>
      </trkpt>
      <trkpt lat="49.37607" lon="0.4181">
        <ele>72.1</ele>
        <time>2023-09-03T09:55:07Z</time>
      </trkpt>
      <trkpt lat="49.37603" lon="0.41815">
        <ele>72.2</ele>
        <time>2023-09-03T09:55:08Z</time>
      </trkpt>
      <trkpt lat="49.37598" lon="0.4182">
        <ele>72.3</ele>
        <time>2023-09-03T09:55:09Z</time>
      </trkpt>
      <trkpt lat="49.37593" lon="0.41824">
        <ele>72.4</ele>
        <time>2023-09-03T09:55:10Z</time>
      </trkpt>
      <trkpt lat="49.37588" lon="0.41828">
        <ele>72.5</ele>
        <time>2023-09-03T09:55:11Z</time>
      </trkpt>
      <trkpt lat="49.37583" lon="0.41832">
        <ele>72.6</ele>
        <time>2023-09-03T09:55:12Z</time>
      </trkpt>
      <trkpt lat="49.37578" lon="0.41835">
        <ele>72.8</ele>
        <time>2023-09-03T09:55:13Z</time>
      </trkpt>
      <trkpt lat="49.37573" lon="0.41839">
        <ele>72.9</ele>
        <time>2023-09-03T09:55:14Z</time>
      </trkpt>
      <trkpt lat="49.37569" lon="0.41841">
        <ele>73.1</ele>
        <time>2023-09-03T09:55:15Z</time>
      </trkpt>
      <trkpt lat="49.37564" lon="0.41843">
        <ele>73.2</ele>
        <time>2023-09-03T09:55:16Z</time>
      </trkpt>
      <trkpt lat="49.37559" lon="0.41845">
        <ele>73.4</ele>
        <time>2023-09-03T09:55:17Z</time>
      </trkpt>
      <trkpt lat="49.37553" lon="0.41846">
        <ele>73.5</ele>
        <time>2023-09-03T09:55:18Z</time>
      </trkpt>
      <trkpt lat="49.37548" lon="0.41847">
        <ele>73.6</ele>
        <time>2023-09-03T09:55:19Z</time>
      </trkpt>
      <trkpt lat="49.37543" lon="0.41848">
        <ele>73.8</ele>
        <time>2023-09-03T09:55:20Z</time>
      </trkpt>
      <trkpt lat="49.37538" lon="0.41848">
        <ele>73.9</ele>
        <time>2023-09-03T09:55:21Z</time>
      </trkpt>
      <trkpt lat="49.37532" lon="0.41847">
        <ele>74</ele>
        <time>2023-09-03T09:55:22Z</time>
      </trkpt>
      <trkpt lat="49.37527" lon="0.41845">
        <ele>74.2</ele>
        <time>2023-09-03T09:55:23Z</time>
      </trkpt>
      <trkpt lat="49.37522" lon="0.41843">
        <ele>74.3</ele>
        <time>2023-09-03T09:55:24Z</time>
      </trkpt>
      <trkpt lat="49.37516" lon="0.4184">
        <ele>74.5</ele>
        <time>2023-09-03T09:55:25Z</time>
      </trkpt>
      <trkpt lat="49.37511" lon="0.41838">
        <ele>74.6</ele>
        <time>2023-09-03T09:55:26Z</time>
      </trkpt>
      <trkpt lat="49.37506" lon="0.41835">
        <ele>74.7</ele>
        <time>2023-09-03T09:55:27Z</time>
      </trkpt>
      <trkpt lat="49.37501" lon="0.41832">
        <ele>74.9</ele>
        <time>2023-09-03T09:55:28Z</time>
      </trkpt>
      <trkpt lat="49.37496" lon="0.41829">
        <ele>75</ele>
        <time>2023-09-03T09:55:29Z</time>
      </trkpt>
      <trkpt lat="49.37491" lon="0.41826">
        <ele>75.1</ele>
        <time>2023-09-03T09:55:30Z</time>
      </trkpt>
      <trkpt lat="49.37486" lon="0.41823">
        <ele>75.3</ele>
        <time>2023-09-03T09:55:31Z</time>
      </trkpt>
      <trkpt lat="49.3748" lon="0.4182">
        <ele>75.4</ele>
        <time>2023-09-03T09:55:32Z</time>
      </trkpt>
      <trkpt lat="49.37475" lon="0.41817">
        <ele>75.5</ele>
        <time>2023-09-03T09:55:33Z</time>
      </trkpt>
      <trkpt lat="49.37469" lon="0.41813">
        <ele>75.7</ele>
        <time>2023-09-03T09:55:34Z</time>
      </trkpt>
      <trkpt lat="49.37463" lon="0.41809">
        <ele>75.8</ele>
        <time>2023-09-03T09:55:35Z</time>
      </trkpt>
      <trkpt lat="49.37457" lon="0.41806">
        <ele>75.9</ele>
        <time>2023-09-03T09:55:36Z</time>
      </trkpt>
      <trkpt lat="49.37451" lon="0.41802">
        <ele>76</ele>
        <time>2023-09-03T09:55:37Z</time>
      </trkpt>
      <trkpt lat="49.37446" lon="0.41799">
        <ele>76.2</ele>
        <time>2023-09-03T09:55:38Z</time>
      </trkpt>
      <trkpt lat="49.3744" lon="0.41795">
        <ele>76.3</ele>
        <time>2023-09-03T09:55:39Z</time>
      </trkpt>
      <trkpt lat="49.37435" lon="0.41791">
        <ele>76.4</ele>
        <time>2023-09-03T09:55:40Z</time>
      </trkpt>
      <trkpt lat="49.3743" lon="0.41786">
        <ele>76.5</ele>
        <time>2023-09-03T09:55:41Z</time>
      </trkpt>
      <trkpt lat="49.37425" lon="0.41782">
        <ele>76.7</ele>
        <time>2023-09-03T09:55:42Z</time>
      </trkpt>
      <trkpt lat="49.3742" lon="0.41777">
        <ele>76.8</ele>
        <time>2023-09-03T09:55:43Z</time>
      </trkpt>
      <trkpt lat="49.37415" lon="0.41771">
        <ele>77</ele>
        <time>2023-09-03T09:55:44Z</time>
      </trkpt>
      <trkpt lat="49.37411" lon="0.41766">
        <ele>77.1</ele>
        <time>2023-09-03T09:55:45Z</time>
      </trkpt>
      <trkpt lat="49.37407" lon="0.4176">
        <ele>77.3</ele>
        <time>2023-09-03T09:55:46Z</time>
      </trkpt>
      <trkpt lat="49.37403" lon="0.41754">
        <ele>77.6</ele>
        <time>2023-09-03T09:55:47Z</time>
      </trkpt>
      <trkpt lat="49.37399" lon="0.41748">
        <ele>77.7</ele>
        <time>2023-09-03T09:55:48Z</time>
      </trkpt>
      <trkpt lat="49.37395" lon="0.41742">
        <ele>77.7</ele>
        <time>2023-09-03T09:55:49Z</time>
      </trkpt>
      <trkpt lat="49.37391" lon="0.41736">
        <ele>77.7</ele>
        <time>2023-09-03T09:55:50Z</time>
      </trkpt>
      <trkpt lat="49.37387" lon="0.41729">
        <ele>77.9</ele>
        <time>2023-09-03T09:55:51Z</time>
      </trkpt>
      <trkpt lat="49.37383" lon="0.41723">
        <ele>78</ele>
        <time>2023-09-03T09:55:52Z</time>
      </trkpt>
      <trkpt lat="49.37379" lon="0.41716">
        <ele>78.2</ele>
        <time>2023-09-03T09:55:53Z</time>
      </trkpt>
      <trkpt lat="49.37375" lon="0.41709">
        <ele>78.5</ele>
        <time>2023-09-03T09:55:54Z</time>
      </trkpt>
      <trkpt lat="49.37372" lon="0.41703">
        <ele>78.7</ele>
        <time>2023-09-03T09:55:55Z</time>
      </trkpt>
      <trkpt lat="49.37368" lon="0.41696">
        <ele>78.9</ele>
        <time>2023-09-03T09:55:56Z</time>
      </trkpt>
      <trkpt lat="49.37365" lon="0.4169">
        <ele>79.1</ele>
        <time>2023-09-03T09:55:57Z</time>
      </trkpt>
      <trkpt lat="49.37362" lon="0.41684">
        <ele>79.3</ele>
        <time>2023-09-03T09:55:58Z</time>
      </trkpt>
      <trkpt lat="49.37358" lon="0.41678">
        <ele>79.5</ele>
        <time>2023-09-03T09:55:59Z</time>
      </trkpt>
      <trkpt lat="49.37355" lon="0.41672">
        <ele>79.7</ele>
        <time>2023-09-03T09:56:00Z</time>
      </trkpt>
      <trkpt lat="49.37352" lon="0.41665">
        <ele>79.9</ele>
        <time>2023-09-03T09:56:01Z</time>
      </trkpt>
      <trkpt lat="49.37349" lon="0.41659">
        <ele>80.1</ele>
        <time>2023-09-03T09:56:02Z</time>
      </trkpt>
      <trkpt lat="49.37347" lon="0.41654">
        <ele>80.3</ele>
        <time>2023-09-03T09:56:03Z</time>
      </trkpt>
      <trkpt lat="49.37344" lon="0.41648">
        <ele>80.6</ele>
        <time>2023-09-03T09:56:04Z</time>
      </trkpt>
      <trkpt lat="49.37341" lon="0.41642">
        <ele>80.8</ele>
        <time>2023-09-03T09:56:05Z</time>
      </trkpt>
      <trkpt lat="49.37338" lon="0.41636">
        <ele>81</ele>
        <time>2023-09-03T09:56:06Z</time>
      </trkpt>
      <trkpt lat="49.37335" lon="0.4163">
        <ele>81.2</ele>
        <time>2023-09-03T09:56:07Z</time>
      </trkpt>
      <trkpt lat="49.37332" lon="0.41624">
        <ele>81.4</ele>
        <time>2023-09-03T09:56:08Z</time>
      </trkpt>
      <trkpt lat="49.3733" lon="0.41619">
        <ele>81.6</ele>
        <time>2023-09-03T09:56:09Z</time>
      </trkpt>
      <trkpt lat="49.37326" lon="0.41613">
        <ele>81.8</ele>
        <time>2023-09-03T09:56:10Z</time>
      </trkpt>
      <trkpt lat="49.37323" lon="0.41607">
        <ele>82</ele>
        <time>2023-09-03T09:56:11Z</time>
      </trkpt>
      <trkpt lat="49.37321" lon="0.41602">
        <ele>82.2</ele>
        <time>2023-09-03T09:56:12Z</time>
      </trkpt>
      <trkpt lat="49.37318" lon="0.41596">
        <ele>82.4</ele>
        <time>2023-09-03T09:56:13Z</time>
      </trkpt>
      <trkpt lat="49.37315" lon="0.4159">
        <ele>82.6</ele>
        <time>2023-09-03T09:56:14Z</time>
      </trkpt>
      <trkpt lat="49.37312" lon="0.41584">
        <ele>82.8</ele>
        <time>2023-09-03T09:56:15Z</time>
      </trkpt>
      <trkpt lat="49.37309" lon="0.41579">
        <ele>83.1</ele>
        <time>2023-09-03T09:56:16Z</time>
      </trkpt>
      <trkpt lat="49.37306" lon="0.41573">
        <ele>83.3</ele>
        <time>2023-09-03T09:56:17Z</time>
      </trkpt>
      <trkpt lat="49.37303" lon="0.41568">
        <ele>83.5</ele>
        <time>2023-09-03T09:56:18Z</time>
      </trkpt>
      <trkpt lat="49.373" lon="0.41563">
        <ele>83.7</ele>
        <time>2023-09-03T09:56:19Z</time>
      </trkpt>
      <trkpt lat="49.37297" lon="0.41558">
        <ele>84</ele>
        <time>2023-09-03T09:56:20Z</time>
      </trkpt>
      <trkpt lat="49.37294" lon="0.41553">
        <ele>84.2</ele>
        <time>2023-09-03T09:56:21Z</time>
      </trkpt>
      <trkpt lat="49.37291" lon="0.41547">
        <ele>84.4</ele>
        <time>2023-09-03T09:56:22Z</time>
      </trkpt>
      <trkpt lat="49.37288" lon="0.41542">
        <ele>84.6</ele>
        <time>2023-09-03T09:56:23Z</time>
      </trkpt>
      <trkpt lat="49.37285" lon="0.41536">
        <ele>84.8</ele>
        <time>2023-09-03T09:56:24Z</time>
      </trkpt>
      <trkpt lat="49.37282" lon="0.4153">
        <ele>85.1</ele>
        <time>2023-09-03T09:56:25Z</time>
      </trkpt>
      <trkpt lat="49.37279" lon="0.41525">
        <ele>85.3</ele>
        <time>2023-09-03T09:56:26Z</time>
      </trkpt>
      <trkpt lat="49.37276" lon="0.41519">
        <ele>85.5</ele>
        <time>2023-09-03T09:56:27Z</time>
      </trkpt>
      <trkpt lat="49.37273" lon="0.41513">
        <ele>85.7</ele>
        <time>2023-09-03T09:56:28Z</time>
      </trkpt>
      <trkpt lat="49.37269" lon="0.41507">
        <ele>86</ele>
        <time>2023-09-03T09:56:29Z</time>
      </trkpt>
      <trkpt lat="49.37266" lon="0.41502">
        <ele>86.2</ele>
        <time>2023-09-03T09:56:30Z</time>
      </trkpt>
      <trkpt lat="49.37263" lon="0.41497">
        <ele>86.4</ele>
        <time>2023-09-03T09:56:31Z</time>
      </trkpt>
      <trkpt lat="49.3726" lon="0.41491">
        <ele>86.7</ele>
        <time>2023-09-03T09:56:32Z</time>
      </trkpt>
      <trkpt lat="49.37257" lon="0.41486">
        <ele>86.9</ele>
        <time>2023-09-03T09:56:33Z</time>
      </trkpt>
      <trkpt lat="49.37254" lon="0.4148">
        <ele>87.1</ele>
        <time>2023-09-03T09:56:34Z</time>
      </trkpt>
      <trkpt lat="49.37251" lon="0.41474">
        <ele>87.3</ele>
        <time>2023-09-03T09:56:35Z</time>
      </trkpt>
      <trkpt lat="49.37248" lon="0.41468">
        <ele>87.5</ele>
        <time>2023-09-03T09:56:36Z</time>
      </trkpt>
      <trkpt lat="49.37245" lon="0.41463">
        <ele>87.8</ele>
        <time>2023-09-03T09:56:37Z</time>
      </trkpt>
      <trkpt lat="49.37242" lon="0.41457">
        <ele>88</ele>
        <time>2023-09-03T09:56:38Z</time>
      </trkpt>
      <trkpt lat="49.37239" lon="0.41452">
        <ele>88.2</ele>
        <time>2023-09-03T09:56:39Z</time>
      </trkpt>
      <trkpt lat="49.37237" lon="0.41446">
        <ele>88.4</ele>
        <time>2023-09-03T09:56:40Z</time>
      </trkpt>
      <trkpt lat="49.37234" lon="0.41441">
        <ele>88.6</ele>
        <time>2023-09-03T09:56:41Z</time>
      </trkpt>
      <trkpt lat="49.37231" lon="0.41435">
        <ele>88.8</ele>
        <time>2023-09-03T09:56:42Z</time>
      </trkpt>
      <trkpt lat="49.37228" lon="0.41429">
        <ele>89</ele>
        <time>2023-09-03T09:56:43Z</time>
      </trkpt>
      <trkpt lat="49.37225" lon="0.41424">
        <ele>89.2</ele>
        <time>2023-09-03T09:56:44Z</time>
      </trkpt>
      <trkpt lat="49.37222" lon="0.41418">
        <ele>89.4</ele>
        <time>2023-09-03T09:56:45Z</time>
      </trkpt>
      <trkpt lat="49.37219" lon="0.41413">
        <ele>89.6</ele>
        <time>2023-09-03T09:56:46Z</time>
      </trkpt>
      <trkpt lat="49.37216" lon="0.41408">
        <ele>89.8</ele>
        <time>2023-09-03T09:56:47Z</time>
      </trkpt>
      <trkpt lat="49.37212" lon="0.41402">
        <ele>90</ele>
        <time>2023-09-03T09:56:48Z</time>
      </trkpt>
      <trkpt lat="49.37208" lon="0.41398">
        <ele>90.2</ele>
        <time>2023-09-03T09:56:49Z</time>
      </trkpt>
      <trkpt lat="49.37204" lon="0.41393">
        <ele>90.5</ele>
        <time>2023-09-03T09:56:50Z</time>
      </trkpt>
      <trkpt lat="49.372" lon="0.41389">
        <ele>90.7</ele>
        <time>2023-09-03T09:56:51Z</time>
      </trkpt>
      <trkpt lat="49.37196" lon="0.41385">
        <ele>90.9</ele>
        <time>2023-09-03T09:56:52Z</time>
      </trkpt>
      <trkpt lat="49.37192" lon="0.41381">
        <ele>91.1</ele>
        <time>2023-09-03T09:56:53Z</time>
      </trkpt>
      <trkpt lat="49.37188" lon="0.41376">
        <ele>91.3</ele>
        <time>2023-09-03T09:56:54Z</time>
      </trkpt>
      <trkpt lat="49.37184" lon="0.41372">
        <ele>91.5</ele>
        <time>2023-09-03T09:56:55Z</time>
      </trkpt>
      <trkpt lat="49.3718" lon="0.41368">
        <ele>91.7</ele>
        <time>2023-09-03T09:56:56Z</time>
      </trkpt>
      <trkpt lat="49.37176" lon="0.41364">
        <ele>91.9</ele>
        <time>2023-09-03T09:56:57Z</time>
      </trkpt>
      <trkpt lat="49.37171" lon="0.4136">
        <ele>92.1</ele>
        <time>2023-09-03T09:56:58Z</time>
      </trkpt>
      <trkpt lat="49.37167" lon="0.41356">
        <ele>92.4</ele>
        <time>2023-09-03T09:56:59Z</time>
      </trkpt>
      <trkpt lat="49.37162" lon="0.41353">
        <ele>92.6</ele>
        <time>2023-09-03T09:57:00Z</time>
      </trkpt>
      <trkpt lat="49.37158" lon="0.41349">
        <ele>92.9</ele>
        <time>2023-09-03T09:57:01Z</time>
      </trkpt>
      <trkpt lat="49.37153" lon="0.41346">
        <ele>93.2</ele>
        <time>2023-09-03T09:57:02Z</time>
      </trkpt>
      <trkpt lat="49.3715" lon="0.41342">
        <ele>93.5</ele>
        <time>2023-09-03T09:57:03Z</time>
      </trkpt>
      <trkpt lat="49.37146" lon="0.41338">
        <ele>93.7</ele>
        <time>2023-09-03T09:57:04Z</time>
      </trkpt>
      <trkpt lat="49.37142" lon="0.41334">
        <ele>94</ele>
        <time>2023-09-03T09:57:05Z</time>
      </trkpt>
      <trkpt lat="49.37139" lon="0.4133">
        <ele>94.3</ele>
        <time>2023-09-03T09:57:06Z</time>
      </trkpt>
      <trkpt lat="49.37135" lon="0.41326">
        <ele>94.6</ele>
        <time>2023-09-03T09:57:07Z</time>
      </trkpt>
      <trkpt lat="49.37131" lon="0.41322">
        <ele>94.8</ele>
        <time>2023-09-03T09:57:08Z</time>
      </trkpt>
      <trkpt lat="49.37127" lon="0.41319">
        <ele>95.1</ele>
        <time>2023-09-03T09:57:09Z</time>
      </trkpt>
      <trkpt lat="49.37123" lon="0.41315">
        <ele>95.4</ele>
        <time>2023-09-03T09:57:10Z</time>
      </trkpt>
      <trkpt lat="49.37119" lon="0.4131">
        <ele>95.7</ele>
        <time>2023-09-03T09:57:11Z</time>
      </trkpt>
      <trkpt lat="49.37115" lon="0.41306">
        <ele>96.1</ele>
        <time>2023-09-03T09:57:12Z</time>
      </trkpt>
      <trkpt lat="49.37111" lon="0.41302">
        <ele>96.4</ele>
        <time>2023-09-03T09:57:13Z</time>
      </trkpt>
      <trkpt lat="49.37107" lon="0.41298">
        <ele>96.7</ele>
        <time>2023-09-03T09:57:14Z</time>
      </trkpt>
      <trkpt lat="49.37103" lon="0.41293">
        <ele>97</ele>
        <time>2023-09-03T09:57:15Z</time>
      </trkpt>
      <trkpt lat="49.37098" lon="0.41289">
        <ele>97.2</ele>
        <time>2023-09-03T09:57:16Z</time>
      </trkpt>
      <trkpt lat="49.37094" lon="0.41285">
        <ele>97.5</ele>
        <time>2023-09-03T09:57:17Z</time>
      </trkpt>
      <trkpt lat="49.3709" lon="0.41281">
        <ele>97.8</ele>
        <time>2023-09-03T09:57:18Z</time>
      </trkpt>
      <trkpt lat="49.37085" lon="0.41276">
        <ele>98</ele>
        <time>2023-09-03T09:57:19Z</time>
      </trkpt>
      <trkpt lat="49.3708" lon="0.41271">
        <ele>98.3</ele>
        <time>2023-09-03T09:57:20Z</time>
      </trkpt>
      <trkpt lat="49.37076" lon="0.41266">
        <ele>98.5</ele>
        <time>2023-09-03T09:57:21Z</time>
      </trkpt>
      <trkpt lat="49.37071" lon="0.41262">
        <ele>98.7</ele>
        <time>2023-09-03T09:57:22Z</time>
      </trkpt>
      <trkpt lat="49.37066" lon="0.41257">
        <ele>99</ele>
        <time>2023-09-03T09:57:23Z</time>
      </trkpt>
      <trkpt lat="49.37061" lon="0.41253">
        <ele>99.2</ele>
        <time>2023-09-03T09:57:24Z</time>
      </trkpt>
      <trkpt lat="49.37055" lon="0.41248">
        <ele>99.5</ele>
        <time>2023-09-03T09:57:25Z</time>
      </trkpt>
      <trkpt lat="49.3705" lon="0.41243">
        <ele>99.7</ele>
        <time>2023-09-03T09:57:26Z</time>
      </trkpt>
      <trkpt lat="49.37045" lon="0.41238">
        <ele>99.9</ele>
        <time>2023-09-03T09:57:27Z</time>
      </trkpt>
      <trkpt lat="49.3704" lon="0.41233">
        <ele>100.1</ele>
        <time>2023-09-03T09:57:28Z</time>
      </trkpt>
      <trkpt lat="49.37035" lon="0.41228">
        <ele>100.2</ele>
        <time>2023-09-03T09:57:29Z</time>
      </trkpt>
      <trkpt lat="49.3703" lon="0.41225">
        <ele>100.3</ele>
        <time>2023-09-03T09:57:30Z</time>
      </trkpt>
      <trkpt lat="49.37025" lon="0.41221">
        <ele>100.4</ele>
        <time>2023-09-03T09:57:31Z</time>
      </trkpt>
      <trkpt lat="49.37021" lon="0.41217">
        <ele>100.5</ele>
        <time>2023-09-03T09:57:32Z</time>
      </trkpt>
      <trkpt lat="49.37017" lon="0.41213">
        <ele>100.5</ele>
        <time>2023-09-03T09:57:33Z</time>
      </trkpt>
      <trkpt lat="49.37012" lon="0.41209">
        <ele>100.6</ele>
        <time>2023-09-03T09:57:34Z</time>
      </trkpt>
      <trkpt lat="49.37006" lon="0.41206">
        <ele>100.7</ele>
        <time>2023-09-03T09:57:35Z</time>
      </trkpt>
      <trkpt lat="49.37" lon="0.41203">
        <ele>100.8</ele>
        <time>2023-09-03T09:57:36Z</time>
      </trkpt>
      <trkpt lat="49.36994" lon="0.412">
        <ele>100.9</ele>
        <time>2023-09-03T09:57:37Z</time>
      </trkpt>
      <trkpt lat="49.36988" lon="0.41198">
        <ele>101</ele>
        <time>2023-09-03T09:57:38Z</time>
      </trkpt>
      <trkpt lat="49.36983" lon="0.41197">
        <ele>101.1</ele>
        <time>2023-09-03T09:57:39Z</time>
      </trkpt>
      <trkpt lat="49.36977" lon="0.41195">
        <ele>101.3</ele>
        <time>2023-09-03T09:57:40Z</time>
      </trkpt>
      <trkpt lat="49.36971" lon="0.41193">
        <ele>101.4</ele>
        <time>2023-09-03T09:57:41Z</time>
      </trkpt>
      <trkpt lat="49.36965" lon="0.41191">
        <ele>101.5</ele>
        <time>2023-09-03T09:57:42Z</time>
      </trkpt>
      <trkpt lat="49.36959" lon="0.41188">
        <ele>101.6</ele>
        <time>2023-09-03T09:57:43Z</time>
      </trkpt>
      <trkpt lat="49.36953" lon="0.41187">
        <ele>101.7</ele>
        <time>2023-09-03T09:57:44Z</time>
      </trkpt>
      <trkpt lat="49.36948" lon="0.41185">
        <ele>101.8</ele>
        <time>2023-09-03T09:57:45Z</time>
      </trkpt>
      <trkpt lat="49.36942" lon="0.41183">
        <ele>101.8</ele>
        <time>2023-09-03T09:57:46Z</time>
      </trkpt>
      <trkpt lat="49.36936" lon="0.41182">
        <ele>102</ele>
        <time>2023-09-03T09:57:47Z</time>
      </trkpt>
      <trkpt lat="49.3693" lon="0.4118">
        <ele>102.1</ele>
        <time>2023-09-03T09:57:48Z</time>
      </trkpt>
      <trkpt lat="49.36925" lon="0.41177">
        <ele>102.2</ele>
        <time>2023-09-03T09:57:49Z</time>
      </trkpt>
      <trkpt lat="49.3692" lon="0.41175">
        <ele>102.4</ele>
        <time>2023-09-03T09:57:50Z</time>
      </trkpt>
      <trkpt lat="49.36915" lon="0.41172">
        <ele>102.5</ele>
        <time>2023-09-03T09:57:51Z</time>
      </trkpt>
      <trkpt lat="49.3691" lon="0.41169">
        <ele>102.6</ele>
        <time>2023-09-03T09:57:52Z</time>
      </trkpt>
      <trkpt lat="49.36905" lon="0.41166">
        <ele>102.7</ele>
        <time>2023-09-03T09:57:53Z</time>
      </trkpt>
      <trkpt lat="49.369" lon="0.41162">
        <ele>102.9</ele>
        <time>2023-09-03T09:57:54Z</time>
      </trkpt>
      <trkpt lat="49.36896" lon="0.41159">
        <ele>103</ele>
        <time>2023-09-03T09:57:55Z</time>
      </trkpt>
      <trkpt lat="49.36891" lon="0.41155">
        <ele>103.2</ele>
        <time>2023-09-03T09:57:56Z</time>
      </trkpt>
      <trkpt lat="49.36886" lon="0.4115">
        <ele>103.4</ele>
        <time>2023-09-03T09:57:57Z</time>
      </trkpt>
      <trkpt lat="49.36882" lon="0.41145">
        <ele>103.6</ele>
        <time>2023-09-03T09:57:58Z</time>
      </trkpt>
      <trkpt lat="49.36878" lon="0.41139">
        <ele>103.7</ele>
        <time>2023-09-03T09:57:59Z</time>
      </trkpt>
      <trkpt lat="49.36873" lon="0.41134">
        <ele>103.9</ele>
        <time>2023-09-03T09:58:00Z</time>
      </trkpt>
      <trkpt lat="49.36869" lon="0.41129">
        <ele>104.1</ele>
        <time>2023-09-03T09:58:01Z</time>
      </trkpt>
      <trkpt lat="49.36864" lon="0.41124">
        <ele>104.3</ele>
        <time>2023-09-03T09:58:02Z</time>
      </trkpt>
      <trkpt lat="49.36861" lon="0.41119">
        <ele>104.5</ele>
        <time>2023-09-03T09:58:03Z</time>
      </trkpt>
      <trkpt lat="49.36857" lon="0.41114">
        <ele>104.7</ele>
        <time>2023-09-03T09:58:04Z</time>
      </trkpt>
      <trkpt lat="49.36853" lon="0.41109">
        <ele>104.9</ele>
        <time>2023-09-03T09:58:05Z</time>
      </trkpt>
      <trkpt lat="49.3685" lon="0.41104">
        <ele>105</ele>
        <time>2023-09-03T09:58:06Z</time>
      </trkpt>
      <trkpt lat="49.36847" lon="0.41099">
        <ele>105.2</ele>
        <time>2023-09-03T09:58:07Z</time>
      </trkpt>
      <trkpt lat="49.36844" lon="0.41095">
        <ele>105.4</ele>
        <time>2023-09-03T09:58:08Z</time>
      </trkpt>
      <trkpt lat="49.36841" lon="0.41091">
        <ele>105.5</ele>
        <time>2023-09-03T09:58:09Z</time>
      </trkpt>
      <trkpt lat="49.36839" lon="0.41087">
        <ele>105.7</ele>
        <time>2023-09-03T09:58:10Z</time>
      </trkpt>
      <trkpt lat="49.36837" lon="0.41084">
        <ele>105.8</ele>
        <time>2023-09-03T09:58:11Z</time>
      </trkpt>
      <trkpt lat="49.36835" lon="0.41081">
        <ele>106</ele>
        <time>2023-09-03T09:58:12Z</time>
      </trkpt>
      <trkpt lat="49.36833" lon="0.41077">
        <ele>106.1</ele>
        <time>2023-09-03T09:58:13Z</time>
      </trkpt>
      <trkpt lat="49.36831" lon="0.41075">
        <ele>106.2</ele>
        <time>2023-09-03T09:58:14Z</time>
      </trkpt>
      <trkpt lat="49.36828" lon="0.41071">
        <ele>106.3</ele>
        <time>2023-09-03T09:58:15Z</time>
      </trkpt>
      <trkpt lat="49.36828" lon="0.4107">
        <ele>106.4</ele>
        <time>2023-09-03T09:58:16Z</time>
      </trkpt>
      <trkpt lat="49.36827" lon="0.41069">
        <ele>106.4</ele>
        <time>2023-09-03T09:58:17Z</time>
      </trkpt>
      <trkpt lat="49.36828" lon="0.41069">
        <ele>106.4</ele>
        <time>2023-09-03T09:58:18Z</time>
      </trkpt>
      <trkpt lat="49.36828" lon="0.41069">
        <ele>106.4</ele>
        <time>2023-09-03T09:58:19Z</time>
      </trkpt>
      <trkpt lat="49.36827" lon="0.41069">
        <ele>106.4</ele>
        <time>2023-09-03T09:58:20Z</time>
      </trkpt>
      <trkpt lat="49.36827" lon="0.41068">
        <ele>106.4</ele>
        <time>2023-09-03T09:58:21Z</time>
      </trkpt>
      <trkpt lat="49.36826" lon="0.41067">
        <ele>106.5</ele>
        <time>2023-09-03T09:58:22Z</time>
      </trkpt>
      <trkpt lat="49.36825" lon="0.41066">
        <ele>106.5</ele>
        <time>2023-09-03T09:58:23Z</time>
      </trkpt>
      <trkpt lat="49.36825" lon="0.41065">
        <ele>106.5</ele>
        <time>2023-09-03T09:58:24Z</time>
      </trkpt>
      <trkpt lat="49.36825" lon="0.41065">
        <ele>106.5</ele>
        <time>2023-09-03T09:58:25Z</time>
      </trkpt>
      <trkpt lat="49.36825" lon="0.41065">
        <ele>106.5</ele>
        <time>2023-09-03T09:58:26Z</time>
      </trkpt>
      <trkpt lat="49.36825" lon="0.41065">
        <ele>106.5</ele>
        <time>2023-09-03T09:58:27Z</time>
      </trkpt>
      <trkpt lat="49.36825" lon="0.41065">
        <ele>106.5</ele>
        <time>2023-09-03T09:58:28Z</time>
      </trkpt>
      <trkpt lat="49.36825" lon="0.41065">
        <ele>106.5</ele>
        <time>2023-09-03T09:58:29Z</time>
      </trkpt>
      <trkpt lat="49.36825" lon="0.41065">
        <ele>106.5</ele>
        <time>2023-09-03T09:58:30Z</time>
      </trkpt>
      <trkpt lat="49.36825" lon="0.41065">
        <ele>106.5</ele>
        <time>2023-09-03T09:58:31Z</time>
      </trkpt>
      <trkpt lat="49.36825" lon="0.41065">
        <ele>106.5</ele>
        <time>2023-09-03T09:58:32Z</time>
      </trkpt>
      <trkpt lat="49.36825" lon="0.41065">
        <ele>106.5</ele>
        <time>2023-09-03T09:58:33Z</time>
      </trkpt>
      <trkpt lat="49.36825" lon="0.41065">
        <ele>106.5</ele>
        <time>2023-09-03T09:58:34Z</time>
      </trkpt>
      <trkpt lat="49.36825" lon="0.41065">
        <ele>106.5</ele>
        <time>2023-09-03T09:58:35Z</time>
      </trkpt>
      <trkpt lat="49.36819" lon="0.41059">
        <ele>106.8</ele>
        <time>2023-09-03T10:09:03Z</time>
      </trkpt>
      <trkpt lat="49.36817" lon="0.41058">
        <ele>106.8</ele>
        <time>2023-09-03T10:09:04Z</time>
      </trkpt>
      <trkpt lat="49.36816" lon="0.41057">
        <ele>106.8</ele>
        <time>2023-09-03T10:09:05Z</time>
      </trkpt>
      <trkpt lat="49.36815" lon="0.41055">
        <ele>106.9</ele>
        <time>2023-09-03T10:09:06Z</time>
      </trkpt>
      <trkpt lat="49.36814" lon="0.41054">
        <ele>107</ele>
        <time>2023-09-03T10:09:07Z</time>
      </trkpt>
      <trkpt lat="49.36813" lon="0.41052">
        <ele>107</ele>
        <time>2023-09-03T10:09:08Z</time>
      </trkpt>
      <trkpt lat="49.36812" lon="0.4105">
        <ele>107.1</ele>
        <time>2023-09-03T10:09:09Z</time>
      </trkpt>
      <trkpt lat="49.36811" lon="0.41048">
        <ele>107.1</ele>
        <time>2023-09-03T10:09:10Z</time>
      </trkpt>
      <trkpt lat="49.3681" lon="0.41046">
        <ele>107.2</ele>
        <time>2023-09-03T10:09:11Z</time>
      </trkpt>
      <trkpt lat="49.36808" lon="0.41043">
        <ele>107.3</ele>
        <time>2023-09-03T10:09:12Z</time>
      </trkpt>
      <trkpt lat="49.36807" lon="0.41041">
        <ele>107.3</ele>
        <time>2023-09-03T10:09:13Z</time>
      </trkpt>
      <trkpt lat="49.36804" lon="0.41038">
        <ele>107.5</ele>
        <time>2023-09-03T10:09:14Z</time>
      </trkpt>
      <trkpt lat="49.36803" lon="0.41037">
        <ele>107.5</ele>
        <time>2023-09-03T10:09:15Z</time>
      </trkpt>
      <trkpt lat="49.368" lon="0.41034">
        <ele>107.7</ele>
        <time>2023-09-03T10:09:16Z</time>
      </trkpt>
      <trkpt lat="49.36799" lon="0.41032">
        <ele>107.7</ele>
        <time>2023-09-03T10:09:17Z</time>
      </trkpt>
      <trkpt lat="49.36796" lon="0.4103">
        <ele>107.8</ele>
        <time>2023-09-03T10:09:18Z</time>
      </trkpt>
      <trkpt lat="49.36794" lon="0.41028">
        <ele>107.9</ele>
        <time>2023-09-03T10:09:19Z</time>
      </trkpt>
      <trkpt lat="49.3679" lon="0.41025">
        <ele>108.1</ele>
        <time>2023-09-03T10:09:20Z</time>
      </trkpt>
      <trkpt lat="49.36789" lon="0.41023">
        <ele>108.1</ele>
        <time>2023-09-03T10:09:21Z</time>
      </trkpt>
      <trkpt lat="49.36787" lon="0.41021">
        <ele>108.2</ele>
        <time>2023-09-03T10:09:22Z</time>
      </trkpt>
      <trkpt lat="49.36785" lon="0.41019">
        <ele>108.3</ele>
        <time>2023-09-03T10:09:23Z</time>
      </trkpt>
      <trkpt lat="49.36782" lon="0.41017">
        <ele>108.4</ele>
        <time>2023-09-03T10:09:24Z</time>
      </trkpt>
      <trkpt lat="49.36778" lon="0.41014">
        <ele>108.6</ele>
        <time>2023-09-03T10:09:25Z</time>
      </trkpt>
      <trkpt lat="49.36777" lon="0.41012">
        <ele>108.6</ele>
        <time>2023-09-03T10:09:26Z</time>
      </trkpt>
      <trkpt lat="49.36774" lon="0.4101">
        <ele>108.8</ele>
        <time>2023-09-03T10:09:27Z</time>
      </trkpt>
      <trkpt lat="49.3677" lon="0.41007">
        <ele>108.9</ele>
        <time>2023-09-03T10:09:28Z</time>
      </trkpt>
      <trkpt lat="49.36766" lon="0.41004">
        <ele>109</ele>
        <time>2023-09-03T10:09:29Z</time>
      </trkpt>
      <trkpt lat="49.36763" lon="0.41001">
        <ele>109.1</ele>
        <time>2023-09-03T10:09:30Z</time>
      </trkpt>
      <trkpt lat="49.36759" lon="0.40999">
        <ele>109.3</ele>
        <time>2023-09-03T10:09:31Z</time>
      </trkpt>
      <trkpt lat="49.36756" lon="0.40996">
        <ele>109.4</ele>
        <time>2023-09-03T10:09:32Z</time>
      </trkpt>
      <trkpt lat="49.36751" lon="0.40993">
        <ele>109.5</ele>
        <time>2023-09-03T10:09:33Z</time>
      </trkpt>
      <trkpt lat="49.36747" lon="0.40991">
        <ele>109.7</ele>
        <time>2023-09-03T10:09:34Z</time>
      </trkpt>
      <trkpt lat="49.36743" lon="0.40987">
        <ele>109.8</ele>
        <time>2023-09-03T10:09:35Z</time>
      </trkpt>
      <trkpt lat="49.36738" lon="0.40984">
        <ele>110</ele>
        <time>2023-09-03T10:09:36Z</time>
      </trkpt>
      <trkpt lat="49.36734" lon="0.40981">
        <ele>110.1</ele>
        <time>2023-09-03T10:09:37Z</time>
      </trkpt>
      <trkpt lat="49.36729" lon="0.40978">
        <ele>110.2</ele>
        <time>2023-09-03T10:09:38Z</time>
      </trkpt>
      <trkpt lat="49.36725" lon="0.40974">
        <ele>110.3</ele>
        <time>2023-09-03T10:09:39Z</time>
      </trkpt>
      <trkpt lat="49.3672" lon="0.40971">
        <ele>110.4</ele>
        <time>2023-09-03T10:09:40Z</time>
      </trkpt>
      <trkpt lat="49.36715" lon="0.40968">
        <ele>110.6</ele>
        <time>2023-09-03T10:09:41Z</time>
      </trkpt>
      <trkpt lat="49.3671" lon="0.40965">
        <ele>110.7</ele>
        <time>2023-09-03T10:09:42Z</time>
      </trkpt>
      <trkpt lat="49.36705" lon="0.40962">
        <ele>110.8</ele>
        <time>2023-09-03T10:09:43Z</time>
      </trkpt>
      <trkpt lat="49.36701" lon="0.4096">
        <ele>110.8</ele>
        <time>2023-09-03T10:09:44Z</time>
      </trkpt>
      <trkpt lat="49.36696" lon="0.40957">
        <ele>110.9</ele>
        <time>2023-09-03T10:09:45Z</time>
      </trkpt>
      <trkpt lat="49.36692" lon="0.40954">
        <ele>111</ele>
        <time>2023-09-03T10:09:46Z</time>
      </trkpt>
      <trkpt lat="49.36687" lon="0.40951">
        <ele>111.1</ele>
        <time>2023-09-03T10:09:47Z</time>
      </trkpt>
      <trkpt lat="49.36682" lon="0.40948">
        <ele>111.1</ele>
        <time>2023-09-03T10:09:48Z</time>
      </trkpt>
      <trkpt lat="49.36677" lon="0.40946">
        <ele>111.2</ele>
        <time>2023-09-03T10:09:49Z</time>
      </trkpt>
      <trkpt lat="49.36672" lon="0.40943">
        <ele>111.3</ele>
        <time>2023-09-03T10:09:50Z</time>
      </trkpt>
      <trkpt lat="49.36667" lon="0.4094">
        <ele>111.4</ele>
        <time>2023-09-03T10:09:51Z</time>
      </trkpt>
      <trkpt lat="49.36663" lon="0.40937">
        <ele>111.4</ele>
        <time>2023-09-03T10:09:52Z</time>
      </trkpt>
      <trkpt lat="49.36658" lon="0.40934">
        <ele>111.5</ele>
        <time>2023-09-03T10:09:53Z</time>
      </trkpt>
      <trkpt lat="49.36653" lon="0.40932">
        <ele>111.6</ele>
        <time>2023-09-03T10:09:54Z</time>
      </trkpt>
      <trkpt lat="49.36649" lon="0.40929">
        <ele>111.6</ele>
        <time>2023-09-03T10:09:55Z</time>
      </trkpt>
      <trkpt lat="49.36644" lon="0.40926">
        <ele>111.7</ele>
        <time>2023-09-03T10:09:56Z</time>
      </trkpt>
      <trkpt lat="49.36639" lon="0.40923">
        <ele>111.7</ele>
        <time>2023-09-03T10:09:57Z</time>
      </trkpt>
      <trkpt lat="49.36634" lon="0.40921">
        <ele>111.8</ele>
        <time>2023-09-03T10:09:58Z</time>
      </trkpt>
      <trkpt lat="49.36629" lon="0.40918">
        <ele>111.9</ele>
        <time>2023-09-03T10:09:59Z</time>
      </trkpt>
      <trkpt lat="49.36625" lon="0.40916">
        <ele>111.9</ele>
        <time>2023-09-03T10:10:00Z</time>
      </trkpt>
      <trkpt lat="49.36621" lon="0.40913">
        <ele>112</ele>
        <time>2023-09-03T10:10:01Z</time>
      </trkpt>
      <trkpt lat="49.36616" lon="0.4091">
        <ele>112</ele>
        <time>2023-09-03T10:10:02Z</time>
      </trkpt>
      <trkpt lat="49.36612" lon="0.40907">
        <ele>112</ele>
        <time>2023-09-03T10:10:03Z</time>
      </trkpt>
      <trkpt lat="49.36609" lon="0.40905">
        <ele>112.1</ele>
        <time>2023-09-03T10:10:04Z</time>
      </trkpt>
      <trkpt lat="49.36604" lon="0.40902">
        <ele>112.1</ele>
        <time>2023-09-03T10:10:05Z</time>
      </trkpt>
      <trkpt lat="49.36601" lon="0.40899">
        <ele>112.1</ele>
        <time>2023-09-03T10:10:06Z</time>
      </trkpt>
      <trkpt lat="49.36598" lon="0.40897">
        <ele>112.1</ele>
        <time>2023-09-03T10:10:07Z</time>
      </trkpt>
      <trkpt lat="49.36594" lon="0.40895">
        <ele>112.2</ele>
        <time>2023-09-03T10:10:08Z</time>
      </trkpt>
      <trkpt lat="49.3659" lon="0.40893">
        <ele>112.2</ele>
        <time>2023-09-03T10:10:09Z</time>
      </trkpt>
      <trkpt lat="49.36586" lon="0.40891">
        <ele>112.2</ele>
        <time>2023-09-03T10:10:10Z</time>
      </trkpt>
      <trkpt lat="49.36582" lon="0.40889">
        <ele>112.2</ele>
        <time>2023-09-03T10:10:11Z</time>
      </trkpt>
      <trkpt lat="49.36578" lon="0.40886">
        <ele>112.3</ele>
        <time>2023-09-03T10:10:12Z</time>
      </trkpt>
      <trkpt lat="49.36574" lon="0.40884">
        <ele>112.3</ele>
        <time>2023-09-03T10:10:13Z</time>
      </trkpt>
      <trkpt lat="49.3657" lon="0.40881">
        <ele>112.3</ele>
        <time>2023-09-03T10:10:14Z</time>
      </trkpt>
      <trkpt lat="49.36566" lon="0.40879">
        <ele>112.4</ele>
        <time>2023-09-03T10:10:15Z</time>
      </trkpt>
      <trkpt lat="49.36562" lon="0.40877">
        <ele>112.4</ele>
        <time>2023-09-03T10:10:16Z</time>
      </trkpt>
      <trkpt lat="49.36558" lon="0.40875">
        <ele>112.5</ele>
        <time>2023-09-03T10:10:17Z</time>
      </trkpt>
      <trkpt lat="49.36555" lon="0.40873">
        <ele>112.6</ele>
        <time>2023-09-03T10:10:18Z</time>
      </trkpt>
      <trkpt lat="49.36551" lon="0.40871">
        <ele>112.7</ele>
        <time>2023-09-03T10:10:19Z</time>
      </trkpt>
      <trkpt lat="49.36548" lon="0.40869">
        <ele>112.7</ele>
        <time>2023-09-03T10:10:20Z</time>
      </trkpt>
      <trkpt lat="49.36545" lon="0.40868">
        <ele>112.8</ele>
        <time>2023-09-03T10:10:21Z</time>
      </trkpt>
      <trkpt lat="49.36542" lon="0.40865">
        <ele>112.9</ele>
        <time>2023-09-03T10:10:22Z</time>
      </trkpt>
      <trkpt lat="49.36539" lon="0.40864">
        <ele>112.9</ele>
        <time>2023-09-03T10:10:23Z</time>
      </trkpt>
      <trkpt lat="49.36535" lon="0.40861">
        <ele>113</ele>
        <time>2023-09-03T10:10:24Z</time>
      </trkpt>
      <trkpt lat="49.36534" lon="0.40861">
        <ele>113.1</ele>
        <time>2023-09-03T10:10:25Z</time>
      </trkpt>
      <trkpt lat="49.36532" lon="0.40859">
        <ele>113.1</ele>
        <time>2023-09-03T10:10:26Z</time>
      </trkpt>
      <trkpt lat="49.36532" lon="0.40859">
        <ele>113.1</ele>
        <time>2023-09-03T10:10:27Z</time>
      </trkpt>
      <trkpt lat="49.36531" lon="0.40858">
        <ele>113.2</ele>
        <time>2023-09-03T10:10:28Z</time>
      </trkpt>
      <trkpt lat="49.3653" lon="0.40857">
        <ele>113.2</ele>
        <time>2023-09-03T10:10:29Z</time>
      </trkpt>
      <trkpt lat="49.36528" lon="0.40856">
        <ele>113.2</ele>
        <time>2023-09-03T10:10:30Z</time>
      </trkpt>
      <trkpt lat="49.36525" lon="0.40853">
        <ele>113.3</ele>
        <time>2023-09-03T10:10:31Z</time>
      </trkpt>
      <trkpt lat="49.36524" lon="0.40852">
        <ele>113.4</ele>
        <time>2023-09-03T10:10:32Z</time>
      </trkpt>
      <trkpt lat="49.36522" lon="0.40847">
        <ele>113.4</ele>
        <time>2023-09-03T10:10:33Z</time>
      </trkpt>
      <trkpt lat="49.36521" lon="0.40843">
        <ele>113.5</ele>
        <time>2023-09-03T10:10:34Z</time>
      </trkpt>
      <trkpt lat="49.36518" lon="0.40839">
        <ele>113.7</ele>
        <time>2023-09-03T10:10:35Z</time>
      </trkpt>
      <trkpt lat="49.36516" lon="0.40834">
        <ele>113.7</ele>
        <time>2023-09-03T10:10:36Z</time>
      </trkpt>
      <trkpt lat="49.36513" lon="0.40829">
        <ele>113.7</ele>
        <time>2023-09-03T10:10:37Z</time>
      </trkpt>
      <trkpt lat="49.36509" lon="0.40823">
        <ele>113.6</ele>
        <time>2023-09-03T10:10:38Z</time>
      </trkpt>
      <trkpt lat="49.36505" lon="0.40818">
        <ele>113.6</ele>
        <time>2023-09-03T10:10:39Z</time>
      </trkpt>
      <trkpt lat="49.36501" lon="0.40811">
        <ele>113.6</ele>
        <time>2023-09-03T10:10:40Z</time>
      </trkpt>
      <trkpt lat="49.36498" lon="0.40804">
        <ele>113.6</ele>
        <time>2023-09-03T10:10:41Z</time>
      </trkpt>
      <trkpt lat="49.36494" lon="0.40797">
        <ele>113.6</ele>
        <time>2023-09-03T10:10:42Z</time>
      </trkpt>
      <trkpt lat="49.36491" lon="0.4079">
        <ele>113.6</ele>
        <time>2023-09-03T10:10:43Z</time>
      </trkpt>
      <trkpt lat="49.36488" lon="0.40783">
        <ele>113.6</ele>
        <time>2023-09-03T10:10:44Z</time>
      </trkpt>
      <trkpt lat="49.36485" lon="0.40776">
        <ele>113.6</ele>
        <time>2023-09-03T10:10:45Z</time>
      </trkpt>
      <trkpt lat="49.36482" lon="0.40768">
        <ele>113.7</ele>
        <time>2023-09-03T10:10:46Z</time>
      </trkpt>
      <trkpt lat="49.36479" lon="0.40762">
        <ele>113.7</ele>
        <time>2023-09-03T10:10:47Z</time>
      </trkpt>
      <trkpt lat="49.36475" lon="0.40755">
        <ele>113.7</ele>
        <time>2023-09-03T10:10:48Z</time>
      </trkpt>
      <trkpt lat="49.36472" lon="0.40749">
        <ele>113.7</ele>
        <time>2023-09-03T10:10:49Z</time>
      </trkpt>
      <trkpt lat="49.3647" lon="0.40743">
        <ele>113.7</ele>
        <time>2023-09-03T10:10:50Z</time>
      </trkpt>
      <trkpt lat="49.36467" lon="0.40737">
        <ele>113.7</ele>
        <time>2023-09-03T10:10:51Z</time>
      </trkpt>
      <trkpt lat="49.36463" lon="0.4073">
        <ele>113.7</ele>
        <time>2023-09-03T10:10:52Z</time>
      </trkpt>
      <trkpt lat="49.3646" lon="0.40724">
        <ele>113.7</ele>
        <time>2023-09-03T10:10:53Z</time>
      </trkpt>
      <trkpt lat="49.36456" lon="0.40718">
        <ele>113.7</ele>
        <time>2023-09-03T10:10:54Z</time>
      </trkpt>
      <trkpt lat="49.36453" lon="0.40711">
        <ele>113.7</ele>
        <time>2023-09-03T10:10:55Z</time>
      </trkpt>
      <trkpt lat="49.3645" lon="0.40705">
        <ele>113.7</ele>
        <time>2023-09-03T10:10:56Z</time>
      </trkpt>
      <trkpt lat="49.36447" lon="0.40699">
        <ele>113.7</ele>
        <time>2023-09-03T10:10:57Z</time>
      </trkpt>
      <trkpt lat="49.36444" lon="0.40692">
        <ele>113.8</ele>
        <time>2023-09-03T10:10:58Z</time>
      </trkpt>
      <trkpt lat="49.36441" lon="0.40685">
        <ele>113.8</ele>
        <time>2023-09-03T10:10:59Z</time>
      </trkpt>
      <trkpt lat="49.36438" lon="0.40678">
        <ele>113.8</ele>
        <time>2023-09-03T10:11:00Z</time>
      </trkpt>
      <trkpt lat="49.36434" lon="0.40672">
        <ele>113.8</ele>
        <time>2023-09-03T10:11:01Z</time>
      </trkpt>
      <trkpt lat="49.36431" lon="0.40665">
        <ele>113.8</ele>
        <time>2023-09-03T10:11:02Z</time>
      </trkpt>
      <trkpt lat="49.36427" lon="0.40657">
        <ele>113.8</ele>
        <time>2023-09-03T10:11:03Z</time>
      </trkpt>
      <trkpt lat="49.36424" lon="0.4065">
        <ele>113.8</ele>
        <time>2023-09-03T10:11:04Z</time>
      </trkpt>
      <trkpt lat="49.36421" lon="0.40644">
        <ele>113.9</ele>
        <time>2023-09-03T10:11:05Z</time>
      </trkpt>
      <trkpt lat="49.36417" lon="0.40637">
        <ele>113.9</ele>
        <time>2023-09-03T10:11:06Z</time>
      </trkpt>
      <trkpt lat="49.36413" lon="0.4063">
        <ele>113.9</ele>
        <time>2023-09-03T10:11:07Z</time>
      </trkpt>
      <trkpt lat="49.36409" lon="0.40622">
        <ele>114</ele>
        <time>2023-09-03T10:11:08Z</time>
      </trkpt>
      <trkpt lat="49.36405" lon="0.40614">
        <ele>114</ele>
        <time>2023-09-03T10:11:09Z</time>
      </trkpt>
      <trkpt lat="49.364" lon="0.40605">
        <ele>114.1</ele>
        <time>2023-09-03T10:11:10Z</time>
      </trkpt>
      <trkpt lat="49.36395" lon="0.40595">
        <ele>114.2</ele>
        <time>2023-09-03T10:11:11Z</time>
      </trkpt>
      <trkpt lat="49.36391" lon="0.40584">
        <ele>114.3</ele>
        <time>2023-09-03T10:11:12Z</time>
      </trkpt>
      <trkpt lat="49.36386" lon="0.40573">
        <ele>114.4</ele>
        <time>2023-09-03T10:11:13Z</time>
      </trkpt>
      <trkpt lat="49.36381" lon="0.40563">
        <ele>114.5</ele>
        <time>2023-09-03T10:11:14Z</time>
      </trkpt>
      <trkpt lat="49.36376" lon="0.40552">
        <ele>114.5</ele>
        <time>2023-09-03T10:11:15Z</time>
      </trkpt>
      <trkpt lat="49.36371" lon="0.40542">
        <ele>114.6</ele>
        <time>2023-09-03T10:11:16Z</time>
      </trkpt>
      <trkpt lat="49.36366" lon="0.40533">
        <ele>114.7</ele>
        <time>2023-09-03T10:11:17Z</time>
      </trkpt>
      <trkpt lat="49.36362" lon="0.40524">
        <ele>114.8</ele>
        <time>2023-09-03T10:11:18Z</time>
      </trkpt>
      <trkpt lat="49.36357" lon="0.40515">
        <ele>114.8</ele>
        <time>2023-09-03T10:11:19Z</time>
      </trkpt>
      <trkpt lat="49.36353" lon="0.40506">
        <ele>114.9</ele>
        <time>2023-09-03T10:11:20Z</time>
      </trkpt>
      <trkpt lat="49.36349" lon="0.40497">
        <ele>114.9</ele>
        <time>2023-09-03T10:11:21Z</time>
      </trkpt>
      <trkpt lat="49.36345" lon="0.40489">
        <ele>115</ele>
        <time>2023-09-03T10:11:22Z</time>
      </trkpt>
      <trkpt lat="49.36341" lon="0.40481">
        <ele>115</ele>
        <time>2023-09-03T10:11:23Z</time>
      </trkpt>
      <trkpt lat="49.36338" lon="0.40473">
        <ele>115.1</ele>
        <time>2023-09-03T10:11:24Z</time>
      </trkpt>
      <trkpt lat="49.36335" lon="0.40465">
        <ele>115.1</ele>
        <time>2023-09-03T10:11:25Z</time>
      </trkpt>
      <trkpt lat="49.36331" lon="0.40458">
        <ele>115.1</ele>
        <time>2023-09-03T10:11:26Z</time>
      </trkpt>
      <trkpt lat="49.36327" lon="0.4045">
        <ele>115.2</ele>
        <time>2023-09-03T10:11:27Z</time>
      </trkpt>
      <trkpt lat="49.36323" lon="0.40442">
        <ele>115.2</ele>
        <time>2023-09-03T10:11:28Z</time>
      </trkpt>
      <trkpt lat="49.36319" lon="0.40434">
        <ele>115.3</ele>
        <time>2023-09-03T10:11:29Z</time>
      </trkpt>
      <trkpt lat="49.36315" lon="0.40426">
        <ele>115.3</ele>
        <time>2023-09-03T10:11:30Z</time>
      </trkpt>
      <trkpt lat="49.36311" lon="0.40419">
        <ele>115.4</ele>
        <time>2023-09-03T10:11:31Z</time>
      </trkpt>
      <trkpt lat="49.36308" lon="0.40411">
        <ele>115.4</ele>
        <time>2023-09-03T10:11:32Z</time>
      </trkpt>
      <trkpt lat="49.36304" lon="0.40403">
        <ele>115.5</ele>
        <time>2023-09-03T10:11:33Z</time>
      </trkpt>
      <trkpt lat="49.36301" lon="0.40396">
        <ele>115.5</ele>
        <time>2023-09-03T10:11:34Z</time>
      </trkpt>
      <trkpt lat="49.36297" lon="0.40388">
        <ele>115.5</ele>
        <time>2023-09-03T10:11:35Z</time>
      </trkpt>
      <trkpt lat="49.36293" lon="0.4038">
        <ele>115.5</ele>
        <time>2023-09-03T10:11:36Z</time>
      </trkpt>
      <trkpt lat="49.36289" lon="0.40372">
        <ele>115.5</ele>
        <time>2023-09-03T10:11:37Z</time>
      </trkpt>
      <trkpt lat="49.36285" lon="0.40364">
        <ele>115.6</ele>
        <time>2023-09-03T10:11:38Z</time>
      </trkpt>
      <trkpt lat="49.36281" lon="0.40356">
        <ele>115.6</ele>
        <time>2023-09-03T10:11:39Z</time>
      </trkpt>
      <trkpt lat="49.36277" lon="0.40348">
        <ele>115.7</ele>
        <time>2023-09-03T10:11:40Z</time>
      </trkpt>
      <trkpt lat="49.36273" lon="0.40341">
        <ele>115.8</ele>
        <time>2023-09-03T10:11:41Z</time>
      </trkpt>
      <trkpt lat="49.36268" lon="0.40333">
        <ele>115.9</ele>
        <time>2023-09-03T10:11:42Z</time>
      </trkpt>
      <trkpt lat="49.36264" lon="0.40325">
        <ele>116</ele>
        <time>2023-09-03T10:11:43Z</time>
      </trkpt>
      <trkpt lat="49.3626" lon="0.40317">
        <ele>116.1</ele>
        <time>2023-09-03T10:11:44Z</time>
      </trkpt>
      <trkpt lat="49.36257" lon="0.40309">
        <ele>116.2</ele>
        <time>2023-09-03T10:11:45Z</time>
      </trkpt>
      <trkpt lat="49.36253" lon="0.40301">
        <ele>116.2</ele>
        <time>2023-09-03T10:11:46Z</time>
      </trkpt>
      <trkpt lat="49.36249" lon="0.40294">
        <ele>116.3</ele>
        <time>2023-09-03T10:11:47Z</time>
      </trkpt>
      <trkpt lat="49.36246" lon="0.40286">
        <ele>116.4</ele>
        <time>2023-09-03T10:11:48Z</time>
      </trkpt>
      <trkpt lat="49.36242" lon="0.40279">
        <ele>116.5</ele>
        <time>2023-09-03T10:11:49Z</time>
      </trkpt>
      <trkpt lat="49.36238" lon="0.40271">
        <ele>116.6</ele>
        <time>2023-09-03T10:11:50Z</time>
      </trkpt>
      <trkpt lat="49.36235" lon="0.40264">
        <ele>116.7</ele>
        <time>2023-09-03T10:11:51Z</time>
      </trkpt>
      <trkpt lat="49.36231" lon="0.40257">
        <ele>116.8</ele>
        <time>2023-09-03T10:11:52Z</time>
      </trkpt>
      <trkpt lat="49.36227" lon="0.40249">
        <ele>116.9</ele>
        <time>2023-09-03T10:11:53Z</time>
      </trkpt>
      <trkpt lat="49.36224" lon="0.40242">
        <ele>117</ele>
        <time>2023-09-03T10:11:54Z</time>
      </trkpt>
      <trkpt lat="49.3622" lon="0.40235">
        <ele>117.1</ele>
        <time>2023-09-03T10:11:55Z</time>
      </trkpt>
      <trkpt lat="49.36217" lon="0.40227">
        <ele>117.2</ele>
        <time>2023-09-03T10:11:56Z</time>
      </trkpt>
      <trkpt lat="49.36213" lon="0.40219">
        <ele>117.4</ele>
        <time>2023-09-03T10:11:57Z</time>
      </trkpt>
      <trkpt lat="49.36209" lon="0.40212">
        <ele>117.5</ele>
        <time>2023-09-03T10:11:58Z</time>
      </trkpt>
      <trkpt lat="49.36206" lon="0.40204">
        <ele>117.6</ele>
        <time>2023-09-03T10:11:59Z</time>
      </trkpt>
      <trkpt lat="49.36202" lon="0.40196">
        <ele>117.7</ele>
        <time>2023-09-03T10:12:00Z</time>
      </trkpt>
      <trkpt lat="49.36198" lon="0.40189">
        <ele>117.8</ele>
        <time>2023-09-03T10:12:01Z</time>
      </trkpt>
      <trkpt lat="49.36195" lon="0.40182">
        <ele>117.9</ele>
        <time>2023-09-03T10:12:02Z</time>
      </trkpt>
      <trkpt lat="49.36191" lon="0.40175">
        <ele>118</ele>
        <time>2023-09-03T10:12:03Z</time>
      </trkpt>
      <trkpt lat="49.36188" lon="0.40168">
        <ele>118.1</ele>
        <time>2023-09-03T10:12:04Z</time>
      </trkpt>
      <trkpt lat="49.36184" lon="0.40161">
        <ele>118.2</ele>
        <time>2023-09-03T10:12:05Z</time>
      </trkpt>
      <trkpt lat="49.3618" lon="0.40153">
        <ele>118.3</ele>
        <time>2023-09-03T10:12:06Z</time>
      </trkpt>
      <trkpt lat="49.36177" lon="0.40146">
        <ele>118.4</ele>
        <time>2023-09-03T10:12:07Z</time>
      </trkpt>
      <trkpt lat="49.36173" lon="0.40138">
        <ele>118.5</ele>
        <time>2023-09-03T10:12:08Z</time>
      </trkpt>
      <trkpt lat="49.3617" lon="0.40131">
        <ele>118.6</ele>
        <time>2023-09-03T10:12:09Z</time>
      </trkpt>
      <trkpt lat="49.36166" lon="0.40123">
        <ele>118.7</ele>
        <time>2023-09-03T10:12:10Z</time>
      </trkpt>
      <trkpt lat="49.36162" lon="0.40116">
        <ele>118.8</ele>
        <time>2023-09-03T10:12:11Z</time>
      </trkpt>
      <trkpt lat="49.36159" lon="0.40108">
        <ele>118.9</ele>
        <time>2023-09-03T10:12:12Z</time>
      </trkpt>
      <trkpt lat="49.36156" lon="0.40101">
        <ele>119</ele>
        <time>2023-09-03T10:12:13Z</time>
      </trkpt>
      <trkpt lat="49.36152" lon="0.40093">
        <ele>119.1</ele>
        <time>2023-09-03T10:12:14Z</time>
      </trkpt>
      <trkpt lat="49.36149" lon="0.40085">
        <ele>119.2</ele>
        <time>2023-09-03T10:12:15Z</time>
      </trkpt>
      <trkpt lat="49.36145" lon="0.40078">
        <ele>119.3</ele>
        <time>2023-09-03T10:12:16Z</time>
      </trkpt>
      <trkpt lat="49.36141" lon="0.4007">
        <ele>119.5</ele>
        <time>2023-09-03T10:12:17Z</time>
      </trkpt>
      <trkpt lat="49.36137" lon="0.40062">
        <ele>119.6</ele>
        <time>2023-09-03T10:12:18Z</time>
      </trkpt>
      <trkpt lat="49.36133" lon="0.40055">
        <ele>119.6</ele>
        <time>2023-09-03T10:12:19Z</time>
      </trkpt>
      <trkpt lat="49.36129" lon="0.40047">
        <ele>119.7</ele>
        <time>2023-09-03T10:12:20Z</time>
      </trkpt>
      <trkpt lat="49.36126" lon="0.4004">
        <ele>119.8</ele>
        <time>2023-09-03T10:12:21Z</time>
      </trkpt>
      <trkpt lat="49.36122" lon="0.40032">
        <ele>119.9</ele>
        <time>2023-09-03T10:12:22Z</time>
      </trkpt>
      <trkpt lat="49.36118" lon="0.40025">
        <ele>120</ele>
        <time>2023-09-03T10:12:23Z</time>
      </trkpt>
      <trkpt lat="49.36114" lon="0.40017">
        <ele>120.1</ele>
        <time>2023-09-03T10:12:24Z</time>
      </trkpt>
      <trkpt lat="49.3611" lon="0.40009">
        <ele>120.2</ele>
        <time>2023-09-03T10:12:25Z</time>
      </trkpt>
      <trkpt lat="49.36107" lon="0.40002">
        <ele>120.3</ele>
        <time>2023-09-03T10:12:26Z</time>
      </trkpt>
      <trkpt lat="49.36103" lon="0.39994">
        <ele>120.4</ele>
        <time>2023-09-03T10:12:27Z</time>
      </trkpt>
      <trkpt lat="49.361" lon="0.39987">
        <ele>120.5</ele>
        <time>2023-09-03T10:12:28Z</time>
      </trkpt>
      <trkpt lat="49.36096" lon="0.3998">
        <ele>120.6</ele>
        <time>2023-09-03T10:12:29Z</time>
      </trkpt>
      <trkpt lat="49.36093" lon="0.39973">
        <ele>120.7</ele>
        <time>2023-09-03T10:12:30Z</time>
      </trkpt>
      <trkpt lat="49.3609" lon="0.39966">
        <ele>120.8</ele>
        <time>2023-09-03T10:12:31Z</time>
      </trkpt>
      <trkpt lat="49.36086" lon="0.39959">
        <ele>121</ele>
        <time>2023-09-03T10:12:32Z</time>
      </trkpt>
      <trkpt lat="49.36082" lon="0.39951">
        <ele>121.1</ele>
        <time>2023-09-03T10:12:33Z</time>
      </trkpt>
      <trkpt lat="49.36078" lon="0.39944">
        <ele>121.2</ele>
        <time>2023-09-03T10:12:34Z</time>
      </trkpt>
      <trkpt lat="49.36075" lon="0.39937">
        <ele>121.3</ele>
        <time>2023-09-03T10:12:35Z</time>
      </trkpt>
      <trkpt lat="49.36071" lon="0.3993">
        <ele>121.4</ele>
        <time>2023-09-03T10:12:36Z</time>
      </trkpt>
      <trkpt lat="49.36067" lon="0.39923">
        <ele>121.5</ele>
        <time>2023-09-03T10:12:37Z</time>
      </trkpt>
      <trkpt lat="49.36064" lon="0.39915">
        <ele>121.6</ele>
        <time>2023-09-03T10:12:38Z</time>
      </trkpt>
      <trkpt lat="49.3606" lon="0.39908">
        <ele>121.7</ele>
        <time>2023-09-03T10:12:39Z</time>
      </trkpt>
      <trkpt lat="49.36057" lon="0.399">
        <ele>121.9</ele>
        <time>2023-09-03T10:12:40Z</time>
      </trkpt>
      <trkpt lat="49.36052" lon="0.39892">
        <ele>122</ele>
        <time>2023-09-03T10:12:41Z</time>
      </trkpt>
      <trkpt lat="49.36048" lon="0.39884">
        <ele>122.1</ele>
        <time>2023-09-03T10:12:42Z</time>
      </trkpt>
      <trkpt lat="49.36043" lon="0.39875">
        <ele>122.3</ele>
        <time>2023-09-03T10:12:43Z</time>
      </trkpt>
      <trkpt lat="49.36039" lon="0.39866">
        <ele>122.4</ele>
        <time>2023-09-03T10:12:44Z</time>
      </trkpt>
      <trkpt lat="49.36035" lon="0.39857">
        <ele>122.4</ele>
        <time>2023-09-03T10:12:45Z</time>
      </trkpt>
      <trkpt lat="49.36031" lon="0.39849">
        <ele>122.6</ele>
        <time>2023-09-03T10:12:46Z</time>
      </trkpt>
      <trkpt lat="49.36026" lon="0.3984">
        <ele>122.7</ele>
        <time>2023-09-03T10:12:47Z</time>
      </trkpt>
      <trkpt lat="49.36022" lon="0.39831">
        <ele>122.8</ele>
        <time>2023-09-03T10:12:48Z</time>
      </trkpt>
      <trkpt lat="49.36017" lon="0.39822">
        <ele>122.9</ele>
        <time>2023-09-03T10:12:49Z</time>
      </trkpt>
      <trkpt lat="49.36013" lon="0.39814">
        <ele>123</ele>
        <time>2023-09-03T10:12:50Z</time>
      </trkpt>
      <trkpt lat="49.36009" lon="0.39805">
        <ele>123.1</ele>
        <time>2023-09-03T10:12:51Z</time>
      </trkpt>
      <trkpt lat="49.36004" lon="0.39796">
        <ele>123.2</ele>
        <time>2023-09-03T10:12:52Z</time>
      </trkpt>
      <trkpt lat="49.36" lon="0.39788">
        <ele>123.3</ele>
        <time>2023-09-03T10:12:53Z</time>
      </trkpt>
      <trkpt lat="49.35996" lon="0.39779">
        <ele>123.4</ele>
        <time>2023-09-03T10:12:54Z</time>
      </trkpt>
      <trkpt lat="49.35991" lon="0.3977">
        <ele>123.5</ele>
        <time>2023-09-03T10:12:55Z</time>
      </trkpt>
      <trkpt lat="49.35987" lon="0.39761">
        <ele>123.6</ele>
        <time>2023-09-03T10:12:56Z</time>
      </trkpt>
      <trkpt lat="49.35983" lon="0.39752">
        <ele>123.7</ele>
        <time>2023-09-03T10:12:57Z</time>
      </trkpt>
      <trkpt lat="49.35978" lon="0.39744">
        <ele>123.8</ele>
        <time>2023-09-03T10:12:58Z</time>
      </trkpt>
      <trkpt lat="49.35974" lon="0.39735">
        <ele>123.8</ele>
        <time>2023-09-03T10:12:59Z</time>
      </trkpt>
      <trkpt lat="49.3597" lon="0.39726">
        <ele>123.9</ele>
        <time>2023-09-03T10:13:00Z</time>
      </trkpt>
      <trkpt lat="49.35965" lon="0.39717">
        <ele>123.9</ele>
        <time>2023-09-03T10:13:01Z</time>
      </trkpt>
      <trkpt lat="49.35961" lon="0.39707">
        <ele>123.9</ele>
        <time>2023-09-03T10:13:02Z</time>
      </trkpt>
      <trkpt lat="49.35956" lon="0.39698">
        <ele>123.9</ele>
        <time>2023-09-03T10:13:03Z</time>
      </trkpt>
      <trkpt lat="49.35952" lon="0.39689">
        <ele>124</ele>
        <time>2023-09-03T10:13:04Z</time>
      </trkpt>
      <trkpt lat="49.35948" lon="0.3968">
        <ele>124</ele>
        <time>2023-09-03T10:13:05Z</time>
      </trkpt>
      <trkpt lat="49.35943" lon="0.39671">
        <ele>124.1</ele>
        <time>2023-09-03T10:13:06Z</time>
      </trkpt>
      <trkpt lat="49.35939" lon="0.39662">
        <ele>124.1</ele>
        <time>2023-09-03T10:13:07Z</time>
      </trkpt>
      <trkpt lat="49.35934" lon="0.39653">
        <ele>124.1</ele>
        <time>2023-09-03T10:13:08Z</time>
      </trkpt>
      <trkpt lat="49.3593" lon="0.39644">
        <ele>124.1</ele>
        <time>2023-09-03T10:13:09Z</time>
      </trkpt>
      <trkpt lat="49.35925" lon="0.39634">
        <ele>124.1</ele>
        <time>2023-09-03T10:13:10Z</time>
      </trkpt>
      <trkpt lat="49.35921" lon="0.39625">
        <ele>124.1</ele>
        <time>2023-09-03T10:13:11Z</time>
      </trkpt>
      <trkpt lat="49.35917" lon="0.39616">
        <ele>124.2</ele>
        <time>2023-09-03T10:13:12Z</time>
      </trkpt>
      <trkpt lat="49.35912" lon="0.39607">
        <ele>124.2</ele>
        <time>2023-09-03T10:13:13Z</time>
      </trkpt>
      <trkpt lat="49.35908" lon="0.39598">
        <ele>124.3</ele>
        <time>2023-09-03T10:13:14Z</time>
      </trkpt>
      <trkpt lat="49.35904" lon="0.39589">
        <ele>124.3</ele>
        <time>2023-09-03T10:13:15Z</time>
      </trkpt>
      <trkpt lat="49.359" lon="0.3958">
        <ele>124.4</ele>
        <time>2023-09-03T10:13:16Z</time>
      </trkpt>
      <trkpt lat="49.35896" lon="0.39571">
        <ele>124.5</ele>
        <time>2023-09-03T10:13:17Z</time>
      </trkpt>
      <trkpt lat="49.35892" lon="0.39563">
        <ele>124.6</ele>
        <time>2023-09-03T10:13:18Z</time>
      </trkpt>
      <trkpt lat="49.35889" lon="0.39555">
        <ele>124.7</ele>
        <time>2023-09-03T10:13:19Z</time>
      </trkpt>
      <trkpt lat="49.35886" lon="0.39547">
        <ele>124.7</ele>
        <time>2023-09-03T10:13:20Z</time>
      </trkpt>
      <trkpt lat="49.35884" lon="0.3954">
        <ele>124.8</ele>
        <time>2023-09-03T10:13:21Z</time>
      </trkpt>
      <trkpt lat="49.35883" lon="0.39533">
        <ele>124.9</ele>
        <time>2023-09-03T10:13:22Z</time>
      </trkpt>
      <trkpt lat="49.35881" lon="0.39527">
        <ele>125</ele>
        <time>2023-09-03T10:13:23Z</time>
      </trkpt>
      <trkpt lat="49.35879" lon="0.3952">
        <ele>125.1</ele>
        <time>2023-09-03T10:13:24Z</time>
      </trkpt>
      <trkpt lat="49.35878" lon="0.39514">
        <ele>125.1</ele>
        <time>2023-09-03T10:13:25Z</time>
      </trkpt>
      <trkpt lat="49.35876" lon="0.39508">
        <ele>125.1</ele>
        <time>2023-09-03T10:13:26Z</time>
      </trkpt>
      <trkpt lat="49.35875" lon="0.39502">
        <ele>125.2</ele>
        <time>2023-09-03T10:13:27Z</time>
      </trkpt>
      <trkpt lat="49.35875" lon="0.39498">
        <ele>125.2</ele>
        <time>2023-09-03T10:13:28Z</time>
      </trkpt>
      <trkpt lat="49.35874" lon="0.39493">
        <ele>125.3</ele>
        <time>2023-09-03T10:13:29Z</time>
      </trkpt>
      <trkpt lat="49.35873" lon="0.39488">
        <ele>125.3</ele>
        <time>2023-09-03T10:13:30Z</time>
      </trkpt>
      <trkpt lat="49.35873" lon="0.39487">
        <ele>125.3</ele>
        <time>2023-09-03T10:13:31Z</time>
      </trkpt>
      <trkpt lat="49.35873" lon="0.39485">
        <ele>125.4</ele>
        <time>2023-09-03T10:13:32Z</time>
      </trkpt>
      <trkpt lat="49.35873" lon="0.39485">
        <ele>125.4</ele>
        <time>2023-09-03T10:13:33Z</time>
      </trkpt>
      <trkpt lat="49.35873" lon="0.39484">
        <ele>125.4</ele>
        <time>2023-09-03T10:13:34Z</time>
      </trkpt>
      <trkpt lat="49.35873" lon="0.39484">
        <ele>125.4</ele>
        <time>2023-09-03T10:13:35Z</time>
      </trkpt>
      <trkpt lat="49.35873" lon="0.39483">
        <ele>125.4</ele>
        <time>2023-09-03T10:13:36Z</time>
      </trkpt>
      <trkpt lat="49.35873" lon="0.39483">
        <ele>125.4</ele>
        <time>2023-09-03T10:13:37Z</time>
      </trkpt>
      <trkpt lat="49.35873" lon="0.39482">
        <ele>125.4</ele>
        <time>2023-09-03T10:13:38Z</time>
      </trkpt>
      <trkpt lat="49.35873" lon="0.39481">
        <ele>125.4</ele>
        <time>2023-09-03T10:13:39Z</time>
      </trkpt>
      <trkpt lat="49.35873" lon="0.39481">
        <ele>125.4</ele>
        <time>2023-09-03T10:13:40Z</time>
      </trkpt>
      <trkpt lat="49.35873" lon="0.3948">
        <ele>125.4</ele>
        <time>2023-09-03T10:13:41Z</time>
      </trkpt>
      <trkpt lat="49.35872" lon="0.39476">
        <ele>125.4</ele>
        <time>2023-09-03T10:13:42Z</time>
      </trkpt>
      <trkpt lat="49.35872" lon="0.39474">
        <ele>125.5</ele>
        <time>2023-09-03T10:13:43Z</time>
      </trkpt>
      <trkpt lat="49.35871" lon="0.3947">
        <ele>125.5</ele>
        <time>2023-09-03T10:13:44Z</time>
      </trkpt>
      <trkpt lat="49.35871" lon="0.39468">
        <ele>125.5</ele>
        <time>2023-09-03T10:13:45Z</time>
      </trkpt>
      <trkpt lat="49.35871" lon="0.39463">
        <ele>125.6</ele>
        <time>2023-09-03T10:13:46Z</time>
      </trkpt>
      <trkpt lat="49.35871" lon="0.39461">
        <ele>125.6</ele>
        <time>2023-09-03T10:13:47Z</time>
      </trkpt>
      <trkpt lat="49.35871" lon="0.39456">
        <ele>125.6</ele>
        <time>2023-09-03T10:13:48Z</time>
      </trkpt>
      <trkpt lat="49.35871" lon="0.3945">
        <ele>125.7</ele>
        <time>2023-09-03T10:13:49Z</time>
      </trkpt>
      <trkpt lat="49.35873" lon="0.39443">
        <ele>125.8</ele>
        <time>2023-09-03T10:13:50Z</time>
      </trkpt>
      <trkpt lat="49.35874" lon="0.39436">
        <ele>125.8</ele>
        <time>2023-09-03T10:13:51Z</time>
      </trkpt>
      <trkpt lat="49.35875" lon="0.39428">
        <ele>125.8</ele>
        <time>2023-09-03T10:13:52Z</time>
      </trkpt>
      <trkpt lat="49.35875" lon="0.3942">
        <ele>125.9</ele>
        <time>2023-09-03T10:13:53Z</time>
      </trkpt>
      <trkpt lat="49.35873" lon="0.39412">
        <ele>125.9</ele>
        <time>2023-09-03T10:13:54Z</time>
      </trkpt>
      <trkpt lat="49.35871" lon="0.39404">
        <ele>125.9</ele>
        <time>2023-09-03T10:13:55Z</time>
      </trkpt>
      <trkpt lat="49.35868" lon="0.39398">
        <ele>125.9</ele>
        <time>2023-09-03T10:13:56Z</time>
      </trkpt>
      <trkpt lat="49.35863" lon="0.39394">
        <ele>125.9</ele>
        <time>2023-09-03T10:13:57Z</time>
      </trkpt>
      <trkpt lat="49.35858" lon="0.39391">
        <ele>125.9</ele>
        <time>2023-09-03T10:13:58Z</time>
      </trkpt>
      <trkpt lat="49.35853" lon="0.3939">
        <ele>126</ele>
        <time>2023-09-03T10:13:59Z</time>
      </trkpt>
      <trkpt lat="49.35848" lon="0.3939">
        <ele>126</ele>
        <time>2023-09-03T10:14:00Z</time>
      </trkpt>
      <trkpt lat="49.35842" lon="0.3939">
        <ele>126</ele>
        <time>2023-09-03T10:14:01Z</time>
      </trkpt>
      <trkpt lat="49.35837" lon="0.3939">
        <ele>126</ele>
        <time>2023-09-03T10:14:02Z</time>
      </trkpt>
      <trkpt lat="49.35832" lon="0.3939">
        <ele>126</ele>
        <time>2023-09-03T10:14:03Z</time>
      </trkpt>
      <trkpt lat="49.35826" lon="0.39387">
        <ele>126</ele>
        <time>2023-09-03T10:14:04Z</time>
      </trkpt>
      <trkpt lat="49.35821" lon="0.39383">
        <ele>126</ele>
        <time>2023-09-03T10:14:05Z</time>
      </trkpt>
      <trkpt lat="49.35816" lon="0.39378">
        <ele>126</ele>
        <time>2023-09-03T10:14:06Z</time>
      </trkpt>
      <trkpt lat="49.35811" lon="0.39373">
        <ele>126</ele>
        <time>2023-09-03T10:14:07Z</time>
      </trkpt>
      <trkpt lat="49.35806" lon="0.39368">
        <ele>126</ele>
        <time>2023-09-03T10:14:08Z</time>
      </trkpt>
      <trkpt lat="49.358" lon="0.39362">
        <ele>126.1</ele>
        <time>2023-09-03T10:14:09Z</time>
      </trkpt>
      <trkpt lat="49.35795" lon="0.39356">
        <ele>126.1</ele>
        <time>2023-09-03T10:14:10Z</time>
      </trkpt>
      <trkpt lat="49.35789" lon="0.3935">
        <ele>126.1</ele>
        <time>2023-09-03T10:14:11Z</time>
      </trkpt>
      <trkpt lat="49.35784" lon="0.39344">
        <ele>126.2</ele>
        <time>2023-09-03T10:14:12Z</time>
      </trkpt>
      <trkpt lat="49.35778" lon="0.39338">
        <ele>126.2</ele>
        <time>2023-09-03T10:14:13Z</time>
      </trkpt>
      <trkpt lat="49.35772" lon="0.39332">
        <ele>126.3</ele>
        <time>2023-09-03T10:14:14Z</time>
      </trkpt>
      <trkpt lat="49.35767" lon="0.39326">
        <ele>126.3</ele>
        <time>2023-09-03T10:14:15Z</time>
      </trkpt>
      <trkpt lat="49.35762" lon="0.39319">
        <ele>126.4</ele>
        <time>2023-09-03T10:14:16Z</time>
      </trkpt>
      <trkpt lat="49.35757" lon="0.39311">
        <ele>126.4</ele>
        <time>2023-09-03T10:14:17Z</time>
      </trkpt>
      <trkpt lat="49.35752" lon="0.39304">
        <ele>126.4</ele>
        <time>2023-09-03T10:14:18Z</time>
      </trkpt>
      <trkpt lat="49.35747" lon="0.39297">
        <ele>126.5</ele>
        <time>2023-09-03T10:14:19Z</time>
      </trkpt>
      <trkpt lat="49.35742" lon="0.39289">
        <ele>126.5</ele>
        <time>2023-09-03T10:14:20Z</time>
      </trkpt>
      <trkpt lat="49.35738" lon="0.39282">
        <ele>126.6</ele>
        <time>2023-09-03T10:14:21Z</time>
      </trkpt>
      <trkpt lat="49.35733" lon="0.39274">
        <ele>126.6</ele>
        <time>2023-09-03T10:14:22Z</time>
      </trkpt>
      <trkpt lat="49.35728" lon="0.39265">
        <ele>126.6</ele>
        <time>2023-09-03T10:14:23Z</time>
      </trkpt>
      <trkpt lat="49.35724" lon="0.39256">
        <ele>126.6</ele>
        <time>2023-09-03T10:14:24Z</time>
      </trkpt>
      <trkpt lat="49.3572" lon="0.39247">
        <ele>126.5</ele>
        <time>2023-09-03T10:14:25Z</time>
      </trkpt>
      <trkpt lat="49.35716" lon="0.39237">
        <ele>126.5</ele>
        <time>2023-09-03T10:14:26Z</time>
      </trkpt>
      <trkpt lat="49.35712" lon="0.39228">
        <ele>126.5</ele>
        <time>2023-09-03T10:14:27Z</time>
      </trkpt>
      <trkpt lat="49.35708" lon="0.39218">
        <ele>126.5</ele>
        <time>2023-09-03T10:14:28Z</time>
      </trkpt>
      <trkpt lat="49.35704" lon="0.39208">
        <ele>126.6</ele>
        <time>2023-09-03T10:14:29Z</time>
      </trkpt>
      <trkpt lat="49.357" lon="0.39198">
        <ele>126.6</ele>
        <time>2023-09-03T10:14:30Z</time>
      </trkpt>
      <trkpt lat="49.35696" lon="0.39188">
        <ele>126.7</ele>
        <time>2023-09-03T10:14:31Z</time>
      </trkpt>
      <trkpt lat="49.35692" lon="0.39178">
        <ele>126.7</ele>
        <time>2023-09-03T10:14:32Z</time>
      </trkpt>
      <trkpt lat="49.35687" lon="0.39168">
        <ele>126.8</ele>
        <time>2023-09-03T10:14:33Z</time>
      </trkpt>
      <trkpt lat="49.35683" lon="0.39158">
        <ele>126.8</ele>
        <time>2023-09-03T10:14:34Z</time>
      </trkpt>
      <trkpt lat="49.35679" lon="0.39148">
        <ele>126.7</ele>
        <time>2023-09-03T10:14:35Z</time>
      </trkpt>
      <trkpt lat="49.35675" lon="0.39138">
        <ele>126.8</ele>
        <time>2023-09-03T10:14:36Z</time>
      </trkpt>
      <trkpt lat="49.35671" lon="0.39128">
        <ele>126.9</ele>
        <time>2023-09-03T10:14:37Z</time>
      </trkpt>
      <trkpt lat="49.35667" lon="0.39118">
        <ele>126.9</ele>
        <time>2023-09-03T10:14:38Z</time>
      </trkpt>
      <trkpt lat="49.35662" lon="0.39108">
        <ele>127</ele>
        <time>2023-09-03T10:14:39Z</time>
      </trkpt>
      <trkpt lat="49.35658" lon="0.39099">
        <ele>127</ele>
        <time>2023-09-03T10:14:40Z</time>
      </trkpt>
      <trkpt lat="49.35654" lon="0.39089">
        <ele>127.1</ele>
        <time>2023-09-03T10:14:41Z</time>
      </trkpt>
      <trkpt lat="49.3565" lon="0.39079">
        <ele>127.1</ele>
        <time>2023-09-03T10:14:42Z</time>
      </trkpt>
      <trkpt lat="49.35645" lon="0.39069">
        <ele>127.1</ele>
        <time>2023-09-03T10:14:43Z</time>
      </trkpt>
      <trkpt lat="49.35641" lon="0.39059">
        <ele>127.1</ele>
        <time>2023-09-03T10:14:44Z</time>
      </trkpt>
      <trkpt lat="49.35636" lon="0.39049">
        <ele>127.1</ele>
        <time>2023-09-03T10:14:45Z</time>
      </trkpt>
      <trkpt lat="49.35632" lon="0.39039">
        <ele>127.1</ele>
        <time>2023-09-03T10:14:46Z</time>
      </trkpt>
      <trkpt lat="49.35628" lon="0.39028">
        <ele>127.1</ele>
        <time>2023-09-03T10:14:47Z</time>
      </trkpt>
      <trkpt lat="49.35623" lon="0.39018">
        <ele>127</ele>
        <time>2023-09-03T10:14:48Z</time>
      </trkpt>
      <trkpt lat="49.35619" lon="0.39007">
        <ele>126.9</ele>
        <time>2023-09-03T10:14:49Z</time>
      </trkpt>
      <trkpt lat="49.35614" lon="0.38996">
        <ele>126.8</ele>
        <time>2023-09-03T10:14:50Z</time>
      </trkpt>
      <trkpt lat="49.3561" lon="0.38985">
        <ele>126.7</ele>
        <time>2023-09-03T10:14:51Z</time>
      </trkpt>
      <trkpt lat="49.35605" lon="0.38974">
        <ele>126.6</ele>
        <time>2023-09-03T10:14:52Z</time>
      </trkpt>
      <trkpt lat="49.35601" lon="0.38963">
        <ele>126.5</ele>
        <time>2023-09-03T10:14:53Z</time>
      </trkpt>
      <trkpt lat="49.35597" lon="0.38952">
        <ele>126.4</ele>
        <time>2023-09-03T10:14:54Z</time>
      </trkpt>
      <trkpt lat="49.35593" lon="0.3894">
        <ele>126.3</ele>
        <time>2023-09-03T10:14:55Z</time>
      </trkpt>
      <trkpt lat="49.35589" lon="0.38929">
        <ele>126.3</ele>
        <time>2023-09-03T10:14:56Z</time>
      </trkpt>
      <trkpt lat="49.35586" lon="0.38917">
        <ele>126.2</ele>
        <time>2023-09-03T10:14:57Z</time>
      </trkpt>
      <trkpt lat="49.35582" lon="0.38906">
        <ele>126.1</ele>
        <time>2023-09-03T10:14:58Z</time>
      </trkpt>
      <trkpt lat="49.35578" lon="0.38894">
        <ele>126</ele>
        <time>2023-09-03T10:14:59Z</time>
      </trkpt>
      <trkpt lat="49.35575" lon="0.38883">
        <ele>125.8</ele>
        <time>2023-09-03T10:15:00Z</time>
      </trkpt>
      <trkpt lat="49.35571" lon="0.38871">
        <ele>125.8</ele>
        <time>2023-09-03T10:15:01Z</time>
      </trkpt>
      <trkpt lat="49.35567" lon="0.38859">
        <ele>125.8</ele>
        <time>2023-09-03T10:15:02Z</time>
      </trkpt>
      <trkpt lat="49.35564" lon="0.38847">
        <ele>125.8</ele>
        <time>2023-09-03T10:15:03Z</time>
      </trkpt>
      <trkpt lat="49.35561" lon="0.38836">
        <ele>125.9</ele>
        <time>2023-09-03T10:15:04Z</time>
      </trkpt>
      <trkpt lat="49.35557" lon="0.38824">
        <ele>126.1</ele>
        <time>2023-09-03T10:15:05Z</time>
      </trkpt>
      <trkpt lat="49.35554" lon="0.38813">
        <ele>126</ele>
        <time>2023-09-03T10:15:06Z</time>
      </trkpt>
      <trkpt lat="49.35551" lon="0.38802">
        <ele>125.9</ele>
        <time>2023-09-03T10:15:07Z</time>
      </trkpt>
      <trkpt lat="49.35547" lon="0.3879">
        <ele>125.8</ele>
        <time>2023-09-03T10:15:08Z</time>
      </trkpt>
      <trkpt lat="49.35544" lon="0.38779">
        <ele>125.8</ele>
        <time>2023-09-03T10:15:09Z</time>
      </trkpt>
      <trkpt lat="49.3554" lon="0.38767">
        <ele>125.8</ele>
        <time>2023-09-03T10:15:10Z</time>
      </trkpt>
      <trkpt lat="49.35537" lon="0.38755">
        <ele>125.8</ele>
        <time>2023-09-03T10:15:11Z</time>
      </trkpt>
      <trkpt lat="49.35534" lon="0.38743">
        <ele>125.8</ele>
        <time>2023-09-03T10:15:12Z</time>
      </trkpt>
      <trkpt lat="49.35531" lon="0.38731">
        <ele>125.8</ele>
        <time>2023-09-03T10:15:13Z</time>
      </trkpt>
      <trkpt lat="49.35527" lon="0.38719">
        <ele>125.8</ele>
        <time>2023-09-03T10:15:14Z</time>
      </trkpt>
      <trkpt lat="49.35524" lon="0.38706">
        <ele>125.8</ele>
        <time>2023-09-03T10:15:15Z</time>
      </trkpt>
      <trkpt lat="49.3552" lon="0.38694">
        <ele>125.9</ele>
        <time>2023-09-03T10:15:16Z</time>
      </trkpt>
      <trkpt lat="49.35517" lon="0.38682">
        <ele>126</ele>
        <time>2023-09-03T10:15:17Z</time>
      </trkpt>
      <trkpt lat="49.35514" lon="0.3867">
        <ele>126</ele>
        <time>2023-09-03T10:15:18Z</time>
      </trkpt>
      <trkpt lat="49.35511" lon="0.38658">
        <ele>126.1</ele>
        <time>2023-09-03T10:15:19Z</time>
      </trkpt>
      <trkpt lat="49.35507" lon="0.38646">
        <ele>126.1</ele>
        <time>2023-09-03T10:15:20Z</time>
      </trkpt>
      <trkpt lat="49.35504" lon="0.38634">
        <ele>126.2</ele>
        <time>2023-09-03T10:15:21Z</time>
      </trkpt>
      <trkpt lat="49.355" lon="0.38622">
        <ele>126.3</ele>
        <time>2023-09-03T10:15:22Z</time>
      </trkpt>
      <trkpt lat="49.35497" lon="0.3861">
        <ele>126.5</ele>
        <time>2023-09-03T10:15:23Z</time>
      </trkpt>
      <trkpt lat="49.35493" lon="0.38598">
        <ele>126.6</ele>
        <time>2023-09-03T10:15:24Z</time>
      </trkpt>
      <trkpt lat="49.3549" lon="0.38586">
        <ele>126.7</ele>
        <time>2023-09-03T10:15:25Z</time>
      </trkpt>
      <trkpt lat="49.35488" lon="0.38575">
        <ele>126.9</ele>
        <time>2023-09-03T10:15:26Z</time>
      </trkpt>
      <trkpt lat="49.35484" lon="0.38563">
        <ele>127.1</ele>
        <time>2023-09-03T10:15:27Z</time>
      </trkpt>
      <trkpt lat="49.35481" lon="0.38552">
        <ele>127.3</ele>
        <time>2023-09-03T10:15:28Z</time>
      </trkpt>
      <trkpt lat="49.35478" lon="0.3854">
        <ele>127.5</ele>
        <time>2023-09-03T10:15:29Z</time>
      </trkpt>
      <trkpt lat="49.35475" lon="0.38529">
        <ele>127.7</ele>
        <time>2023-09-03T10:15:30Z</time>
      </trkpt>
      <trkpt lat="49.35472" lon="0.38518">
        <ele>127.8</ele>
        <time>2023-09-03T10:15:31Z</time>
      </trkpt>
      <trkpt lat="49.35469" lon="0.38507">
        <ele>128</ele>
        <time>2023-09-03T10:15:32Z</time>
      </trkpt>
      <trkpt lat="49.35466" lon="0.38496">
        <ele>128.1</ele>
        <time>2023-09-03T10:15:33Z</time>
      </trkpt>
      <trkpt lat="49.35462" lon="0.38484">
        <ele>128.2</ele>
        <time>2023-09-03T10:15:34Z</time>
      </trkpt>
      <trkpt lat="49.35459" lon="0.38474">
        <ele>128.4</ele>
        <time>2023-09-03T10:15:35Z</time>
      </trkpt>
      <trkpt lat="49.35456" lon="0.38462">
        <ele>128.5</ele>
        <time>2023-09-03T10:15:36Z</time>
      </trkpt>
      <trkpt lat="49.35453" lon="0.38451">
        <ele>128.6</ele>
        <time>2023-09-03T10:15:37Z</time>
      </trkpt>
      <trkpt lat="49.3545" lon="0.3844">
        <ele>128.7</ele>
        <time>2023-09-03T10:15:38Z</time>
      </trkpt>
      <trkpt lat="49.35447" lon="0.38428">
        <ele>128.8</ele>
        <time>2023-09-03T10:15:39Z</time>
      </trkpt>
      <trkpt lat="49.35444" lon="0.38417">
        <ele>128.9</ele>
        <time>2023-09-03T10:15:40Z</time>
      </trkpt>
      <trkpt lat="49.35441" lon="0.38405">
        <ele>129</ele>
        <time>2023-09-03T10:15:41Z</time>
      </trkpt>
      <trkpt lat="49.35437" lon="0.38394">
        <ele>129</ele>
        <time>2023-09-03T10:15:42Z</time>
      </trkpt>
      <trkpt lat="49.35434" lon="0.38382">
        <ele>129.1</ele>
        <time>2023-09-03T10:15:43Z</time>
      </trkpt>
      <trkpt lat="49.35431" lon="0.3837">
        <ele>129.2</ele>
        <time>2023-09-03T10:15:44Z</time>
      </trkpt>
      <trkpt lat="49.35427" lon="0.38358">
        <ele>129.2</ele>
        <time>2023-09-03T10:15:45Z</time>
      </trkpt>
      <trkpt lat="49.35424" lon="0.38346">
        <ele>129.2</ele>
        <time>2023-09-03T10:15:46Z</time>
      </trkpt>
      <trkpt lat="49.35421" lon="0.38335">
        <ele>129.1</ele>
        <time>2023-09-03T10:15:47Z</time>
      </trkpt>
      <trkpt lat="49.35418" lon="0.38323">
        <ele>129.1</ele>
        <time>2023-09-03T10:15:48Z</time>
      </trkpt>
      <trkpt lat="49.35415" lon="0.38312">
        <ele>129</ele>
        <time>2023-09-03T10:15:49Z</time>
      </trkpt>
      <trkpt lat="49.35412" lon="0.383">
        <ele>129</ele>
        <time>2023-09-03T10:15:50Z</time>
      </trkpt>
      <trkpt lat="49.35408" lon="0.38289">
        <ele>128.9</ele>
        <time>2023-09-03T10:15:51Z</time>
      </trkpt>
      <trkpt lat="49.35405" lon="0.38277">
        <ele>128.8</ele>
        <time>2023-09-03T10:15:52Z</time>
      </trkpt>
      <trkpt lat="49.35402" lon="0.38265">
        <ele>128.7</ele>
        <time>2023-09-03T10:15:53Z</time>
      </trkpt>
      <trkpt lat="49.35398" lon="0.38253">
        <ele>128.5</ele>
        <time>2023-09-03T10:15:54Z</time>
      </trkpt>
      <trkpt lat="49.35395" lon="0.38241">
        <ele>128.4</ele>
        <time>2023-09-03T10:15:55Z</time>
      </trkpt>
      <trkpt lat="49.35392" lon="0.38229">
        <ele>128.3</ele>
        <time>2023-09-03T10:15:56Z</time>
      </trkpt>
      <trkpt lat="49.35388" lon="0.38216">
        <ele>128.2</ele>
        <time>2023-09-03T10:15:57Z</time>
      </trkpt>
      <trkpt lat="49.35384" lon="0.38204">
        <ele>128.1</ele>
        <time>2023-09-03T10:15:58Z</time>
      </trkpt>
      <trkpt lat="49.35381" lon="0.38192">
        <ele>128</ele>
        <time>2023-09-03T10:15:59Z</time>
      </trkpt>
      <trkpt lat="49.35377" lon="0.3818">
        <ele>127.8</ele>
        <time>2023-09-03T10:16:00Z</time>
      </trkpt>
      <trkpt lat="49.35374" lon="0.38167">
        <ele>127.7</ele>
        <time>2023-09-03T10:16:01Z</time>
      </trkpt>
      <trkpt lat="49.3537" lon="0.38154">
        <ele>127.6</ele>
        <time>2023-09-03T10:16:02Z</time>
      </trkpt>
      <trkpt lat="49.35367" lon="0.38141">
        <ele>127.4</ele>
        <time>2023-09-03T10:16:03Z</time>
      </trkpt>
      <trkpt lat="49.35364" lon="0.38128">
        <ele>127.3</ele>
        <time>2023-09-03T10:16:04Z</time>
      </trkpt>
      <trkpt lat="49.3536" lon="0.38114">
        <ele>127.2</ele>
        <time>2023-09-03T10:16:05Z</time>
      </trkpt>
      <trkpt lat="49.35356" lon="0.38101">
        <ele>127.1</ele>
        <time>2023-09-03T10:16:06Z</time>
      </trkpt>
      <trkpt lat="49.35353" lon="0.38088">
        <ele>126.9</ele>
        <time>2023-09-03T10:16:07Z</time>
      </trkpt>
      <trkpt lat="49.35349" lon="0.38074">
        <ele>126.8</ele>
        <time>2023-09-03T10:16:08Z</time>
      </trkpt>
      <trkpt lat="49.35345" lon="0.38061">
        <ele>126.6</ele>
        <time>2023-09-03T10:16:09Z</time>
      </trkpt>
      <trkpt lat="49.35341" lon="0.38048">
        <ele>126.4</ele>
        <time>2023-09-03T10:16:10Z</time>
      </trkpt>
      <trkpt lat="49.35337" lon="0.38034">
        <ele>126.3</ele>
        <time>2023-09-03T10:16:11Z</time>
      </trkpt>
      <trkpt lat="49.35334" lon="0.38021">
        <ele>126.1</ele>
        <time>2023-09-03T10:16:12Z</time>
      </trkpt>
      <trkpt lat="49.35331" lon="0.38007">
        <ele>126</ele>
        <time>2023-09-03T10:16:13Z</time>
      </trkpt>
      <trkpt lat="49.35327" lon="0.37994">
        <ele>125.9</ele>
        <time>2023-09-03T10:16:14Z</time>
      </trkpt>
      <trkpt lat="49.35323" lon="0.3798">
        <ele>125.7</ele>
        <time>2023-09-03T10:16:15Z</time>
      </trkpt>
      <trkpt lat="49.3532" lon="0.37967">
        <ele>125.6</ele>
        <time>2023-09-03T10:16:16Z</time>
      </trkpt>
      <trkpt lat="49.35316" lon="0.37954">
        <ele>125.5</ele>
        <time>2023-09-03T10:16:17Z</time>
      </trkpt>
      <trkpt lat="49.35312" lon="0.37941">
        <ele>125.3</ele>
        <time>2023-09-03T10:16:18Z</time>
      </trkpt>
      <trkpt lat="49.35308" lon="0.37928">
        <ele>125.2</ele>
        <time>2023-09-03T10:16:19Z</time>
      </trkpt>
      <trkpt lat="49.35304" lon="0.37914">
        <ele>125</ele>
        <time>2023-09-03T10:16:20Z</time>
      </trkpt>
      <trkpt lat="49.353" lon="0.379">
        <ele>124.8</ele>
        <time>2023-09-03T10:16:21Z</time>
      </trkpt>
      <trkpt lat="49.35297" lon="0.37886">
        <ele>124.8</ele>
        <time>2023-09-03T10:16:22Z</time>
      </trkpt>
      <trkpt lat="49.35293" lon="0.37872">
        <ele>124.7</ele>
        <time>2023-09-03T10:16:23Z</time>
      </trkpt>
      <trkpt lat="49.35289" lon="0.37858">
        <ele>124.6</ele>
        <time>2023-09-03T10:16:24Z</time>
      </trkpt>
      <trkpt lat="49.35285" lon="0.37844">
        <ele>124.4</ele>
        <time>2023-09-03T10:16:25Z</time>
      </trkpt>
      <trkpt lat="49.35281" lon="0.37831">
        <ele>124.3</ele>
        <time>2023-09-03T10:16:26Z</time>
      </trkpt>
      <trkpt lat="49.35277" lon="0.37817">
        <ele>124.2</ele>
        <time>2023-09-03T10:16:27Z</time>
      </trkpt>
      <trkpt lat="49.35274" lon="0.37804">
        <ele>124</ele>
        <time>2023-09-03T10:16:28Z</time>
      </trkpt>
      <trkpt lat="49.3527" lon="0.3779">
        <ele>123.8</ele>
        <time>2023-09-03T10:16:29Z</time>
      </trkpt>
      <trkpt lat="49.35266" lon="0.37776">
        <ele>123.7</ele>
        <time>2023-09-03T10:16:30Z</time>
      </trkpt>
      <trkpt lat="49.35263" lon="0.37762">
        <ele>123.5</ele>
        <time>2023-09-03T10:16:31Z</time>
      </trkpt>
      <trkpt lat="49.35259" lon="0.37748">
        <ele>123.3</ele>
        <time>2023-09-03T10:16:32Z</time>
      </trkpt>
      <trkpt lat="49.35255" lon="0.37735">
        <ele>123.2</ele>
        <time>2023-09-03T10:16:33Z</time>
      </trkpt>
      <trkpt lat="49.35251" lon="0.37721">
        <ele>123</ele>
        <time>2023-09-03T10:16:34Z</time>
      </trkpt>
      <trkpt lat="49.35247" lon="0.37708">
        <ele>122.9</ele>
        <time>2023-09-03T10:16:35Z</time>
      </trkpt>
      <trkpt lat="49.35244" lon="0.37694">
        <ele>122.7</ele>
        <time>2023-09-03T10:16:36Z</time>
      </trkpt>
      <trkpt lat="49.3524" lon="0.3768">
        <ele>122.5</ele>
        <time>2023-09-03T10:16:37Z</time>
      </trkpt>
      <trkpt lat="49.35236" lon="0.37666">
        <ele>122.4</ele>
        <time>2023-09-03T10:16:38Z</time>
      </trkpt>
      <trkpt lat="49.35232" lon="0.37652">
        <ele>122.1</ele>
        <time>2023-09-03T10:16:39Z</time>
      </trkpt>
      <trkpt lat="49.35228" lon="0.37638">
        <ele>121.9</ele>
        <time>2023-09-03T10:16:40Z</time>
      </trkpt>
      <trkpt lat="49.35224" lon="0.37624">
        <ele>121.8</ele>
        <time>2023-09-03T10:16:41Z</time>
      </trkpt>
      <trkpt lat="49.35221" lon="0.37609">
        <ele>121.6</ele>
        <time>2023-09-03T10:16:42Z</time>
      </trkpt>
      <trkpt lat="49.35216" lon="0.37595">
        <ele>121.4</ele>
        <time>2023-09-03T10:16:43Z</time>
      </trkpt>
      <trkpt lat="49.35212" lon="0.37581">
        <ele>121.3</ele>
        <time>2023-09-03T10:16:44Z</time>
      </trkpt>
      <trkpt lat="49.35208" lon="0.37566">
        <ele>121.2</ele>
        <time>2023-09-03T10:16:45Z</time>
      </trkpt>
      <trkpt lat="49.35204" lon="0.37552">
        <ele>121.1</ele>
        <time>2023-09-03T10:16:46Z</time>
      </trkpt>
      <trkpt lat="49.352" lon="0.37539">
        <ele>121</ele>
        <time>2023-09-03T10:16:47Z</time>
      </trkpt>
      <trkpt lat="49.35196" lon="0.37524">
        <ele>120.8</ele>
        <time>2023-09-03T10:16:48Z</time>
      </trkpt>
      <trkpt lat="49.35192" lon="0.3751">
        <ele>120.7</ele>
        <time>2023-09-03T10:16:49Z</time>
      </trkpt>
      <trkpt lat="49.35188" lon="0.37497">
        <ele>120.6</ele>
        <time>2023-09-03T10:16:50Z</time>
      </trkpt>
      <trkpt lat="49.35184" lon="0.37482">
        <ele>120.4</ele>
        <time>2023-09-03T10:16:51Z</time>
      </trkpt>
      <trkpt lat="49.3518" lon="0.37468">
        <ele>120.3</ele>
        <time>2023-09-03T10:16:52Z</time>
      </trkpt>
      <trkpt lat="49.35176" lon="0.37454">
        <ele>120.2</ele>
        <time>2023-09-03T10:16:53Z</time>
      </trkpt>
      <trkpt lat="49.35172" lon="0.3744">
        <ele>120.1</ele>
        <time>2023-09-03T10:16:54Z</time>
      </trkpt>
      <trkpt lat="49.35168" lon="0.37425">
        <ele>120</ele>
        <time>2023-09-03T10:16:55Z</time>
      </trkpt>
      <trkpt lat="49.35165" lon="0.3741">
        <ele>119.9</ele>
        <time>2023-09-03T10:16:56Z</time>
      </trkpt>
      <trkpt lat="49.35161" lon="0.37395">
        <ele>119.8</ele>
        <time>2023-09-03T10:16:57Z</time>
      </trkpt>
      <trkpt lat="49.35157" lon="0.3738">
        <ele>119.8</ele>
        <time>2023-09-03T10:16:58Z</time>
      </trkpt>
      <trkpt lat="49.35153" lon="0.37366">
        <ele>119.7</ele>
        <time>2023-09-03T10:16:59Z</time>
      </trkpt>
      <trkpt lat="49.35149" lon="0.37352">
        <ele>119.7</ele>
        <time>2023-09-03T10:17:00Z</time>
      </trkpt>
      <trkpt lat="49.35146" lon="0.37338">
        <ele>119.8</ele>
        <time>2023-09-03T10:17:01Z</time>
      </trkpt>
      <trkpt lat="49.35142" lon="0.37324">
        <ele>119.8</ele>
        <time>2023-09-03T10:17:02Z</time>
      </trkpt>
      <trkpt lat="49.35138" lon="0.3731">
        <ele>119.9</ele>
        <time>2023-09-03T10:17:03Z</time>
      </trkpt>
      <trkpt lat="49.35134" lon="0.37296">
        <ele>120</ele>
        <time>2023-09-03T10:17:04Z</time>
      </trkpt>
      <trkpt lat="49.35131" lon="0.37282">
        <ele>120</ele>
        <time>2023-09-03T10:17:05Z</time>
      </trkpt>
      <trkpt lat="49.35127" lon="0.37269">
        <ele>120</ele>
        <time>2023-09-03T10:17:06Z</time>
      </trkpt>
      <trkpt lat="49.35123" lon="0.37255">
        <ele>120</ele>
        <time>2023-09-03T10:17:07Z</time>
      </trkpt>
      <trkpt lat="49.35119" lon="0.37241">
        <ele>120</ele>
        <time>2023-09-03T10:17:08Z</time>
      </trkpt>
      <trkpt lat="49.35116" lon="0.37228">
        <ele>120.1</ele>
        <time>2023-09-03T10:17:09Z</time>
      </trkpt>
      <trkpt lat="49.35112" lon="0.37214">
        <ele>120.1</ele>
        <time>2023-09-03T10:17:10Z</time>
      </trkpt>
      <trkpt lat="49.35109" lon="0.37201">
        <ele>120.2</ele>
        <time>2023-09-03T10:17:11Z</time>
      </trkpt>
      <trkpt lat="49.35105" lon="0.37187">
        <ele>120.3</ele>
        <time>2023-09-03T10:17:12Z</time>
      </trkpt>
      <trkpt lat="49.35101" lon="0.37174">
        <ele>120.3</ele>
        <time>2023-09-03T10:17:13Z</time>
      </trkpt>
      <trkpt lat="49.35098" lon="0.37161">
        <ele>120.4</ele>
        <time>2023-09-03T10:17:14Z</time>
      </trkpt>
      <trkpt lat="49.35094" lon="0.37148">
        <ele>120.5</ele>
        <time>2023-09-03T10:17:15Z</time>
      </trkpt>
      <trkpt lat="49.35091" lon="0.37136">
        <ele>120.6</ele>
        <time>2023-09-03T10:17:16Z</time>
      </trkpt>
      <trkpt lat="49.35087" lon="0.37124">
        <ele>120.7</ele>
        <time>2023-09-03T10:17:17Z</time>
      </trkpt>
      <trkpt lat="49.35084" lon="0.37112">
        <ele>120.9</ele>
        <time>2023-09-03T10:17:18Z</time>
      </trkpt>
      <trkpt lat="49.35081" lon="0.371">
        <ele>121</ele>
        <time>2023-09-03T10:17:19Z</time>
      </trkpt>
      <trkpt lat="49.35078" lon="0.37089">
        <ele>121</ele>
        <time>2023-09-03T10:17:20Z</time>
      </trkpt>
      <trkpt lat="49.35076" lon="0.3708">
        <ele>121</ele>
        <time>2023-09-03T10:17:21Z</time>
      </trkpt>
      <trkpt lat="49.35075" lon="0.37073">
        <ele>121</ele>
        <time>2023-09-03T10:17:22Z</time>
      </trkpt>
      <trkpt lat="49.35075" lon="0.37067">
        <ele>121</ele>
        <time>2023-09-03T10:17:23Z</time>
      </trkpt>
      <trkpt lat="49.35075" lon="0.37061">
        <ele>120.9</ele>
        <time>2023-09-03T10:17:24Z</time>
      </trkpt>
      <trkpt lat="49.35075" lon="0.37055">
        <ele>120.9</ele>
        <time>2023-09-03T10:17:25Z</time>
      </trkpt>
      <trkpt lat="49.35077" lon="0.37049">
        <ele>120.9</ele>
        <time>2023-09-03T10:17:26Z</time>
      </trkpt>
      <trkpt lat="49.35078" lon="0.37043">
        <ele>120.9</ele>
        <time>2023-09-03T10:17:27Z</time>
      </trkpt>
      <trkpt lat="49.3508" lon="0.37037">
        <ele>120.9</ele>
        <time>2023-09-03T10:17:28Z</time>
      </trkpt>
      <trkpt lat="49.3508" lon="0.3703">
        <ele>120.9</ele>
        <time>2023-09-03T10:17:29Z</time>
      </trkpt>
      <trkpt lat="49.35081" lon="0.37023">
        <ele>120.9</ele>
        <time>2023-09-03T10:17:30Z</time>
      </trkpt>
      <trkpt lat="49.3508" lon="0.37016">
        <ele>121</ele>
        <time>2023-09-03T10:17:31Z</time>
      </trkpt>
      <trkpt lat="49.35079" lon="0.37009">
        <ele>121</ele>
        <time>2023-09-03T10:17:32Z</time>
      </trkpt>
      <trkpt lat="49.35077" lon="0.37003">
        <ele>121</ele>
        <time>2023-09-03T10:17:33Z</time>
      </trkpt>
      <trkpt lat="49.35075" lon="0.36997">
        <ele>121.1</ele>
        <time>2023-09-03T10:17:34Z</time>
      </trkpt>
      <trkpt lat="49.35072" lon="0.36992">
        <ele>121.1</ele>
        <time>2023-09-03T10:17:35Z</time>
      </trkpt>
      <trkpt lat="49.35068" lon="0.36988">
        <ele>121.1</ele>
        <time>2023-09-03T10:17:36Z</time>
      </trkpt>
      <trkpt lat="49.35065" lon="0.36984">
        <ele>121.2</ele>
        <time>2023-09-03T10:17:37Z</time>
      </trkpt>
      <trkpt lat="49.35061" lon="0.36981">
        <ele>121.2</ele>
        <time>2023-09-03T10:17:38Z</time>
      </trkpt>
      <trkpt lat="49.35057" lon="0.36978">
        <ele>121.2</ele>
        <time>2023-09-03T10:17:39Z</time>
      </trkpt>
      <trkpt lat="49.35054" lon="0.36973">
        <ele>121.3</ele>
        <time>2023-09-03T10:17:40Z</time>
      </trkpt>
      <trkpt lat="49.35051" lon="0.36967">
        <ele>121.4</ele>
        <time>2023-09-03T10:17:41Z</time>
      </trkpt>
      <trkpt lat="49.35049" lon="0.36961">
        <ele>121.4</ele>
        <time>2023-09-03T10:17:42Z</time>
      </trkpt>
      <trkpt lat="49.35046" lon="0.36954">
        <ele>121.5</ele>
        <time>2023-09-03T10:17:43Z</time>
      </trkpt>
      <trkpt lat="49.35044" lon="0.36947">
        <ele>121.5</ele>
        <time>2023-09-03T10:17:44Z</time>
      </trkpt>
      <trkpt lat="49.35042" lon="0.3694">
        <ele>121.5</ele>
        <time>2023-09-03T10:17:45Z</time>
      </trkpt>
      <trkpt lat="49.35039" lon="0.36933">
        <ele>121.6</ele>
        <time>2023-09-03T10:17:46Z</time>
      </trkpt>
      <trkpt lat="49.35037" lon="0.36925">
        <ele>121.6</ele>
        <time>2023-09-03T10:17:47Z</time>
      </trkpt>
      <trkpt lat="49.35035" lon="0.36918">
        <ele>121.7</ele>
        <time>2023-09-03T10:17:48Z</time>
      </trkpt>
      <trkpt lat="49.35032" lon="0.36911">
        <ele>121.7</ele>
        <time>2023-09-03T10:17:49Z</time>
      </trkpt>
      <trkpt lat="49.3503" lon="0.36904">
        <ele>121.7</ele>
        <time>2023-09-03T10:17:50Z</time>
      </trkpt>
      <trkpt lat="49.35028" lon="0.36896">
        <ele>121.7</ele>
        <time>2023-09-03T10:17:51Z</time>
      </trkpt>
      <trkpt lat="49.35025" lon="0.36889">
        <ele>121.7</ele>
        <time>2023-09-03T10:17:52Z</time>
      </trkpt>
      <trkpt lat="49.35023" lon="0.36881">
        <ele>121.7</ele>
        <time>2023-09-03T10:17:53Z</time>
      </trkpt>
      <trkpt lat="49.3502" lon="0.36874">
        <ele>121.7</ele>
        <time>2023-09-03T10:17:54Z</time>
      </trkpt>
      <trkpt lat="49.35017" lon="0.36866">
        <ele>121.7</ele>
        <time>2023-09-03T10:17:55Z</time>
      </trkpt>
      <trkpt lat="49.35015" lon="0.36858">
        <ele>121.6</ele>
        <time>2023-09-03T10:17:56Z</time>
      </trkpt>
      <trkpt lat="49.35013" lon="0.3685">
        <ele>121.6</ele>
        <time>2023-09-03T10:17:57Z</time>
      </trkpt>
      <trkpt lat="49.3501" lon="0.36842">
        <ele>121.6</ele>
        <time>2023-09-03T10:17:58Z</time>
      </trkpt>
      <trkpt lat="49.35007" lon="0.36833">
        <ele>121.6</ele>
        <time>2023-09-03T10:17:59Z</time>
      </trkpt>
      <trkpt lat="49.35004" lon="0.36824">
        <ele>121.6</ele>
        <time>2023-09-03T10:18:00Z</time>
      </trkpt>
      <trkpt lat="49.35001" lon="0.36815">
        <ele>121.6</ele>
        <time>2023-09-03T10:18:01Z</time>
      </trkpt>
      <trkpt lat="49.34999" lon="0.36806">
        <ele>121.6</ele>
        <time>2023-09-03T10:18:02Z</time>
      </trkpt>
      <trkpt lat="49.34996" lon="0.36797">
        <ele>121.6</ele>
        <time>2023-09-03T10:18:03Z</time>
      </trkpt>
      <trkpt lat="49.34993" lon="0.36788">
        <ele>121.6</ele>
        <time>2023-09-03T10:18:04Z</time>
      </trkpt>
      <trkpt lat="49.3499" lon="0.36778">
        <ele>121.6</ele>
        <time>2023-09-03T10:18:05Z</time>
      </trkpt>
      <trkpt lat="49.34987" lon="0.36769">
        <ele>121.6</ele>
        <time>2023-09-03T10:18:06Z</time>
      </trkpt>
      <trkpt lat="49.34985" lon="0.36759">
        <ele>121.7</ele>
        <time>2023-09-03T10:18:07Z</time>
      </trkpt>
      <trkpt lat="49.34982" lon="0.36749">
        <ele>121.7</ele>
        <time>2023-09-03T10:18:08Z</time>
      </trkpt>
      <trkpt lat="49.34979" lon="0.36738">
        <ele>121.7</ele>
        <time>2023-09-03T10:18:09Z</time>
      </trkpt>
      <trkpt lat="49.34976" lon="0.36727">
        <ele>121.7</ele>
        <time>2023-09-03T10:18:10Z</time>
      </trkpt>
      <trkpt lat="49.34972" lon="0.36716">
        <ele>121.7</ele>
        <time>2023-09-03T10:18:11Z</time>
      </trkpt>
      <trkpt lat="49.34969" lon="0.36704">
        <ele>121.7</ele>
        <time>2023-09-03T10:18:12Z</time>
      </trkpt>
      <trkpt lat="49.34966" lon="0.36692">
        <ele>121.6</ele>
        <time>2023-09-03T10:18:13Z</time>
      </trkpt>
      <trkpt lat="49.34963" lon="0.3668">
        <ele>121.6</ele>
        <time>2023-09-03T10:18:14Z</time>
      </trkpt>
      <trkpt lat="49.34959" lon="0.36668">
        <ele>121.5</ele>
        <time>2023-09-03T10:18:15Z</time>
      </trkpt>
      <trkpt lat="49.34956" lon="0.36656">
        <ele>121.5</ele>
        <time>2023-09-03T10:18:16Z</time>
      </trkpt>
      <trkpt lat="49.34953" lon="0.36644">
        <ele>121.5</ele>
        <time>2023-09-03T10:18:17Z</time>
      </trkpt>
      <trkpt lat="49.34949" lon="0.36631">
        <ele>121.4</ele>
        <time>2023-09-03T10:18:18Z</time>
      </trkpt>
      <trkpt lat="49.34945" lon="0.36618">
        <ele>121.4</ele>
        <time>2023-09-03T10:18:19Z</time>
      </trkpt>
      <trkpt lat="49.34942" lon="0.36606">
        <ele>121.4</ele>
        <time>2023-09-03T10:18:20Z</time>
      </trkpt>
      <trkpt lat="49.34939" lon="0.36594">
        <ele>121.3</ele>
        <time>2023-09-03T10:18:21Z</time>
      </trkpt>
      <trkpt lat="49.34935" lon="0.36582">
        <ele>121.3</ele>
        <time>2023-09-03T10:18:22Z</time>
      </trkpt>
      <trkpt lat="49.34932" lon="0.3657">
        <ele>121.3</ele>
        <time>2023-09-03T10:18:23Z</time>
      </trkpt>
      <trkpt lat="49.34929" lon="0.36558">
        <ele>121.2</ele>
        <time>2023-09-03T10:18:24Z</time>
      </trkpt>
      <trkpt lat="49.34926" lon="0.36547">
        <ele>121.2</ele>
        <time>2023-09-03T10:18:25Z</time>
      </trkpt>
      <trkpt lat="49.34923" lon="0.36535">
        <ele>121.2</ele>
        <time>2023-09-03T10:18:26Z</time>
      </trkpt>
      <trkpt lat="49.3492" lon="0.36524">
        <ele>121.2</ele>
        <time>2023-09-03T10:18:27Z</time>
      </trkpt>
      <trkpt lat="49.34917" lon="0.36514">
        <ele>121.2</ele>
        <time>2023-09-03T10:18:28Z</time>
      </trkpt>
      <trkpt lat="49.34914" lon="0.36504">
        <ele>121.2</ele>
        <time>2023-09-03T10:18:29Z</time>
      </trkpt>
      <trkpt lat="49.34911" lon="0.36494">
        <ele>121.1</ele>
        <time>2023-09-03T10:18:30Z</time>
      </trkpt>
      <trkpt lat="49.34909" lon="0.36484">
        <ele>121.1</ele>
        <time>2023-09-03T10:18:31Z</time>
      </trkpt>
      <trkpt lat="49.34906" lon="0.36474">
        <ele>121.1</ele>
        <time>2023-09-03T10:18:32Z</time>
      </trkpt>
      <trkpt lat="49.34903" lon="0.36464">
        <ele>121.1</ele>
        <time>2023-09-03T10:18:33Z</time>
      </trkpt>
      <trkpt lat="49.349" lon="0.36454">
        <ele>121.1</ele>
        <time>2023-09-03T10:18:34Z</time>
      </trkpt>
      <trkpt lat="49.34897" lon="0.36443">
        <ele>121.1</ele>
        <time>2023-09-03T10:18:35Z</time>
      </trkpt>
      <trkpt lat="49.34895" lon="0.36434">
        <ele>121.1</ele>
        <time>2023-09-03T10:18:36Z</time>
      </trkpt>
      <trkpt lat="49.34892" lon="0.36424">
        <ele>121.1</ele>
        <time>2023-09-03T10:18:37Z</time>
      </trkpt>
      <trkpt lat="49.34889" lon="0.36414">
        <ele>121</ele>
        <time>2023-09-03T10:18:38Z</time>
      </trkpt>
      <trkpt lat="49.34886" lon="0.36404">
        <ele>121</ele>
        <time>2023-09-03T10:18:39Z</time>
      </trkpt>
      <trkpt lat="49.34883" lon="0.36395">
        <ele>121</ele>
        <time>2023-09-03T10:18:40Z</time>
      </trkpt>
      <trkpt lat="49.34881" lon="0.36385">
        <ele>121</ele>
        <time>2023-09-03T10:18:41Z</time>
      </trkpt>
      <trkpt lat="49.34878" lon="0.36376">
        <ele>121</ele>
        <time>2023-09-03T10:18:42Z</time>
      </trkpt>
      <trkpt lat="49.34875" lon="0.36366">
        <ele>120.9</ele>
        <time>2023-09-03T10:18:43Z</time>
      </trkpt>
      <trkpt lat="49.34872" lon="0.36356">
        <ele>120.9</ele>
        <time>2023-09-03T10:18:44Z</time>
      </trkpt>
      <trkpt lat="49.3487" lon="0.36347">
        <ele>120.9</ele>
        <time>2023-09-03T10:18:45Z</time>
      </trkpt>
      <trkpt lat="49.34867" lon="0.36337">
        <ele>120.8</ele>
        <time>2023-09-03T10:18:46Z</time>
      </trkpt>
      <trkpt lat="49.34865" lon="0.36327">
        <ele>120.8</ele>
        <time>2023-09-03T10:18:47Z</time>
      </trkpt>
      <trkpt lat="49.34862" lon="0.36317">
        <ele>120.7</ele>
        <time>2023-09-03T10:18:48Z</time>
      </trkpt>
      <trkpt lat="49.3486" lon="0.36308">
        <ele>120.7</ele>
        <time>2023-09-03T10:18:49Z</time>
      </trkpt>
      <trkpt lat="49.34857" lon="0.36298">
        <ele>120.6</ele>
        <time>2023-09-03T10:18:50Z</time>
      </trkpt>
      <trkpt lat="49.34854" lon="0.36288">
        <ele>120.5</ele>
        <time>2023-09-03T10:18:51Z</time>
      </trkpt>
      <trkpt lat="49.34851" lon="0.36278">
        <ele>120.5</ele>
        <time>2023-09-03T10:18:52Z</time>
      </trkpt>
      <trkpt lat="49.34849" lon="0.36268">
        <ele>120.4</ele>
        <time>2023-09-03T10:18:53Z</time>
      </trkpt>
      <trkpt lat="49.34846" lon="0.36258">
        <ele>120.4</ele>
        <time>2023-09-03T10:18:54Z</time>
      </trkpt>
      <trkpt lat="49.34843" lon="0.36249">
        <ele>120.3</ele>
        <time>2023-09-03T10:18:55Z</time>
      </trkpt>
      <trkpt lat="49.3484" lon="0.36239">
        <ele>120.3</ele>
        <time>2023-09-03T10:18:56Z</time>
      </trkpt>
      <trkpt lat="49.34837" lon="0.36229">
        <ele>120.3</ele>
        <time>2023-09-03T10:18:57Z</time>
      </trkpt>
      <trkpt lat="49.34835" lon="0.3622">
        <ele>120.3</ele>
        <time>2023-09-03T10:18:58Z</time>
      </trkpt>
      <trkpt lat="49.34833" lon="0.3621">
        <ele>120.2</ele>
        <time>2023-09-03T10:18:59Z</time>
      </trkpt>
      <trkpt lat="49.34831" lon="0.362">
        <ele>120.2</ele>
        <time>2023-09-03T10:19:00Z</time>
      </trkpt>
      <trkpt lat="49.3483" lon="0.3619">
        <ele>120.3</ele>
        <time>2023-09-03T10:19:01Z</time>
      </trkpt>
      <trkpt lat="49.34829" lon="0.3618">
        <ele>120.3</ele>
        <time>2023-09-03T10:19:02Z</time>
      </trkpt>
      <trkpt lat="49.3483" lon="0.3617">
        <ele>120.3</ele>
        <time>2023-09-03T10:19:03Z</time>
      </trkpt>
      <trkpt lat="49.34831" lon="0.36159">
        <ele>120.3</ele>
        <time>2023-09-03T10:19:04Z</time>
      </trkpt>
      <trkpt lat="49.3483" lon="0.36147">
        <ele>120.3</ele>
        <time>2023-09-03T10:19:05Z</time>
      </trkpt>
      <trkpt lat="49.34826" lon="0.36136">
        <ele>120.3</ele>
        <time>2023-09-03T10:19:06Z</time>
      </trkpt>
      <trkpt lat="49.3482" lon="0.36127">
        <ele>120.4</ele>
        <time>2023-09-03T10:19:07Z</time>
      </trkpt>
      <trkpt lat="49.34813" lon="0.36119">
        <ele>120.4</ele>
        <time>2023-09-03T10:19:08Z</time>
      </trkpt>
      <trkpt lat="49.34807" lon="0.36111">
        <ele>120.2</ele>
        <time>2023-09-03T10:19:09Z</time>
      </trkpt>
      <trkpt lat="49.34802" lon="0.36101">
        <ele>120.1</ele>
        <time>2023-09-03T10:19:10Z</time>
      </trkpt>
      <trkpt lat="49.34798" lon="0.3609">
        <ele>119.9</ele>
        <time>2023-09-03T10:19:11Z</time>
      </trkpt>
      <trkpt lat="49.34795" lon="0.36079">
        <ele>119.9</ele>
        <time>2023-09-03T10:19:12Z</time>
      </trkpt>
      <trkpt lat="49.34791" lon="0.36067">
        <ele>120</ele>
        <time>2023-09-03T10:19:13Z</time>
      </trkpt>
      <trkpt lat="49.34788" lon="0.36055">
        <ele>120</ele>
        <time>2023-09-03T10:19:14Z</time>
      </trkpt>
      <trkpt lat="49.34784" lon="0.36043">
        <ele>120.1</ele>
        <time>2023-09-03T10:19:15Z</time>
      </trkpt>
      <trkpt lat="49.34781" lon="0.36031">
        <ele>120.2</ele>
        <time>2023-09-03T10:19:16Z</time>
      </trkpt>
      <trkpt lat="49.34777" lon="0.36019">
        <ele>120.3</ele>
        <time>2023-09-03T10:19:17Z</time>
      </trkpt>
      <trkpt lat="49.34774" lon="0.36006">
        <ele>120.3</ele>
        <time>2023-09-03T10:19:18Z</time>
      </trkpt>
      <trkpt lat="49.3477" lon="0.35994">
        <ele>120.4</ele>
        <time>2023-09-03T10:19:19Z</time>
      </trkpt>
      <trkpt lat="49.34767" lon="0.35981">
        <ele>120.5</ele>
        <time>2023-09-03T10:19:20Z</time>
      </trkpt>
      <trkpt lat="49.34763" lon="0.35968">
        <ele>120.6</ele>
        <time>2023-09-03T10:19:21Z</time>
      </trkpt>
      <trkpt lat="49.3476" lon="0.35956">
        <ele>120.7</ele>
        <time>2023-09-03T10:19:22Z</time>
      </trkpt>
      <trkpt lat="49.34756" lon="0.35944">
        <ele>120.8</ele>
        <time>2023-09-03T10:19:23Z</time>
      </trkpt>
      <trkpt lat="49.34754" lon="0.35932">
        <ele>120.9</ele>
        <time>2023-09-03T10:19:24Z</time>
      </trkpt>
      <trkpt lat="49.34751" lon="0.3592">
        <ele>121</ele>
        <time>2023-09-03T10:19:25Z</time>
      </trkpt>
      <trkpt lat="49.34748" lon="0.35908">
        <ele>121.1</ele>
        <time>2023-09-03T10:19:26Z</time>
      </trkpt>
      <trkpt lat="49.34745" lon="0.35896">
        <ele>121.2</ele>
        <time>2023-09-03T10:19:27Z</time>
      </trkpt>
      <trkpt lat="49.34742" lon="0.35886">
        <ele>121.3</ele>
        <time>2023-09-03T10:19:28Z</time>
      </trkpt>
      <trkpt lat="49.34739" lon="0.35876">
        <ele>121.4</ele>
        <time>2023-09-03T10:19:29Z</time>
      </trkpt>
      <trkpt lat="49.34736" lon="0.35865">
        <ele>121.4</ele>
        <time>2023-09-03T10:19:30Z</time>
      </trkpt>
      <trkpt lat="49.34733" lon="0.35855">
        <ele>121.5</ele>
        <time>2023-09-03T10:19:31Z</time>
      </trkpt>
      <trkpt lat="49.3473" lon="0.35845">
        <ele>121.6</ele>
        <time>2023-09-03T10:19:32Z</time>
      </trkpt>
      <trkpt lat="49.34727" lon="0.35836">
        <ele>121.6</ele>
        <time>2023-09-03T10:19:33Z</time>
      </trkpt>
      <trkpt lat="49.34725" lon="0.35826">
        <ele>121.7</ele>
        <time>2023-09-03T10:19:34Z</time>
      </trkpt>
      <trkpt lat="49.34723" lon="0.35817">
        <ele>121.8</ele>
        <time>2023-09-03T10:19:35Z</time>
      </trkpt>
      <trkpt lat="49.3472" lon="0.35807">
        <ele>121.9</ele>
        <time>2023-09-03T10:19:36Z</time>
      </trkpt>
      <trkpt lat="49.34717" lon="0.35798">
        <ele>121.9</ele>
        <time>2023-09-03T10:19:37Z</time>
      </trkpt>
      <trkpt lat="49.34715" lon="0.3579">
        <ele>122</ele>
        <time>2023-09-03T10:19:38Z</time>
      </trkpt>
      <trkpt lat="49.34713" lon="0.35781">
        <ele>122.1</ele>
        <time>2023-09-03T10:19:39Z</time>
      </trkpt>
      <trkpt lat="49.3471" lon="0.35772">
        <ele>122.1</ele>
        <time>2023-09-03T10:19:40Z</time>
      </trkpt>
      <trkpt lat="49.34708" lon="0.35764">
        <ele>122.2</ele>
        <time>2023-09-03T10:19:41Z</time>
      </trkpt>
      <trkpt lat="49.34705" lon="0.35755">
        <ele>122.2</ele>
        <time>2023-09-03T10:19:42Z</time>
      </trkpt>
      <trkpt lat="49.34703" lon="0.35747">
        <ele>122.3</ele>
        <time>2023-09-03T10:19:43Z</time>
      </trkpt>
      <trkpt lat="49.34701" lon="0.35738">
        <ele>122.3</ele>
        <time>2023-09-03T10:19:44Z</time>
      </trkpt>
      <trkpt lat="49.34698" lon="0.35729">
        <ele>122.4</ele>
        <time>2023-09-03T10:19:45Z</time>
      </trkpt>
      <trkpt lat="49.34696" lon="0.3572">
        <ele>122.4</ele>
        <time>2023-09-03T10:19:46Z</time>
      </trkpt>
      <trkpt lat="49.34693" lon="0.35711">
        <ele>122.5</ele>
        <time>2023-09-03T10:19:47Z</time>
      </trkpt>
      <trkpt lat="49.34691" lon="0.35702">
        <ele>122.6</ele>
        <time>2023-09-03T10:19:48Z</time>
      </trkpt>
      <trkpt lat="49.34689" lon="0.35693">
        <ele>122.7</ele>
        <time>2023-09-03T10:19:49Z</time>
      </trkpt>
      <trkpt lat="49.34686" lon="0.35684">
        <ele>122.7</ele>
        <time>2023-09-03T10:19:50Z</time>
      </trkpt>
      <trkpt lat="49.34684" lon="0.35676">
        <ele>122.8</ele>
        <time>2023-09-03T10:19:51Z</time>
      </trkpt>
      <trkpt lat="49.34681" lon="0.35667">
        <ele>122.9</ele>
        <time>2023-09-03T10:19:52Z</time>
      </trkpt>
      <trkpt lat="49.34679" lon="0.35658">
        <ele>123</ele>
        <time>2023-09-03T10:19:53Z</time>
      </trkpt>
      <trkpt lat="49.34676" lon="0.35649">
        <ele>123</ele>
        <time>2023-09-03T10:19:54Z</time>
      </trkpt>
      <trkpt lat="49.34673" lon="0.35641">
        <ele>123.1</ele>
        <time>2023-09-03T10:19:55Z</time>
      </trkpt>
      <trkpt lat="49.34671" lon="0.35632">
        <ele>123.2</ele>
        <time>2023-09-03T10:19:56Z</time>
      </trkpt>
      <trkpt lat="49.34669" lon="0.35622">
        <ele>123.3</ele>
        <time>2023-09-03T10:19:57Z</time>
      </trkpt>
      <trkpt lat="49.34666" lon="0.35613">
        <ele>123.3</ele>
        <time>2023-09-03T10:19:58Z</time>
      </trkpt>
      <trkpt lat="49.34664" lon="0.35604">
        <ele>123.4</ele>
        <time>2023-09-03T10:19:59Z</time>
      </trkpt>
      <trkpt lat="49.34662" lon="0.35594">
        <ele>123.4</ele>
        <time>2023-09-03T10:20:00Z</time>
      </trkpt>
      <trkpt lat="49.34659" lon="0.35585">
        <ele>123.5</ele>
        <time>2023-09-03T10:20:01Z</time>
      </trkpt>
      <trkpt lat="49.34656" lon="0.35576">
        <ele>123.5</ele>
        <time>2023-09-03T10:20:02Z</time>
      </trkpt>
      <trkpt lat="49.34654" lon="0.35567">
        <ele>123.5</ele>
        <time>2023-09-03T10:20:03Z</time>
      </trkpt>
      <trkpt lat="49.34651" lon="0.35557">
        <ele>123.6</ele>
        <time>2023-09-03T10:20:04Z</time>
      </trkpt>
      <trkpt lat="49.34649" lon="0.35548">
        <ele>123.6</ele>
        <time>2023-09-03T10:20:05Z</time>
      </trkpt>
      <trkpt lat="49.34646" lon="0.35539">
        <ele>123.6</ele>
        <time>2023-09-03T10:20:06Z</time>
      </trkpt>
      <trkpt lat="49.34643" lon="0.3553">
        <ele>123.7</ele>
        <time>2023-09-03T10:20:07Z</time>
      </trkpt>
      <trkpt lat="49.3464" lon="0.35521">
        <ele>123.7</ele>
        <time>2023-09-03T10:20:08Z</time>
      </trkpt>
      <trkpt lat="49.34637" lon="0.35512">
        <ele>123.8</ele>
        <time>2023-09-03T10:20:09Z</time>
      </trkpt>
      <trkpt lat="49.34634" lon="0.35503">
        <ele>123.8</ele>
        <time>2023-09-03T10:20:10Z</time>
      </trkpt>
      <trkpt lat="49.34632" lon="0.35494">
        <ele>123.8</ele>
        <time>2023-09-03T10:20:11Z</time>
      </trkpt>
      <trkpt lat="49.3463" lon="0.35485">
        <ele>123.9</ele>
        <time>2023-09-03T10:20:12Z</time>
      </trkpt>
      <trkpt lat="49.34628" lon="0.35476">
        <ele>123.9</ele>
        <time>2023-09-03T10:20:13Z</time>
      </trkpt>
      <trkpt lat="49.34626" lon="0.35467">
        <ele>124</ele>
        <time>2023-09-03T10:20:14Z</time>
      </trkpt>
      <trkpt lat="49.34623" lon="0.35458">
        <ele>124</ele>
        <time>2023-09-03T10:20:15Z</time>
      </trkpt>
      <trkpt lat="49.3462" lon="0.35449">
        <ele>124</ele>
        <time>2023-09-03T10:20:16Z</time>
      </trkpt>
      <trkpt lat="49.34618" lon="0.3544">
        <ele>124.1</ele>
        <time>2023-09-03T10:20:17Z</time>
      </trkpt>
      <trkpt lat="49.34615" lon="0.35431">
        <ele>124.1</ele>
        <time>2023-09-03T10:20:18Z</time>
      </trkpt>
      <trkpt lat="49.34613" lon="0.35422">
        <ele>124.1</ele>
        <time>2023-09-03T10:20:19Z</time>
      </trkpt>
      <trkpt lat="49.3461" lon="0.35413">
        <ele>124.1</ele>
        <time>2023-09-03T10:20:20Z</time>
      </trkpt>
      <trkpt lat="49.34607" lon="0.35403">
        <ele>124.1</ele>
        <time>2023-09-03T10:20:21Z</time>
      </trkpt>
      <trkpt lat="49.34605" lon="0.35394">
        <ele>124.2</ele>
        <time>2023-09-03T10:20:22Z</time>
      </trkpt>
      <trkpt lat="49.34602" lon="0.35385">
        <ele>124.2</ele>
        <time>2023-09-03T10:20:23Z</time>
      </trkpt>
      <trkpt lat="49.34599" lon="0.35376">
        <ele>124.3</ele>
        <time>2023-09-03T10:20:24Z</time>
      </trkpt>
      <trkpt lat="49.34597" lon="0.35367">
        <ele>124.3</ele>
        <time>2023-09-03T10:20:25Z</time>
      </trkpt>
      <trkpt lat="49.34595" lon="0.35358">
        <ele>124.3</ele>
        <time>2023-09-03T10:20:26Z</time>
      </trkpt>
      <trkpt lat="49.34592" lon="0.35348">
        <ele>124.4</ele>
        <time>2023-09-03T10:20:27Z</time>
      </trkpt>
      <trkpt lat="49.3459" lon="0.35339">
        <ele>124.4</ele>
        <time>2023-09-03T10:20:28Z</time>
      </trkpt>
      <trkpt lat="49.34587" lon="0.3533">
        <ele>124.4</ele>
        <time>2023-09-03T10:20:29Z</time>
      </trkpt>
      <trkpt lat="49.34584" lon="0.3532">
        <ele>124.5</ele>
        <time>2023-09-03T10:20:30Z</time>
      </trkpt>
      <trkpt lat="49.34582" lon="0.35311">
        <ele>124.5</ele>
        <time>2023-09-03T10:20:31Z</time>
      </trkpt>
      <trkpt lat="49.3458" lon="0.35301">
        <ele>124.5</ele>
        <time>2023-09-03T10:20:32Z</time>
      </trkpt>
      <trkpt lat="49.34577" lon="0.35291">
        <ele>124.5</ele>
        <time>2023-09-03T10:20:33Z</time>
      </trkpt>
      <trkpt lat="49.34574" lon="0.35282">
        <ele>124.6</ele>
        <time>2023-09-03T10:20:34Z</time>
      </trkpt>
      <trkpt lat="49.34571" lon="0.35272">
        <ele>124.6</ele>
        <time>2023-09-03T10:20:35Z</time>
      </trkpt>
      <trkpt lat="49.34568" lon="0.35262">
        <ele>124.7</ele>
        <time>2023-09-03T10:20:36Z</time>
      </trkpt>
      <trkpt lat="49.34566" lon="0.35251">
        <ele>124.7</ele>
        <time>2023-09-03T10:20:37Z</time>
      </trkpt>
      <trkpt lat="49.34563" lon="0.3524">
        <ele>124.8</ele>
        <time>2023-09-03T10:20:38Z</time>
      </trkpt>
      <trkpt lat="49.3456" lon="0.35229">
        <ele>124.8</ele>
        <time>2023-09-03T10:20:39Z</time>
      </trkpt>
      <trkpt lat="49.34557" lon="0.35218">
        <ele>124.9</ele>
        <time>2023-09-03T10:20:40Z</time>
      </trkpt>
      <trkpt lat="49.34554" lon="0.35207">
        <ele>125</ele>
        <time>2023-09-03T10:20:41Z</time>
      </trkpt>
      <trkpt lat="49.34551" lon="0.35197">
        <ele>125.1</ele>
        <time>2023-09-03T10:20:42Z</time>
      </trkpt>
      <trkpt lat="49.34548" lon="0.35186">
        <ele>125.2</ele>
        <time>2023-09-03T10:20:43Z</time>
      </trkpt>
      <trkpt lat="49.34545" lon="0.35175">
        <ele>125.2</ele>
        <time>2023-09-03T10:20:44Z</time>
      </trkpt>
      <trkpt lat="49.34542" lon="0.35165">
        <ele>125.3</ele>
        <time>2023-09-03T10:20:45Z</time>
      </trkpt>
      <trkpt lat="49.34539" lon="0.35154">
        <ele>125.4</ele>
        <time>2023-09-03T10:20:46Z</time>
      </trkpt>
      <trkpt lat="49.34536" lon="0.35143">
        <ele>125.5</ele>
        <time>2023-09-03T10:20:47Z</time>
      </trkpt>
      <trkpt lat="49.34533" lon="0.35133">
        <ele>125.6</ele>
        <time>2023-09-03T10:20:48Z</time>
      </trkpt>
      <trkpt lat="49.3453" lon="0.35121">
        <ele>125.7</ele>
        <time>2023-09-03T10:20:49Z</time>
      </trkpt>
      <trkpt lat="49.34527" lon="0.3511">
        <ele>125.7</ele>
        <time>2023-09-03T10:20:50Z</time>
      </trkpt>
      <trkpt lat="49.34524" lon="0.35099">
        <ele>125.8</ele>
        <time>2023-09-03T10:20:51Z</time>
      </trkpt>
      <trkpt lat="49.34521" lon="0.35088">
        <ele>125.8</ele>
        <time>2023-09-03T10:20:52Z</time>
      </trkpt>
      <trkpt lat="49.34518" lon="0.35077">
        <ele>125.9</ele>
        <time>2023-09-03T10:20:53Z</time>
      </trkpt>
      <trkpt lat="49.34514" lon="0.35066">
        <ele>125.9</ele>
        <time>2023-09-03T10:20:54Z</time>
      </trkpt>
      <trkpt lat="49.34511" lon="0.35055">
        <ele>125.9</ele>
        <time>2023-09-03T10:20:55Z</time>
      </trkpt>
      <trkpt lat="49.34508" lon="0.35044">
        <ele>125.9</ele>
        <time>2023-09-03T10:20:56Z</time>
      </trkpt>
      <trkpt lat="49.34505" lon="0.35033">
        <ele>126</ele>
        <time>2023-09-03T10:20:57Z</time>
      </trkpt>
      <trkpt lat="49.34502" lon="0.35021">
        <ele>126</ele>
        <time>2023-09-03T10:20:58Z</time>
      </trkpt>
      <trkpt lat="49.34499" lon="0.3501">
        <ele>126.1</ele>
        <time>2023-09-03T10:20:59Z</time>
      </trkpt>
      <trkpt lat="49.34497" lon="0.34999">
        <ele>126.1</ele>
        <time>2023-09-03T10:21:00Z</time>
      </trkpt>
      <trkpt lat="49.34494" lon="0.34987">
        <ele>126.2</ele>
        <time>2023-09-03T10:21:01Z</time>
      </trkpt>
      <trkpt lat="49.34492" lon="0.34975">
        <ele>126.2</ele>
        <time>2023-09-03T10:21:02Z</time>
      </trkpt>
      <trkpt lat="49.34489" lon="0.34964">
        <ele>126.3</ele>
        <time>2023-09-03T10:21:03Z</time>
      </trkpt>
      <trkpt lat="49.34487" lon="0.34952">
        <ele>126.4</ele>
        <time>2023-09-03T10:21:04Z</time>
      </trkpt>
      <trkpt lat="49.34486" lon="0.3494">
        <ele>126.5</ele>
        <time>2023-09-03T10:21:05Z</time>
      </trkpt>
      <trkpt lat="49.34484" lon="0.34928">
        <ele>126.5</ele>
        <time>2023-09-03T10:21:06Z</time>
      </trkpt>
      <trkpt lat="49.34482" lon="0.34916">
        <ele>126.6</ele>
        <time>2023-09-03T10:21:07Z</time>
      </trkpt>
      <trkpt lat="49.34481" lon="0.34905">
        <ele>126.8</ele>
        <time>2023-09-03T10:21:08Z</time>
      </trkpt>
      <trkpt lat="49.34481" lon="0.34892">
        <ele>126.9</ele>
        <time>2023-09-03T10:21:09Z</time>
      </trkpt>
      <trkpt lat="49.3448" lon="0.3488">
        <ele>127</ele>
        <time>2023-09-03T10:21:10Z</time>
      </trkpt>
      <trkpt lat="49.3448" lon="0.34868">
        <ele>127.2</ele>
        <time>2023-09-03T10:21:11Z</time>
      </trkpt>
      <trkpt lat="49.3448" lon="0.34856">
        <ele>127.3</ele>
        <time>2023-09-03T10:21:12Z</time>
      </trkpt>
      <trkpt lat="49.3448" lon="0.34844">
        <ele>127.4</ele>
        <time>2023-09-03T10:21:13Z</time>
      </trkpt>
      <trkpt lat="49.3448" lon="0.34832">
        <ele>127.6</ele>
        <time>2023-09-03T10:21:14Z</time>
      </trkpt>
      <trkpt lat="49.3448" lon="0.34819">
        <ele>127.7</ele>
        <time>2023-09-03T10:21:15Z</time>
      </trkpt>
      <trkpt lat="49.34481" lon="0.34807">
        <ele>127.8</ele>
        <time>2023-09-03T10:21:16Z</time>
      </trkpt>
      <trkpt lat="49.34481" lon="0.34795">
        <ele>128</ele>
        <time>2023-09-03T10:21:17Z</time>
      </trkpt>
      <trkpt lat="49.34482" lon="0.34783">
        <ele>128.2</ele>
        <time>2023-09-03T10:21:18Z</time>
      </trkpt>
      <trkpt lat="49.34483" lon="0.34771">
        <ele>128.4</ele>
        <time>2023-09-03T10:21:19Z</time>
      </trkpt>
      <trkpt lat="49.34484" lon="0.3476">
        <ele>128.5</ele>
        <time>2023-09-03T10:21:20Z</time>
      </trkpt>
      <trkpt lat="49.34484" lon="0.34749">
        <ele>128.7</ele>
        <time>2023-09-03T10:21:21Z</time>
      </trkpt>
      <trkpt lat="49.34485" lon="0.34737">
        <ele>128.9</ele>
        <time>2023-09-03T10:21:22Z</time>
      </trkpt>
      <trkpt lat="49.34485" lon="0.34726">
        <ele>129</ele>
        <time>2023-09-03T10:21:23Z</time>
      </trkpt>
      <trkpt lat="49.34486" lon="0.34715">
        <ele>129.1</ele>
        <time>2023-09-03T10:21:24Z</time>
      </trkpt>
      <trkpt lat="49.34487" lon="0.34704">
        <ele>129.2</ele>
        <time>2023-09-03T10:21:25Z</time>
      </trkpt>
      <trkpt lat="49.34488" lon="0.34692">
        <ele>129.2</ele>
        <time>2023-09-03T10:21:26Z</time>
      </trkpt>
      <trkpt lat="49.34488" lon="0.34681">
        <ele>129.3</ele>
        <time>2023-09-03T10:21:27Z</time>
      </trkpt>
      <trkpt lat="49.34489" lon="0.3467">
        <ele>129.5</ele>
        <time>2023-09-03T10:21:28Z</time>
      </trkpt>
      <trkpt lat="49.34489" lon="0.34659">
        <ele>129.6</ele>
        <time>2023-09-03T10:21:29Z</time>
      </trkpt>
      <trkpt lat="49.3449" lon="0.34649">
        <ele>129.7</ele>
        <time>2023-09-03T10:21:30Z</time>
      </trkpt>
      <trkpt lat="49.3449" lon="0.34638">
        <ele>129.8</ele>
        <time>2023-09-03T10:21:31Z</time>
      </trkpt>
      <trkpt lat="49.34491" lon="0.34628">
        <ele>129.8</ele>
        <time>2023-09-03T10:21:32Z</time>
      </trkpt>
      <trkpt lat="49.34491" lon="0.34619">
        <ele>129.9</ele>
        <time>2023-09-03T10:21:33Z</time>
      </trkpt>
      <trkpt lat="49.34492" lon="0.34609">
        <ele>129.9</ele>
        <time>2023-09-03T10:21:34Z</time>
      </trkpt>
      <trkpt lat="49.34492" lon="0.346">
        <ele>130</ele>
        <time>2023-09-03T10:21:35Z</time>
      </trkpt>
      <trkpt lat="49.34493" lon="0.34591">
        <ele>130.1</ele>
        <time>2023-09-03T10:21:36Z</time>
      </trkpt>
      <trkpt lat="49.34493" lon="0.34582">
        <ele>130.1</ele>
        <time>2023-09-03T10:21:37Z</time>
      </trkpt>
      <trkpt lat="49.34494" lon="0.34572">
        <ele>130.2</ele>
        <time>2023-09-03T10:21:38Z</time>
      </trkpt>
      <trkpt lat="49.34494" lon="0.34563">
        <ele>130.4</ele>
        <time>2023-09-03T10:21:39Z</time>
      </trkpt>
      <trkpt lat="49.34495" lon="0.34554">
        <ele>130.5</ele>
        <time>2023-09-03T10:21:40Z</time>
      </trkpt>
      <trkpt lat="49.34495" lon="0.34545">
        <ele>130.6</ele>
        <time>2023-09-03T10:21:41Z</time>
      </trkpt>
      <trkpt lat="49.34496" lon="0.34536">
        <ele>130.7</ele>
        <time>2023-09-03T10:21:42Z</time>
      </trkpt>
      <trkpt lat="49.34496" lon="0.34527">
        <ele>130.8</ele>
        <time>2023-09-03T10:21:43Z</time>
      </trkpt>
      <trkpt lat="49.34497" lon="0.34517">
        <ele>130.9</ele>
        <time>2023-09-03T10:21:44Z</time>
      </trkpt>
      <trkpt lat="49.34498" lon="0.34508">
        <ele>131</ele>
        <time>2023-09-03T10:21:45Z</time>
      </trkpt>
      <trkpt lat="49.34498" lon="0.34498">
        <ele>131.2</ele>
        <time>2023-09-03T10:21:46Z</time>
      </trkpt>
      <trkpt lat="49.34499" lon="0.34489">
        <ele>131.3</ele>
        <time>2023-09-03T10:21:47Z</time>
      </trkpt>
      <trkpt lat="49.345" lon="0.3448">
        <ele>131.4</ele>
        <time>2023-09-03T10:21:48Z</time>
      </trkpt>
      <trkpt lat="49.34501" lon="0.34471">
        <ele>131.5</ele>
        <time>2023-09-03T10:21:49Z</time>
      </trkpt>
      <trkpt lat="49.34502" lon="0.34461">
        <ele>131.7</ele>
        <time>2023-09-03T10:21:50Z</time>
      </trkpt>
      <trkpt lat="49.34503" lon="0.34452">
        <ele>131.8</ele>
        <time>2023-09-03T10:21:51Z</time>
      </trkpt>
      <trkpt lat="49.34505" lon="0.34442">
        <ele>131.8</ele>
        <time>2023-09-03T10:21:52Z</time>
      </trkpt>
      <trkpt lat="49.34506" lon="0.34433">
        <ele>131.9</ele>
        <time>2023-09-03T10:21:53Z</time>
      </trkpt>
      <trkpt lat="49.34507" lon="0.34423">
        <ele>131.9</ele>
        <time>2023-09-03T10:21:54Z</time>
      </trkpt>
      <trkpt lat="49.34508" lon="0.34413">
        <ele>132</ele>
        <time>2023-09-03T10:21:55Z</time>
      </trkpt>
      <trkpt lat="49.3451" lon="0.34404">
        <ele>132</ele>
        <time>2023-09-03T10:21:56Z</time>
      </trkpt>
      <trkpt lat="49.34511" lon="0.34394">
        <ele>132.1</ele>
        <time>2023-09-03T10:21:57Z</time>
      </trkpt>
      <trkpt lat="49.34513" lon="0.34386">
        <ele>132.1</ele>
        <time>2023-09-03T10:21:58Z</time>
      </trkpt>
      <trkpt lat="49.34515" lon="0.34377">
        <ele>132.2</ele>
        <time>2023-09-03T10:21:59Z</time>
      </trkpt>
      <trkpt lat="49.34516" lon="0.34369">
        <ele>132.3</ele>
        <time>2023-09-03T10:22:00Z</time>
      </trkpt>
      <trkpt lat="49.34518" lon="0.34362">
        <ele>132.4</ele>
        <time>2023-09-03T10:22:01Z</time>
      </trkpt>
      <trkpt lat="49.3452" lon="0.34354">
        <ele>132.5</ele>
        <time>2023-09-03T10:22:02Z</time>
      </trkpt>
      <trkpt lat="49.34521" lon="0.34347">
        <ele>132.6</ele>
        <time>2023-09-03T10:22:03Z</time>
      </trkpt>
      <trkpt lat="49.34523" lon="0.34341">
        <ele>132.6</ele>
        <time>2023-09-03T10:22:04Z</time>
      </trkpt>
      <trkpt lat="49.34525" lon="0.34335">
        <ele>132.7</ele>
        <time>2023-09-03T10:22:05Z</time>
      </trkpt>
      <trkpt lat="49.34527" lon="0.34328">
        <ele>132.8</ele>
        <time>2023-09-03T10:22:06Z</time>
      </trkpt>
      <trkpt lat="49.34529" lon="0.34319">
        <ele>132.8</ele>
        <time>2023-09-03T10:22:07Z</time>
      </trkpt>
      <trkpt lat="49.34531" lon="0.3431">
        <ele>132.9</ele>
        <time>2023-09-03T10:22:08Z</time>
      </trkpt>
      <trkpt lat="49.34533" lon="0.34303">
        <ele>133</ele>
        <time>2023-09-03T10:22:09Z</time>
      </trkpt>
      <trkpt lat="49.34534" lon="0.34298">
        <ele>133</ele>
        <time>2023-09-03T10:22:10Z</time>
      </trkpt>
      <trkpt lat="49.34534" lon="0.34296">
        <ele>133</ele>
        <time>2023-09-03T10:22:11Z</time>
      </trkpt>
      <trkpt lat="49.34533" lon="0.34296">
        <ele>133</ele>
        <time>2023-09-03T10:22:12Z</time>
      </trkpt>
      <trkpt lat="49.34533" lon="0.34295">
        <ele>133</ele>
        <time>2023-09-03T10:22:13Z</time>
      </trkpt>
      <trkpt lat="49.34533" lon="0.34294">
        <ele>133</ele>
        <time>2023-09-03T10:22:14Z</time>
      </trkpt>
      <trkpt lat="49.34533" lon="0.34292">
        <ele>133</ele>
        <time>2023-09-03T10:22:15Z</time>
      </trkpt>
      <trkpt lat="49.34534" lon="0.34289">
        <ele>133</ele>
        <time>2023-09-03T10:22:16Z</time>
      </trkpt>
      <trkpt lat="49.34535" lon="0.34285">
        <ele>133.1</ele>
        <time>2023-09-03T10:22:17Z</time>
      </trkpt>
      <trkpt lat="49.34535" lon="0.34284">
        <ele>133.1</ele>
        <time>2023-09-03T10:22:18Z</time>
      </trkpt>
      <trkpt lat="49.34537" lon="0.3428">
        <ele>133.1</ele>
        <time>2023-09-03T10:22:19Z</time>
      </trkpt>
      <trkpt lat="49.34538" lon="0.34275">
        <ele>133.1</ele>
        <time>2023-09-03T10:22:20Z</time>
      </trkpt>
      <trkpt lat="49.3454" lon="0.34268">
        <ele>133.1</ele>
        <time>2023-09-03T10:22:21Z</time>
      </trkpt>
      <trkpt lat="49.34541" lon="0.34261">
        <ele>133.1</ele>
        <time>2023-09-03T10:22:22Z</time>
      </trkpt>
      <trkpt lat="49.34543" lon="0.34254">
        <ele>133.2</ele>
        <time>2023-09-03T10:22:23Z</time>
      </trkpt>
      <trkpt lat="49.34544" lon="0.34245">
        <ele>133.2</ele>
        <time>2023-09-03T10:22:24Z</time>
      </trkpt>
      <trkpt lat="49.34546" lon="0.34237">
        <ele>133.2</ele>
        <time>2023-09-03T10:22:25Z</time>
      </trkpt>
      <trkpt lat="49.34547" lon="0.34227">
        <ele>133.2</ele>
        <time>2023-09-03T10:22:26Z</time>
      </trkpt>
      <trkpt lat="49.34548" lon="0.34217">
        <ele>133.1</ele>
        <time>2023-09-03T10:22:27Z</time>
      </trkpt>
      <trkpt lat="49.34549" lon="0.34208">
        <ele>133.1</ele>
        <time>2023-09-03T10:22:28Z</time>
      </trkpt>
      <trkpt lat="49.34552" lon="0.342">
        <ele>133.1</ele>
        <time>2023-09-03T10:22:29Z</time>
      </trkpt>
      <trkpt lat="49.34555" lon="0.34192">
        <ele>133.1</ele>
        <time>2023-09-03T10:22:30Z</time>
      </trkpt>
      <trkpt lat="49.34559" lon="0.34184">
        <ele>133</ele>
        <time>2023-09-03T10:22:31Z</time>
      </trkpt>
      <trkpt lat="49.34562" lon="0.34175">
        <ele>133</ele>
        <time>2023-09-03T10:22:32Z</time>
      </trkpt>
      <trkpt lat="49.34566" lon="0.34166">
        <ele>133</ele>
        <time>2023-09-03T10:22:33Z</time>
      </trkpt>
      <trkpt lat="49.34569" lon="0.34158">
        <ele>132.9</ele>
        <time>2023-09-03T10:22:34Z</time>
      </trkpt>
      <trkpt lat="49.34572" lon="0.3415">
        <ele>132.9</ele>
        <time>2023-09-03T10:22:35Z</time>
      </trkpt>
      <trkpt lat="49.34576" lon="0.34141">
        <ele>132.9</ele>
        <time>2023-09-03T10:22:36Z</time>
      </trkpt>
      <trkpt lat="49.34579" lon="0.34133">
        <ele>132.8</ele>
        <time>2023-09-03T10:22:37Z</time>
      </trkpt>
      <trkpt lat="49.34582" lon="0.34124">
        <ele>132.8</ele>
        <time>2023-09-03T10:22:38Z</time>
      </trkpt>
      <trkpt lat="49.34584" lon="0.34115">
        <ele>132.7</ele>
        <time>2023-09-03T10:22:39Z</time>
      </trkpt>
      <trkpt lat="49.34585" lon="0.34106">
        <ele>132.7</ele>
        <time>2023-09-03T10:22:40Z</time>
      </trkpt>
      <trkpt lat="49.34586" lon="0.34097">
        <ele>132.7</ele>
        <time>2023-09-03T10:22:41Z</time>
      </trkpt>
      <trkpt lat="49.34587" lon="0.34088">
        <ele>132.6</ele>
        <time>2023-09-03T10:22:42Z</time>
      </trkpt>
      <trkpt lat="49.34587" lon="0.34079">
        <ele>132.6</ele>
        <time>2023-09-03T10:22:43Z</time>
      </trkpt>
      <trkpt lat="49.34587" lon="0.3407">
        <ele>132.5</ele>
        <time>2023-09-03T10:22:44Z</time>
      </trkpt>
      <trkpt lat="49.34586" lon="0.34061">
        <ele>132.4</ele>
        <time>2023-09-03T10:22:45Z</time>
      </trkpt>
      <trkpt lat="49.34585" lon="0.34052">
        <ele>132.4</ele>
        <time>2023-09-03T10:22:46Z</time>
      </trkpt>
      <trkpt lat="49.34584" lon="0.34045">
        <ele>132.3</ele>
        <time>2023-09-03T10:22:47Z</time>
      </trkpt>
      <trkpt lat="49.34581" lon="0.34037">
        <ele>132.3</ele>
        <time>2023-09-03T10:22:48Z</time>
      </trkpt>
      <trkpt lat="49.34577" lon="0.34028">
        <ele>132.3</ele>
        <time>2023-09-03T10:22:49Z</time>
      </trkpt>
      <trkpt lat="49.34572" lon="0.34019">
        <ele>132.3</ele>
        <time>2023-09-03T10:22:50Z</time>
      </trkpt>
      <trkpt lat="49.34568" lon="0.34011">
        <ele>132.3</ele>
        <time>2023-09-03T10:22:51Z</time>
      </trkpt>
      <trkpt lat="49.34563" lon="0.34003">
        <ele>132.3</ele>
        <time>2023-09-03T10:22:52Z</time>
      </trkpt>
      <trkpt lat="49.34558" lon="0.33995">
        <ele>132.3</ele>
        <time>2023-09-03T10:22:53Z</time>
      </trkpt>
      <trkpt lat="49.34553" lon="0.33987">
        <ele>132.3</ele>
        <time>2023-09-03T10:22:54Z</time>
      </trkpt>
      <trkpt lat="49.34548" lon="0.3398">
        <ele>132.4</ele>
        <time>2023-09-03T10:22:55Z</time>
      </trkpt>
      <trkpt lat="49.34543" lon="0.33974">
        <ele>132.4</ele>
        <time>2023-09-03T10:22:56Z</time>
      </trkpt>
      <trkpt lat="49.34538" lon="0.33967">
        <ele>132.4</ele>
        <time>2023-09-03T10:22:57Z</time>
      </trkpt>
      <trkpt lat="49.34534" lon="0.3396">
        <ele>132.4</ele>
        <time>2023-09-03T10:22:58Z</time>
      </trkpt>
      <trkpt lat="49.3453" lon="0.33951">
        <ele>132.4</ele>
        <time>2023-09-03T10:22:59Z</time>
      </trkpt>
      <trkpt lat="49.34525" lon="0.33943">
        <ele>132.3</ele>
        <time>2023-09-03T10:23:00Z</time>
      </trkpt>
      <trkpt lat="49.3452" lon="0.33936">
        <ele>132.3</ele>
        <time>2023-09-03T10:23:01Z</time>
      </trkpt>
      <trkpt lat="49.34515" lon="0.33928">
        <ele>132.3</ele>
        <time>2023-09-03T10:23:02Z</time>
      </trkpt>
      <trkpt lat="49.34511" lon="0.3392">
        <ele>132.3</ele>
        <time>2023-09-03T10:23:03Z</time>
      </trkpt>
      <trkpt lat="49.34506" lon="0.33912">
        <ele>132.3</ele>
        <time>2023-09-03T10:23:04Z</time>
      </trkpt>
      <trkpt lat="49.34501" lon="0.33904">
        <ele>132.3</ele>
        <time>2023-09-03T10:23:05Z</time>
      </trkpt>
      <trkpt lat="49.34495" lon="0.33896">
        <ele>132.3</ele>
        <time>2023-09-03T10:23:06Z</time>
      </trkpt>
      <trkpt lat="49.3449" lon="0.33888">
        <ele>132.3</ele>
        <time>2023-09-03T10:23:07Z</time>
      </trkpt>
      <trkpt lat="49.34484" lon="0.3388">
        <ele>132.4</ele>
        <time>2023-09-03T10:23:08Z</time>
      </trkpt>
      <trkpt lat="49.34479" lon="0.33871">
        <ele>132.4</ele>
        <time>2023-09-03T10:23:09Z</time>
      </trkpt>
      <trkpt lat="49.34474" lon="0.33863">
        <ele>132.5</ele>
        <time>2023-09-03T10:23:10Z</time>
      </trkpt>
      <trkpt lat="49.34469" lon="0.33855">
        <ele>132.5</ele>
        <time>2023-09-03T10:23:11Z</time>
      </trkpt>
      <trkpt lat="49.34464" lon="0.33847">
        <ele>132.5</ele>
        <time>2023-09-03T10:23:12Z</time>
      </trkpt>
      <trkpt lat="49.34459" lon="0.33839">
        <ele>132.6</ele>
        <time>2023-09-03T10:23:13Z</time>
      </trkpt>
      <trkpt lat="49.34454" lon="0.33831">
        <ele>132.6</ele>
        <time>2023-09-03T10:23:14Z</time>
      </trkpt>
      <trkpt lat="49.34449" lon="0.33823">
        <ele>132.6</ele>
        <time>2023-09-03T10:23:15Z</time>
      </trkpt>
      <trkpt lat="49.34444" lon="0.33815">
        <ele>132.6</ele>
        <time>2023-09-03T10:23:16Z</time>
      </trkpt>
      <trkpt lat="49.34439" lon="0.33807">
        <ele>132.7</ele>
        <time>2023-09-03T10:23:17Z</time>
      </trkpt>
      <trkpt lat="49.34433" lon="0.33798">
        <ele>132.7</ele>
        <time>2023-09-03T10:23:18Z</time>
      </trkpt>
      <trkpt lat="49.34427" lon="0.3379">
        <ele>132.6</ele>
        <time>2023-09-03T10:23:19Z</time>
      </trkpt>
      <trkpt lat="49.34422" lon="0.33781">
        <ele>132.5</ele>
        <time>2023-09-03T10:23:20Z</time>
      </trkpt>
      <trkpt lat="49.34415" lon="0.33772">
        <ele>132.5</ele>
        <time>2023-09-03T10:23:21Z</time>
      </trkpt>
      <trkpt lat="49.34409" lon="0.33763">
        <ele>132.4</ele>
        <time>2023-09-03T10:23:22Z</time>
      </trkpt>
      <trkpt lat="49.34403" lon="0.33753">
        <ele>132.3</ele>
        <time>2023-09-03T10:23:23Z</time>
      </trkpt>
      <trkpt lat="49.34397" lon="0.33743">
        <ele>132.2</ele>
        <time>2023-09-03T10:23:24Z</time>
      </trkpt>
      <trkpt lat="49.34391" lon="0.33733">
        <ele>132.2</ele>
        <time>2023-09-03T10:23:25Z</time>
      </trkpt>
      <trkpt lat="49.34385" lon="0.33724">
        <ele>132.1</ele>
        <time>2023-09-03T10:23:26Z</time>
      </trkpt>
      <trkpt lat="49.34379" lon="0.33714">
        <ele>132</ele>
        <time>2023-09-03T10:23:27Z</time>
      </trkpt>
      <trkpt lat="49.34373" lon="0.33704">
        <ele>131.9</ele>
        <time>2023-09-03T10:23:28Z</time>
      </trkpt>
      <trkpt lat="49.34367" lon="0.33695">
        <ele>131.8</ele>
        <time>2023-09-03T10:23:29Z</time>
      </trkpt>
      <trkpt lat="49.3436" lon="0.33685">
        <ele>131.7</ele>
        <time>2023-09-03T10:23:30Z</time>
      </trkpt>
      <trkpt lat="49.34355" lon="0.33676">
        <ele>131.6</ele>
        <time>2023-09-03T10:23:31Z</time>
      </trkpt>
      <trkpt lat="49.34349" lon="0.33667">
        <ele>131.6</ele>
        <time>2023-09-03T10:23:32Z</time>
      </trkpt>
      <trkpt lat="49.34343" lon="0.33658">
        <ele>131.5</ele>
        <time>2023-09-03T10:23:33Z</time>
      </trkpt>
      <trkpt lat="49.34337" lon="0.33647">
        <ele>131.4</ele>
        <time>2023-09-03T10:23:34Z</time>
      </trkpt>
      <trkpt lat="49.34329" lon="0.33636">
        <ele>131.3</ele>
        <time>2023-09-03T10:23:35Z</time>
      </trkpt>
      <trkpt lat="49.34322" lon="0.33625">
        <ele>131.1</ele>
        <time>2023-09-03T10:23:36Z</time>
      </trkpt>
      <trkpt lat="49.34315" lon="0.33613">
        <ele>131</ele>
        <time>2023-09-03T10:23:37Z</time>
      </trkpt>
      <trkpt lat="49.34308" lon="0.33602">
        <ele>130.8</ele>
        <time>2023-09-03T10:23:38Z</time>
      </trkpt>
      <trkpt lat="49.34301" lon="0.33591">
        <ele>130.6</ele>
        <time>2023-09-03T10:23:39Z</time>
      </trkpt>
      <trkpt lat="49.34294" lon="0.3358">
        <ele>130.3</ele>
        <time>2023-09-03T10:23:40Z</time>
      </trkpt>
      <trkpt lat="49.34287" lon="0.33569">
        <ele>130</ele>
        <time>2023-09-03T10:23:41Z</time>
      </trkpt>
      <trkpt lat="49.34279" lon="0.33557">
        <ele>129.7</ele>
        <time>2023-09-03T10:23:42Z</time>
      </trkpt>
      <trkpt lat="49.34272" lon="0.33545">
        <ele>129.3</ele>
        <time>2023-09-03T10:23:43Z</time>
      </trkpt>
      <trkpt lat="49.34264" lon="0.33533">
        <ele>128.8</ele>
        <time>2023-09-03T10:23:44Z</time>
      </trkpt>
      <trkpt lat="49.34257" lon="0.33521">
        <ele>128.3</ele>
        <time>2023-09-03T10:23:45Z</time>
      </trkpt>
      <trkpt lat="49.34249" lon="0.33508">
        <ele>127.7</ele>
        <time>2023-09-03T10:23:46Z</time>
      </trkpt>
      <trkpt lat="49.34241" lon="0.33496">
        <ele>127.2</ele>
        <time>2023-09-03T10:23:47Z</time>
      </trkpt>
      <trkpt lat="49.34233" lon="0.33483">
        <ele>126.6</ele>
        <time>2023-09-03T10:23:48Z</time>
      </trkpt>
      <trkpt lat="49.34225" lon="0.3347">
        <ele>125.9</ele>
        <time>2023-09-03T10:23:49Z</time>
      </trkpt>
      <trkpt lat="49.34217" lon="0.33457">
        <ele>125.3</ele>
        <time>2023-09-03T10:23:50Z</time>
      </trkpt>
      <trkpt lat="49.34208" lon="0.33444">
        <ele>125</ele>
        <time>2023-09-03T10:23:51Z</time>
      </trkpt>
      <trkpt lat="49.342" lon="0.33431">
        <ele>124.5</ele>
        <time>2023-09-03T10:23:52Z</time>
      </trkpt>
      <trkpt lat="49.34191" lon="0.33417">
        <ele>123.8</ele>
        <time>2023-09-03T10:23:53Z</time>
      </trkpt>
      <trkpt lat="49.34182" lon="0.33404">
        <ele>123.1</ele>
        <time>2023-09-03T10:23:54Z</time>
      </trkpt>
      <trkpt lat="49.34174" lon="0.3339">
        <ele>122.3</ele>
        <time>2023-09-03T10:23:55Z</time>
      </trkpt>
      <trkpt lat="49.34165" lon="0.33376">
        <ele>121.6</ele>
        <time>2023-09-03T10:23:56Z</time>
      </trkpt>
      <trkpt lat="49.34157" lon="0.33362">
        <ele>120.8</ele>
        <time>2023-09-03T10:23:57Z</time>
      </trkpt>
      <trkpt lat="49.34148" lon="0.33348">
        <ele>119.9</ele>
        <time>2023-09-03T10:23:58Z</time>
      </trkpt>
      <trkpt lat="49.34139" lon="0.33333">
        <ele>119</ele>
        <time>2023-09-03T10:23:59Z</time>
      </trkpt>
      <trkpt lat="49.34132" lon="0.33317">
        <ele>118.1</ele>
        <time>2023-09-03T10:24:00Z</time>
      </trkpt>
      <trkpt lat="49.34128" lon="0.33299">
        <ele>117.3</ele>
        <time>2023-09-03T10:24:01Z</time>
      </trkpt>
      <trkpt lat="49.34127" lon="0.33279">
        <ele>116.4</ele>
        <time>2023-09-03T10:24:02Z</time>
      </trkpt>
      <trkpt lat="49.34128" lon="0.3326">
        <ele>115.5</ele>
        <time>2023-09-03T10:24:03Z</time>
      </trkpt>
      <trkpt lat="49.34132" lon="0.33243">
        <ele>114.7</ele>
        <time>2023-09-03T10:24:04Z</time>
      </trkpt>
      <trkpt lat="49.34139" lon="0.33226">
        <ele>113.9</ele>
        <time>2023-09-03T10:24:05Z</time>
      </trkpt>
      <trkpt lat="49.34148" lon="0.33212">
        <ele>112.9</ele>
        <time>2023-09-03T10:24:06Z</time>
      </trkpt>
      <trkpt lat="49.34158" lon="0.33198">
        <ele>112</ele>
        <time>2023-09-03T10:24:07Z</time>
      </trkpt>
      <trkpt lat="49.34166" lon="0.33184">
        <ele>111.1</ele>
        <time>2023-09-03T10:24:08Z</time>
      </trkpt>
      <trkpt lat="49.34175" lon="0.33169">
        <ele>110.3</ele>
        <time>2023-09-03T10:24:09Z</time>
      </trkpt>
      <trkpt lat="49.34182" lon="0.33151">
        <ele>109.4</ele>
        <time>2023-09-03T10:24:10Z</time>
      </trkpt>
      <trkpt lat="49.34186" lon="0.33132">
        <ele>108.8</ele>
        <time>2023-09-03T10:24:11Z</time>
      </trkpt>
      <trkpt lat="49.34189" lon="0.33113">
        <ele>108.1</ele>
        <time>2023-09-03T10:24:12Z</time>
      </trkpt>
      <trkpt lat="49.34189" lon="0.33094">
        <ele>107.5</ele>
        <time>2023-09-03T10:24:13Z</time>
      </trkpt>
      <trkpt lat="49.34187" lon="0.33076">
        <ele>106.9</ele>
        <time>2023-09-03T10:24:14Z</time>
      </trkpt>
      <trkpt lat="49.34183" lon="0.33059">
        <ele>106.2</ele>
        <time>2023-09-03T10:24:15Z</time>
      </trkpt>
      <trkpt lat="49.34176" lon="0.33041">
        <ele>105.5</ele>
        <time>2023-09-03T10:24:16Z</time>
      </trkpt>
      <trkpt lat="49.34169" lon="0.33022">
        <ele>104.7</ele>
        <time>2023-09-03T10:24:17Z</time>
      </trkpt>
      <trkpt lat="49.34162" lon="0.33003">
        <ele>103.9</ele>
        <time>2023-09-03T10:24:18Z</time>
      </trkpt>
      <trkpt lat="49.34156" lon="0.32984">
        <ele>103.1</ele>
        <time>2023-09-03T10:24:19Z</time>
      </trkpt>
      <trkpt lat="49.34149" lon="0.32965">
        <ele>102.4</ele>
        <time>2023-09-03T10:24:20Z</time>
      </trkpt>
      <trkpt lat="49.34143" lon="0.32946">
        <ele>101.6</ele>
        <time>2023-09-03T10:24:21Z</time>
      </trkpt>
      <trkpt lat="49.34137" lon="0.32928">
        <ele>100.9</ele>
        <time>2023-09-03T10:24:22Z</time>
      </trkpt>
      <trkpt lat="49.34131" lon="0.32911">
        <ele>100.1</ele>
        <time>2023-09-03T10:24:23Z</time>
      </trkpt>
      <trkpt lat="49.34125" lon="0.32893">
        <ele>99.4</ele>
        <time>2023-09-03T10:24:24Z</time>
      </trkpt>
      <trkpt lat="49.34119" lon="0.32875">
        <ele>98.6</ele>
        <time>2023-09-03T10:24:25Z</time>
      </trkpt>
      <trkpt lat="49.34111" lon="0.32858">
        <ele>97.8</ele>
        <time>2023-09-03T10:24:26Z</time>
      </trkpt>
      <trkpt lat="49.34102" lon="0.32843">
        <ele>97</ele>
        <time>2023-09-03T10:24:27Z</time>
      </trkpt>
      <trkpt lat="49.34092" lon="0.32829">
        <ele>96.1</ele>
        <time>2023-09-03T10:24:28Z</time>
      </trkpt>
      <trkpt lat="49.34081" lon="0.32815">
        <ele>95.3</ele>
        <time>2023-09-03T10:24:29Z</time>
      </trkpt>
      <trkpt lat="49.34071" lon="0.32802">
        <ele>94.5</ele>
        <time>2023-09-03T10:24:30Z</time>
      </trkpt>
      <trkpt lat="49.34061" lon="0.32788">
        <ele>93.8</ele>
        <time>2023-09-03T10:24:31Z</time>
      </trkpt>
      <trkpt lat="49.34052" lon="0.32776">
        <ele>93.1</ele>
        <time>2023-09-03T10:24:32Z</time>
      </trkpt>
      <trkpt lat="49.34043" lon="0.32764">
        <ele>92.4</ele>
        <time>2023-09-03T10:24:33Z</time>
      </trkpt>
      <trkpt lat="49.34035" lon="0.32751">
        <ele>91.8</ele>
        <time>2023-09-03T10:24:34Z</time>
      </trkpt>
      <trkpt lat="49.34025" lon="0.32738">
        <ele>91.2</ele>
        <time>2023-09-03T10:24:35Z</time>
      </trkpt>
      <trkpt lat="49.34015" lon="0.32725">
        <ele>90.6</ele>
        <time>2023-09-03T10:24:36Z</time>
      </trkpt>
      <trkpt lat="49.34005" lon="0.32713">
        <ele>90.1</ele>
        <time>2023-09-03T10:24:37Z</time>
      </trkpt>
      <trkpt lat="49.33996" lon="0.32701">
        <ele>89.7</ele>
        <time>2023-09-03T10:24:38Z</time>
      </trkpt>
      <trkpt lat="49.33986" lon="0.32689">
        <ele>89.4</ele>
        <time>2023-09-03T10:24:39Z</time>
      </trkpt>
      <trkpt lat="49.33977" lon="0.32676">
        <ele>89.1</ele>
        <time>2023-09-03T10:24:40Z</time>
      </trkpt>
      <trkpt lat="49.33968" lon="0.32664">
        <ele>88.9</ele>
        <time>2023-09-03T10:24:41Z</time>
      </trkpt>
      <trkpt lat="49.33959" lon="0.32651">
        <ele>88.8</ele>
        <time>2023-09-03T10:24:42Z</time>
      </trkpt>
      <trkpt lat="49.3395" lon="0.32639">
        <ele>88.8</ele>
        <time>2023-09-03T10:24:43Z</time>
      </trkpt>
      <trkpt lat="49.33942" lon="0.32626">
        <ele>88.8</ele>
        <time>2023-09-03T10:24:44Z</time>
      </trkpt>
      <trkpt lat="49.33935" lon="0.32614">
        <ele>88.8</ele>
        <time>2023-09-03T10:24:45Z</time>
      </trkpt>
      <trkpt lat="49.33928" lon="0.32602">
        <ele>88.8</ele>
        <time>2023-09-03T10:24:46Z</time>
      </trkpt>
      <trkpt lat="49.33922" lon="0.32589">
        <ele>88.9</ele>
        <time>2023-09-03T10:24:47Z</time>
      </trkpt>
      <trkpt lat="49.33916" lon="0.32575">
        <ele>89</ele>
        <time>2023-09-03T10:24:48Z</time>
      </trkpt>
      <trkpt lat="49.3391" lon="0.32563">
        <ele>89</ele>
        <time>2023-09-03T10:24:49Z</time>
      </trkpt>
      <trkpt lat="49.33904" lon="0.3255">
        <ele>88.9</ele>
        <time>2023-09-03T10:24:50Z</time>
      </trkpt>
      <trkpt lat="49.33898" lon="0.32537">
        <ele>88.9</ele>
        <time>2023-09-03T10:24:51Z</time>
      </trkpt>
      <trkpt lat="49.33893" lon="0.32525">
        <ele>88.9</ele>
        <time>2023-09-03T10:24:52Z</time>
      </trkpt>
      <trkpt lat="49.33888" lon="0.32513">
        <ele>88.9</ele>
        <time>2023-09-03T10:24:53Z</time>
      </trkpt>
      <trkpt lat="49.33882" lon="0.32502">
        <ele>89</ele>
        <time>2023-09-03T10:24:54Z</time>
      </trkpt>
      <trkpt lat="49.33876" lon="0.32489">
        <ele>89</ele>
        <time>2023-09-03T10:24:55Z</time>
      </trkpt>
      <trkpt lat="49.33871" lon="0.32477">
        <ele>89.1</ele>
        <time>2023-09-03T10:24:56Z</time>
      </trkpt>
      <trkpt lat="49.33866" lon="0.32465">
        <ele>89.2</ele>
        <time>2023-09-03T10:24:57Z</time>
      </trkpt>
      <trkpt lat="49.33861" lon="0.32454">
        <ele>89.3</ele>
        <time>2023-09-03T10:24:58Z</time>
      </trkpt>
      <trkpt lat="49.33856" lon="0.32442">
        <ele>89.5</ele>
        <time>2023-09-03T10:24:59Z</time>
      </trkpt>
      <trkpt lat="49.33851" lon="0.32431">
        <ele>89.7</ele>
        <time>2023-09-03T10:25:00Z</time>
      </trkpt>
      <trkpt lat="49.33846" lon="0.3242">
        <ele>89.9</ele>
        <time>2023-09-03T10:25:01Z</time>
      </trkpt>
      <trkpt lat="49.33842" lon="0.3241">
        <ele>90.1</ele>
        <time>2023-09-03T10:25:02Z</time>
      </trkpt>
      <trkpt lat="49.33837" lon="0.32399">
        <ele>90.4</ele>
        <time>2023-09-03T10:25:03Z</time>
      </trkpt>
      <trkpt lat="49.33833" lon="0.3239">
        <ele>90.8</ele>
        <time>2023-09-03T10:25:04Z</time>
      </trkpt>
      <trkpt lat="49.33829" lon="0.32381">
        <ele>91.1</ele>
        <time>2023-09-03T10:25:05Z</time>
      </trkpt>
      <trkpt lat="49.33825" lon="0.32372">
        <ele>91.5</ele>
        <time>2023-09-03T10:25:06Z</time>
      </trkpt>
      <trkpt lat="49.33821" lon="0.32364">
        <ele>91.8</ele>
        <time>2023-09-03T10:25:07Z</time>
      </trkpt>
      <trkpt lat="49.33817" lon="0.32355">
        <ele>92.1</ele>
        <time>2023-09-03T10:25:08Z</time>
      </trkpt>
      <trkpt lat="49.33813" lon="0.32347">
        <ele>92.4</ele>
        <time>2023-09-03T10:25:09Z</time>
      </trkpt>
      <trkpt lat="49.33808" lon="0.32339">
        <ele>92.7</ele>
        <time>2023-09-03T10:25:10Z</time>
      </trkpt>
      <trkpt lat="49.33804" lon="0.32331">
        <ele>93</ele>
        <time>2023-09-03T10:25:11Z</time>
      </trkpt>
      <trkpt lat="49.33801" lon="0.32324">
        <ele>93.3</ele>
        <time>2023-09-03T10:25:12Z</time>
      </trkpt>
      <trkpt lat="49.33797" lon="0.32317">
        <ele>93.5</ele>
        <time>2023-09-03T10:25:13Z</time>
      </trkpt>
      <trkpt lat="49.33794" lon="0.3231">
        <ele>93.7</ele>
        <time>2023-09-03T10:25:14Z</time>
      </trkpt>
      <trkpt lat="49.33791" lon="0.32303">
        <ele>93.9</ele>
        <time>2023-09-03T10:25:15Z</time>
      </trkpt>
      <trkpt lat="49.33788" lon="0.32297">
        <ele>94.2</ele>
        <time>2023-09-03T10:25:16Z</time>
      </trkpt>
      <trkpt lat="49.33784" lon="0.32289">
        <ele>94.5</ele>
        <time>2023-09-03T10:25:17Z</time>
      </trkpt>
      <trkpt lat="49.3378" lon="0.32282">
        <ele>94.7</ele>
        <time>2023-09-03T10:25:18Z</time>
      </trkpt>
      <trkpt lat="49.33777" lon="0.32275">
        <ele>95</ele>
        <time>2023-09-03T10:25:19Z</time>
      </trkpt>
      <trkpt lat="49.33773" lon="0.32269">
        <ele>95.2</ele>
        <time>2023-09-03T10:25:20Z</time>
      </trkpt>
      <trkpt lat="49.3377" lon="0.32262">
        <ele>95.4</ele>
        <time>2023-09-03T10:25:21Z</time>
      </trkpt>
      <trkpt lat="49.33767" lon="0.32257">
        <ele>95.6</ele>
        <time>2023-09-03T10:25:22Z</time>
      </trkpt>
      <trkpt lat="49.33763" lon="0.32252">
        <ele>95.8</ele>
        <time>2023-09-03T10:25:23Z</time>
      </trkpt>
      <trkpt lat="49.3376" lon="0.32247">
        <ele>96</ele>
        <time>2023-09-03T10:25:24Z</time>
      </trkpt>
      <trkpt lat="49.33756" lon="0.32242">
        <ele>96.2</ele>
        <time>2023-09-03T10:25:25Z</time>
      </trkpt>
      <trkpt lat="49.33753" lon="0.32238">
        <ele>96.3</ele>
        <time>2023-09-03T10:25:26Z</time>
      </trkpt>
      <trkpt lat="49.3375" lon="0.32233">
        <ele>96.4</ele>
        <time>2023-09-03T10:25:27Z</time>
      </trkpt>
      <trkpt lat="49.33747" lon="0.32229">
        <ele>96.6</ele>
        <time>2023-09-03T10:25:28Z</time>
      </trkpt>
      <trkpt lat="49.33745" lon="0.32224">
        <ele>96.7</ele>
        <time>2023-09-03T10:25:29Z</time>
      </trkpt>
      <trkpt lat="49.33742" lon="0.3222">
        <ele>97</ele>
        <time>2023-09-03T10:25:30Z</time>
      </trkpt>
      <trkpt lat="49.33739" lon="0.32216">
        <ele>97.1</ele>
        <time>2023-09-03T10:25:31Z</time>
      </trkpt>
      <trkpt lat="49.33736" lon="0.32211">
        <ele>97.3</ele>
        <time>2023-09-03T10:25:32Z</time>
      </trkpt>
      <trkpt lat="49.33733" lon="0.32208">
        <ele>97.5</ele>
        <time>2023-09-03T10:25:33Z</time>
      </trkpt>
      <trkpt lat="49.33731" lon="0.32204">
        <ele>97.6</ele>
        <time>2023-09-03T10:25:34Z</time>
      </trkpt>
      <trkpt lat="49.33727" lon="0.322">
        <ele>97.8</ele>
        <time>2023-09-03T10:25:35Z</time>
      </trkpt>
      <trkpt lat="49.33724" lon="0.32196">
        <ele>98</ele>
        <time>2023-09-03T10:25:36Z</time>
      </trkpt>
      <trkpt lat="49.33721" lon="0.32192">
        <ele>98.2</ele>
        <time>2023-09-03T10:25:37Z</time>
      </trkpt>
      <trkpt lat="49.33717" lon="0.32188">
        <ele>98.4</ele>
        <time>2023-09-03T10:25:38Z</time>
      </trkpt>
      <trkpt lat="49.33713" lon="0.32184">
        <ele>98.6</ele>
        <time>2023-09-03T10:25:39Z</time>
      </trkpt>
      <trkpt lat="49.33708" lon="0.3218">
        <ele>98.8</ele>
        <time>2023-09-03T10:25:40Z</time>
      </trkpt>
      <trkpt lat="49.33704" lon="0.32176">
        <ele>99</ele>
        <time>2023-09-03T10:25:41Z</time>
      </trkpt>
      <trkpt lat="49.33699" lon="0.32172">
        <ele>99.2</ele>
        <time>2023-09-03T10:25:42Z</time>
      </trkpt>
      <trkpt lat="49.33695" lon="0.32167">
        <ele>99.4</ele>
        <time>2023-09-03T10:25:43Z</time>
      </trkpt>
      <trkpt lat="49.3369" lon="0.32163">
        <ele>99.7</ele>
        <time>2023-09-03T10:25:44Z</time>
      </trkpt>
      <trkpt lat="49.33685" lon="0.32159">
        <ele>99.9</ele>
        <time>2023-09-03T10:25:45Z</time>
      </trkpt>
      <trkpt lat="49.3368" lon="0.32155">
        <ele>100.1</ele>
        <time>2023-09-03T10:25:46Z</time>
      </trkpt>
      <trkpt lat="49.33674" lon="0.32151">
        <ele>100.4</ele>
        <time>2023-09-03T10:25:47Z</time>
      </trkpt>
      <trkpt lat="49.33669" lon="0.32147">
        <ele>100.6</ele>
        <time>2023-09-03T10:25:48Z</time>
      </trkpt>
      <trkpt lat="49.33664" lon="0.32144">
        <ele>100.9</ele>
        <time>2023-09-03T10:25:49Z</time>
      </trkpt>
      <trkpt lat="49.33659" lon="0.32141">
        <ele>101.1</ele>
        <time>2023-09-03T10:25:50Z</time>
      </trkpt>
      <trkpt lat="49.33655" lon="0.32138">
        <ele>101.3</ele>
        <time>2023-09-03T10:25:51Z</time>
      </trkpt>
      <trkpt lat="49.3365" lon="0.32135">
        <ele>101.5</ele>
        <time>2023-09-03T10:25:52Z</time>
      </trkpt>
      <trkpt lat="49.33646" lon="0.32132">
        <ele>101.7</ele>
        <time>2023-09-03T10:25:53Z</time>
      </trkpt>
      <trkpt lat="49.33641" lon="0.3213">
        <ele>101.9</ele>
        <time>2023-09-03T10:25:54Z</time>
      </trkpt>
      <trkpt lat="49.33636" lon="0.32128">
        <ele>102.1</ele>
        <time>2023-09-03T10:25:55Z</time>
      </trkpt>
      <trkpt lat="49.33631" lon="0.32126">
        <ele>102.4</ele>
        <time>2023-09-03T10:25:56Z</time>
      </trkpt>
      <trkpt lat="49.33626" lon="0.32123">
        <ele>102.6</ele>
        <time>2023-09-03T10:25:57Z</time>
      </trkpt>
      <trkpt lat="49.33621" lon="0.32121">
        <ele>102.8</ele>
        <time>2023-09-03T10:25:58Z</time>
      </trkpt>
      <trkpt lat="49.33616" lon="0.32119">
        <ele>103</ele>
        <time>2023-09-03T10:25:59Z</time>
      </trkpt>
      <trkpt lat="49.33611" lon="0.32116">
        <ele>103.2</ele>
        <time>2023-09-03T10:26:00Z</time>
      </trkpt>
      <trkpt lat="49.33606" lon="0.32114">
        <ele>103.4</ele>
        <time>2023-09-03T10:26:01Z</time>
      </trkpt>
      <trkpt lat="49.33601" lon="0.32112">
        <ele>103.6</ele>
        <time>2023-09-03T10:26:02Z</time>
      </trkpt>
      <trkpt lat="49.33597" lon="0.32111">
        <ele>103.8</ele>
        <time>2023-09-03T10:26:03Z</time>
      </trkpt>
      <trkpt lat="49.33592" lon="0.32109">
        <ele>104</ele>
        <time>2023-09-03T10:26:04Z</time>
      </trkpt>
      <trkpt lat="49.33587" lon="0.32107">
        <ele>104.2</ele>
        <time>2023-09-03T10:26:05Z</time>
      </trkpt>
      <trkpt lat="49.33582" lon="0.32105">
        <ele>104.3</ele>
        <time>2023-09-03T10:26:06Z</time>
      </trkpt>
      <trkpt lat="49.33578" lon="0.32103">
        <ele>104.5</ele>
        <time>2023-09-03T10:26:07Z</time>
      </trkpt>
      <trkpt lat="49.33573" lon="0.32102">
        <ele>104.7</ele>
        <time>2023-09-03T10:26:08Z</time>
      </trkpt>
      <trkpt lat="49.33568" lon="0.321">
        <ele>104.9</ele>
        <time>2023-09-03T10:26:09Z</time>
      </trkpt>
      <trkpt lat="49.33563" lon="0.32097">
        <ele>105.1</ele>
        <time>2023-09-03T10:26:10Z</time>
      </trkpt>
      <trkpt lat="49.33559" lon="0.32095">
        <ele>105.3</ele>
        <time>2023-09-03T10:26:11Z</time>
      </trkpt>
      <trkpt lat="49.33555" lon="0.32093">
        <ele>105.5</ele>
        <time>2023-09-03T10:26:12Z</time>
      </trkpt>
      <trkpt lat="49.33551" lon="0.3209">
        <ele>105.7</ele>
        <time>2023-09-03T10:26:13Z</time>
      </trkpt>
      <trkpt lat="49.33546" lon="0.32088">
        <ele>105.9</ele>
        <time>2023-09-03T10:26:14Z</time>
      </trkpt>
      <trkpt lat="49.33542" lon="0.32085">
        <ele>106.1</ele>
        <time>2023-09-03T10:26:15Z</time>
      </trkpt>
      <trkpt lat="49.33538" lon="0.32083">
        <ele>106.4</ele>
        <time>2023-09-03T10:26:16Z</time>
      </trkpt>
      <trkpt lat="49.33533" lon="0.3208">
        <ele>106.6</ele>
        <time>2023-09-03T10:26:17Z</time>
      </trkpt>
      <trkpt lat="49.3353" lon="0.32077">
        <ele>106.8</ele>
        <time>2023-09-03T10:26:18Z</time>
      </trkpt>
      <trkpt lat="49.33526" lon="0.32074">
        <ele>107</ele>
        <time>2023-09-03T10:26:19Z</time>
      </trkpt>
      <trkpt lat="49.33523" lon="0.32071">
        <ele>107.2</ele>
        <time>2023-09-03T10:26:20Z</time>
      </trkpt>
      <trkpt lat="49.33519" lon="0.32068">
        <ele>107.4</ele>
        <time>2023-09-03T10:26:21Z</time>
      </trkpt>
      <trkpt lat="49.33516" lon="0.32065">
        <ele>107.5</ele>
        <time>2023-09-03T10:26:22Z</time>
      </trkpt>
      <trkpt lat="49.33513" lon="0.32062">
        <ele>107.7</ele>
        <time>2023-09-03T10:26:23Z</time>
      </trkpt>
      <trkpt lat="49.33509" lon="0.32059">
        <ele>108</ele>
        <time>2023-09-03T10:26:24Z</time>
      </trkpt>
      <trkpt lat="49.33505" lon="0.32055">
        <ele>108.2</ele>
        <time>2023-09-03T10:26:25Z</time>
      </trkpt>
      <trkpt lat="49.33501" lon="0.32052">
        <ele>108.5</ele>
        <time>2023-09-03T10:26:26Z</time>
      </trkpt>
      <trkpt lat="49.33497" lon="0.32048">
        <ele>108.7</ele>
        <time>2023-09-03T10:26:27Z</time>
      </trkpt>
      <trkpt lat="49.33493" lon="0.32045">
        <ele>108.9</ele>
        <time>2023-09-03T10:26:28Z</time>
      </trkpt>
      <trkpt lat="49.33489" lon="0.32041">
        <ele>109.2</ele>
        <time>2023-09-03T10:26:29Z</time>
      </trkpt>
      <trkpt lat="49.33486" lon="0.32037">
        <ele>109.4</ele>
        <time>2023-09-03T10:26:30Z</time>
      </trkpt>
      <trkpt lat="49.33482" lon="0.32033">
        <ele>109.6</ele>
        <time>2023-09-03T10:26:31Z</time>
      </trkpt>
      <trkpt lat="49.33479" lon="0.3203">
        <ele>109.8</ele>
        <time>2023-09-03T10:26:32Z</time>
      </trkpt>
      <trkpt lat="49.33475" lon="0.32027">
        <ele>110</ele>
        <time>2023-09-03T10:26:33Z</time>
      </trkpt>
      <trkpt lat="49.33472" lon="0.32022">
        <ele>110.3</ele>
        <time>2023-09-03T10:26:34Z</time>
      </trkpt>
      <trkpt lat="49.33469" lon="0.32018">
        <ele>110.5</ele>
        <time>2023-09-03T10:26:35Z</time>
      </trkpt>
      <trkpt lat="49.33465" lon="0.32013">
        <ele>110.8</ele>
        <time>2023-09-03T10:26:36Z</time>
      </trkpt>
      <trkpt lat="49.33462" lon="0.32008">
        <ele>111</ele>
        <time>2023-09-03T10:26:37Z</time>
      </trkpt>
      <trkpt lat="49.33459" lon="0.32004">
        <ele>111.2</ele>
        <time>2023-09-03T10:26:38Z</time>
      </trkpt>
      <trkpt lat="49.33456" lon="0.32">
        <ele>111.4</ele>
        <time>2023-09-03T10:26:39Z</time>
      </trkpt>
      <trkpt lat="49.33452" lon="0.31995">
        <ele>111.7</ele>
        <time>2023-09-03T10:26:40Z</time>
      </trkpt>
      <trkpt lat="49.33449" lon="0.3199">
        <ele>111.9</ele>
        <time>2023-09-03T10:26:41Z</time>
      </trkpt>
      <trkpt lat="49.33446" lon="0.31986">
        <ele>112.1</ele>
        <time>2023-09-03T10:26:42Z</time>
      </trkpt>
      <trkpt lat="49.33443" lon="0.31982">
        <ele>112.4</ele>
        <time>2023-09-03T10:26:43Z</time>
      </trkpt>
      <trkpt lat="49.3344" lon="0.31977">
        <ele>112.6</ele>
        <time>2023-09-03T10:26:44Z</time>
      </trkpt>
      <trkpt lat="49.33437" lon="0.31973">
        <ele>112.8</ele>
        <time>2023-09-03T10:26:45Z</time>
      </trkpt>
      <trkpt lat="49.33434" lon="0.31969">
        <ele>113</ele>
        <time>2023-09-03T10:26:46Z</time>
      </trkpt>
      <trkpt lat="49.33431" lon="0.31964">
        <ele>113.2</ele>
        <time>2023-09-03T10:26:47Z</time>
      </trkpt>
      <trkpt lat="49.33428" lon="0.3196">
        <ele>113.5</ele>
        <time>2023-09-03T10:26:48Z</time>
      </trkpt>
      <trkpt lat="49.33425" lon="0.31955">
        <ele>113.7</ele>
        <time>2023-09-03T10:26:49Z</time>
      </trkpt>
      <trkpt lat="49.33422" lon="0.31951">
        <ele>113.9</ele>
        <time>2023-09-03T10:26:50Z</time>
      </trkpt>
      <trkpt lat="49.33419" lon="0.31946">
        <ele>114.1</ele>
        <time>2023-09-03T10:26:51Z</time>
      </trkpt>
      <trkpt lat="49.33415" lon="0.31942">
        <ele>114.4</ele>
        <time>2023-09-03T10:26:52Z</time>
      </trkpt>
      <trkpt lat="49.33412" lon="0.31938">
        <ele>114.6</ele>
        <time>2023-09-03T10:26:53Z</time>
      </trkpt>
      <trkpt lat="49.33409" lon="0.31933">
        <ele>114.8</ele>
        <time>2023-09-03T10:26:54Z</time>
      </trkpt>
      <trkpt lat="49.33406" lon="0.31929">
        <ele>115</ele>
        <time>2023-09-03T10:26:55Z</time>
      </trkpt>
      <trkpt lat="49.33404" lon="0.31924">
        <ele>115.2</ele>
        <time>2023-09-03T10:26:56Z</time>
      </trkpt>
      <trkpt lat="49.33401" lon="0.31919">
        <ele>115.5</ele>
        <time>2023-09-03T10:26:57Z</time>
      </trkpt>
      <trkpt lat="49.33397" lon="0.31915">
        <ele>115.7</ele>
        <time>2023-09-03T10:26:58Z</time>
      </trkpt>
      <trkpt lat="49.33394" lon="0.3191">
        <ele>116</ele>
        <time>2023-09-03T10:26:59Z</time>
      </trkpt>
      <trkpt lat="49.3339" lon="0.31906">
        <ele>116.2</ele>
        <time>2023-09-03T10:27:00Z</time>
      </trkpt>
      <trkpt lat="49.33387" lon="0.31902">
        <ele>116.4</ele>
        <time>2023-09-03T10:27:01Z</time>
      </trkpt>
      <trkpt lat="49.33385" lon="0.31897">
        <ele>116.6</ele>
        <time>2023-09-03T10:27:02Z</time>
      </trkpt>
      <trkpt lat="49.33382" lon="0.31892">
        <ele>116.9</ele>
        <time>2023-09-03T10:27:03Z</time>
      </trkpt>
      <trkpt lat="49.33379" lon="0.31888">
        <ele>117.1</ele>
        <time>2023-09-03T10:27:04Z</time>
      </trkpt>
      <trkpt lat="49.33375" lon="0.31883">
        <ele>117.3</ele>
        <time>2023-09-03T10:27:05Z</time>
      </trkpt>
      <trkpt lat="49.33372" lon="0.31879">
        <ele>117.5</ele>
        <time>2023-09-03T10:27:06Z</time>
      </trkpt>
      <trkpt lat="49.33369" lon="0.31875">
        <ele>117.8</ele>
        <time>2023-09-03T10:27:07Z</time>
      </trkpt>
      <trkpt lat="49.33366" lon="0.3187">
        <ele>118</ele>
        <time>2023-09-03T10:27:08Z</time>
      </trkpt>
      <trkpt lat="49.33363" lon="0.31866">
        <ele>118.2</ele>
        <time>2023-09-03T10:27:09Z</time>
      </trkpt>
      <trkpt lat="49.33359" lon="0.31862">
        <ele>118.4</ele>
        <time>2023-09-03T10:27:10Z</time>
      </trkpt>
      <trkpt lat="49.33356" lon="0.31857">
        <ele>118.7</ele>
        <time>2023-09-03T10:27:11Z</time>
      </trkpt>
      <trkpt lat="49.33353" lon="0.31852">
        <ele>118.9</ele>
        <time>2023-09-03T10:27:12Z</time>
      </trkpt>
      <trkpt lat="49.3335" lon="0.31848">
        <ele>119.1</ele>
        <time>2023-09-03T10:27:13Z</time>
      </trkpt>
      <trkpt lat="49.33346" lon="0.31844">
        <ele>119.3</ele>
        <time>2023-09-03T10:27:14Z</time>
      </trkpt>
      <trkpt lat="49.33343" lon="0.31839">
        <ele>119.6</ele>
        <time>2023-09-03T10:27:15Z</time>
      </trkpt>
      <trkpt lat="49.3334" lon="0.31835">
        <ele>119.8</ele>
        <time>2023-09-03T10:27:16Z</time>
      </trkpt>
      <trkpt lat="49.33336" lon="0.3183">
        <ele>120</ele>
        <time>2023-09-03T10:27:17Z</time>
      </trkpt>
      <trkpt lat="49.33333" lon="0.31826">
        <ele>120.2</ele>
        <time>2023-09-03T10:27:18Z</time>
      </trkpt>
      <trkpt lat="49.33329" lon="0.3182">
        <ele>120.5</ele>
        <time>2023-09-03T10:27:19Z</time>
      </trkpt>
      <trkpt lat="49.33325" lon="0.31816">
        <ele>120.7</ele>
        <time>2023-09-03T10:27:20Z</time>
      </trkpt>
      <trkpt lat="49.33322" lon="0.31811">
        <ele>120.9</ele>
        <time>2023-09-03T10:27:21Z</time>
      </trkpt>
      <trkpt lat="49.33319" lon="0.31806">
        <ele>121.1</ele>
        <time>2023-09-03T10:27:22Z</time>
      </trkpt>
      <trkpt lat="49.33316" lon="0.31801">
        <ele>121.2</ele>
        <time>2023-09-03T10:27:23Z</time>
      </trkpt>
      <trkpt lat="49.33312" lon="0.31796">
        <ele>121.3</ele>
        <time>2023-09-03T10:27:24Z</time>
      </trkpt>
      <trkpt lat="49.33309" lon="0.31791">
        <ele>121.5</ele>
        <time>2023-09-03T10:27:25Z</time>
      </trkpt>
      <trkpt lat="49.33305" lon="0.31786">
        <ele>121.6</ele>
        <time>2023-09-03T10:27:26Z</time>
      </trkpt>
      <trkpt lat="49.33302" lon="0.31781">
        <ele>121.7</ele>
        <time>2023-09-03T10:27:27Z</time>
      </trkpt>
      <trkpt lat="49.33299" lon="0.31775">
        <ele>121.9</ele>
        <time>2023-09-03T10:27:28Z</time>
      </trkpt>
      <trkpt lat="49.33297" lon="0.3177">
        <ele>122.1</ele>
        <time>2023-09-03T10:27:29Z</time>
      </trkpt>
      <trkpt lat="49.33294" lon="0.31764">
        <ele>122.3</ele>
        <time>2023-09-03T10:27:30Z</time>
      </trkpt>
      <trkpt lat="49.33291" lon="0.31759">
        <ele>122.5</ele>
        <time>2023-09-03T10:27:31Z</time>
      </trkpt>
      <trkpt lat="49.33287" lon="0.31754">
        <ele>122.7</ele>
        <time>2023-09-03T10:27:32Z</time>
      </trkpt>
      <trkpt lat="49.33284" lon="0.31748">
        <ele>122.8</ele>
        <time>2023-09-03T10:27:33Z</time>
      </trkpt>
      <trkpt lat="49.33281" lon="0.31743">
        <ele>123</ele>
        <time>2023-09-03T10:27:34Z</time>
      </trkpt>
      <trkpt lat="49.33278" lon="0.31737">
        <ele>123.1</ele>
        <time>2023-09-03T10:27:35Z</time>
      </trkpt>
      <trkpt lat="49.33276" lon="0.31731">
        <ele>123.3</ele>
        <time>2023-09-03T10:27:36Z</time>
      </trkpt>
      <trkpt lat="49.33273" lon="0.31725">
        <ele>123.5</ele>
        <time>2023-09-03T10:27:37Z</time>
      </trkpt>
      <trkpt lat="49.33271" lon="0.3172">
        <ele>123.6</ele>
        <time>2023-09-03T10:27:38Z</time>
      </trkpt>
      <trkpt lat="49.33268" lon="0.31713">
        <ele>123.8</ele>
        <time>2023-09-03T10:27:39Z</time>
      </trkpt>
      <trkpt lat="49.33266" lon="0.31707">
        <ele>123.9</ele>
        <time>2023-09-03T10:27:40Z</time>
      </trkpt>
      <trkpt lat="49.33263" lon="0.31701">
        <ele>124.1</ele>
        <time>2023-09-03T10:27:41Z</time>
      </trkpt>
      <trkpt lat="49.3326" lon="0.31694">
        <ele>124.2</ele>
        <time>2023-09-03T10:27:42Z</time>
      </trkpt>
      <trkpt lat="49.33258" lon="0.31688">
        <ele>124.4</ele>
        <time>2023-09-03T10:27:43Z</time>
      </trkpt>
      <trkpt lat="49.33256" lon="0.31681">
        <ele>124.5</ele>
        <time>2023-09-03T10:27:44Z</time>
      </trkpt>
      <trkpt lat="49.33253" lon="0.31674">
        <ele>124.6</ele>
        <time>2023-09-03T10:27:45Z</time>
      </trkpt>
      <trkpt lat="49.33251" lon="0.31668">
        <ele>124.8</ele>
        <time>2023-09-03T10:27:46Z</time>
      </trkpt>
      <trkpt lat="49.33249" lon="0.31661">
        <ele>124.9</ele>
        <time>2023-09-03T10:27:47Z</time>
      </trkpt>
      <trkpt lat="49.33247" lon="0.31654">
        <ele>125.1</ele>
        <time>2023-09-03T10:27:48Z</time>
      </trkpt>
      <trkpt lat="49.33245" lon="0.31648">
        <ele>125.3</ele>
        <time>2023-09-03T10:27:49Z</time>
      </trkpt>
      <trkpt lat="49.33243" lon="0.31641">
        <ele>125.4</ele>
        <time>2023-09-03T10:27:50Z</time>
      </trkpt>
      <trkpt lat="49.33241" lon="0.31634">
        <ele>125.6</ele>
        <time>2023-09-03T10:27:51Z</time>
      </trkpt>
      <trkpt lat="49.33239" lon="0.31627">
        <ele>125.7</ele>
        <time>2023-09-03T10:27:52Z</time>
      </trkpt>
      <trkpt lat="49.33237" lon="0.3162">
        <ele>125.9</ele>
        <time>2023-09-03T10:27:53Z</time>
      </trkpt>
      <trkpt lat="49.33236" lon="0.31614">
        <ele>126</ele>
        <time>2023-09-03T10:27:54Z</time>
      </trkpt>
      <trkpt lat="49.33234" lon="0.31607">
        <ele>126.2</ele>
        <time>2023-09-03T10:27:55Z</time>
      </trkpt>
      <trkpt lat="49.33232" lon="0.316">
        <ele>126.4</ele>
        <time>2023-09-03T10:27:56Z</time>
      </trkpt>
      <trkpt lat="49.3323" lon="0.31594">
        <ele>126.5</ele>
        <time>2023-09-03T10:27:57Z</time>
      </trkpt>
      <trkpt lat="49.33228" lon="0.31586">
        <ele>126.7</ele>
        <time>2023-09-03T10:27:58Z</time>
      </trkpt>
      <trkpt lat="49.33226" lon="0.31579">
        <ele>126.8</ele>
        <time>2023-09-03T10:27:59Z</time>
      </trkpt>
      <trkpt lat="49.33224" lon="0.31572">
        <ele>127</ele>
        <time>2023-09-03T10:28:00Z</time>
      </trkpt>
      <trkpt lat="49.33222" lon="0.31564">
        <ele>127.1</ele>
        <time>2023-09-03T10:28:01Z</time>
      </trkpt>
      <trkpt lat="49.33219" lon="0.31556">
        <ele>127.3</ele>
        <time>2023-09-03T10:28:02Z</time>
      </trkpt>
      <trkpt lat="49.33217" lon="0.31548">
        <ele>127.4</ele>
        <time>2023-09-03T10:28:03Z</time>
      </trkpt>
      <trkpt lat="49.33215" lon="0.3154">
        <ele>127.6</ele>
        <time>2023-09-03T10:28:04Z</time>
      </trkpt>
      <trkpt lat="49.33212" lon="0.31531">
        <ele>127.8</ele>
        <time>2023-09-03T10:28:05Z</time>
      </trkpt>
      <trkpt lat="49.33209" lon="0.31521">
        <ele>128</ele>
        <time>2023-09-03T10:28:06Z</time>
      </trkpt>
      <trkpt lat="49.33207" lon="0.31513">
        <ele>128.1</ele>
        <time>2023-09-03T10:28:07Z</time>
      </trkpt>
      <trkpt lat="49.33204" lon="0.31504">
        <ele>128.3</ele>
        <time>2023-09-03T10:28:08Z</time>
      </trkpt>
      <trkpt lat="49.33201" lon="0.31495">
        <ele>128.5</ele>
        <time>2023-09-03T10:28:09Z</time>
      </trkpt>
      <trkpt lat="49.33198" lon="0.31486">
        <ele>128.7</ele>
        <time>2023-09-03T10:28:10Z</time>
      </trkpt>
      <trkpt lat="49.33196" lon="0.31477">
        <ele>128.9</ele>
        <time>2023-09-03T10:28:11Z</time>
      </trkpt>
      <trkpt lat="49.33193" lon="0.31468">
        <ele>129.1</ele>
        <time>2023-09-03T10:28:12Z</time>
      </trkpt>
      <trkpt lat="49.33191" lon="0.31459">
        <ele>129.3</ele>
        <time>2023-09-03T10:28:13Z</time>
      </trkpt>
      <trkpt lat="49.33188" lon="0.3145">
        <ele>129.5</ele>
        <time>2023-09-03T10:28:14Z</time>
      </trkpt>
      <trkpt lat="49.33186" lon="0.31441">
        <ele>129.7</ele>
        <time>2023-09-03T10:28:15Z</time>
      </trkpt>
      <trkpt lat="49.33183" lon="0.31432">
        <ele>129.9</ele>
        <time>2023-09-03T10:28:16Z</time>
      </trkpt>
      <trkpt lat="49.33181" lon="0.31423">
        <ele>130</ele>
        <time>2023-09-03T10:28:17Z</time>
      </trkpt>
      <trkpt lat="49.33178" lon="0.31413">
        <ele>130.2</ele>
        <time>2023-09-03T10:28:18Z</time>
      </trkpt>
      <trkpt lat="49.33176" lon="0.31403">
        <ele>130.4</ele>
        <time>2023-09-03T10:28:19Z</time>
      </trkpt>
      <trkpt lat="49.33173" lon="0.31394">
        <ele>130.6</ele>
        <time>2023-09-03T10:28:20Z</time>
      </trkpt>
      <trkpt lat="49.33171" lon="0.31384">
        <ele>130.8</ele>
        <time>2023-09-03T10:28:21Z</time>
      </trkpt>
      <trkpt lat="49.33169" lon="0.31374">
        <ele>130.9</ele>
        <time>2023-09-03T10:28:22Z</time>
      </trkpt>
      <trkpt lat="49.33168" lon="0.31364">
        <ele>131.1</ele>
        <time>2023-09-03T10:28:23Z</time>
      </trkpt>
      <trkpt lat="49.33166" lon="0.31355">
        <ele>131.1</ele>
        <time>2023-09-03T10:28:24Z</time>
      </trkpt>
      <trkpt lat="49.33165" lon="0.31346">
        <ele>131.2</ele>
        <time>2023-09-03T10:28:25Z</time>
      </trkpt>
      <trkpt lat="49.33164" lon="0.31337">
        <ele>131.3</ele>
        <time>2023-09-03T10:28:26Z</time>
      </trkpt>
      <trkpt lat="49.33164" lon="0.31328">
        <ele>131.3</ele>
        <time>2023-09-03T10:28:27Z</time>
      </trkpt>
      <trkpt lat="49.33165" lon="0.3132">
        <ele>131.4</ele>
        <time>2023-09-03T10:28:28Z</time>
      </trkpt>
      <trkpt lat="49.33165" lon="0.31311">
        <ele>131.5</ele>
        <time>2023-09-03T10:28:29Z</time>
      </trkpt>
      <trkpt lat="49.33166" lon="0.31303">
        <ele>131.5</ele>
        <time>2023-09-03T10:28:30Z</time>
      </trkpt>
      <trkpt lat="49.33165" lon="0.31294">
        <ele>131.6</ele>
        <time>2023-09-03T10:28:31Z</time>
      </trkpt>
      <trkpt lat="49.33163" lon="0.31286">
        <ele>131.6</ele>
        <time>2023-09-03T10:28:32Z</time>
      </trkpt>
      <trkpt lat="49.33159" lon="0.3128">
        <ele>131.6</ele>
        <time>2023-09-03T10:28:33Z</time>
      </trkpt>
      <trkpt lat="49.33154" lon="0.31275">
        <ele>131.7</ele>
        <time>2023-09-03T10:28:34Z</time>
      </trkpt>
      <trkpt lat="49.33148" lon="0.31273">
        <ele>131.7</ele>
        <time>2023-09-03T10:28:35Z</time>
      </trkpt>
      <trkpt lat="49.33142" lon="0.31273">
        <ele>131.7</ele>
        <time>2023-09-03T10:28:36Z</time>
      </trkpt>
      <trkpt lat="49.33137" lon="0.31275">
        <ele>131.5</ele>
        <time>2023-09-03T10:28:37Z</time>
      </trkpt>
      <trkpt lat="49.33132" lon="0.3128">
        <ele>131.1</ele>
        <time>2023-09-03T10:28:38Z</time>
      </trkpt>
      <trkpt lat="49.33128" lon="0.31288">
        <ele>131.1</ele>
        <time>2023-09-03T10:28:39Z</time>
      </trkpt>
      <trkpt lat="49.33127" lon="0.31296">
        <ele>131.2</ele>
        <time>2023-09-03T10:28:40Z</time>
      </trkpt>
      <trkpt lat="49.33126" lon="0.31304">
        <ele>131.2</ele>
        <time>2023-09-03T10:28:41Z</time>
      </trkpt>
      <trkpt lat="49.33127" lon="0.31312">
        <ele>131.3</ele>
        <time>2023-09-03T10:28:42Z</time>
      </trkpt>
      <trkpt lat="49.3313" lon="0.31319">
        <ele>131.3</ele>
        <time>2023-09-03T10:28:43Z</time>
      </trkpt>
      <trkpt lat="49.33133" lon="0.31324">
        <ele>131.3</ele>
        <time>2023-09-03T10:28:44Z</time>
      </trkpt>
      <trkpt lat="49.33138" lon="0.31328">
        <ele>131.4</ele>
        <time>2023-09-03T10:28:45Z</time>
      </trkpt>
      <trkpt lat="49.33143" lon="0.3133">
        <ele>131.4</ele>
        <time>2023-09-03T10:28:46Z</time>
      </trkpt>
      <trkpt lat="49.33149" lon="0.31331">
        <ele>131.4</ele>
        <time>2023-09-03T10:28:47Z</time>
      </trkpt>
      <trkpt lat="49.33154" lon="0.3133">
        <ele>131.4</ele>
        <time>2023-09-03T10:28:48Z</time>
      </trkpt>
      <trkpt lat="49.33159" lon="0.31326">
        <ele>131.4</ele>
        <time>2023-09-03T10:28:49Z</time>
      </trkpt>
      <trkpt lat="49.33162" lon="0.3132">
        <ele>131.4</ele>
        <time>2023-09-03T10:28:50Z</time>
      </trkpt>
      <trkpt lat="49.33165" lon="0.31311">
        <ele>131.5</ele>
        <time>2023-09-03T10:28:51Z</time>
      </trkpt>
      <trkpt lat="49.33166" lon="0.31302">
        <ele>131.5</ele>
        <time>2023-09-03T10:28:52Z</time>
      </trkpt>
      <trkpt lat="49.33165" lon="0.31293">
        <ele>131.6</ele>
        <time>2023-09-03T10:28:53Z</time>
      </trkpt>
      <trkpt lat="49.33162" lon="0.31284">
        <ele>131.6</ele>
        <time>2023-09-03T10:28:54Z</time>
      </trkpt>
      <trkpt lat="49.33157" lon="0.31278">
        <ele>131.7</ele>
        <time>2023-09-03T10:28:55Z</time>
      </trkpt>
      <trkpt lat="49.33151" lon="0.31274">
        <ele>131.7</ele>
        <time>2023-09-03T10:28:56Z</time>
      </trkpt>
      <trkpt lat="49.33145" lon="0.31273">
        <ele>131.7</ele>
        <time>2023-09-03T10:28:57Z</time>
      </trkpt>
      <trkpt lat="49.33139" lon="0.31274">
        <ele>131.6</ele>
        <time>2023-09-03T10:28:58Z</time>
      </trkpt>
      <trkpt lat="49.33134" lon="0.31278">
        <ele>131.1</ele>
        <time>2023-09-03T10:28:59Z</time>
      </trkpt>
      <trkpt lat="49.3313" lon="0.31285">
        <ele>131.1</ele>
        <time>2023-09-03T10:29:00Z</time>
      </trkpt>
      <trkpt lat="49.33128" lon="0.31293">
        <ele>131.2</ele>
        <time>2023-09-03T10:29:01Z</time>
      </trkpt>
      <trkpt lat="49.33127" lon="0.31302">
        <ele>131.2</ele>
        <time>2023-09-03T10:29:02Z</time>
      </trkpt>
      <trkpt lat="49.33127" lon="0.31311">
        <ele>131.3</ele>
        <time>2023-09-03T10:29:03Z</time>
      </trkpt>
      <trkpt lat="49.3313" lon="0.31318">
        <ele>131.3</ele>
        <time>2023-09-03T10:29:04Z</time>
      </trkpt>
      <trkpt lat="49.33133" lon="0.31324">
        <ele>131.3</ele>
        <time>2023-09-03T10:29:05Z</time>
      </trkpt>
      <trkpt lat="49.33136" lon="0.31328">
        <ele>131.4</ele>
        <time>2023-09-03T10:29:06Z</time>
      </trkpt>
      <trkpt lat="49.33141" lon="0.31331">
        <ele>131.4</ele>
        <time>2023-09-03T10:29:07Z</time>
      </trkpt>
      <trkpt lat="49.33145" lon="0.31332">
        <ele>131.4</ele>
        <time>2023-09-03T10:29:08Z</time>
      </trkpt>
      <trkpt lat="49.33149" lon="0.31331">
        <ele>131.4</ele>
        <time>2023-09-03T10:29:09Z</time>
      </trkpt>
      <trkpt lat="49.33153" lon="0.31329">
        <ele>131.4</ele>
        <time>2023-09-03T10:29:10Z</time>
      </trkpt>
      <trkpt lat="49.33157" lon="0.31326">
        <ele>131.4</ele>
        <time>2023-09-03T10:29:11Z</time>
      </trkpt>
      <trkpt lat="49.33161" lon="0.31321">
        <ele>131.4</ele>
        <time>2023-09-03T10:29:12Z</time>
      </trkpt>
      <trkpt lat="49.33163" lon="0.31315">
        <ele>131.4</ele>
        <time>2023-09-03T10:29:13Z</time>
      </trkpt>
      <trkpt lat="49.33165" lon="0.31307">
        <ele>131.5</ele>
        <time>2023-09-03T10:29:14Z</time>
      </trkpt>
      <trkpt lat="49.33165" lon="0.31298">
        <ele>131.6</ele>
        <time>2023-09-03T10:29:15Z</time>
      </trkpt>
      <trkpt lat="49.33164" lon="0.31289">
        <ele>131.6</ele>
        <time>2023-09-03T10:29:16Z</time>
      </trkpt>
      <trkpt lat="49.33161" lon="0.31281">
        <ele>131.6</ele>
        <time>2023-09-03T10:29:17Z</time>
      </trkpt>
      <trkpt lat="49.33156" lon="0.31274">
        <ele>131.7</ele>
        <time>2023-09-03T10:29:18Z</time>
      </trkpt>
      <trkpt lat="49.33151" lon="0.31268">
        <ele>131.7</ele>
        <time>2023-09-03T10:29:19Z</time>
      </trkpt>
      <trkpt lat="49.33146" lon="0.31261">
        <ele>131.7</ele>
        <time>2023-09-03T10:29:20Z</time>
      </trkpt>
      <trkpt lat="49.33141" lon="0.31255">
        <ele>131.6</ele>
        <time>2023-09-03T10:29:21Z</time>
      </trkpt>
      <trkpt lat="49.33136" lon="0.31247">
        <ele>131.5</ele>
        <time>2023-09-03T10:29:22Z</time>
      </trkpt>
      <trkpt lat="49.33133" lon="0.31239">
        <ele>131.4</ele>
        <time>2023-09-03T10:29:23Z</time>
      </trkpt>
      <trkpt lat="49.33129" lon="0.3123">
        <ele>131.3</ele>
        <time>2023-09-03T10:29:24Z</time>
      </trkpt>
      <trkpt lat="49.33127" lon="0.31221">
        <ele>131.2</ele>
        <time>2023-09-03T10:29:25Z</time>
      </trkpt>
      <trkpt lat="49.33124" lon="0.31213">
        <ele>131.1</ele>
        <time>2023-09-03T10:29:26Z</time>
      </trkpt>
      <trkpt lat="49.33121" lon="0.31203">
        <ele>131</ele>
        <time>2023-09-03T10:29:27Z</time>
      </trkpt>
      <trkpt lat="49.33119" lon="0.31194">
        <ele>130.9</ele>
        <time>2023-09-03T10:29:28Z</time>
      </trkpt>
      <trkpt lat="49.33116" lon="0.31185">
        <ele>130.9</ele>
        <time>2023-09-03T10:29:29Z</time>
      </trkpt>
      <trkpt lat="49.33113" lon="0.31176">
        <ele>130.8</ele>
        <time>2023-09-03T10:29:30Z</time>
      </trkpt>
      <trkpt lat="49.3311" lon="0.31167">
        <ele>130.7</ele>
        <time>2023-09-03T10:29:31Z</time>
      </trkpt>
      <trkpt lat="49.33108" lon="0.31159">
        <ele>130.7</ele>
        <time>2023-09-03T10:29:32Z</time>
      </trkpt>
      <trkpt lat="49.33106" lon="0.3115">
        <ele>130.6</ele>
        <time>2023-09-03T10:29:33Z</time>
      </trkpt>
      <trkpt lat="49.33104" lon="0.31142">
        <ele>130.6</ele>
        <time>2023-09-03T10:29:34Z</time>
      </trkpt>
      <trkpt lat="49.33102" lon="0.31134">
        <ele>130.5</ele>
        <time>2023-09-03T10:29:35Z</time>
      </trkpt>
      <trkpt lat="49.331" lon="0.31125">
        <ele>130.4</ele>
        <time>2023-09-03T10:29:36Z</time>
      </trkpt>
      <trkpt lat="49.33098" lon="0.31117">
        <ele>130.4</ele>
        <time>2023-09-03T10:29:37Z</time>
      </trkpt>
      <trkpt lat="49.33096" lon="0.3111">
        <ele>130.3</ele>
        <time>2023-09-03T10:29:38Z</time>
      </trkpt>
      <trkpt lat="49.33094" lon="0.31104">
        <ele>130.2</ele>
        <time>2023-09-03T10:29:39Z</time>
      </trkpt>
      <trkpt lat="49.33092" lon="0.31097">
        <ele>130.2</ele>
        <time>2023-09-03T10:29:40Z</time>
      </trkpt>
      <trkpt lat="49.3309" lon="0.31089">
        <ele>130.1</ele>
        <time>2023-09-03T10:29:41Z</time>
      </trkpt>
      <trkpt lat="49.33088" lon="0.31082">
        <ele>130.1</ele>
        <time>2023-09-03T10:29:42Z</time>
      </trkpt>
      <trkpt lat="49.33086" lon="0.31074">
        <ele>130</ele>
        <time>2023-09-03T10:29:43Z</time>
      </trkpt>
      <trkpt lat="49.33084" lon="0.31067">
        <ele>129.9</ele>
        <time>2023-09-03T10:29:44Z</time>
      </trkpt>
      <trkpt lat="49.33082" lon="0.31059">
        <ele>129.9</ele>
        <time>2023-09-03T10:29:45Z</time>
      </trkpt>
      <trkpt lat="49.3308" lon="0.31052">
        <ele>129.8</ele>
        <time>2023-09-03T10:29:46Z</time>
      </trkpt>
      <trkpt lat="49.33078" lon="0.31045">
        <ele>129.8</ele>
        <time>2023-09-03T10:29:47Z</time>
      </trkpt>
      <trkpt lat="49.33076" lon="0.31037">
        <ele>129.7</ele>
        <time>2023-09-03T10:29:48Z</time>
      </trkpt>
      <trkpt lat="49.33074" lon="0.3103">
        <ele>129.7</ele>
        <time>2023-09-03T10:29:49Z</time>
      </trkpt>
      <trkpt lat="49.33071" lon="0.31022">
        <ele>129.6</ele>
        <time>2023-09-03T10:29:50Z</time>
      </trkpt>
      <trkpt lat="49.33069" lon="0.31014">
        <ele>129.5</ele>
        <time>2023-09-03T10:29:51Z</time>
      </trkpt>
      <trkpt lat="49.33067" lon="0.31007">
        <ele>129.5</ele>
        <time>2023-09-03T10:29:52Z</time>
      </trkpt>
      <trkpt lat="49.33064" lon="0.30999">
        <ele>129.4</ele>
        <time>2023-09-03T10:29:53Z</time>
      </trkpt>
      <trkpt lat="49.33062" lon="0.30992">
        <ele>129.3</ele>
        <time>2023-09-03T10:29:54Z</time>
      </trkpt>
      <trkpt lat="49.3306" lon="0.30983">
        <ele>129.3</ele>
        <time>2023-09-03T10:29:55Z</time>
      </trkpt>
      <trkpt lat="49.33057" lon="0.30975">
        <ele>129.2</ele>
        <time>2023-09-03T10:29:56Z</time>
      </trkpt>
      <trkpt lat="49.33055" lon="0.30967">
        <ele>129.1</ele>
        <time>2023-09-03T10:29:57Z</time>
      </trkpt>
      <trkpt lat="49.33053" lon="0.30958">
        <ele>129</ele>
        <time>2023-09-03T10:29:58Z</time>
      </trkpt>
      <trkpt lat="49.33051" lon="0.30949">
        <ele>128.8</ele>
        <time>2023-09-03T10:29:59Z</time>
      </trkpt>
      <trkpt lat="49.33049" lon="0.30941">
        <ele>128.7</ele>
        <time>2023-09-03T10:30:00Z</time>
      </trkpt>
      <trkpt lat="49.33046" lon="0.30933">
        <ele>128.6</ele>
        <time>2023-09-03T10:30:01Z</time>
      </trkpt>
      <trkpt lat="49.33044" lon="0.30924">
        <ele>128.5</ele>
        <time>2023-09-03T10:30:02Z</time>
      </trkpt>
      <trkpt lat="49.33042" lon="0.30916">
        <ele>128.4</ele>
        <time>2023-09-03T10:30:03Z</time>
      </trkpt>
      <trkpt lat="49.3304" lon="0.30908">
        <ele>128.3</ele>
        <time>2023-09-03T10:30:04Z</time>
      </trkpt>
      <trkpt lat="49.33037" lon="0.30899">
        <ele>128.2</ele>
        <time>2023-09-03T10:30:05Z</time>
      </trkpt>
      <trkpt lat="49.33035" lon="0.30891">
        <ele>128.2</ele>
        <time>2023-09-03T10:30:06Z</time>
      </trkpt>
      <trkpt lat="49.33032" lon="0.30883">
        <ele>128.1</ele>
        <time>2023-09-03T10:30:07Z</time>
      </trkpt>
      <trkpt lat="49.3303" lon="0.30874">
        <ele>128</ele>
        <time>2023-09-03T10:30:08Z</time>
      </trkpt>
      <trkpt lat="49.33028" lon="0.30865">
        <ele>127.9</ele>
        <time>2023-09-03T10:30:09Z</time>
      </trkpt>
      <trkpt lat="49.33025" lon="0.30857">
        <ele>127.9</ele>
        <time>2023-09-03T10:30:10Z</time>
      </trkpt>
      <trkpt lat="49.33022" lon="0.30848">
        <ele>127.8</ele>
        <time>2023-09-03T10:30:11Z</time>
      </trkpt>
      <trkpt lat="49.3302" lon="0.30839">
        <ele>127.7</ele>
        <time>2023-09-03T10:30:12Z</time>
      </trkpt>
      <trkpt lat="49.33017" lon="0.3083">
        <ele>127.7</ele>
        <time>2023-09-03T10:30:13Z</time>
      </trkpt>
      <trkpt lat="49.33015" lon="0.30821">
        <ele>127.7</ele>
        <time>2023-09-03T10:30:14Z</time>
      </trkpt>
      <trkpt lat="49.33013" lon="0.30812">
        <ele>127.7</ele>
        <time>2023-09-03T10:30:15Z</time>
      </trkpt>
      <trkpt lat="49.3301" lon="0.30803">
        <ele>127.8</ele>
        <time>2023-09-03T10:30:16Z</time>
      </trkpt>
      <trkpt lat="49.33008" lon="0.30795">
        <ele>127.8</ele>
        <time>2023-09-03T10:30:17Z</time>
      </trkpt>
      <trkpt lat="49.33005" lon="0.30786">
        <ele>127.9</ele>
        <time>2023-09-03T10:30:18Z</time>
      </trkpt>
      <trkpt lat="49.33003" lon="0.30778">
        <ele>128</ele>
        <time>2023-09-03T10:30:19Z</time>
      </trkpt>
      <trkpt lat="49.33001" lon="0.3077">
        <ele>128.1</ele>
        <time>2023-09-03T10:30:20Z</time>
      </trkpt>
      <trkpt lat="49.32998" lon="0.30762">
        <ele>128.2</ele>
        <time>2023-09-03T10:30:21Z</time>
      </trkpt>
      <trkpt lat="49.32996" lon="0.30754">
        <ele>128.3</ele>
        <time>2023-09-03T10:30:22Z</time>
      </trkpt>
      <trkpt lat="49.32993" lon="0.30746">
        <ele>128.4</ele>
        <time>2023-09-03T10:30:23Z</time>
      </trkpt>
      <trkpt lat="49.32991" lon="0.30738">
        <ele>128.5</ele>
        <time>2023-09-03T10:30:24Z</time>
      </trkpt>
      <trkpt lat="49.32989" lon="0.3073">
        <ele>128.7</ele>
        <time>2023-09-03T10:30:25Z</time>
      </trkpt>
      <trkpt lat="49.32986" lon="0.30722">
        <ele>128.8</ele>
        <time>2023-09-03T10:30:26Z</time>
      </trkpt>
      <trkpt lat="49.32984" lon="0.30713">
        <ele>128.9</ele>
        <time>2023-09-03T10:30:27Z</time>
      </trkpt>
      <trkpt lat="49.32982" lon="0.30705">
        <ele>129.1</ele>
        <time>2023-09-03T10:30:28Z</time>
      </trkpt>
      <trkpt lat="49.3298" lon="0.30697">
        <ele>129.2</ele>
        <time>2023-09-03T10:30:29Z</time>
      </trkpt>
      <trkpt lat="49.32978" lon="0.30689">
        <ele>129.3</ele>
        <time>2023-09-03T10:30:30Z</time>
      </trkpt>
      <trkpt lat="49.32976" lon="0.3068">
        <ele>129.5</ele>
        <time>2023-09-03T10:30:31Z</time>
      </trkpt>
      <trkpt lat="49.32974" lon="0.30672">
        <ele>129.6</ele>
        <time>2023-09-03T10:30:32Z</time>
      </trkpt>
      <trkpt lat="49.32972" lon="0.30664">
        <ele>129.7</ele>
        <time>2023-09-03T10:30:33Z</time>
      </trkpt>
      <trkpt lat="49.32969" lon="0.30656">
        <ele>129.9</ele>
        <time>2023-09-03T10:30:34Z</time>
      </trkpt>
      <trkpt lat="49.32967" lon="0.30648">
        <ele>130</ele>
        <time>2023-09-03T10:30:35Z</time>
      </trkpt>
      <trkpt lat="49.32965" lon="0.3064">
        <ele>130.1</ele>
        <time>2023-09-03T10:30:36Z</time>
      </trkpt>
      <trkpt lat="49.32963" lon="0.30632">
        <ele>130.3</ele>
        <time>2023-09-03T10:30:37Z</time>
      </trkpt>
      <trkpt lat="49.3296" lon="0.30623">
        <ele>130.4</ele>
        <time>2023-09-03T10:30:38Z</time>
      </trkpt>
      <trkpt lat="49.32958" lon="0.30615">
        <ele>130.5</ele>
        <time>2023-09-03T10:30:39Z</time>
      </trkpt>
      <trkpt lat="49.32955" lon="0.30606">
        <ele>130.6</ele>
        <time>2023-09-03T10:30:40Z</time>
      </trkpt>
      <trkpt lat="49.32953" lon="0.30597">
        <ele>130.6</ele>
        <time>2023-09-03T10:30:41Z</time>
      </trkpt>
      <trkpt lat="49.32951" lon="0.30588">
        <ele>130.7</ele>
        <time>2023-09-03T10:30:42Z</time>
      </trkpt>
      <trkpt lat="49.32949" lon="0.3058">
        <ele>130.8</ele>
        <time>2023-09-03T10:30:43Z</time>
      </trkpt>
      <trkpt lat="49.32946" lon="0.30572">
        <ele>130.9</ele>
        <time>2023-09-03T10:30:44Z</time>
      </trkpt>
      <trkpt lat="49.32943" lon="0.30563">
        <ele>131</ele>
        <time>2023-09-03T10:30:45Z</time>
      </trkpt>
      <trkpt lat="49.32941" lon="0.30555">
        <ele>131.1</ele>
        <time>2023-09-03T10:30:46Z</time>
      </trkpt>
      <trkpt lat="49.32938" lon="0.30546">
        <ele>131.2</ele>
        <time>2023-09-03T10:30:47Z</time>
      </trkpt>
      <trkpt lat="49.32936" lon="0.30537">
        <ele>131.2</ele>
        <time>2023-09-03T10:30:48Z</time>
      </trkpt>
      <trkpt lat="49.32933" lon="0.30528">
        <ele>131.3</ele>
        <time>2023-09-03T10:30:49Z</time>
      </trkpt>
      <trkpt lat="49.32931" lon="0.30519">
        <ele>131.4</ele>
        <time>2023-09-03T10:30:50Z</time>
      </trkpt>
      <trkpt lat="49.32928" lon="0.30511">
        <ele>131.4</ele>
        <time>2023-09-03T10:30:51Z</time>
      </trkpt>
      <trkpt lat="49.32926" lon="0.30502">
        <ele>131.5</ele>
        <time>2023-09-03T10:30:52Z</time>
      </trkpt>
      <trkpt lat="49.32923" lon="0.30493">
        <ele>131.5</ele>
        <time>2023-09-03T10:30:53Z</time>
      </trkpt>
      <trkpt lat="49.32921" lon="0.30484">
        <ele>131.5</ele>
        <time>2023-09-03T10:30:54Z</time>
      </trkpt>
      <trkpt lat="49.32918" lon="0.30475">
        <ele>131.5</ele>
        <time>2023-09-03T10:30:55Z</time>
      </trkpt>
      <trkpt lat="49.32916" lon="0.30466">
        <ele>131.5</ele>
        <time>2023-09-03T10:30:56Z</time>
      </trkpt>
      <trkpt lat="49.32913" lon="0.30457">
        <ele>131.6</ele>
        <time>2023-09-03T10:30:57Z</time>
      </trkpt>
      <trkpt lat="49.3291" lon="0.30447">
        <ele>131.6</ele>
        <time>2023-09-03T10:30:58Z</time>
      </trkpt>
      <trkpt lat="49.32907" lon="0.30438">
        <ele>131.6</ele>
        <time>2023-09-03T10:30:59Z</time>
      </trkpt>
      <trkpt lat="49.32905" lon="0.30428">
        <ele>131.6</ele>
        <time>2023-09-03T10:31:00Z</time>
      </trkpt>
      <trkpt lat="49.32902" lon="0.30418">
        <ele>131.6</ele>
        <time>2023-09-03T10:31:01Z</time>
      </trkpt>
      <trkpt lat="49.32899" lon="0.30408">
        <ele>131.6</ele>
        <time>2023-09-03T10:31:02Z</time>
      </trkpt>
      <trkpt lat="49.32896" lon="0.30397">
        <ele>131.6</ele>
        <time>2023-09-03T10:31:03Z</time>
      </trkpt>
      <trkpt lat="49.32893" lon="0.30386">
        <ele>131.6</ele>
        <time>2023-09-03T10:31:04Z</time>
      </trkpt>
      <trkpt lat="49.3289" lon="0.30375">
        <ele>131.6</ele>
        <time>2023-09-03T10:31:05Z</time>
      </trkpt>
      <trkpt lat="49.32887" lon="0.30365">
        <ele>131.6</ele>
        <time>2023-09-03T10:31:06Z</time>
      </trkpt>
      <trkpt lat="49.32884" lon="0.30354">
        <ele>131.6</ele>
        <time>2023-09-03T10:31:07Z</time>
      </trkpt>
      <trkpt lat="49.32881" lon="0.30344">
        <ele>131.5</ele>
        <time>2023-09-03T10:31:08Z</time>
      </trkpt>
      <trkpt lat="49.32878" lon="0.30333">
        <ele>131.5</ele>
        <time>2023-09-03T10:31:09Z</time>
      </trkpt>
      <trkpt lat="49.32875" lon="0.30322">
        <ele>131.5</ele>
        <time>2023-09-03T10:31:10Z</time>
      </trkpt>
      <trkpt lat="49.32872" lon="0.30311">
        <ele>131.5</ele>
        <time>2023-09-03T10:31:11Z</time>
      </trkpt>
      <trkpt lat="49.32869" lon="0.303">
        <ele>131.5</ele>
        <time>2023-09-03T10:31:12Z</time>
      </trkpt>
      <trkpt lat="49.32866" lon="0.30289">
        <ele>131.5</ele>
        <time>2023-09-03T10:31:13Z</time>
      </trkpt>
      <trkpt lat="49.32862" lon="0.30278">
        <ele>131.4</ele>
        <time>2023-09-03T10:31:14Z</time>
      </trkpt>
      <trkpt lat="49.32859" lon="0.30268">
        <ele>131.4</ele>
        <time>2023-09-03T10:31:15Z</time>
      </trkpt>
      <trkpt lat="49.32856" lon="0.30257">
        <ele>131.4</ele>
        <time>2023-09-03T10:31:16Z</time>
      </trkpt>
      <trkpt lat="49.32853" lon="0.30246">
        <ele>131.3</ele>
        <time>2023-09-03T10:31:17Z</time>
      </trkpt>
      <trkpt lat="49.3285" lon="0.30235">
        <ele>131.3</ele>
        <time>2023-09-03T10:31:18Z</time>
      </trkpt>
      <trkpt lat="49.32847" lon="0.30223">
        <ele>131.3</ele>
        <time>2023-09-03T10:31:19Z</time>
      </trkpt>
      <trkpt lat="49.32845" lon="0.30212">
        <ele>131.3</ele>
        <time>2023-09-03T10:31:20Z</time>
      </trkpt>
      <trkpt lat="49.32842" lon="0.302">
        <ele>131.2</ele>
        <time>2023-09-03T10:31:21Z</time>
      </trkpt>
      <trkpt lat="49.32839" lon="0.30189">
        <ele>131.2</ele>
        <time>2023-09-03T10:31:22Z</time>
      </trkpt>
      <trkpt lat="49.32836" lon="0.30178">
        <ele>131.2</ele>
        <time>2023-09-03T10:31:23Z</time>
      </trkpt>
      <trkpt lat="49.32833" lon="0.30167">
        <ele>131.2</ele>
        <time>2023-09-03T10:31:24Z</time>
      </trkpt>
      <trkpt lat="49.32829" lon="0.30156">
        <ele>131.1</ele>
        <time>2023-09-03T10:31:25Z</time>
      </trkpt>
      <trkpt lat="49.32826" lon="0.30144">
        <ele>131.1</ele>
        <time>2023-09-03T10:31:26Z</time>
      </trkpt>
      <trkpt lat="49.32823" lon="0.30133">
        <ele>131</ele>
        <time>2023-09-03T10:31:27Z</time>
      </trkpt>
      <trkpt lat="49.3282" lon="0.30122">
        <ele>131</ele>
        <time>2023-09-03T10:31:28Z</time>
      </trkpt>
      <trkpt lat="49.32817" lon="0.30111">
        <ele>131</ele>
        <time>2023-09-03T10:31:29Z</time>
      </trkpt>
      <trkpt lat="49.32814" lon="0.301">
        <ele>131</ele>
        <time>2023-09-03T10:31:30Z</time>
      </trkpt>
      <trkpt lat="49.32811" lon="0.3009">
        <ele>131</ele>
        <time>2023-09-03T10:31:31Z</time>
      </trkpt>
      <trkpt lat="49.32807" lon="0.30078">
        <ele>131</ele>
        <time>2023-09-03T10:31:32Z</time>
      </trkpt>
      <trkpt lat="49.32804" lon="0.30067">
        <ele>131</ele>
        <time>2023-09-03T10:31:33Z</time>
      </trkpt>
      <trkpt lat="49.32801" lon="0.30055">
        <ele>131</ele>
        <time>2023-09-03T10:31:34Z</time>
      </trkpt>
      <trkpt lat="49.32798" lon="0.30044">
        <ele>131</ele>
        <time>2023-09-03T10:31:35Z</time>
      </trkpt>
      <trkpt lat="49.32795" lon="0.30033">
        <ele>131</ele>
        <time>2023-09-03T10:31:36Z</time>
      </trkpt>
      <trkpt lat="49.32792" lon="0.30022">
        <ele>131</ele>
        <time>2023-09-03T10:31:37Z</time>
      </trkpt>
      <trkpt lat="49.32789" lon="0.3001">
        <ele>131</ele>
        <time>2023-09-03T10:31:38Z</time>
      </trkpt>
      <trkpt lat="49.32786" lon="0.3">
        <ele>131</ele>
        <time>2023-09-03T10:31:39Z</time>
      </trkpt>
      <trkpt lat="49.32783" lon="0.29988">
        <ele>131</ele>
        <time>2023-09-03T10:31:40Z</time>
      </trkpt>
      <trkpt lat="49.32779" lon="0.29977">
        <ele>131</ele>
        <time>2023-09-03T10:31:41Z</time>
      </trkpt>
      <trkpt lat="49.32776" lon="0.29966">
        <ele>131.1</ele>
        <time>2023-09-03T10:31:42Z</time>
      </trkpt>
      <trkpt lat="49.32773" lon="0.29954">
        <ele>131.1</ele>
        <time>2023-09-03T10:31:43Z</time>
      </trkpt>
      <trkpt lat="49.3277" lon="0.29943">
        <ele>131.1</ele>
        <time>2023-09-03T10:31:44Z</time>
      </trkpt>
      <trkpt lat="49.32766" lon="0.29932">
        <ele>131.2</ele>
        <time>2023-09-03T10:31:45Z</time>
      </trkpt>
      <trkpt lat="49.32763" lon="0.29921">
        <ele>131.3</ele>
        <time>2023-09-03T10:31:46Z</time>
      </trkpt>
      <trkpt lat="49.3276" lon="0.2991">
        <ele>131.3</ele>
        <time>2023-09-03T10:31:47Z</time>
      </trkpt>
      <trkpt lat="49.32757" lon="0.29899">
        <ele>131.4</ele>
        <time>2023-09-03T10:31:48Z</time>
      </trkpt>
      <trkpt lat="49.32754" lon="0.29888">
        <ele>131.5</ele>
        <time>2023-09-03T10:31:49Z</time>
      </trkpt>
      <trkpt lat="49.32751" lon="0.29877">
        <ele>131.7</ele>
        <time>2023-09-03T10:31:50Z</time>
      </trkpt>
      <trkpt lat="49.32748" lon="0.29867">
        <ele>131.8</ele>
        <time>2023-09-03T10:31:51Z</time>
      </trkpt>
      <trkpt lat="49.32745" lon="0.29855">
        <ele>131.9</ele>
        <time>2023-09-03T10:31:52Z</time>
      </trkpt>
      <trkpt lat="49.32743" lon="0.29845">
        <ele>132.1</ele>
        <time>2023-09-03T10:31:53Z</time>
      </trkpt>
      <trkpt lat="49.3274" lon="0.29834">
        <ele>132.2</ele>
        <time>2023-09-03T10:31:54Z</time>
      </trkpt>
      <trkpt lat="49.32737" lon="0.29823">
        <ele>132.3</ele>
        <time>2023-09-03T10:31:55Z</time>
      </trkpt>
      <trkpt lat="49.32735" lon="0.29812">
        <ele>132.5</ele>
        <time>2023-09-03T10:31:56Z</time>
      </trkpt>
      <trkpt lat="49.32732" lon="0.298">
        <ele>132.6</ele>
        <time>2023-09-03T10:31:57Z</time>
      </trkpt>
      <trkpt lat="49.3273" lon="0.29789">
        <ele>132.7</ele>
        <time>2023-09-03T10:31:58Z</time>
      </trkpt>
      <trkpt lat="49.32727" lon="0.29777">
        <ele>132.9</ele>
        <time>2023-09-03T10:31:59Z</time>
      </trkpt>
      <trkpt lat="49.32725" lon="0.29765">
        <ele>133</ele>
        <time>2023-09-03T10:32:00Z</time>
      </trkpt>
      <trkpt lat="49.32722" lon="0.29753">
        <ele>133.2</ele>
        <time>2023-09-03T10:32:01Z</time>
      </trkpt>
      <trkpt lat="49.3272" lon="0.2974">
        <ele>133.3</ele>
        <time>2023-09-03T10:32:02Z</time>
      </trkpt>
      <trkpt lat="49.32718" lon="0.29728">
        <ele>133.4</ele>
        <time>2023-09-03T10:32:03Z</time>
      </trkpt>
      <trkpt lat="49.32716" lon="0.29716">
        <ele>133.6</ele>
        <time>2023-09-03T10:32:04Z</time>
      </trkpt>
      <trkpt lat="49.32714" lon="0.29704">
        <ele>133.7</ele>
        <time>2023-09-03T10:32:05Z</time>
      </trkpt>
      <trkpt lat="49.32713" lon="0.29692">
        <ele>133.9</ele>
        <time>2023-09-03T10:32:06Z</time>
      </trkpt>
      <trkpt lat="49.32712" lon="0.2968">
        <ele>134</ele>
        <time>2023-09-03T10:32:07Z</time>
      </trkpt>
      <trkpt lat="49.3271" lon="0.29669">
        <ele>134.2</ele>
        <time>2023-09-03T10:32:08Z</time>
      </trkpt>
      <trkpt lat="49.32709" lon="0.29657">
        <ele>134.3</ele>
        <time>2023-09-03T10:32:09Z</time>
      </trkpt>
      <trkpt lat="49.32708" lon="0.29646">
        <ele>134.5</ele>
        <time>2023-09-03T10:32:10Z</time>
      </trkpt>
      <trkpt lat="49.32707" lon="0.29635">
        <ele>134.7</ele>
        <time>2023-09-03T10:32:11Z</time>
      </trkpt>
      <trkpt lat="49.32705" lon="0.29625">
        <ele>134.9</ele>
        <time>2023-09-03T10:32:12Z</time>
      </trkpt>
      <trkpt lat="49.32704" lon="0.29614">
        <ele>135</ele>
        <time>2023-09-03T10:32:13Z</time>
      </trkpt>
      <trkpt lat="49.32703" lon="0.29603">
        <ele>135.2</ele>
        <time>2023-09-03T10:32:14Z</time>
      </trkpt>
      <trkpt lat="49.32702" lon="0.29592">
        <ele>135.3</ele>
        <time>2023-09-03T10:32:15Z</time>
      </trkpt>
      <trkpt lat="49.32701" lon="0.29582">
        <ele>135.4</ele>
        <time>2023-09-03T10:32:16Z</time>
      </trkpt>
      <trkpt lat="49.327" lon="0.29571">
        <ele>135.6</ele>
        <time>2023-09-03T10:32:17Z</time>
      </trkpt>
      <trkpt lat="49.32699" lon="0.2956">
        <ele>135.7</ele>
        <time>2023-09-03T10:32:18Z</time>
      </trkpt>
      <trkpt lat="49.32698" lon="0.2955">
        <ele>135.9</ele>
        <time>2023-09-03T10:32:19Z</time>
      </trkpt>
      <trkpt lat="49.32697" lon="0.29539">
        <ele>136.1</ele>
        <time>2023-09-03T10:32:20Z</time>
      </trkpt>
      <trkpt lat="49.32696" lon="0.29529">
        <ele>136.3</ele>
        <time>2023-09-03T10:32:21Z</time>
      </trkpt>
      <trkpt lat="49.32695" lon="0.29518">
        <ele>136.5</ele>
        <time>2023-09-03T10:32:22Z</time>
      </trkpt>
      <trkpt lat="49.32693" lon="0.29508">
        <ele>136.7</ele>
        <time>2023-09-03T10:32:23Z</time>
      </trkpt>
      <trkpt lat="49.32692" lon="0.29498">
        <ele>136.9</ele>
        <time>2023-09-03T10:32:24Z</time>
      </trkpt>
      <trkpt lat="49.3269" lon="0.29488">
        <ele>137.1</ele>
        <time>2023-09-03T10:32:25Z</time>
      </trkpt>
      <trkpt lat="49.32689" lon="0.29479">
        <ele>137.3</ele>
        <time>2023-09-03T10:32:26Z</time>
      </trkpt>
      <trkpt lat="49.32687" lon="0.29469">
        <ele>137.5</ele>
        <time>2023-09-03T10:32:27Z</time>
      </trkpt>
      <trkpt lat="49.32685" lon="0.29459">
        <ele>137.7</ele>
        <time>2023-09-03T10:32:28Z</time>
      </trkpt>
      <trkpt lat="49.32684" lon="0.29449">
        <ele>137.9</ele>
        <time>2023-09-03T10:32:29Z</time>
      </trkpt>
      <trkpt lat="49.32682" lon="0.29439">
        <ele>138.1</ele>
        <time>2023-09-03T10:32:30Z</time>
      </trkpt>
      <trkpt lat="49.3268" lon="0.2943">
        <ele>138.3</ele>
        <time>2023-09-03T10:32:31Z</time>
      </trkpt>
      <trkpt lat="49.32678" lon="0.2942">
        <ele>138.5</ele>
        <time>2023-09-03T10:32:32Z</time>
      </trkpt>
      <trkpt lat="49.32676" lon="0.29411">
        <ele>138.8</ele>
        <time>2023-09-03T10:32:33Z</time>
      </trkpt>
      <trkpt lat="49.32674" lon="0.29403">
        <ele>139</ele>
        <time>2023-09-03T10:32:34Z</time>
      </trkpt>
      <trkpt lat="49.32672" lon="0.29394">
        <ele>139.2</ele>
        <time>2023-09-03T10:32:35Z</time>
      </trkpt>
      <trkpt lat="49.3267" lon="0.29385">
        <ele>139.4</ele>
        <time>2023-09-03T10:32:36Z</time>
      </trkpt>
      <trkpt lat="49.32668" lon="0.29377">
        <ele>139.5</ele>
        <time>2023-09-03T10:32:37Z</time>
      </trkpt>
      <trkpt lat="49.32667" lon="0.29368">
        <ele>139.7</ele>
        <time>2023-09-03T10:32:38Z</time>
      </trkpt>
      <trkpt lat="49.32664" lon="0.29359">
        <ele>139.9</ele>
        <time>2023-09-03T10:32:39Z</time>
      </trkpt>
      <trkpt lat="49.32662" lon="0.29351">
        <ele>140.1</ele>
        <time>2023-09-03T10:32:40Z</time>
      </trkpt>
      <trkpt lat="49.3266" lon="0.29342">
        <ele>140.2</ele>
        <time>2023-09-03T10:32:41Z</time>
      </trkpt>
      <trkpt lat="49.32658" lon="0.29334">
        <ele>140.4</ele>
        <time>2023-09-03T10:32:42Z</time>
      </trkpt>
      <trkpt lat="49.32655" lon="0.29326">
        <ele>140.6</ele>
        <time>2023-09-03T10:32:43Z</time>
      </trkpt>
      <trkpt lat="49.32653" lon="0.29318">
        <ele>140.7</ele>
        <time>2023-09-03T10:32:44Z</time>
      </trkpt>
      <trkpt lat="49.3265" lon="0.2931">
        <ele>140.9</ele>
        <time>2023-09-03T10:32:45Z</time>
      </trkpt>
      <trkpt lat="49.32648" lon="0.29302">
        <ele>141.1</ele>
        <time>2023-09-03T10:32:46Z</time>
      </trkpt>
      <trkpt lat="49.32645" lon="0.29294">
        <ele>141.2</ele>
        <time>2023-09-03T10:32:47Z</time>
      </trkpt>
      <trkpt lat="49.32643" lon="0.29286">
        <ele>141.4</ele>
        <time>2023-09-03T10:32:48Z</time>
      </trkpt>
      <trkpt lat="49.3264" lon="0.29278">
        <ele>141.6</ele>
        <time>2023-09-03T10:32:49Z</time>
      </trkpt>
      <trkpt lat="49.32638" lon="0.2927">
        <ele>141.7</ele>
        <time>2023-09-03T10:32:50Z</time>
      </trkpt>
      <trkpt lat="49.32635" lon="0.29262">
        <ele>141.9</ele>
        <time>2023-09-03T10:32:51Z</time>
      </trkpt>
      <trkpt lat="49.32632" lon="0.29254">
        <ele>142</ele>
        <time>2023-09-03T10:32:52Z</time>
      </trkpt>
      <trkpt lat="49.32629" lon="0.29246">
        <ele>142.2</ele>
        <time>2023-09-03T10:32:53Z</time>
      </trkpt>
      <trkpt lat="49.32626" lon="0.29239">
        <ele>142.3</ele>
        <time>2023-09-03T10:32:54Z</time>
      </trkpt>
      <trkpt lat="49.32624" lon="0.29232">
        <ele>142.4</ele>
        <time>2023-09-03T10:32:55Z</time>
      </trkpt>
      <trkpt lat="49.32621" lon="0.29225">
        <ele>142.5</ele>
        <time>2023-09-03T10:32:56Z</time>
      </trkpt>
      <trkpt lat="49.32618" lon="0.29217">
        <ele>142.6</ele>
        <time>2023-09-03T10:32:57Z</time>
      </trkpt>
      <trkpt lat="49.32615" lon="0.29209">
        <ele>142.6</ele>
        <time>2023-09-03T10:32:58Z</time>
      </trkpt>
      <trkpt lat="49.32612" lon="0.29201">
        <ele>142.7</ele>
        <time>2023-09-03T10:32:59Z</time>
      </trkpt>
      <trkpt lat="49.32609" lon="0.29193">
        <ele>142.7</ele>
        <time>2023-09-03T10:33:00Z</time>
      </trkpt>
      <trkpt lat="49.32605" lon="0.29185">
        <ele>142.8</ele>
        <time>2023-09-03T10:33:01Z</time>
      </trkpt>
      <trkpt lat="49.32602" lon="0.29177">
        <ele>142.9</ele>
        <time>2023-09-03T10:33:02Z</time>
      </trkpt>
      <trkpt lat="49.32599" lon="0.29169">
        <ele>142.9</ele>
        <time>2023-09-03T10:33:03Z</time>
      </trkpt>
      <trkpt lat="49.32595" lon="0.29161">
        <ele>142.9</ele>
        <time>2023-09-03T10:33:04Z</time>
      </trkpt>
      <trkpt lat="49.32592" lon="0.29153">
        <ele>142.9</ele>
        <time>2023-09-03T10:33:05Z</time>
      </trkpt>
      <trkpt lat="49.32588" lon="0.29144">
        <ele>143</ele>
        <time>2023-09-03T10:33:06Z</time>
      </trkpt>
      <trkpt lat="49.32585" lon="0.29136">
        <ele>143</ele>
        <time>2023-09-03T10:33:07Z</time>
      </trkpt>
      <trkpt lat="49.32581" lon="0.29126">
        <ele>143</ele>
        <time>2023-09-03T10:33:08Z</time>
      </trkpt>
      <trkpt lat="49.32577" lon="0.29117">
        <ele>143</ele>
        <time>2023-09-03T10:33:09Z</time>
      </trkpt>
      <trkpt lat="49.32574" lon="0.29108">
        <ele>143</ele>
        <time>2023-09-03T10:33:10Z</time>
      </trkpt>
      <trkpt lat="49.3257" lon="0.29099">
        <ele>142.9</ele>
        <time>2023-09-03T10:33:11Z</time>
      </trkpt>
      <trkpt lat="49.32566" lon="0.2909">
        <ele>142.8</ele>
        <time>2023-09-03T10:33:12Z</time>
      </trkpt>
      <trkpt lat="49.32563" lon="0.29081">
        <ele>142.7</ele>
        <time>2023-09-03T10:33:13Z</time>
      </trkpt>
      <trkpt lat="49.32559" lon="0.29072">
        <ele>142.6</ele>
        <time>2023-09-03T10:33:14Z</time>
      </trkpt>
      <trkpt lat="49.32555" lon="0.29063">
        <ele>142.5</ele>
        <time>2023-09-03T10:33:15Z</time>
      </trkpt>
      <trkpt lat="49.32552" lon="0.29054">
        <ele>142.3</ele>
        <time>2023-09-03T10:33:16Z</time>
      </trkpt>
      <trkpt lat="49.32548" lon="0.29044">
        <ele>142.2</ele>
        <time>2023-09-03T10:33:17Z</time>
      </trkpt>
      <trkpt lat="49.32543" lon="0.29034">
        <ele>142</ele>
        <time>2023-09-03T10:33:18Z</time>
      </trkpt>
      <trkpt lat="49.32539" lon="0.29023">
        <ele>141.8</ele>
        <time>2023-09-03T10:33:19Z</time>
      </trkpt>
      <trkpt lat="49.32534" lon="0.29013">
        <ele>141.5</ele>
        <time>2023-09-03T10:33:20Z</time>
      </trkpt>
      <trkpt lat="49.3253" lon="0.29002">
        <ele>141.3</ele>
        <time>2023-09-03T10:33:21Z</time>
      </trkpt>
      <trkpt lat="49.32525" lon="0.28991">
        <ele>141</ele>
        <time>2023-09-03T10:33:22Z</time>
      </trkpt>
      <trkpt lat="49.3252" lon="0.28979">
        <ele>140.7</ele>
        <time>2023-09-03T10:33:23Z</time>
      </trkpt>
      <trkpt lat="49.32516" lon="0.28967">
        <ele>140.4</ele>
        <time>2023-09-03T10:33:24Z</time>
      </trkpt>
      <trkpt lat="49.32511" lon="0.28955">
        <ele>140.1</ele>
        <time>2023-09-03T10:33:25Z</time>
      </trkpt>
      <trkpt lat="49.32506" lon="0.28942">
        <ele>139.6</ele>
        <time>2023-09-03T10:33:26Z</time>
      </trkpt>
      <trkpt lat="49.325" lon="0.28929">
        <ele>139.2</ele>
        <time>2023-09-03T10:33:27Z</time>
      </trkpt>
      <trkpt lat="49.32495" lon="0.28916">
        <ele>138.8</ele>
        <time>2023-09-03T10:33:28Z</time>
      </trkpt>
      <trkpt lat="49.32489" lon="0.28903">
        <ele>138.4</ele>
        <time>2023-09-03T10:33:29Z</time>
      </trkpt>
      <trkpt lat="49.32484" lon="0.2889">
        <ele>138</ele>
        <time>2023-09-03T10:33:30Z</time>
      </trkpt>
      <trkpt lat="49.32478" lon="0.28876">
        <ele>137.7</ele>
        <time>2023-09-03T10:33:31Z</time>
      </trkpt>
      <trkpt lat="49.32473" lon="0.28863">
        <ele>137.4</ele>
        <time>2023-09-03T10:33:32Z</time>
      </trkpt>
      <trkpt lat="49.32468" lon="0.28849">
        <ele>137.3</ele>
        <time>2023-09-03T10:33:33Z</time>
      </trkpt>
      <trkpt lat="49.32463" lon="0.28835">
        <ele>137.2</ele>
        <time>2023-09-03T10:33:34Z</time>
      </trkpt>
      <trkpt lat="49.32459" lon="0.28821">
        <ele>137.1</ele>
        <time>2023-09-03T10:33:35Z</time>
      </trkpt>
      <trkpt lat="49.32454" lon="0.28808">
        <ele>137.1</ele>
        <time>2023-09-03T10:33:36Z</time>
      </trkpt>
      <trkpt lat="49.3245" lon="0.28795">
        <ele>137.1</ele>
        <time>2023-09-03T10:33:37Z</time>
      </trkpt>
      <trkpt lat="49.32445" lon="0.28782">
        <ele>137.2</ele>
        <time>2023-09-03T10:33:38Z</time>
      </trkpt>
      <trkpt lat="49.32441" lon="0.28769">
        <ele>137.2</ele>
        <time>2023-09-03T10:33:39Z</time>
      </trkpt>
      <trkpt lat="49.32437" lon="0.28757">
        <ele>137.3</ele>
        <time>2023-09-03T10:33:40Z</time>
      </trkpt>
      <trkpt lat="49.32434" lon="0.28745">
        <ele>137.3</ele>
        <time>2023-09-03T10:33:41Z</time>
      </trkpt>
      <trkpt lat="49.3243" lon="0.28732">
        <ele>137.4</ele>
        <time>2023-09-03T10:33:42Z</time>
      </trkpt>
      <trkpt lat="49.32427" lon="0.28721">
        <ele>137.5</ele>
        <time>2023-09-03T10:33:43Z</time>
      </trkpt>
      <trkpt lat="49.32424" lon="0.28709">
        <ele>137.6</ele>
        <time>2023-09-03T10:33:44Z</time>
      </trkpt>
      <trkpt lat="49.32421" lon="0.28698">
        <ele>137.7</ele>
        <time>2023-09-03T10:33:45Z</time>
      </trkpt>
      <trkpt lat="49.32418" lon="0.28687">
        <ele>137.8</ele>
        <time>2023-09-03T10:33:46Z</time>
      </trkpt>
      <trkpt lat="49.32415" lon="0.28677">
        <ele>138</ele>
        <time>2023-09-03T10:33:47Z</time>
      </trkpt>
      <trkpt lat="49.32412" lon="0.28667">
        <ele>138.1</ele>
        <time>2023-09-03T10:33:48Z</time>
      </trkpt>
      <trkpt lat="49.3241" lon="0.28657">
        <ele>138.2</ele>
        <time>2023-09-03T10:33:49Z</time>
      </trkpt>
      <trkpt lat="49.32407" lon="0.28647">
        <ele>138.3</ele>
        <time>2023-09-03T10:33:50Z</time>
      </trkpt>
      <trkpt lat="49.32404" lon="0.28636">
        <ele>138.4</ele>
        <time>2023-09-03T10:33:51Z</time>
      </trkpt>
      <trkpt lat="49.32402" lon="0.28626">
        <ele>138.6</ele>
        <time>2023-09-03T10:33:52Z</time>
      </trkpt>
      <trkpt lat="49.32398" lon="0.28615">
        <ele>138.7</ele>
        <time>2023-09-03T10:33:53Z</time>
      </trkpt>
      <trkpt lat="49.32395" lon="0.28604">
        <ele>138.8</ele>
        <time>2023-09-03T10:33:54Z</time>
      </trkpt>
      <trkpt lat="49.32393" lon="0.28593">
        <ele>139</ele>
        <time>2023-09-03T10:33:55Z</time>
      </trkpt>
      <trkpt lat="49.3239" lon="0.28582">
        <ele>139.2</ele>
        <time>2023-09-03T10:33:56Z</time>
      </trkpt>
      <trkpt lat="49.32387" lon="0.28571">
        <ele>139.3</ele>
        <time>2023-09-03T10:33:57Z</time>
      </trkpt>
      <trkpt lat="49.32384" lon="0.2856">
        <ele>139.4</ele>
        <time>2023-09-03T10:33:58Z</time>
      </trkpt>
      <trkpt lat="49.3238" lon="0.28548">
        <ele>139.6</ele>
        <time>2023-09-03T10:33:59Z</time>
      </trkpt>
      <trkpt lat="49.32377" lon="0.28537">
        <ele>139.7</ele>
        <time>2023-09-03T10:34:00Z</time>
      </trkpt>
      <trkpt lat="49.32374" lon="0.28526">
        <ele>139.7</ele>
        <time>2023-09-03T10:34:01Z</time>
      </trkpt>
      <trkpt lat="49.3237" lon="0.28514">
        <ele>139.8</ele>
        <time>2023-09-03T10:34:02Z</time>
      </trkpt>
      <trkpt lat="49.32367" lon="0.28503">
        <ele>139.9</ele>
        <time>2023-09-03T10:34:03Z</time>
      </trkpt>
      <trkpt lat="49.32363" lon="0.28492">
        <ele>140</ele>
        <time>2023-09-03T10:34:04Z</time>
      </trkpt>
      <trkpt lat="49.32361" lon="0.2848">
        <ele>140.1</ele>
        <time>2023-09-03T10:34:05Z</time>
      </trkpt>
      <trkpt lat="49.32357" lon="0.28469">
        <ele>140.2</ele>
        <time>2023-09-03T10:34:06Z</time>
      </trkpt>
      <trkpt lat="49.32354" lon="0.28458">
        <ele>140.3</ele>
        <time>2023-09-03T10:34:07Z</time>
      </trkpt>
      <trkpt lat="49.32351" lon="0.28447">
        <ele>140.5</ele>
        <time>2023-09-03T10:34:08Z</time>
      </trkpt>
      <trkpt lat="49.32348" lon="0.28435">
        <ele>140.6</ele>
        <time>2023-09-03T10:34:09Z</time>
      </trkpt>
      <trkpt lat="49.32345" lon="0.28424">
        <ele>140.7</ele>
        <time>2023-09-03T10:34:10Z</time>
      </trkpt>
      <trkpt lat="49.32341" lon="0.28413">
        <ele>140.9</ele>
        <time>2023-09-03T10:34:11Z</time>
      </trkpt>
      <trkpt lat="49.32338" lon="0.28402">
        <ele>141</ele>
        <time>2023-09-03T10:34:12Z</time>
      </trkpt>
      <trkpt lat="49.32335" lon="0.2839">
        <ele>141.1</ele>
        <time>2023-09-03T10:34:13Z</time>
      </trkpt>
      <trkpt lat="49.32332" lon="0.28378">
        <ele>141.2</ele>
        <time>2023-09-03T10:34:14Z</time>
      </trkpt>
      <trkpt lat="49.32328" lon="0.28367">
        <ele>141.3</ele>
        <time>2023-09-03T10:34:15Z</time>
      </trkpt>
      <trkpt lat="49.32325" lon="0.28356">
        <ele>141.4</ele>
        <time>2023-09-03T10:34:16Z</time>
      </trkpt>
      <trkpt lat="49.32322" lon="0.28345">
        <ele>141.5</ele>
        <time>2023-09-03T10:34:17Z</time>
      </trkpt>
      <trkpt lat="49.32319" lon="0.28333">
        <ele>141.6</ele>
        <time>2023-09-03T10:34:18Z</time>
      </trkpt>
      <trkpt lat="49.32316" lon="0.28322">
        <ele>141.8</ele>
        <time>2023-09-03T10:34:19Z</time>
      </trkpt>
      <trkpt lat="49.32313" lon="0.28311">
        <ele>141.9</ele>
        <time>2023-09-03T10:34:20Z</time>
      </trkpt>
      <trkpt lat="49.3231" lon="0.28299">
        <ele>142</ele>
        <time>2023-09-03T10:34:21Z</time>
      </trkpt>
      <trkpt lat="49.32307" lon="0.28288">
        <ele>142.2</ele>
        <time>2023-09-03T10:34:22Z</time>
      </trkpt>
      <trkpt lat="49.32304" lon="0.28277">
        <ele>142.3</ele>
        <time>2023-09-03T10:34:23Z</time>
      </trkpt>
      <trkpt lat="49.32301" lon="0.28266">
        <ele>142.4</ele>
        <time>2023-09-03T10:34:24Z</time>
      </trkpt>
      <trkpt lat="49.32298" lon="0.28255">
        <ele>142.5</ele>
        <time>2023-09-03T10:34:25Z</time>
      </trkpt>
      <trkpt lat="49.32295" lon="0.28244">
        <ele>142.7</ele>
        <time>2023-09-03T10:34:26Z</time>
      </trkpt>
      <trkpt lat="49.32292" lon="0.28233">
        <ele>142.8</ele>
        <time>2023-09-03T10:34:27Z</time>
      </trkpt>
      <trkpt lat="49.32289" lon="0.28222">
        <ele>142.9</ele>
        <time>2023-09-03T10:34:28Z</time>
      </trkpt>
      <trkpt lat="49.32286" lon="0.28211">
        <ele>143.1</ele>
        <time>2023-09-03T10:34:29Z</time>
      </trkpt>
      <trkpt lat="49.32283" lon="0.282">
        <ele>143.2</ele>
        <time>2023-09-03T10:34:30Z</time>
      </trkpt>
      <trkpt lat="49.3228" lon="0.28188">
        <ele>143.3</ele>
        <time>2023-09-03T10:34:31Z</time>
      </trkpt>
      <trkpt lat="49.32276" lon="0.28177">
        <ele>143.5</ele>
        <time>2023-09-03T10:34:32Z</time>
      </trkpt>
      <trkpt lat="49.32273" lon="0.28166">
        <ele>143.6</ele>
        <time>2023-09-03T10:34:33Z</time>
      </trkpt>
      <trkpt lat="49.3227" lon="0.28155">
        <ele>143.7</ele>
        <time>2023-09-03T10:34:34Z</time>
      </trkpt>
      <trkpt lat="49.32267" lon="0.28144">
        <ele>143.9</ele>
        <time>2023-09-03T10:34:35Z</time>
      </trkpt>
      <trkpt lat="49.32264" lon="0.28133">
        <ele>144</ele>
        <time>2023-09-03T10:34:36Z</time>
      </trkpt>
      <trkpt lat="49.32261" lon="0.28122">
        <ele>144.1</ele>
        <time>2023-09-03T10:34:37Z</time>
      </trkpt>
      <trkpt lat="49.32258" lon="0.28112">
        <ele>144.3</ele>
        <time>2023-09-03T10:34:38Z</time>
      </trkpt>
      <trkpt lat="49.32255" lon="0.28101">
        <ele>144.4</ele>
        <time>2023-09-03T10:34:39Z</time>
      </trkpt>
      <trkpt lat="49.32252" lon="0.2809">
        <ele>144.5</ele>
        <time>2023-09-03T10:34:40Z</time>
      </trkpt>
      <trkpt lat="49.32249" lon="0.2808">
        <ele>144.7</ele>
        <time>2023-09-03T10:34:41Z</time>
      </trkpt>
      <trkpt lat="49.32246" lon="0.28069">
        <ele>144.8</ele>
        <time>2023-09-03T10:34:42Z</time>
      </trkpt>
      <trkpt lat="49.32243" lon="0.28059">
        <ele>144.8</ele>
        <time>2023-09-03T10:34:43Z</time>
      </trkpt>
      <trkpt lat="49.32241" lon="0.28048">
        <ele>144.9</ele>
        <time>2023-09-03T10:34:44Z</time>
      </trkpt>
      <trkpt lat="49.32237" lon="0.28038">
        <ele>145</ele>
        <time>2023-09-03T10:34:45Z</time>
      </trkpt>
      <trkpt lat="49.32235" lon="0.28028">
        <ele>145.1</ele>
        <time>2023-09-03T10:34:46Z</time>
      </trkpt>
      <trkpt lat="49.32232" lon="0.28018">
        <ele>145.2</ele>
        <time>2023-09-03T10:34:47Z</time>
      </trkpt>
      <trkpt lat="49.32229" lon="0.28007">
        <ele>145.3</ele>
        <time>2023-09-03T10:34:48Z</time>
      </trkpt>
      <trkpt lat="49.32226" lon="0.27997">
        <ele>145.3</ele>
        <time>2023-09-03T10:34:49Z</time>
      </trkpt>
      <trkpt lat="49.32223" lon="0.27987">
        <ele>145.4</ele>
        <time>2023-09-03T10:34:50Z</time>
      </trkpt>
      <trkpt lat="49.3222" lon="0.27977">
        <ele>145.5</ele>
        <time>2023-09-03T10:34:51Z</time>
      </trkpt>
      <trkpt lat="49.32218" lon="0.27967">
        <ele>145.6</ele>
        <time>2023-09-03T10:34:52Z</time>
      </trkpt>
      <trkpt lat="49.32215" lon="0.27957">
        <ele>145.7</ele>
        <time>2023-09-03T10:34:53Z</time>
      </trkpt>
      <trkpt lat="49.32212" lon="0.27946">
        <ele>145.8</ele>
        <time>2023-09-03T10:34:54Z</time>
      </trkpt>
      <trkpt lat="49.32209" lon="0.27936">
        <ele>145.9</ele>
        <time>2023-09-03T10:34:55Z</time>
      </trkpt>
      <trkpt lat="49.32206" lon="0.27926">
        <ele>146</ele>
        <time>2023-09-03T10:34:56Z</time>
      </trkpt>
      <trkpt lat="49.32203" lon="0.27916">
        <ele>146.1</ele>
        <time>2023-09-03T10:34:57Z</time>
      </trkpt>
      <trkpt lat="49.322" lon="0.27905">
        <ele>146.1</ele>
        <time>2023-09-03T10:34:58Z</time>
      </trkpt>
      <trkpt lat="49.32197" lon="0.27894">
        <ele>146.1</ele>
        <time>2023-09-03T10:34:59Z</time>
      </trkpt>
      <trkpt lat="49.32194" lon="0.27883">
        <ele>146.2</ele>
        <time>2023-09-03T10:35:00Z</time>
      </trkpt>
      <trkpt lat="49.32191" lon="0.27872">
        <ele>146.2</ele>
        <time>2023-09-03T10:35:01Z</time>
      </trkpt>
      <trkpt lat="49.32188" lon="0.27861">
        <ele>146.2</ele>
        <time>2023-09-03T10:35:02Z</time>
      </trkpt>
      <trkpt lat="49.32185" lon="0.2785">
        <ele>146.2</ele>
        <time>2023-09-03T10:35:03Z</time>
      </trkpt>
      <trkpt lat="49.32182" lon="0.27838">
        <ele>146.3</ele>
        <time>2023-09-03T10:35:04Z</time>
      </trkpt>
      <trkpt lat="49.32179" lon="0.27827">
        <ele>146.3</ele>
        <time>2023-09-03T10:35:05Z</time>
      </trkpt>
      <trkpt lat="49.32175" lon="0.27816">
        <ele>146.3</ele>
        <time>2023-09-03T10:35:06Z</time>
      </trkpt>
      <trkpt lat="49.32172" lon="0.27805">
        <ele>146.3</ele>
        <time>2023-09-03T10:35:07Z</time>
      </trkpt>
      <trkpt lat="49.32169" lon="0.27794">
        <ele>146.3</ele>
        <time>2023-09-03T10:35:08Z</time>
      </trkpt>
      <trkpt lat="49.32166" lon="0.27782">
        <ele>146.2</ele>
        <time>2023-09-03T10:35:09Z</time>
      </trkpt>
      <trkpt lat="49.32163" lon="0.2777">
        <ele>146.2</ele>
        <time>2023-09-03T10:35:10Z</time>
      </trkpt>
      <trkpt lat="49.3216" lon="0.27758">
        <ele>146.2</ele>
        <time>2023-09-03T10:35:11Z</time>
      </trkpt>
      <trkpt lat="49.32157" lon="0.27747">
        <ele>146.2</ele>
        <time>2023-09-03T10:35:12Z</time>
      </trkpt>
      <trkpt lat="49.32154" lon="0.27734">
        <ele>146.2</ele>
        <time>2023-09-03T10:35:13Z</time>
      </trkpt>
      <trkpt lat="49.32151" lon="0.27723">
        <ele>146.1</ele>
        <time>2023-09-03T10:35:14Z</time>
      </trkpt>
      <trkpt lat="49.32147" lon="0.27712">
        <ele>146.1</ele>
        <time>2023-09-03T10:35:15Z</time>
      </trkpt>
      <trkpt lat="49.32144" lon="0.277">
        <ele>146.1</ele>
        <time>2023-09-03T10:35:16Z</time>
      </trkpt>
      <trkpt lat="49.32141" lon="0.27688">
        <ele>146.1</ele>
        <time>2023-09-03T10:35:17Z</time>
      </trkpt>
      <trkpt lat="49.32137" lon="0.27676">
        <ele>146.1</ele>
        <time>2023-09-03T10:35:18Z</time>
      </trkpt>
      <trkpt lat="49.32134" lon="0.27664">
        <ele>146.1</ele>
        <time>2023-09-03T10:35:19Z</time>
      </trkpt>
      <trkpt lat="49.3213" lon="0.27652">
        <ele>146.1</ele>
        <time>2023-09-03T10:35:20Z</time>
      </trkpt>
      <trkpt lat="49.32127" lon="0.27641">
        <ele>146.1</ele>
        <time>2023-09-03T10:35:21Z</time>
      </trkpt>
      <trkpt lat="49.32124" lon="0.27628">
        <ele>146.1</ele>
        <time>2023-09-03T10:35:22Z</time>
      </trkpt>
      <trkpt lat="49.32121" lon="0.27616">
        <ele>146.1</ele>
        <time>2023-09-03T10:35:23Z</time>
      </trkpt>
      <trkpt lat="49.32117" lon="0.27605">
        <ele>146.1</ele>
        <time>2023-09-03T10:35:24Z</time>
      </trkpt>
      <trkpt lat="49.32113" lon="0.27593">
        <ele>146.1</ele>
        <time>2023-09-03T10:35:25Z</time>
      </trkpt>
      <trkpt lat="49.3211" lon="0.2758">
        <ele>146.1</ele>
        <time>2023-09-03T10:35:26Z</time>
      </trkpt>
      <trkpt lat="49.32106" lon="0.27569">
        <ele>146.1</ele>
        <time>2023-09-03T10:35:27Z</time>
      </trkpt>
      <trkpt lat="49.32103" lon="0.27557">
        <ele>146.1</ele>
        <time>2023-09-03T10:35:28Z</time>
      </trkpt>
      <trkpt lat="49.321" lon="0.27545">
        <ele>146.1</ele>
        <time>2023-09-03T10:35:29Z</time>
      </trkpt>
      <trkpt lat="49.32096" lon="0.27533">
        <ele>146.1</ele>
        <time>2023-09-03T10:35:30Z</time>
      </trkpt>
      <trkpt lat="49.32093" lon="0.27521">
        <ele>146</ele>
        <time>2023-09-03T10:35:31Z</time>
      </trkpt>
      <trkpt lat="49.32089" lon="0.27508">
        <ele>146</ele>
        <time>2023-09-03T10:35:32Z</time>
      </trkpt>
      <trkpt lat="49.32085" lon="0.27496">
        <ele>145.9</ele>
        <time>2023-09-03T10:35:33Z</time>
      </trkpt>
      <trkpt lat="49.32082" lon="0.27484">
        <ele>145.8</ele>
        <time>2023-09-03T10:35:34Z</time>
      </trkpt>
      <trkpt lat="49.32078" lon="0.27471">
        <ele>145.8</ele>
        <time>2023-09-03T10:35:35Z</time>
      </trkpt>
      <trkpt lat="49.32075" lon="0.27459">
        <ele>145.7</ele>
        <time>2023-09-03T10:35:36Z</time>
      </trkpt>
      <trkpt lat="49.32072" lon="0.27446">
        <ele>145.6</ele>
        <time>2023-09-03T10:35:37Z</time>
      </trkpt>
      <trkpt lat="49.32068" lon="0.27434">
        <ele>145.5</ele>
        <time>2023-09-03T10:35:38Z</time>
      </trkpt>
      <trkpt lat="49.32065" lon="0.27422">
        <ele>145.4</ele>
        <time>2023-09-03T10:35:39Z</time>
      </trkpt>
      <trkpt lat="49.32061" lon="0.27409">
        <ele>145.3</ele>
        <time>2023-09-03T10:35:40Z</time>
      </trkpt>
      <trkpt lat="49.32058" lon="0.27397">
        <ele>145.2</ele>
        <time>2023-09-03T10:35:41Z</time>
      </trkpt>
      <trkpt lat="49.32054" lon="0.27384">
        <ele>145</ele>
        <time>2023-09-03T10:35:42Z</time>
      </trkpt>
      <trkpt lat="49.32051" lon="0.27371">
        <ele>144.8</ele>
        <time>2023-09-03T10:35:43Z</time>
      </trkpt>
      <trkpt lat="49.32047" lon="0.27358">
        <ele>144.5</ele>
        <time>2023-09-03T10:35:44Z</time>
      </trkpt>
      <trkpt lat="49.32043" lon="0.27344">
        <ele>144.3</ele>
        <time>2023-09-03T10:35:45Z</time>
      </trkpt>
      <trkpt lat="49.32039" lon="0.27331">
        <ele>144</ele>
        <time>2023-09-03T10:35:46Z</time>
      </trkpt>
      <trkpt lat="49.32036" lon="0.27318">
        <ele>143.8</ele>
        <time>2023-09-03T10:35:47Z</time>
      </trkpt>
      <trkpt lat="49.32032" lon="0.27305">
        <ele>143.6</ele>
        <time>2023-09-03T10:35:48Z</time>
      </trkpt>
      <trkpt lat="49.32028" lon="0.27292">
        <ele>143.4</ele>
        <time>2023-09-03T10:35:49Z</time>
      </trkpt>
      <trkpt lat="49.32025" lon="0.27278">
        <ele>143.2</ele>
        <time>2023-09-03T10:35:50Z</time>
      </trkpt>
      <trkpt lat="49.32021" lon="0.27264">
        <ele>143</ele>
        <time>2023-09-03T10:35:51Z</time>
      </trkpt>
      <trkpt lat="49.32018" lon="0.2725">
        <ele>142.8</ele>
        <time>2023-09-03T10:35:52Z</time>
      </trkpt>
      <trkpt lat="49.32014" lon="0.27237">
        <ele>142.6</ele>
        <time>2023-09-03T10:35:53Z</time>
      </trkpt>
      <trkpt lat="49.3201" lon="0.27224">
        <ele>142.4</ele>
        <time>2023-09-03T10:35:54Z</time>
      </trkpt>
      <trkpt lat="49.32006" lon="0.27211">
        <ele>142.2</ele>
        <time>2023-09-03T10:35:55Z</time>
      </trkpt>
      <trkpt lat="49.32003" lon="0.27198">
        <ele>142</ele>
        <time>2023-09-03T10:35:56Z</time>
      </trkpt>
      <trkpt lat="49.31999" lon="0.27184">
        <ele>141.8</ele>
        <time>2023-09-03T10:35:57Z</time>
      </trkpt>
      <trkpt lat="49.31995" lon="0.27171">
        <ele>141.5</ele>
        <time>2023-09-03T10:35:58Z</time>
      </trkpt>
      <trkpt lat="49.31991" lon="0.27157">
        <ele>141.2</ele>
        <time>2023-09-03T10:35:59Z</time>
      </trkpt>
      <trkpt lat="49.31987" lon="0.27144">
        <ele>140.9</ele>
        <time>2023-09-03T10:36:00Z</time>
      </trkpt>
      <trkpt lat="49.31983" lon="0.2713">
        <ele>140.6</ele>
        <time>2023-09-03T10:36:01Z</time>
      </trkpt>
      <trkpt lat="49.31979" lon="0.27117">
        <ele>140.3</ele>
        <time>2023-09-03T10:36:02Z</time>
      </trkpt>
      <trkpt lat="49.31976" lon="0.27104">
        <ele>140.1</ele>
        <time>2023-09-03T10:36:03Z</time>
      </trkpt>
      <trkpt lat="49.31972" lon="0.27091">
        <ele>139.8</ele>
        <time>2023-09-03T10:36:04Z</time>
      </trkpt>
      <trkpt lat="49.31968" lon="0.27077">
        <ele>139.6</ele>
        <time>2023-09-03T10:36:05Z</time>
      </trkpt>
      <trkpt lat="49.31965" lon="0.27064">
        <ele>139.3</ele>
        <time>2023-09-03T10:36:06Z</time>
      </trkpt>
      <trkpt lat="49.31961" lon="0.2705">
        <ele>139</ele>
        <time>2023-09-03T10:36:07Z</time>
      </trkpt>
      <trkpt lat="49.31956" lon="0.27036">
        <ele>138.8</ele>
        <time>2023-09-03T10:36:08Z</time>
      </trkpt>
      <trkpt lat="49.31952" lon="0.27023">
        <ele>138.5</ele>
        <time>2023-09-03T10:36:09Z</time>
      </trkpt>
      <trkpt lat="49.31949" lon="0.27009">
        <ele>138.2</ele>
        <time>2023-09-03T10:36:10Z</time>
      </trkpt>
      <trkpt lat="49.31945" lon="0.26996">
        <ele>137.9</ele>
        <time>2023-09-03T10:36:11Z</time>
      </trkpt>
      <trkpt lat="49.31941" lon="0.26982">
        <ele>137.5</ele>
        <time>2023-09-03T10:36:12Z</time>
      </trkpt>
      <trkpt lat="49.31937" lon="0.26967">
        <ele>137.1</ele>
        <time>2023-09-03T10:36:13Z</time>
      </trkpt>
      <trkpt lat="49.31933" lon="0.26952">
        <ele>136.7</ele>
        <time>2023-09-03T10:36:14Z</time>
      </trkpt>
      <trkpt lat="49.31929" lon="0.26937">
        <ele>136.2</ele>
        <time>2023-09-03T10:36:15Z</time>
      </trkpt>
      <trkpt lat="49.31925" lon="0.26922">
        <ele>135.7</ele>
        <time>2023-09-03T10:36:16Z</time>
      </trkpt>
      <trkpt lat="49.31921" lon="0.26907">
        <ele>135.2</ele>
        <time>2023-09-03T10:36:17Z</time>
      </trkpt>
      <trkpt lat="49.31916" lon="0.26891">
        <ele>134.7</ele>
        <time>2023-09-03T10:36:18Z</time>
      </trkpt>
      <trkpt lat="49.31912" lon="0.26875">
        <ele>134.2</ele>
        <time>2023-09-03T10:36:19Z</time>
      </trkpt>
      <trkpt lat="49.31907" lon="0.26861">
        <ele>133.7</ele>
        <time>2023-09-03T10:36:20Z</time>
      </trkpt>
      <trkpt lat="49.31902" lon="0.26846">
        <ele>133.3</ele>
        <time>2023-09-03T10:36:21Z</time>
      </trkpt>
      <trkpt lat="49.31896" lon="0.26832">
        <ele>132.9</ele>
        <time>2023-09-03T10:36:22Z</time>
      </trkpt>
      <trkpt lat="49.3189" lon="0.26819">
        <ele>132.5</ele>
        <time>2023-09-03T10:36:23Z</time>
      </trkpt>
      <trkpt lat="49.31884" lon="0.26806">
        <ele>132</ele>
        <time>2023-09-03T10:36:24Z</time>
      </trkpt>
      <trkpt lat="49.31876" lon="0.26793">
        <ele>131.5</ele>
        <time>2023-09-03T10:36:25Z</time>
      </trkpt>
      <trkpt lat="49.31868" lon="0.26781">
        <ele>131</ele>
        <time>2023-09-03T10:36:26Z</time>
      </trkpt>
      <trkpt lat="49.3186" lon="0.2677">
        <ele>130.6</ele>
        <time>2023-09-03T10:36:27Z</time>
      </trkpt>
      <trkpt lat="49.31851" lon="0.26759">
        <ele>130.1</ele>
        <time>2023-09-03T10:36:28Z</time>
      </trkpt>
      <trkpt lat="49.31842" lon="0.26748">
        <ele>129.7</ele>
        <time>2023-09-03T10:36:29Z</time>
      </trkpt>
      <trkpt lat="49.31833" lon="0.26736">
        <ele>129.2</ele>
        <time>2023-09-03T10:36:30Z</time>
      </trkpt>
      <trkpt lat="49.31824" lon="0.26725">
        <ele>128.7</ele>
        <time>2023-09-03T10:36:31Z</time>
      </trkpt>
      <trkpt lat="49.31814" lon="0.26713">
        <ele>128.2</ele>
        <time>2023-09-03T10:36:32Z</time>
      </trkpt>
      <trkpt lat="49.31805" lon="0.26701">
        <ele>127.6</ele>
        <time>2023-09-03T10:36:33Z</time>
      </trkpt>
      <trkpt lat="49.31795" lon="0.26688">
        <ele>127</ele>
        <time>2023-09-03T10:36:34Z</time>
      </trkpt>
      <trkpt lat="49.31786" lon="0.26676">
        <ele>126.5</ele>
        <time>2023-09-03T10:36:35Z</time>
      </trkpt>
      <trkpt lat="49.31777" lon="0.26663">
        <ele>125.8</ele>
        <time>2023-09-03T10:36:36Z</time>
      </trkpt>
      <trkpt lat="49.31767" lon="0.2665">
        <ele>125.1</ele>
        <time>2023-09-03T10:36:37Z</time>
      </trkpt>
      <trkpt lat="49.31759" lon="0.26636">
        <ele>124.4</ele>
        <time>2023-09-03T10:36:38Z</time>
      </trkpt>
      <trkpt lat="49.3175" lon="0.2662">
        <ele>123.6</ele>
        <time>2023-09-03T10:36:39Z</time>
      </trkpt>
      <trkpt lat="49.31742" lon="0.26605">
        <ele>122.9</ele>
        <time>2023-09-03T10:36:40Z</time>
      </trkpt>
      <trkpt lat="49.31735" lon="0.26589">
        <ele>122.3</ele>
        <time>2023-09-03T10:36:41Z</time>
      </trkpt>
      <trkpt lat="49.31728" lon="0.26571">
        <ele>121.6</ele>
        <time>2023-09-03T10:36:42Z</time>
      </trkpt>
      <trkpt lat="49.31721" lon="0.26554">
        <ele>120.9</ele>
        <time>2023-09-03T10:36:43Z</time>
      </trkpt>
      <trkpt lat="49.31714" lon="0.26537">
        <ele>120.2</ele>
        <time>2023-09-03T10:36:44Z</time>
      </trkpt>
      <trkpt lat="49.31706" lon="0.26519">
        <ele>119.5</ele>
        <time>2023-09-03T10:36:45Z</time>
      </trkpt>
      <trkpt lat="49.317" lon="0.26502">
        <ele>118.9</ele>
        <time>2023-09-03T10:36:46Z</time>
      </trkpt>
      <trkpt lat="49.31693" lon="0.26484">
        <ele>118.3</ele>
        <time>2023-09-03T10:36:47Z</time>
      </trkpt>
      <trkpt lat="49.31686" lon="0.26466">
        <ele>117.7</ele>
        <time>2023-09-03T10:36:48Z</time>
      </trkpt>
      <trkpt lat="49.31679" lon="0.26449">
        <ele>117.1</ele>
        <time>2023-09-03T10:36:49Z</time>
      </trkpt>
      <trkpt lat="49.31671" lon="0.2643">
        <ele>116.5</ele>
        <time>2023-09-03T10:36:50Z</time>
      </trkpt>
      <trkpt lat="49.31664" lon="0.26412">
        <ele>115.8</ele>
        <time>2023-09-03T10:36:51Z</time>
      </trkpt>
      <trkpt lat="49.31657" lon="0.26395">
        <ele>115.1</ele>
        <time>2023-09-03T10:36:52Z</time>
      </trkpt>
      <trkpt lat="49.3165" lon="0.26377">
        <ele>114.5</ele>
        <time>2023-09-03T10:36:53Z</time>
      </trkpt>
      <trkpt lat="49.31642" lon="0.2636">
        <ele>113.9</ele>
        <time>2023-09-03T10:36:54Z</time>
      </trkpt>
      <trkpt lat="49.31635" lon="0.26342">
        <ele>113.3</ele>
        <time>2023-09-03T10:36:55Z</time>
      </trkpt>
      <trkpt lat="49.31627" lon="0.26325">
        <ele>112.6</ele>
        <time>2023-09-03T10:36:56Z</time>
      </trkpt>
      <trkpt lat="49.31619" lon="0.26307">
        <ele>112</ele>
        <time>2023-09-03T10:36:57Z</time>
      </trkpt>
      <trkpt lat="49.31611" lon="0.26289">
        <ele>111.3</ele>
        <time>2023-09-03T10:36:58Z</time>
      </trkpt>
      <trkpt lat="49.31603" lon="0.26271">
        <ele>110.6</ele>
        <time>2023-09-03T10:36:59Z</time>
      </trkpt>
      <trkpt lat="49.31596" lon="0.26253">
        <ele>110</ele>
        <time>2023-09-03T10:37:00Z</time>
      </trkpt>
      <trkpt lat="49.31588" lon="0.26236">
        <ele>109.3</ele>
        <time>2023-09-03T10:37:01Z</time>
      </trkpt>
      <trkpt lat="49.31579" lon="0.26219">
        <ele>108.6</ele>
        <time>2023-09-03T10:37:02Z</time>
      </trkpt>
      <trkpt lat="49.31568" lon="0.26205">
        <ele>107.9</ele>
        <time>2023-09-03T10:37:03Z</time>
      </trkpt>
      <trkpt lat="49.31557" lon="0.26192">
        <ele>107.3</ele>
        <time>2023-09-03T10:37:04Z</time>
      </trkpt>
      <trkpt lat="49.31546" lon="0.2618">
        <ele>106.5</ele>
        <time>2023-09-03T10:37:05Z</time>
      </trkpt>
      <trkpt lat="49.31534" lon="0.2617">
        <ele>105.8</ele>
        <time>2023-09-03T10:37:06Z</time>
      </trkpt>
      <trkpt lat="49.31521" lon="0.26161">
        <ele>105</ele>
        <time>2023-09-03T10:37:07Z</time>
      </trkpt>
      <trkpt lat="49.31508" lon="0.26154">
        <ele>104.3</ele>
        <time>2023-09-03T10:37:08Z</time>
      </trkpt>
      <trkpt lat="49.31494" lon="0.26148">
        <ele>103.5</ele>
        <time>2023-09-03T10:37:09Z</time>
      </trkpt>
      <trkpt lat="49.3148" lon="0.26144">
        <ele>102.7</ele>
        <time>2023-09-03T10:37:10Z</time>
      </trkpt>
      <trkpt lat="49.31466" lon="0.26141">
        <ele>101.8</ele>
        <time>2023-09-03T10:37:11Z</time>
      </trkpt>
      <trkpt lat="49.31451" lon="0.26139">
        <ele>101</ele>
        <time>2023-09-03T10:37:12Z</time>
      </trkpt>
      <trkpt lat="49.31437" lon="0.26137">
        <ele>100.1</ele>
        <time>2023-09-03T10:37:13Z</time>
      </trkpt>
      <trkpt lat="49.31423" lon="0.26134">
        <ele>99.2</ele>
        <time>2023-09-03T10:37:14Z</time>
      </trkpt>
      <trkpt lat="49.31409" lon="0.26131">
        <ele>98.3</ele>
        <time>2023-09-03T10:37:15Z</time>
      </trkpt>
      <trkpt lat="49.31394" lon="0.26128">
        <ele>97.5</ele>
        <time>2023-09-03T10:37:16Z</time>
      </trkpt>
      <trkpt lat="49.3138" lon="0.26126">
        <ele>96.6</ele>
        <time>2023-09-03T10:37:17Z</time>
      </trkpt>
      <trkpt lat="49.31366" lon="0.26124">
        <ele>95.7</ele>
        <time>2023-09-03T10:37:18Z</time>
      </trkpt>
      <trkpt lat="49.31351" lon="0.26123">
        <ele>94.9</ele>
        <time>2023-09-03T10:37:19Z</time>
      </trkpt>
      <trkpt lat="49.31338" lon="0.2612">
        <ele>94</ele>
        <time>2023-09-03T10:37:20Z</time>
      </trkpt>
      <trkpt lat="49.31324" lon="0.26117">
        <ele>93.2</ele>
        <time>2023-09-03T10:37:21Z</time>
      </trkpt>
      <trkpt lat="49.3131" lon="0.26114">
        <ele>92.4</ele>
        <time>2023-09-03T10:37:22Z</time>
      </trkpt>
      <trkpt lat="49.31297" lon="0.26109">
        <ele>91.6</ele>
        <time>2023-09-03T10:37:23Z</time>
      </trkpt>
      <trkpt lat="49.31284" lon="0.26104">
        <ele>90.8</ele>
        <time>2023-09-03T10:37:24Z</time>
      </trkpt>
      <trkpt lat="49.31272" lon="0.26097">
        <ele>89.9</ele>
        <time>2023-09-03T10:37:25Z</time>
      </trkpt>
      <trkpt lat="49.31259" lon="0.26089">
        <ele>89.2</ele>
        <time>2023-09-03T10:37:26Z</time>
      </trkpt>
      <trkpt lat="49.31247" lon="0.26082">
        <ele>88.4</ele>
        <time>2023-09-03T10:37:27Z</time>
      </trkpt>
      <trkpt lat="49.31234" lon="0.26074">
        <ele>87.5</ele>
        <time>2023-09-03T10:37:28Z</time>
      </trkpt>
      <trkpt lat="49.31222" lon="0.26065">
        <ele>86.6</ele>
        <time>2023-09-03T10:37:29Z</time>
      </trkpt>
      <trkpt lat="49.3121" lon="0.26054">
        <ele>85.7</ele>
        <time>2023-09-03T10:37:30Z</time>
      </trkpt>
      <trkpt lat="49.31198" lon="0.26043">
        <ele>84.8</ele>
        <time>2023-09-03T10:37:31Z</time>
      </trkpt>
      <trkpt lat="49.31187" lon="0.26032">
        <ele>83.9</ele>
        <time>2023-09-03T10:37:32Z</time>
      </trkpt>
      <trkpt lat="49.31176" lon="0.2602">
        <ele>83</ele>
        <time>2023-09-03T10:37:33Z</time>
      </trkpt>
      <trkpt lat="49.31164" lon="0.26008">
        <ele>82.2</ele>
        <time>2023-09-03T10:37:34Z</time>
      </trkpt>
      <trkpt lat="49.31152" lon="0.25997">
        <ele>81.3</ele>
        <time>2023-09-03T10:37:35Z</time>
      </trkpt>
      <trkpt lat="49.3114" lon="0.25985">
        <ele>80.5</ele>
        <time>2023-09-03T10:37:36Z</time>
      </trkpt>
      <trkpt lat="49.31128" lon="0.25974">
        <ele>79.7</ele>
        <time>2023-09-03T10:37:37Z</time>
      </trkpt>
      <trkpt lat="49.31116" lon="0.25963">
        <ele>78.9</ele>
        <time>2023-09-03T10:37:38Z</time>
      </trkpt>
      <trkpt lat="49.31104" lon="0.25953">
        <ele>78.1</ele>
        <time>2023-09-03T10:37:39Z</time>
      </trkpt>
      <trkpt lat="49.31092" lon="0.25944">
        <ele>77.3</ele>
        <time>2023-09-03T10:37:40Z</time>
      </trkpt>
      <trkpt lat="49.31079" lon="0.25936">
        <ele>76.5</ele>
        <time>2023-09-03T10:37:41Z</time>
      </trkpt>
      <trkpt lat="49.31066" lon="0.2593">
        <ele>75.6</ele>
        <time>2023-09-03T10:37:42Z</time>
      </trkpt>
      <trkpt lat="49.31053" lon="0.25926">
        <ele>74.7</ele>
        <time>2023-09-03T10:37:43Z</time>
      </trkpt>
      <trkpt lat="49.31039" lon="0.25924">
        <ele>73.9</ele>
        <time>2023-09-03T10:37:44Z</time>
      </trkpt>
      <trkpt lat="49.31025" lon="0.25921">
        <ele>73</ele>
        <time>2023-09-03T10:37:45Z</time>
      </trkpt>
      <trkpt lat="49.31011" lon="0.25919">
        <ele>72.2</ele>
        <time>2023-09-03T10:37:46Z</time>
      </trkpt>
      <trkpt lat="49.30998" lon="0.25917">
        <ele>71.4</ele>
        <time>2023-09-03T10:37:47Z</time>
      </trkpt>
      <trkpt lat="49.30984" lon="0.25915">
        <ele>70.5</ele>
        <time>2023-09-03T10:37:48Z</time>
      </trkpt>
      <trkpt lat="49.30971" lon="0.25913">
        <ele>69.7</ele>
        <time>2023-09-03T10:37:49Z</time>
      </trkpt>
      <trkpt lat="49.30957" lon="0.25911">
        <ele>68.9</ele>
        <time>2023-09-03T10:37:50Z</time>
      </trkpt>
      <trkpt lat="49.30944" lon="0.25909">
        <ele>68.2</ele>
        <time>2023-09-03T10:37:51Z</time>
      </trkpt>
      <trkpt lat="49.30931" lon="0.25906">
        <ele>67.4</ele>
        <time>2023-09-03T10:37:52Z</time>
      </trkpt>
      <trkpt lat="49.30917" lon="0.25904">
        <ele>66.7</ele>
        <time>2023-09-03T10:37:53Z</time>
      </trkpt>
      <trkpt lat="49.30903" lon="0.25902">
        <ele>65.9</ele>
        <time>2023-09-03T10:37:54Z</time>
      </trkpt>
      <trkpt lat="49.30889" lon="0.259">
        <ele>65.1</ele>
        <time>2023-09-03T10:37:55Z</time>
      </trkpt>
      <trkpt lat="49.30875" lon="0.25899">
        <ele>64.3</ele>
        <time>2023-09-03T10:37:56Z</time>
      </trkpt>
      <trkpt lat="49.30861" lon="0.25897">
        <ele>63.5</ele>
        <time>2023-09-03T10:37:57Z</time>
      </trkpt>
      <trkpt lat="49.30847" lon="0.25895">
        <ele>62.6</ele>
        <time>2023-09-03T10:37:58Z</time>
      </trkpt>
      <trkpt lat="49.30833" lon="0.25893">
        <ele>61.8</ele>
        <time>2023-09-03T10:37:59Z</time>
      </trkpt>
      <trkpt lat="49.30818" lon="0.25891">
        <ele>61</ele>
        <time>2023-09-03T10:38:00Z</time>
      </trkpt>
      <trkpt lat="49.30803" lon="0.25889">
        <ele>60.2</ele>
        <time>2023-09-03T10:38:01Z</time>
      </trkpt>
      <trkpt lat="49.30789" lon="0.25887">
        <ele>59.5</ele>
        <time>2023-09-03T10:38:02Z</time>
      </trkpt>
      <trkpt lat="49.30774" lon="0.25884">
        <ele>58.7</ele>
        <time>2023-09-03T10:38:03Z</time>
      </trkpt>
      <trkpt lat="49.3076" lon="0.25881">
        <ele>57.9</ele>
        <time>2023-09-03T10:38:04Z</time>
      </trkpt>
      <trkpt lat="49.30746" lon="0.25877">
        <ele>57</ele>
        <time>2023-09-03T10:38:05Z</time>
      </trkpt>
      <trkpt lat="49.30732" lon="0.25871">
        <ele>56.1</ele>
        <time>2023-09-03T10:38:06Z</time>
      </trkpt>
      <trkpt lat="49.30719" lon="0.25866">
        <ele>55.1</ele>
        <time>2023-09-03T10:38:07Z</time>
      </trkpt>
      <trkpt lat="49.30706" lon="0.25859">
        <ele>54.3</ele>
        <time>2023-09-03T10:38:08Z</time>
      </trkpt>
      <trkpt lat="49.30693" lon="0.25853">
        <ele>53.5</ele>
        <time>2023-09-03T10:38:09Z</time>
      </trkpt>
      <trkpt lat="49.3068" lon="0.25846">
        <ele>52.7</ele>
        <time>2023-09-03T10:38:10Z</time>
      </trkpt>
      <trkpt lat="49.30667" lon="0.25839">
        <ele>51.9</ele>
        <time>2023-09-03T10:38:11Z</time>
      </trkpt>
      <trkpt lat="49.30654" lon="0.2583">
        <ele>51.2</ele>
        <time>2023-09-03T10:38:12Z</time>
      </trkpt>
      <trkpt lat="49.30642" lon="0.25822">
        <ele>50.5</ele>
        <time>2023-09-03T10:38:13Z</time>
      </trkpt>
      <trkpt lat="49.3063" lon="0.25814">
        <ele>49.7</ele>
        <time>2023-09-03T10:38:14Z</time>
      </trkpt>
      <trkpt lat="49.30618" lon="0.25805">
        <ele>49</ele>
        <time>2023-09-03T10:38:15Z</time>
      </trkpt>
      <trkpt lat="49.30605" lon="0.25796">
        <ele>48.3</ele>
        <time>2023-09-03T10:38:16Z</time>
      </trkpt>
      <trkpt lat="49.30594" lon="0.25786">
        <ele>47.5</ele>
        <time>2023-09-03T10:38:17Z</time>
      </trkpt>
      <trkpt lat="49.30582" lon="0.25775">
        <ele>46.8</ele>
        <time>2023-09-03T10:38:18Z</time>
      </trkpt>
      <trkpt lat="49.3057" lon="0.25764">
        <ele>46.1</ele>
        <time>2023-09-03T10:38:19Z</time>
      </trkpt>
      <trkpt lat="49.30559" lon="0.25754">
        <ele>45.3</ele>
        <time>2023-09-03T10:38:20Z</time>
      </trkpt>
      <trkpt lat="49.30548" lon="0.25743">
        <ele>44.7</ele>
        <time>2023-09-03T10:38:21Z</time>
      </trkpt>
      <trkpt lat="49.30536" lon="0.25732">
        <ele>44</ele>
        <time>2023-09-03T10:38:22Z</time>
      </trkpt>
      <trkpt lat="49.30525" lon="0.25721">
        <ele>43.2</ele>
        <time>2023-09-03T10:38:23Z</time>
      </trkpt>
      <trkpt lat="49.30513" lon="0.25709">
        <ele>42.5</ele>
        <time>2023-09-03T10:38:24Z</time>
      </trkpt>
      <trkpt lat="49.30503" lon="0.25697">
        <ele>41.7</ele>
        <time>2023-09-03T10:38:25Z</time>
      </trkpt>
      <trkpt lat="49.30493" lon="0.25682">
        <ele>40.9</ele>
        <time>2023-09-03T10:38:26Z</time>
      </trkpt>
      <trkpt lat="49.30484" lon="0.25668">
        <ele>40.2</ele>
        <time>2023-09-03T10:38:27Z</time>
      </trkpt>
      <trkpt lat="49.30476" lon="0.25652">
        <ele>39.4</ele>
        <time>2023-09-03T10:38:28Z</time>
      </trkpt>
      <trkpt lat="49.30469" lon="0.25635">
        <ele>38.6</ele>
        <time>2023-09-03T10:38:29Z</time>
      </trkpt>
      <trkpt lat="49.30463" lon="0.25617">
        <ele>37.7</ele>
        <time>2023-09-03T10:38:30Z</time>
      </trkpt>
      <trkpt lat="49.30458" lon="0.25599">
        <ele>36.8</ele>
        <time>2023-09-03T10:38:31Z</time>
      </trkpt>
      <trkpt lat="49.30454" lon="0.2558">
        <ele>36</ele>
        <time>2023-09-03T10:38:32Z</time>
      </trkpt>
      <trkpt lat="49.3045" lon="0.2556">
        <ele>35.1</ele>
        <time>2023-09-03T10:38:33Z</time>
      </trkpt>
      <trkpt lat="49.30446" lon="0.25541">
        <ele>34.3</ele>
        <time>2023-09-03T10:38:34Z</time>
      </trkpt>
      <trkpt lat="49.30442" lon="0.25522">
        <ele>33.5</ele>
        <time>2023-09-03T10:38:35Z</time>
      </trkpt>
      <trkpt lat="49.30438" lon="0.25502">
        <ele>32.9</ele>
        <time>2023-09-03T10:38:36Z</time>
      </trkpt>
      <trkpt lat="49.30434" lon="0.25482">
        <ele>32.3</ele>
        <time>2023-09-03T10:38:37Z</time>
      </trkpt>
      <trkpt lat="49.3043" lon="0.25462">
        <ele>31.8</ele>
        <time>2023-09-03T10:38:38Z</time>
      </trkpt>
      <trkpt lat="49.30427" lon="0.25442">
        <ele>31.5</ele>
        <time>2023-09-03T10:38:39Z</time>
      </trkpt>
      <trkpt lat="49.30423" lon="0.25421">
        <ele>31.2</ele>
        <time>2023-09-03T10:38:40Z</time>
      </trkpt>
      <trkpt lat="49.30419" lon="0.25401">
        <ele>31</ele>
        <time>2023-09-03T10:38:41Z</time>
      </trkpt>
      <trkpt lat="49.30416" lon="0.25381">
        <ele>30.8</ele>
        <time>2023-09-03T10:38:42Z</time>
      </trkpt>
      <trkpt lat="49.30412" lon="0.25362">
        <ele>30.7</ele>
        <time>2023-09-03T10:38:43Z</time>
      </trkpt>
      <trkpt lat="49.30409" lon="0.25344">
        <ele>30.6</ele>
        <time>2023-09-03T10:38:44Z</time>
      </trkpt>
      <trkpt lat="49.30405" lon="0.25326">
        <ele>30.6</ele>
        <time>2023-09-03T10:38:45Z</time>
      </trkpt>
      <trkpt lat="49.30401" lon="0.25308">
        <ele>30.7</ele>
        <time>2023-09-03T10:38:46Z</time>
      </trkpt>
      <trkpt lat="49.30397" lon="0.2529">
        <ele>30.7</ele>
        <time>2023-09-03T10:38:47Z</time>
      </trkpt>
      <trkpt lat="49.30393" lon="0.25271">
        <ele>30.6</ele>
        <time>2023-09-03T10:38:48Z</time>
      </trkpt>
      <trkpt lat="49.30389" lon="0.25253">
        <ele>30.5</ele>
        <time>2023-09-03T10:38:49Z</time>
      </trkpt>
      <trkpt lat="49.30385" lon="0.25234">
        <ele>30.4</ele>
        <time>2023-09-03T10:38:50Z</time>
      </trkpt>
      <trkpt lat="49.30382" lon="0.25216">
        <ele>30.2</ele>
        <time>2023-09-03T10:38:51Z</time>
      </trkpt>
      <trkpt lat="49.30378" lon="0.25197">
        <ele>30.1</ele>
        <time>2023-09-03T10:38:52Z</time>
      </trkpt>
      <trkpt lat="49.30374" lon="0.25179">
        <ele>30.1</ele>
        <time>2023-09-03T10:38:53Z</time>
      </trkpt>
      <trkpt lat="49.30371" lon="0.25162">
        <ele>30.1</ele>
        <time>2023-09-03T10:38:54Z</time>
      </trkpt>
      <trkpt lat="49.30367" lon="0.25144">
        <ele>30</ele>
        <time>2023-09-03T10:38:55Z</time>
      </trkpt>
      <trkpt lat="49.30364" lon="0.25127">
        <ele>30</ele>
        <time>2023-09-03T10:38:56Z</time>
      </trkpt>
      <trkpt lat="49.3036" lon="0.2511">
        <ele>29.8</ele>
        <time>2023-09-03T10:38:57Z</time>
      </trkpt>
      <trkpt lat="49.30357" lon="0.25093">
        <ele>29.7</ele>
        <time>2023-09-03T10:38:58Z</time>
      </trkpt>
      <trkpt lat="49.30353" lon="0.25076">
        <ele>29.6</ele>
        <time>2023-09-03T10:38:59Z</time>
      </trkpt>
      <trkpt lat="49.3035" lon="0.2506">
        <ele>29.6</ele>
        <time>2023-09-03T10:39:00Z</time>
      </trkpt>
      <trkpt lat="49.30346" lon="0.25043">
        <ele>29.5</ele>
        <time>2023-09-03T10:39:01Z</time>
      </trkpt>
      <trkpt lat="49.30343" lon="0.25028">
        <ele>29.4</ele>
        <time>2023-09-03T10:39:02Z</time>
      </trkpt>
      <trkpt lat="49.3034" lon="0.25012">
        <ele>29.4</ele>
        <time>2023-09-03T10:39:03Z</time>
      </trkpt>
      <trkpt lat="49.30337" lon="0.24996">
        <ele>29.3</ele>
        <time>2023-09-03T10:39:04Z</time>
      </trkpt>
      <trkpt lat="49.30334" lon="0.24981">
        <ele>29.2</ele>
        <time>2023-09-03T10:39:05Z</time>
      </trkpt>
      <trkpt lat="49.30331" lon="0.24965">
        <ele>29.1</ele>
        <time>2023-09-03T10:39:06Z</time>
      </trkpt>
      <trkpt lat="49.30328" lon="0.2495">
        <ele>29.1</ele>
        <time>2023-09-03T10:39:07Z</time>
      </trkpt>
      <trkpt lat="49.30325" lon="0.24934">
        <ele>29.1</ele>
        <time>2023-09-03T10:39:08Z</time>
      </trkpt>
      <trkpt lat="49.30322" lon="0.24919">
        <ele>29.1</ele>
        <time>2023-09-03T10:39:09Z</time>
      </trkpt>
      <trkpt lat="49.3032" lon="0.24903">
        <ele>29.1</ele>
        <time>2023-09-03T10:39:10Z</time>
      </trkpt>
      <trkpt lat="49.30317" lon="0.24887">
        <ele>29.2</ele>
        <time>2023-09-03T10:39:11Z</time>
      </trkpt>
      <trkpt lat="49.30315" lon="0.24872">
        <ele>29.3</ele>
        <time>2023-09-03T10:39:12Z</time>
      </trkpt>
      <trkpt lat="49.30313" lon="0.24857">
        <ele>29.4</ele>
        <time>2023-09-03T10:39:13Z</time>
      </trkpt>
      <trkpt lat="49.3031" lon="0.24841">
        <ele>29.4</ele>
        <time>2023-09-03T10:39:14Z</time>
      </trkpt>
      <trkpt lat="49.30307" lon="0.24826">
        <ele>29.5</ele>
        <time>2023-09-03T10:39:15Z</time>
      </trkpt>
      <trkpt lat="49.30304" lon="0.2481">
        <ele>29.5</ele>
        <time>2023-09-03T10:39:16Z</time>
      </trkpt>
      <trkpt lat="49.30302" lon="0.24794">
        <ele>29.4</ele>
        <time>2023-09-03T10:39:17Z</time>
      </trkpt>
      <trkpt lat="49.30299" lon="0.24778">
        <ele>29.2</ele>
        <time>2023-09-03T10:39:18Z</time>
      </trkpt>
      <trkpt lat="49.30298" lon="0.24761">
        <ele>29</ele>
        <time>2023-09-03T10:39:19Z</time>
      </trkpt>
      <trkpt lat="49.30295" lon="0.24745">
        <ele>28.8</ele>
        <time>2023-09-03T10:39:20Z</time>
      </trkpt>
      <trkpt lat="49.30293" lon="0.24729">
        <ele>28.7</ele>
        <time>2023-09-03T10:39:21Z</time>
      </trkpt>
      <trkpt lat="49.3029" lon="0.24713">
        <ele>28.5</ele>
        <time>2023-09-03T10:39:22Z</time>
      </trkpt>
      <trkpt lat="49.30287" lon="0.24696">
        <ele>28.3</ele>
        <time>2023-09-03T10:39:23Z</time>
      </trkpt>
      <trkpt lat="49.30285" lon="0.24681">
        <ele>28.2</ele>
        <time>2023-09-03T10:39:24Z</time>
      </trkpt>
      <trkpt lat="49.30282" lon="0.24664">
        <ele>28</ele>
        <time>2023-09-03T10:39:25Z</time>
      </trkpt>
      <trkpt lat="49.3028" lon="0.24648">
        <ele>27.8</ele>
        <time>2023-09-03T10:39:26Z</time>
      </trkpt>
      <trkpt lat="49.30277" lon="0.24632">
        <ele>27.6</ele>
        <time>2023-09-03T10:39:27Z</time>
      </trkpt>
      <trkpt lat="49.30274" lon="0.24616">
        <ele>27.4</ele>
        <time>2023-09-03T10:39:28Z</time>
      </trkpt>
      <trkpt lat="49.30272" lon="0.246">
        <ele>27.2</ele>
        <time>2023-09-03T10:39:29Z</time>
      </trkpt>
      <trkpt lat="49.30269" lon="0.24584">
        <ele>26.9</ele>
        <time>2023-09-03T10:39:30Z</time>
      </trkpt>
      <trkpt lat="49.30266" lon="0.24568">
        <ele>26.7</ele>
        <time>2023-09-03T10:39:31Z</time>
      </trkpt>
      <trkpt lat="49.30264" lon="0.24551">
        <ele>26.4</ele>
        <time>2023-09-03T10:39:32Z</time>
      </trkpt>
      <trkpt lat="49.30261" lon="0.24535">
        <ele>26.3</ele>
        <time>2023-09-03T10:39:33Z</time>
      </trkpt>
      <trkpt lat="49.30259" lon="0.24519">
        <ele>26.1</ele>
        <time>2023-09-03T10:39:34Z</time>
      </trkpt>
      <trkpt lat="49.30256" lon="0.24504">
        <ele>25.9</ele>
        <time>2023-09-03T10:39:35Z</time>
      </trkpt>
      <trkpt lat="49.30254" lon="0.24488">
        <ele>25.9</ele>
        <time>2023-09-03T10:39:36Z</time>
      </trkpt>
      <trkpt lat="49.30252" lon="0.24473">
        <ele>25.8</ele>
        <time>2023-09-03T10:39:37Z</time>
      </trkpt>
      <trkpt lat="49.30249" lon="0.24458">
        <ele>25.7</ele>
        <time>2023-09-03T10:39:38Z</time>
      </trkpt>
      <trkpt lat="49.30247" lon="0.24444">
        <ele>25.6</ele>
        <time>2023-09-03T10:39:39Z</time>
      </trkpt>
      <trkpt lat="49.30245" lon="0.24429">
        <ele>25.5</ele>
        <time>2023-09-03T10:39:40Z</time>
      </trkpt>
      <trkpt lat="49.30243" lon="0.24415">
        <ele>25.4</ele>
        <time>2023-09-03T10:39:41Z</time>
      </trkpt>
      <trkpt lat="49.30241" lon="0.24401">
        <ele>25.3</ele>
        <time>2023-09-03T10:39:42Z</time>
      </trkpt>
      <trkpt lat="49.30239" lon="0.24387">
        <ele>25.3</ele>
        <time>2023-09-03T10:39:43Z</time>
      </trkpt>
      <trkpt lat="49.30237" lon="0.24374">
        <ele>25.2</ele>
        <time>2023-09-03T10:39:44Z</time>
      </trkpt>
      <trkpt lat="49.30235" lon="0.2436">
        <ele>25.1</ele>
        <time>2023-09-03T10:39:45Z</time>
      </trkpt>
      <trkpt lat="49.30232" lon="0.24346">
        <ele>25</ele>
        <time>2023-09-03T10:39:46Z</time>
      </trkpt>
      <trkpt lat="49.3023" lon="0.24333">
        <ele>25</ele>
        <time>2023-09-03T10:39:47Z</time>
      </trkpt>
      <trkpt lat="49.30227" lon="0.2432">
        <ele>25</ele>
        <time>2023-09-03T10:39:48Z</time>
      </trkpt>
      <trkpt lat="49.30225" lon="0.24306">
        <ele>25.1</ele>
        <time>2023-09-03T10:39:49Z</time>
      </trkpt>
      <trkpt lat="49.30222" lon="0.24291">
        <ele>25.2</ele>
        <time>2023-09-03T10:39:50Z</time>
      </trkpt>
      <trkpt lat="49.3022" lon="0.24278">
        <ele>25.2</ele>
        <time>2023-09-03T10:39:51Z</time>
      </trkpt>
      <trkpt lat="49.30218" lon="0.24264">
        <ele>25.3</ele>
        <time>2023-09-03T10:39:52Z</time>
      </trkpt>
      <trkpt lat="49.30216" lon="0.24252">
        <ele>25.4</ele>
        <time>2023-09-03T10:39:53Z</time>
      </trkpt>
      <trkpt lat="49.30215" lon="0.24239">
        <ele>25.4</ele>
        <time>2023-09-03T10:39:54Z</time>
      </trkpt>
      <trkpt lat="49.30212" lon="0.24226">
        <ele>25.5</ele>
        <time>2023-09-03T10:39:55Z</time>
      </trkpt>
      <trkpt lat="49.3021" lon="0.24213">
        <ele>25.5</ele>
        <time>2023-09-03T10:39:56Z</time>
      </trkpt>
      <trkpt lat="49.30208" lon="0.242">
        <ele>25.6</ele>
        <time>2023-09-03T10:39:57Z</time>
      </trkpt>
      <trkpt lat="49.30206" lon="0.24187">
        <ele>25.7</ele>
        <time>2023-09-03T10:39:58Z</time>
      </trkpt>
      <trkpt lat="49.30204" lon="0.24175">
        <ele>25.7</ele>
        <time>2023-09-03T10:39:59Z</time>
      </trkpt>
      <trkpt lat="49.30201" lon="0.24163">
        <ele>25.7</ele>
        <time>2023-09-03T10:40:00Z</time>
      </trkpt>
      <trkpt lat="49.30199" lon="0.24152">
        <ele>25.7</ele>
        <time>2023-09-03T10:40:01Z</time>
      </trkpt>
      <trkpt lat="49.30197" lon="0.24139">
        <ele>25.7</ele>
        <time>2023-09-03T10:40:02Z</time>
      </trkpt>
      <trkpt lat="49.30196" lon="0.24126">
        <ele>25.6</ele>
        <time>2023-09-03T10:40:03Z</time>
      </trkpt>
      <trkpt lat="49.30194" lon="0.24112">
        <ele>25.6</ele>
        <time>2023-09-03T10:40:04Z</time>
      </trkpt>
      <trkpt lat="49.30192" lon="0.24099">
        <ele>25.6</ele>
        <time>2023-09-03T10:40:05Z</time>
      </trkpt>
      <trkpt lat="49.30189" lon="0.24085">
        <ele>25.6</ele>
        <time>2023-09-03T10:40:06Z</time>
      </trkpt>
      <trkpt lat="49.30187" lon="0.24072">
        <ele>25.7</ele>
        <time>2023-09-03T10:40:07Z</time>
      </trkpt>
      <trkpt lat="49.30184" lon="0.24058">
        <ele>25.7</ele>
        <time>2023-09-03T10:40:08Z</time>
      </trkpt>
      <trkpt lat="49.30182" lon="0.24045">
        <ele>25.8</ele>
        <time>2023-09-03T10:40:09Z</time>
      </trkpt>
      <trkpt lat="49.30179" lon="0.24032">
        <ele>26</ele>
        <time>2023-09-03T10:40:10Z</time>
      </trkpt>
      <trkpt lat="49.30177" lon="0.24018">
        <ele>26.2</ele>
        <time>2023-09-03T10:40:11Z</time>
      </trkpt>
      <trkpt lat="49.30175" lon="0.24005">
        <ele>26.4</ele>
        <time>2023-09-03T10:40:12Z</time>
      </trkpt>
      <trkpt lat="49.30173" lon="0.23992">
        <ele>26.6</ele>
        <time>2023-09-03T10:40:13Z</time>
      </trkpt>
      <trkpt lat="49.30172" lon="0.2398">
        <ele>26.8</ele>
        <time>2023-09-03T10:40:14Z</time>
      </trkpt>
      <trkpt lat="49.3017" lon="0.23966">
        <ele>27.1</ele>
        <time>2023-09-03T10:40:15Z</time>
      </trkpt>
      <trkpt lat="49.30168" lon="0.23953">
        <ele>27.3</ele>
        <time>2023-09-03T10:40:16Z</time>
      </trkpt>
      <trkpt lat="49.30166" lon="0.2394">
        <ele>27.5</ele>
        <time>2023-09-03T10:40:17Z</time>
      </trkpt>
      <trkpt lat="49.30164" lon="0.23927">
        <ele>27.6</ele>
        <time>2023-09-03T10:40:18Z</time>
      </trkpt>
      <trkpt lat="49.30162" lon="0.23915">
        <ele>27.8</ele>
        <time>2023-09-03T10:40:19Z</time>
      </trkpt>
      <trkpt lat="49.3016" lon="0.23903">
        <ele>28</ele>
        <time>2023-09-03T10:40:20Z</time>
      </trkpt>
      <trkpt lat="49.30158" lon="0.2389">
        <ele>28.3</ele>
        <time>2023-09-03T10:40:21Z</time>
      </trkpt>
      <trkpt lat="49.30156" lon="0.23878">
        <ele>28.5</ele>
        <time>2023-09-03T10:40:22Z</time>
      </trkpt>
      <trkpt lat="49.30154" lon="0.23866">
        <ele>28.8</ele>
        <time>2023-09-03T10:40:23Z</time>
      </trkpt>
      <trkpt lat="49.30152" lon="0.23854">
        <ele>29</ele>
        <time>2023-09-03T10:40:24Z</time>
      </trkpt>
      <trkpt lat="49.3015" lon="0.23843">
        <ele>29.3</ele>
        <time>2023-09-03T10:40:25Z</time>
      </trkpt>
      <trkpt lat="49.30149" lon="0.2383">
        <ele>29.5</ele>
        <time>2023-09-03T10:40:26Z</time>
      </trkpt>
      <trkpt lat="49.30147" lon="0.23818">
        <ele>29.8</ele>
        <time>2023-09-03T10:40:27Z</time>
      </trkpt>
      <trkpt lat="49.30145" lon="0.23807">
        <ele>30</ele>
        <time>2023-09-03T10:40:28Z</time>
      </trkpt>
      <trkpt lat="49.30144" lon="0.23795">
        <ele>30.3</ele>
        <time>2023-09-03T10:40:29Z</time>
      </trkpt>
      <trkpt lat="49.30142" lon="0.23784">
        <ele>30.5</ele>
        <time>2023-09-03T10:40:30Z</time>
      </trkpt>
      <trkpt lat="49.3014" lon="0.23773">
        <ele>30.7</ele>
        <time>2023-09-03T10:40:31Z</time>
      </trkpt>
      <trkpt lat="49.30138" lon="0.23761">
        <ele>30.9</ele>
        <time>2023-09-03T10:40:32Z</time>
      </trkpt>
      <trkpt lat="49.30137" lon="0.2375">
        <ele>31.1</ele>
        <time>2023-09-03T10:40:33Z</time>
      </trkpt>
      <trkpt lat="49.30135" lon="0.23738">
        <ele>31.2</ele>
        <time>2023-09-03T10:40:34Z</time>
      </trkpt>
      <trkpt lat="49.30134" lon="0.23726">
        <ele>31.4</ele>
        <time>2023-09-03T10:40:35Z</time>
      </trkpt>
      <trkpt lat="49.30132" lon="0.23715">
        <ele>31.6</ele>
        <time>2023-09-03T10:40:36Z</time>
      </trkpt>
      <trkpt lat="49.30131" lon="0.23703">
        <ele>31.8</ele>
        <time>2023-09-03T10:40:37Z</time>
      </trkpt>
      <trkpt lat="49.30129" lon="0.23692">
        <ele>32</ele>
        <time>2023-09-03T10:40:38Z</time>
      </trkpt>
      <trkpt lat="49.30127" lon="0.23681">
        <ele>32.2</ele>
        <time>2023-09-03T10:40:39Z</time>
      </trkpt>
      <trkpt lat="49.30125" lon="0.23668">
        <ele>32.3</ele>
        <time>2023-09-03T10:40:40Z</time>
      </trkpt>
      <trkpt lat="49.30123" lon="0.23654">
        <ele>32.5</ele>
        <time>2023-09-03T10:40:41Z</time>
      </trkpt>
      <trkpt lat="49.3012" lon="0.2364">
        <ele>32.7</ele>
        <time>2023-09-03T10:40:42Z</time>
      </trkpt>
      <trkpt lat="49.30118" lon="0.23626">
        <ele>32.9</ele>
        <time>2023-09-03T10:40:43Z</time>
      </trkpt>
      <trkpt lat="49.30116" lon="0.23613">
        <ele>33.1</ele>
        <time>2023-09-03T10:40:44Z</time>
      </trkpt>
      <trkpt lat="49.30114" lon="0.23599">
        <ele>33.3</ele>
        <time>2023-09-03T10:40:45Z</time>
      </trkpt>
      <trkpt lat="49.30112" lon="0.23585">
        <ele>33.4</ele>
        <time>2023-09-03T10:40:46Z</time>
      </trkpt>
      <trkpt lat="49.30109" lon="0.23571">
        <ele>33.6</ele>
        <time>2023-09-03T10:40:47Z</time>
      </trkpt>
      <trkpt lat="49.30106" lon="0.23557">
        <ele>33.7</ele>
        <time>2023-09-03T10:40:48Z</time>
      </trkpt>
      <trkpt lat="49.30104" lon="0.23543">
        <ele>33.7</ele>
        <time>2023-09-03T10:40:49Z</time>
      </trkpt>
      <trkpt lat="49.30101" lon="0.23529">
        <ele>33.6</ele>
        <time>2023-09-03T10:40:50Z</time>
      </trkpt>
      <trkpt lat="49.30099" lon="0.23515">
        <ele>33.6</ele>
        <time>2023-09-03T10:40:51Z</time>
      </trkpt>
      <trkpt lat="49.30096" lon="0.235">
        <ele>33.6</ele>
        <time>2023-09-03T10:40:52Z</time>
      </trkpt>
      <trkpt lat="49.30094" lon="0.23486">
        <ele>33.5</ele>
        <time>2023-09-03T10:40:53Z</time>
      </trkpt>
      <trkpt lat="49.30092" lon="0.23472">
        <ele>33.5</ele>
        <time>2023-09-03T10:40:54Z</time>
      </trkpt>
      <trkpt lat="49.3009" lon="0.23458">
        <ele>33.5</ele>
        <time>2023-09-03T10:40:55Z</time>
      </trkpt>
      <trkpt lat="49.30087" lon="0.23444">
        <ele>33.5</ele>
        <time>2023-09-03T10:40:56Z</time>
      </trkpt>
      <trkpt lat="49.30085" lon="0.2343">
        <ele>33.4</ele>
        <time>2023-09-03T10:40:57Z</time>
      </trkpt>
      <trkpt lat="49.30083" lon="0.23417">
        <ele>33.4</ele>
        <time>2023-09-03T10:40:58Z</time>
      </trkpt>
      <trkpt lat="49.30081" lon="0.23403">
        <ele>33.3</ele>
        <time>2023-09-03T10:40:59Z</time>
      </trkpt>
      <trkpt lat="49.30079" lon="0.23389">
        <ele>33.2</ele>
        <time>2023-09-03T10:41:00Z</time>
      </trkpt>
      <trkpt lat="49.30077" lon="0.23376">
        <ele>33.1</ele>
        <time>2023-09-03T10:41:01Z</time>
      </trkpt>
      <trkpt lat="49.30074" lon="0.23362">
        <ele>33</ele>
        <time>2023-09-03T10:41:02Z</time>
      </trkpt>
      <trkpt lat="49.30072" lon="0.23349">
        <ele>32.9</ele>
        <time>2023-09-03T10:41:03Z</time>
      </trkpt>
      <trkpt lat="49.3007" lon="0.23336">
        <ele>32.7</ele>
        <time>2023-09-03T10:41:04Z</time>
      </trkpt>
      <trkpt lat="49.30068" lon="0.23323">
        <ele>32.5</ele>
        <time>2023-09-03T10:41:05Z</time>
      </trkpt>
      <trkpt lat="49.30066" lon="0.2331">
        <ele>32.4</ele>
        <time>2023-09-03T10:41:06Z</time>
      </trkpt>
      <trkpt lat="49.30064" lon="0.23297">
        <ele>32.2</ele>
        <time>2023-09-03T10:41:07Z</time>
      </trkpt>
      <trkpt lat="49.30061" lon="0.23284">
        <ele>32</ele>
        <time>2023-09-03T10:41:08Z</time>
      </trkpt>
      <trkpt lat="49.30059" lon="0.23271">
        <ele>31.8</ele>
        <time>2023-09-03T10:41:09Z</time>
      </trkpt>
      <trkpt lat="49.30057" lon="0.23259">
        <ele>31.6</ele>
        <time>2023-09-03T10:41:10Z</time>
      </trkpt>
      <trkpt lat="49.30055" lon="0.23246">
        <ele>31.5</ele>
        <time>2023-09-03T10:41:11Z</time>
      </trkpt>
      <trkpt lat="49.30053" lon="0.23232">
        <ele>31.3</ele>
        <time>2023-09-03T10:41:12Z</time>
      </trkpt>
      <trkpt lat="49.30051" lon="0.2322">
        <ele>31.2</ele>
        <time>2023-09-03T10:41:13Z</time>
      </trkpt>
      <trkpt lat="49.30048" lon="0.23207">
        <ele>31</ele>
        <time>2023-09-03T10:41:14Z</time>
      </trkpt>
      <trkpt lat="49.30046" lon="0.23194">
        <ele>30.8</ele>
        <time>2023-09-03T10:41:15Z</time>
      </trkpt>
      <trkpt lat="49.30045" lon="0.23181">
        <ele>30.6</ele>
        <time>2023-09-03T10:41:16Z</time>
      </trkpt>
      <trkpt lat="49.30042" lon="0.23168">
        <ele>30.3</ele>
        <time>2023-09-03T10:41:17Z</time>
      </trkpt>
      <trkpt lat="49.3004" lon="0.23155">
        <ele>30</ele>
        <time>2023-09-03T10:41:18Z</time>
      </trkpt>
      <trkpt lat="49.30038" lon="0.23141">
        <ele>29.7</ele>
        <time>2023-09-03T10:41:19Z</time>
      </trkpt>
      <trkpt lat="49.30036" lon="0.23128">
        <ele>29.4</ele>
        <time>2023-09-03T10:41:20Z</time>
      </trkpt>
      <trkpt lat="49.30034" lon="0.23114">
        <ele>29.2</ele>
        <time>2023-09-03T10:41:21Z</time>
      </trkpt>
      <trkpt lat="49.30031" lon="0.23099">
        <ele>28.9</ele>
        <time>2023-09-03T10:41:22Z</time>
      </trkpt>
      <trkpt lat="49.30029" lon="0.23085">
        <ele>28.7</ele>
        <time>2023-09-03T10:41:23Z</time>
      </trkpt>
      <trkpt lat="49.30027" lon="0.2307">
        <ele>28.5</ele>
        <time>2023-09-03T10:41:24Z</time>
      </trkpt>
      <trkpt lat="49.30024" lon="0.23056">
        <ele>28.3</ele>
        <time>2023-09-03T10:41:25Z</time>
      </trkpt>
      <trkpt lat="49.30022" lon="0.23042">
        <ele>28.1</ele>
        <time>2023-09-03T10:41:26Z</time>
      </trkpt>
      <trkpt lat="49.30019" lon="0.23027">
        <ele>28</ele>
        <time>2023-09-03T10:41:27Z</time>
      </trkpt>
      <trkpt lat="49.30017" lon="0.23012">
        <ele>27.9</ele>
        <time>2023-09-03T10:41:28Z</time>
      </trkpt>
      <trkpt lat="49.30015" lon="0.22997">
        <ele>27.7</ele>
        <time>2023-09-03T10:41:29Z</time>
      </trkpt>
      <trkpt lat="49.30012" lon="0.22981">
        <ele>27.6</ele>
        <time>2023-09-03T10:41:30Z</time>
      </trkpt>
      <trkpt lat="49.30009" lon="0.22965">
        <ele>27.6</ele>
        <time>2023-09-03T10:41:31Z</time>
      </trkpt>
      <trkpt lat="49.30007" lon="0.2295">
        <ele>27.6</ele>
        <time>2023-09-03T10:41:32Z</time>
      </trkpt>
      <trkpt lat="49.30004" lon="0.22934">
        <ele>27.6</ele>
        <time>2023-09-03T10:41:33Z</time>
      </trkpt>
      <trkpt lat="49.30002" lon="0.22918">
        <ele>27.5</ele>
        <time>2023-09-03T10:41:34Z</time>
      </trkpt>
      <trkpt lat="49.29999" lon="0.22903">
        <ele>27.4</ele>
        <time>2023-09-03T10:41:35Z</time>
      </trkpt>
      <trkpt lat="49.29997" lon="0.22887">
        <ele>27.5</ele>
        <time>2023-09-03T10:41:36Z</time>
      </trkpt>
      <trkpt lat="49.29995" lon="0.22872">
        <ele>27.5</ele>
        <time>2023-09-03T10:41:37Z</time>
      </trkpt>
      <trkpt lat="49.29992" lon="0.22857">
        <ele>27.6</ele>
        <time>2023-09-03T10:41:38Z</time>
      </trkpt>
      <trkpt lat="49.29989" lon="0.22842">
        <ele>27.7</ele>
        <time>2023-09-03T10:41:39Z</time>
      </trkpt>
      <trkpt lat="49.29987" lon="0.22827">
        <ele>27.8</ele>
        <time>2023-09-03T10:41:40Z</time>
      </trkpt>
      <trkpt lat="49.29985" lon="0.22812">
        <ele>27.9</ele>
        <time>2023-09-03T10:41:41Z</time>
      </trkpt>
      <trkpt lat="49.29982" lon="0.22797">
        <ele>28.1</ele>
        <time>2023-09-03T10:41:42Z</time>
      </trkpt>
      <trkpt lat="49.29979" lon="0.22783">
        <ele>28.3</ele>
        <time>2023-09-03T10:41:43Z</time>
      </trkpt>
      <trkpt lat="49.29976" lon="0.22768">
        <ele>28.4</ele>
        <time>2023-09-03T10:41:44Z</time>
      </trkpt>
      <trkpt lat="49.29974" lon="0.22754">
        <ele>28.6</ele>
        <time>2023-09-03T10:41:45Z</time>
      </trkpt>
      <trkpt lat="49.29972" lon="0.2274">
        <ele>28.7</ele>
        <time>2023-09-03T10:41:46Z</time>
      </trkpt>
      <trkpt lat="49.29969" lon="0.22726">
        <ele>28.9</ele>
        <time>2023-09-03T10:41:47Z</time>
      </trkpt>
      <trkpt lat="49.29967" lon="0.22713">
        <ele>29</ele>
        <time>2023-09-03T10:41:48Z</time>
      </trkpt>
      <trkpt lat="49.29965" lon="0.22699">
        <ele>29.1</ele>
        <time>2023-09-03T10:41:49Z</time>
      </trkpt>
      <trkpt lat="49.29962" lon="0.22685">
        <ele>29.2</ele>
        <time>2023-09-03T10:41:50Z</time>
      </trkpt>
      <trkpt lat="49.2996" lon="0.22672">
        <ele>29.3</ele>
        <time>2023-09-03T10:41:51Z</time>
      </trkpt>
      <trkpt lat="49.29958" lon="0.22658">
        <ele>29.4</ele>
        <time>2023-09-03T10:41:52Z</time>
      </trkpt>
      <trkpt lat="49.29956" lon="0.22645">
        <ele>29.5</ele>
        <time>2023-09-03T10:41:53Z</time>
      </trkpt>
      <trkpt lat="49.29954" lon="0.22631">
        <ele>29.6</ele>
        <time>2023-09-03T10:41:54Z</time>
      </trkpt>
      <trkpt lat="49.29952" lon="0.22618">
        <ele>29.8</ele>
        <time>2023-09-03T10:41:55Z</time>
      </trkpt>
      <trkpt lat="49.2995" lon="0.22605">
        <ele>29.9</ele>
        <time>2023-09-03T10:41:56Z</time>
      </trkpt>
      <trkpt lat="49.29947" lon="0.22592">
        <ele>30</ele>
        <time>2023-09-03T10:41:57Z</time>
      </trkpt>
      <trkpt lat="49.29945" lon="0.22579">
        <ele>30.1</ele>
        <time>2023-09-03T10:41:58Z</time>
      </trkpt>
      <trkpt lat="49.29943" lon="0.22566">
        <ele>30.2</ele>
        <time>2023-09-03T10:41:59Z</time>
      </trkpt>
      <trkpt lat="49.29941" lon="0.22554">
        <ele>30.3</ele>
        <time>2023-09-03T10:42:00Z</time>
      </trkpt>
      <trkpt lat="49.29939" lon="0.22541">
        <ele>30.4</ele>
        <time>2023-09-03T10:42:01Z</time>
      </trkpt>
      <trkpt lat="49.29938" lon="0.22529">
        <ele>30.5</ele>
        <time>2023-09-03T10:42:02Z</time>
      </trkpt>
      <trkpt lat="49.29936" lon="0.22517">
        <ele>30.6</ele>
        <time>2023-09-03T10:42:03Z</time>
      </trkpt>
      <trkpt lat="49.29934" lon="0.22504">
        <ele>30.6</ele>
        <time>2023-09-03T10:42:04Z</time>
      </trkpt>
      <trkpt lat="49.29932" lon="0.22491">
        <ele>30.7</ele>
        <time>2023-09-03T10:42:05Z</time>
      </trkpt>
      <trkpt lat="49.2993" lon="0.22478">
        <ele>30.8</ele>
        <time>2023-09-03T10:42:06Z</time>
      </trkpt>
      <trkpt lat="49.29928" lon="0.22464">
        <ele>30.8</ele>
        <time>2023-09-03T10:42:07Z</time>
      </trkpt>
      <trkpt lat="49.29926" lon="0.22451">
        <ele>30.9</ele>
        <time>2023-09-03T10:42:08Z</time>
      </trkpt>
      <trkpt lat="49.29923" lon="0.22438">
        <ele>31</ele>
        <time>2023-09-03T10:42:09Z</time>
      </trkpt>
      <trkpt lat="49.29921" lon="0.22425">
        <ele>31</ele>
        <time>2023-09-03T10:42:10Z</time>
      </trkpt>
      <trkpt lat="49.29918" lon="0.22411">
        <ele>31.1</ele>
        <time>2023-09-03T10:42:11Z</time>
      </trkpt>
      <trkpt lat="49.29916" lon="0.22397">
        <ele>31.1</ele>
        <time>2023-09-03T10:42:12Z</time>
      </trkpt>
      <trkpt lat="49.29914" lon="0.22384">
        <ele>31.1</ele>
        <time>2023-09-03T10:42:13Z</time>
      </trkpt>
      <trkpt lat="49.29912" lon="0.2237">
        <ele>31</ele>
        <time>2023-09-03T10:42:14Z</time>
      </trkpt>
      <trkpt lat="49.2991" lon="0.22355">
        <ele>30.8</ele>
        <time>2023-09-03T10:42:15Z</time>
      </trkpt>
      <trkpt lat="49.29908" lon="0.22341">
        <ele>30.7</ele>
        <time>2023-09-03T10:42:16Z</time>
      </trkpt>
      <trkpt lat="49.29906" lon="0.22326">
        <ele>30.7</ele>
        <time>2023-09-03T10:42:17Z</time>
      </trkpt>
      <trkpt lat="49.29903" lon="0.22311">
        <ele>30.7</ele>
        <time>2023-09-03T10:42:18Z</time>
      </trkpt>
      <trkpt lat="49.29901" lon="0.22297">
        <ele>30.6</ele>
        <time>2023-09-03T10:42:19Z</time>
      </trkpt>
      <trkpt lat="49.29899" lon="0.22283">
        <ele>30.6</ele>
        <time>2023-09-03T10:42:20Z</time>
      </trkpt>
      <trkpt lat="49.29896" lon="0.22269">
        <ele>30.5</ele>
        <time>2023-09-03T10:42:21Z</time>
      </trkpt>
      <trkpt lat="49.29894" lon="0.22256">
        <ele>30.5</ele>
        <time>2023-09-03T10:42:22Z</time>
      </trkpt>
      <trkpt lat="49.29892" lon="0.22242">
        <ele>30.5</ele>
        <time>2023-09-03T10:42:23Z</time>
      </trkpt>
      <trkpt lat="49.2989" lon="0.22228">
        <ele>30.5</ele>
        <time>2023-09-03T10:42:24Z</time>
      </trkpt>
      <trkpt lat="49.29888" lon="0.22215">
        <ele>30.6</ele>
        <time>2023-09-03T10:42:25Z</time>
      </trkpt>
      <trkpt lat="49.29886" lon="0.22202">
        <ele>30.7</ele>
        <time>2023-09-03T10:42:26Z</time>
      </trkpt>
      <trkpt lat="49.29884" lon="0.22189">
        <ele>30.9</ele>
        <time>2023-09-03T10:42:27Z</time>
      </trkpt>
      <trkpt lat="49.29882" lon="0.22177">
        <ele>31</ele>
        <time>2023-09-03T10:42:28Z</time>
      </trkpt>
      <trkpt lat="49.2988" lon="0.22164">
        <ele>31.2</ele>
        <time>2023-09-03T10:42:29Z</time>
      </trkpt>
      <trkpt lat="49.29878" lon="0.22152">
        <ele>31.3</ele>
        <time>2023-09-03T10:42:30Z</time>
      </trkpt>
      <trkpt lat="49.29876" lon="0.2214">
        <ele>31.4</ele>
        <time>2023-09-03T10:42:31Z</time>
      </trkpt>
      <trkpt lat="49.29874" lon="0.22129">
        <ele>31.5</ele>
        <time>2023-09-03T10:42:32Z</time>
      </trkpt>
      <trkpt lat="49.29873" lon="0.22117">
        <ele>31.7</ele>
        <time>2023-09-03T10:42:33Z</time>
      </trkpt>
      <trkpt lat="49.29871" lon="0.22105">
        <ele>31.8</ele>
        <time>2023-09-03T10:42:34Z</time>
      </trkpt>
      <trkpt lat="49.2987" lon="0.22093">
        <ele>31.9</ele>
        <time>2023-09-03T10:42:35Z</time>
      </trkpt>
      <trkpt lat="49.29868" lon="0.22082">
        <ele>32</ele>
        <time>2023-09-03T10:42:36Z</time>
      </trkpt>
      <trkpt lat="49.29867" lon="0.22071">
        <ele>32.2</ele>
        <time>2023-09-03T10:42:37Z</time>
      </trkpt>
      <trkpt lat="49.29866" lon="0.22061">
        <ele>32.3</ele>
        <time>2023-09-03T10:42:38Z</time>
      </trkpt>
      <trkpt lat="49.29865" lon="0.22051">
        <ele>32.4</ele>
        <time>2023-09-03T10:42:39Z</time>
      </trkpt>
      <trkpt lat="49.29865" lon="0.2204">
        <ele>32.5</ele>
        <time>2023-09-03T10:42:40Z</time>
      </trkpt>
      <trkpt lat="49.29864" lon="0.22029">
        <ele>32.5</ele>
        <time>2023-09-03T10:42:41Z</time>
      </trkpt>
      <trkpt lat="49.29863" lon="0.22018">
        <ele>32.6</ele>
        <time>2023-09-03T10:42:42Z</time>
      </trkpt>
      <trkpt lat="49.29861" lon="0.22006">
        <ele>32.7</ele>
        <time>2023-09-03T10:42:43Z</time>
      </trkpt>
      <trkpt lat="49.2986" lon="0.21993">
        <ele>32.7</ele>
        <time>2023-09-03T10:42:44Z</time>
      </trkpt>
      <trkpt lat="49.29858" lon="0.21981">
        <ele>32.8</ele>
        <time>2023-09-03T10:42:45Z</time>
      </trkpt>
      <trkpt lat="49.29857" lon="0.21969">
        <ele>32.8</ele>
        <time>2023-09-03T10:42:46Z</time>
      </trkpt>
      <trkpt lat="49.29856" lon="0.21956">
        <ele>32.8</ele>
        <time>2023-09-03T10:42:47Z</time>
      </trkpt>
      <trkpt lat="49.29855" lon="0.21945">
        <ele>32.7</ele>
        <time>2023-09-03T10:42:48Z</time>
      </trkpt>
      <trkpt lat="49.29854" lon="0.21933">
        <ele>32.7</ele>
        <time>2023-09-03T10:42:49Z</time>
      </trkpt>
      <trkpt lat="49.29853" lon="0.21921">
        <ele>32.7</ele>
        <time>2023-09-03T10:42:50Z</time>
      </trkpt>
      <trkpt lat="49.29852" lon="0.21909">
        <ele>32.6</ele>
        <time>2023-09-03T10:42:51Z</time>
      </trkpt>
      <trkpt lat="49.29851" lon="0.21897">
        <ele>32.6</ele>
        <time>2023-09-03T10:42:52Z</time>
      </trkpt>
      <trkpt lat="49.29849" lon="0.21885">
        <ele>32.6</ele>
        <time>2023-09-03T10:42:53Z</time>
      </trkpt>
      <trkpt lat="49.29849" lon="0.21872">
        <ele>32.5</ele>
        <time>2023-09-03T10:42:54Z</time>
      </trkpt>
      <trkpt lat="49.29847" lon="0.2186">
        <ele>32.5</ele>
        <time>2023-09-03T10:42:55Z</time>
      </trkpt>
      <trkpt lat="49.29846" lon="0.21847">
        <ele>32.5</ele>
        <time>2023-09-03T10:42:56Z</time>
      </trkpt>
      <trkpt lat="49.29844" lon="0.21834">
        <ele>32.4</ele>
        <time>2023-09-03T10:42:57Z</time>
      </trkpt>
      <trkpt lat="49.29843" lon="0.21822">
        <ele>32.4</ele>
        <time>2023-09-03T10:42:58Z</time>
      </trkpt>
      <trkpt lat="49.29842" lon="0.2181">
        <ele>32.3</ele>
        <time>2023-09-03T10:42:59Z</time>
      </trkpt>
      <trkpt lat="49.29841" lon="0.21797">
        <ele>32.2</ele>
        <time>2023-09-03T10:43:00Z</time>
      </trkpt>
      <trkpt lat="49.2984" lon="0.21784">
        <ele>32.1</ele>
        <time>2023-09-03T10:43:01Z</time>
      </trkpt>
      <trkpt lat="49.29839" lon="0.21771">
        <ele>32.1</ele>
        <time>2023-09-03T10:43:02Z</time>
      </trkpt>
      <trkpt lat="49.29838" lon="0.21759">
        <ele>32.1</ele>
        <time>2023-09-03T10:43:03Z</time>
      </trkpt>
      <trkpt lat="49.29836" lon="0.21746">
        <ele>32</ele>
        <time>2023-09-03T10:43:04Z</time>
      </trkpt>
      <trkpt lat="49.29835" lon="0.21734">
        <ele>32</ele>
        <time>2023-09-03T10:43:05Z</time>
      </trkpt>
      <trkpt lat="49.29834" lon="0.21721">
        <ele>31.8</ele>
        <time>2023-09-03T10:43:06Z</time>
      </trkpt>
      <trkpt lat="49.29833" lon="0.21708">
        <ele>31.6</ele>
        <time>2023-09-03T10:43:07Z</time>
      </trkpt>
      <trkpt lat="49.29832" lon="0.21694">
        <ele>31.3</ele>
        <time>2023-09-03T10:43:08Z</time>
      </trkpt>
      <trkpt lat="49.29831" lon="0.21681">
        <ele>31</ele>
        <time>2023-09-03T10:43:09Z</time>
      </trkpt>
      <trkpt lat="49.29829" lon="0.21668">
        <ele>30.6</ele>
        <time>2023-09-03T10:43:10Z</time>
      </trkpt>
      <trkpt lat="49.29828" lon="0.21655">
        <ele>30.3</ele>
        <time>2023-09-03T10:43:11Z</time>
      </trkpt>
      <trkpt lat="49.29827" lon="0.21641">
        <ele>30</ele>
        <time>2023-09-03T10:43:12Z</time>
      </trkpt>
      <trkpt lat="49.29825" lon="0.21627">
        <ele>29.6</ele>
        <time>2023-09-03T10:43:13Z</time>
      </trkpt>
      <trkpt lat="49.29824" lon="0.21613">
        <ele>29.3</ele>
        <time>2023-09-03T10:43:14Z</time>
      </trkpt>
      <trkpt lat="49.29823" lon="0.21599">
        <ele>28.9</ele>
        <time>2023-09-03T10:43:15Z</time>
      </trkpt>
      <trkpt lat="49.29822" lon="0.21586">
        <ele>28.6</ele>
        <time>2023-09-03T10:43:16Z</time>
      </trkpt>
      <trkpt lat="49.29821" lon="0.21572">
        <ele>28.2</ele>
        <time>2023-09-03T10:43:17Z</time>
      </trkpt>
      <trkpt lat="49.2982" lon="0.21557">
        <ele>27.8</ele>
        <time>2023-09-03T10:43:18Z</time>
      </trkpt>
      <trkpt lat="49.29818" lon="0.21543">
        <ele>27.5</ele>
        <time>2023-09-03T10:43:19Z</time>
      </trkpt>
      <trkpt lat="49.29817" lon="0.21529">
        <ele>27.2</ele>
        <time>2023-09-03T10:43:20Z</time>
      </trkpt>
      <trkpt lat="49.29815" lon="0.21514">
        <ele>26.9</ele>
        <time>2023-09-03T10:43:21Z</time>
      </trkpt>
      <trkpt lat="49.29814" lon="0.215">
        <ele>26.6</ele>
        <time>2023-09-03T10:43:22Z</time>
      </trkpt>
      <trkpt lat="49.29813" lon="0.21487">
        <ele>26.2</ele>
        <time>2023-09-03T10:43:23Z</time>
      </trkpt>
      <trkpt lat="49.29811" lon="0.21473">
        <ele>25.9</ele>
        <time>2023-09-03T10:43:24Z</time>
      </trkpt>
      <trkpt lat="49.2981" lon="0.21457">
        <ele>25.5</ele>
        <time>2023-09-03T10:43:25Z</time>
      </trkpt>
      <trkpt lat="49.29808" lon="0.21441">
        <ele>25.2</ele>
        <time>2023-09-03T10:43:26Z</time>
      </trkpt>
      <trkpt lat="49.29807" lon="0.21425">
        <ele>24.9</ele>
        <time>2023-09-03T10:43:27Z</time>
      </trkpt>
      <trkpt lat="49.29805" lon="0.2141">
        <ele>24.6</ele>
        <time>2023-09-03T10:43:28Z</time>
      </trkpt>
      <trkpt lat="49.29804" lon="0.21394">
        <ele>24.4</ele>
        <time>2023-09-03T10:43:29Z</time>
      </trkpt>
      <trkpt lat="49.29803" lon="0.21378">
        <ele>24.2</ele>
        <time>2023-09-03T10:43:30Z</time>
      </trkpt>
      <trkpt lat="49.29802" lon="0.21362">
        <ele>24</ele>
        <time>2023-09-03T10:43:31Z</time>
      </trkpt>
      <trkpt lat="49.29801" lon="0.21347">
        <ele>23.9</ele>
        <time>2023-09-03T10:43:32Z</time>
      </trkpt>
      <trkpt lat="49.29799" lon="0.21332">
        <ele>23.8</ele>
        <time>2023-09-03T10:43:33Z</time>
      </trkpt>
      <trkpt lat="49.29798" lon="0.21317">
        <ele>23.7</ele>
        <time>2023-09-03T10:43:34Z</time>
      </trkpt>
      <trkpt lat="49.29796" lon="0.21303">
        <ele>23.6</ele>
        <time>2023-09-03T10:43:35Z</time>
      </trkpt>
      <trkpt lat="49.29795" lon="0.21288">
        <ele>23.6</ele>
        <time>2023-09-03T10:43:36Z</time>
      </trkpt>
      <trkpt lat="49.29793" lon="0.21273">
        <ele>23.6</ele>
        <time>2023-09-03T10:43:37Z</time>
      </trkpt>
      <trkpt lat="49.29792" lon="0.21259">
        <ele>23.6</ele>
        <time>2023-09-03T10:43:38Z</time>
      </trkpt>
      <trkpt lat="49.29791" lon="0.21245">
        <ele>23.6</ele>
        <time>2023-09-03T10:43:39Z</time>
      </trkpt>
      <trkpt lat="49.29789" lon="0.21231">
        <ele>23.6</ele>
        <time>2023-09-03T10:43:40Z</time>
      </trkpt>
      <trkpt lat="49.29788" lon="0.21217">
        <ele>23.6</ele>
        <time>2023-09-03T10:43:41Z</time>
      </trkpt>
      <trkpt lat="49.29787" lon="0.21203">
        <ele>23.6</ele>
        <time>2023-09-03T10:43:42Z</time>
      </trkpt>
      <trkpt lat="49.29786" lon="0.2119">
        <ele>23.6</ele>
        <time>2023-09-03T10:43:43Z</time>
      </trkpt>
      <trkpt lat="49.29785" lon="0.21177">
        <ele>23.6</ele>
        <time>2023-09-03T10:43:44Z</time>
      </trkpt>
      <trkpt lat="49.29783" lon="0.21163">
        <ele>23.6</ele>
        <time>2023-09-03T10:43:45Z</time>
      </trkpt>
      <trkpt lat="49.29782" lon="0.21149">
        <ele>23.6</ele>
        <time>2023-09-03T10:43:46Z</time>
      </trkpt>
      <trkpt lat="49.29781" lon="0.21135">
        <ele>23.6</ele>
        <time>2023-09-03T10:43:47Z</time>
      </trkpt>
      <trkpt lat="49.29779" lon="0.21122">
        <ele>23.6</ele>
        <time>2023-09-03T10:43:48Z</time>
      </trkpt>
      <trkpt lat="49.29777" lon="0.21108">
        <ele>23.6</ele>
        <time>2023-09-03T10:43:49Z</time>
      </trkpt>
      <trkpt lat="49.29776" lon="0.21095">
        <ele>23.6</ele>
        <time>2023-09-03T10:43:50Z</time>
      </trkpt>
      <trkpt lat="49.29775" lon="0.21081">
        <ele>23.5</ele>
        <time>2023-09-03T10:43:51Z</time>
      </trkpt>
      <trkpt lat="49.29773" lon="0.21067">
        <ele>23.5</ele>
        <time>2023-09-03T10:43:52Z</time>
      </trkpt>
      <trkpt lat="49.29772" lon="0.21054">
        <ele>23.4</ele>
        <time>2023-09-03T10:43:53Z</time>
      </trkpt>
      <trkpt lat="49.29772" lon="0.21041">
        <ele>23.4</ele>
        <time>2023-09-03T10:43:54Z</time>
      </trkpt>
      <trkpt lat="49.29771" lon="0.21027">
        <ele>23.4</ele>
        <time>2023-09-03T10:43:55Z</time>
      </trkpt>
      <trkpt lat="49.29769" lon="0.21014">
        <ele>23.4</ele>
        <time>2023-09-03T10:43:56Z</time>
      </trkpt>
      <trkpt lat="49.29768" lon="0.21001">
        <ele>23.4</ele>
        <time>2023-09-03T10:43:57Z</time>
      </trkpt>
      <trkpt lat="49.29767" lon="0.20989">
        <ele>23.4</ele>
        <time>2023-09-03T10:43:58Z</time>
      </trkpt>
      <trkpt lat="49.29766" lon="0.20977">
        <ele>23.5</ele>
        <time>2023-09-03T10:43:59Z</time>
      </trkpt>
      <trkpt lat="49.29765" lon="0.20966">
        <ele>23.5</ele>
        <time>2023-09-03T10:44:00Z</time>
      </trkpt>
      <trkpt lat="49.29764" lon="0.20954">
        <ele>23.5</ele>
        <time>2023-09-03T10:44:01Z</time>
      </trkpt>
      <trkpt lat="49.29763" lon="0.20943">
        <ele>23.5</ele>
        <time>2023-09-03T10:44:02Z</time>
      </trkpt>
      <trkpt lat="49.29761" lon="0.20931">
        <ele>23.5</ele>
        <time>2023-09-03T10:44:03Z</time>
      </trkpt>
      <trkpt lat="49.2976" lon="0.2092">
        <ele>23.4</ele>
        <time>2023-09-03T10:44:04Z</time>
      </trkpt>
      <trkpt lat="49.2976" lon="0.20909">
        <ele>23.4</ele>
        <time>2023-09-03T10:44:05Z</time>
      </trkpt>
      <trkpt lat="49.29758" lon="0.20899">
        <ele>23.3</ele>
        <time>2023-09-03T10:44:06Z</time>
      </trkpt>
      <trkpt lat="49.29757" lon="0.20888">
        <ele>23.3</ele>
        <time>2023-09-03T10:44:07Z</time>
      </trkpt>
      <trkpt lat="49.29757" lon="0.20877">
        <ele>23.3</ele>
        <time>2023-09-03T10:44:08Z</time>
      </trkpt>
      <trkpt lat="49.29756" lon="0.20866">
        <ele>23.2</ele>
        <time>2023-09-03T10:44:09Z</time>
      </trkpt>
      <trkpt lat="49.29755" lon="0.20855">
        <ele>23.2</ele>
        <time>2023-09-03T10:44:10Z</time>
      </trkpt>
      <trkpt lat="49.29754" lon="0.20843">
        <ele>23.1</ele>
        <time>2023-09-03T10:44:11Z</time>
      </trkpt>
      <trkpt lat="49.29753" lon="0.20832">
        <ele>23</ele>
        <time>2023-09-03T10:44:12Z</time>
      </trkpt>
      <trkpt lat="49.29752" lon="0.2082">
        <ele>23</ele>
        <time>2023-09-03T10:44:13Z</time>
      </trkpt>
      <trkpt lat="49.29751" lon="0.20808">
        <ele>22.9</ele>
        <time>2023-09-03T10:44:14Z</time>
      </trkpt>
      <trkpt lat="49.2975" lon="0.20795">
        <ele>22.9</ele>
        <time>2023-09-03T10:44:15Z</time>
      </trkpt>
      <trkpt lat="49.29749" lon="0.20782">
        <ele>22.8</ele>
        <time>2023-09-03T10:44:16Z</time>
      </trkpt>
      <trkpt lat="49.29747" lon="0.20769">
        <ele>22.8</ele>
        <time>2023-09-03T10:44:17Z</time>
      </trkpt>
      <trkpt lat="49.29746" lon="0.20755">
        <ele>22.8</ele>
        <time>2023-09-03T10:44:18Z</time>
      </trkpt>
      <trkpt lat="49.29745" lon="0.20742">
        <ele>22.8</ele>
        <time>2023-09-03T10:44:19Z</time>
      </trkpt>
      <trkpt lat="49.29743" lon="0.20729">
        <ele>22.8</ele>
        <time>2023-09-03T10:44:20Z</time>
      </trkpt>
      <trkpt lat="49.29741" lon="0.20716">
        <ele>22.7</ele>
        <time>2023-09-03T10:44:21Z</time>
      </trkpt>
      <trkpt lat="49.29739" lon="0.20702">
        <ele>22.7</ele>
        <time>2023-09-03T10:44:22Z</time>
      </trkpt>
      <trkpt lat="49.29737" lon="0.20688">
        <ele>22.7</ele>
        <time>2023-09-03T10:44:23Z</time>
      </trkpt>
      <trkpt lat="49.29736" lon="0.20674">
        <ele>22.7</ele>
        <time>2023-09-03T10:44:24Z</time>
      </trkpt>
      <trkpt lat="49.29734" lon="0.2066">
        <ele>22.7</ele>
        <time>2023-09-03T10:44:25Z</time>
      </trkpt>
      <trkpt lat="49.29732" lon="0.20646">
        <ele>22.6</ele>
        <time>2023-09-03T10:44:26Z</time>
      </trkpt>
      <trkpt lat="49.29729" lon="0.20632">
        <ele>22.6</ele>
        <time>2023-09-03T10:44:27Z</time>
      </trkpt>
      <trkpt lat="49.29727" lon="0.20618">
        <ele>22.5</ele>
        <time>2023-09-03T10:44:28Z</time>
      </trkpt>
      <trkpt lat="49.29724" lon="0.20604">
        <ele>22.4</ele>
        <time>2023-09-03T10:44:29Z</time>
      </trkpt>
      <trkpt lat="49.29722" lon="0.2059">
        <ele>22.3</ele>
        <time>2023-09-03T10:44:30Z</time>
      </trkpt>
      <trkpt lat="49.29719" lon="0.20577">
        <ele>22.2</ele>
        <time>2023-09-03T10:44:31Z</time>
      </trkpt>
      <trkpt lat="49.29716" lon="0.20563">
        <ele>22.1</ele>
        <time>2023-09-03T10:44:32Z</time>
      </trkpt>
      <trkpt lat="49.29713" lon="0.20549">
        <ele>21.9</ele>
        <time>2023-09-03T10:44:33Z</time>
      </trkpt>
      <trkpt lat="49.2971" lon="0.20535">
        <ele>21.8</ele>
        <time>2023-09-03T10:44:34Z</time>
      </trkpt>
      <trkpt lat="49.29707" lon="0.20522">
        <ele>21.7</ele>
        <time>2023-09-03T10:44:35Z</time>
      </trkpt>
      <trkpt lat="49.29703" lon="0.20508">
        <ele>21.6</ele>
        <time>2023-09-03T10:44:36Z</time>
      </trkpt>
      <trkpt lat="49.29699" lon="0.20495">
        <ele>21.5</ele>
        <time>2023-09-03T10:44:37Z</time>
      </trkpt>
      <trkpt lat="49.29695" lon="0.20482">
        <ele>21.3</ele>
        <time>2023-09-03T10:44:38Z</time>
      </trkpt>
      <trkpt lat="49.29691" lon="0.20469">
        <ele>21.2</ele>
        <time>2023-09-03T10:44:39Z</time>
      </trkpt>
      <trkpt lat="49.29688" lon="0.20456">
        <ele>21.1</ele>
        <time>2023-09-03T10:44:40Z</time>
      </trkpt>
      <trkpt lat="49.29684" lon="0.20443">
        <ele>21</ele>
        <time>2023-09-03T10:44:41Z</time>
      </trkpt>
      <trkpt lat="49.29679" lon="0.2043">
        <ele>20.9</ele>
        <time>2023-09-03T10:44:42Z</time>
      </trkpt>
      <trkpt lat="49.29675" lon="0.20418">
        <ele>20.8</ele>
        <time>2023-09-03T10:44:43Z</time>
      </trkpt>
      <trkpt lat="49.29671" lon="0.20405">
        <ele>20.6</ele>
        <time>2023-09-03T10:44:44Z</time>
      </trkpt>
      <trkpt lat="49.29667" lon="0.20393">
        <ele>20.6</ele>
        <time>2023-09-03T10:44:45Z</time>
      </trkpt>
      <trkpt lat="49.29663" lon="0.2038">
        <ele>20.5</ele>
        <time>2023-09-03T10:44:46Z</time>
      </trkpt>
      <trkpt lat="49.29659" lon="0.20367">
        <ele>20.5</ele>
        <time>2023-09-03T10:44:47Z</time>
      </trkpt>
      <trkpt lat="49.29655" lon="0.20354">
        <ele>20.3</ele>
        <time>2023-09-03T10:44:48Z</time>
      </trkpt>
      <trkpt lat="49.29651" lon="0.20341">
        <ele>20.2</ele>
        <time>2023-09-03T10:44:49Z</time>
      </trkpt>
      <trkpt lat="49.29646" lon="0.20328">
        <ele>20.2</ele>
        <time>2023-09-03T10:44:50Z</time>
      </trkpt>
      <trkpt lat="49.29642" lon="0.20315">
        <ele>20.1</ele>
        <time>2023-09-03T10:44:51Z</time>
      </trkpt>
      <trkpt lat="49.29638" lon="0.20303">
        <ele>20.1</ele>
        <time>2023-09-03T10:44:52Z</time>
      </trkpt>
      <trkpt lat="49.29634" lon="0.20291">
        <ele>20</ele>
        <time>2023-09-03T10:44:53Z</time>
      </trkpt>
      <trkpt lat="49.2963" lon="0.20277">
        <ele>19.9</ele>
        <time>2023-09-03T10:44:54Z</time>
      </trkpt>
      <trkpt lat="49.29626" lon="0.20264">
        <ele>19.8</ele>
        <time>2023-09-03T10:44:55Z</time>
      </trkpt>
      <trkpt lat="49.29622" lon="0.2025">
        <ele>19.7</ele>
        <time>2023-09-03T10:44:56Z</time>
      </trkpt>
      <trkpt lat="49.29618" lon="0.20238">
        <ele>19.6</ele>
        <time>2023-09-03T10:44:57Z</time>
      </trkpt>
      <trkpt lat="49.29613" lon="0.20225">
        <ele>19.5</ele>
        <time>2023-09-03T10:44:58Z</time>
      </trkpt>
      <trkpt lat="49.29609" lon="0.20212">
        <ele>19.4</ele>
        <time>2023-09-03T10:44:59Z</time>
      </trkpt>
      <trkpt lat="49.29604" lon="0.20199">
        <ele>19.3</ele>
        <time>2023-09-03T10:45:00Z</time>
      </trkpt>
      <trkpt lat="49.296" lon="0.20186">
        <ele>19.2</ele>
        <time>2023-09-03T10:45:01Z</time>
      </trkpt>
      <trkpt lat="49.29596" lon="0.20173">
        <ele>19.2</ele>
        <time>2023-09-03T10:45:02Z</time>
      </trkpt>
      <trkpt lat="49.29592" lon="0.2016">
        <ele>19.1</ele>
        <time>2023-09-03T10:45:03Z</time>
      </trkpt>
      <trkpt lat="49.29588" lon="0.20148">
        <ele>19</ele>
        <time>2023-09-03T10:45:04Z</time>
      </trkpt>
      <trkpt lat="49.29584" lon="0.20135">
        <ele>18.9</ele>
        <time>2023-09-03T10:45:05Z</time>
      </trkpt>
      <trkpt lat="49.2958" lon="0.20123">
        <ele>18.8</ele>
        <time>2023-09-03T10:45:06Z</time>
      </trkpt>
      <trkpt lat="49.29576" lon="0.20109">
        <ele>18.7</ele>
        <time>2023-09-03T10:45:07Z</time>
      </trkpt>
      <trkpt lat="49.29572" lon="0.20097">
        <ele>18.6</ele>
        <time>2023-09-03T10:45:08Z</time>
      </trkpt>
      <trkpt lat="49.29568" lon="0.20084">
        <ele>18.5</ele>
        <time>2023-09-03T10:45:09Z</time>
      </trkpt>
      <trkpt lat="49.29564" lon="0.20072">
        <ele>18.4</ele>
        <time>2023-09-03T10:45:10Z</time>
      </trkpt>
      <trkpt lat="49.2956" lon="0.20059">
        <ele>18.3</ele>
        <time>2023-09-03T10:45:11Z</time>
      </trkpt>
      <trkpt lat="49.29556" lon="0.20047">
        <ele>18.2</ele>
        <time>2023-09-03T10:45:12Z</time>
      </trkpt>
      <trkpt lat="49.29552" lon="0.20035">
        <ele>18.1</ele>
        <time>2023-09-03T10:45:13Z</time>
      </trkpt>
      <trkpt lat="49.29548" lon="0.20023">
        <ele>18</ele>
        <time>2023-09-03T10:45:14Z</time>
      </trkpt>
      <trkpt lat="49.29544" lon="0.2001">
        <ele>17.9</ele>
        <time>2023-09-03T10:45:15Z</time>
      </trkpt>
      <trkpt lat="49.2954" lon="0.19997">
        <ele>17.8</ele>
        <time>2023-09-03T10:45:16Z</time>
      </trkpt>
      <trkpt lat="49.29536" lon="0.19985">
        <ele>17.7</ele>
        <time>2023-09-03T10:45:17Z</time>
      </trkpt>
      <trkpt lat="49.29532" lon="0.19972">
        <ele>17.6</ele>
        <time>2023-09-03T10:45:18Z</time>
      </trkpt>
      <trkpt lat="49.29527" lon="0.19959">
        <ele>17.6</ele>
        <time>2023-09-03T10:45:19Z</time>
      </trkpt>
      <trkpt lat="49.29523" lon="0.19947">
        <ele>17.5</ele>
        <time>2023-09-03T10:45:20Z</time>
      </trkpt>
      <trkpt lat="49.29518" lon="0.19936">
        <ele>17.4</ele>
        <time>2023-09-03T10:45:21Z</time>
      </trkpt>
      <trkpt lat="49.29513" lon="0.19924">
        <ele>17.4</ele>
        <time>2023-09-03T10:45:22Z</time>
      </trkpt>
      <trkpt lat="49.29508" lon="0.19913">
        <ele>17.4</ele>
        <time>2023-09-03T10:45:23Z</time>
      </trkpt>
      <trkpt lat="49.29503" lon="0.19902">
        <ele>17.3</ele>
        <time>2023-09-03T10:45:24Z</time>
      </trkpt>
      <trkpt lat="49.29498" lon="0.19891">
        <ele>17.3</ele>
        <time>2023-09-03T10:45:25Z</time>
      </trkpt>
      <trkpt lat="49.29494" lon="0.1988">
        <ele>17.3</ele>
        <time>2023-09-03T10:45:26Z</time>
      </trkpt>
      <trkpt lat="49.29491" lon="0.19868">
        <ele>17.2</ele>
        <time>2023-09-03T10:45:27Z</time>
      </trkpt>
      <trkpt lat="49.29488" lon="0.19856">
        <ele>17.2</ele>
        <time>2023-09-03T10:45:28Z</time>
      </trkpt>
      <trkpt lat="49.29485" lon="0.19844">
        <ele>17.1</ele>
        <time>2023-09-03T10:45:29Z</time>
      </trkpt>
      <trkpt lat="49.29481" lon="0.19832">
        <ele>17</ele>
        <time>2023-09-03T10:45:30Z</time>
      </trkpt>
      <trkpt lat="49.29478" lon="0.1982">
        <ele>16.9</ele>
        <time>2023-09-03T10:45:31Z</time>
      </trkpt>
      <trkpt lat="49.29475" lon="0.19806">
        <ele>16.7</ele>
        <time>2023-09-03T10:45:32Z</time>
      </trkpt>
      <trkpt lat="49.29472" lon="0.19793">
        <ele>16.6</ele>
        <time>2023-09-03T10:45:33Z</time>
      </trkpt>
      <trkpt lat="49.29469" lon="0.19779">
        <ele>16.5</ele>
        <time>2023-09-03T10:45:34Z</time>
      </trkpt>
      <trkpt lat="49.29465" lon="0.19766">
        <ele>16.3</ele>
        <time>2023-09-03T10:45:35Z</time>
      </trkpt>
      <trkpt lat="49.29461" lon="0.19753">
        <ele>16.2</ele>
        <time>2023-09-03T10:45:36Z</time>
      </trkpt>
      <trkpt lat="49.29458" lon="0.19742">
        <ele>16.1</ele>
        <time>2023-09-03T10:45:37Z</time>
      </trkpt>
      <trkpt lat="49.29454" lon="0.1973">
        <ele>16</ele>
        <time>2023-09-03T10:45:38Z</time>
      </trkpt>
      <trkpt lat="49.2945" lon="0.19718">
        <ele>15.9</ele>
        <time>2023-09-03T10:45:39Z</time>
      </trkpt>
      <trkpt lat="49.29445" lon="0.19706">
        <ele>15.9</ele>
        <time>2023-09-03T10:45:40Z</time>
      </trkpt>
      <trkpt lat="49.29439" lon="0.19694">
        <ele>15.7</ele>
        <time>2023-09-03T10:45:41Z</time>
      </trkpt>
      <trkpt lat="49.29433" lon="0.19683">
        <ele>15.6</ele>
        <time>2023-09-03T10:45:42Z</time>
      </trkpt>
      <trkpt lat="49.29428" lon="0.1967">
        <ele>15.5</ele>
        <time>2023-09-03T10:45:43Z</time>
      </trkpt>
      <trkpt lat="49.29424" lon="0.19657">
        <ele>15.4</ele>
        <time>2023-09-03T10:45:44Z</time>
      </trkpt>
      <trkpt lat="49.2942" lon="0.19644">
        <ele>15.3</ele>
        <time>2023-09-03T10:45:45Z</time>
      </trkpt>
      <trkpt lat="49.29415" lon="0.19631">
        <ele>15.1</ele>
        <time>2023-09-03T10:45:46Z</time>
      </trkpt>
      <trkpt lat="49.29412" lon="0.19618">
        <ele>15</ele>
        <time>2023-09-03T10:45:47Z</time>
      </trkpt>
      <trkpt lat="49.29409" lon="0.19604">
        <ele>14.9</ele>
        <time>2023-09-03T10:45:48Z</time>
      </trkpt>
      <trkpt lat="49.29406" lon="0.1959">
        <ele>14.7</ele>
        <time>2023-09-03T10:45:49Z</time>
      </trkpt>
      <trkpt lat="49.29403" lon="0.19577">
        <ele>14.6</ele>
        <time>2023-09-03T10:45:50Z</time>
      </trkpt>
      <trkpt lat="49.29398" lon="0.19564">
        <ele>14.5</ele>
        <time>2023-09-03T10:45:51Z</time>
      </trkpt>
      <trkpt lat="49.29394" lon="0.19551">
        <ele>14.4</ele>
        <time>2023-09-03T10:45:52Z</time>
      </trkpt>
      <trkpt lat="49.29388" lon="0.1954">
        <ele>14.3</ele>
        <time>2023-09-03T10:45:53Z</time>
      </trkpt>
      <trkpt lat="49.29382" lon="0.19529">
        <ele>14.3</ele>
        <time>2023-09-03T10:45:54Z</time>
      </trkpt>
      <trkpt lat="49.29376" lon="0.1952">
        <ele>14.3</ele>
        <time>2023-09-03T10:45:55Z</time>
      </trkpt>
      <trkpt lat="49.2937" lon="0.1951">
        <ele>14.2</ele>
        <time>2023-09-03T10:45:56Z</time>
      </trkpt>
      <trkpt lat="49.29364" lon="0.19499">
        <ele>14.2</ele>
        <time>2023-09-03T10:45:57Z</time>
      </trkpt>
      <trkpt lat="49.29358" lon="0.1949">
        <ele>14.2</ele>
        <time>2023-09-03T10:45:58Z</time>
      </trkpt>
      <trkpt lat="49.29352" lon="0.1948">
        <ele>14.1</ele>
        <time>2023-09-03T10:45:59Z</time>
      </trkpt>
      <trkpt lat="49.29345" lon="0.19471">
        <ele>14.1</ele>
        <time>2023-09-03T10:46:00Z</time>
      </trkpt>
      <trkpt lat="49.29339" lon="0.19461">
        <ele>14.1</ele>
        <time>2023-09-03T10:46:01Z</time>
      </trkpt>
      <trkpt lat="49.29333" lon="0.19452">
        <ele>14</ele>
        <time>2023-09-03T10:46:02Z</time>
      </trkpt>
      <trkpt lat="49.29327" lon="0.19442">
        <ele>14</ele>
        <time>2023-09-03T10:46:03Z</time>
      </trkpt>
      <trkpt lat="49.29321" lon="0.19433">
        <ele>13.9</ele>
        <time>2023-09-03T10:46:04Z</time>
      </trkpt>
      <trkpt lat="49.29315" lon="0.19424">
        <ele>13.9</ele>
        <time>2023-09-03T10:46:05Z</time>
      </trkpt>
      <trkpt lat="49.29308" lon="0.19416">
        <ele>13.9</ele>
        <time>2023-09-03T10:46:06Z</time>
      </trkpt>
      <trkpt lat="49.29302" lon="0.19408">
        <ele>13.8</ele>
        <time>2023-09-03T10:46:07Z</time>
      </trkpt>
      <trkpt lat="49.29295" lon="0.194">
        <ele>13.8</ele>
        <time>2023-09-03T10:46:08Z</time>
      </trkpt>
      <trkpt lat="49.29289" lon="0.19393">
        <ele>13.7</ele>
        <time>2023-09-03T10:46:09Z</time>
      </trkpt>
      <trkpt lat="49.29282" lon="0.19386">
        <ele>13.7</ele>
        <time>2023-09-03T10:46:10Z</time>
      </trkpt>
      <trkpt lat="49.29276" lon="0.1938">
        <ele>13.7</ele>
        <time>2023-09-03T10:46:11Z</time>
      </trkpt>
      <trkpt lat="49.29269" lon="0.19372">
        <ele>13.7</ele>
        <time>2023-09-03T10:46:12Z</time>
      </trkpt>
      <trkpt lat="49.29263" lon="0.19365">
        <ele>13.6</ele>
        <time>2023-09-03T10:46:13Z</time>
      </trkpt>
      <trkpt lat="49.29257" lon="0.19357">
        <ele>13.6</ele>
        <time>2023-09-03T10:46:14Z</time>
      </trkpt>
      <trkpt lat="49.29251" lon="0.1935">
        <ele>13.5</ele>
        <time>2023-09-03T10:46:15Z</time>
      </trkpt>
      <trkpt lat="49.29245" lon="0.19343">
        <ele>13.5</ele>
        <time>2023-09-03T10:46:16Z</time>
      </trkpt>
      <trkpt lat="49.29238" lon="0.19336">
        <ele>13.4</ele>
        <time>2023-09-03T10:46:17Z</time>
      </trkpt>
      <trkpt lat="49.29232" lon="0.19329">
        <ele>13.3</ele>
        <time>2023-09-03T10:46:18Z</time>
      </trkpt>
      <trkpt lat="49.29226" lon="0.19322">
        <ele>13.2</ele>
        <time>2023-09-03T10:46:19Z</time>
      </trkpt>
      <trkpt lat="49.2922" lon="0.19314">
        <ele>13.2</ele>
        <time>2023-09-03T10:46:20Z</time>
      </trkpt>
      <trkpt lat="49.29214" lon="0.19307">
        <ele>13.1</ele>
        <time>2023-09-03T10:46:21Z</time>
      </trkpt>
      <trkpt lat="49.29206" lon="0.193">
        <ele>13</ele>
        <time>2023-09-03T10:46:22Z</time>
      </trkpt>
      <trkpt lat="49.29199" lon="0.19293">
        <ele>12.9</ele>
        <time>2023-09-03T10:46:23Z</time>
      </trkpt>
      <trkpt lat="49.29193" lon="0.19286">
        <ele>12.8</ele>
        <time>2023-09-03T10:46:24Z</time>
      </trkpt>
      <trkpt lat="49.29186" lon="0.19279">
        <ele>12.8</ele>
        <time>2023-09-03T10:46:25Z</time>
      </trkpt>
      <trkpt lat="49.29179" lon="0.19271">
        <ele>12.8</ele>
        <time>2023-09-03T10:46:26Z</time>
      </trkpt>
      <trkpt lat="49.29173" lon="0.19264">
        <ele>12.7</ele>
        <time>2023-09-03T10:46:27Z</time>
      </trkpt>
      <trkpt lat="49.29168" lon="0.19256">
        <ele>12.7</ele>
        <time>2023-09-03T10:46:28Z</time>
      </trkpt>
      <trkpt lat="49.29162" lon="0.19249">
        <ele>12.7</ele>
        <time>2023-09-03T10:46:29Z</time>
      </trkpt>
      <trkpt lat="49.29156" lon="0.19242">
        <ele>12.6</ele>
        <time>2023-09-03T10:46:30Z</time>
      </trkpt>
      <trkpt lat="49.2915" lon="0.19236">
        <ele>12.5</ele>
        <time>2023-09-03T10:46:31Z</time>
      </trkpt>
      <trkpt lat="49.29144" lon="0.1923">
        <ele>12.4</ele>
        <time>2023-09-03T10:46:32Z</time>
      </trkpt>
      <trkpt lat="49.29138" lon="0.19224">
        <ele>12.4</ele>
        <time>2023-09-03T10:46:33Z</time>
      </trkpt>
      <trkpt lat="49.29133" lon="0.19217">
        <ele>12.3</ele>
        <time>2023-09-03T10:46:34Z</time>
      </trkpt>
      <trkpt lat="49.29127" lon="0.19209">
        <ele>12.2</ele>
        <time>2023-09-03T10:46:35Z</time>
      </trkpt>
      <trkpt lat="49.2912" lon="0.19202">
        <ele>12.2</ele>
        <time>2023-09-03T10:46:36Z</time>
      </trkpt>
      <trkpt lat="49.29114" lon="0.19196">
        <ele>12.1</ele>
        <time>2023-09-03T10:46:37Z</time>
      </trkpt>
      <trkpt lat="49.29107" lon="0.19189">
        <ele>12.1</ele>
        <time>2023-09-03T10:46:38Z</time>
      </trkpt>
      <trkpt lat="49.291" lon="0.19182">
        <ele>12.1</ele>
        <time>2023-09-03T10:46:39Z</time>
      </trkpt>
      <trkpt lat="49.29094" lon="0.19175">
        <ele>12</ele>
        <time>2023-09-03T10:46:40Z</time>
      </trkpt>
      <trkpt lat="49.29087" lon="0.19167">
        <ele>12</ele>
        <time>2023-09-03T10:46:41Z</time>
      </trkpt>
      <trkpt lat="49.29081" lon="0.19159">
        <ele>12</ele>
        <time>2023-09-03T10:46:42Z</time>
      </trkpt>
      <trkpt lat="49.29074" lon="0.19151">
        <ele>11.9</ele>
        <time>2023-09-03T10:46:43Z</time>
      </trkpt>
      <trkpt lat="49.29068" lon="0.19143">
        <ele>11.9</ele>
        <time>2023-09-03T10:46:44Z</time>
      </trkpt>
      <trkpt lat="49.29062" lon="0.19136">
        <ele>12</ele>
        <time>2023-09-03T10:46:45Z</time>
      </trkpt>
      <trkpt lat="49.29057" lon="0.1913">
        <ele>12.1</ele>
        <time>2023-09-03T10:46:46Z</time>
      </trkpt>
      <trkpt lat="49.29052" lon="0.19124">
        <ele>12.1</ele>
        <time>2023-09-03T10:46:47Z</time>
      </trkpt>
      <trkpt lat="49.29048" lon="0.1912">
        <ele>12.2</ele>
        <time>2023-09-03T10:46:48Z</time>
      </trkpt>
      <trkpt lat="49.29045" lon="0.19116">
        <ele>12.2</ele>
        <time>2023-09-03T10:46:49Z</time>
      </trkpt>
      <trkpt lat="49.29043" lon="0.19113">
        <ele>12.3</ele>
        <time>2023-09-03T10:46:50Z</time>
      </trkpt>
      <trkpt lat="49.29041" lon="0.19108">
        <ele>12.3</ele>
        <time>2023-09-03T10:46:51Z</time>
      </trkpt>
      <trkpt lat="49.2904" lon="0.19104">
        <ele>12.4</ele>
        <time>2023-09-03T10:46:52Z</time>
      </trkpt>
      <trkpt lat="49.29038" lon="0.191">
        <ele>12.4</ele>
        <time>2023-09-03T10:46:53Z</time>
      </trkpt>
      <trkpt lat="49.29035" lon="0.19096">
        <ele>12.5</ele>
        <time>2023-09-03T10:46:54Z</time>
      </trkpt>
      <trkpt lat="49.29032" lon="0.19094">
        <ele>12.4</ele>
        <time>2023-09-03T10:46:55Z</time>
      </trkpt>
      <trkpt lat="49.29028" lon="0.19092">
        <ele>12.4</ele>
        <time>2023-09-03T10:46:56Z</time>
      </trkpt>
      <trkpt lat="49.29025" lon="0.19091">
        <ele>12.4</ele>
        <time>2023-09-03T10:46:57Z</time>
      </trkpt>
      <trkpt lat="49.29023" lon="0.1909">
        <ele>12.3</ele>
        <time>2023-09-03T10:46:58Z</time>
      </trkpt>
      <trkpt lat="49.29019" lon="0.19087">
        <ele>12.3</ele>
        <time>2023-09-03T10:46:59Z</time>
      </trkpt>
      <trkpt lat="49.29018" lon="0.19086">
        <ele>12.2</ele>
        <time>2023-09-03T10:47:00Z</time>
      </trkpt>
      <trkpt lat="49.29016" lon="0.19083">
        <ele>12.2</ele>
        <time>2023-09-03T10:47:01Z</time>
      </trkpt>
      <trkpt lat="49.29013" lon="0.1908">
        <ele>12.2</ele>
        <time>2023-09-03T10:47:02Z</time>
      </trkpt>
      <trkpt lat="49.2901" lon="0.19077">
        <ele>12.1</ele>
        <time>2023-09-03T10:47:03Z</time>
      </trkpt>
      <trkpt lat="49.29007" lon="0.19075">
        <ele>12.1</ele>
        <time>2023-09-03T10:47:04Z</time>
      </trkpt>
      <trkpt lat="49.29003" lon="0.19071">
        <ele>12.1</ele>
        <time>2023-09-03T10:47:05Z</time>
      </trkpt>
      <trkpt lat="49.29" lon="0.19068">
        <ele>12.1</ele>
        <time>2023-09-03T10:47:06Z</time>
      </trkpt>
      <trkpt lat="49.28997" lon="0.19064">
        <ele>12</ele>
        <time>2023-09-03T10:47:07Z</time>
      </trkpt>
      <trkpt lat="49.28994" lon="0.19059">
        <ele>12</ele>
        <time>2023-09-03T10:47:08Z</time>
      </trkpt>
      <trkpt lat="49.28991" lon="0.19056">
        <ele>12</ele>
        <time>2023-09-03T10:47:09Z</time>
      </trkpt>
      <trkpt lat="49.28988" lon="0.19052">
        <ele>11.9</ele>
        <time>2023-09-03T10:47:10Z</time>
      </trkpt>
      <trkpt lat="49.28984" lon="0.19048">
        <ele>11.9</ele>
        <time>2023-09-03T10:47:11Z</time>
      </trkpt>
      <trkpt lat="49.2898" lon="0.19044">
        <ele>11.9</ele>
        <time>2023-09-03T10:47:12Z</time>
      </trkpt>
      <trkpt lat="49.28976" lon="0.19039">
        <ele>11.9</ele>
        <time>2023-09-03T10:47:13Z</time>
      </trkpt>
      <trkpt lat="49.28973" lon="0.19035">
        <ele>11.8</ele>
        <time>2023-09-03T10:47:14Z</time>
      </trkpt>
      <trkpt lat="49.28969" lon="0.19031">
        <ele>11.8</ele>
        <time>2023-09-03T10:47:15Z</time>
      </trkpt>
      <trkpt lat="49.28965" lon="0.19027">
        <ele>11.8</ele>
        <time>2023-09-03T10:47:16Z</time>
      </trkpt>
      <trkpt lat="49.28962" lon="0.19023">
        <ele>11.8</ele>
        <time>2023-09-03T10:47:17Z</time>
      </trkpt>
      <trkpt lat="49.28958" lon="0.19019">
        <ele>11.8</ele>
        <time>2023-09-03T10:47:18Z</time>
      </trkpt>
      <trkpt lat="49.28954" lon="0.19015">
        <ele>11.8</ele>
        <time>2023-09-03T10:47:19Z</time>
      </trkpt>
      <trkpt lat="49.28951" lon="0.1901">
        <ele>11.7</ele>
        <time>2023-09-03T10:47:20Z</time>
      </trkpt>
      <trkpt lat="49.28948" lon="0.19006">
        <ele>11.7</ele>
        <time>2023-09-03T10:47:21Z</time>
      </trkpt>
      <trkpt lat="49.28945" lon="0.19002">
        <ele>11.7</ele>
        <time>2023-09-03T10:47:22Z</time>
      </trkpt>
      <trkpt lat="49.28941" lon="0.18998">
        <ele>11.7</ele>
        <time>2023-09-03T10:47:23Z</time>
      </trkpt>
      <trkpt lat="49.28937" lon="0.18995">
        <ele>11.6</ele>
        <time>2023-09-03T10:47:24Z</time>
      </trkpt>
      <trkpt lat="49.28934" lon="0.1899">
        <ele>11.6</ele>
        <time>2023-09-03T10:47:25Z</time>
      </trkpt>
      <trkpt lat="49.2893" lon="0.18985">
        <ele>11.6</ele>
        <time>2023-09-03T10:47:26Z</time>
      </trkpt>
      <trkpt lat="49.28926" lon="0.1898">
        <ele>11.5</ele>
        <time>2023-09-03T10:47:27Z</time>
      </trkpt>
      <trkpt lat="49.28922" lon="0.18975">
        <ele>11.5</ele>
        <time>2023-09-03T10:47:28Z</time>
      </trkpt>
      <trkpt lat="49.28918" lon="0.1897">
        <ele>11.5</ele>
        <time>2023-09-03T10:47:29Z</time>
      </trkpt>
      <trkpt lat="49.28913" lon="0.18964">
        <ele>11.5</ele>
        <time>2023-09-03T10:47:30Z</time>
      </trkpt>
      <trkpt lat="49.28909" lon="0.18959">
        <ele>11.5</ele>
        <time>2023-09-03T10:47:31Z</time>
      </trkpt>
      <trkpt lat="49.28904" lon="0.18954">
        <ele>11.5</ele>
        <time>2023-09-03T10:47:32Z</time>
      </trkpt>
      <trkpt lat="49.28899" lon="0.1895">
        <ele>11.5</ele>
        <time>2023-09-03T10:47:33Z</time>
      </trkpt>
      <trkpt lat="49.28895" lon="0.18946">
        <ele>11.5</ele>
        <time>2023-09-03T10:47:34Z</time>
      </trkpt>
      <trkpt lat="49.28891" lon="0.18941">
        <ele>11.5</ele>
        <time>2023-09-03T10:47:35Z</time>
      </trkpt>
      <trkpt lat="49.28887" lon="0.18935">
        <ele>11.5</ele>
        <time>2023-09-03T10:47:36Z</time>
      </trkpt>
      <trkpt lat="49.28882" lon="0.1893">
        <ele>11.5</ele>
        <time>2023-09-03T10:47:37Z</time>
      </trkpt>
      <trkpt lat="49.28876" lon="0.18924">
        <ele>11.4</ele>
        <time>2023-09-03T10:47:38Z</time>
      </trkpt>
      <trkpt lat="49.28871" lon="0.18918">
        <ele>11.4</ele>
        <time>2023-09-03T10:47:39Z</time>
      </trkpt>
      <trkpt lat="49.28867" lon="0.18912">
        <ele>11.4</ele>
        <time>2023-09-03T10:47:40Z</time>
      </trkpt>
      <trkpt lat="49.28862" lon="0.18907">
        <ele>11.4</ele>
        <time>2023-09-03T10:47:41Z</time>
      </trkpt>
      <trkpt lat="49.28857" lon="0.18901">
        <ele>11.4</ele>
        <time>2023-09-03T10:47:42Z</time>
      </trkpt>
      <trkpt lat="49.28852" lon="0.18894">
        <ele>11.4</ele>
        <time>2023-09-03T10:47:43Z</time>
      </trkpt>
      <trkpt lat="49.28846" lon="0.18888">
        <ele>11.4</ele>
        <time>2023-09-03T10:47:44Z</time>
      </trkpt>
      <trkpt lat="49.28841" lon="0.18881">
        <ele>11.3</ele>
        <time>2023-09-03T10:47:45Z</time>
      </trkpt>
      <trkpt lat="49.28835" lon="0.18875">
        <ele>11.3</ele>
        <time>2023-09-03T10:47:46Z</time>
      </trkpt>
      <trkpt lat="49.28829" lon="0.18869">
        <ele>11.3</ele>
        <time>2023-09-03T10:47:47Z</time>
      </trkpt>
      <trkpt lat="49.28823" lon="0.18863">
        <ele>11.4</ele>
        <time>2023-09-03T10:47:48Z</time>
      </trkpt>
      <trkpt lat="49.28818" lon="0.18857">
        <ele>11.4</ele>
        <time>2023-09-03T10:47:49Z</time>
      </trkpt>
      <trkpt lat="49.28812" lon="0.1885">
        <ele>11.4</ele>
        <time>2023-09-03T10:47:50Z</time>
      </trkpt>
      <trkpt lat="49.28806" lon="0.18844">
        <ele>11.4</ele>
        <time>2023-09-03T10:47:51Z</time>
      </trkpt>
      <trkpt lat="49.28801" lon="0.18838">
        <ele>11.4</ele>
        <time>2023-09-03T10:47:52Z</time>
      </trkpt>
      <trkpt lat="49.28796" lon="0.18832">
        <ele>11.4</ele>
        <time>2023-09-03T10:47:53Z</time>
      </trkpt>
      <trkpt lat="49.28791" lon="0.18826">
        <ele>11.4</ele>
        <time>2023-09-03T10:47:54Z</time>
      </trkpt>
      <trkpt lat="49.28786" lon="0.18821">
        <ele>11.4</ele>
        <time>2023-09-03T10:47:55Z</time>
      </trkpt>
      <trkpt lat="49.28781" lon="0.18815">
        <ele>11.4</ele>
        <time>2023-09-03T10:47:56Z</time>
      </trkpt>
      <trkpt lat="49.28776" lon="0.1881">
        <ele>11.4</ele>
        <time>2023-09-03T10:47:57Z</time>
      </trkpt>
      <trkpt lat="49.28771" lon="0.18804">
        <ele>11.4</ele>
        <time>2023-09-03T10:47:58Z</time>
      </trkpt>
      <trkpt lat="49.28766" lon="0.18798">
        <ele>11.3</ele>
        <time>2023-09-03T10:47:59Z</time>
      </trkpt>
      <trkpt lat="49.28762" lon="0.18793">
        <ele>11.3</ele>
        <time>2023-09-03T10:48:00Z</time>
      </trkpt>
      <trkpt lat="49.28757" lon="0.18787">
        <ele>11.3</ele>
        <time>2023-09-03T10:48:01Z</time>
      </trkpt>
      <trkpt lat="49.28752" lon="0.18782">
        <ele>11.2</ele>
        <time>2023-09-03T10:48:02Z</time>
      </trkpt>
      <trkpt lat="49.28748" lon="0.18777">
        <ele>11.2</ele>
        <time>2023-09-03T10:48:03Z</time>
      </trkpt>
      <trkpt lat="49.28744" lon="0.18774">
        <ele>11.2</ele>
        <time>2023-09-03T10:48:04Z</time>
      </trkpt>
      <trkpt lat="49.28741" lon="0.18771">
        <ele>11.2</ele>
        <time>2023-09-03T10:48:05Z</time>
      </trkpt>
      <trkpt lat="49.28739" lon="0.18768">
        <ele>11.2</ele>
        <time>2023-09-03T10:48:06Z</time>
      </trkpt>
      <trkpt lat="49.28736" lon="0.18766">
        <ele>11.2</ele>
        <time>2023-09-03T10:48:07Z</time>
      </trkpt>
      <trkpt lat="49.28734" lon="0.18763">
        <ele>11.2</ele>
        <time>2023-09-03T10:48:08Z</time>
      </trkpt>
      <trkpt lat="49.28731" lon="0.1876">
        <ele>11.2</ele>
        <time>2023-09-03T10:48:09Z</time>
      </trkpt>
      <trkpt lat="49.28729" lon="0.18757">
        <ele>11.2</ele>
        <time>2023-09-03T10:48:10Z</time>
      </trkpt>
      <trkpt lat="49.28726" lon="0.18753">
        <ele>11.3</ele>
        <time>2023-09-03T10:48:11Z</time>
      </trkpt>
      <trkpt lat="49.28723" lon="0.18749">
        <ele>11.3</ele>
        <time>2023-09-03T10:48:12Z</time>
      </trkpt>
      <trkpt lat="49.28721" lon="0.18746">
        <ele>11.3</ele>
        <time>2023-09-03T10:48:13Z</time>
      </trkpt>
      <trkpt lat="49.28718" lon="0.18742">
        <ele>11.4</ele>
        <time>2023-09-03T10:48:14Z</time>
      </trkpt>
      <trkpt lat="49.28714" lon="0.18738">
        <ele>11.4</ele>
        <time>2023-09-03T10:48:15Z</time>
      </trkpt>
      <trkpt lat="49.28711" lon="0.18734">
        <ele>11.4</ele>
        <time>2023-09-03T10:48:16Z</time>
      </trkpt>
      <trkpt lat="49.28708" lon="0.1873">
        <ele>11.5</ele>
        <time>2023-09-03T10:48:17Z</time>
      </trkpt>
      <trkpt lat="49.28705" lon="0.18726">
        <ele>11.5</ele>
        <time>2023-09-03T10:48:18Z</time>
      </trkpt>
      <trkpt lat="49.28702" lon="0.18723">
        <ele>11.5</ele>
        <time>2023-09-03T10:48:19Z</time>
      </trkpt>
      <trkpt lat="49.28699" lon="0.18718">
        <ele>11.6</ele>
        <time>2023-09-03T10:48:20Z</time>
      </trkpt>
      <trkpt lat="49.28696" lon="0.18714">
        <ele>11.6</ele>
        <time>2023-09-03T10:48:21Z</time>
      </trkpt>
      <trkpt lat="49.28693" lon="0.1871">
        <ele>11.7</ele>
        <time>2023-09-03T10:48:22Z</time>
      </trkpt>
      <trkpt lat="49.28691" lon="0.18706">
        <ele>11.7</ele>
        <time>2023-09-03T10:48:23Z</time>
      </trkpt>
      <trkpt lat="49.28689" lon="0.18701">
        <ele>11.7</ele>
        <time>2023-09-03T10:48:24Z</time>
      </trkpt>
      <trkpt lat="49.28689" lon="0.187">
        <ele>11.7</ele>
        <time>2023-09-03T10:48:25Z</time>
      </trkpt>
      <trkpt lat="49.28688" lon="0.18694">
        <ele>11.7</ele>
        <time>2023-09-03T10:48:26Z</time>
      </trkpt>
      <trkpt lat="49.28688" lon="0.18692">
        <ele>11.7</ele>
        <time>2023-09-03T10:48:27Z</time>
      </trkpt>
      <trkpt lat="49.28686" lon="0.18689">
        <ele>11.7</ele>
        <time>2023-09-03T10:48:28Z</time>
      </trkpt>
      <trkpt lat="49.28684" lon="0.18686">
        <ele>11.7</ele>
        <time>2023-09-03T10:48:29Z</time>
      </trkpt>
      <trkpt lat="49.28681" lon="0.18683">
        <ele>11.7</ele>
        <time>2023-09-03T10:48:30Z</time>
      </trkpt>
      <trkpt lat="49.2868" lon="0.18682">
        <ele>11.7</ele>
        <time>2023-09-03T10:48:31Z</time>
      </trkpt>
      <trkpt lat="49.28677" lon="0.1868">
        <ele>11.7</ele>
        <time>2023-09-03T10:48:32Z</time>
      </trkpt>
      <trkpt lat="49.28675" lon="0.18678">
        <ele>11.8</ele>
        <time>2023-09-03T10:48:33Z</time>
      </trkpt>
      <trkpt lat="49.28672" lon="0.18676">
        <ele>11.9</ele>
        <time>2023-09-03T10:48:34Z</time>
      </trkpt>
      <trkpt lat="49.2867" lon="0.18672">
        <ele>11.9</ele>
        <time>2023-09-03T10:48:35Z</time>
      </trkpt>
      <trkpt lat="49.28669" lon="0.1867">
        <ele>11.9</ele>
        <time>2023-09-03T10:48:36Z</time>
      </trkpt>
      <trkpt lat="49.28667" lon="0.18666">
        <ele>12</ele>
        <time>2023-09-03T10:48:37Z</time>
      </trkpt>
      <trkpt lat="49.28666" lon="0.18665">
        <ele>12</ele>
        <time>2023-09-03T10:48:38Z</time>
      </trkpt>
      <trkpt lat="49.28663" lon="0.18661">
        <ele>12</ele>
        <time>2023-09-03T10:48:39Z</time>
      </trkpt>
      <trkpt lat="49.28663" lon="0.1866">
        <ele>12.1</ele>
        <time>2023-09-03T10:48:40Z</time>
      </trkpt>
      <trkpt lat="49.2866" lon="0.18656">
        <ele>12.1</ele>
        <time>2023-09-03T10:48:41Z</time>
      </trkpt>
      <trkpt lat="49.2866" lon="0.18654">
        <ele>12.1</ele>
        <time>2023-09-03T10:48:42Z</time>
      </trkpt>
      <trkpt lat="49.28658" lon="0.1865">
        <ele>12.2</ele>
        <time>2023-09-03T10:48:43Z</time>
      </trkpt>
      <trkpt lat="49.28656" lon="0.18646">
        <ele>12.2</ele>
        <time>2023-09-03T10:48:44Z</time>
      </trkpt>
      <trkpt lat="49.28654" lon="0.18641">
        <ele>12.3</ele>
        <time>2023-09-03T10:48:45Z</time>
      </trkpt>
      <trkpt lat="49.28652" lon="0.18636">
        <ele>12.3</ele>
        <time>2023-09-03T10:48:46Z</time>
      </trkpt>
      <trkpt lat="49.28651" lon="0.18631">
        <ele>12.4</ele>
        <time>2023-09-03T10:48:47Z</time>
      </trkpt>
      <trkpt lat="49.28649" lon="0.18625">
        <ele>12.4</ele>
        <time>2023-09-03T10:48:48Z</time>
      </trkpt>
      <trkpt lat="49.28648" lon="0.18619">
        <ele>12.5</ele>
        <time>2023-09-03T10:48:49Z</time>
      </trkpt>
      <trkpt lat="49.28646" lon="0.18613">
        <ele>12.5</ele>
        <time>2023-09-03T10:48:50Z</time>
      </trkpt>
      <trkpt lat="49.28644" lon="0.18607">
        <ele>12.5</ele>
        <time>2023-09-03T10:48:51Z</time>
      </trkpt>
      <trkpt lat="49.28642" lon="0.186">
        <ele>12.6</ele>
        <time>2023-09-03T10:48:52Z</time>
      </trkpt>
      <trkpt lat="49.28639" lon="0.18594">
        <ele>12.6</ele>
        <time>2023-09-03T10:48:53Z</time>
      </trkpt>
      <trkpt lat="49.28637" lon="0.18587">
        <ele>12.6</ele>
        <time>2023-09-03T10:48:54Z</time>
      </trkpt>
      <trkpt lat="49.28634" lon="0.1858">
        <ele>12.7</ele>
        <time>2023-09-03T10:48:55Z</time>
      </trkpt>
      <trkpt lat="49.28632" lon="0.18573">
        <ele>12.6</ele>
        <time>2023-09-03T10:48:56Z</time>
      </trkpt>
      <trkpt lat="49.28629" lon="0.18566">
        <ele>12.6</ele>
        <time>2023-09-03T10:48:57Z</time>
      </trkpt>
      <trkpt lat="49.28627" lon="0.18558">
        <ele>12.6</ele>
        <time>2023-09-03T10:48:58Z</time>
      </trkpt>
      <trkpt lat="49.28624" lon="0.18551">
        <ele>12.6</ele>
        <time>2023-09-03T10:48:59Z</time>
      </trkpt>
      <trkpt lat="49.28621" lon="0.18544">
        <ele>12.7</ele>
        <time>2023-09-03T10:49:00Z</time>
      </trkpt>
      <trkpt lat="49.28619" lon="0.18537">
        <ele>12.7</ele>
        <time>2023-09-03T10:49:01Z</time>
      </trkpt>
      <trkpt lat="49.28616" lon="0.1853">
        <ele>12.7</ele>
        <time>2023-09-03T10:49:02Z</time>
      </trkpt>
      <trkpt lat="49.28614" lon="0.18524">
        <ele>12.6</ele>
        <time>2023-09-03T10:49:03Z</time>
      </trkpt>
      <trkpt lat="49.28611" lon="0.18517">
        <ele>12.6</ele>
        <time>2023-09-03T10:49:04Z</time>
      </trkpt>
      <trkpt lat="49.28608" lon="0.1851">
        <ele>12.6</ele>
        <time>2023-09-03T10:49:05Z</time>
      </trkpt>
      <trkpt lat="49.28605" lon="0.18504">
        <ele>12.6</ele>
        <time>2023-09-03T10:49:06Z</time>
      </trkpt>
      <trkpt lat="49.28601" lon="0.18498">
        <ele>12.6</ele>
        <time>2023-09-03T10:49:07Z</time>
      </trkpt>
      <trkpt lat="49.28598" lon="0.18493">
        <ele>12.6</ele>
        <time>2023-09-03T10:49:08Z</time>
      </trkpt>
      <trkpt lat="49.28595" lon="0.18487">
        <ele>12.6</ele>
        <time>2023-09-03T10:49:09Z</time>
      </trkpt>
      <trkpt lat="49.28592" lon="0.18481">
        <ele>12.6</ele>
        <time>2023-09-03T10:49:10Z</time>
      </trkpt>
      <trkpt lat="49.28589" lon="0.18475">
        <ele>12.6</ele>
        <time>2023-09-03T10:49:11Z</time>
      </trkpt>
      <trkpt lat="49.28587" lon="0.18468">
        <ele>12.6</ele>
        <time>2023-09-03T10:49:12Z</time>
      </trkpt>
      <trkpt lat="49.28584" lon="0.18462">
        <ele>12.6</ele>
        <time>2023-09-03T10:49:13Z</time>
      </trkpt>
      <trkpt lat="49.28581" lon="0.18456">
        <ele>12.6</ele>
        <time>2023-09-03T10:49:14Z</time>
      </trkpt>
      <trkpt lat="49.28578" lon="0.18449">
        <ele>12.7</ele>
        <time>2023-09-03T10:49:15Z</time>
      </trkpt>
      <trkpt lat="49.28575" lon="0.18443">
        <ele>12.7</ele>
        <time>2023-09-03T10:49:16Z</time>
      </trkpt>
      <trkpt lat="49.28572" lon="0.18437">
        <ele>12.7</ele>
        <time>2023-09-03T10:49:17Z</time>
      </trkpt>
      <trkpt lat="49.28569" lon="0.18431">
        <ele>12.7</ele>
        <time>2023-09-03T10:49:18Z</time>
      </trkpt>
      <trkpt lat="49.28567" lon="0.18426">
        <ele>12.7</ele>
        <time>2023-09-03T10:49:19Z</time>
      </trkpt>
      <trkpt lat="49.28565" lon="0.18421">
        <ele>12.7</ele>
        <time>2023-09-03T10:49:20Z</time>
      </trkpt>
      <trkpt lat="49.28563" lon="0.18417">
        <ele>12.7</ele>
        <time>2023-09-03T10:49:21Z</time>
      </trkpt>
      <trkpt lat="49.28562" lon="0.18413">
        <ele>12.7</ele>
        <time>2023-09-03T10:49:22Z</time>
      </trkpt>
      <trkpt lat="49.2856" lon="0.18409">
        <ele>12.7</ele>
        <time>2023-09-03T10:49:23Z</time>
      </trkpt>
      <trkpt lat="49.2856" lon="0.18407">
        <ele>12.7</ele>
        <time>2023-09-03T10:49:24Z</time>
      </trkpt>
      <trkpt lat="49.28557" lon="0.18403">
        <ele>12.7</ele>
        <time>2023-09-03T10:49:25Z</time>
      </trkpt>
      <trkpt lat="49.28557" lon="0.18401">
        <ele>12.7</ele>
        <time>2023-09-03T10:49:26Z</time>
      </trkpt>
      <trkpt lat="49.28554" lon="0.18396">
        <ele>12.7</ele>
        <time>2023-09-03T10:49:27Z</time>
      </trkpt>
      <trkpt lat="49.28554" lon="0.18395">
        <ele>12.7</ele>
        <time>2023-09-03T10:49:28Z</time>
      </trkpt>
      <trkpt lat="49.28552" lon="0.1839">
        <ele>12.7</ele>
        <time>2023-09-03T10:49:29Z</time>
      </trkpt>
      <trkpt lat="49.28551" lon="0.18389">
        <ele>12.6</ele>
        <time>2023-09-03T10:49:30Z</time>
      </trkpt>
      <trkpt lat="49.28549" lon="0.18385">
        <ele>12.6</ele>
        <time>2023-09-03T10:49:31Z</time>
      </trkpt>
      <trkpt lat="49.28548" lon="0.18384">
        <ele>12.6</ele>
        <time>2023-09-03T10:49:32Z</time>
      </trkpt>
      <trkpt lat="49.28546" lon="0.18381">
        <ele>12.6</ele>
        <time>2023-09-03T10:49:33Z</time>
      </trkpt>
      <trkpt lat="49.28546" lon="0.1838">
        <ele>12.6</ele>
        <time>2023-09-03T10:49:34Z</time>
      </trkpt>
      <trkpt lat="49.28543" lon="0.18377">
        <ele>12.5</ele>
        <time>2023-09-03T10:49:35Z</time>
      </trkpt>
      <trkpt lat="49.28543" lon="0.18376">
        <ele>12.5</ele>
        <time>2023-09-03T10:49:36Z</time>
      </trkpt>
      <trkpt lat="49.2854" lon="0.18371">
        <ele>12.5</ele>
        <time>2023-09-03T10:49:37Z</time>
      </trkpt>
      <trkpt lat="49.28539" lon="0.1837">
        <ele>12.4</ele>
        <time>2023-09-03T10:49:38Z</time>
      </trkpt>
      <trkpt lat="49.28537" lon="0.18365">
        <ele>12.4</ele>
        <time>2023-09-03T10:49:39Z</time>
      </trkpt>
      <trkpt lat="49.28535" lon="0.1836">
        <ele>12.3</ele>
        <time>2023-09-03T10:49:40Z</time>
      </trkpt>
      <trkpt lat="49.28533" lon="0.18354">
        <ele>12.3</ele>
        <time>2023-09-03T10:49:41Z</time>
      </trkpt>
      <trkpt lat="49.2853" lon="0.18348">
        <ele>12.2</ele>
        <time>2023-09-03T10:49:42Z</time>
      </trkpt>
      <trkpt lat="49.28527" lon="0.18342">
        <ele>12.2</ele>
        <time>2023-09-03T10:49:43Z</time>
      </trkpt>
      <trkpt lat="49.28524" lon="0.18336">
        <ele>12.1</ele>
        <time>2023-09-03T10:49:44Z</time>
      </trkpt>
      <trkpt lat="49.28521" lon="0.18329">
        <ele>12</ele>
        <time>2023-09-03T10:49:45Z</time>
      </trkpt>
      <trkpt lat="49.28518" lon="0.18324">
        <ele>12</ele>
        <time>2023-09-03T10:49:46Z</time>
      </trkpt>
      <trkpt lat="49.28516" lon="0.18318">
        <ele>11.9</ele>
        <time>2023-09-03T10:49:47Z</time>
      </trkpt>
      <trkpt lat="49.28514" lon="0.18314">
        <ele>11.9</ele>
        <time>2023-09-03T10:49:48Z</time>
      </trkpt>
      <trkpt lat="49.28512" lon="0.1831">
        <ele>11.9</ele>
        <time>2023-09-03T10:49:49Z</time>
      </trkpt>
      <trkpt lat="49.2851" lon="0.18306">
        <ele>11.8</ele>
        <time>2023-09-03T10:49:50Z</time>
      </trkpt>
      <trkpt lat="49.28508" lon="0.18302">
        <ele>11.8</ele>
        <time>2023-09-03T10:49:51Z</time>
      </trkpt>
      <trkpt lat="49.28507" lon="0.18297">
        <ele>11.8</ele>
        <time>2023-09-03T10:49:52Z</time>
      </trkpt>
      <trkpt lat="49.28505" lon="0.18293">
        <ele>11.8</ele>
        <time>2023-09-03T10:49:53Z</time>
      </trkpt>
      <trkpt lat="49.28504" lon="0.18289">
        <ele>11.8</ele>
        <time>2023-09-03T10:49:54Z</time>
      </trkpt>
      <trkpt lat="49.28503" lon="0.18288">
        <ele>11.7</ele>
        <time>2023-09-03T10:49:55Z</time>
      </trkpt>
      <trkpt lat="49.28502" lon="0.18285">
        <ele>11.7</ele>
        <time>2023-09-03T10:49:56Z</time>
      </trkpt>
      <trkpt lat="49.28502" lon="0.18285">
        <ele>11.7</ele>
        <time>2023-09-03T10:49:57Z</time>
      </trkpt>
      <trkpt lat="49.28502" lon="0.18285">
        <ele>11.7</ele>
        <time>2023-09-03T10:49:58Z</time>
      </trkpt>
      <trkpt lat="49.28502" lon="0.18284">
        <ele>11.7</ele>
        <time>2023-09-03T10:49:59Z</time>
      </trkpt>
      <trkpt lat="49.28501" lon="0.18284">
        <ele>11.7</ele>
        <time>2023-09-03T10:50:00Z</time>
      </trkpt>
      <trkpt lat="49.28501" lon="0.18284">
        <ele>11.7</ele>
        <time>2023-09-03T10:50:01Z</time>
      </trkpt>
      <trkpt lat="49.28501" lon="0.18284">
        <ele>11.7</ele>
        <time>2023-09-03T10:50:02Z</time>
      </trkpt>
      <trkpt lat="49.28501" lon="0.18283">
        <ele>11.7</ele>
        <time>2023-09-03T10:50:03Z</time>
      </trkpt>
      <trkpt lat="49.28501" lon="0.18283">
        <ele>11.7</ele>
        <time>2023-09-03T10:50:04Z</time>
      </trkpt>
      <trkpt lat="49.285" lon="0.18283">
        <ele>11.7</ele>
        <time>2023-09-03T10:50:05Z</time>
      </trkpt>
      <trkpt lat="49.285" lon="0.18282">
        <ele>11.7</ele>
        <time>2023-09-03T10:50:06Z</time>
      </trkpt>
      <trkpt lat="49.285" lon="0.18282">
        <ele>11.7</ele>
        <time>2023-09-03T10:50:07Z</time>
      </trkpt>
      <trkpt lat="49.285" lon="0.18282">
        <ele>11.7</ele>
        <time>2023-09-03T10:50:08Z</time>
      </trkpt>
      <trkpt lat="49.285" lon="0.18282">
        <ele>11.7</ele>
        <time>2023-09-03T10:50:09Z</time>
      </trkpt>
      <trkpt lat="49.28499" lon="0.18281">
        <ele>11.7</ele>
        <time>2023-09-03T10:50:10Z</time>
      </trkpt>
      <trkpt lat="49.28499" lon="0.18281">
        <ele>11.7</ele>
        <time>2023-09-03T10:50:11Z</time>
      </trkpt>
      <trkpt lat="49.28499" lon="0.18281">
        <ele>11.7</ele>
        <time>2023-09-03T10:50:12Z</time>
      </trkpt>
      <trkpt lat="49.28499" lon="0.1828">
        <ele>11.7</ele>
        <time>2023-09-03T10:50:13Z</time>
      </trkpt>
      <trkpt lat="49.28498" lon="0.1828">
        <ele>11.7</ele>
        <time>2023-09-03T10:50:15Z</time>
      </trkpt>
      <trkpt lat="49.28498" lon="0.1828">
        <ele>11.7</ele>
        <time>2023-09-03T10:50:16Z</time>
      </trkpt>
      <trkpt lat="49.28498" lon="0.1828">
        <ele>11.7</ele>
        <time>2023-09-03T10:50:17Z</time>
      </trkpt>
      <trkpt lat="49.28497" lon="0.18278">
        <ele>11.7</ele>
        <time>2023-09-03T10:50:18Z</time>
      </trkpt>
      <trkpt lat="49.28496" lon="0.18275">
        <ele>11.7</ele>
        <time>2023-09-03T10:50:19Z</time>
      </trkpt>
      <trkpt lat="49.28494" lon="0.18272">
        <ele>11.7</ele>
        <time>2023-09-03T10:50:20Z</time>
      </trkpt>
      <trkpt lat="49.28493" lon="0.18271">
        <ele>11.7</ele>
        <time>2023-09-03T10:50:21Z</time>
      </trkpt>
      <trkpt lat="49.28492" lon="0.18269">
        <ele>11.7</ele>
        <time>2023-09-03T10:50:22Z</time>
      </trkpt>
      <trkpt lat="49.28491" lon="0.18268">
        <ele>11.7</ele>
        <time>2023-09-03T10:50:23Z</time>
      </trkpt>
      <trkpt lat="49.28491" lon="0.18268">
        <ele>11.7</ele>
        <time>2023-09-03T10:50:24Z</time>
      </trkpt>
      <trkpt lat="49.28491" lon="0.18267">
        <ele>11.6</ele>
        <time>2023-09-03T10:50:25Z</time>
      </trkpt>
      <trkpt lat="49.2849" lon="0.18266">
        <ele>11.6</ele>
        <time>2023-09-03T10:50:26Z</time>
      </trkpt>
      <trkpt lat="49.28488" lon="0.18265">
        <ele>11.6</ele>
        <time>2023-09-03T10:50:27Z</time>
      </trkpt>
      <trkpt lat="49.28486" lon="0.18263">
        <ele>11.6</ele>
        <time>2023-09-03T10:50:28Z</time>
      </trkpt>
      <trkpt lat="49.28484" lon="0.18262">
        <ele>11.6</ele>
        <time>2023-09-03T10:50:29Z</time>
      </trkpt>
      <trkpt lat="49.28482" lon="0.18259">
        <ele>11.6</ele>
        <time>2023-09-03T10:50:30Z</time>
      </trkpt>
      <trkpt lat="49.28479" lon="0.18254">
        <ele>11.5</ele>
        <time>2023-09-03T10:50:31Z</time>
      </trkpt>
      <trkpt lat="49.28475" lon="0.18247">
        <ele>11.5</ele>
        <time>2023-09-03T10:50:32Z</time>
      </trkpt>
      <trkpt lat="49.28472" lon="0.1824">
        <ele>11.5</ele>
        <time>2023-09-03T10:50:33Z</time>
      </trkpt>
      <trkpt lat="49.28469" lon="0.18234">
        <ele>11.5</ele>
        <time>2023-09-03T10:50:34Z</time>
      </trkpt>
      <trkpt lat="49.28465" lon="0.18227">
        <ele>11.4</ele>
        <time>2023-09-03T10:50:35Z</time>
      </trkpt>
      <trkpt lat="49.28462" lon="0.1822">
        <ele>11.4</ele>
        <time>2023-09-03T10:50:36Z</time>
      </trkpt>
      <trkpt lat="49.28458" lon="0.18212">
        <ele>11.4</ele>
        <time>2023-09-03T10:50:37Z</time>
      </trkpt>
      <trkpt lat="49.28454" lon="0.18205">
        <ele>11.4</ele>
        <time>2023-09-03T10:50:38Z</time>
      </trkpt>
      <trkpt lat="49.28451" lon="0.18197">
        <ele>11.4</ele>
        <time>2023-09-03T10:50:39Z</time>
      </trkpt>
      <trkpt lat="49.28448" lon="0.18189">
        <ele>11.4</ele>
        <time>2023-09-03T10:50:40Z</time>
      </trkpt>
      <trkpt lat="49.28444" lon="0.18182">
        <ele>11.4</ele>
        <time>2023-09-03T10:50:41Z</time>
      </trkpt>
      <trkpt lat="49.2844" lon="0.18175">
        <ele>11.4</ele>
        <time>2023-09-03T10:50:42Z</time>
      </trkpt>
      <trkpt lat="49.28435" lon="0.18168">
        <ele>11.4</ele>
        <time>2023-09-03T10:50:43Z</time>
      </trkpt>
      <trkpt lat="49.28431" lon="0.18162">
        <ele>11.4</ele>
        <time>2023-09-03T10:50:44Z</time>
      </trkpt>
      <trkpt lat="49.28426" lon="0.18155">
        <ele>11.4</ele>
        <time>2023-09-03T10:50:45Z</time>
      </trkpt>
      <trkpt lat="49.28422" lon="0.1815">
        <ele>11.4</ele>
        <time>2023-09-03T10:50:46Z</time>
      </trkpt>
      <trkpt lat="49.28418" lon="0.18144">
        <ele>11.4</ele>
        <time>2023-09-03T10:50:47Z</time>
      </trkpt>
      <trkpt lat="49.28413" lon="0.18139">
        <ele>11.4</ele>
        <time>2023-09-03T10:50:48Z</time>
      </trkpt>
      <trkpt lat="49.28409" lon="0.18135">
        <ele>11.4</ele>
        <time>2023-09-03T10:50:49Z</time>
      </trkpt>
      <trkpt lat="49.28405" lon="0.18131">
        <ele>11.5</ele>
        <time>2023-09-03T10:50:50Z</time>
      </trkpt>
      <trkpt lat="49.284" lon="0.18128">
        <ele>11.5</ele>
        <time>2023-09-03T10:50:51Z</time>
      </trkpt>
      <trkpt lat="49.28395" lon="0.18124">
        <ele>11.5</ele>
        <time>2023-09-03T10:50:52Z</time>
      </trkpt>
      <trkpt lat="49.28391" lon="0.1812">
        <ele>11.6</ele>
        <time>2023-09-03T10:50:53Z</time>
      </trkpt>
      <trkpt lat="49.28386" lon="0.18117">
        <ele>11.6</ele>
        <time>2023-09-03T10:50:54Z</time>
      </trkpt>
      <trkpt lat="49.28382" lon="0.18114">
        <ele>11.7</ele>
        <time>2023-09-03T10:50:55Z</time>
      </trkpt>
      <trkpt lat="49.28378" lon="0.18111">
        <ele>11.7</ele>
        <time>2023-09-03T10:50:56Z</time>
      </trkpt>
      <trkpt lat="49.28374" lon="0.18106">
        <ele>11.7</ele>
        <time>2023-09-03T10:50:57Z</time>
      </trkpt>
      <trkpt lat="49.28371" lon="0.18103">
        <ele>11.8</ele>
        <time>2023-09-03T10:50:58Z</time>
      </trkpt>
      <trkpt lat="49.28368" lon="0.18101">
        <ele>11.8</ele>
        <time>2023-09-03T10:50:59Z</time>
      </trkpt>
      <trkpt lat="49.28365" lon="0.18101">
        <ele>11.8</ele>
        <time>2023-09-03T10:51:00Z</time>
      </trkpt>
      <trkpt lat="49.28364" lon="0.181">
        <ele>11.8</ele>
        <time>2023-09-03T10:51:01Z</time>
      </trkpt>
      <trkpt lat="49.28363" lon="0.18099">
        <ele>11.8</ele>
        <time>2023-09-03T10:51:02Z</time>
      </trkpt>
      <trkpt lat="49.28362" lon="0.18099">
        <ele>11.8</ele>
        <time>2023-09-03T10:51:03Z</time>
      </trkpt>
      <trkpt lat="49.28362" lon="0.18098">
        <ele>11.8</ele>
        <time>2023-09-03T10:51:04Z</time>
      </trkpt>
      <trkpt lat="49.28362" lon="0.18098">
        <ele>11.8</ele>
        <time>2023-09-03T10:51:05Z</time>
      </trkpt>
      <trkpt lat="49.28361" lon="0.18098">
        <ele>11.8</ele>
        <time>2023-09-03T10:51:06Z</time>
      </trkpt>
      <trkpt lat="49.28361" lon="0.18097">
        <ele>11.9</ele>
        <time>2023-09-03T10:51:07Z</time>
      </trkpt>
      <trkpt lat="49.2836" lon="0.18097">
        <ele>11.9</ele>
        <time>2023-09-03T10:51:08Z</time>
      </trkpt>
      <trkpt lat="49.2836" lon="0.18097">
        <ele>11.9</ele>
        <time>2023-09-03T10:51:09Z</time>
      </trkpt>
      <trkpt lat="49.2836" lon="0.18096">
        <ele>11.9</ele>
        <time>2023-09-03T10:51:10Z</time>
      </trkpt>
      <trkpt lat="49.28359" lon="0.18096">
        <ele>11.9</ele>
        <time>2023-09-03T10:51:11Z</time>
      </trkpt>
      <trkpt lat="49.28359" lon="0.18096">
        <ele>11.9</ele>
        <time>2023-09-03T10:51:12Z</time>
      </trkpt>
      <trkpt lat="49.28358" lon="0.18096">
        <ele>11.9</ele>
        <time>2023-09-03T10:51:13Z</time>
      </trkpt>
      <trkpt lat="49.28358" lon="0.18095">
        <ele>11.9</ele>
        <time>2023-09-03T10:51:49Z</time>
      </trkpt>
      <trkpt lat="49.28358" lon="0.18095">
        <ele>11.9</ele>
        <time>2023-09-03T10:51:50Z</time>
      </trkpt>
      <trkpt lat="49.28357" lon="0.18095">
        <ele>11.9</ele>
        <time>2023-09-03T10:51:51Z</time>
      </trkpt>
      <trkpt lat="49.28354" lon="0.18092">
        <ele>11.9</ele>
        <time>2023-09-03T10:51:52Z</time>
      </trkpt>
      <trkpt lat="49.28353" lon="0.18091">
        <ele>11.9</ele>
        <time>2023-09-03T10:51:53Z</time>
      </trkpt>
      <trkpt lat="49.2835" lon="0.18089">
        <ele>12</ele>
        <time>2023-09-03T10:51:54Z</time>
      </trkpt>
      <trkpt lat="49.28349" lon="0.18088">
        <ele>12</ele>
        <time>2023-09-03T10:51:55Z</time>
      </trkpt>
      <trkpt lat="49.28346" lon="0.18086">
        <ele>12</ele>
        <time>2023-09-03T10:51:56Z</time>
      </trkpt>
      <trkpt lat="49.28345" lon="0.18085">
        <ele>12</ele>
        <time>2023-09-03T10:51:57Z</time>
      </trkpt>
      <trkpt lat="49.28342" lon="0.18082">
        <ele>12.1</ele>
        <time>2023-09-03T10:51:58Z</time>
      </trkpt>
      <trkpt lat="49.28341" lon="0.18081">
        <ele>12.1</ele>
        <time>2023-09-03T10:51:59Z</time>
      </trkpt>
      <trkpt lat="49.28338" lon="0.18077">
        <ele>12.1</ele>
        <time>2023-09-03T10:52:00Z</time>
      </trkpt>
      <trkpt lat="49.28337" lon="0.18076">
        <ele>12.1</ele>
        <time>2023-09-03T10:52:01Z</time>
      </trkpt>
      <trkpt lat="49.28335" lon="0.18074">
        <ele>12.1</ele>
        <time>2023-09-03T10:52:02Z</time>
      </trkpt>
      <trkpt lat="49.28334" lon="0.18073">
        <ele>12.1</ele>
        <time>2023-09-03T10:52:03Z</time>
      </trkpt>
      <trkpt lat="49.28331" lon="0.18069">
        <ele>12.1</ele>
        <time>2023-09-03T10:52:04Z</time>
      </trkpt>
      <trkpt lat="49.2833" lon="0.18067">
        <ele>12.1</ele>
        <time>2023-09-03T10:52:05Z</time>
      </trkpt>
      <trkpt lat="49.28328" lon="0.18064">
        <ele>12.1</ele>
        <time>2023-09-03T10:52:06Z</time>
      </trkpt>
      <trkpt lat="49.28326" lon="0.1806">
        <ele>12.2</ele>
        <time>2023-09-03T10:52:07Z</time>
      </trkpt>
      <trkpt lat="49.28323" lon="0.18057">
        <ele>12.2</ele>
        <time>2023-09-03T10:52:08Z</time>
      </trkpt>
      <trkpt lat="49.2832" lon="0.18053">
        <ele>12.2</ele>
        <time>2023-09-03T10:52:09Z</time>
      </trkpt>
      <trkpt lat="49.28317" lon="0.18049">
        <ele>12.2</ele>
        <time>2023-09-03T10:52:10Z</time>
      </trkpt>
      <trkpt lat="49.28314" lon="0.18046">
        <ele>12.2</ele>
        <time>2023-09-03T10:52:11Z</time>
      </trkpt>
      <trkpt lat="49.28311" lon="0.18042">
        <ele>12.2</ele>
        <time>2023-09-03T10:52:12Z</time>
      </trkpt>
      <trkpt lat="49.28307" lon="0.18039">
        <ele>12.2</ele>
        <time>2023-09-03T10:52:13Z</time>
      </trkpt>
      <trkpt lat="49.28304" lon="0.18036">
        <ele>12.3</ele>
        <time>2023-09-03T10:52:14Z</time>
      </trkpt>
      <trkpt lat="49.283" lon="0.18032">
        <ele>12.3</ele>
        <time>2023-09-03T10:52:15Z</time>
      </trkpt>
      <trkpt lat="49.28296" lon="0.18029">
        <ele>12.3</ele>
        <time>2023-09-03T10:52:16Z</time>
      </trkpt>
      <trkpt lat="49.28292" lon="0.18026">
        <ele>12.4</ele>
        <time>2023-09-03T10:52:17Z</time>
      </trkpt>
      <trkpt lat="49.28289" lon="0.18022">
        <ele>12.4</ele>
        <time>2023-09-03T10:52:18Z</time>
      </trkpt>
      <trkpt lat="49.28285" lon="0.18019">
        <ele>12.5</ele>
        <time>2023-09-03T10:52:19Z</time>
      </trkpt>
      <trkpt lat="49.2828" lon="0.18016">
        <ele>12.6</ele>
        <time>2023-09-03T10:52:20Z</time>
      </trkpt>
      <trkpt lat="49.28276" lon="0.18013">
        <ele>12.7</ele>
        <time>2023-09-03T10:52:21Z</time>
      </trkpt>
      <trkpt lat="49.28272" lon="0.1801">
        <ele>12.8</ele>
        <time>2023-09-03T10:52:22Z</time>
      </trkpt>
      <trkpt lat="49.28268" lon="0.18006">
        <ele>12.9</ele>
        <time>2023-09-03T10:52:23Z</time>
      </trkpt>
      <trkpt lat="49.28264" lon="0.18002">
        <ele>13</ele>
        <time>2023-09-03T10:52:24Z</time>
      </trkpt>
      <trkpt lat="49.2826" lon="0.17998">
        <ele>13.1</ele>
        <time>2023-09-03T10:52:25Z</time>
      </trkpt>
      <trkpt lat="49.28257" lon="0.17994">
        <ele>13.2</ele>
        <time>2023-09-03T10:52:26Z</time>
      </trkpt>
      <trkpt lat="49.28253" lon="0.1799">
        <ele>13.4</ele>
        <time>2023-09-03T10:52:27Z</time>
      </trkpt>
      <trkpt lat="49.2825" lon="0.17986">
        <ele>13.5</ele>
        <time>2023-09-03T10:52:28Z</time>
      </trkpt>
      <trkpt lat="49.28247" lon="0.17982">
        <ele>13.6</ele>
        <time>2023-09-03T10:52:29Z</time>
      </trkpt>
      <trkpt lat="49.28243" lon="0.17978">
        <ele>13.8</ele>
        <time>2023-09-03T10:52:30Z</time>
      </trkpt>
      <trkpt lat="49.2824" lon="0.17974">
        <ele>13.9</ele>
        <time>2023-09-03T10:52:31Z</time>
      </trkpt>
      <trkpt lat="49.28236" lon="0.1797">
        <ele>14.1</ele>
        <time>2023-09-03T10:52:32Z</time>
      </trkpt>
      <trkpt lat="49.28233" lon="0.17966">
        <ele>14.3</ele>
        <time>2023-09-03T10:52:33Z</time>
      </trkpt>
      <trkpt lat="49.2823" lon="0.17962">
        <ele>14.5</ele>
        <time>2023-09-03T10:52:34Z</time>
      </trkpt>
      <trkpt lat="49.28227" lon="0.17959">
        <ele>14.8</ele>
        <time>2023-09-03T10:52:35Z</time>
      </trkpt>
      <trkpt lat="49.28225" lon="0.17955">
        <ele>15</ele>
        <time>2023-09-03T10:52:36Z</time>
      </trkpt>
      <trkpt lat="49.28222" lon="0.17952">
        <ele>15.3</ele>
        <time>2023-09-03T10:52:37Z</time>
      </trkpt>
      <trkpt lat="49.28219" lon="0.17948">
        <ele>15.5</ele>
        <time>2023-09-03T10:52:38Z</time>
      </trkpt>
      <trkpt lat="49.28217" lon="0.17944">
        <ele>15.8</ele>
        <time>2023-09-03T10:52:39Z</time>
      </trkpt>
      <trkpt lat="49.28214" lon="0.1794">
        <ele>16.1</ele>
        <time>2023-09-03T10:52:40Z</time>
      </trkpt>
      <trkpt lat="49.2821" lon="0.17937">
        <ele>16.4</ele>
        <time>2023-09-03T10:52:41Z</time>
      </trkpt>
      <trkpt lat="49.28207" lon="0.17934">
        <ele>16.6</ele>
        <time>2023-09-03T10:52:42Z</time>
      </trkpt>
      <trkpt lat="49.28204" lon="0.1793">
        <ele>16.9</ele>
        <time>2023-09-03T10:52:43Z</time>
      </trkpt>
      <trkpt lat="49.28202" lon="0.17927">
        <ele>17.2</ele>
        <time>2023-09-03T10:52:44Z</time>
      </trkpt>
      <trkpt lat="49.28199" lon="0.17924">
        <ele>17.5</ele>
        <time>2023-09-03T10:52:45Z</time>
      </trkpt>
      <trkpt lat="49.28196" lon="0.1792">
        <ele>17.8</ele>
        <time>2023-09-03T10:52:46Z</time>
      </trkpt>
      <trkpt lat="49.28193" lon="0.17917">
        <ele>18.1</ele>
        <time>2023-09-03T10:52:47Z</time>
      </trkpt>
      <trkpt lat="49.2819" lon="0.17913">
        <ele>18.5</ele>
        <time>2023-09-03T10:52:48Z</time>
      </trkpt>
      <trkpt lat="49.28188" lon="0.17909">
        <ele>18.8</ele>
        <time>2023-09-03T10:52:49Z</time>
      </trkpt>
      <trkpt lat="49.28185" lon="0.17906">
        <ele>19.1</ele>
        <time>2023-09-03T10:52:50Z</time>
      </trkpt>
      <trkpt lat="49.28182" lon="0.17902">
        <ele>19.4</ele>
        <time>2023-09-03T10:52:51Z</time>
      </trkpt>
      <trkpt lat="49.28179" lon="0.17899">
        <ele>19.8</ele>
        <time>2023-09-03T10:52:52Z</time>
      </trkpt>
      <trkpt lat="49.28177" lon="0.17896">
        <ele>20.1</ele>
        <time>2023-09-03T10:52:53Z</time>
      </trkpt>
      <trkpt lat="49.28174" lon="0.17893">
        <ele>20.4</ele>
        <time>2023-09-03T10:52:54Z</time>
      </trkpt>
      <trkpt lat="49.28171" lon="0.1789">
        <ele>20.7</ele>
        <time>2023-09-03T10:52:55Z</time>
      </trkpt>
      <trkpt lat="49.28168" lon="0.17887">
        <ele>21</ele>
        <time>2023-09-03T10:52:56Z</time>
      </trkpt>
      <trkpt lat="49.28166" lon="0.17883">
        <ele>21.3</ele>
        <time>2023-09-03T10:52:57Z</time>
      </trkpt>
      <trkpt lat="49.28163" lon="0.1788">
        <ele>21.7</ele>
        <time>2023-09-03T10:52:58Z</time>
      </trkpt>
      <trkpt lat="49.2816" lon="0.17877">
        <ele>22</ele>
        <time>2023-09-03T10:52:59Z</time>
      </trkpt>
      <trkpt lat="49.28157" lon="0.17873">
        <ele>22.4</ele>
        <time>2023-09-03T10:53:00Z</time>
      </trkpt>
      <trkpt lat="49.28155" lon="0.1787">
        <ele>22.7</ele>
        <time>2023-09-03T10:53:01Z</time>
      </trkpt>
      <trkpt lat="49.28152" lon="0.17866">
        <ele>23</ele>
        <time>2023-09-03T10:53:02Z</time>
      </trkpt>
      <trkpt lat="49.2815" lon="0.17863">
        <ele>23.3</ele>
        <time>2023-09-03T10:53:03Z</time>
      </trkpt>
      <trkpt lat="49.28147" lon="0.17859">
        <ele>23.7</ele>
        <time>2023-09-03T10:53:04Z</time>
      </trkpt>
      <trkpt lat="49.28145" lon="0.17856">
        <ele>23.9</ele>
        <time>2023-09-03T10:53:05Z</time>
      </trkpt>
      <trkpt lat="49.28143" lon="0.17853">
        <ele>24.2</ele>
        <time>2023-09-03T10:53:06Z</time>
      </trkpt>
      <trkpt lat="49.2814" lon="0.1785">
        <ele>24.6</ele>
        <time>2023-09-03T10:53:07Z</time>
      </trkpt>
      <trkpt lat="49.28138" lon="0.17846">
        <ele>24.8</ele>
        <time>2023-09-03T10:53:08Z</time>
      </trkpt>
      <trkpt lat="49.28135" lon="0.17842">
        <ele>25.1</ele>
        <time>2023-09-03T10:53:09Z</time>
      </trkpt>
      <trkpt lat="49.28133" lon="0.17839">
        <ele>25.4</ele>
        <time>2023-09-03T10:53:10Z</time>
      </trkpt>
      <trkpt lat="49.2813" lon="0.17837">
        <ele>25.7</ele>
        <time>2023-09-03T10:53:11Z</time>
      </trkpt>
      <trkpt lat="49.28127" lon="0.17834">
        <ele>26</ele>
        <time>2023-09-03T10:53:12Z</time>
      </trkpt>
      <trkpt lat="49.28124" lon="0.1783">
        <ele>26.4</ele>
        <time>2023-09-03T10:53:13Z</time>
      </trkpt>
      <trkpt lat="49.2812" lon="0.17827">
        <ele>26.7</ele>
        <time>2023-09-03T10:53:14Z</time>
      </trkpt>
      <trkpt lat="49.28117" lon="0.17824">
        <ele>27.1</ele>
        <time>2023-09-03T10:53:15Z</time>
      </trkpt>
      <trkpt lat="49.28114" lon="0.17821">
        <ele>27.4</ele>
        <time>2023-09-03T10:53:16Z</time>
      </trkpt>
      <trkpt lat="49.28112" lon="0.17817">
        <ele>27.8</ele>
        <time>2023-09-03T10:53:17Z</time>
      </trkpt>
      <trkpt lat="49.28109" lon="0.17814">
        <ele>28.1</ele>
        <time>2023-09-03T10:53:18Z</time>
      </trkpt>
      <trkpt lat="49.28106" lon="0.17811">
        <ele>28.4</ele>
        <time>2023-09-03T10:53:19Z</time>
      </trkpt>
      <trkpt lat="49.28103" lon="0.17808">
        <ele>28.7</ele>
        <time>2023-09-03T10:53:20Z</time>
      </trkpt>
      <trkpt lat="49.28101" lon="0.17805">
        <ele>29</ele>
        <time>2023-09-03T10:53:21Z</time>
      </trkpt>
      <trkpt lat="49.28098" lon="0.17802">
        <ele>29.3</ele>
        <time>2023-09-03T10:53:22Z</time>
      </trkpt>
      <trkpt lat="49.28096" lon="0.17799">
        <ele>29.7</ele>
        <time>2023-09-03T10:53:23Z</time>
      </trkpt>
      <trkpt lat="49.28094" lon="0.17796">
        <ele>30</ele>
        <time>2023-09-03T10:53:24Z</time>
      </trkpt>
      <trkpt lat="49.28091" lon="0.17793">
        <ele>30.3</ele>
        <time>2023-09-03T10:53:25Z</time>
      </trkpt>
      <trkpt lat="49.28089" lon="0.1779">
        <ele>30.6</ele>
        <time>2023-09-03T10:53:26Z</time>
      </trkpt>
      <trkpt lat="49.28087" lon="0.17787">
        <ele>30.9</ele>
        <time>2023-09-03T10:53:27Z</time>
      </trkpt>
      <trkpt lat="49.28084" lon="0.17784">
        <ele>31.3</ele>
        <time>2023-09-03T10:53:28Z</time>
      </trkpt>
      <trkpt lat="49.28082" lon="0.1778">
        <ele>31.6</ele>
        <time>2023-09-03T10:53:29Z</time>
      </trkpt>
      <trkpt lat="49.28079" lon="0.17777">
        <ele>31.9</ele>
        <time>2023-09-03T10:53:30Z</time>
      </trkpt>
      <trkpt lat="49.28076" lon="0.17774">
        <ele>32.3</ele>
        <time>2023-09-03T10:53:31Z</time>
      </trkpt>
      <trkpt lat="49.28074" lon="0.17772">
        <ele>32.6</ele>
        <time>2023-09-03T10:53:32Z</time>
      </trkpt>
      <trkpt lat="49.28071" lon="0.17769">
        <ele>32.9</ele>
        <time>2023-09-03T10:53:33Z</time>
      </trkpt>
      <trkpt lat="49.28069" lon="0.17766">
        <ele>33.2</ele>
        <time>2023-09-03T10:53:34Z</time>
      </trkpt>
      <trkpt lat="49.28067" lon="0.17763">
        <ele>33.5</ele>
        <time>2023-09-03T10:53:35Z</time>
      </trkpt>
      <trkpt lat="49.28064" lon="0.1776">
        <ele>33.8</ele>
        <time>2023-09-03T10:53:36Z</time>
      </trkpt>
      <trkpt lat="49.28061" lon="0.17757">
        <ele>34.1</ele>
        <time>2023-09-03T10:53:37Z</time>
      </trkpt>
      <trkpt lat="49.28059" lon="0.17754">
        <ele>34.5</ele>
        <time>2023-09-03T10:53:38Z</time>
      </trkpt>
      <trkpt lat="49.28056" lon="0.17751">
        <ele>34.8</ele>
        <time>2023-09-03T10:53:39Z</time>
      </trkpt>
      <trkpt lat="49.28054" lon="0.17748">
        <ele>35.1</ele>
        <time>2023-09-03T10:53:40Z</time>
      </trkpt>
      <trkpt lat="49.28051" lon="0.17745">
        <ele>35.4</ele>
        <time>2023-09-03T10:53:41Z</time>
      </trkpt>
      <trkpt lat="49.28049" lon="0.17742">
        <ele>35.7</ele>
        <time>2023-09-03T10:53:42Z</time>
      </trkpt>
      <trkpt lat="49.28046" lon="0.17739">
        <ele>35.9</ele>
        <time>2023-09-03T10:53:43Z</time>
      </trkpt>
      <trkpt lat="49.28044" lon="0.17736">
        <ele>36.2</ele>
        <time>2023-09-03T10:53:44Z</time>
      </trkpt>
      <trkpt lat="49.28042" lon="0.17733">
        <ele>36.5</ele>
        <time>2023-09-03T10:53:45Z</time>
      </trkpt>
      <trkpt lat="49.28039" lon="0.1773">
        <ele>36.8</ele>
        <time>2023-09-03T10:53:46Z</time>
      </trkpt>
      <trkpt lat="49.28037" lon="0.17727">
        <ele>37</ele>
        <time>2023-09-03T10:53:47Z</time>
      </trkpt>
      <trkpt lat="49.28034" lon="0.17725">
        <ele>37.3</ele>
        <time>2023-09-03T10:53:48Z</time>
      </trkpt>
      <trkpt lat="49.28032" lon="0.17722">
        <ele>37.6</ele>
        <time>2023-09-03T10:53:49Z</time>
      </trkpt>
      <trkpt lat="49.2803" lon="0.17719">
        <ele>37.8</ele>
        <time>2023-09-03T10:53:50Z</time>
      </trkpt>
      <trkpt lat="49.28027" lon="0.17717">
        <ele>38.1</ele>
        <time>2023-09-03T10:53:51Z</time>
      </trkpt>
      <trkpt lat="49.28025" lon="0.17714">
        <ele>38.4</ele>
        <time>2023-09-03T10:53:52Z</time>
      </trkpt>
      <trkpt lat="49.28022" lon="0.17711">
        <ele>38.7</ele>
        <time>2023-09-03T10:53:53Z</time>
      </trkpt>
      <trkpt lat="49.28019" lon="0.17708">
        <ele>39</ele>
        <time>2023-09-03T10:53:54Z</time>
      </trkpt>
      <trkpt lat="49.28016" lon="0.17705">
        <ele>39.2</ele>
        <time>2023-09-03T10:53:55Z</time>
      </trkpt>
      <trkpt lat="49.28013" lon="0.17701">
        <ele>39.5</ele>
        <time>2023-09-03T10:53:56Z</time>
      </trkpt>
      <trkpt lat="49.2801" lon="0.17698">
        <ele>39.7</ele>
        <time>2023-09-03T10:53:57Z</time>
      </trkpt>
      <trkpt lat="49.28007" lon="0.17694">
        <ele>39.8</ele>
        <time>2023-09-03T10:53:58Z</time>
      </trkpt>
      <trkpt lat="49.28004" lon="0.1769">
        <ele>39.9</ele>
        <time>2023-09-03T10:53:59Z</time>
      </trkpt>
      <trkpt lat="49.28001" lon="0.17686">
        <ele>40</ele>
        <time>2023-09-03T10:54:00Z</time>
      </trkpt>
      <trkpt lat="49.27998" lon="0.17682">
        <ele>40.1</ele>
        <time>2023-09-03T10:54:01Z</time>
      </trkpt>
      <trkpt lat="49.27995" lon="0.17678">
        <ele>40.4</ele>
        <time>2023-09-03T10:54:02Z</time>
      </trkpt>
      <trkpt lat="49.27991" lon="0.17674">
        <ele>40.6</ele>
        <time>2023-09-03T10:54:03Z</time>
      </trkpt>
      <trkpt lat="49.27988" lon="0.1767">
        <ele>40.8</ele>
        <time>2023-09-03T10:54:04Z</time>
      </trkpt>
      <trkpt lat="49.27984" lon="0.17665">
        <ele>41</ele>
        <time>2023-09-03T10:54:05Z</time>
      </trkpt>
      <trkpt lat="49.27981" lon="0.17661">
        <ele>41.2</ele>
        <time>2023-09-03T10:54:06Z</time>
      </trkpt>
      <trkpt lat="49.27977" lon="0.17657">
        <ele>41.4</ele>
        <time>2023-09-03T10:54:07Z</time>
      </trkpt>
      <trkpt lat="49.27974" lon="0.17653">
        <ele>41.5</ele>
        <time>2023-09-03T10:54:08Z</time>
      </trkpt>
      <trkpt lat="49.2797" lon="0.17649">
        <ele>41.7</ele>
        <time>2023-09-03T10:54:09Z</time>
      </trkpt>
      <trkpt lat="49.27967" lon="0.17645">
        <ele>41.8</ele>
        <time>2023-09-03T10:54:10Z</time>
      </trkpt>
      <trkpt lat="49.27964" lon="0.1764">
        <ele>42</ele>
        <time>2023-09-03T10:54:11Z</time>
      </trkpt>
      <trkpt lat="49.2796" lon="0.17636">
        <ele>42.1</ele>
        <time>2023-09-03T10:54:12Z</time>
      </trkpt>
      <trkpt lat="49.27957" lon="0.17632">
        <ele>42.3</ele>
        <time>2023-09-03T10:54:13Z</time>
      </trkpt>
      <trkpt lat="49.27954" lon="0.17628">
        <ele>42.4</ele>
        <time>2023-09-03T10:54:14Z</time>
      </trkpt>
      <trkpt lat="49.2795" lon="0.17623">
        <ele>42.5</ele>
        <time>2023-09-03T10:54:15Z</time>
      </trkpt>
      <trkpt lat="49.27946" lon="0.17619">
        <ele>42.7</ele>
        <time>2023-09-03T10:54:16Z</time>
      </trkpt>
      <trkpt lat="49.27943" lon="0.17615">
        <ele>42.8</ele>
        <time>2023-09-03T10:54:17Z</time>
      </trkpt>
      <trkpt lat="49.27939" lon="0.1761">
        <ele>42.9</ele>
        <time>2023-09-03T10:54:18Z</time>
      </trkpt>
      <trkpt lat="49.27936" lon="0.17607">
        <ele>43.1</ele>
        <time>2023-09-03T10:54:19Z</time>
      </trkpt>
      <trkpt lat="49.27932" lon="0.17602">
        <ele>43.2</ele>
        <time>2023-09-03T10:54:20Z</time>
      </trkpt>
      <trkpt lat="49.27928" lon="0.17598">
        <ele>43.3</ele>
        <time>2023-09-03T10:54:21Z</time>
      </trkpt>
      <trkpt lat="49.27925" lon="0.17593">
        <ele>43.4</ele>
        <time>2023-09-03T10:54:22Z</time>
      </trkpt>
      <trkpt lat="49.27922" lon="0.17589">
        <ele>43.6</ele>
        <time>2023-09-03T10:54:23Z</time>
      </trkpt>
      <trkpt lat="49.27918" lon="0.17585">
        <ele>43.7</ele>
        <time>2023-09-03T10:54:24Z</time>
      </trkpt>
      <trkpt lat="49.27915" lon="0.1758">
        <ele>43.8</ele>
        <time>2023-09-03T10:54:25Z</time>
      </trkpt>
      <trkpt lat="49.27911" lon="0.17576">
        <ele>44</ele>
        <time>2023-09-03T10:54:26Z</time>
      </trkpt>
      <trkpt lat="49.27907" lon="0.17572">
        <ele>44.1</ele>
        <time>2023-09-03T10:54:27Z</time>
      </trkpt>
      <trkpt lat="49.27904" lon="0.17568">
        <ele>44.2</ele>
        <time>2023-09-03T10:54:28Z</time>
      </trkpt>
      <trkpt lat="49.279" lon="0.17563">
        <ele>44.3</ele>
        <time>2023-09-03T10:54:29Z</time>
      </trkpt>
      <trkpt lat="49.27897" lon="0.17559">
        <ele>44.4</ele>
        <time>2023-09-03T10:54:30Z</time>
      </trkpt>
      <trkpt lat="49.27893" lon="0.17554">
        <ele>44.5</ele>
        <time>2023-09-03T10:54:31Z</time>
      </trkpt>
      <trkpt lat="49.2789" lon="0.1755">
        <ele>44.6</ele>
        <time>2023-09-03T10:54:32Z</time>
      </trkpt>
      <trkpt lat="49.27887" lon="0.17545">
        <ele>44.7</ele>
        <time>2023-09-03T10:54:33Z</time>
      </trkpt>
      <trkpt lat="49.27883" lon="0.17541">
        <ele>44.8</ele>
        <time>2023-09-03T10:54:34Z</time>
      </trkpt>
      <trkpt lat="49.2788" lon="0.17536">
        <ele>44.9</ele>
        <time>2023-09-03T10:54:35Z</time>
      </trkpt>
      <trkpt lat="49.27877" lon="0.17531">
        <ele>45</ele>
        <time>2023-09-03T10:54:36Z</time>
      </trkpt>
      <trkpt lat="49.27875" lon="0.17525">
        <ele>45.1</ele>
        <time>2023-09-03T10:54:37Z</time>
      </trkpt>
      <trkpt lat="49.27872" lon="0.17519">
        <ele>45.3</ele>
        <time>2023-09-03T10:54:38Z</time>
      </trkpt>
      <trkpt lat="49.2787" lon="0.17514">
        <ele>45.5</ele>
        <time>2023-09-03T10:54:39Z</time>
      </trkpt>
      <trkpt lat="49.27868" lon="0.17508">
        <ele>45.7</ele>
        <time>2023-09-03T10:54:40Z</time>
      </trkpt>
      <trkpt lat="49.27866" lon="0.17501">
        <ele>45.8</ele>
        <time>2023-09-03T10:54:41Z</time>
      </trkpt>
      <trkpt lat="49.27864" lon="0.17496">
        <ele>45.9</ele>
        <time>2023-09-03T10:54:42Z</time>
      </trkpt>
      <trkpt lat="49.2786" lon="0.17491">
        <ele>46</ele>
        <time>2023-09-03T10:54:43Z</time>
      </trkpt>
      <trkpt lat="49.27856" lon="0.17488">
        <ele>46.2</ele>
        <time>2023-09-03T10:54:44Z</time>
      </trkpt>
      <trkpt lat="49.27851" lon="0.17486">
        <ele>46.3</ele>
        <time>2023-09-03T10:54:45Z</time>
      </trkpt>
      <trkpt lat="49.27846" lon="0.17486">
        <ele>46.5</ele>
        <time>2023-09-03T10:54:46Z</time>
      </trkpt>
      <trkpt lat="49.27842" lon="0.17486">
        <ele>46.7</ele>
        <time>2023-09-03T10:54:47Z</time>
      </trkpt>
      <trkpt lat="49.27837" lon="0.17484">
        <ele>46.8</ele>
        <time>2023-09-03T10:54:48Z</time>
      </trkpt>
      <trkpt lat="49.27833" lon="0.1748">
        <ele>46.9</ele>
        <time>2023-09-03T10:54:49Z</time>
      </trkpt>
      <trkpt lat="49.27829" lon="0.17476">
        <ele>47</ele>
        <time>2023-09-03T10:54:50Z</time>
      </trkpt>
      <trkpt lat="49.27825" lon="0.17472">
        <ele>47.2</ele>
        <time>2023-09-03T10:54:51Z</time>
      </trkpt>
      <trkpt lat="49.27821" lon="0.17468">
        <ele>47.3</ele>
        <time>2023-09-03T10:54:52Z</time>
      </trkpt>
      <trkpt lat="49.27817" lon="0.17463">
        <ele>47.4</ele>
        <time>2023-09-03T10:54:53Z</time>
      </trkpt>
      <trkpt lat="49.27813" lon="0.17459">
        <ele>47.6</ele>
        <time>2023-09-03T10:54:54Z</time>
      </trkpt>
      <trkpt lat="49.27809" lon="0.17455">
        <ele>47.7</ele>
        <time>2023-09-03T10:54:55Z</time>
      </trkpt>
      <trkpt lat="49.27805" lon="0.1745">
        <ele>47.8</ele>
        <time>2023-09-03T10:54:56Z</time>
      </trkpt>
      <trkpt lat="49.27802" lon="0.17446">
        <ele>48</ele>
        <time>2023-09-03T10:54:57Z</time>
      </trkpt>
      <trkpt lat="49.27798" lon="0.1744">
        <ele>48.2</ele>
        <time>2023-09-03T10:54:58Z</time>
      </trkpt>
      <trkpt lat="49.27794" lon="0.17435">
        <ele>48.3</ele>
        <time>2023-09-03T10:54:59Z</time>
      </trkpt>
      <trkpt lat="49.2779" lon="0.17431">
        <ele>48.5</ele>
        <time>2023-09-03T10:55:00Z</time>
      </trkpt>
      <trkpt lat="49.27786" lon="0.17426">
        <ele>48.6</ele>
        <time>2023-09-03T10:55:01Z</time>
      </trkpt>
      <trkpt lat="49.27782" lon="0.17421">
        <ele>48.8</ele>
        <time>2023-09-03T10:55:02Z</time>
      </trkpt>
      <trkpt lat="49.27778" lon="0.17416">
        <ele>48.9</ele>
        <time>2023-09-03T10:55:03Z</time>
      </trkpt>
      <trkpt lat="49.27775" lon="0.17411">
        <ele>49.1</ele>
        <time>2023-09-03T10:55:04Z</time>
      </trkpt>
      <trkpt lat="49.27771" lon="0.17407">
        <ele>49.3</ele>
        <time>2023-09-03T10:55:05Z</time>
      </trkpt>
      <trkpt lat="49.27767" lon="0.17402">
        <ele>49.4</ele>
        <time>2023-09-03T10:55:06Z</time>
      </trkpt>
      <trkpt lat="49.27763" lon="0.17398">
        <ele>49.6</ele>
        <time>2023-09-03T10:55:07Z</time>
      </trkpt>
      <trkpt lat="49.27759" lon="0.17393">
        <ele>49.7</ele>
        <time>2023-09-03T10:55:08Z</time>
      </trkpt>
      <trkpt lat="49.27755" lon="0.17389">
        <ele>49.9</ele>
        <time>2023-09-03T10:55:09Z</time>
      </trkpt>
      <trkpt lat="49.27751" lon="0.17384">
        <ele>50.1</ele>
        <time>2023-09-03T10:55:10Z</time>
      </trkpt>
      <trkpt lat="49.27747" lon="0.17379">
        <ele>50.3</ele>
        <time>2023-09-03T10:55:11Z</time>
      </trkpt>
      <trkpt lat="49.27744" lon="0.17375">
        <ele>50.5</ele>
        <time>2023-09-03T10:55:12Z</time>
      </trkpt>
      <trkpt lat="49.2774" lon="0.17371">
        <ele>50.6</ele>
        <time>2023-09-03T10:55:13Z</time>
      </trkpt>
      <trkpt lat="49.27736" lon="0.17366">
        <ele>50.8</ele>
        <time>2023-09-03T10:55:14Z</time>
      </trkpt>
      <trkpt lat="49.27732" lon="0.17362">
        <ele>51</ele>
        <time>2023-09-03T10:55:15Z</time>
      </trkpt>
      <trkpt lat="49.27729" lon="0.17357">
        <ele>51.2</ele>
        <time>2023-09-03T10:55:16Z</time>
      </trkpt>
      <trkpt lat="49.27725" lon="0.17353">
        <ele>51.4</ele>
        <time>2023-09-03T10:55:17Z</time>
      </trkpt>
      <trkpt lat="49.27722" lon="0.17348">
        <ele>51.6</ele>
        <time>2023-09-03T10:55:18Z</time>
      </trkpt>
      <trkpt lat="49.27718" lon="0.17343">
        <ele>51.7</ele>
        <time>2023-09-03T10:55:19Z</time>
      </trkpt>
      <trkpt lat="49.27714" lon="0.17339">
        <ele>51.9</ele>
        <time>2023-09-03T10:55:20Z</time>
      </trkpt>
      <trkpt lat="49.2771" lon="0.17335">
        <ele>52.1</ele>
        <time>2023-09-03T10:55:21Z</time>
      </trkpt>
      <trkpt lat="49.27707" lon="0.17331">
        <ele>52.2</ele>
        <time>2023-09-03T10:55:22Z</time>
      </trkpt>
      <trkpt lat="49.27704" lon="0.17327">
        <ele>52.4</ele>
        <time>2023-09-03T10:55:23Z</time>
      </trkpt>
      <trkpt lat="49.277" lon="0.17322">
        <ele>52.6</ele>
        <time>2023-09-03T10:55:24Z</time>
      </trkpt>
      <trkpt lat="49.27697" lon="0.17318">
        <ele>52.7</ele>
        <time>2023-09-03T10:55:25Z</time>
      </trkpt>
      <trkpt lat="49.27693" lon="0.17313">
        <ele>52.9</ele>
        <time>2023-09-03T10:55:26Z</time>
      </trkpt>
      <trkpt lat="49.27689" lon="0.17309">
        <ele>53</ele>
        <time>2023-09-03T10:55:27Z</time>
      </trkpt>
      <trkpt lat="49.27686" lon="0.17304">
        <ele>53.2</ele>
        <time>2023-09-03T10:55:28Z</time>
      </trkpt>
      <trkpt lat="49.27683" lon="0.173">
        <ele>53.4</ele>
        <time>2023-09-03T10:55:29Z</time>
      </trkpt>
      <trkpt lat="49.27679" lon="0.17295">
        <ele>53.6</ele>
        <time>2023-09-03T10:55:30Z</time>
      </trkpt>
      <trkpt lat="49.27676" lon="0.17292">
        <ele>53.7</ele>
        <time>2023-09-03T10:55:31Z</time>
      </trkpt>
      <trkpt lat="49.27672" lon="0.17288">
        <ele>53.9</ele>
        <time>2023-09-03T10:55:32Z</time>
      </trkpt>
      <trkpt lat="49.27669" lon="0.17284">
        <ele>54.1</ele>
        <time>2023-09-03T10:55:33Z</time>
      </trkpt>
      <trkpt lat="49.27666" lon="0.17279">
        <ele>54.2</ele>
        <time>2023-09-03T10:55:34Z</time>
      </trkpt>
      <trkpt lat="49.27663" lon="0.17275">
        <ele>54.4</ele>
        <time>2023-09-03T10:55:35Z</time>
      </trkpt>
      <trkpt lat="49.2766" lon="0.17271">
        <ele>54.6</ele>
        <time>2023-09-03T10:55:36Z</time>
      </trkpt>
      <trkpt lat="49.27656" lon="0.17266">
        <ele>54.7</ele>
        <time>2023-09-03T10:55:37Z</time>
      </trkpt>
      <trkpt lat="49.27653" lon="0.17263">
        <ele>54.9</ele>
        <time>2023-09-03T10:55:38Z</time>
      </trkpt>
      <trkpt lat="49.27649" lon="0.17259">
        <ele>55</ele>
        <time>2023-09-03T10:55:39Z</time>
      </trkpt>
      <trkpt lat="49.27646" lon="0.17255">
        <ele>55.1</ele>
        <time>2023-09-03T10:55:40Z</time>
      </trkpt>
      <trkpt lat="49.27642" lon="0.17251">
        <ele>55.3</ele>
        <time>2023-09-03T10:55:41Z</time>
      </trkpt>
      <trkpt lat="49.27638" lon="0.17247">
        <ele>55.4</ele>
        <time>2023-09-03T10:55:42Z</time>
      </trkpt>
      <trkpt lat="49.27635" lon="0.17242">
        <ele>55.5</ele>
        <time>2023-09-03T10:55:43Z</time>
      </trkpt>
      <trkpt lat="49.27632" lon="0.17238">
        <ele>55.6</ele>
        <time>2023-09-03T10:55:44Z</time>
      </trkpt>
      <trkpt lat="49.27628" lon="0.17234">
        <ele>55.8</ele>
        <time>2023-09-03T10:55:45Z</time>
      </trkpt>
      <trkpt lat="49.27625" lon="0.17229">
        <ele>55.9</ele>
        <time>2023-09-03T10:55:46Z</time>
      </trkpt>
      <trkpt lat="49.27621" lon="0.17225">
        <ele>56</ele>
        <time>2023-09-03T10:55:47Z</time>
      </trkpt>
      <trkpt lat="49.27618" lon="0.17221">
        <ele>56.2</ele>
        <time>2023-09-03T10:55:48Z</time>
      </trkpt>
      <trkpt lat="49.27615" lon="0.17217">
        <ele>56.3</ele>
        <time>2023-09-03T10:55:49Z</time>
      </trkpt>
      <trkpt lat="49.27612" lon="0.17212">
        <ele>56.4</ele>
        <time>2023-09-03T10:55:50Z</time>
      </trkpt>
      <trkpt lat="49.27608" lon="0.17208">
        <ele>56.5</ele>
        <time>2023-09-03T10:55:51Z</time>
      </trkpt>
      <trkpt lat="49.27604" lon="0.17203">
        <ele>56.6</ele>
        <time>2023-09-03T10:55:52Z</time>
      </trkpt>
      <trkpt lat="49.27601" lon="0.17199">
        <ele>56.7</ele>
        <time>2023-09-03T10:55:53Z</time>
      </trkpt>
      <trkpt lat="49.27597" lon="0.17195">
        <ele>56.8</ele>
        <time>2023-09-03T10:55:54Z</time>
      </trkpt>
      <trkpt lat="49.27593" lon="0.17191">
        <ele>56.9</ele>
        <time>2023-09-03T10:55:55Z</time>
      </trkpt>
      <trkpt lat="49.27589" lon="0.17186">
        <ele>56.9</ele>
        <time>2023-09-03T10:55:56Z</time>
      </trkpt>
      <trkpt lat="49.27585" lon="0.17182">
        <ele>57</ele>
        <time>2023-09-03T10:55:57Z</time>
      </trkpt>
      <trkpt lat="49.27581" lon="0.17177">
        <ele>57.1</ele>
        <time>2023-09-03T10:55:58Z</time>
      </trkpt>
      <trkpt lat="49.27577" lon="0.17172">
        <ele>57.1</ele>
        <time>2023-09-03T10:55:59Z</time>
      </trkpt>
      <trkpt lat="49.27573" lon="0.17168">
        <ele>57.2</ele>
        <time>2023-09-03T10:56:00Z</time>
      </trkpt>
      <trkpt lat="49.27569" lon="0.17163">
        <ele>57.2</ele>
        <time>2023-09-03T10:56:01Z</time>
      </trkpt>
      <trkpt lat="49.27565" lon="0.17157">
        <ele>57.3</ele>
        <time>2023-09-03T10:56:02Z</time>
      </trkpt>
      <trkpt lat="49.2756" lon="0.17152">
        <ele>57.4</ele>
        <time>2023-09-03T10:56:03Z</time>
      </trkpt>
      <trkpt lat="49.27556" lon="0.17146">
        <ele>57.4</ele>
        <time>2023-09-03T10:56:04Z</time>
      </trkpt>
      <trkpt lat="49.27551" lon="0.17141">
        <ele>57.4</ele>
        <time>2023-09-03T10:56:05Z</time>
      </trkpt>
      <trkpt lat="49.27547" lon="0.17135">
        <ele>57.5</ele>
        <time>2023-09-03T10:56:06Z</time>
      </trkpt>
      <trkpt lat="49.27543" lon="0.1713">
        <ele>57.5</ele>
        <time>2023-09-03T10:56:07Z</time>
      </trkpt>
      <trkpt lat="49.27538" lon="0.17125">
        <ele>57.6</ele>
        <time>2023-09-03T10:56:08Z</time>
      </trkpt>
      <trkpt lat="49.27534" lon="0.17119">
        <ele>57.6</ele>
        <time>2023-09-03T10:56:09Z</time>
      </trkpt>
      <trkpt lat="49.27529" lon="0.17114">
        <ele>57.6</ele>
        <time>2023-09-03T10:56:10Z</time>
      </trkpt>
      <trkpt lat="49.27525" lon="0.17109">
        <ele>57.7</ele>
        <time>2023-09-03T10:56:11Z</time>
      </trkpt>
      <trkpt lat="49.2752" lon="0.17103">
        <ele>57.7</ele>
        <time>2023-09-03T10:56:12Z</time>
      </trkpt>
      <trkpt lat="49.27516" lon="0.17098">
        <ele>57.7</ele>
        <time>2023-09-03T10:56:13Z</time>
      </trkpt>
      <trkpt lat="49.27511" lon="0.17092">
        <ele>57.7</ele>
        <time>2023-09-03T10:56:14Z</time>
      </trkpt>
      <trkpt lat="49.27506" lon="0.17087">
        <ele>57.7</ele>
        <time>2023-09-03T10:56:15Z</time>
      </trkpt>
      <trkpt lat="49.27501" lon="0.17081">
        <ele>57.7</ele>
        <time>2023-09-03T10:56:16Z</time>
      </trkpt>
      <trkpt lat="49.27496" lon="0.17075">
        <ele>57.7</ele>
        <time>2023-09-03T10:56:17Z</time>
      </trkpt>
      <trkpt lat="49.27491" lon="0.17069">
        <ele>57.7</ele>
        <time>2023-09-03T10:56:18Z</time>
      </trkpt>
      <trkpt lat="49.27485" lon="0.17063">
        <ele>57.7</ele>
        <time>2023-09-03T10:56:19Z</time>
      </trkpt>
      <trkpt lat="49.2748" lon="0.17057">
        <ele>57.7</ele>
        <time>2023-09-03T10:56:20Z</time>
      </trkpt>
      <trkpt lat="49.27475" lon="0.17051">
        <ele>57.7</ele>
        <time>2023-09-03T10:56:21Z</time>
      </trkpt>
      <trkpt lat="49.27469" lon="0.17045">
        <ele>57.7</ele>
        <time>2023-09-03T10:56:22Z</time>
      </trkpt>
      <trkpt lat="49.27464" lon="0.17038">
        <ele>57.7</ele>
        <time>2023-09-03T10:56:23Z</time>
      </trkpt>
      <trkpt lat="49.27459" lon="0.17031">
        <ele>57.7</ele>
        <time>2023-09-03T10:56:24Z</time>
      </trkpt>
      <trkpt lat="49.27454" lon="0.17024">
        <ele>57.8</ele>
        <time>2023-09-03T10:56:25Z</time>
      </trkpt>
      <trkpt lat="49.27448" lon="0.17018">
        <ele>57.8</ele>
        <time>2023-09-03T10:56:26Z</time>
      </trkpt>
      <trkpt lat="49.27443" lon="0.17012">
        <ele>57.8</ele>
        <time>2023-09-03T10:56:27Z</time>
      </trkpt>
      <trkpt lat="49.27437" lon="0.17005">
        <ele>57.8</ele>
        <time>2023-09-03T10:56:28Z</time>
      </trkpt>
      <trkpt lat="49.27432" lon="0.16999">
        <ele>57.9</ele>
        <time>2023-09-03T10:56:29Z</time>
      </trkpt>
      <trkpt lat="49.27427" lon="0.16993">
        <ele>57.9</ele>
        <time>2023-09-03T10:56:30Z</time>
      </trkpt>
      <trkpt lat="49.27422" lon="0.16987">
        <ele>57.9</ele>
        <time>2023-09-03T10:56:31Z</time>
      </trkpt>
      <trkpt lat="49.27417" lon="0.16981">
        <ele>58</ele>
        <time>2023-09-03T10:56:32Z</time>
      </trkpt>
      <trkpt lat="49.27412" lon="0.16975">
        <ele>58.1</ele>
        <time>2023-09-03T10:56:33Z</time>
      </trkpt>
      <trkpt lat="49.27407" lon="0.16968">
        <ele>58.2</ele>
        <time>2023-09-03T10:56:34Z</time>
      </trkpt>
      <trkpt lat="49.27402" lon="0.16962">
        <ele>58.4</ele>
        <time>2023-09-03T10:56:35Z</time>
      </trkpt>
      <trkpt lat="49.27397" lon="0.16957">
        <ele>58.5</ele>
        <time>2023-09-03T10:56:36Z</time>
      </trkpt>
      <trkpt lat="49.27393" lon="0.16951">
        <ele>58.7</ele>
        <time>2023-09-03T10:56:37Z</time>
      </trkpt>
      <trkpt lat="49.27388" lon="0.16946">
        <ele>58.8</ele>
        <time>2023-09-03T10:56:38Z</time>
      </trkpt>
      <trkpt lat="49.27384" lon="0.1694">
        <ele>59</ele>
        <time>2023-09-03T10:56:39Z</time>
      </trkpt>
      <trkpt lat="49.27379" lon="0.16934">
        <ele>59.2</ele>
        <time>2023-09-03T10:56:40Z</time>
      </trkpt>
      <trkpt lat="49.27375" lon="0.16929">
        <ele>59.4</ele>
        <time>2023-09-03T10:56:41Z</time>
      </trkpt>
      <trkpt lat="49.27371" lon="0.16924">
        <ele>59.6</ele>
        <time>2023-09-03T10:56:42Z</time>
      </trkpt>
      <trkpt lat="49.27366" lon="0.16919">
        <ele>59.8</ele>
        <time>2023-09-03T10:56:43Z</time>
      </trkpt>
      <trkpt lat="49.27362" lon="0.16914">
        <ele>60</ele>
        <time>2023-09-03T10:56:44Z</time>
      </trkpt>
      <trkpt lat="49.27357" lon="0.16909">
        <ele>60.2</ele>
        <time>2023-09-03T10:56:45Z</time>
      </trkpt>
      <trkpt lat="49.27353" lon="0.16903">
        <ele>60.4</ele>
        <time>2023-09-03T10:56:46Z</time>
      </trkpt>
      <trkpt lat="49.27349" lon="0.16898">
        <ele>60.6</ele>
        <time>2023-09-03T10:56:47Z</time>
      </trkpt>
      <trkpt lat="49.27345" lon="0.16893">
        <ele>60.8</ele>
        <time>2023-09-03T10:56:48Z</time>
      </trkpt>
      <trkpt lat="49.2734" lon="0.16888">
        <ele>61</ele>
        <time>2023-09-03T10:56:49Z</time>
      </trkpt>
      <trkpt lat="49.27336" lon="0.16883">
        <ele>61.2</ele>
        <time>2023-09-03T10:56:50Z</time>
      </trkpt>
      <trkpt lat="49.27332" lon="0.16878">
        <ele>61.4</ele>
        <time>2023-09-03T10:56:51Z</time>
      </trkpt>
      <trkpt lat="49.27327" lon="0.16873">
        <ele>61.6</ele>
        <time>2023-09-03T10:56:52Z</time>
      </trkpt>
      <trkpt lat="49.27323" lon="0.16868">
        <ele>61.8</ele>
        <time>2023-09-03T10:56:53Z</time>
      </trkpt>
      <trkpt lat="49.27319" lon="0.16862">
        <ele>62.1</ele>
        <time>2023-09-03T10:56:54Z</time>
      </trkpt>
      <trkpt lat="49.27314" lon="0.16857">
        <ele>62.3</ele>
        <time>2023-09-03T10:56:55Z</time>
      </trkpt>
      <trkpt lat="49.2731" lon="0.16852">
        <ele>62.5</ele>
        <time>2023-09-03T10:56:56Z</time>
      </trkpt>
      <trkpt lat="49.27306" lon="0.16846">
        <ele>62.7</ele>
        <time>2023-09-03T10:56:57Z</time>
      </trkpt>
      <trkpt lat="49.27302" lon="0.16841">
        <ele>63</ele>
        <time>2023-09-03T10:56:58Z</time>
      </trkpt>
      <trkpt lat="49.27298" lon="0.16836">
        <ele>63.2</ele>
        <time>2023-09-03T10:56:59Z</time>
      </trkpt>
      <trkpt lat="49.27293" lon="0.16831">
        <ele>63.4</ele>
        <time>2023-09-03T10:57:00Z</time>
      </trkpt>
      <trkpt lat="49.27289" lon="0.16826">
        <ele>63.6</ele>
        <time>2023-09-03T10:57:01Z</time>
      </trkpt>
      <trkpt lat="49.27285" lon="0.16821">
        <ele>63.9</ele>
        <time>2023-09-03T10:57:02Z</time>
      </trkpt>
      <trkpt lat="49.27281" lon="0.16817">
        <ele>64.1</ele>
        <time>2023-09-03T10:57:03Z</time>
      </trkpt>
      <trkpt lat="49.27277" lon="0.16812">
        <ele>64.3</ele>
        <time>2023-09-03T10:57:04Z</time>
      </trkpt>
      <trkpt lat="49.27273" lon="0.16807">
        <ele>64.6</ele>
        <time>2023-09-03T10:57:05Z</time>
      </trkpt>
      <trkpt lat="49.27269" lon="0.16802">
        <ele>64.8</ele>
        <time>2023-09-03T10:57:06Z</time>
      </trkpt>
      <trkpt lat="49.27265" lon="0.16797">
        <ele>65</ele>
        <time>2023-09-03T10:57:07Z</time>
      </trkpt>
      <trkpt lat="49.27261" lon="0.16792">
        <ele>65.3</ele>
        <time>2023-09-03T10:57:08Z</time>
      </trkpt>
      <trkpt lat="49.27257" lon="0.16788">
        <ele>65.5</ele>
        <time>2023-09-03T10:57:09Z</time>
      </trkpt>
      <trkpt lat="49.27253" lon="0.16783">
        <ele>65.7</ele>
        <time>2023-09-03T10:57:10Z</time>
      </trkpt>
      <trkpt lat="49.27249" lon="0.16778">
        <ele>66</ele>
        <time>2023-09-03T10:57:11Z</time>
      </trkpt>
      <trkpt lat="49.27245" lon="0.16773">
        <ele>66.2</ele>
        <time>2023-09-03T10:57:12Z</time>
      </trkpt>
      <trkpt lat="49.27241" lon="0.16768">
        <ele>66.4</ele>
        <time>2023-09-03T10:57:13Z</time>
      </trkpt>
      <trkpt lat="49.27237" lon="0.16763">
        <ele>66.7</ele>
        <time>2023-09-03T10:57:14Z</time>
      </trkpt>
      <trkpt lat="49.27233" lon="0.16759">
        <ele>66.9</ele>
        <time>2023-09-03T10:57:15Z</time>
      </trkpt>
      <trkpt lat="49.27229" lon="0.16754">
        <ele>67.1</ele>
        <time>2023-09-03T10:57:16Z</time>
      </trkpt>
      <trkpt lat="49.27226" lon="0.1675">
        <ele>67.3</ele>
        <time>2023-09-03T10:57:17Z</time>
      </trkpt>
      <trkpt lat="49.27222" lon="0.16746">
        <ele>67.5</ele>
        <time>2023-09-03T10:57:18Z</time>
      </trkpt>
      <trkpt lat="49.27218" lon="0.16742">
        <ele>67.7</ele>
        <time>2023-09-03T10:57:19Z</time>
      </trkpt>
      <trkpt lat="49.27215" lon="0.16738">
        <ele>67.9</ele>
        <time>2023-09-03T10:57:20Z</time>
      </trkpt>
      <trkpt lat="49.27211" lon="0.16733">
        <ele>68.1</ele>
        <time>2023-09-03T10:57:21Z</time>
      </trkpt>
      <trkpt lat="49.27207" lon="0.16729">
        <ele>68.2</ele>
        <time>2023-09-03T10:57:22Z</time>
      </trkpt>
      <trkpt lat="49.27202" lon="0.16726">
        <ele>68.5</ele>
        <time>2023-09-03T10:57:23Z</time>
      </trkpt>
      <trkpt lat="49.27197" lon="0.16721">
        <ele>68.7</ele>
        <time>2023-09-03T10:57:24Z</time>
      </trkpt>
      <trkpt lat="49.27193" lon="0.16716">
        <ele>68.9</ele>
        <time>2023-09-03T10:57:25Z</time>
      </trkpt>
      <trkpt lat="49.27188" lon="0.16711">
        <ele>69.2</ele>
        <time>2023-09-03T10:57:26Z</time>
      </trkpt>
      <trkpt lat="49.27183" lon="0.16706">
        <ele>69.4</ele>
        <time>2023-09-03T10:57:27Z</time>
      </trkpt>
      <trkpt lat="49.27178" lon="0.16701">
        <ele>69.7</ele>
        <time>2023-09-03T10:57:28Z</time>
      </trkpt>
      <trkpt lat="49.27172" lon="0.16696">
        <ele>69.9</ele>
        <time>2023-09-03T10:57:29Z</time>
      </trkpt>
      <trkpt lat="49.27167" lon="0.16692">
        <ele>70.2</ele>
        <time>2023-09-03T10:57:30Z</time>
      </trkpt>
      <trkpt lat="49.27162" lon="0.16688">
        <ele>70.4</ele>
        <time>2023-09-03T10:57:31Z</time>
      </trkpt>
      <trkpt lat="49.27157" lon="0.16685">
        <ele>70.6</ele>
        <time>2023-09-03T10:57:32Z</time>
      </trkpt>
      <trkpt lat="49.27152" lon="0.1668">
        <ele>70.9</ele>
        <time>2023-09-03T10:57:33Z</time>
      </trkpt>
      <trkpt lat="49.27147" lon="0.16677">
        <ele>71.1</ele>
        <time>2023-09-03T10:57:34Z</time>
      </trkpt>
      <trkpt lat="49.27143" lon="0.16673">
        <ele>71.3</ele>
        <time>2023-09-03T10:57:35Z</time>
      </trkpt>
      <trkpt lat="49.27138" lon="0.16669">
        <ele>71.5</ele>
        <time>2023-09-03T10:57:36Z</time>
      </trkpt>
      <trkpt lat="49.27133" lon="0.16666">
        <ele>71.7</ele>
        <time>2023-09-03T10:57:37Z</time>
      </trkpt>
      <trkpt lat="49.27128" lon="0.16662">
        <ele>71.9</ele>
        <time>2023-09-03T10:57:38Z</time>
      </trkpt>
      <trkpt lat="49.27123" lon="0.16658">
        <ele>72.1</ele>
        <time>2023-09-03T10:57:39Z</time>
      </trkpt>
      <trkpt lat="49.27118" lon="0.16655">
        <ele>72.3</ele>
        <time>2023-09-03T10:57:40Z</time>
      </trkpt>
      <trkpt lat="49.27113" lon="0.16652">
        <ele>72.5</ele>
        <time>2023-09-03T10:57:41Z</time>
      </trkpt>
      <trkpt lat="49.27108" lon="0.16648">
        <ele>72.7</ele>
        <time>2023-09-03T10:57:42Z</time>
      </trkpt>
      <trkpt lat="49.27103" lon="0.16645">
        <ele>72.9</ele>
        <time>2023-09-03T10:57:43Z</time>
      </trkpt>
      <trkpt lat="49.27098" lon="0.16641">
        <ele>73.2</ele>
        <time>2023-09-03T10:57:44Z</time>
      </trkpt>
      <trkpt lat="49.27093" lon="0.16637">
        <ele>73.4</ele>
        <time>2023-09-03T10:57:45Z</time>
      </trkpt>
      <trkpt lat="49.27087" lon="0.16633">
        <ele>73.6</ele>
        <time>2023-09-03T10:57:46Z</time>
      </trkpt>
      <trkpt lat="49.27082" lon="0.16629">
        <ele>73.8</ele>
        <time>2023-09-03T10:57:47Z</time>
      </trkpt>
      <trkpt lat="49.27077" lon="0.16626">
        <ele>74</ele>
        <time>2023-09-03T10:57:48Z</time>
      </trkpt>
      <trkpt lat="49.27072" lon="0.16622">
        <ele>74.2</ele>
        <time>2023-09-03T10:57:49Z</time>
      </trkpt>
      <trkpt lat="49.27068" lon="0.16618">
        <ele>74.4</ele>
        <time>2023-09-03T10:57:50Z</time>
      </trkpt>
      <trkpt lat="49.27063" lon="0.16614">
        <ele>74.6</ele>
        <time>2023-09-03T10:57:51Z</time>
      </trkpt>
      <trkpt lat="49.27057" lon="0.1661">
        <ele>74.9</ele>
        <time>2023-09-03T10:57:52Z</time>
      </trkpt>
      <trkpt lat="49.27053" lon="0.16607">
        <ele>75.1</ele>
        <time>2023-09-03T10:57:53Z</time>
      </trkpt>
      <trkpt lat="49.27048" lon="0.16603">
        <ele>75.3</ele>
        <time>2023-09-03T10:57:54Z</time>
      </trkpt>
      <trkpt lat="49.27043" lon="0.16599">
        <ele>75.5</ele>
        <time>2023-09-03T10:57:55Z</time>
      </trkpt>
      <trkpt lat="49.27039" lon="0.16595">
        <ele>75.8</ele>
        <time>2023-09-03T10:57:56Z</time>
      </trkpt>
      <trkpt lat="49.27035" lon="0.16591">
        <ele>76</ele>
        <time>2023-09-03T10:57:57Z</time>
      </trkpt>
      <trkpt lat="49.27031" lon="0.16587">
        <ele>76.2</ele>
        <time>2023-09-03T10:57:58Z</time>
      </trkpt>
      <trkpt lat="49.27026" lon="0.16583">
        <ele>76.4</ele>
        <time>2023-09-03T10:57:59Z</time>
      </trkpt>
      <trkpt lat="49.27022" lon="0.16579">
        <ele>76.7</ele>
        <time>2023-09-03T10:58:00Z</time>
      </trkpt>
      <trkpt lat="49.27018" lon="0.16574">
        <ele>77</ele>
        <time>2023-09-03T10:58:01Z</time>
      </trkpt>
      <trkpt lat="49.27014" lon="0.16569">
        <ele>77.2</ele>
        <time>2023-09-03T10:58:02Z</time>
      </trkpt>
      <trkpt lat="49.2701" lon="0.16564">
        <ele>77.5</ele>
        <time>2023-09-03T10:58:03Z</time>
      </trkpt>
      <trkpt lat="49.27006" lon="0.16559">
        <ele>77.8</ele>
        <time>2023-09-03T10:58:04Z</time>
      </trkpt>
      <trkpt lat="49.27002" lon="0.16554">
        <ele>78</ele>
        <time>2023-09-03T10:58:05Z</time>
      </trkpt>
      <trkpt lat="49.26998" lon="0.16549">
        <ele>78.3</ele>
        <time>2023-09-03T10:58:06Z</time>
      </trkpt>
      <trkpt lat="49.26994" lon="0.16544">
        <ele>78.5</ele>
        <time>2023-09-03T10:58:07Z</time>
      </trkpt>
      <trkpt lat="49.26991" lon="0.16538">
        <ele>78.8</ele>
        <time>2023-09-03T10:58:08Z</time>
      </trkpt>
      <trkpt lat="49.26988" lon="0.16533">
        <ele>79</ele>
        <time>2023-09-03T10:58:09Z</time>
      </trkpt>
      <trkpt lat="49.26984" lon="0.16527">
        <ele>79.3</ele>
        <time>2023-09-03T10:58:10Z</time>
      </trkpt>
      <trkpt lat="49.26981" lon="0.16522">
        <ele>79.6</ele>
        <time>2023-09-03T10:58:11Z</time>
      </trkpt>
      <trkpt lat="49.26978" lon="0.16517">
        <ele>79.8</ele>
        <time>2023-09-03T10:58:12Z</time>
      </trkpt>
      <trkpt lat="49.26975" lon="0.16512">
        <ele>80.1</ele>
        <time>2023-09-03T10:58:13Z</time>
      </trkpt>
      <trkpt lat="49.26972" lon="0.16507">
        <ele>80.3</ele>
        <time>2023-09-03T10:58:14Z</time>
      </trkpt>
      <trkpt lat="49.26969" lon="0.16502">
        <ele>80.5</ele>
        <time>2023-09-03T10:58:15Z</time>
      </trkpt>
      <trkpt lat="49.26966" lon="0.16498">
        <ele>80.7</ele>
        <time>2023-09-03T10:58:16Z</time>
      </trkpt>
      <trkpt lat="49.26964" lon="0.16493">
        <ele>81</ele>
        <time>2023-09-03T10:58:17Z</time>
      </trkpt>
      <trkpt lat="49.26961" lon="0.16488">
        <ele>81.2</ele>
        <time>2023-09-03T10:58:18Z</time>
      </trkpt>
      <trkpt lat="49.26958" lon="0.16484">
        <ele>81.4</ele>
        <time>2023-09-03T10:58:19Z</time>
      </trkpt>
      <trkpt lat="49.26956" lon="0.16479">
        <ele>81.7</ele>
        <time>2023-09-03T10:58:20Z</time>
      </trkpt>
      <trkpt lat="49.26953" lon="0.16475">
        <ele>81.9</ele>
        <time>2023-09-03T10:58:21Z</time>
      </trkpt>
      <trkpt lat="49.2695" lon="0.1647">
        <ele>82.2</ele>
        <time>2023-09-03T10:58:22Z</time>
      </trkpt>
      <trkpt lat="49.26947" lon="0.16466">
        <ele>82.5</ele>
        <time>2023-09-03T10:58:23Z</time>
      </trkpt>
      <trkpt lat="49.26945" lon="0.16462">
        <ele>82.8</ele>
        <time>2023-09-03T10:58:24Z</time>
      </trkpt>
      <trkpt lat="49.26942" lon="0.16458">
        <ele>83.1</ele>
        <time>2023-09-03T10:58:25Z</time>
      </trkpt>
      <trkpt lat="49.2694" lon="0.16454">
        <ele>83.3</ele>
        <time>2023-09-03T10:58:26Z</time>
      </trkpt>
      <trkpt lat="49.26937" lon="0.1645">
        <ele>83.6</ele>
        <time>2023-09-03T10:58:27Z</time>
      </trkpt>
      <trkpt lat="49.26935" lon="0.16446">
        <ele>83.9</ele>
        <time>2023-09-03T10:58:28Z</time>
      </trkpt>
      <trkpt lat="49.26931" lon="0.16441">
        <ele>84.2</ele>
        <time>2023-09-03T10:58:29Z</time>
      </trkpt>
      <trkpt lat="49.26928" lon="0.16437">
        <ele>84.5</ele>
        <time>2023-09-03T10:58:30Z</time>
      </trkpt>
      <trkpt lat="49.26925" lon="0.16433">
        <ele>84.7</ele>
        <time>2023-09-03T10:58:31Z</time>
      </trkpt>
      <trkpt lat="49.26922" lon="0.16428">
        <ele>85</ele>
        <time>2023-09-03T10:58:32Z</time>
      </trkpt>
      <trkpt lat="49.26919" lon="0.16422">
        <ele>85.3</ele>
        <time>2023-09-03T10:58:33Z</time>
      </trkpt>
      <trkpt lat="49.26915" lon="0.16417">
        <ele>85.7</ele>
        <time>2023-09-03T10:58:34Z</time>
      </trkpt>
      <trkpt lat="49.26912" lon="0.16412">
        <ele>86</ele>
        <time>2023-09-03T10:58:35Z</time>
      </trkpt>
      <trkpt lat="49.26909" lon="0.16408">
        <ele>86.2</ele>
        <time>2023-09-03T10:58:36Z</time>
      </trkpt>
      <trkpt lat="49.26905" lon="0.16403">
        <ele>86.5</ele>
        <time>2023-09-03T10:58:37Z</time>
      </trkpt>
      <trkpt lat="49.26902" lon="0.16398">
        <ele>86.8</ele>
        <time>2023-09-03T10:58:38Z</time>
      </trkpt>
      <trkpt lat="49.26899" lon="0.16395">
        <ele>87</ele>
        <time>2023-09-03T10:58:39Z</time>
      </trkpt>
      <trkpt lat="49.26896" lon="0.1639">
        <ele>87.2</ele>
        <time>2023-09-03T10:58:40Z</time>
      </trkpt>
      <trkpt lat="49.26894" lon="0.16386">
        <ele>87.4</ele>
        <time>2023-09-03T10:58:41Z</time>
      </trkpt>
      <trkpt lat="49.26892" lon="0.16382">
        <ele>87.7</ele>
        <time>2023-09-03T10:58:42Z</time>
      </trkpt>
      <trkpt lat="49.26889" lon="0.16378">
        <ele>87.9</ele>
        <time>2023-09-03T10:58:43Z</time>
      </trkpt>
      <trkpt lat="49.26886" lon="0.16375">
        <ele>88.1</ele>
        <time>2023-09-03T10:58:44Z</time>
      </trkpt>
      <trkpt lat="49.26883" lon="0.16371">
        <ele>88.3</ele>
        <time>2023-09-03T10:58:45Z</time>
      </trkpt>
      <trkpt lat="49.26881" lon="0.16367">
        <ele>88.5</ele>
        <time>2023-09-03T10:58:46Z</time>
      </trkpt>
      <trkpt lat="49.26878" lon="0.16363">
        <ele>88.7</ele>
        <time>2023-09-03T10:58:47Z</time>
      </trkpt>
      <trkpt lat="49.26875" lon="0.16359">
        <ele>88.9</ele>
        <time>2023-09-03T10:58:48Z</time>
      </trkpt>
      <trkpt lat="49.26872" lon="0.16354">
        <ele>89.1</ele>
        <time>2023-09-03T10:58:49Z</time>
      </trkpt>
      <trkpt lat="49.26869" lon="0.16348">
        <ele>89.4</ele>
        <time>2023-09-03T10:58:50Z</time>
      </trkpt>
      <trkpt lat="49.26867" lon="0.16342">
        <ele>89.7</ele>
        <time>2023-09-03T10:58:51Z</time>
      </trkpt>
      <trkpt lat="49.26864" lon="0.16337">
        <ele>89.9</ele>
        <time>2023-09-03T10:58:52Z</time>
      </trkpt>
      <trkpt lat="49.26861" lon="0.16333">
        <ele>90.2</ele>
        <time>2023-09-03T10:58:53Z</time>
      </trkpt>
      <trkpt lat="49.26858" lon="0.16327">
        <ele>90.5</ele>
        <time>2023-09-03T10:58:54Z</time>
      </trkpt>
      <trkpt lat="49.26854" lon="0.16322">
        <ele>90.7</ele>
        <time>2023-09-03T10:58:55Z</time>
      </trkpt>
      <trkpt lat="49.26851" lon="0.16317">
        <ele>91</ele>
        <time>2023-09-03T10:58:56Z</time>
      </trkpt>
      <trkpt lat="49.26848" lon="0.16313">
        <ele>91.2</ele>
        <time>2023-09-03T10:58:57Z</time>
      </trkpt>
      <trkpt lat="49.26845" lon="0.16309">
        <ele>91.5</ele>
        <time>2023-09-03T10:58:58Z</time>
      </trkpt>
      <trkpt lat="49.26842" lon="0.16306">
        <ele>91.7</ele>
        <time>2023-09-03T10:58:59Z</time>
      </trkpt>
      <trkpt lat="49.26839" lon="0.16302">
        <ele>92</ele>
        <time>2023-09-03T10:59:00Z</time>
      </trkpt>
      <trkpt lat="49.26835" lon="0.16298">
        <ele>92.3</ele>
        <time>2023-09-03T10:59:01Z</time>
      </trkpt>
      <trkpt lat="49.26833" lon="0.16294">
        <ele>92.5</ele>
        <time>2023-09-03T10:59:02Z</time>
      </trkpt>
      <trkpt lat="49.2683" lon="0.1629">
        <ele>92.7</ele>
        <time>2023-09-03T10:59:03Z</time>
      </trkpt>
      <trkpt lat="49.26827" lon="0.16286">
        <ele>92.9</ele>
        <time>2023-09-03T10:59:04Z</time>
      </trkpt>
      <trkpt lat="49.26824" lon="0.16282">
        <ele>93.1</ele>
        <time>2023-09-03T10:59:05Z</time>
      </trkpt>
      <trkpt lat="49.26821" lon="0.16279">
        <ele>93.4</ele>
        <time>2023-09-03T10:59:06Z</time>
      </trkpt>
      <trkpt lat="49.26818" lon="0.16275">
        <ele>93.6</ele>
        <time>2023-09-03T10:59:07Z</time>
      </trkpt>
      <trkpt lat="49.26815" lon="0.16272">
        <ele>93.8</ele>
        <time>2023-09-03T10:59:08Z</time>
      </trkpt>
      <trkpt lat="49.26813" lon="0.16267">
        <ele>94</ele>
        <time>2023-09-03T10:59:09Z</time>
      </trkpt>
      <trkpt lat="49.2681" lon="0.16262">
        <ele>94.3</ele>
        <time>2023-09-03T10:59:10Z</time>
      </trkpt>
      <trkpt lat="49.26808" lon="0.16257">
        <ele>94.6</ele>
        <time>2023-09-03T10:59:11Z</time>
      </trkpt>
      <trkpt lat="49.26805" lon="0.16251">
        <ele>94.8</ele>
        <time>2023-09-03T10:59:12Z</time>
      </trkpt>
      <trkpt lat="49.26802" lon="0.16247">
        <ele>95.1</ele>
        <time>2023-09-03T10:59:13Z</time>
      </trkpt>
      <trkpt lat="49.268" lon="0.16242">
        <ele>95.3</ele>
        <time>2023-09-03T10:59:14Z</time>
      </trkpt>
      <trkpt lat="49.26797" lon="0.16238">
        <ele>95.5</ele>
        <time>2023-09-03T10:59:15Z</time>
      </trkpt>
      <trkpt lat="49.26794" lon="0.16233">
        <ele>95.8</ele>
        <time>2023-09-03T10:59:16Z</time>
      </trkpt>
      <trkpt lat="49.26791" lon="0.16229">
        <ele>96</ele>
        <time>2023-09-03T10:59:17Z</time>
      </trkpt>
      <trkpt lat="49.26789" lon="0.16224">
        <ele>96.2</ele>
        <time>2023-09-03T10:59:18Z</time>
      </trkpt>
      <trkpt lat="49.26786" lon="0.16219">
        <ele>96.5</ele>
        <time>2023-09-03T10:59:19Z</time>
      </trkpt>
      <trkpt lat="49.26782" lon="0.16214">
        <ele>96.7</ele>
        <time>2023-09-03T10:59:20Z</time>
      </trkpt>
      <trkpt lat="49.26779" lon="0.1621">
        <ele>97</ele>
        <time>2023-09-03T10:59:21Z</time>
      </trkpt>
      <trkpt lat="49.26776" lon="0.16205">
        <ele>97.3</ele>
        <time>2023-09-03T10:59:22Z</time>
      </trkpt>
      <trkpt lat="49.26773" lon="0.162">
        <ele>97.5</ele>
        <time>2023-09-03T10:59:23Z</time>
      </trkpt>
      <trkpt lat="49.2677" lon="0.16195">
        <ele>97.8</ele>
        <time>2023-09-03T10:59:24Z</time>
      </trkpt>
      <trkpt lat="49.26767" lon="0.16191">
        <ele>98.1</ele>
        <time>2023-09-03T10:59:25Z</time>
      </trkpt>
      <trkpt lat="49.26764" lon="0.16186">
        <ele>98.4</ele>
        <time>2023-09-03T10:59:26Z</time>
      </trkpt>
      <trkpt lat="49.26762" lon="0.16182">
        <ele>98.6</ele>
        <time>2023-09-03T10:59:27Z</time>
      </trkpt>
      <trkpt lat="49.26759" lon="0.16178">
        <ele>98.9</ele>
        <time>2023-09-03T10:59:28Z</time>
      </trkpt>
      <trkpt lat="49.26755" lon="0.16174">
        <ele>99.2</ele>
        <time>2023-09-03T10:59:29Z</time>
      </trkpt>
      <trkpt lat="49.26753" lon="0.1617">
        <ele>99.4</ele>
        <time>2023-09-03T10:59:30Z</time>
      </trkpt>
      <trkpt lat="49.26749" lon="0.16165">
        <ele>99.7</ele>
        <time>2023-09-03T10:59:31Z</time>
      </trkpt>
      <trkpt lat="49.26747" lon="0.16161">
        <ele>100</ele>
        <time>2023-09-03T10:59:32Z</time>
      </trkpt>
      <trkpt lat="49.26744" lon="0.16157">
        <ele>100.2</ele>
        <time>2023-09-03T10:59:33Z</time>
      </trkpt>
      <trkpt lat="49.26741" lon="0.16152">
        <ele>100.5</ele>
        <time>2023-09-03T10:59:34Z</time>
      </trkpt>
      <trkpt lat="49.26738" lon="0.16148">
        <ele>100.8</ele>
        <time>2023-09-03T10:59:35Z</time>
      </trkpt>
      <trkpt lat="49.26735" lon="0.16144">
        <ele>101.1</ele>
        <time>2023-09-03T10:59:36Z</time>
      </trkpt>
      <trkpt lat="49.26732" lon="0.1614">
        <ele>101.4</ele>
        <time>2023-09-03T10:59:37Z</time>
      </trkpt>
      <trkpt lat="49.2673" lon="0.16136">
        <ele>101.6</ele>
        <time>2023-09-03T10:59:38Z</time>
      </trkpt>
      <trkpt lat="49.26727" lon="0.16132">
        <ele>101.9</ele>
        <time>2023-09-03T10:59:39Z</time>
      </trkpt>
      <trkpt lat="49.26724" lon="0.16128">
        <ele>102.2</ele>
        <time>2023-09-03T10:59:40Z</time>
      </trkpt>
      <trkpt lat="49.26722" lon="0.16124">
        <ele>102.4</ele>
        <time>2023-09-03T10:59:41Z</time>
      </trkpt>
      <trkpt lat="49.26719" lon="0.16119">
        <ele>102.7</ele>
        <time>2023-09-03T10:59:42Z</time>
      </trkpt>
      <trkpt lat="49.26717" lon="0.16114">
        <ele>103</ele>
        <time>2023-09-03T10:59:43Z</time>
      </trkpt>
      <trkpt lat="49.26714" lon="0.1611">
        <ele>103.3</ele>
        <time>2023-09-03T10:59:44Z</time>
      </trkpt>
      <trkpt lat="49.26711" lon="0.16106">
        <ele>103.6</ele>
        <time>2023-09-03T10:59:45Z</time>
      </trkpt>
      <trkpt lat="49.26708" lon="0.16102">
        <ele>103.8</ele>
        <time>2023-09-03T10:59:46Z</time>
      </trkpt>
      <trkpt lat="49.26705" lon="0.16098">
        <ele>104.2</ele>
        <time>2023-09-03T10:59:47Z</time>
      </trkpt>
      <trkpt lat="49.26703" lon="0.16092">
        <ele>104.5</ele>
        <time>2023-09-03T10:59:48Z</time>
      </trkpt>
      <trkpt lat="49.267" lon="0.16089">
        <ele>104.7</ele>
        <time>2023-09-03T10:59:49Z</time>
      </trkpt>
      <trkpt lat="49.26697" lon="0.16085">
        <ele>105</ele>
        <time>2023-09-03T10:59:50Z</time>
      </trkpt>
      <trkpt lat="49.26694" lon="0.16081">
        <ele>105.3</ele>
        <time>2023-09-03T10:59:51Z</time>
      </trkpt>
      <trkpt lat="49.26692" lon="0.16076">
        <ele>105.6</ele>
        <time>2023-09-03T10:59:52Z</time>
      </trkpt>
      <trkpt lat="49.26689" lon="0.16071">
        <ele>105.9</ele>
        <time>2023-09-03T10:59:53Z</time>
      </trkpt>
      <trkpt lat="49.26687" lon="0.16067">
        <ele>106.2</ele>
        <time>2023-09-03T10:59:54Z</time>
      </trkpt>
      <trkpt lat="49.26684" lon="0.16062">
        <ele>106.5</ele>
        <time>2023-09-03T10:59:55Z</time>
      </trkpt>
      <trkpt lat="49.26681" lon="0.16059">
        <ele>106.7</ele>
        <time>2023-09-03T10:59:56Z</time>
      </trkpt>
      <trkpt lat="49.26678" lon="0.16055">
        <ele>107</ele>
        <time>2023-09-03T10:59:57Z</time>
      </trkpt>
      <trkpt lat="49.26674" lon="0.1605">
        <ele>107.3</ele>
        <time>2023-09-03T10:59:58Z</time>
      </trkpt>
      <trkpt lat="49.26671" lon="0.16046">
        <ele>107.6</ele>
        <time>2023-09-03T10:59:59Z</time>
      </trkpt>
      <trkpt lat="49.26669" lon="0.16042">
        <ele>107.8</ele>
        <time>2023-09-03T11:00:00Z</time>
      </trkpt>
      <trkpt lat="49.26666" lon="0.16039">
        <ele>108</ele>
        <time>2023-09-03T11:00:01Z</time>
      </trkpt>
      <trkpt lat="49.26664" lon="0.16035">
        <ele>108.3</ele>
        <time>2023-09-03T11:00:02Z</time>
      </trkpt>
      <trkpt lat="49.26661" lon="0.16031">
        <ele>108.5</ele>
        <time>2023-09-03T11:00:03Z</time>
      </trkpt>
      <trkpt lat="49.26659" lon="0.16026">
        <ele>108.7</ele>
        <time>2023-09-03T11:00:04Z</time>
      </trkpt>
      <trkpt lat="49.26657" lon="0.16022">
        <ele>109</ele>
        <time>2023-09-03T11:00:05Z</time>
      </trkpt>
      <trkpt lat="49.26654" lon="0.16019">
        <ele>109.2</ele>
        <time>2023-09-03T11:00:06Z</time>
      </trkpt>
      <trkpt lat="49.26651" lon="0.16015">
        <ele>109.5</ele>
        <time>2023-09-03T11:00:07Z</time>
      </trkpt>
      <trkpt lat="49.26648" lon="0.16011">
        <ele>109.7</ele>
        <time>2023-09-03T11:00:08Z</time>
      </trkpt>
      <trkpt lat="49.26646" lon="0.16007">
        <ele>110</ele>
        <time>2023-09-03T11:00:09Z</time>
      </trkpt>
      <trkpt lat="49.26643" lon="0.16004">
        <ele>110.2</ele>
        <time>2023-09-03T11:00:10Z</time>
      </trkpt>
      <trkpt lat="49.2664" lon="0.16">
        <ele>110.5</ele>
        <time>2023-09-03T11:00:11Z</time>
      </trkpt>
      <trkpt lat="49.26637" lon="0.15996">
        <ele>110.7</ele>
        <time>2023-09-03T11:00:12Z</time>
      </trkpt>
      <trkpt lat="49.26634" lon="0.15992">
        <ele>111</ele>
        <time>2023-09-03T11:00:13Z</time>
      </trkpt>
      <trkpt lat="49.26631" lon="0.15987">
        <ele>111.3</ele>
        <time>2023-09-03T11:00:14Z</time>
      </trkpt>
      <trkpt lat="49.26629" lon="0.15982">
        <ele>111.5</ele>
        <time>2023-09-03T11:00:15Z</time>
      </trkpt>
      <trkpt lat="49.26626" lon="0.15978">
        <ele>111.8</ele>
        <time>2023-09-03T11:00:16Z</time>
      </trkpt>
      <trkpt lat="49.26623" lon="0.15974">
        <ele>112.1</ele>
        <time>2023-09-03T11:00:17Z</time>
      </trkpt>
      <trkpt lat="49.2662" lon="0.1597">
        <ele>112.3</ele>
        <time>2023-09-03T11:00:18Z</time>
      </trkpt>
      <trkpt lat="49.26617" lon="0.15966">
        <ele>112.5</ele>
        <time>2023-09-03T11:00:19Z</time>
      </trkpt>
      <trkpt lat="49.26614" lon="0.15962">
        <ele>112.7</ele>
        <time>2023-09-03T11:00:20Z</time>
      </trkpt>
      <trkpt lat="49.26612" lon="0.15958">
        <ele>113</ele>
        <time>2023-09-03T11:00:21Z</time>
      </trkpt>
      <trkpt lat="49.26609" lon="0.15953">
        <ele>113.2</ele>
        <time>2023-09-03T11:00:22Z</time>
      </trkpt>
      <trkpt lat="49.26607" lon="0.15948">
        <ele>113.4</ele>
        <time>2023-09-03T11:00:23Z</time>
      </trkpt>
      <trkpt lat="49.26605" lon="0.15943">
        <ele>113.6</ele>
        <time>2023-09-03T11:00:24Z</time>
      </trkpt>
      <trkpt lat="49.26603" lon="0.15938">
        <ele>113.8</ele>
        <time>2023-09-03T11:00:25Z</time>
      </trkpt>
      <trkpt lat="49.26601" lon="0.15933">
        <ele>114</ele>
        <time>2023-09-03T11:00:26Z</time>
      </trkpt>
      <trkpt lat="49.26599" lon="0.15928">
        <ele>114.2</ele>
        <time>2023-09-03T11:00:27Z</time>
      </trkpt>
      <trkpt lat="49.26597" lon="0.15923">
        <ele>114.4</ele>
        <time>2023-09-03T11:00:28Z</time>
      </trkpt>
      <trkpt lat="49.26595" lon="0.15918">
        <ele>114.6</ele>
        <time>2023-09-03T11:00:29Z</time>
      </trkpt>
      <trkpt lat="49.26593" lon="0.15913">
        <ele>114.8</ele>
        <time>2023-09-03T11:00:30Z</time>
      </trkpt>
      <trkpt lat="49.26592" lon="0.15908">
        <ele>114.9</ele>
        <time>2023-09-03T11:00:31Z</time>
      </trkpt>
      <trkpt lat="49.26591" lon="0.15902">
        <ele>115.1</ele>
        <time>2023-09-03T11:00:32Z</time>
      </trkpt>
      <trkpt lat="49.26589" lon="0.15895">
        <ele>115.3</ele>
        <time>2023-09-03T11:00:33Z</time>
      </trkpt>
      <trkpt lat="49.26588" lon="0.15889">
        <ele>115.4</ele>
        <time>2023-09-03T11:00:34Z</time>
      </trkpt>
      <trkpt lat="49.26587" lon="0.15882">
        <ele>115.6</ele>
        <time>2023-09-03T11:00:35Z</time>
      </trkpt>
      <trkpt lat="49.26587" lon="0.15875">
        <ele>115.8</ele>
        <time>2023-09-03T11:00:36Z</time>
      </trkpt>
      <trkpt lat="49.26586" lon="0.15869">
        <ele>115.9</ele>
        <time>2023-09-03T11:00:37Z</time>
      </trkpt>
      <trkpt lat="49.26586" lon="0.15861">
        <ele>116.1</ele>
        <time>2023-09-03T11:00:38Z</time>
      </trkpt>
      <trkpt lat="49.26586" lon="0.15854">
        <ele>116.2</ele>
        <time>2023-09-03T11:00:39Z</time>
      </trkpt>
      <trkpt lat="49.26585" lon="0.15848">
        <ele>116.2</ele>
        <time>2023-09-03T11:00:40Z</time>
      </trkpt>
      <trkpt lat="49.26584" lon="0.15842">
        <ele>116.2</ele>
        <time>2023-09-03T11:00:41Z</time>
      </trkpt>
      <trkpt lat="49.26584" lon="0.15836">
        <ele>116.3</ele>
        <time>2023-09-03T11:00:42Z</time>
      </trkpt>
      <trkpt lat="49.26583" lon="0.15829">
        <ele>116.3</ele>
        <time>2023-09-03T11:00:43Z</time>
      </trkpt>
      <trkpt lat="49.26583" lon="0.15822">
        <ele>116.4</ele>
        <time>2023-09-03T11:00:44Z</time>
      </trkpt>
      <trkpt lat="49.26582" lon="0.15816">
        <ele>116.5</ele>
        <time>2023-09-03T11:00:45Z</time>
      </trkpt>
      <trkpt lat="49.26581" lon="0.1581">
        <ele>116.5</ele>
        <time>2023-09-03T11:00:46Z</time>
      </trkpt>
      <trkpt lat="49.26581" lon="0.15805">
        <ele>116.5</ele>
        <time>2023-09-03T11:00:47Z</time>
      </trkpt>
      <trkpt lat="49.26579" lon="0.158">
        <ele>116.6</ele>
        <time>2023-09-03T11:00:48Z</time>
      </trkpt>
      <trkpt lat="49.26579" lon="0.15795">
        <ele>116.6</ele>
        <time>2023-09-03T11:00:49Z</time>
      </trkpt>
      <trkpt lat="49.26578" lon="0.1579">
        <ele>116.6</ele>
        <time>2023-09-03T11:00:50Z</time>
      </trkpt>
      <trkpt lat="49.26577" lon="0.15784">
        <ele>116.6</ele>
        <time>2023-09-03T11:00:51Z</time>
      </trkpt>
      <trkpt lat="49.26576" lon="0.15779">
        <ele>116.6</ele>
        <time>2023-09-03T11:00:52Z</time>
      </trkpt>
      <trkpt lat="49.26576" lon="0.15773">
        <ele>116.6</ele>
        <time>2023-09-03T11:00:53Z</time>
      </trkpt>
      <trkpt lat="49.26575" lon="0.15768">
        <ele>116.6</ele>
        <time>2023-09-03T11:00:54Z</time>
      </trkpt>
      <trkpt lat="49.26574" lon="0.15763">
        <ele>116.6</ele>
        <time>2023-09-03T11:00:55Z</time>
      </trkpt>
      <trkpt lat="49.26573" lon="0.15758">
        <ele>116.6</ele>
        <time>2023-09-03T11:00:56Z</time>
      </trkpt>
      <trkpt lat="49.26572" lon="0.15752">
        <ele>116.6</ele>
        <time>2023-09-03T11:00:57Z</time>
      </trkpt>
      <trkpt lat="49.26572" lon="0.15746">
        <ele>116.6</ele>
        <time>2023-09-03T11:00:58Z</time>
      </trkpt>
      <trkpt lat="49.26571" lon="0.15739">
        <ele>116.6</ele>
        <time>2023-09-03T11:00:59Z</time>
      </trkpt>
      <trkpt lat="49.2657" lon="0.15733">
        <ele>116.6</ele>
        <time>2023-09-03T11:01:00Z</time>
      </trkpt>
      <trkpt lat="49.26569" lon="0.15727">
        <ele>116.6</ele>
        <time>2023-09-03T11:01:01Z</time>
      </trkpt>
      <trkpt lat="49.26569" lon="0.1572">
        <ele>116.5</ele>
        <time>2023-09-03T11:01:02Z</time>
      </trkpt>
      <trkpt lat="49.26569" lon="0.15711">
        <ele>116.5</ele>
        <time>2023-09-03T11:01:03Z</time>
      </trkpt>
      <trkpt lat="49.26569" lon="0.15703">
        <ele>116.5</ele>
        <time>2023-09-03T11:01:04Z</time>
      </trkpt>
      <trkpt lat="49.26568" lon="0.15695">
        <ele>116.5</ele>
        <time>2023-09-03T11:01:05Z</time>
      </trkpt>
      <trkpt lat="49.26568" lon="0.15687">
        <ele>116.4</ele>
        <time>2023-09-03T11:01:06Z</time>
      </trkpt>
      <trkpt lat="49.26567" lon="0.1568">
        <ele>116.4</ele>
        <time>2023-09-03T11:01:07Z</time>
      </trkpt>
      <trkpt lat="49.26567" lon="0.15673">
        <ele>116.4</ele>
        <time>2023-09-03T11:01:08Z</time>
      </trkpt>
      <trkpt lat="49.26566" lon="0.15666">
        <ele>116.4</ele>
        <time>2023-09-03T11:01:09Z</time>
      </trkpt>
      <trkpt lat="49.26566" lon="0.15658">
        <ele>116.4</ele>
        <time>2023-09-03T11:01:10Z</time>
      </trkpt>
      <trkpt lat="49.26565" lon="0.15651">
        <ele>116.3</ele>
        <time>2023-09-03T11:01:11Z</time>
      </trkpt>
      <trkpt lat="49.26565" lon="0.15644">
        <ele>116.3</ele>
        <time>2023-09-03T11:01:12Z</time>
      </trkpt>
      <trkpt lat="49.26564" lon="0.15637">
        <ele>116.3</ele>
        <time>2023-09-03T11:01:13Z</time>
      </trkpt>
      <trkpt lat="49.26563" lon="0.1563">
        <ele>116.3</ele>
        <time>2023-09-03T11:01:14Z</time>
      </trkpt>
      <trkpt lat="49.26562" lon="0.15622">
        <ele>116.3</ele>
        <time>2023-09-03T11:01:15Z</time>
      </trkpt>
      <trkpt lat="49.26562" lon="0.15615">
        <ele>116.3</ele>
        <time>2023-09-03T11:01:16Z</time>
      </trkpt>
      <trkpt lat="49.2656" lon="0.15608">
        <ele>116.3</ele>
        <time>2023-09-03T11:01:17Z</time>
      </trkpt>
      <trkpt lat="49.2656" lon="0.15601">
        <ele>116.3</ele>
        <time>2023-09-03T11:01:18Z</time>
      </trkpt>
      <trkpt lat="49.26559" lon="0.15593">
        <ele>116.3</ele>
        <time>2023-09-03T11:01:19Z</time>
      </trkpt>
      <trkpt lat="49.26559" lon="0.15586">
        <ele>116.3</ele>
        <time>2023-09-03T11:01:20Z</time>
      </trkpt>
      <trkpt lat="49.26558" lon="0.15578">
        <ele>116.3</ele>
        <time>2023-09-03T11:01:21Z</time>
      </trkpt>
      <trkpt lat="49.26556" lon="0.15571">
        <ele>116.3</ele>
        <time>2023-09-03T11:01:22Z</time>
      </trkpt>
      <trkpt lat="49.26556" lon="0.15563">
        <ele>116.3</ele>
        <time>2023-09-03T11:01:23Z</time>
      </trkpt>
      <trkpt lat="49.26554" lon="0.15556">
        <ele>116.4</ele>
        <time>2023-09-03T11:01:24Z</time>
      </trkpt>
      <trkpt lat="49.26553" lon="0.15548">
        <ele>116.4</ele>
        <time>2023-09-03T11:01:25Z</time>
      </trkpt>
      <trkpt lat="49.26553" lon="0.15539">
        <ele>116.4</ele>
        <time>2023-09-03T11:01:26Z</time>
      </trkpt>
      <trkpt lat="49.26552" lon="0.15531">
        <ele>116.4</ele>
        <time>2023-09-03T11:01:27Z</time>
      </trkpt>
      <trkpt lat="49.26551" lon="0.15523">
        <ele>116.3</ele>
        <time>2023-09-03T11:01:28Z</time>
      </trkpt>
      <trkpt lat="49.2655" lon="0.15514">
        <ele>116.3</ele>
        <time>2023-09-03T11:01:29Z</time>
      </trkpt>
      <trkpt lat="49.26549" lon="0.15506">
        <ele>116.3</ele>
        <time>2023-09-03T11:01:30Z</time>
      </trkpt>
      <trkpt lat="49.26548" lon="0.15498">
        <ele>116.3</ele>
        <time>2023-09-03T11:01:31Z</time>
      </trkpt>
      <trkpt lat="49.26547" lon="0.15491">
        <ele>116.3</ele>
        <time>2023-09-03T11:01:32Z</time>
      </trkpt>
      <trkpt lat="49.26546" lon="0.15483">
        <ele>116.3</ele>
        <time>2023-09-03T11:01:33Z</time>
      </trkpt>
      <trkpt lat="49.26545" lon="0.15474">
        <ele>116.3</ele>
        <time>2023-09-03T11:01:34Z</time>
      </trkpt>
      <trkpt lat="49.26544" lon="0.15466">
        <ele>116.3</ele>
        <time>2023-09-03T11:01:35Z</time>
      </trkpt>
      <trkpt lat="49.26543" lon="0.15459">
        <ele>116.3</ele>
        <time>2023-09-03T11:01:36Z</time>
      </trkpt>
      <trkpt lat="49.26543" lon="0.15451">
        <ele>116.3</ele>
        <time>2023-09-03T11:01:37Z</time>
      </trkpt>
      <trkpt lat="49.26542" lon="0.15443">
        <ele>116.4</ele>
        <time>2023-09-03T11:01:38Z</time>
      </trkpt>
      <trkpt lat="49.26542" lon="0.15435">
        <ele>116.4</ele>
        <time>2023-09-03T11:01:39Z</time>
      </trkpt>
      <trkpt lat="49.26541" lon="0.15427">
        <ele>116.4</ele>
        <time>2023-09-03T11:01:40Z</time>
      </trkpt>
      <trkpt lat="49.2654" lon="0.15419">
        <ele>116.5</ele>
        <time>2023-09-03T11:01:41Z</time>
      </trkpt>
      <trkpt lat="49.26539" lon="0.1541">
        <ele>116.5</ele>
        <time>2023-09-03T11:01:42Z</time>
      </trkpt>
      <trkpt lat="49.26538" lon="0.15402">
        <ele>116.6</ele>
        <time>2023-09-03T11:01:43Z</time>
      </trkpt>
      <trkpt lat="49.26537" lon="0.15394">
        <ele>116.6</ele>
        <time>2023-09-03T11:01:44Z</time>
      </trkpt>
      <trkpt lat="49.26536" lon="0.15386">
        <ele>116.7</ele>
        <time>2023-09-03T11:01:45Z</time>
      </trkpt>
      <trkpt lat="49.26536" lon="0.15378">
        <ele>116.7</ele>
        <time>2023-09-03T11:01:46Z</time>
      </trkpt>
      <trkpt lat="49.26535" lon="0.15371">
        <ele>116.7</ele>
        <time>2023-09-03T11:01:47Z</time>
      </trkpt>
      <trkpt lat="49.26534" lon="0.15363">
        <ele>116.8</ele>
        <time>2023-09-03T11:01:48Z</time>
      </trkpt>
      <trkpt lat="49.26533" lon="0.15356">
        <ele>116.9</ele>
        <time>2023-09-03T11:01:49Z</time>
      </trkpt>
      <trkpt lat="49.26532" lon="0.15348">
        <ele>116.9</ele>
        <time>2023-09-03T11:01:50Z</time>
      </trkpt>
      <trkpt lat="49.26531" lon="0.1534">
        <ele>117</ele>
        <time>2023-09-03T11:01:51Z</time>
      </trkpt>
      <trkpt lat="49.26531" lon="0.15332">
        <ele>117.1</ele>
        <time>2023-09-03T11:01:52Z</time>
      </trkpt>
      <trkpt lat="49.2653" lon="0.15324">
        <ele>117.1</ele>
        <time>2023-09-03T11:01:53Z</time>
      </trkpt>
      <trkpt lat="49.26529" lon="0.15316">
        <ele>117.2</ele>
        <time>2023-09-03T11:01:54Z</time>
      </trkpt>
      <trkpt lat="49.26528" lon="0.15309">
        <ele>117.2</ele>
        <time>2023-09-03T11:01:55Z</time>
      </trkpt>
      <trkpt lat="49.26528" lon="0.15301">
        <ele>117.3</ele>
        <time>2023-09-03T11:01:56Z</time>
      </trkpt>
      <trkpt lat="49.26527" lon="0.15294">
        <ele>117.3</ele>
        <time>2023-09-03T11:01:57Z</time>
      </trkpt>
      <trkpt lat="49.26526" lon="0.15286">
        <ele>117.4</ele>
        <time>2023-09-03T11:01:58Z</time>
      </trkpt>
      <trkpt lat="49.26525" lon="0.15278">
        <ele>117.5</ele>
        <time>2023-09-03T11:01:59Z</time>
      </trkpt>
      <trkpt lat="49.26524" lon="0.15271">
        <ele>117.6</ele>
        <time>2023-09-03T11:02:00Z</time>
      </trkpt>
      <trkpt lat="49.26524" lon="0.15264">
        <ele>117.7</ele>
        <time>2023-09-03T11:02:01Z</time>
      </trkpt>
      <trkpt lat="49.26523" lon="0.15257">
        <ele>117.8</ele>
        <time>2023-09-03T11:02:02Z</time>
      </trkpt>
      <trkpt lat="49.26522" lon="0.15249">
        <ele>117.9</ele>
        <time>2023-09-03T11:02:03Z</time>
      </trkpt>
      <trkpt lat="49.26522" lon="0.15241">
        <ele>118</ele>
        <time>2023-09-03T11:02:04Z</time>
      </trkpt>
      <trkpt lat="49.26521" lon="0.15234">
        <ele>118.1</ele>
        <time>2023-09-03T11:02:05Z</time>
      </trkpt>
      <trkpt lat="49.2652" lon="0.15226">
        <ele>118.2</ele>
        <time>2023-09-03T11:02:06Z</time>
      </trkpt>
      <trkpt lat="49.26519" lon="0.15218">
        <ele>118.3</ele>
        <time>2023-09-03T11:02:07Z</time>
      </trkpt>
      <trkpt lat="49.26518" lon="0.15211">
        <ele>118.4</ele>
        <time>2023-09-03T11:02:08Z</time>
      </trkpt>
      <trkpt lat="49.26517" lon="0.15203">
        <ele>118.5</ele>
        <time>2023-09-03T11:02:09Z</time>
      </trkpt>
      <trkpt lat="49.26517" lon="0.15196">
        <ele>118.5</ele>
        <time>2023-09-03T11:02:10Z</time>
      </trkpt>
      <trkpt lat="49.26516" lon="0.1519">
        <ele>118.6</ele>
        <time>2023-09-03T11:02:11Z</time>
      </trkpt>
      <trkpt lat="49.26515" lon="0.15184">
        <ele>118.7</ele>
        <time>2023-09-03T11:02:12Z</time>
      </trkpt>
      <trkpt lat="49.26515" lon="0.15178">
        <ele>118.8</ele>
        <time>2023-09-03T11:02:13Z</time>
      </trkpt>
      <trkpt lat="49.26514" lon="0.15173">
        <ele>118.8</ele>
        <time>2023-09-03T11:02:14Z</time>
      </trkpt>
      <trkpt lat="49.26514" lon="0.15168">
        <ele>118.9</ele>
        <time>2023-09-03T11:02:15Z</time>
      </trkpt>
      <trkpt lat="49.26514" lon="0.15163">
        <ele>119</ele>
        <time>2023-09-03T11:02:16Z</time>
      </trkpt>
      <trkpt lat="49.26513" lon="0.15158">
        <ele>119</ele>
        <time>2023-09-03T11:02:17Z</time>
      </trkpt>
      <trkpt lat="49.26512" lon="0.15153">
        <ele>119.1</ele>
        <time>2023-09-03T11:02:18Z</time>
      </trkpt>
      <trkpt lat="49.26512" lon="0.15149">
        <ele>119.1</ele>
        <time>2023-09-03T11:02:19Z</time>
      </trkpt>
      <trkpt lat="49.26511" lon="0.15145">
        <ele>119.2</ele>
        <time>2023-09-03T11:02:20Z</time>
      </trkpt>
      <trkpt lat="49.26511" lon="0.1514">
        <ele>119.2</ele>
        <time>2023-09-03T11:02:21Z</time>
      </trkpt>
      <trkpt lat="49.26511" lon="0.15139">
        <ele>119.2</ele>
        <time>2023-09-03T11:02:22Z</time>
      </trkpt>
      <trkpt lat="49.26511" lon="0.15137">
        <ele>119.2</ele>
        <time>2023-09-03T11:02:23Z</time>
      </trkpt>
      <trkpt lat="49.26511" lon="0.15136">
        <ele>119.2</ele>
        <time>2023-09-03T11:02:24Z</time>
      </trkpt>
      <trkpt lat="49.2651" lon="0.15135">
        <ele>119.2</ele>
        <time>2023-09-03T11:02:25Z</time>
      </trkpt>
      <trkpt lat="49.2651" lon="0.15135">
        <ele>119.2</ele>
        <time>2023-09-03T11:02:26Z</time>
      </trkpt>
      <trkpt lat="49.2651" lon="0.15134">
        <ele>119.2</ele>
        <time>2023-09-03T11:02:27Z</time>
      </trkpt>
      <trkpt lat="49.2651" lon="0.15133">
        <ele>119.2</ele>
        <time>2023-09-03T11:02:28Z</time>
      </trkpt>
      <trkpt lat="49.2651" lon="0.15133">
        <ele>119.2</ele>
        <time>2023-09-03T11:02:29Z</time>
      </trkpt>
      <trkpt lat="49.26509" lon="0.15132">
        <ele>119.3</ele>
        <time>2023-09-03T11:02:30Z</time>
      </trkpt>
      <trkpt lat="49.26509" lon="0.15131">
        <ele>119.3</ele>
        <time>2023-09-03T11:02:31Z</time>
      </trkpt>
      <trkpt lat="49.26509" lon="0.1513">
        <ele>119.3</ele>
        <time>2023-09-03T11:02:32Z</time>
      </trkpt>
      <trkpt lat="49.26509" lon="0.1513">
        <ele>119.3</ele>
        <time>2023-09-03T11:02:33Z</time>
      </trkpt>
      <trkpt lat="49.26509" lon="0.15129">
        <ele>119.3</ele>
        <time>2023-09-03T11:02:34Z</time>
      </trkpt>
      <trkpt lat="49.26508" lon="0.15128">
        <ele>119.3</ele>
        <time>2023-09-03T11:03:09Z</time>
      </trkpt>
      <trkpt lat="49.26508" lon="0.15127">
        <ele>119.3</ele>
        <time>2023-09-03T11:03:10Z</time>
      </trkpt>
      <trkpt lat="49.26508" lon="0.15127">
        <ele>119.3</ele>
        <time>2023-09-03T11:03:11Z</time>
      </trkpt>
      <trkpt lat="49.26508" lon="0.15121">
        <ele>119.3</ele>
        <time>2023-09-03T11:03:12Z</time>
      </trkpt>
      <trkpt lat="49.26508" lon="0.1512">
        <ele>119.4</ele>
        <time>2023-09-03T11:03:13Z</time>
      </trkpt>
      <trkpt lat="49.26508" lon="0.15114">
        <ele>119.4</ele>
        <time>2023-09-03T11:03:14Z</time>
      </trkpt>
      <trkpt lat="49.26508" lon="0.15112">
        <ele>119.4</ele>
        <time>2023-09-03T11:03:15Z</time>
      </trkpt>
      <trkpt lat="49.26507" lon="0.15107">
        <ele>119.5</ele>
        <time>2023-09-03T11:03:16Z</time>
      </trkpt>
      <trkpt lat="49.26507" lon="0.15106">
        <ele>119.5</ele>
        <time>2023-09-03T11:03:17Z</time>
      </trkpt>
      <trkpt lat="49.26506" lon="0.15101">
        <ele>119.5</ele>
        <time>2023-09-03T11:03:18Z</time>
      </trkpt>
      <trkpt lat="49.26505" lon="0.15099">
        <ele>119.5</ele>
        <time>2023-09-03T11:03:19Z</time>
      </trkpt>
      <trkpt lat="49.26505" lon="0.15096">
        <ele>119.6</ele>
        <time>2023-09-03T11:03:20Z</time>
      </trkpt>
      <trkpt lat="49.26506" lon="0.15094">
        <ele>119.6</ele>
        <time>2023-09-03T11:03:21Z</time>
      </trkpt>
      <trkpt lat="49.26506" lon="0.15091">
        <ele>119.6</ele>
        <time>2023-09-03T11:03:22Z</time>
      </trkpt>
      <trkpt lat="49.26506" lon="0.15089">
        <ele>119.6</ele>
        <time>2023-09-03T11:03:23Z</time>
      </trkpt>
      <trkpt lat="49.26506" lon="0.15088">
        <ele>119.7</ele>
        <time>2023-09-03T11:03:24Z</time>
      </trkpt>
      <trkpt lat="49.26506" lon="0.15088">
        <ele>119.7</ele>
        <time>2023-09-03T11:03:25Z</time>
      </trkpt>
      <trkpt lat="49.26506" lon="0.15087">
        <ele>119.7</ele>
        <time>2023-09-03T11:03:26Z</time>
      </trkpt>
      <trkpt lat="49.26505" lon="0.15087">
        <ele>119.7</ele>
        <time>2023-09-03T11:03:27Z</time>
      </trkpt>
      <trkpt lat="49.26505" lon="0.15086">
        <ele>119.7</ele>
        <time>2023-09-03T11:03:28Z</time>
      </trkpt>
      <trkpt lat="49.26505" lon="0.15086">
        <ele>119.7</ele>
        <time>2023-09-03T11:03:29Z</time>
      </trkpt>
      <trkpt lat="49.26505" lon="0.15085">
        <ele>119.7</ele>
        <time>2023-09-03T11:03:30Z</time>
      </trkpt>
      <trkpt lat="49.26505" lon="0.15085">
        <ele>119.7</ele>
        <time>2023-09-03T11:03:31Z</time>
      </trkpt>
      <trkpt lat="49.26504" lon="0.15084">
        <ele>119.7</ele>
        <time>2023-09-03T11:03:32Z</time>
      </trkpt>
      <trkpt lat="49.26504" lon="0.15084">
        <ele>119.7</ele>
        <time>2023-09-03T11:03:33Z</time>
      </trkpt>
      <trkpt lat="49.26504" lon="0.15083">
        <ele>119.7</ele>
        <time>2023-09-03T11:03:34Z</time>
      </trkpt>
      <trkpt lat="49.26504" lon="0.15083">
        <ele>119.7</ele>
        <time>2023-09-03T11:03:35Z</time>
      </trkpt>
      <trkpt lat="49.26504" lon="0.15082">
        <ele>119.7</ele>
        <time>2023-09-03T11:03:36Z</time>
      </trkpt>
      <trkpt lat="49.26503" lon="0.15082">
        <ele>119.7</ele>
        <time>2023-09-03T11:13:00Z</time>
      </trkpt>
      <trkpt lat="49.26503" lon="0.15081">
        <ele>119.7</ele>
        <time>2023-09-03T11:13:01Z</time>
      </trkpt>
      <trkpt lat="49.26503" lon="0.15081">
        <ele>119.7</ele>
        <time>2023-09-03T11:13:02Z</time>
      </trkpt>
      <trkpt lat="49.26503" lon="0.15075">
        <ele>119.8</ele>
        <time>2023-09-03T11:13:03Z</time>
      </trkpt>
      <trkpt lat="49.26502" lon="0.15073">
        <ele>119.8</ele>
        <time>2023-09-03T11:13:04Z</time>
      </trkpt>
      <trkpt lat="49.26502" lon="0.15068">
        <ele>119.9</ele>
        <time>2023-09-03T11:13:05Z</time>
      </trkpt>
      <trkpt lat="49.26501" lon="0.15062">
        <ele>119.9</ele>
        <time>2023-09-03T11:13:06Z</time>
      </trkpt>
      <trkpt lat="49.265" lon="0.15055">
        <ele>120</ele>
        <time>2023-09-03T11:13:07Z</time>
      </trkpt>
      <trkpt lat="49.26499" lon="0.15048">
        <ele>120.1</ele>
        <time>2023-09-03T11:13:08Z</time>
      </trkpt>
      <trkpt lat="49.26498" lon="0.1504">
        <ele>120.2</ele>
        <time>2023-09-03T11:13:09Z</time>
      </trkpt>
      <trkpt lat="49.26496" lon="0.15032">
        <ele>120.3</ele>
        <time>2023-09-03T11:13:10Z</time>
      </trkpt>
      <trkpt lat="49.26496" lon="0.15024">
        <ele>120.4</ele>
        <time>2023-09-03T11:13:11Z</time>
      </trkpt>
      <trkpt lat="49.26495" lon="0.15016">
        <ele>120.5</ele>
        <time>2023-09-03T11:13:12Z</time>
      </trkpt>
      <trkpt lat="49.26494" lon="0.15008">
        <ele>120.6</ele>
        <time>2023-09-03T11:13:13Z</time>
      </trkpt>
      <trkpt lat="49.26493" lon="0.14999">
        <ele>120.7</ele>
        <time>2023-09-03T11:13:14Z</time>
      </trkpt>
      <trkpt lat="49.26492" lon="0.14989">
        <ele>120.8</ele>
        <time>2023-09-03T11:13:15Z</time>
      </trkpt>
      <trkpt lat="49.26491" lon="0.14979">
        <ele>120.9</ele>
        <time>2023-09-03T11:13:16Z</time>
      </trkpt>
      <trkpt lat="49.26489" lon="0.14969">
        <ele>121</ele>
        <time>2023-09-03T11:13:17Z</time>
      </trkpt>
      <trkpt lat="49.26488" lon="0.14959">
        <ele>121.1</ele>
        <time>2023-09-03T11:13:18Z</time>
      </trkpt>
      <trkpt lat="49.26487" lon="0.14949">
        <ele>121.2</ele>
        <time>2023-09-03T11:13:19Z</time>
      </trkpt>
      <trkpt lat="49.26485" lon="0.14938">
        <ele>121.2</ele>
        <time>2023-09-03T11:13:20Z</time>
      </trkpt>
      <trkpt lat="49.26485" lon="0.14927">
        <ele>121.3</ele>
        <time>2023-09-03T11:13:21Z</time>
      </trkpt>
      <trkpt lat="49.26483" lon="0.14917">
        <ele>121.4</ele>
        <time>2023-09-03T11:13:22Z</time>
      </trkpt>
      <trkpt lat="49.26483" lon="0.14906">
        <ele>121.5</ele>
        <time>2023-09-03T11:13:23Z</time>
      </trkpt>
      <trkpt lat="49.26481" lon="0.14895">
        <ele>121.5</ele>
        <time>2023-09-03T11:13:24Z</time>
      </trkpt>
      <trkpt lat="49.2648" lon="0.14884">
        <ele>121.6</ele>
        <time>2023-09-03T11:13:25Z</time>
      </trkpt>
      <trkpt lat="49.26479" lon="0.14873">
        <ele>121.7</ele>
        <time>2023-09-03T11:13:26Z</time>
      </trkpt>
      <trkpt lat="49.26478" lon="0.14863">
        <ele>121.7</ele>
        <time>2023-09-03T11:13:27Z</time>
      </trkpt>
      <trkpt lat="49.26477" lon="0.14852">
        <ele>121.8</ele>
        <time>2023-09-03T11:13:28Z</time>
      </trkpt>
      <trkpt lat="49.26476" lon="0.14842">
        <ele>121.9</ele>
        <time>2023-09-03T11:13:29Z</time>
      </trkpt>
      <trkpt lat="49.26475" lon="0.14831">
        <ele>122</ele>
        <time>2023-09-03T11:13:30Z</time>
      </trkpt>
      <trkpt lat="49.26473" lon="0.14821">
        <ele>122</ele>
        <time>2023-09-03T11:13:31Z</time>
      </trkpt>
      <trkpt lat="49.26472" lon="0.14811">
        <ele>122.1</ele>
        <time>2023-09-03T11:13:32Z</time>
      </trkpt>
      <trkpt lat="49.26471" lon="0.148">
        <ele>122.1</ele>
        <time>2023-09-03T11:13:33Z</time>
      </trkpt>
      <trkpt lat="49.2647" lon="0.1479">
        <ele>122.1</ele>
        <time>2023-09-03T11:13:34Z</time>
      </trkpt>
      <trkpt lat="49.26469" lon="0.1478">
        <ele>122.1</ele>
        <time>2023-09-03T11:13:35Z</time>
      </trkpt>
      <trkpt lat="49.26468" lon="0.1477">
        <ele>122.2</ele>
        <time>2023-09-03T11:13:36Z</time>
      </trkpt>
      <trkpt lat="49.26467" lon="0.14759">
        <ele>122.2</ele>
        <time>2023-09-03T11:13:37Z</time>
      </trkpt>
      <trkpt lat="49.26466" lon="0.14749">
        <ele>122.2</ele>
        <time>2023-09-03T11:13:38Z</time>
      </trkpt>
      <trkpt lat="49.26464" lon="0.14738">
        <ele>122.3</ele>
        <time>2023-09-03T11:13:39Z</time>
      </trkpt>
      <trkpt lat="49.26463" lon="0.14727">
        <ele>122.3</ele>
        <time>2023-09-03T11:13:40Z</time>
      </trkpt>
      <trkpt lat="49.26462" lon="0.14717">
        <ele>122.4</ele>
        <time>2023-09-03T11:13:41Z</time>
      </trkpt>
      <trkpt lat="49.26461" lon="0.14705">
        <ele>122.4</ele>
        <time>2023-09-03T11:13:42Z</time>
      </trkpt>
      <trkpt lat="49.2646" lon="0.14694">
        <ele>122.5</ele>
        <time>2023-09-03T11:13:43Z</time>
      </trkpt>
      <trkpt lat="49.26459" lon="0.14683">
        <ele>122.5</ele>
        <time>2023-09-03T11:13:44Z</time>
      </trkpt>
      <trkpt lat="49.26457" lon="0.14672">
        <ele>122.6</ele>
        <time>2023-09-03T11:13:45Z</time>
      </trkpt>
      <trkpt lat="49.26456" lon="0.1466">
        <ele>122.6</ele>
        <time>2023-09-03T11:13:46Z</time>
      </trkpt>
      <trkpt lat="49.26455" lon="0.14648">
        <ele>122.6</ele>
        <time>2023-09-03T11:13:47Z</time>
      </trkpt>
      <trkpt lat="49.26454" lon="0.14635">
        <ele>122.6</ele>
        <time>2023-09-03T11:13:48Z</time>
      </trkpt>
      <trkpt lat="49.26452" lon="0.14622">
        <ele>122.6</ele>
        <time>2023-09-03T11:13:49Z</time>
      </trkpt>
      <trkpt lat="49.2645" lon="0.14609">
        <ele>122.6</ele>
        <time>2023-09-03T11:13:50Z</time>
      </trkpt>
      <trkpt lat="49.26449" lon="0.14596">
        <ele>122.6</ele>
        <time>2023-09-03T11:13:51Z</time>
      </trkpt>
      <trkpt lat="49.26448" lon="0.14582">
        <ele>122.6</ele>
        <time>2023-09-03T11:13:52Z</time>
      </trkpt>
      <trkpt lat="49.26447" lon="0.14569">
        <ele>122.7</ele>
        <time>2023-09-03T11:13:53Z</time>
      </trkpt>
      <trkpt lat="49.26446" lon="0.14557">
        <ele>122.7</ele>
        <time>2023-09-03T11:13:54Z</time>
      </trkpt>
      <trkpt lat="49.26444" lon="0.14545">
        <ele>122.6</ele>
        <time>2023-09-03T11:13:55Z</time>
      </trkpt>
      <trkpt lat="49.26443" lon="0.14532">
        <ele>122.6</ele>
        <time>2023-09-03T11:13:56Z</time>
      </trkpt>
      <trkpt lat="49.26443" lon="0.1452">
        <ele>122.6</ele>
        <time>2023-09-03T11:13:57Z</time>
      </trkpt>
      <trkpt lat="49.26442" lon="0.14508">
        <ele>122.6</ele>
        <time>2023-09-03T11:13:58Z</time>
      </trkpt>
      <trkpt lat="49.26441" lon="0.14497">
        <ele>122.5</ele>
        <time>2023-09-03T11:13:59Z</time>
      </trkpt>
      <trkpt lat="49.2644" lon="0.14486">
        <ele>122.4</ele>
        <time>2023-09-03T11:14:00Z</time>
      </trkpt>
      <trkpt lat="49.26438" lon="0.14474">
        <ele>122.4</ele>
        <time>2023-09-03T11:14:01Z</time>
      </trkpt>
      <trkpt lat="49.26437" lon="0.14462">
        <ele>122.3</ele>
        <time>2023-09-03T11:14:02Z</time>
      </trkpt>
      <trkpt lat="49.26436" lon="0.1445">
        <ele>122.3</ele>
        <time>2023-09-03T11:14:03Z</time>
      </trkpt>
      <trkpt lat="49.26435" lon="0.14439">
        <ele>122.3</ele>
        <time>2023-09-03T11:14:04Z</time>
      </trkpt>
      <trkpt lat="49.26433" lon="0.14427">
        <ele>122.3</ele>
        <time>2023-09-03T11:14:05Z</time>
      </trkpt>
      <trkpt lat="49.26432" lon="0.14415">
        <ele>122.3</ele>
        <time>2023-09-03T11:14:06Z</time>
      </trkpt>
      <trkpt lat="49.26431" lon="0.14403">
        <ele>122.3</ele>
        <time>2023-09-03T11:14:07Z</time>
      </trkpt>
      <trkpt lat="49.26429" lon="0.14392">
        <ele>122.3</ele>
        <time>2023-09-03T11:14:08Z</time>
      </trkpt>
      <trkpt lat="49.26428" lon="0.1438">
        <ele>122.3</ele>
        <time>2023-09-03T11:14:09Z</time>
      </trkpt>
      <trkpt lat="49.26427" lon="0.14368">
        <ele>122.3</ele>
        <time>2023-09-03T11:14:10Z</time>
      </trkpt>
      <trkpt lat="49.26426" lon="0.14357">
        <ele>122.3</ele>
        <time>2023-09-03T11:14:11Z</time>
      </trkpt>
      <trkpt lat="49.26424" lon="0.14345">
        <ele>122.3</ele>
        <time>2023-09-03T11:14:12Z</time>
      </trkpt>
      <trkpt lat="49.26423" lon="0.14333">
        <ele>122.3</ele>
        <time>2023-09-03T11:14:13Z</time>
      </trkpt>
      <trkpt lat="49.26422" lon="0.1432">
        <ele>122.3</ele>
        <time>2023-09-03T11:14:14Z</time>
      </trkpt>
      <trkpt lat="49.2642" lon="0.14309">
        <ele>122.3</ele>
        <time>2023-09-03T11:14:15Z</time>
      </trkpt>
      <trkpt lat="49.26419" lon="0.14297">
        <ele>122.3</ele>
        <time>2023-09-03T11:14:16Z</time>
      </trkpt>
      <trkpt lat="49.26417" lon="0.14285">
        <ele>122.3</ele>
        <time>2023-09-03T11:14:17Z</time>
      </trkpt>
      <trkpt lat="49.26416" lon="0.14274">
        <ele>122.3</ele>
        <time>2023-09-03T11:14:18Z</time>
      </trkpt>
      <trkpt lat="49.26415" lon="0.14262">
        <ele>122.3</ele>
        <time>2023-09-03T11:14:19Z</time>
      </trkpt>
      <trkpt lat="49.26414" lon="0.14251">
        <ele>122.3</ele>
        <time>2023-09-03T11:14:20Z</time>
      </trkpt>
      <trkpt lat="49.26412" lon="0.14239">
        <ele>122.4</ele>
        <time>2023-09-03T11:14:21Z</time>
      </trkpt>
      <trkpt lat="49.26411" lon="0.14228">
        <ele>122.4</ele>
        <time>2023-09-03T11:14:22Z</time>
      </trkpt>
      <trkpt lat="49.2641" lon="0.14216">
        <ele>122.4</ele>
        <time>2023-09-03T11:14:23Z</time>
      </trkpt>
      <trkpt lat="49.26409" lon="0.14204">
        <ele>122.4</ele>
        <time>2023-09-03T11:14:24Z</time>
      </trkpt>
      <trkpt lat="49.26407" lon="0.14192">
        <ele>122.4</ele>
        <time>2023-09-03T11:14:25Z</time>
      </trkpt>
      <trkpt lat="49.26406" lon="0.1418">
        <ele>122.5</ele>
        <time>2023-09-03T11:14:26Z</time>
      </trkpt>
      <trkpt lat="49.26405" lon="0.14169">
        <ele>122.5</ele>
        <time>2023-09-03T11:14:27Z</time>
      </trkpt>
      <trkpt lat="49.26404" lon="0.14157">
        <ele>122.5</ele>
        <time>2023-09-03T11:14:28Z</time>
      </trkpt>
      <trkpt lat="49.26403" lon="0.14145">
        <ele>122.6</ele>
        <time>2023-09-03T11:14:29Z</time>
      </trkpt>
      <trkpt lat="49.26401" lon="0.14133">
        <ele>122.6</ele>
        <time>2023-09-03T11:14:30Z</time>
      </trkpt>
      <trkpt lat="49.264" lon="0.14122">
        <ele>122.6</ele>
        <time>2023-09-03T11:14:31Z</time>
      </trkpt>
      <trkpt lat="49.26399" lon="0.1411">
        <ele>122.7</ele>
        <time>2023-09-03T11:14:32Z</time>
      </trkpt>
      <trkpt lat="49.26398" lon="0.14098">
        <ele>122.7</ele>
        <time>2023-09-03T11:14:33Z</time>
      </trkpt>
      <trkpt lat="49.26397" lon="0.14087">
        <ele>122.8</ele>
        <time>2023-09-03T11:14:34Z</time>
      </trkpt>
      <trkpt lat="49.26396" lon="0.14075">
        <ele>122.7</ele>
        <time>2023-09-03T11:14:35Z</time>
      </trkpt>
      <trkpt lat="49.26395" lon="0.14063">
        <ele>122.7</ele>
        <time>2023-09-03T11:14:36Z</time>
      </trkpt>
      <trkpt lat="49.26394" lon="0.14051">
        <ele>122.6</ele>
        <time>2023-09-03T11:14:37Z</time>
      </trkpt>
      <trkpt lat="49.26393" lon="0.1404">
        <ele>122.6</ele>
        <time>2023-09-03T11:14:38Z</time>
      </trkpt>
      <trkpt lat="49.26392" lon="0.14028">
        <ele>122.6</ele>
        <time>2023-09-03T11:14:39Z</time>
      </trkpt>
      <trkpt lat="49.2639" lon="0.14016">
        <ele>122.6</ele>
        <time>2023-09-03T11:14:40Z</time>
      </trkpt>
      <trkpt lat="49.26389" lon="0.14004">
        <ele>122.6</ele>
        <time>2023-09-03T11:14:41Z</time>
      </trkpt>
      <trkpt lat="49.26388" lon="0.13992">
        <ele>122.6</ele>
        <time>2023-09-03T11:14:42Z</time>
      </trkpt>
      <trkpt lat="49.26387" lon="0.1398">
        <ele>122.6</ele>
        <time>2023-09-03T11:14:43Z</time>
      </trkpt>
      <trkpt lat="49.26385" lon="0.13969">
        <ele>122.5</ele>
        <time>2023-09-03T11:14:44Z</time>
      </trkpt>
      <trkpt lat="49.26384" lon="0.13957">
        <ele>122.5</ele>
        <time>2023-09-03T11:14:45Z</time>
      </trkpt>
      <trkpt lat="49.26383" lon="0.13946">
        <ele>122.4</ele>
        <time>2023-09-03T11:14:46Z</time>
      </trkpt>
      <trkpt lat="49.26382" lon="0.13933">
        <ele>122.4</ele>
        <time>2023-09-03T11:14:47Z</time>
      </trkpt>
      <trkpt lat="49.26381" lon="0.13921">
        <ele>122.5</ele>
        <time>2023-09-03T11:14:48Z</time>
      </trkpt>
      <trkpt lat="49.2638" lon="0.1391">
        <ele>122.5</ele>
        <time>2023-09-03T11:14:49Z</time>
      </trkpt>
      <trkpt lat="49.26378" lon="0.13898">
        <ele>122.6</ele>
        <time>2023-09-03T11:14:50Z</time>
      </trkpt>
      <trkpt lat="49.26377" lon="0.13887">
        <ele>122.6</ele>
        <time>2023-09-03T11:14:51Z</time>
      </trkpt>
      <trkpt lat="49.26376" lon="0.13876">
        <ele>122.7</ele>
        <time>2023-09-03T11:14:52Z</time>
      </trkpt>
      <trkpt lat="49.26375" lon="0.13864">
        <ele>122.7</ele>
        <time>2023-09-03T11:14:53Z</time>
      </trkpt>
      <trkpt lat="49.26374" lon="0.13853">
        <ele>122.7</ele>
        <time>2023-09-03T11:14:54Z</time>
      </trkpt>
      <trkpt lat="49.26373" lon="0.13842">
        <ele>122.8</ele>
        <time>2023-09-03T11:14:55Z</time>
      </trkpt>
      <trkpt lat="49.26371" lon="0.13832">
        <ele>122.9</ele>
        <time>2023-09-03T11:14:56Z</time>
      </trkpt>
      <trkpt lat="49.2637" lon="0.13822">
        <ele>122.9</ele>
        <time>2023-09-03T11:14:57Z</time>
      </trkpt>
      <trkpt lat="49.26369" lon="0.13812">
        <ele>123</ele>
        <time>2023-09-03T11:14:58Z</time>
      </trkpt>
      <trkpt lat="49.26368" lon="0.13802">
        <ele>123.1</ele>
        <time>2023-09-03T11:14:59Z</time>
      </trkpt>
      <trkpt lat="49.26368" lon="0.13793">
        <ele>123.1</ele>
        <time>2023-09-03T11:15:00Z</time>
      </trkpt>
      <trkpt lat="49.26367" lon="0.13784">
        <ele>123.2</ele>
        <time>2023-09-03T11:15:01Z</time>
      </trkpt>
      <trkpt lat="49.26366" lon="0.13776">
        <ele>123.2</ele>
        <time>2023-09-03T11:15:02Z</time>
      </trkpt>
      <trkpt lat="49.26364" lon="0.13767">
        <ele>123.3</ele>
        <time>2023-09-03T11:15:03Z</time>
      </trkpt>
      <trkpt lat="49.26363" lon="0.13758">
        <ele>123.3</ele>
        <time>2023-09-03T11:15:04Z</time>
      </trkpt>
      <trkpt lat="49.26362" lon="0.13749">
        <ele>123.3</ele>
        <time>2023-09-03T11:15:05Z</time>
      </trkpt>
      <trkpt lat="49.26361" lon="0.13741">
        <ele>123.3</ele>
        <time>2023-09-03T11:15:06Z</time>
      </trkpt>
      <trkpt lat="49.26361" lon="0.13732">
        <ele>123.3</ele>
        <time>2023-09-03T11:15:07Z</time>
      </trkpt>
      <trkpt lat="49.26361" lon="0.13724">
        <ele>123.4</ele>
        <time>2023-09-03T11:15:08Z</time>
      </trkpt>
      <trkpt lat="49.2636" lon="0.13715">
        <ele>123.4</ele>
        <time>2023-09-03T11:15:09Z</time>
      </trkpt>
      <trkpt lat="49.26359" lon="0.13707">
        <ele>123.5</ele>
        <time>2023-09-03T11:15:10Z</time>
      </trkpt>
      <trkpt lat="49.26358" lon="0.13699">
        <ele>123.5</ele>
        <time>2023-09-03T11:15:11Z</time>
      </trkpt>
      <trkpt lat="49.26357" lon="0.13691">
        <ele>123.6</ele>
        <time>2023-09-03T11:15:12Z</time>
      </trkpt>
      <trkpt lat="49.26355" lon="0.13683">
        <ele>123.7</ele>
        <time>2023-09-03T11:15:13Z</time>
      </trkpt>
      <trkpt lat="49.26354" lon="0.13675">
        <ele>123.7</ele>
        <time>2023-09-03T11:15:14Z</time>
      </trkpt>
      <trkpt lat="49.26353" lon="0.13667">
        <ele>123.8</ele>
        <time>2023-09-03T11:15:15Z</time>
      </trkpt>
      <trkpt lat="49.26353" lon="0.13659">
        <ele>123.9</ele>
        <time>2023-09-03T11:15:16Z</time>
      </trkpt>
      <trkpt lat="49.26352" lon="0.13652">
        <ele>123.9</ele>
        <time>2023-09-03T11:15:17Z</time>
      </trkpt>
      <trkpt lat="49.26351" lon="0.13644">
        <ele>123.9</ele>
        <time>2023-09-03T11:15:18Z</time>
      </trkpt>
      <trkpt lat="49.2635" lon="0.13636">
        <ele>124</ele>
        <time>2023-09-03T11:15:19Z</time>
      </trkpt>
      <trkpt lat="49.2635" lon="0.13627">
        <ele>124</ele>
        <time>2023-09-03T11:15:20Z</time>
      </trkpt>
      <trkpt lat="49.26349" lon="0.13619">
        <ele>124</ele>
        <time>2023-09-03T11:15:21Z</time>
      </trkpt>
      <trkpt lat="49.26348" lon="0.13611">
        <ele>124.1</ele>
        <time>2023-09-03T11:15:22Z</time>
      </trkpt>
      <trkpt lat="49.26347" lon="0.13602">
        <ele>124.1</ele>
        <time>2023-09-03T11:15:23Z</time>
      </trkpt>
      <trkpt lat="49.26346" lon="0.13594">
        <ele>124.1</ele>
        <time>2023-09-03T11:15:24Z</time>
      </trkpt>
      <trkpt lat="49.26345" lon="0.13585">
        <ele>124.1</ele>
        <time>2023-09-03T11:15:25Z</time>
      </trkpt>
      <trkpt lat="49.26344" lon="0.13576">
        <ele>124.1</ele>
        <time>2023-09-03T11:15:26Z</time>
      </trkpt>
      <trkpt lat="49.26343" lon="0.13566">
        <ele>124</ele>
        <time>2023-09-03T11:15:27Z</time>
      </trkpt>
      <trkpt lat="49.26342" lon="0.13557">
        <ele>124</ele>
        <time>2023-09-03T11:15:28Z</time>
      </trkpt>
      <trkpt lat="49.26341" lon="0.13546">
        <ele>124</ele>
        <time>2023-09-03T11:15:29Z</time>
      </trkpt>
      <trkpt lat="49.2634" lon="0.13536">
        <ele>124</ele>
        <time>2023-09-03T11:15:30Z</time>
      </trkpt>
      <trkpt lat="49.26339" lon="0.13526">
        <ele>124</ele>
        <time>2023-09-03T11:15:31Z</time>
      </trkpt>
      <trkpt lat="49.26338" lon="0.13515">
        <ele>124</ele>
        <time>2023-09-03T11:15:32Z</time>
      </trkpt>
      <trkpt lat="49.26337" lon="0.13505">
        <ele>124</ele>
        <time>2023-09-03T11:15:33Z</time>
      </trkpt>
      <trkpt lat="49.26336" lon="0.13494">
        <ele>124</ele>
        <time>2023-09-03T11:15:34Z</time>
      </trkpt>
      <trkpt lat="49.26335" lon="0.13484">
        <ele>124</ele>
        <time>2023-09-03T11:15:35Z</time>
      </trkpt>
      <trkpt lat="49.26333" lon="0.13474">
        <ele>123.9</ele>
        <time>2023-09-03T11:15:36Z</time>
      </trkpt>
      <trkpt lat="49.26332" lon="0.13464">
        <ele>123.9</ele>
        <time>2023-09-03T11:15:37Z</time>
      </trkpt>
      <trkpt lat="49.26331" lon="0.13453">
        <ele>123.9</ele>
        <time>2023-09-03T11:15:38Z</time>
      </trkpt>
      <trkpt lat="49.26329" lon="0.13442">
        <ele>123.8</ele>
        <time>2023-09-03T11:15:39Z</time>
      </trkpt>
      <trkpt lat="49.26328" lon="0.13431">
        <ele>123.8</ele>
        <time>2023-09-03T11:15:40Z</time>
      </trkpt>
      <trkpt lat="49.26327" lon="0.13419">
        <ele>123.7</ele>
        <time>2023-09-03T11:15:41Z</time>
      </trkpt>
      <trkpt lat="49.26326" lon="0.13408">
        <ele>123.7</ele>
        <time>2023-09-03T11:15:42Z</time>
      </trkpt>
      <trkpt lat="49.26325" lon="0.13397">
        <ele>123.6</ele>
        <time>2023-09-03T11:15:43Z</time>
      </trkpt>
      <trkpt lat="49.26323" lon="0.13386">
        <ele>123.6</ele>
        <time>2023-09-03T11:15:44Z</time>
      </trkpt>
      <trkpt lat="49.26322" lon="0.13375">
        <ele>123.5</ele>
        <time>2023-09-03T11:15:45Z</time>
      </trkpt>
      <trkpt lat="49.26321" lon="0.13363">
        <ele>123.5</ele>
        <time>2023-09-03T11:15:46Z</time>
      </trkpt>
      <trkpt lat="49.2632" lon="0.13352">
        <ele>123.5</ele>
        <time>2023-09-03T11:15:47Z</time>
      </trkpt>
      <trkpt lat="49.26319" lon="0.13341">
        <ele>123.5</ele>
        <time>2023-09-03T11:15:48Z</time>
      </trkpt>
      <trkpt lat="49.26317" lon="0.13329">
        <ele>123.4</ele>
        <time>2023-09-03T11:15:49Z</time>
      </trkpt>
      <trkpt lat="49.26316" lon="0.13318">
        <ele>123.4</ele>
        <time>2023-09-03T11:15:50Z</time>
      </trkpt>
      <trkpt lat="49.26315" lon="0.13306">
        <ele>123.3</ele>
        <time>2023-09-03T11:15:51Z</time>
      </trkpt>
      <trkpt lat="49.26315" lon="0.13294">
        <ele>123.2</ele>
        <time>2023-09-03T11:15:52Z</time>
      </trkpt>
      <trkpt lat="49.26314" lon="0.13282">
        <ele>123.2</ele>
        <time>2023-09-03T11:15:53Z</time>
      </trkpt>
      <trkpt lat="49.26312" lon="0.13271">
        <ele>123.1</ele>
        <time>2023-09-03T11:15:54Z</time>
      </trkpt>
      <trkpt lat="49.26311" lon="0.13259">
        <ele>123.1</ele>
        <time>2023-09-03T11:15:55Z</time>
      </trkpt>
      <trkpt lat="49.2631" lon="0.13248">
        <ele>123</ele>
        <time>2023-09-03T11:15:56Z</time>
      </trkpt>
      <trkpt lat="49.26309" lon="0.13236">
        <ele>123</ele>
        <time>2023-09-03T11:15:57Z</time>
      </trkpt>
      <trkpt lat="49.26308" lon="0.13224">
        <ele>123</ele>
        <time>2023-09-03T11:15:58Z</time>
      </trkpt>
      <trkpt lat="49.26307" lon="0.13212">
        <ele>123</ele>
        <time>2023-09-03T11:15:59Z</time>
      </trkpt>
      <trkpt lat="49.26305" lon="0.13199">
        <ele>123</ele>
        <time>2023-09-03T11:16:00Z</time>
      </trkpt>
      <trkpt lat="49.26304" lon="0.13188">
        <ele>123</ele>
        <time>2023-09-03T11:16:01Z</time>
      </trkpt>
      <trkpt lat="49.26303" lon="0.13176">
        <ele>123</ele>
        <time>2023-09-03T11:16:02Z</time>
      </trkpt>
      <trkpt lat="49.26302" lon="0.13164">
        <ele>123.1</ele>
        <time>2023-09-03T11:16:03Z</time>
      </trkpt>
      <trkpt lat="49.263" lon="0.13151">
        <ele>123.1</ele>
        <time>2023-09-03T11:16:04Z</time>
      </trkpt>
      <trkpt lat="49.26299" lon="0.13139">
        <ele>123.1</ele>
        <time>2023-09-03T11:16:05Z</time>
      </trkpt>
      <trkpt lat="49.26298" lon="0.13127">
        <ele>123.1</ele>
        <time>2023-09-03T11:16:06Z</time>
      </trkpt>
      <trkpt lat="49.26296" lon="0.13115">
        <ele>123.1</ele>
        <time>2023-09-03T11:16:07Z</time>
      </trkpt>
      <trkpt lat="49.26295" lon="0.13102">
        <ele>123.1</ele>
        <time>2023-09-03T11:16:08Z</time>
      </trkpt>
      <trkpt lat="49.26293" lon="0.13089">
        <ele>123.2</ele>
        <time>2023-09-03T11:16:09Z</time>
      </trkpt>
      <trkpt lat="49.26292" lon="0.13076">
        <ele>123.2</ele>
        <time>2023-09-03T11:16:10Z</time>
      </trkpt>
      <trkpt lat="49.26291" lon="0.13063">
        <ele>123.3</ele>
        <time>2023-09-03T11:16:11Z</time>
      </trkpt>
      <trkpt lat="49.26289" lon="0.13049">
        <ele>123.3</ele>
        <time>2023-09-03T11:16:12Z</time>
      </trkpt>
      <trkpt lat="49.26288" lon="0.13037">
        <ele>123.4</ele>
        <time>2023-09-03T11:16:13Z</time>
      </trkpt>
      <trkpt lat="49.26287" lon="0.13024">
        <ele>123.4</ele>
        <time>2023-09-03T11:16:14Z</time>
      </trkpt>
      <trkpt lat="49.26286" lon="0.13012">
        <ele>123.5</ele>
        <time>2023-09-03T11:16:15Z</time>
      </trkpt>
      <trkpt lat="49.26285" lon="0.13">
        <ele>123.5</ele>
        <time>2023-09-03T11:16:16Z</time>
      </trkpt>
      <trkpt lat="49.26283" lon="0.12988">
        <ele>123.5</ele>
        <time>2023-09-03T11:16:17Z</time>
      </trkpt>
      <trkpt lat="49.26282" lon="0.12976">
        <ele>123.5</ele>
        <time>2023-09-03T11:16:18Z</time>
      </trkpt>
      <trkpt lat="49.26281" lon="0.12965">
        <ele>123.5</ele>
        <time>2023-09-03T11:16:19Z</time>
      </trkpt>
      <trkpt lat="49.26279" lon="0.12953">
        <ele>123.6</ele>
        <time>2023-09-03T11:16:20Z</time>
      </trkpt>
      <trkpt lat="49.26278" lon="0.12942">
        <ele>123.6</ele>
        <time>2023-09-03T11:16:21Z</time>
      </trkpt>
      <trkpt lat="49.26277" lon="0.12931">
        <ele>123.6</ele>
        <time>2023-09-03T11:16:22Z</time>
      </trkpt>
      <trkpt lat="49.26276" lon="0.12919">
        <ele>123.7</ele>
        <time>2023-09-03T11:16:23Z</time>
      </trkpt>
      <trkpt lat="49.26274" lon="0.12908">
        <ele>123.7</ele>
        <time>2023-09-03T11:16:24Z</time>
      </trkpt>
      <trkpt lat="49.26273" lon="0.12897">
        <ele>123.8</ele>
        <time>2023-09-03T11:16:25Z</time>
      </trkpt>
      <trkpt lat="49.26272" lon="0.12886">
        <ele>123.8</ele>
        <time>2023-09-03T11:16:26Z</time>
      </trkpt>
      <trkpt lat="49.26271" lon="0.12876">
        <ele>123.8</ele>
        <time>2023-09-03T11:16:27Z</time>
      </trkpt>
      <trkpt lat="49.2627" lon="0.12865">
        <ele>123.9</ele>
        <time>2023-09-03T11:16:28Z</time>
      </trkpt>
      <trkpt lat="49.26269" lon="0.12853">
        <ele>123.9</ele>
        <time>2023-09-03T11:16:29Z</time>
      </trkpt>
      <trkpt lat="49.26268" lon="0.12841">
        <ele>124</ele>
        <time>2023-09-03T11:16:30Z</time>
      </trkpt>
      <trkpt lat="49.26266" lon="0.12829">
        <ele>124.1</ele>
        <time>2023-09-03T11:16:31Z</time>
      </trkpt>
      <trkpt lat="49.26265" lon="0.12817">
        <ele>124.1</ele>
        <time>2023-09-03T11:16:32Z</time>
      </trkpt>
      <trkpt lat="49.26264" lon="0.12805">
        <ele>124.1</ele>
        <time>2023-09-03T11:16:33Z</time>
      </trkpt>
      <trkpt lat="49.26262" lon="0.12793">
        <ele>124.1</ele>
        <time>2023-09-03T11:16:34Z</time>
      </trkpt>
      <trkpt lat="49.26261" lon="0.12781">
        <ele>124.2</ele>
        <time>2023-09-03T11:16:35Z</time>
      </trkpt>
      <trkpt lat="49.2626" lon="0.12769">
        <ele>124.2</ele>
        <time>2023-09-03T11:16:36Z</time>
      </trkpt>
      <trkpt lat="49.26259" lon="0.12758">
        <ele>124.3</ele>
        <time>2023-09-03T11:16:37Z</time>
      </trkpt>
      <trkpt lat="49.26258" lon="0.12746">
        <ele>124.4</ele>
        <time>2023-09-03T11:16:38Z</time>
      </trkpt>
      <trkpt lat="49.26257" lon="0.12734">
        <ele>124.5</ele>
        <time>2023-09-03T11:16:39Z</time>
      </trkpt>
      <trkpt lat="49.26255" lon="0.12721">
        <ele>124.5</ele>
        <time>2023-09-03T11:16:40Z</time>
      </trkpt>
      <trkpt lat="49.26254" lon="0.12708">
        <ele>124.6</ele>
        <time>2023-09-03T11:16:41Z</time>
      </trkpt>
      <trkpt lat="49.26253" lon="0.12695">
        <ele>124.7</ele>
        <time>2023-09-03T11:16:42Z</time>
      </trkpt>
      <trkpt lat="49.26252" lon="0.12682">
        <ele>124.7</ele>
        <time>2023-09-03T11:16:43Z</time>
      </trkpt>
      <trkpt lat="49.2625" lon="0.12669">
        <ele>124.7</ele>
        <time>2023-09-03T11:16:44Z</time>
      </trkpt>
      <trkpt lat="49.26249" lon="0.12656">
        <ele>124.7</ele>
        <time>2023-09-03T11:16:45Z</time>
      </trkpt>
      <trkpt lat="49.26248" lon="0.12644">
        <ele>124.7</ele>
        <time>2023-09-03T11:16:46Z</time>
      </trkpt>
      <trkpt lat="49.26247" lon="0.12632">
        <ele>124.6</ele>
        <time>2023-09-03T11:16:47Z</time>
      </trkpt>
      <trkpt lat="49.26245" lon="0.1262">
        <ele>124.5</ele>
        <time>2023-09-03T11:16:48Z</time>
      </trkpt>
      <trkpt lat="49.26244" lon="0.12608">
        <ele>124.5</ele>
        <time>2023-09-03T11:16:49Z</time>
      </trkpt>
      <trkpt lat="49.26242" lon="0.12596">
        <ele>124.4</ele>
        <time>2023-09-03T11:16:50Z</time>
      </trkpt>
      <trkpt lat="49.26241" lon="0.12583">
        <ele>124.3</ele>
        <time>2023-09-03T11:16:51Z</time>
      </trkpt>
      <trkpt lat="49.2624" lon="0.12571">
        <ele>124.3</ele>
        <time>2023-09-03T11:16:52Z</time>
      </trkpt>
      <trkpt lat="49.26239" lon="0.12558">
        <ele>124.2</ele>
        <time>2023-09-03T11:16:53Z</time>
      </trkpt>
      <trkpt lat="49.26238" lon="0.12546">
        <ele>124.1</ele>
        <time>2023-09-03T11:16:54Z</time>
      </trkpt>
      <trkpt lat="49.26237" lon="0.12533">
        <ele>124</ele>
        <time>2023-09-03T11:16:55Z</time>
      </trkpt>
      <trkpt lat="49.26235" lon="0.12521">
        <ele>124</ele>
        <time>2023-09-03T11:16:56Z</time>
      </trkpt>
      <trkpt lat="49.26234" lon="0.12509">
        <ele>123.9</ele>
        <time>2023-09-03T11:16:57Z</time>
      </trkpt>
      <trkpt lat="49.26232" lon="0.12497">
        <ele>123.8</ele>
        <time>2023-09-03T11:16:58Z</time>
      </trkpt>
      <trkpt lat="49.26231" lon="0.12484">
        <ele>123.7</ele>
        <time>2023-09-03T11:16:59Z</time>
      </trkpt>
      <trkpt lat="49.2623" lon="0.12472">
        <ele>123.7</ele>
        <time>2023-09-03T11:17:00Z</time>
      </trkpt>
      <trkpt lat="49.26228" lon="0.12459">
        <ele>123.6</ele>
        <time>2023-09-03T11:17:01Z</time>
      </trkpt>
      <trkpt lat="49.26227" lon="0.12446">
        <ele>123.6</ele>
        <time>2023-09-03T11:17:02Z</time>
      </trkpt>
      <trkpt lat="49.26225" lon="0.12434">
        <ele>123.5</ele>
        <time>2023-09-03T11:17:03Z</time>
      </trkpt>
      <trkpt lat="49.26224" lon="0.12421">
        <ele>123.4</ele>
        <time>2023-09-03T11:17:04Z</time>
      </trkpt>
      <trkpt lat="49.26223" lon="0.12409">
        <ele>123.3</ele>
        <time>2023-09-03T11:17:05Z</time>
      </trkpt>
      <trkpt lat="49.26222" lon="0.12396">
        <ele>123.3</ele>
        <time>2023-09-03T11:17:06Z</time>
      </trkpt>
      <trkpt lat="49.2622" lon="0.12383">
        <ele>123.2</ele>
        <time>2023-09-03T11:17:07Z</time>
      </trkpt>
      <trkpt lat="49.26219" lon="0.1237">
        <ele>123.2</ele>
        <time>2023-09-03T11:17:08Z</time>
      </trkpt>
      <trkpt lat="49.26218" lon="0.12358">
        <ele>123.1</ele>
        <time>2023-09-03T11:17:09Z</time>
      </trkpt>
      <trkpt lat="49.26216" lon="0.12345">
        <ele>123</ele>
        <time>2023-09-03T11:17:10Z</time>
      </trkpt>
      <trkpt lat="49.26215" lon="0.12332">
        <ele>122.9</ele>
        <time>2023-09-03T11:17:11Z</time>
      </trkpt>
      <trkpt lat="49.26214" lon="0.12319">
        <ele>122.8</ele>
        <time>2023-09-03T11:17:12Z</time>
      </trkpt>
      <trkpt lat="49.26213" lon="0.12306">
        <ele>122.8</ele>
        <time>2023-09-03T11:17:13Z</time>
      </trkpt>
      <trkpt lat="49.26211" lon="0.12293">
        <ele>122.7</ele>
        <time>2023-09-03T11:17:14Z</time>
      </trkpt>
      <trkpt lat="49.2621" lon="0.12281">
        <ele>122.7</ele>
        <time>2023-09-03T11:17:15Z</time>
      </trkpt>
      <trkpt lat="49.26209" lon="0.12268">
        <ele>122.7</ele>
        <time>2023-09-03T11:17:16Z</time>
      </trkpt>
      <trkpt lat="49.26208" lon="0.12255">
        <ele>122.7</ele>
        <time>2023-09-03T11:17:17Z</time>
      </trkpt>
      <trkpt lat="49.26207" lon="0.12242">
        <ele>122.6</ele>
        <time>2023-09-03T11:17:18Z</time>
      </trkpt>
      <trkpt lat="49.26205" lon="0.12229">
        <ele>122.6</ele>
        <time>2023-09-03T11:17:19Z</time>
      </trkpt>
      <trkpt lat="49.26204" lon="0.12216">
        <ele>122.5</ele>
        <time>2023-09-03T11:17:20Z</time>
      </trkpt>
      <trkpt lat="49.26203" lon="0.12203">
        <ele>122.5</ele>
        <time>2023-09-03T11:17:21Z</time>
      </trkpt>
      <trkpt lat="49.26201" lon="0.12191">
        <ele>122.5</ele>
        <time>2023-09-03T11:17:22Z</time>
      </trkpt>
      <trkpt lat="49.262" lon="0.12178">
        <ele>122.4</ele>
        <time>2023-09-03T11:17:23Z</time>
      </trkpt>
      <trkpt lat="49.26199" lon="0.12166">
        <ele>122.4</ele>
        <time>2023-09-03T11:17:24Z</time>
      </trkpt>
      <trkpt lat="49.26197" lon="0.12153">
        <ele>122.4</ele>
        <time>2023-09-03T11:17:25Z</time>
      </trkpt>
      <trkpt lat="49.26196" lon="0.1214">
        <ele>122.3</ele>
        <time>2023-09-03T11:17:26Z</time>
      </trkpt>
      <trkpt lat="49.26195" lon="0.12128">
        <ele>122.3</ele>
        <time>2023-09-03T11:17:27Z</time>
      </trkpt>
      <trkpt lat="49.26194" lon="0.12115">
        <ele>122.3</ele>
        <time>2023-09-03T11:17:28Z</time>
      </trkpt>
      <trkpt lat="49.26193" lon="0.12102">
        <ele>122.2</ele>
        <time>2023-09-03T11:17:29Z</time>
      </trkpt>
      <trkpt lat="49.26191" lon="0.1209">
        <ele>122.2</ele>
        <time>2023-09-03T11:17:30Z</time>
      </trkpt>
      <trkpt lat="49.2619" lon="0.12077">
        <ele>122.2</ele>
        <time>2023-09-03T11:17:31Z</time>
      </trkpt>
      <trkpt lat="49.26189" lon="0.12065">
        <ele>122.2</ele>
        <time>2023-09-03T11:17:32Z</time>
      </trkpt>
      <trkpt lat="49.26187" lon="0.12053">
        <ele>122.2</ele>
        <time>2023-09-03T11:17:33Z</time>
      </trkpt>
      <trkpt lat="49.26186" lon="0.1204">
        <ele>122.2</ele>
        <time>2023-09-03T11:17:34Z</time>
      </trkpt>
      <trkpt lat="49.26185" lon="0.12028">
        <ele>122.2</ele>
        <time>2023-09-03T11:17:35Z</time>
      </trkpt>
      <trkpt lat="49.26184" lon="0.12016">
        <ele>122.2</ele>
        <time>2023-09-03T11:17:36Z</time>
      </trkpt>
      <trkpt lat="49.26182" lon="0.12003">
        <ele>122.3</ele>
        <time>2023-09-03T11:17:37Z</time>
      </trkpt>
      <trkpt lat="49.26181" lon="0.11991">
        <ele>122.4</ele>
        <time>2023-09-03T11:17:38Z</time>
      </trkpt>
      <trkpt lat="49.26179" lon="0.11979">
        <ele>122.5</ele>
        <time>2023-09-03T11:17:39Z</time>
      </trkpt>
      <trkpt lat="49.26178" lon="0.11967">
        <ele>122.6</ele>
        <time>2023-09-03T11:17:40Z</time>
      </trkpt>
      <trkpt lat="49.26177" lon="0.11955">
        <ele>122.7</ele>
        <time>2023-09-03T11:17:41Z</time>
      </trkpt>
      <trkpt lat="49.26176" lon="0.11942">
        <ele>122.8</ele>
        <time>2023-09-03T11:17:42Z</time>
      </trkpt>
      <trkpt lat="49.26174" lon="0.11931">
        <ele>122.9</ele>
        <time>2023-09-03T11:17:43Z</time>
      </trkpt>
      <trkpt lat="49.26173" lon="0.11919">
        <ele>123</ele>
        <time>2023-09-03T11:17:44Z</time>
      </trkpt>
      <trkpt lat="49.26172" lon="0.11907">
        <ele>123.1</ele>
        <time>2023-09-03T11:17:45Z</time>
      </trkpt>
      <trkpt lat="49.26171" lon="0.11896">
        <ele>123.1</ele>
        <time>2023-09-03T11:17:46Z</time>
      </trkpt>
      <trkpt lat="49.2617" lon="0.11885">
        <ele>123.2</ele>
        <time>2023-09-03T11:17:47Z</time>
      </trkpt>
      <trkpt lat="49.26169" lon="0.11874">
        <ele>123.4</ele>
        <time>2023-09-03T11:17:48Z</time>
      </trkpt>
      <trkpt lat="49.26168" lon="0.11863">
        <ele>123.5</ele>
        <time>2023-09-03T11:17:49Z</time>
      </trkpt>
      <trkpt lat="49.26167" lon="0.11851">
        <ele>123.6</ele>
        <time>2023-09-03T11:17:50Z</time>
      </trkpt>
      <trkpt lat="49.26165" lon="0.1184">
        <ele>123.7</ele>
        <time>2023-09-03T11:17:51Z</time>
      </trkpt>
      <trkpt lat="49.26164" lon="0.11829">
        <ele>123.9</ele>
        <time>2023-09-03T11:17:52Z</time>
      </trkpt>
      <trkpt lat="49.26163" lon="0.11818">
        <ele>124</ele>
        <time>2023-09-03T11:17:53Z</time>
      </trkpt>
      <trkpt lat="49.26162" lon="0.11807">
        <ele>124.1</ele>
        <time>2023-09-03T11:17:54Z</time>
      </trkpt>
      <trkpt lat="49.26161" lon="0.11797">
        <ele>124.2</ele>
        <time>2023-09-03T11:17:55Z</time>
      </trkpt>
      <trkpt lat="49.2616" lon="0.11786">
        <ele>124.3</ele>
        <time>2023-09-03T11:17:56Z</time>
      </trkpt>
      <trkpt lat="49.26159" lon="0.11775">
        <ele>124.4</ele>
        <time>2023-09-03T11:17:57Z</time>
      </trkpt>
      <trkpt lat="49.26158" lon="0.11764">
        <ele>124.5</ele>
        <time>2023-09-03T11:17:58Z</time>
      </trkpt>
      <trkpt lat="49.26156" lon="0.11753">
        <ele>124.7</ele>
        <time>2023-09-03T11:17:59Z</time>
      </trkpt>
      <trkpt lat="49.26155" lon="0.11742">
        <ele>124.8</ele>
        <time>2023-09-03T11:18:00Z</time>
      </trkpt>
      <trkpt lat="49.26154" lon="0.11731">
        <ele>124.9</ele>
        <time>2023-09-03T11:18:01Z</time>
      </trkpt>
      <trkpt lat="49.26153" lon="0.1172">
        <ele>125</ele>
        <time>2023-09-03T11:18:02Z</time>
      </trkpt>
      <trkpt lat="49.26152" lon="0.11709">
        <ele>125.1</ele>
        <time>2023-09-03T11:18:03Z</time>
      </trkpt>
      <trkpt lat="49.26151" lon="0.11699">
        <ele>125.2</ele>
        <time>2023-09-03T11:18:04Z</time>
      </trkpt>
      <trkpt lat="49.2615" lon="0.11687">
        <ele>125.3</ele>
        <time>2023-09-03T11:18:05Z</time>
      </trkpt>
      <trkpt lat="49.26149" lon="0.11677">
        <ele>125.4</ele>
        <time>2023-09-03T11:18:06Z</time>
      </trkpt>
      <trkpt lat="49.26148" lon="0.11666">
        <ele>125.5</ele>
        <time>2023-09-03T11:18:07Z</time>
      </trkpt>
      <trkpt lat="49.26147" lon="0.11656">
        <ele>125.7</ele>
        <time>2023-09-03T11:18:08Z</time>
      </trkpt>
      <trkpt lat="49.26145" lon="0.11646">
        <ele>125.8</ele>
        <time>2023-09-03T11:18:09Z</time>
      </trkpt>
      <trkpt lat="49.26145" lon="0.11635">
        <ele>125.9</ele>
        <time>2023-09-03T11:18:10Z</time>
      </trkpt>
      <trkpt lat="49.26144" lon="0.11625">
        <ele>126</ele>
        <time>2023-09-03T11:18:11Z</time>
      </trkpt>
      <trkpt lat="49.26143" lon="0.11615">
        <ele>126.1</ele>
        <time>2023-09-03T11:18:12Z</time>
      </trkpt>
      <trkpt lat="49.26141" lon="0.11604">
        <ele>126.3</ele>
        <time>2023-09-03T11:18:13Z</time>
      </trkpt>
      <trkpt lat="49.2614" lon="0.11593">
        <ele>126.4</ele>
        <time>2023-09-03T11:18:14Z</time>
      </trkpt>
      <trkpt lat="49.26139" lon="0.11584">
        <ele>126.6</ele>
        <time>2023-09-03T11:18:15Z</time>
      </trkpt>
      <trkpt lat="49.26138" lon="0.11575">
        <ele>126.7</ele>
        <time>2023-09-03T11:18:16Z</time>
      </trkpt>
      <trkpt lat="49.26138" lon="0.11566">
        <ele>126.8</ele>
        <time>2023-09-03T11:18:17Z</time>
      </trkpt>
      <trkpt lat="49.26137" lon="0.11558">
        <ele>126.9</ele>
        <time>2023-09-03T11:18:18Z</time>
      </trkpt>
      <trkpt lat="49.26136" lon="0.1155">
        <ele>127</ele>
        <time>2023-09-03T11:18:19Z</time>
      </trkpt>
      <trkpt lat="49.26135" lon="0.11542">
        <ele>127.1</ele>
        <time>2023-09-03T11:18:20Z</time>
      </trkpt>
      <trkpt lat="49.26135" lon="0.11534">
        <ele>127.2</ele>
        <time>2023-09-03T11:18:21Z</time>
      </trkpt>
      <trkpt lat="49.26134" lon="0.11527">
        <ele>127.3</ele>
        <time>2023-09-03T11:18:22Z</time>
      </trkpt>
      <trkpt lat="49.26133" lon="0.11519">
        <ele>127.4</ele>
        <time>2023-09-03T11:18:23Z</time>
      </trkpt>
      <trkpt lat="49.26132" lon="0.11512">
        <ele>127.5</ele>
        <time>2023-09-03T11:18:24Z</time>
      </trkpt>
      <trkpt lat="49.26131" lon="0.11505">
        <ele>127.6</ele>
        <time>2023-09-03T11:18:25Z</time>
      </trkpt>
      <trkpt lat="49.26131" lon="0.11498">
        <ele>127.7</ele>
        <time>2023-09-03T11:18:26Z</time>
      </trkpt>
      <trkpt lat="49.2613" lon="0.11492">
        <ele>127.8</ele>
        <time>2023-09-03T11:18:27Z</time>
      </trkpt>
      <trkpt lat="49.26129" lon="0.11485">
        <ele>127.9</ele>
        <time>2023-09-03T11:18:28Z</time>
      </trkpt>
      <trkpt lat="49.26128" lon="0.11478">
        <ele>127.9</ele>
        <time>2023-09-03T11:18:29Z</time>
      </trkpt>
      <trkpt lat="49.26128" lon="0.11471">
        <ele>128</ele>
        <time>2023-09-03T11:18:30Z</time>
      </trkpt>
      <trkpt lat="49.26127" lon="0.11464">
        <ele>128.1</ele>
        <time>2023-09-03T11:18:31Z</time>
      </trkpt>
      <trkpt lat="49.26126" lon="0.11456">
        <ele>128.1</ele>
        <time>2023-09-03T11:18:32Z</time>
      </trkpt>
      <trkpt lat="49.26125" lon="0.11449">
        <ele>128.2</ele>
        <time>2023-09-03T11:18:33Z</time>
      </trkpt>
      <trkpt lat="49.26124" lon="0.11442">
        <ele>128.3</ele>
        <time>2023-09-03T11:18:34Z</time>
      </trkpt>
      <trkpt lat="49.26124" lon="0.11435">
        <ele>128.3</ele>
        <time>2023-09-03T11:18:35Z</time>
      </trkpt>
      <trkpt lat="49.26123" lon="0.11428">
        <ele>128.4</ele>
        <time>2023-09-03T11:18:36Z</time>
      </trkpt>
      <trkpt lat="49.26122" lon="0.11421">
        <ele>128.5</ele>
        <time>2023-09-03T11:18:37Z</time>
      </trkpt>
      <trkpt lat="49.26122" lon="0.11414">
        <ele>128.5</ele>
        <time>2023-09-03T11:18:38Z</time>
      </trkpt>
      <trkpt lat="49.26121" lon="0.11407">
        <ele>128.6</ele>
        <time>2023-09-03T11:18:39Z</time>
      </trkpt>
      <trkpt lat="49.2612" lon="0.114">
        <ele>128.6</ele>
        <time>2023-09-03T11:18:40Z</time>
      </trkpt>
      <trkpt lat="49.2612" lon="0.11392">
        <ele>128.6</ele>
        <time>2023-09-03T11:18:41Z</time>
      </trkpt>
      <trkpt lat="49.26119" lon="0.11385">
        <ele>128.7</ele>
        <time>2023-09-03T11:18:42Z</time>
      </trkpt>
      <trkpt lat="49.26118" lon="0.11377">
        <ele>128.7</ele>
        <time>2023-09-03T11:18:43Z</time>
      </trkpt>
      <trkpt lat="49.26117" lon="0.1137">
        <ele>128.7</ele>
        <time>2023-09-03T11:18:44Z</time>
      </trkpt>
      <trkpt lat="49.26116" lon="0.11362">
        <ele>128.7</ele>
        <time>2023-09-03T11:18:45Z</time>
      </trkpt>
      <trkpt lat="49.26115" lon="0.11354">
        <ele>128.8</ele>
        <time>2023-09-03T11:18:46Z</time>
      </trkpt>
      <trkpt lat="49.26114" lon="0.11347">
        <ele>128.8</ele>
        <time>2023-09-03T11:18:47Z</time>
      </trkpt>
      <trkpt lat="49.26114" lon="0.11339">
        <ele>128.9</ele>
        <time>2023-09-03T11:18:48Z</time>
      </trkpt>
      <trkpt lat="49.26113" lon="0.11331">
        <ele>128.9</ele>
        <time>2023-09-03T11:18:49Z</time>
      </trkpt>
      <trkpt lat="49.26112" lon="0.11324">
        <ele>129</ele>
        <time>2023-09-03T11:18:50Z</time>
      </trkpt>
      <trkpt lat="49.26111" lon="0.11316">
        <ele>129</ele>
        <time>2023-09-03T11:18:51Z</time>
      </trkpt>
      <trkpt lat="49.2611" lon="0.11308">
        <ele>129.1</ele>
        <time>2023-09-03T11:18:52Z</time>
      </trkpt>
      <trkpt lat="49.26109" lon="0.11301">
        <ele>129.1</ele>
        <time>2023-09-03T11:18:53Z</time>
      </trkpt>
      <trkpt lat="49.26109" lon="0.11293">
        <ele>129.2</ele>
        <time>2023-09-03T11:18:54Z</time>
      </trkpt>
      <trkpt lat="49.26108" lon="0.11286">
        <ele>129.2</ele>
        <time>2023-09-03T11:18:55Z</time>
      </trkpt>
      <trkpt lat="49.26107" lon="0.11279">
        <ele>129.2</ele>
        <time>2023-09-03T11:18:56Z</time>
      </trkpt>
      <trkpt lat="49.26106" lon="0.11271">
        <ele>129.3</ele>
        <time>2023-09-03T11:18:57Z</time>
      </trkpt>
      <trkpt lat="49.26105" lon="0.11264">
        <ele>129.3</ele>
        <time>2023-09-03T11:18:58Z</time>
      </trkpt>
      <trkpt lat="49.26105" lon="0.11256">
        <ele>129.3</ele>
        <time>2023-09-03T11:18:59Z</time>
      </trkpt>
      <trkpt lat="49.26104" lon="0.11249">
        <ele>129.4</ele>
        <time>2023-09-03T11:19:00Z</time>
      </trkpt>
      <trkpt lat="49.26104" lon="0.11242">
        <ele>129.4</ele>
        <time>2023-09-03T11:19:01Z</time>
      </trkpt>
      <trkpt lat="49.26103" lon="0.11234">
        <ele>129.4</ele>
        <time>2023-09-03T11:19:02Z</time>
      </trkpt>
      <trkpt lat="49.26102" lon="0.11226">
        <ele>129.5</ele>
        <time>2023-09-03T11:19:03Z</time>
      </trkpt>
      <trkpt lat="49.26101" lon="0.11219">
        <ele>129.5</ele>
        <time>2023-09-03T11:19:04Z</time>
      </trkpt>
      <trkpt lat="49.261" lon="0.11211">
        <ele>129.6</ele>
        <time>2023-09-03T11:19:05Z</time>
      </trkpt>
      <trkpt lat="49.261" lon="0.11204">
        <ele>129.6</ele>
        <time>2023-09-03T11:19:06Z</time>
      </trkpt>
      <trkpt lat="49.26099" lon="0.11197">
        <ele>129.6</ele>
        <time>2023-09-03T11:19:07Z</time>
      </trkpt>
      <trkpt lat="49.26098" lon="0.11189">
        <ele>129.7</ele>
        <time>2023-09-03T11:19:08Z</time>
      </trkpt>
      <trkpt lat="49.26097" lon="0.11181">
        <ele>129.7</ele>
        <time>2023-09-03T11:19:09Z</time>
      </trkpt>
      <trkpt lat="49.26096" lon="0.11174">
        <ele>129.7</ele>
        <time>2023-09-03T11:19:10Z</time>
      </trkpt>
      <trkpt lat="49.26095" lon="0.11166">
        <ele>129.7</ele>
        <time>2023-09-03T11:19:11Z</time>
      </trkpt>
      <trkpt lat="49.26094" lon="0.11159">
        <ele>129.7</ele>
        <time>2023-09-03T11:19:12Z</time>
      </trkpt>
      <trkpt lat="49.26093" lon="0.11151">
        <ele>129.7</ele>
        <time>2023-09-03T11:19:13Z</time>
      </trkpt>
      <trkpt lat="49.26093" lon="0.11144">
        <ele>129.8</ele>
        <time>2023-09-03T11:19:14Z</time>
      </trkpt>
      <trkpt lat="49.26092" lon="0.11137">
        <ele>129.8</ele>
        <time>2023-09-03T11:19:15Z</time>
      </trkpt>
      <trkpt lat="49.26091" lon="0.1113">
        <ele>129.8</ele>
        <time>2023-09-03T11:19:16Z</time>
      </trkpt>
      <trkpt lat="49.2609" lon="0.11122">
        <ele>129.9</ele>
        <time>2023-09-03T11:19:17Z</time>
      </trkpt>
      <trkpt lat="49.26089" lon="0.11114">
        <ele>129.9</ele>
        <time>2023-09-03T11:19:18Z</time>
      </trkpt>
      <trkpt lat="49.26089" lon="0.11107">
        <ele>130</ele>
        <time>2023-09-03T11:19:19Z</time>
      </trkpt>
      <trkpt lat="49.26088" lon="0.111">
        <ele>130</ele>
        <time>2023-09-03T11:19:20Z</time>
      </trkpt>
      <trkpt lat="49.26087" lon="0.11092">
        <ele>130.1</ele>
        <time>2023-09-03T11:19:21Z</time>
      </trkpt>
      <trkpt lat="49.26087" lon="0.11085">
        <ele>130.1</ele>
        <time>2023-09-03T11:19:22Z</time>
      </trkpt>
      <trkpt lat="49.26086" lon="0.11078">
        <ele>130.1</ele>
        <time>2023-09-03T11:19:23Z</time>
      </trkpt>
      <trkpt lat="49.26085" lon="0.11071">
        <ele>130.1</ele>
        <time>2023-09-03T11:19:24Z</time>
      </trkpt>
      <trkpt lat="49.26085" lon="0.11065">
        <ele>130.2</ele>
        <time>2023-09-03T11:19:25Z</time>
      </trkpt>
      <trkpt lat="49.26084" lon="0.11058">
        <ele>130.2</ele>
        <time>2023-09-03T11:19:26Z</time>
      </trkpt>
      <trkpt lat="49.26084" lon="0.11052">
        <ele>130.2</ele>
        <time>2023-09-03T11:19:27Z</time>
      </trkpt>
      <trkpt lat="49.26083" lon="0.11045">
        <ele>130.2</ele>
        <time>2023-09-03T11:19:28Z</time>
      </trkpt>
      <trkpt lat="49.26082" lon="0.11039">
        <ele>130.2</ele>
        <time>2023-09-03T11:19:29Z</time>
      </trkpt>
      <trkpt lat="49.26082" lon="0.11033">
        <ele>130.2</ele>
        <time>2023-09-03T11:19:30Z</time>
      </trkpt>
      <trkpt lat="49.26082" lon="0.11028">
        <ele>130.2</ele>
        <time>2023-09-03T11:19:31Z</time>
      </trkpt>
      <trkpt lat="49.26082" lon="0.11025">
        <ele>130.2</ele>
        <time>2023-09-03T11:19:32Z</time>
      </trkpt>
      <trkpt lat="49.26082" lon="0.11024">
        <ele>130.2</ele>
        <time>2023-09-03T11:19:33Z</time>
      </trkpt>
      <trkpt lat="49.26081" lon="0.11023">
        <ele>130.2</ele>
        <time>2023-09-03T11:19:34Z</time>
      </trkpt>
      <trkpt lat="49.26081" lon="0.11022">
        <ele>130.2</ele>
        <time>2023-09-03T11:19:35Z</time>
      </trkpt>
      <trkpt lat="49.26081" lon="0.11021">
        <ele>130.2</ele>
        <time>2023-09-03T11:19:36Z</time>
      </trkpt>
      <trkpt lat="49.26081" lon="0.1102">
        <ele>130.2</ele>
        <time>2023-09-03T11:19:37Z</time>
      </trkpt>
      <trkpt lat="49.26081" lon="0.11019">
        <ele>130.2</ele>
        <time>2023-09-03T11:19:38Z</time>
      </trkpt>
      <trkpt lat="49.26081" lon="0.11019">
        <ele>130.2</ele>
        <time>2023-09-03T11:19:39Z</time>
      </trkpt>
      <trkpt lat="49.26081" lon="0.11018">
        <ele>130.2</ele>
        <time>2023-09-03T11:19:40Z</time>
      </trkpt>
      <trkpt lat="49.26081" lon="0.11017">
        <ele>130.2</ele>
        <time>2023-09-03T11:19:41Z</time>
      </trkpt>
      <trkpt lat="49.2608" lon="0.11016">
        <ele>130.2</ele>
        <time>2023-09-03T11:19:42Z</time>
      </trkpt>
      <trkpt lat="49.2608" lon="0.11015">
        <ele>130.2</ele>
        <time>2023-09-03T11:19:43Z</time>
      </trkpt>
      <trkpt lat="49.2608" lon="0.11014">
        <ele>130.2</ele>
        <time>2023-09-03T11:19:44Z</time>
      </trkpt>
      <trkpt lat="49.2608" lon="0.11013">
        <ele>130.2</ele>
        <time>2023-09-03T11:20:49Z</time>
      </trkpt>
      <trkpt lat="49.2608" lon="0.11012">
        <ele>130.2</ele>
        <time>2023-09-03T11:20:50Z</time>
      </trkpt>
      <trkpt lat="49.2608" lon="0.11011">
        <ele>130.2</ele>
        <time>2023-09-03T11:20:51Z</time>
      </trkpt>
      <trkpt lat="49.26079" lon="0.11005">
        <ele>130.2</ele>
        <time>2023-09-03T11:20:52Z</time>
      </trkpt>
      <trkpt lat="49.26079" lon="0.11003">
        <ele>130.2</ele>
        <time>2023-09-03T11:20:53Z</time>
      </trkpt>
      <trkpt lat="49.26079" lon="0.10998">
        <ele>130.2</ele>
        <time>2023-09-03T11:20:54Z</time>
      </trkpt>
      <trkpt lat="49.26078" lon="0.10992">
        <ele>130.2</ele>
        <time>2023-09-03T11:20:55Z</time>
      </trkpt>
      <trkpt lat="49.26077" lon="0.10987">
        <ele>130.3</ele>
        <time>2023-09-03T11:20:56Z</time>
      </trkpt>
      <trkpt lat="49.26076" lon="0.10982">
        <ele>130.3</ele>
        <time>2023-09-03T11:20:57Z</time>
      </trkpt>
      <trkpt lat="49.26075" lon="0.10976">
        <ele>130.3</ele>
        <time>2023-09-03T11:20:58Z</time>
      </trkpt>
      <trkpt lat="49.26074" lon="0.10969">
        <ele>130.3</ele>
        <time>2023-09-03T11:20:59Z</time>
      </trkpt>
      <trkpt lat="49.26074" lon="0.10963">
        <ele>130.3</ele>
        <time>2023-09-03T11:21:00Z</time>
      </trkpt>
      <trkpt lat="49.26072" lon="0.10957">
        <ele>130.4</ele>
        <time>2023-09-03T11:21:01Z</time>
      </trkpt>
      <trkpt lat="49.2607" lon="0.1095">
        <ele>130.4</ele>
        <time>2023-09-03T11:21:02Z</time>
      </trkpt>
      <trkpt lat="49.26069" lon="0.10944">
        <ele>130.5</ele>
        <time>2023-09-03T11:21:03Z</time>
      </trkpt>
      <trkpt lat="49.26067" lon="0.10938">
        <ele>130.5</ele>
        <time>2023-09-03T11:21:04Z</time>
      </trkpt>
      <trkpt lat="49.26065" lon="0.10931">
        <ele>130.6</ele>
        <time>2023-09-03T11:21:05Z</time>
      </trkpt>
      <trkpt lat="49.26063" lon="0.10925">
        <ele>130.6</ele>
        <time>2023-09-03T11:21:06Z</time>
      </trkpt>
      <trkpt lat="49.26061" lon="0.10919">
        <ele>130.7</ele>
        <time>2023-09-03T11:21:07Z</time>
      </trkpt>
      <trkpt lat="49.26059" lon="0.10913">
        <ele>130.7</ele>
        <time>2023-09-03T11:21:08Z</time>
      </trkpt>
      <trkpt lat="49.26057" lon="0.10907">
        <ele>130.8</ele>
        <time>2023-09-03T11:21:09Z</time>
      </trkpt>
      <trkpt lat="49.26055" lon="0.10901">
        <ele>130.8</ele>
        <time>2023-09-03T11:21:10Z</time>
      </trkpt>
      <trkpt lat="49.26054" lon="0.10896">
        <ele>130.9</ele>
        <time>2023-09-03T11:21:11Z</time>
      </trkpt>
      <trkpt lat="49.26052" lon="0.10892">
        <ele>131</ele>
        <time>2023-09-03T11:21:12Z</time>
      </trkpt>
      <trkpt lat="49.2605" lon="0.10887">
        <ele>131</ele>
        <time>2023-09-03T11:21:13Z</time>
      </trkpt>
      <trkpt lat="49.26049" lon="0.10883">
        <ele>131.1</ele>
        <time>2023-09-03T11:21:14Z</time>
      </trkpt>
      <trkpt lat="49.26048" lon="0.10878">
        <ele>131.2</ele>
        <time>2023-09-03T11:21:15Z</time>
      </trkpt>
      <trkpt lat="49.26047" lon="0.10872">
        <ele>131.2</ele>
        <time>2023-09-03T11:21:16Z</time>
      </trkpt>
      <trkpt lat="49.26048" lon="0.10865">
        <ele>131.3</ele>
        <time>2023-09-03T11:21:17Z</time>
      </trkpt>
      <trkpt lat="49.2605" lon="0.10859">
        <ele>131.3</ele>
        <time>2023-09-03T11:21:18Z</time>
      </trkpt>
      <trkpt lat="49.26051" lon="0.10852">
        <ele>131.3</ele>
        <time>2023-09-03T11:21:19Z</time>
      </trkpt>
      <trkpt lat="49.26052" lon="0.10845">
        <ele>131.3</ele>
        <time>2023-09-03T11:21:20Z</time>
      </trkpt>
      <trkpt lat="49.26053" lon="0.10839">
        <ele>131.3</ele>
        <time>2023-09-03T11:21:21Z</time>
      </trkpt>
      <trkpt lat="49.26052" lon="0.10832">
        <ele>131.2</ele>
        <time>2023-09-03T11:21:22Z</time>
      </trkpt>
      <trkpt lat="49.2605" lon="0.10825">
        <ele>131.2</ele>
        <time>2023-09-03T11:21:23Z</time>
      </trkpt>
      <trkpt lat="49.26048" lon="0.1082">
        <ele>131.2</ele>
        <time>2023-09-03T11:21:24Z</time>
      </trkpt>
      <trkpt lat="49.26045" lon="0.10814">
        <ele>131.2</ele>
        <time>2023-09-03T11:21:25Z</time>
      </trkpt>
      <trkpt lat="49.26041" lon="0.10809">
        <ele>131.2</ele>
        <time>2023-09-03T11:21:26Z</time>
      </trkpt>
      <trkpt lat="49.26039" lon="0.10804">
        <ele>131.3</ele>
        <time>2023-09-03T11:21:27Z</time>
      </trkpt>
      <trkpt lat="49.26037" lon="0.10798">
        <ele>131.2</ele>
        <time>2023-09-03T11:21:28Z</time>
      </trkpt>
      <trkpt lat="49.26035" lon="0.10792">
        <ele>131.2</ele>
        <time>2023-09-03T11:21:29Z</time>
      </trkpt>
      <trkpt lat="49.26035" lon="0.10785">
        <ele>131.2</ele>
        <time>2023-09-03T11:21:30Z</time>
      </trkpt>
      <trkpt lat="49.26035" lon="0.10777">
        <ele>131.2</ele>
        <time>2023-09-03T11:21:31Z</time>
      </trkpt>
      <trkpt lat="49.26035" lon="0.10769">
        <ele>131.2</ele>
        <time>2023-09-03T11:21:32Z</time>
      </trkpt>
      <trkpt lat="49.26036" lon="0.1076">
        <ele>131.2</ele>
        <time>2023-09-03T11:21:33Z</time>
      </trkpt>
      <trkpt lat="49.26036" lon="0.10752">
        <ele>131.2</ele>
        <time>2023-09-03T11:21:34Z</time>
      </trkpt>
      <trkpt lat="49.26037" lon="0.10744">
        <ele>131.2</ele>
        <time>2023-09-03T11:21:35Z</time>
      </trkpt>
      <trkpt lat="49.26038" lon="0.10735">
        <ele>131.1</ele>
        <time>2023-09-03T11:21:36Z</time>
      </trkpt>
      <trkpt lat="49.26038" lon="0.10727">
        <ele>131</ele>
        <time>2023-09-03T11:21:37Z</time>
      </trkpt>
      <trkpt lat="49.26039" lon="0.10718">
        <ele>131</ele>
        <time>2023-09-03T11:21:38Z</time>
      </trkpt>
      <trkpt lat="49.2604" lon="0.1071">
        <ele>130.9</ele>
        <time>2023-09-03T11:21:39Z</time>
      </trkpt>
      <trkpt lat="49.26041" lon="0.10701">
        <ele>130.9</ele>
        <time>2023-09-03T11:21:40Z</time>
      </trkpt>
      <trkpt lat="49.26042" lon="0.10692">
        <ele>130.9</ele>
        <time>2023-09-03T11:21:41Z</time>
      </trkpt>
      <trkpt lat="49.26043" lon="0.10684">
        <ele>130.9</ele>
        <time>2023-09-03T11:21:42Z</time>
      </trkpt>
      <trkpt lat="49.26043" lon="0.10675">
        <ele>130.8</ele>
        <time>2023-09-03T11:21:43Z</time>
      </trkpt>
      <trkpt lat="49.26043" lon="0.10667">
        <ele>130.8</ele>
        <time>2023-09-03T11:21:44Z</time>
      </trkpt>
      <trkpt lat="49.26043" lon="0.10658">
        <ele>130.8</ele>
        <time>2023-09-03T11:21:45Z</time>
      </trkpt>
      <trkpt lat="49.26043" lon="0.1065">
        <ele>130.8</ele>
        <time>2023-09-03T11:21:46Z</time>
      </trkpt>
      <trkpt lat="49.26042" lon="0.10642">
        <ele>130.8</ele>
        <time>2023-09-03T11:21:47Z</time>
      </trkpt>
      <trkpt lat="49.26041" lon="0.10634">
        <ele>130.8</ele>
        <time>2023-09-03T11:21:48Z</time>
      </trkpt>
      <trkpt lat="49.2604" lon="0.10627">
        <ele>130.8</ele>
        <time>2023-09-03T11:21:49Z</time>
      </trkpt>
      <trkpt lat="49.2604" lon="0.10621">
        <ele>130.8</ele>
        <time>2023-09-03T11:21:50Z</time>
      </trkpt>
      <trkpt lat="49.2604" lon="0.10616">
        <ele>130.8</ele>
        <time>2023-09-03T11:21:51Z</time>
      </trkpt>
      <trkpt lat="49.26041" lon="0.10611">
        <ele>130.8</ele>
        <time>2023-09-03T11:21:52Z</time>
      </trkpt>
      <trkpt lat="49.26041" lon="0.1061">
        <ele>130.8</ele>
        <time>2023-09-03T11:21:53Z</time>
      </trkpt>
      <trkpt lat="49.2604" lon="0.10605">
        <ele>130.8</ele>
        <time>2023-09-03T11:21:54Z</time>
      </trkpt>
      <trkpt lat="49.2604" lon="0.10604">
        <ele>130.8</ele>
        <time>2023-09-03T11:21:55Z</time>
      </trkpt>
      <trkpt lat="49.26039" lon="0.10599">
        <ele>130.8</ele>
        <time>2023-09-03T11:21:56Z</time>
      </trkpt>
      <trkpt lat="49.26038" lon="0.10592">
        <ele>130.8</ele>
        <time>2023-09-03T11:21:57Z</time>
      </trkpt>
      <trkpt lat="49.26037" lon="0.10586">
        <ele>130.8</ele>
        <time>2023-09-03T11:21:58Z</time>
      </trkpt>
      <trkpt lat="49.26036" lon="0.1058">
        <ele>130.8</ele>
        <time>2023-09-03T11:21:59Z</time>
      </trkpt>
      <trkpt lat="49.26035" lon="0.10573">
        <ele>130.8</ele>
        <time>2023-09-03T11:22:00Z</time>
      </trkpt>
      <trkpt lat="49.26034" lon="0.10566">
        <ele>130.8</ele>
        <time>2023-09-03T11:22:01Z</time>
      </trkpt>
      <trkpt lat="49.26033" lon="0.10558">
        <ele>130.8</ele>
        <time>2023-09-03T11:22:02Z</time>
      </trkpt>
      <trkpt lat="49.26032" lon="0.10551">
        <ele>130.8</ele>
        <time>2023-09-03T11:22:03Z</time>
      </trkpt>
      <trkpt lat="49.26031" lon="0.10544">
        <ele>130.8</ele>
        <time>2023-09-03T11:22:04Z</time>
      </trkpt>
      <trkpt lat="49.2603" lon="0.10536">
        <ele>130.8</ele>
        <time>2023-09-03T11:22:05Z</time>
      </trkpt>
      <trkpt lat="49.2603" lon="0.10528">
        <ele>130.8</ele>
        <time>2023-09-03T11:22:06Z</time>
      </trkpt>
      <trkpt lat="49.26029" lon="0.10519">
        <ele>130.8</ele>
        <time>2023-09-03T11:22:07Z</time>
      </trkpt>
      <trkpt lat="49.26028" lon="0.1051">
        <ele>130.8</ele>
        <time>2023-09-03T11:22:08Z</time>
      </trkpt>
      <trkpt lat="49.26027" lon="0.10501">
        <ele>130.8</ele>
        <time>2023-09-03T11:22:09Z</time>
      </trkpt>
      <trkpt lat="49.26026" lon="0.10491">
        <ele>130.8</ele>
        <time>2023-09-03T11:22:10Z</time>
      </trkpt>
      <trkpt lat="49.26024" lon="0.10482">
        <ele>130.8</ele>
        <time>2023-09-03T11:22:11Z</time>
      </trkpt>
      <trkpt lat="49.26023" lon="0.10472">
        <ele>130.8</ele>
        <time>2023-09-03T11:22:12Z</time>
      </trkpt>
      <trkpt lat="49.26022" lon="0.10462">
        <ele>130.7</ele>
        <time>2023-09-03T11:22:13Z</time>
      </trkpt>
      <trkpt lat="49.26021" lon="0.10452">
        <ele>130.7</ele>
        <time>2023-09-03T11:22:14Z</time>
      </trkpt>
      <trkpt lat="49.2602" lon="0.10442">
        <ele>130.7</ele>
        <time>2023-09-03T11:22:15Z</time>
      </trkpt>
      <trkpt lat="49.26019" lon="0.10431">
        <ele>130.7</ele>
        <time>2023-09-03T11:22:16Z</time>
      </trkpt>
      <trkpt lat="49.26018" lon="0.1042">
        <ele>130.7</ele>
        <time>2023-09-03T11:22:17Z</time>
      </trkpt>
      <trkpt lat="49.26017" lon="0.10409">
        <ele>130.7</ele>
        <time>2023-09-03T11:22:18Z</time>
      </trkpt>
      <trkpt lat="49.26016" lon="0.10398">
        <ele>130.7</ele>
        <time>2023-09-03T11:22:19Z</time>
      </trkpt>
      <trkpt lat="49.26015" lon="0.10387">
        <ele>130.7</ele>
        <time>2023-09-03T11:22:20Z</time>
      </trkpt>
      <trkpt lat="49.26013" lon="0.10376">
        <ele>130.6</ele>
        <time>2023-09-03T11:22:21Z</time>
      </trkpt>
      <trkpt lat="49.26012" lon="0.10365">
        <ele>130.6</ele>
        <time>2023-09-03T11:22:22Z</time>
      </trkpt>
      <trkpt lat="49.26011" lon="0.10354">
        <ele>130.6</ele>
        <time>2023-09-03T11:22:23Z</time>
      </trkpt>
      <trkpt lat="49.2601" lon="0.10343">
        <ele>130.6</ele>
        <time>2023-09-03T11:22:24Z</time>
      </trkpt>
      <trkpt lat="49.26009" lon="0.10332">
        <ele>130.6</ele>
        <time>2023-09-03T11:22:25Z</time>
      </trkpt>
      <trkpt lat="49.26008" lon="0.10321">
        <ele>130.7</ele>
        <time>2023-09-03T11:22:26Z</time>
      </trkpt>
      <trkpt lat="49.26007" lon="0.1031">
        <ele>130.7</ele>
        <time>2023-09-03T11:22:27Z</time>
      </trkpt>
      <trkpt lat="49.26006" lon="0.10299">
        <ele>130.7</ele>
        <time>2023-09-03T11:22:28Z</time>
      </trkpt>
      <trkpt lat="49.26004" lon="0.10288">
        <ele>130.7</ele>
        <time>2023-09-03T11:22:29Z</time>
      </trkpt>
      <trkpt lat="49.26003" lon="0.10276">
        <ele>130.7</ele>
        <time>2023-09-03T11:22:30Z</time>
      </trkpt>
      <trkpt lat="49.26002" lon="0.10265">
        <ele>130.8</ele>
        <time>2023-09-03T11:22:31Z</time>
      </trkpt>
      <trkpt lat="49.26001" lon="0.10254">
        <ele>130.8</ele>
        <time>2023-09-03T11:22:32Z</time>
      </trkpt>
      <trkpt lat="49.26" lon="0.10242">
        <ele>130.8</ele>
        <time>2023-09-03T11:22:33Z</time>
      </trkpt>
      <trkpt lat="49.25998" lon="0.10232">
        <ele>130.8</ele>
        <time>2023-09-03T11:22:34Z</time>
      </trkpt>
      <trkpt lat="49.25997" lon="0.10221">
        <ele>130.8</ele>
        <time>2023-09-03T11:22:35Z</time>
      </trkpt>
      <trkpt lat="49.25995" lon="0.1021">
        <ele>130.9</ele>
        <time>2023-09-03T11:22:36Z</time>
      </trkpt>
      <trkpt lat="49.25994" lon="0.10199">
        <ele>131</ele>
        <time>2023-09-03T11:22:37Z</time>
      </trkpt>
      <trkpt lat="49.25993" lon="0.10188">
        <ele>131</ele>
        <time>2023-09-03T11:22:38Z</time>
      </trkpt>
      <trkpt lat="49.25991" lon="0.10177">
        <ele>131.1</ele>
        <time>2023-09-03T11:22:39Z</time>
      </trkpt>
      <trkpt lat="49.2599" lon="0.10166">
        <ele>131.2</ele>
        <time>2023-09-03T11:22:40Z</time>
      </trkpt>
      <trkpt lat="49.25989" lon="0.10154">
        <ele>131.2</ele>
        <time>2023-09-03T11:22:41Z</time>
      </trkpt>
      <trkpt lat="49.25988" lon="0.10143">
        <ele>131.3</ele>
        <time>2023-09-03T11:22:42Z</time>
      </trkpt>
      <trkpt lat="49.25987" lon="0.10131">
        <ele>131.4</ele>
        <time>2023-09-03T11:22:43Z</time>
      </trkpt>
      <trkpt lat="49.25986" lon="0.10119">
        <ele>131.4</ele>
        <time>2023-09-03T11:22:44Z</time>
      </trkpt>
      <trkpt lat="49.25985" lon="0.10108">
        <ele>131.5</ele>
        <time>2023-09-03T11:22:45Z</time>
      </trkpt>
      <trkpt lat="49.25984" lon="0.10098">
        <ele>131.5</ele>
        <time>2023-09-03T11:22:46Z</time>
      </trkpt>
      <trkpt lat="49.25982" lon="0.10087">
        <ele>131.6</ele>
        <time>2023-09-03T11:22:47Z</time>
      </trkpt>
      <trkpt lat="49.25981" lon="0.10077">
        <ele>131.7</ele>
        <time>2023-09-03T11:22:48Z</time>
      </trkpt>
      <trkpt lat="49.2598" lon="0.10067">
        <ele>131.9</ele>
        <time>2023-09-03T11:22:49Z</time>
      </trkpt>
      <trkpt lat="49.25979" lon="0.10056">
        <ele>132</ele>
        <time>2023-09-03T11:22:50Z</time>
      </trkpt>
      <trkpt lat="49.25978" lon="0.10046">
        <ele>132.2</ele>
        <time>2023-09-03T11:22:51Z</time>
      </trkpt>
      <trkpt lat="49.25977" lon="0.10036">
        <ele>132.3</ele>
        <time>2023-09-03T11:22:52Z</time>
      </trkpt>
      <trkpt lat="49.25976" lon="0.10025">
        <ele>132.5</ele>
        <time>2023-09-03T11:22:53Z</time>
      </trkpt>
      <trkpt lat="49.25975" lon="0.10015">
        <ele>132.6</ele>
        <time>2023-09-03T11:22:54Z</time>
      </trkpt>
      <trkpt lat="49.25974" lon="0.10005">
        <ele>132.8</ele>
        <time>2023-09-03T11:22:55Z</time>
      </trkpt>
      <trkpt lat="49.25973" lon="0.09995">
        <ele>133</ele>
        <time>2023-09-03T11:22:56Z</time>
      </trkpt>
      <trkpt lat="49.25972" lon="0.09985">
        <ele>133.1</ele>
        <time>2023-09-03T11:22:57Z</time>
      </trkpt>
      <trkpt lat="49.25971" lon="0.09974">
        <ele>133.3</ele>
        <time>2023-09-03T11:22:58Z</time>
      </trkpt>
      <trkpt lat="49.2597" lon="0.09964">
        <ele>133.5</ele>
        <time>2023-09-03T11:22:59Z</time>
      </trkpt>
      <trkpt lat="49.25969" lon="0.09954">
        <ele>133.6</ele>
        <time>2023-09-03T11:23:00Z</time>
      </trkpt>
      <trkpt lat="49.25967" lon="0.09944">
        <ele>133.7</ele>
        <time>2023-09-03T11:23:01Z</time>
      </trkpt>
      <trkpt lat="49.25967" lon="0.09934">
        <ele>133.8</ele>
        <time>2023-09-03T11:23:02Z</time>
      </trkpt>
      <trkpt lat="49.25966" lon="0.09925">
        <ele>133.9</ele>
        <time>2023-09-03T11:23:03Z</time>
      </trkpt>
      <trkpt lat="49.25965" lon="0.09916">
        <ele>134</ele>
        <time>2023-09-03T11:23:04Z</time>
      </trkpt>
      <trkpt lat="49.25964" lon="0.09907">
        <ele>134.2</ele>
        <time>2023-09-03T11:23:05Z</time>
      </trkpt>
      <trkpt lat="49.25963" lon="0.09898">
        <ele>134.3</ele>
        <time>2023-09-03T11:23:06Z</time>
      </trkpt>
      <trkpt lat="49.25962" lon="0.09889">
        <ele>134.5</ele>
        <time>2023-09-03T11:23:07Z</time>
      </trkpt>
      <trkpt lat="49.25961" lon="0.0988">
        <ele>134.6</ele>
        <time>2023-09-03T11:23:08Z</time>
      </trkpt>
      <trkpt lat="49.2596" lon="0.09872">
        <ele>134.8</ele>
        <time>2023-09-03T11:23:09Z</time>
      </trkpt>
      <trkpt lat="49.25959" lon="0.09863">
        <ele>135</ele>
        <time>2023-09-03T11:23:10Z</time>
      </trkpt>
      <trkpt lat="49.25959" lon="0.09855">
        <ele>135.1</ele>
        <time>2023-09-03T11:23:11Z</time>
      </trkpt>
      <trkpt lat="49.25958" lon="0.09848">
        <ele>135.3</ele>
        <time>2023-09-03T11:23:12Z</time>
      </trkpt>
      <trkpt lat="49.25957" lon="0.0984">
        <ele>135.4</ele>
        <time>2023-09-03T11:23:13Z</time>
      </trkpt>
      <trkpt lat="49.25956" lon="0.09832">
        <ele>135.5</ele>
        <time>2023-09-03T11:23:14Z</time>
      </trkpt>
      <trkpt lat="49.25956" lon="0.09824">
        <ele>135.6</ele>
        <time>2023-09-03T11:23:15Z</time>
      </trkpt>
      <trkpt lat="49.25955" lon="0.09817">
        <ele>135.7</ele>
        <time>2023-09-03T11:23:16Z</time>
      </trkpt>
      <trkpt lat="49.25954" lon="0.09809">
        <ele>135.8</ele>
        <time>2023-09-03T11:23:17Z</time>
      </trkpt>
      <trkpt lat="49.25953" lon="0.09802">
        <ele>135.9</ele>
        <time>2023-09-03T11:23:18Z</time>
      </trkpt>
      <trkpt lat="49.25953" lon="0.09794">
        <ele>136</ele>
        <time>2023-09-03T11:23:19Z</time>
      </trkpt>
      <trkpt lat="49.25952" lon="0.09786">
        <ele>136.2</ele>
        <time>2023-09-03T11:23:20Z</time>
      </trkpt>
      <trkpt lat="49.25951" lon="0.09778">
        <ele>136.3</ele>
        <time>2023-09-03T11:23:21Z</time>
      </trkpt>
      <trkpt lat="49.2595" lon="0.0977">
        <ele>136.5</ele>
        <time>2023-09-03T11:23:22Z</time>
      </trkpt>
      <trkpt lat="49.25949" lon="0.09762">
        <ele>136.7</ele>
        <time>2023-09-03T11:23:23Z</time>
      </trkpt>
      <trkpt lat="49.25949" lon="0.09754">
        <ele>136.8</ele>
        <time>2023-09-03T11:23:24Z</time>
      </trkpt>
      <trkpt lat="49.25948" lon="0.09746">
        <ele>136.9</ele>
        <time>2023-09-03T11:23:25Z</time>
      </trkpt>
      <trkpt lat="49.25947" lon="0.09738">
        <ele>137</ele>
        <time>2023-09-03T11:23:26Z</time>
      </trkpt>
      <trkpt lat="49.25946" lon="0.0973">
        <ele>137.2</ele>
        <time>2023-09-03T11:23:27Z</time>
      </trkpt>
      <trkpt lat="49.25945" lon="0.09722">
        <ele>137.3</ele>
        <time>2023-09-03T11:23:28Z</time>
      </trkpt>
      <trkpt lat="49.25944" lon="0.09714">
        <ele>137.4</ele>
        <time>2023-09-03T11:23:29Z</time>
      </trkpt>
      <trkpt lat="49.25943" lon="0.09706">
        <ele>137.6</ele>
        <time>2023-09-03T11:23:30Z</time>
      </trkpt>
      <trkpt lat="49.25943" lon="0.09698">
        <ele>137.7</ele>
        <time>2023-09-03T11:23:31Z</time>
      </trkpt>
      <trkpt lat="49.25942" lon="0.09691">
        <ele>137.8</ele>
        <time>2023-09-03T11:23:32Z</time>
      </trkpt>
      <trkpt lat="49.25941" lon="0.09684">
        <ele>137.9</ele>
        <time>2023-09-03T11:23:33Z</time>
      </trkpt>
      <trkpt lat="49.25941" lon="0.09677">
        <ele>138</ele>
        <time>2023-09-03T11:23:34Z</time>
      </trkpt>
      <trkpt lat="49.2594" lon="0.09669">
        <ele>138.2</ele>
        <time>2023-09-03T11:23:35Z</time>
      </trkpt>
      <trkpt lat="49.25939" lon="0.09662">
        <ele>138.3</ele>
        <time>2023-09-03T11:23:36Z</time>
      </trkpt>
      <trkpt lat="49.25939" lon="0.09654">
        <ele>138.4</ele>
        <time>2023-09-03T11:23:37Z</time>
      </trkpt>
      <trkpt lat="49.25938" lon="0.09646">
        <ele>138.5</ele>
        <time>2023-09-03T11:23:38Z</time>
      </trkpt>
      <trkpt lat="49.25937" lon="0.09638">
        <ele>138.6</ele>
        <time>2023-09-03T11:23:39Z</time>
      </trkpt>
      <trkpt lat="49.25937" lon="0.09631">
        <ele>138.7</ele>
        <time>2023-09-03T11:23:40Z</time>
      </trkpt>
      <trkpt lat="49.25936" lon="0.09624">
        <ele>138.8</ele>
        <time>2023-09-03T11:23:41Z</time>
      </trkpt>
      <trkpt lat="49.25935" lon="0.09616">
        <ele>138.8</ele>
        <time>2023-09-03T11:23:42Z</time>
      </trkpt>
      <trkpt lat="49.25934" lon="0.09608">
        <ele>138.9</ele>
        <time>2023-09-03T11:23:43Z</time>
      </trkpt>
      <trkpt lat="49.25934" lon="0.09601">
        <ele>139</ele>
        <time>2023-09-03T11:23:44Z</time>
      </trkpt>
      <trkpt lat="49.25932" lon="0.09593">
        <ele>139.1</ele>
        <time>2023-09-03T11:23:45Z</time>
      </trkpt>
      <trkpt lat="49.25931" lon="0.09585">
        <ele>139.1</ele>
        <time>2023-09-03T11:23:46Z</time>
      </trkpt>
      <trkpt lat="49.25931" lon="0.09577">
        <ele>139.2</ele>
        <time>2023-09-03T11:23:47Z</time>
      </trkpt>
      <trkpt lat="49.2593" lon="0.09569">
        <ele>139.2</ele>
        <time>2023-09-03T11:23:48Z</time>
      </trkpt>
      <trkpt lat="49.25929" lon="0.09562">
        <ele>139.2</ele>
        <time>2023-09-03T11:23:49Z</time>
      </trkpt>
      <trkpt lat="49.25928" lon="0.09554">
        <ele>139.2</ele>
        <time>2023-09-03T11:23:50Z</time>
      </trkpt>
      <trkpt lat="49.25927" lon="0.09546">
        <ele>139.2</ele>
        <time>2023-09-03T11:23:51Z</time>
      </trkpt>
      <trkpt lat="49.25926" lon="0.09538">
        <ele>139.1</ele>
        <time>2023-09-03T11:23:52Z</time>
      </trkpt>
      <trkpt lat="49.25925" lon="0.0953">
        <ele>139.1</ele>
        <time>2023-09-03T11:23:53Z</time>
      </trkpt>
      <trkpt lat="49.25923" lon="0.09521">
        <ele>139.1</ele>
        <time>2023-09-03T11:23:54Z</time>
      </trkpt>
      <trkpt lat="49.25922" lon="0.09512">
        <ele>139</ele>
        <time>2023-09-03T11:23:55Z</time>
      </trkpt>
      <trkpt lat="49.25921" lon="0.09503">
        <ele>139</ele>
        <time>2023-09-03T11:23:56Z</time>
      </trkpt>
      <trkpt lat="49.25919" lon="0.09493">
        <ele>138.9</ele>
        <time>2023-09-03T11:23:57Z</time>
      </trkpt>
      <trkpt lat="49.25918" lon="0.09484">
        <ele>138.9</ele>
        <time>2023-09-03T11:23:58Z</time>
      </trkpt>
      <trkpt lat="49.25917" lon="0.09474">
        <ele>138.8</ele>
        <time>2023-09-03T11:23:59Z</time>
      </trkpt>
      <trkpt lat="49.25915" lon="0.09464">
        <ele>138.7</ele>
        <time>2023-09-03T11:24:00Z</time>
      </trkpt>
      <trkpt lat="49.25914" lon="0.09455">
        <ele>138.6</ele>
        <time>2023-09-03T11:24:01Z</time>
      </trkpt>
      <trkpt lat="49.25913" lon="0.09445">
        <ele>138.5</ele>
        <time>2023-09-03T11:24:02Z</time>
      </trkpt>
      <trkpt lat="49.25911" lon="0.09435">
        <ele>138.4</ele>
        <time>2023-09-03T11:24:03Z</time>
      </trkpt>
      <trkpt lat="49.2591" lon="0.09426">
        <ele>138.3</ele>
        <time>2023-09-03T11:24:04Z</time>
      </trkpt>
      <trkpt lat="49.25908" lon="0.09416">
        <ele>138.2</ele>
        <time>2023-09-03T11:24:05Z</time>
      </trkpt>
      <trkpt lat="49.25907" lon="0.09405">
        <ele>138.2</ele>
        <time>2023-09-03T11:24:06Z</time>
      </trkpt>
      <trkpt lat="49.25905" lon="0.09394">
        <ele>138.1</ele>
        <time>2023-09-03T11:24:07Z</time>
      </trkpt>
      <trkpt lat="49.25904" lon="0.09382">
        <ele>138</ele>
        <time>2023-09-03T11:24:08Z</time>
      </trkpt>
      <trkpt lat="49.25902" lon="0.09371">
        <ele>137.9</ele>
        <time>2023-09-03T11:24:09Z</time>
      </trkpt>
      <trkpt lat="49.25901" lon="0.0936">
        <ele>137.8</ele>
        <time>2023-09-03T11:24:10Z</time>
      </trkpt>
      <trkpt lat="49.259" lon="0.09349">
        <ele>137.7</ele>
        <time>2023-09-03T11:24:11Z</time>
      </trkpt>
      <trkpt lat="49.25898" lon="0.09339">
        <ele>137.5</ele>
        <time>2023-09-03T11:24:12Z</time>
      </trkpt>
      <trkpt lat="49.25897" lon="0.09328">
        <ele>137.4</ele>
        <time>2023-09-03T11:24:13Z</time>
      </trkpt>
      <trkpt lat="49.25895" lon="0.09316">
        <ele>137.2</ele>
        <time>2023-09-03T11:24:14Z</time>
      </trkpt>
      <trkpt lat="49.25894" lon="0.09305">
        <ele>137.1</ele>
        <time>2023-09-03T11:24:15Z</time>
      </trkpt>
      <trkpt lat="49.25892" lon="0.09294">
        <ele>137</ele>
        <time>2023-09-03T11:24:16Z</time>
      </trkpt>
      <trkpt lat="49.25891" lon="0.09283">
        <ele>136.9</ele>
        <time>2023-09-03T11:24:17Z</time>
      </trkpt>
      <trkpt lat="49.25889" lon="0.09272">
        <ele>136.8</ele>
        <time>2023-09-03T11:24:18Z</time>
      </trkpt>
      <trkpt lat="49.25888" lon="0.09261">
        <ele>136.7</ele>
        <time>2023-09-03T11:24:19Z</time>
      </trkpt>
      <trkpt lat="49.25886" lon="0.0925">
        <ele>136.6</ele>
        <time>2023-09-03T11:24:20Z</time>
      </trkpt>
      <trkpt lat="49.25885" lon="0.09239">
        <ele>136.5</ele>
        <time>2023-09-03T11:24:21Z</time>
      </trkpt>
      <trkpt lat="49.25883" lon="0.09227">
        <ele>136.4</ele>
        <time>2023-09-03T11:24:22Z</time>
      </trkpt>
      <trkpt lat="49.25881" lon="0.09216">
        <ele>136.3</ele>
        <time>2023-09-03T11:24:23Z</time>
      </trkpt>
      <trkpt lat="49.2588" lon="0.09205">
        <ele>136.1</ele>
        <time>2023-09-03T11:24:24Z</time>
      </trkpt>
      <trkpt lat="49.25878" lon="0.09194">
        <ele>136.1</ele>
        <time>2023-09-03T11:24:25Z</time>
      </trkpt>
      <trkpt lat="49.25877" lon="0.09183">
        <ele>135.9</ele>
        <time>2023-09-03T11:24:26Z</time>
      </trkpt>
      <trkpt lat="49.25875" lon="0.09172">
        <ele>135.8</ele>
        <time>2023-09-03T11:24:27Z</time>
      </trkpt>
      <trkpt lat="49.25874" lon="0.0916">
        <ele>135.7</ele>
        <time>2023-09-03T11:24:28Z</time>
      </trkpt>
      <trkpt lat="49.25872" lon="0.09149">
        <ele>135.6</ele>
        <time>2023-09-03T11:24:29Z</time>
      </trkpt>
      <trkpt lat="49.2587" lon="0.09138">
        <ele>135.5</ele>
        <time>2023-09-03T11:24:30Z</time>
      </trkpt>
      <trkpt lat="49.25869" lon="0.09126">
        <ele>135.5</ele>
        <time>2023-09-03T11:24:31Z</time>
      </trkpt>
      <trkpt lat="49.25867" lon="0.09115">
        <ele>135.4</ele>
        <time>2023-09-03T11:24:32Z</time>
      </trkpt>
      <trkpt lat="49.25865" lon="0.09103">
        <ele>135.3</ele>
        <time>2023-09-03T11:24:33Z</time>
      </trkpt>
      <trkpt lat="49.25864" lon="0.09091">
        <ele>135.2</ele>
        <time>2023-09-03T11:24:34Z</time>
      </trkpt>
      <trkpt lat="49.25862" lon="0.09078">
        <ele>135</ele>
        <time>2023-09-03T11:24:35Z</time>
      </trkpt>
      <trkpt lat="49.25861" lon="0.09066">
        <ele>134.9</ele>
        <time>2023-09-03T11:24:36Z</time>
      </trkpt>
      <trkpt lat="49.25859" lon="0.09054">
        <ele>134.8</ele>
        <time>2023-09-03T11:24:37Z</time>
      </trkpt>
      <trkpt lat="49.25857" lon="0.09042">
        <ele>134.7</ele>
        <time>2023-09-03T11:24:38Z</time>
      </trkpt>
      <trkpt lat="49.25855" lon="0.09029">
        <ele>134.5</ele>
        <time>2023-09-03T11:24:39Z</time>
      </trkpt>
      <trkpt lat="49.25854" lon="0.09016">
        <ele>134.4</ele>
        <time>2023-09-03T11:24:40Z</time>
      </trkpt>
      <trkpt lat="49.25852" lon="0.09003">
        <ele>134.2</ele>
        <time>2023-09-03T11:24:41Z</time>
      </trkpt>
      <trkpt lat="49.2585" lon="0.0899">
        <ele>134.1</ele>
        <time>2023-09-03T11:24:42Z</time>
      </trkpt>
      <trkpt lat="49.25848" lon="0.08978">
        <ele>133.9</ele>
        <time>2023-09-03T11:24:43Z</time>
      </trkpt>
      <trkpt lat="49.25846" lon="0.08965">
        <ele>133.8</ele>
        <time>2023-09-03T11:24:44Z</time>
      </trkpt>
      <trkpt lat="49.25844" lon="0.08953">
        <ele>133.7</ele>
        <time>2023-09-03T11:24:45Z</time>
      </trkpt>
      <trkpt lat="49.25843" lon="0.0894">
        <ele>133.6</ele>
        <time>2023-09-03T11:24:46Z</time>
      </trkpt>
      <trkpt lat="49.25841" lon="0.08927">
        <ele>133.5</ele>
        <time>2023-09-03T11:24:47Z</time>
      </trkpt>
      <trkpt lat="49.2584" lon="0.08914">
        <ele>133.4</ele>
        <time>2023-09-03T11:24:48Z</time>
      </trkpt>
      <trkpt lat="49.25838" lon="0.08901">
        <ele>133.4</ele>
        <time>2023-09-03T11:24:49Z</time>
      </trkpt>
      <trkpt lat="49.25837" lon="0.08889">
        <ele>133.4</ele>
        <time>2023-09-03T11:24:50Z</time>
      </trkpt>
      <trkpt lat="49.25835" lon="0.08876">
        <ele>133.3</ele>
        <time>2023-09-03T11:24:51Z</time>
      </trkpt>
      <trkpt lat="49.25834" lon="0.08863">
        <ele>133.3</ele>
        <time>2023-09-03T11:24:52Z</time>
      </trkpt>
      <trkpt lat="49.25832" lon="0.0885">
        <ele>133.3</ele>
        <time>2023-09-03T11:24:53Z</time>
      </trkpt>
      <trkpt lat="49.2583" lon="0.08838">
        <ele>133.3</ele>
        <time>2023-09-03T11:24:54Z</time>
      </trkpt>
      <trkpt lat="49.25829" lon="0.08825">
        <ele>133.3</ele>
        <time>2023-09-03T11:24:55Z</time>
      </trkpt>
      <trkpt lat="49.25827" lon="0.08813">
        <ele>133.3</ele>
        <time>2023-09-03T11:24:56Z</time>
      </trkpt>
      <trkpt lat="49.25826" lon="0.088">
        <ele>133.3</ele>
        <time>2023-09-03T11:24:57Z</time>
      </trkpt>
      <trkpt lat="49.25825" lon="0.08788">
        <ele>133.3</ele>
        <time>2023-09-03T11:24:58Z</time>
      </trkpt>
      <trkpt lat="49.25824" lon="0.08775">
        <ele>133.3</ele>
        <time>2023-09-03T11:24:59Z</time>
      </trkpt>
      <trkpt lat="49.25822" lon="0.08764">
        <ele>133.3</ele>
        <time>2023-09-03T11:25:00Z</time>
      </trkpt>
      <trkpt lat="49.25821" lon="0.08752">
        <ele>133.3</ele>
        <time>2023-09-03T11:25:01Z</time>
      </trkpt>
      <trkpt lat="49.2582" lon="0.08741">
        <ele>133.4</ele>
        <time>2023-09-03T11:25:02Z</time>
      </trkpt>
      <trkpt lat="49.25818" lon="0.0873">
        <ele>133.4</ele>
        <time>2023-09-03T11:25:03Z</time>
      </trkpt>
      <trkpt lat="49.25817" lon="0.08719">
        <ele>133.5</ele>
        <time>2023-09-03T11:25:04Z</time>
      </trkpt>
      <trkpt lat="49.25815" lon="0.08708">
        <ele>133.5</ele>
        <time>2023-09-03T11:25:05Z</time>
      </trkpt>
      <trkpt lat="49.25814" lon="0.08697">
        <ele>133.6</ele>
        <time>2023-09-03T11:25:06Z</time>
      </trkpt>
      <trkpt lat="49.25813" lon="0.08687">
        <ele>133.7</ele>
        <time>2023-09-03T11:25:07Z</time>
      </trkpt>
      <trkpt lat="49.25813" lon="0.08676">
        <ele>133.7</ele>
        <time>2023-09-03T11:25:08Z</time>
      </trkpt>
      <trkpt lat="49.25812" lon="0.08667">
        <ele>133.8</ele>
        <time>2023-09-03T11:25:09Z</time>
      </trkpt>
      <trkpt lat="49.2581" lon="0.08657">
        <ele>133.8</ele>
        <time>2023-09-03T11:25:10Z</time>
      </trkpt>
      <trkpt lat="49.25809" lon="0.08646">
        <ele>133.8</ele>
        <time>2023-09-03T11:25:11Z</time>
      </trkpt>
      <trkpt lat="49.25808" lon="0.08635">
        <ele>133.9</ele>
        <time>2023-09-03T11:25:12Z</time>
      </trkpt>
      <trkpt lat="49.25807" lon="0.08624">
        <ele>133.9</ele>
        <time>2023-09-03T11:25:13Z</time>
      </trkpt>
      <trkpt lat="49.25805" lon="0.08614">
        <ele>134</ele>
        <time>2023-09-03T11:25:14Z</time>
      </trkpt>
      <trkpt lat="49.25804" lon="0.08604">
        <ele>134</ele>
        <time>2023-09-03T11:25:15Z</time>
      </trkpt>
      <trkpt lat="49.25803" lon="0.08594">
        <ele>134.1</ele>
        <time>2023-09-03T11:25:16Z</time>
      </trkpt>
      <trkpt lat="49.25802" lon="0.08584">
        <ele>134.2</ele>
        <time>2023-09-03T11:25:17Z</time>
      </trkpt>
      <trkpt lat="49.25801" lon="0.08573">
        <ele>134.3</ele>
        <time>2023-09-03T11:25:18Z</time>
      </trkpt>
      <trkpt lat="49.25801" lon="0.08563">
        <ele>134.3</ele>
        <time>2023-09-03T11:25:19Z</time>
      </trkpt>
      <trkpt lat="49.258" lon="0.08553">
        <ele>134.4</ele>
        <time>2023-09-03T11:25:20Z</time>
      </trkpt>
      <trkpt lat="49.25799" lon="0.08543">
        <ele>134.5</ele>
        <time>2023-09-03T11:25:21Z</time>
      </trkpt>
      <trkpt lat="49.25798" lon="0.08532">
        <ele>134.6</ele>
        <time>2023-09-03T11:25:22Z</time>
      </trkpt>
      <trkpt lat="49.25797" lon="0.08522">
        <ele>134.6</ele>
        <time>2023-09-03T11:25:23Z</time>
      </trkpt>
      <trkpt lat="49.25795" lon="0.08512">
        <ele>134.7</ele>
        <time>2023-09-03T11:25:24Z</time>
      </trkpt>
      <trkpt lat="49.25795" lon="0.08501">
        <ele>134.7</ele>
        <time>2023-09-03T11:25:25Z</time>
      </trkpt>
      <trkpt lat="49.25794" lon="0.0849">
        <ele>134.8</ele>
        <time>2023-09-03T11:25:26Z</time>
      </trkpt>
      <trkpt lat="49.25793" lon="0.08479">
        <ele>134.9</ele>
        <time>2023-09-03T11:25:27Z</time>
      </trkpt>
      <trkpt lat="49.25791" lon="0.08468">
        <ele>134.9</ele>
        <time>2023-09-03T11:25:28Z</time>
      </trkpt>
      <trkpt lat="49.2579" lon="0.08458">
        <ele>135</ele>
        <time>2023-09-03T11:25:29Z</time>
      </trkpt>
      <trkpt lat="49.25789" lon="0.08447">
        <ele>135.1</ele>
        <time>2023-09-03T11:25:30Z</time>
      </trkpt>
      <trkpt lat="49.25788" lon="0.08437">
        <ele>135.1</ele>
        <time>2023-09-03T11:25:31Z</time>
      </trkpt>
      <trkpt lat="49.25787" lon="0.08427">
        <ele>135.2</ele>
        <time>2023-09-03T11:25:32Z</time>
      </trkpt>
      <trkpt lat="49.25787" lon="0.08417">
        <ele>135.2</ele>
        <time>2023-09-03T11:25:33Z</time>
      </trkpt>
      <trkpt lat="49.25786" lon="0.08406">
        <ele>135.3</ele>
        <time>2023-09-03T11:25:34Z</time>
      </trkpt>
      <trkpt lat="49.25785" lon="0.08396">
        <ele>135.3</ele>
        <time>2023-09-03T11:25:35Z</time>
      </trkpt>
      <trkpt lat="49.25784" lon="0.08386">
        <ele>135.3</ele>
        <time>2023-09-03T11:25:36Z</time>
      </trkpt>
      <trkpt lat="49.25784" lon="0.08376">
        <ele>135.4</ele>
        <time>2023-09-03T11:25:37Z</time>
      </trkpt>
      <trkpt lat="49.25783" lon="0.08366">
        <ele>135.5</ele>
        <time>2023-09-03T11:25:38Z</time>
      </trkpt>
      <trkpt lat="49.25782" lon="0.08355">
        <ele>135.5</ele>
        <time>2023-09-03T11:25:39Z</time>
      </trkpt>
      <trkpt lat="49.25781" lon="0.08345">
        <ele>135.6</ele>
        <time>2023-09-03T11:25:40Z</time>
      </trkpt>
      <trkpt lat="49.25781" lon="0.08334">
        <ele>135.7</ele>
        <time>2023-09-03T11:25:41Z</time>
      </trkpt>
      <trkpt lat="49.2578" lon="0.08323">
        <ele>135.7</ele>
        <time>2023-09-03T11:25:42Z</time>
      </trkpt>
      <trkpt lat="49.25779" lon="0.08313">
        <ele>135.8</ele>
        <time>2023-09-03T11:25:43Z</time>
      </trkpt>
      <trkpt lat="49.25778" lon="0.08302">
        <ele>135.8</ele>
        <time>2023-09-03T11:25:44Z</time>
      </trkpt>
      <trkpt lat="49.25776" lon="0.08292">
        <ele>135.8</ele>
        <time>2023-09-03T11:25:45Z</time>
      </trkpt>
      <trkpt lat="49.25775" lon="0.08281">
        <ele>135.8</ele>
        <time>2023-09-03T11:25:46Z</time>
      </trkpt>
      <trkpt lat="49.25774" lon="0.08271">
        <ele>135.8</ele>
        <time>2023-09-03T11:25:47Z</time>
      </trkpt>
      <trkpt lat="49.25773" lon="0.0826">
        <ele>135.8</ele>
        <time>2023-09-03T11:25:48Z</time>
      </trkpt>
      <trkpt lat="49.25772" lon="0.08249">
        <ele>135.9</ele>
        <time>2023-09-03T11:25:49Z</time>
      </trkpt>
      <trkpt lat="49.25771" lon="0.08238">
        <ele>136</ele>
        <time>2023-09-03T11:25:50Z</time>
      </trkpt>
      <trkpt lat="49.2577" lon="0.08227">
        <ele>136</ele>
        <time>2023-09-03T11:25:51Z</time>
      </trkpt>
      <trkpt lat="49.25769" lon="0.08216">
        <ele>136</ele>
        <time>2023-09-03T11:25:52Z</time>
      </trkpt>
      <trkpt lat="49.25768" lon="0.08204">
        <ele>136</ele>
        <time>2023-09-03T11:25:53Z</time>
      </trkpt>
      <trkpt lat="49.25767" lon="0.08193">
        <ele>136</ele>
        <time>2023-09-03T11:25:54Z</time>
      </trkpt>
      <trkpt lat="49.25765" lon="0.08181">
        <ele>135.9</ele>
        <time>2023-09-03T11:25:55Z</time>
      </trkpt>
      <trkpt lat="49.25764" lon="0.0817">
        <ele>135.8</ele>
        <time>2023-09-03T11:25:56Z</time>
      </trkpt>
      <trkpt lat="49.25763" lon="0.08158">
        <ele>135.7</ele>
        <time>2023-09-03T11:25:57Z</time>
      </trkpt>
      <trkpt lat="49.25762" lon="0.08147">
        <ele>135.7</ele>
        <time>2023-09-03T11:25:58Z</time>
      </trkpt>
      <trkpt lat="49.25761" lon="0.08135">
        <ele>135.6</ele>
        <time>2023-09-03T11:25:59Z</time>
      </trkpt>
      <trkpt lat="49.2576" lon="0.08124">
        <ele>135.5</ele>
        <time>2023-09-03T11:26:00Z</time>
      </trkpt>
      <trkpt lat="49.25759" lon="0.08112">
        <ele>135.5</ele>
        <time>2023-09-03T11:26:01Z</time>
      </trkpt>
      <trkpt lat="49.25758" lon="0.081">
        <ele>135.4</ele>
        <time>2023-09-03T11:26:02Z</time>
      </trkpt>
      <trkpt lat="49.25757" lon="0.08089">
        <ele>135.3</ele>
        <time>2023-09-03T11:26:03Z</time>
      </trkpt>
      <trkpt lat="49.25755" lon="0.08076">
        <ele>135.2</ele>
        <time>2023-09-03T11:26:04Z</time>
      </trkpt>
      <trkpt lat="49.25754" lon="0.08064">
        <ele>135.1</ele>
        <time>2023-09-03T11:26:05Z</time>
      </trkpt>
      <trkpt lat="49.25753" lon="0.08051">
        <ele>135</ele>
        <time>2023-09-03T11:26:06Z</time>
      </trkpt>
      <trkpt lat="49.25752" lon="0.08039">
        <ele>134.9</ele>
        <time>2023-09-03T11:26:07Z</time>
      </trkpt>
      <trkpt lat="49.25751" lon="0.08027">
        <ele>134.8</ele>
        <time>2023-09-03T11:26:08Z</time>
      </trkpt>
      <trkpt lat="49.2575" lon="0.08015">
        <ele>134.7</ele>
        <time>2023-09-03T11:26:09Z</time>
      </trkpt>
      <trkpt lat="49.25748" lon="0.08003">
        <ele>134.6</ele>
        <time>2023-09-03T11:26:10Z</time>
      </trkpt>
      <trkpt lat="49.25747" lon="0.07991">
        <ele>134.5</ele>
        <time>2023-09-03T11:26:11Z</time>
      </trkpt>
      <trkpt lat="49.25745" lon="0.07979">
        <ele>134.4</ele>
        <time>2023-09-03T11:26:12Z</time>
      </trkpt>
      <trkpt lat="49.25744" lon="0.07968">
        <ele>134.3</ele>
        <time>2023-09-03T11:26:13Z</time>
      </trkpt>
      <trkpt lat="49.25743" lon="0.07955">
        <ele>134.2</ele>
        <time>2023-09-03T11:26:14Z</time>
      </trkpt>
      <trkpt lat="49.25742" lon="0.07943">
        <ele>134.1</ele>
        <time>2023-09-03T11:26:15Z</time>
      </trkpt>
      <trkpt lat="49.25741" lon="0.07931">
        <ele>134</ele>
        <time>2023-09-03T11:26:16Z</time>
      </trkpt>
      <trkpt lat="49.2574" lon="0.07919">
        <ele>133.9</ele>
        <time>2023-09-03T11:26:17Z</time>
      </trkpt>
      <trkpt lat="49.25739" lon="0.07906">
        <ele>133.8</ele>
        <time>2023-09-03T11:26:18Z</time>
      </trkpt>
      <trkpt lat="49.25738" lon="0.07894">
        <ele>133.7</ele>
        <time>2023-09-03T11:26:19Z</time>
      </trkpt>
      <trkpt lat="49.25737" lon="0.07882">
        <ele>133.6</ele>
        <time>2023-09-03T11:26:20Z</time>
      </trkpt>
      <trkpt lat="49.25735" lon="0.07869">
        <ele>133.5</ele>
        <time>2023-09-03T11:26:21Z</time>
      </trkpt>
      <trkpt lat="49.25734" lon="0.07858">
        <ele>133.4</ele>
        <time>2023-09-03T11:26:22Z</time>
      </trkpt>
      <trkpt lat="49.25732" lon="0.07846">
        <ele>133.3</ele>
        <time>2023-09-03T11:26:23Z</time>
      </trkpt>
      <trkpt lat="49.25731" lon="0.07833">
        <ele>133.2</ele>
        <time>2023-09-03T11:26:24Z</time>
      </trkpt>
      <trkpt lat="49.2573" lon="0.0782">
        <ele>133.1</ele>
        <time>2023-09-03T11:26:25Z</time>
      </trkpt>
      <trkpt lat="49.2573" lon="0.07806">
        <ele>133.1</ele>
        <time>2023-09-03T11:26:26Z</time>
      </trkpt>
      <trkpt lat="49.25729" lon="0.07793">
        <ele>133</ele>
        <time>2023-09-03T11:26:27Z</time>
      </trkpt>
      <trkpt lat="49.25727" lon="0.0778">
        <ele>132.8</ele>
        <time>2023-09-03T11:26:28Z</time>
      </trkpt>
      <trkpt lat="49.25726" lon="0.07767">
        <ele>132.7</ele>
        <time>2023-09-03T11:26:29Z</time>
      </trkpt>
      <trkpt lat="49.25725" lon="0.07755">
        <ele>132.6</ele>
        <time>2023-09-03T11:26:30Z</time>
      </trkpt>
      <trkpt lat="49.25724" lon="0.07742">
        <ele>132.5</ele>
        <time>2023-09-03T11:26:31Z</time>
      </trkpt>
      <trkpt lat="49.25722" lon="0.07729">
        <ele>132.3</ele>
        <time>2023-09-03T11:26:32Z</time>
      </trkpt>
      <trkpt lat="49.25721" lon="0.07716">
        <ele>132.2</ele>
        <time>2023-09-03T11:26:33Z</time>
      </trkpt>
      <trkpt lat="49.2572" lon="0.07703">
        <ele>132</ele>
        <time>2023-09-03T11:26:34Z</time>
      </trkpt>
      <trkpt lat="49.25719" lon="0.07691">
        <ele>131.9</ele>
        <time>2023-09-03T11:26:35Z</time>
      </trkpt>
      <trkpt lat="49.25717" lon="0.07678">
        <ele>131.8</ele>
        <time>2023-09-03T11:26:36Z</time>
      </trkpt>
      <trkpt lat="49.25716" lon="0.07667">
        <ele>131.7</ele>
        <time>2023-09-03T11:26:37Z</time>
      </trkpt>
      <trkpt lat="49.25715" lon="0.07655">
        <ele>131.6</ele>
        <time>2023-09-03T11:26:38Z</time>
      </trkpt>
      <trkpt lat="49.25714" lon="0.07643">
        <ele>131.5</ele>
        <time>2023-09-03T11:26:39Z</time>
      </trkpt>
      <trkpt lat="49.25713" lon="0.07632">
        <ele>131.4</ele>
        <time>2023-09-03T11:26:40Z</time>
      </trkpt>
      <trkpt lat="49.25712" lon="0.0762">
        <ele>131.3</ele>
        <time>2023-09-03T11:26:41Z</time>
      </trkpt>
      <trkpt lat="49.25711" lon="0.07609">
        <ele>131.2</ele>
        <time>2023-09-03T11:26:42Z</time>
      </trkpt>
      <trkpt lat="49.2571" lon="0.07598">
        <ele>131.2</ele>
        <time>2023-09-03T11:26:43Z</time>
      </trkpt>
      <trkpt lat="49.25709" lon="0.07587">
        <ele>131.1</ele>
        <time>2023-09-03T11:26:44Z</time>
      </trkpt>
      <trkpt lat="49.25708" lon="0.07576">
        <ele>131.1</ele>
        <time>2023-09-03T11:26:45Z</time>
      </trkpt>
      <trkpt lat="49.25707" lon="0.07565">
        <ele>131</ele>
        <time>2023-09-03T11:26:46Z</time>
      </trkpt>
      <trkpt lat="49.25705" lon="0.07553">
        <ele>131</ele>
        <time>2023-09-03T11:26:47Z</time>
      </trkpt>
      <trkpt lat="49.25704" lon="0.07542">
        <ele>131</ele>
        <time>2023-09-03T11:26:48Z</time>
      </trkpt>
      <trkpt lat="49.25703" lon="0.07531">
        <ele>131.1</ele>
        <time>2023-09-03T11:26:49Z</time>
      </trkpt>
      <trkpt lat="49.25702" lon="0.0752">
        <ele>131.1</ele>
        <time>2023-09-03T11:26:50Z</time>
      </trkpt>
      <trkpt lat="49.25701" lon="0.07509">
        <ele>131.2</ele>
        <time>2023-09-03T11:26:51Z</time>
      </trkpt>
      <trkpt lat="49.25699" lon="0.07499">
        <ele>131.3</ele>
        <time>2023-09-03T11:26:52Z</time>
      </trkpt>
      <trkpt lat="49.25698" lon="0.07489">
        <ele>131.4</ele>
        <time>2023-09-03T11:26:53Z</time>
      </trkpt>
      <trkpt lat="49.25697" lon="0.07479">
        <ele>131.6</ele>
        <time>2023-09-03T11:26:54Z</time>
      </trkpt>
      <trkpt lat="49.25696" lon="0.0747">
        <ele>131.7</ele>
        <time>2023-09-03T11:26:55Z</time>
      </trkpt>
      <trkpt lat="49.25695" lon="0.07461">
        <ele>131.8</ele>
        <time>2023-09-03T11:26:56Z</time>
      </trkpt>
      <trkpt lat="49.25694" lon="0.07452">
        <ele>132</ele>
        <time>2023-09-03T11:26:57Z</time>
      </trkpt>
      <trkpt lat="49.25693" lon="0.07442">
        <ele>132.1</ele>
        <time>2023-09-03T11:26:58Z</time>
      </trkpt>
      <trkpt lat="49.25692" lon="0.07433">
        <ele>132.2</ele>
        <time>2023-09-03T11:26:59Z</time>
      </trkpt>
      <trkpt lat="49.25692" lon="0.07423">
        <ele>132.2</ele>
        <time>2023-09-03T11:27:00Z</time>
      </trkpt>
      <trkpt lat="49.25691" lon="0.07414">
        <ele>132.3</ele>
        <time>2023-09-03T11:27:01Z</time>
      </trkpt>
      <trkpt lat="49.2569" lon="0.07405">
        <ele>132.4</ele>
        <time>2023-09-03T11:27:02Z</time>
      </trkpt>
      <trkpt lat="49.2569" lon="0.07397">
        <ele>132.5</ele>
        <time>2023-09-03T11:27:03Z</time>
      </trkpt>
      <trkpt lat="49.25689" lon="0.07388">
        <ele>132.6</ele>
        <time>2023-09-03T11:27:04Z</time>
      </trkpt>
      <trkpt lat="49.25688" lon="0.0738">
        <ele>132.7</ele>
        <time>2023-09-03T11:27:05Z</time>
      </trkpt>
      <trkpt lat="49.25687" lon="0.07372">
        <ele>132.8</ele>
        <time>2023-09-03T11:27:06Z</time>
      </trkpt>
      <trkpt lat="49.25687" lon="0.07363">
        <ele>133</ele>
        <time>2023-09-03T11:27:07Z</time>
      </trkpt>
      <trkpt lat="49.25686" lon="0.07355">
        <ele>133.1</ele>
        <time>2023-09-03T11:27:08Z</time>
      </trkpt>
      <trkpt lat="49.25685" lon="0.07346">
        <ele>133.2</ele>
        <time>2023-09-03T11:27:09Z</time>
      </trkpt>
      <trkpt lat="49.25684" lon="0.07338">
        <ele>133.3</ele>
        <time>2023-09-03T11:27:10Z</time>
      </trkpt>
      <trkpt lat="49.25683" lon="0.0733">
        <ele>133.3</ele>
        <time>2023-09-03T11:27:11Z</time>
      </trkpt>
      <trkpt lat="49.25682" lon="0.07321">
        <ele>133.4</ele>
        <time>2023-09-03T11:27:12Z</time>
      </trkpt>
      <trkpt lat="49.25681" lon="0.07313">
        <ele>133.5</ele>
        <time>2023-09-03T11:27:13Z</time>
      </trkpt>
      <trkpt lat="49.25681" lon="0.07304">
        <ele>133.6</ele>
        <time>2023-09-03T11:27:14Z</time>
      </trkpt>
      <trkpt lat="49.2568" lon="0.07295">
        <ele>133.7</ele>
        <time>2023-09-03T11:27:15Z</time>
      </trkpt>
      <trkpt lat="49.25679" lon="0.07287">
        <ele>133.7</ele>
        <time>2023-09-03T11:27:16Z</time>
      </trkpt>
      <trkpt lat="49.25677" lon="0.07277">
        <ele>133.7</ele>
        <time>2023-09-03T11:27:17Z</time>
      </trkpt>
      <trkpt lat="49.25676" lon="0.07269">
        <ele>133.7</ele>
        <time>2023-09-03T11:27:18Z</time>
      </trkpt>
      <trkpt lat="49.25675" lon="0.0726">
        <ele>133.7</ele>
        <time>2023-09-03T11:27:19Z</time>
      </trkpt>
      <trkpt lat="49.25675" lon="0.07251">
        <ele>133.8</ele>
        <time>2023-09-03T11:27:20Z</time>
      </trkpt>
      <trkpt lat="49.25674" lon="0.07242">
        <ele>133.8</ele>
        <time>2023-09-03T11:27:21Z</time>
      </trkpt>
      <trkpt lat="49.25674" lon="0.07233">
        <ele>133.9</ele>
        <time>2023-09-03T11:27:22Z</time>
      </trkpt>
      <trkpt lat="49.25673" lon="0.07224">
        <ele>133.9</ele>
        <time>2023-09-03T11:27:23Z</time>
      </trkpt>
      <trkpt lat="49.25672" lon="0.07214">
        <ele>134</ele>
        <time>2023-09-03T11:27:24Z</time>
      </trkpt>
      <trkpt lat="49.25671" lon="0.07205">
        <ele>134</ele>
        <time>2023-09-03T11:27:25Z</time>
      </trkpt>
      <trkpt lat="49.25671" lon="0.07196">
        <ele>134.1</ele>
        <time>2023-09-03T11:27:26Z</time>
      </trkpt>
      <trkpt lat="49.2567" lon="0.07187">
        <ele>134.1</ele>
        <time>2023-09-03T11:27:27Z</time>
      </trkpt>
      <trkpt lat="49.25669" lon="0.07178">
        <ele>134.1</ele>
        <time>2023-09-03T11:27:28Z</time>
      </trkpt>
      <trkpt lat="49.25668" lon="0.07168">
        <ele>134.1</ele>
        <time>2023-09-03T11:27:29Z</time>
      </trkpt>
      <trkpt lat="49.25667" lon="0.07159">
        <ele>134.1</ele>
        <time>2023-09-03T11:27:30Z</time>
      </trkpt>
      <trkpt lat="49.25666" lon="0.0715">
        <ele>134.1</ele>
        <time>2023-09-03T11:27:31Z</time>
      </trkpt>
      <trkpt lat="49.25665" lon="0.07141">
        <ele>134.2</ele>
        <time>2023-09-03T11:27:32Z</time>
      </trkpt>
      <trkpt lat="49.25664" lon="0.07132">
        <ele>134.2</ele>
        <time>2023-09-03T11:27:33Z</time>
      </trkpt>
      <trkpt lat="49.25664" lon="0.07122">
        <ele>134.2</ele>
        <time>2023-09-03T11:27:34Z</time>
      </trkpt>
      <trkpt lat="49.25663" lon="0.07112">
        <ele>134.2</ele>
        <time>2023-09-03T11:27:35Z</time>
      </trkpt>
      <trkpt lat="49.25662" lon="0.07103">
        <ele>134.3</ele>
        <time>2023-09-03T11:27:36Z</time>
      </trkpt>
      <trkpt lat="49.25661" lon="0.07093">
        <ele>134.3</ele>
        <time>2023-09-03T11:27:37Z</time>
      </trkpt>
      <trkpt lat="49.2566" lon="0.07084">
        <ele>134.3</ele>
        <time>2023-09-03T11:27:38Z</time>
      </trkpt>
      <trkpt lat="49.25659" lon="0.07073">
        <ele>134.3</ele>
        <time>2023-09-03T11:27:39Z</time>
      </trkpt>
      <trkpt lat="49.25658" lon="0.07064">
        <ele>134.4</ele>
        <time>2023-09-03T11:27:40Z</time>
      </trkpt>
      <trkpt lat="49.25657" lon="0.07054">
        <ele>134.5</ele>
        <time>2023-09-03T11:27:41Z</time>
      </trkpt>
      <trkpt lat="49.25656" lon="0.07044">
        <ele>134.6</ele>
        <time>2023-09-03T11:27:42Z</time>
      </trkpt>
      <trkpt lat="49.25655" lon="0.07035">
        <ele>134.7</ele>
        <time>2023-09-03T11:27:43Z</time>
      </trkpt>
      <trkpt lat="49.25654" lon="0.07025">
        <ele>134.8</ele>
        <time>2023-09-03T11:27:44Z</time>
      </trkpt>
      <trkpt lat="49.25653" lon="0.07016">
        <ele>134.9</ele>
        <time>2023-09-03T11:27:45Z</time>
      </trkpt>
      <trkpt lat="49.25653" lon="0.07007">
        <ele>135</ele>
        <time>2023-09-03T11:27:46Z</time>
      </trkpt>
      <trkpt lat="49.25652" lon="0.06998">
        <ele>135.1</ele>
        <time>2023-09-03T11:27:47Z</time>
      </trkpt>
      <trkpt lat="49.25651" lon="0.06988">
        <ele>135.3</ele>
        <time>2023-09-03T11:27:48Z</time>
      </trkpt>
      <trkpt lat="49.2565" lon="0.06979">
        <ele>135.4</ele>
        <time>2023-09-03T11:27:49Z</time>
      </trkpt>
      <trkpt lat="49.2565" lon="0.0697">
        <ele>135.5</ele>
        <time>2023-09-03T11:27:50Z</time>
      </trkpt>
      <trkpt lat="49.25649" lon="0.06961">
        <ele>135.6</ele>
        <time>2023-09-03T11:27:51Z</time>
      </trkpt>
      <trkpt lat="49.25648" lon="0.06952">
        <ele>135.7</ele>
        <time>2023-09-03T11:27:52Z</time>
      </trkpt>
      <trkpt lat="49.25647" lon="0.06943">
        <ele>135.8</ele>
        <time>2023-09-03T11:27:53Z</time>
      </trkpt>
      <trkpt lat="49.25646" lon="0.06934">
        <ele>135.9</ele>
        <time>2023-09-03T11:27:54Z</time>
      </trkpt>
      <trkpt lat="49.25645" lon="0.06925">
        <ele>136.1</ele>
        <time>2023-09-03T11:27:55Z</time>
      </trkpt>
      <trkpt lat="49.25644" lon="0.06916">
        <ele>136.2</ele>
        <time>2023-09-03T11:27:56Z</time>
      </trkpt>
      <trkpt lat="49.25643" lon="0.06907">
        <ele>136.4</ele>
        <time>2023-09-03T11:27:57Z</time>
      </trkpt>
      <trkpt lat="49.25642" lon="0.06897">
        <ele>136.5</ele>
        <time>2023-09-03T11:27:58Z</time>
      </trkpt>
      <trkpt lat="49.25641" lon="0.06889">
        <ele>136.6</ele>
        <time>2023-09-03T11:27:59Z</time>
      </trkpt>
      <trkpt lat="49.2564" lon="0.0688">
        <ele>136.7</ele>
        <time>2023-09-03T11:28:00Z</time>
      </trkpt>
      <trkpt lat="49.2564" lon="0.06871">
        <ele>136.9</ele>
        <time>2023-09-03T11:28:01Z</time>
      </trkpt>
      <trkpt lat="49.25639" lon="0.06862">
        <ele>137</ele>
        <time>2023-09-03T11:28:02Z</time>
      </trkpt>
      <trkpt lat="49.25638" lon="0.06853">
        <ele>137.1</ele>
        <time>2023-09-03T11:28:03Z</time>
      </trkpt>
      <trkpt lat="49.25637" lon="0.06844">
        <ele>137.2</ele>
        <time>2023-09-03T11:28:04Z</time>
      </trkpt>
      <trkpt lat="49.25636" lon="0.06835">
        <ele>137.3</ele>
        <time>2023-09-03T11:28:05Z</time>
      </trkpt>
      <trkpt lat="49.25635" lon="0.06826">
        <ele>137.5</ele>
        <time>2023-09-03T11:28:06Z</time>
      </trkpt>
      <trkpt lat="49.25634" lon="0.06818">
        <ele>137.6</ele>
        <time>2023-09-03T11:28:07Z</time>
      </trkpt>
      <trkpt lat="49.25633" lon="0.06809">
        <ele>137.7</ele>
        <time>2023-09-03T11:28:08Z</time>
      </trkpt>
      <trkpt lat="49.25633" lon="0.06801">
        <ele>137.8</ele>
        <time>2023-09-03T11:28:09Z</time>
      </trkpt>
      <trkpt lat="49.25632" lon="0.06792">
        <ele>137.9</ele>
        <time>2023-09-03T11:28:10Z</time>
      </trkpt>
      <trkpt lat="49.25631" lon="0.06784">
        <ele>138</ele>
        <time>2023-09-03T11:28:11Z</time>
      </trkpt>
      <trkpt lat="49.25631" lon="0.06775">
        <ele>138.1</ele>
        <time>2023-09-03T11:28:12Z</time>
      </trkpt>
      <trkpt lat="49.2563" lon="0.06767">
        <ele>138.2</ele>
        <time>2023-09-03T11:28:13Z</time>
      </trkpt>
      <trkpt lat="49.25629" lon="0.06758">
        <ele>138.4</ele>
        <time>2023-09-03T11:28:14Z</time>
      </trkpt>
      <trkpt lat="49.25628" lon="0.0675">
        <ele>138.5</ele>
        <time>2023-09-03T11:28:15Z</time>
      </trkpt>
      <trkpt lat="49.25628" lon="0.06741">
        <ele>138.6</ele>
        <time>2023-09-03T11:28:16Z</time>
      </trkpt>
      <trkpt lat="49.25627" lon="0.06733">
        <ele>138.7</ele>
        <time>2023-09-03T11:28:17Z</time>
      </trkpt>
      <trkpt lat="49.25626" lon="0.06724">
        <ele>138.8</ele>
        <time>2023-09-03T11:28:18Z</time>
      </trkpt>
      <trkpt lat="49.25625" lon="0.06716">
        <ele>138.9</ele>
        <time>2023-09-03T11:28:19Z</time>
      </trkpt>
      <trkpt lat="49.25624" lon="0.06707">
        <ele>139</ele>
        <time>2023-09-03T11:28:20Z</time>
      </trkpt>
      <trkpt lat="49.25623" lon="0.06698">
        <ele>139.2</ele>
        <time>2023-09-03T11:28:21Z</time>
      </trkpt>
      <trkpt lat="49.25622" lon="0.0669">
        <ele>139.3</ele>
        <time>2023-09-03T11:28:22Z</time>
      </trkpt>
      <trkpt lat="49.25621" lon="0.06681">
        <ele>139.4</ele>
        <time>2023-09-03T11:28:23Z</time>
      </trkpt>
      <trkpt lat="49.2562" lon="0.06672">
        <ele>139.6</ele>
        <time>2023-09-03T11:28:24Z</time>
      </trkpt>
      <trkpt lat="49.2562" lon="0.06663">
        <ele>139.7</ele>
        <time>2023-09-03T11:28:25Z</time>
      </trkpt>
      <trkpt lat="49.25619" lon="0.06654">
        <ele>139.9</ele>
        <time>2023-09-03T11:28:26Z</time>
      </trkpt>
      <trkpt lat="49.25618" lon="0.06646">
        <ele>140</ele>
        <time>2023-09-03T11:28:27Z</time>
      </trkpt>
      <trkpt lat="49.25617" lon="0.06637">
        <ele>140.1</ele>
        <time>2023-09-03T11:28:28Z</time>
      </trkpt>
      <trkpt lat="49.25616" lon="0.06628">
        <ele>140.2</ele>
        <time>2023-09-03T11:28:29Z</time>
      </trkpt>
      <trkpt lat="49.25616" lon="0.06619">
        <ele>140.3</ele>
        <time>2023-09-03T11:28:30Z</time>
      </trkpt>
      <trkpt lat="49.25615" lon="0.06611">
        <ele>140.4</ele>
        <time>2023-09-03T11:28:31Z</time>
      </trkpt>
      <trkpt lat="49.25614" lon="0.06603">
        <ele>140.5</ele>
        <time>2023-09-03T11:28:32Z</time>
      </trkpt>
      <trkpt lat="49.25613" lon="0.06594">
        <ele>140.7</ele>
        <time>2023-09-03T11:28:33Z</time>
      </trkpt>
      <trkpt lat="49.25612" lon="0.06586">
        <ele>140.8</ele>
        <time>2023-09-03T11:28:34Z</time>
      </trkpt>
      <trkpt lat="49.25611" lon="0.06577">
        <ele>140.9</ele>
        <time>2023-09-03T11:28:35Z</time>
      </trkpt>
      <trkpt lat="49.25611" lon="0.06568">
        <ele>141</ele>
        <time>2023-09-03T11:28:36Z</time>
      </trkpt>
      <trkpt lat="49.2561" lon="0.0656">
        <ele>141.1</ele>
        <time>2023-09-03T11:28:37Z</time>
      </trkpt>
      <trkpt lat="49.25609" lon="0.06551">
        <ele>141.2</ele>
        <time>2023-09-03T11:28:38Z</time>
      </trkpt>
      <trkpt lat="49.25608" lon="0.06543">
        <ele>141.4</ele>
        <time>2023-09-03T11:28:39Z</time>
      </trkpt>
      <trkpt lat="49.25607" lon="0.06534">
        <ele>141.5</ele>
        <time>2023-09-03T11:28:40Z</time>
      </trkpt>
      <trkpt lat="49.25606" lon="0.06526">
        <ele>141.6</ele>
        <time>2023-09-03T11:28:41Z</time>
      </trkpt>
      <trkpt lat="49.25606" lon="0.06517">
        <ele>141.7</ele>
        <time>2023-09-03T11:28:42Z</time>
      </trkpt>
      <trkpt lat="49.25605" lon="0.06508">
        <ele>141.8</ele>
        <time>2023-09-03T11:28:43Z</time>
      </trkpt>
      <trkpt lat="49.25604" lon="0.065">
        <ele>141.9</ele>
        <time>2023-09-03T11:28:44Z</time>
      </trkpt>
      <trkpt lat="49.25603" lon="0.06491">
        <ele>142</ele>
        <time>2023-09-03T11:28:45Z</time>
      </trkpt>
      <trkpt lat="49.25602" lon="0.06482">
        <ele>142.1</ele>
        <time>2023-09-03T11:28:46Z</time>
      </trkpt>
      <trkpt lat="49.25602" lon="0.06473">
        <ele>142.3</ele>
        <time>2023-09-03T11:28:47Z</time>
      </trkpt>
      <trkpt lat="49.25601" lon="0.06465">
        <ele>142.4</ele>
        <time>2023-09-03T11:28:48Z</time>
      </trkpt>
      <trkpt lat="49.256" lon="0.06456">
        <ele>142.5</ele>
        <time>2023-09-03T11:28:49Z</time>
      </trkpt>
      <trkpt lat="49.25599" lon="0.06447">
        <ele>142.6</ele>
        <time>2023-09-03T11:28:50Z</time>
      </trkpt>
      <trkpt lat="49.25598" lon="0.06439">
        <ele>142.6</ele>
        <time>2023-09-03T11:28:51Z</time>
      </trkpt>
      <trkpt lat="49.25597" lon="0.0643">
        <ele>142.7</ele>
        <time>2023-09-03T11:28:52Z</time>
      </trkpt>
      <trkpt lat="49.25596" lon="0.06422">
        <ele>142.7</ele>
        <time>2023-09-03T11:28:53Z</time>
      </trkpt>
      <trkpt lat="49.25595" lon="0.06413">
        <ele>142.7</ele>
        <time>2023-09-03T11:28:54Z</time>
      </trkpt>
      <trkpt lat="49.25594" lon="0.06405">
        <ele>142.8</ele>
        <time>2023-09-03T11:28:55Z</time>
      </trkpt>
      <trkpt lat="49.25594" lon="0.06395">
        <ele>142.8</ele>
        <time>2023-09-03T11:28:56Z</time>
      </trkpt>
      <trkpt lat="49.25593" lon="0.06386">
        <ele>142.8</ele>
        <time>2023-09-03T11:28:57Z</time>
      </trkpt>
      <trkpt lat="49.25591" lon="0.06377">
        <ele>142.9</ele>
        <time>2023-09-03T11:28:58Z</time>
      </trkpt>
      <trkpt lat="49.25591" lon="0.06369">
        <ele>142.9</ele>
        <time>2023-09-03T11:28:59Z</time>
      </trkpt>
      <trkpt lat="49.2559" lon="0.06359">
        <ele>143</ele>
        <time>2023-09-03T11:29:00Z</time>
      </trkpt>
      <trkpt lat="49.25589" lon="0.0635">
        <ele>143</ele>
        <time>2023-09-03T11:29:01Z</time>
      </trkpt>
      <trkpt lat="49.25589" lon="0.06341">
        <ele>143</ele>
        <time>2023-09-03T11:29:02Z</time>
      </trkpt>
      <trkpt lat="49.25588" lon="0.06331">
        <ele>143</ele>
        <time>2023-09-03T11:29:03Z</time>
      </trkpt>
      <trkpt lat="49.25587" lon="0.06322">
        <ele>143</ele>
        <time>2023-09-03T11:29:04Z</time>
      </trkpt>
      <trkpt lat="49.25586" lon="0.06312">
        <ele>143</ele>
        <time>2023-09-03T11:29:05Z</time>
      </trkpt>
      <trkpt lat="49.25585" lon="0.06302">
        <ele>143</ele>
        <time>2023-09-03T11:29:06Z</time>
      </trkpt>
      <trkpt lat="49.25584" lon="0.06292">
        <ele>142.9</ele>
        <time>2023-09-03T11:29:07Z</time>
      </trkpt>
      <trkpt lat="49.25583" lon="0.06282">
        <ele>142.9</ele>
        <time>2023-09-03T11:29:08Z</time>
      </trkpt>
      <trkpt lat="49.25582" lon="0.06271">
        <ele>142.8</ele>
        <time>2023-09-03T11:29:09Z</time>
      </trkpt>
      <trkpt lat="49.25581" lon="0.06261">
        <ele>142.8</ele>
        <time>2023-09-03T11:29:10Z</time>
      </trkpt>
      <trkpt lat="49.2558" lon="0.06251">
        <ele>142.8</ele>
        <time>2023-09-03T11:29:11Z</time>
      </trkpt>
      <trkpt lat="49.25579" lon="0.06241">
        <ele>142.8</ele>
        <time>2023-09-03T11:29:12Z</time>
      </trkpt>
      <trkpt lat="49.25578" lon="0.06231">
        <ele>142.8</ele>
        <time>2023-09-03T11:29:13Z</time>
      </trkpt>
      <trkpt lat="49.25577" lon="0.06221">
        <ele>142.8</ele>
        <time>2023-09-03T11:29:14Z</time>
      </trkpt>
      <trkpt lat="49.25575" lon="0.06211">
        <ele>142.8</ele>
        <time>2023-09-03T11:29:15Z</time>
      </trkpt>
      <trkpt lat="49.25574" lon="0.06201">
        <ele>142.8</ele>
        <time>2023-09-03T11:29:16Z</time>
      </trkpt>
      <trkpt lat="49.25573" lon="0.06191">
        <ele>142.8</ele>
        <time>2023-09-03T11:29:17Z</time>
      </trkpt>
      <trkpt lat="49.25572" lon="0.06181">
        <ele>142.7</ele>
        <time>2023-09-03T11:29:18Z</time>
      </trkpt>
      <trkpt lat="49.25571" lon="0.0617">
        <ele>142.7</ele>
        <time>2023-09-03T11:29:19Z</time>
      </trkpt>
      <trkpt lat="49.2557" lon="0.0616">
        <ele>142.7</ele>
        <time>2023-09-03T11:29:20Z</time>
      </trkpt>
      <trkpt lat="49.25569" lon="0.06149">
        <ele>142.7</ele>
        <time>2023-09-03T11:29:21Z</time>
      </trkpt>
      <trkpt lat="49.25568" lon="0.06138">
        <ele>142.6</ele>
        <time>2023-09-03T11:29:22Z</time>
      </trkpt>
      <trkpt lat="49.25567" lon="0.06127">
        <ele>142.6</ele>
        <time>2023-09-03T11:29:23Z</time>
      </trkpt>
      <trkpt lat="49.25566" lon="0.06116">
        <ele>142.6</ele>
        <time>2023-09-03T11:29:24Z</time>
      </trkpt>
      <trkpt lat="49.25565" lon="0.06105">
        <ele>142.6</ele>
        <time>2023-09-03T11:29:25Z</time>
      </trkpt>
      <trkpt lat="49.25564" lon="0.06094">
        <ele>142.6</ele>
        <time>2023-09-03T11:29:26Z</time>
      </trkpt>
      <trkpt lat="49.25563" lon="0.06083">
        <ele>142.5</ele>
        <time>2023-09-03T11:29:27Z</time>
      </trkpt>
      <trkpt lat="49.25562" lon="0.06072">
        <ele>142.5</ele>
        <time>2023-09-03T11:29:28Z</time>
      </trkpt>
      <trkpt lat="49.2556" lon="0.0606">
        <ele>142.5</ele>
        <time>2023-09-03T11:29:29Z</time>
      </trkpt>
      <trkpt lat="49.25559" lon="0.06049">
        <ele>142.5</ele>
        <time>2023-09-03T11:29:30Z</time>
      </trkpt>
      <trkpt lat="49.25558" lon="0.06038">
        <ele>142.5</ele>
        <time>2023-09-03T11:29:31Z</time>
      </trkpt>
      <trkpt lat="49.25558" lon="0.06026">
        <ele>142.5</ele>
        <time>2023-09-03T11:29:32Z</time>
      </trkpt>
      <trkpt lat="49.25556" lon="0.06015">
        <ele>142.5</ele>
        <time>2023-09-03T11:29:33Z</time>
      </trkpt>
      <trkpt lat="49.25555" lon="0.06004">
        <ele>142.5</ele>
        <time>2023-09-03T11:29:34Z</time>
      </trkpt>
      <trkpt lat="49.25554" lon="0.05993">
        <ele>142.4</ele>
        <time>2023-09-03T11:29:35Z</time>
      </trkpt>
      <trkpt lat="49.25553" lon="0.05982">
        <ele>142.4</ele>
        <time>2023-09-03T11:29:36Z</time>
      </trkpt>
      <trkpt lat="49.25552" lon="0.0597">
        <ele>142.4</ele>
        <time>2023-09-03T11:29:37Z</time>
      </trkpt>
      <trkpt lat="49.25551" lon="0.05959">
        <ele>142.4</ele>
        <time>2023-09-03T11:29:38Z</time>
      </trkpt>
      <trkpt lat="49.2555" lon="0.05947">
        <ele>142.4</ele>
        <time>2023-09-03T11:29:39Z</time>
      </trkpt>
      <trkpt lat="49.25549" lon="0.05936">
        <ele>142.3</ele>
        <time>2023-09-03T11:29:40Z</time>
      </trkpt>
      <trkpt lat="49.25548" lon="0.05924">
        <ele>142.3</ele>
        <time>2023-09-03T11:29:41Z</time>
      </trkpt>
      <trkpt lat="49.25547" lon="0.05913">
        <ele>142.2</ele>
        <time>2023-09-03T11:29:42Z</time>
      </trkpt>
      <trkpt lat="49.25546" lon="0.05902">
        <ele>142.2</ele>
        <time>2023-09-03T11:29:43Z</time>
      </trkpt>
      <trkpt lat="49.25545" lon="0.0589">
        <ele>142.2</ele>
        <time>2023-09-03T11:29:44Z</time>
      </trkpt>
      <trkpt lat="49.25544" lon="0.05879">
        <ele>142.2</ele>
        <time>2023-09-03T11:29:45Z</time>
      </trkpt>
      <trkpt lat="49.25543" lon="0.05868">
        <ele>142.2</ele>
        <time>2023-09-03T11:29:46Z</time>
      </trkpt>
      <trkpt lat="49.25542" lon="0.05855">
        <ele>142.1</ele>
        <time>2023-09-03T11:29:47Z</time>
      </trkpt>
      <trkpt lat="49.25541" lon="0.05844">
        <ele>142.1</ele>
        <time>2023-09-03T11:29:48Z</time>
      </trkpt>
      <trkpt lat="49.2554" lon="0.05833">
        <ele>142</ele>
        <time>2023-09-03T11:29:49Z</time>
      </trkpt>
      <trkpt lat="49.25538" lon="0.05821">
        <ele>142</ele>
        <time>2023-09-03T11:29:50Z</time>
      </trkpt>
      <trkpt lat="49.25537" lon="0.0581">
        <ele>141.9</ele>
        <time>2023-09-03T11:29:51Z</time>
      </trkpt>
      <trkpt lat="49.25536" lon="0.05799">
        <ele>141.8</ele>
        <time>2023-09-03T11:29:52Z</time>
      </trkpt>
      <trkpt lat="49.25535" lon="0.05788">
        <ele>141.8</ele>
        <time>2023-09-03T11:29:53Z</time>
      </trkpt>
      <trkpt lat="49.25534" lon="0.05777">
        <ele>141.7</ele>
        <time>2023-09-03T11:29:54Z</time>
      </trkpt>
      <trkpt lat="49.25533" lon="0.05766">
        <ele>141.6</ele>
        <time>2023-09-03T11:29:55Z</time>
      </trkpt>
      <trkpt lat="49.25532" lon="0.05754">
        <ele>141.6</ele>
        <time>2023-09-03T11:29:56Z</time>
      </trkpt>
      <trkpt lat="49.25531" lon="0.05743">
        <ele>141.5</ele>
        <time>2023-09-03T11:29:57Z</time>
      </trkpt>
      <trkpt lat="49.2553" lon="0.05732">
        <ele>141.4</ele>
        <time>2023-09-03T11:29:58Z</time>
      </trkpt>
      <trkpt lat="49.25529" lon="0.05721">
        <ele>141.3</ele>
        <time>2023-09-03T11:29:59Z</time>
      </trkpt>
      <trkpt lat="49.25528" lon="0.0571">
        <ele>141.2</ele>
        <time>2023-09-03T11:30:00Z</time>
      </trkpt>
      <trkpt lat="49.25526" lon="0.05699">
        <ele>141.2</ele>
        <time>2023-09-03T11:30:01Z</time>
      </trkpt>
      <trkpt lat="49.25525" lon="0.05688">
        <ele>141.1</ele>
        <time>2023-09-03T11:30:02Z</time>
      </trkpt>
      <trkpt lat="49.25524" lon="0.05677">
        <ele>141.1</ele>
        <time>2023-09-03T11:30:03Z</time>
      </trkpt>
      <trkpt lat="49.25523" lon="0.05667">
        <ele>141</ele>
        <time>2023-09-03T11:30:04Z</time>
      </trkpt>
      <trkpt lat="49.25522" lon="0.05657">
        <ele>141</ele>
        <time>2023-09-03T11:30:05Z</time>
      </trkpt>
      <trkpt lat="49.2552" lon="0.05648">
        <ele>140.9</ele>
        <time>2023-09-03T11:30:06Z</time>
      </trkpt>
      <trkpt lat="49.25519" lon="0.05639">
        <ele>140.9</ele>
        <time>2023-09-03T11:30:07Z</time>
      </trkpt>
      <trkpt lat="49.25518" lon="0.05629">
        <ele>140.8</ele>
        <time>2023-09-03T11:30:08Z</time>
      </trkpt>
      <trkpt lat="49.25517" lon="0.05619">
        <ele>140.8</ele>
        <time>2023-09-03T11:30:09Z</time>
      </trkpt>
      <trkpt lat="49.25517" lon="0.0561">
        <ele>140.7</ele>
        <time>2023-09-03T11:30:10Z</time>
      </trkpt>
      <trkpt lat="49.25518" lon="0.05601">
        <ele>140.5</ele>
        <time>2023-09-03T11:30:11Z</time>
      </trkpt>
      <trkpt lat="49.2552" lon="0.05593">
        <ele>140.2</ele>
        <time>2023-09-03T11:30:12Z</time>
      </trkpt>
      <trkpt lat="49.25523" lon="0.05586">
        <ele>140.2</ele>
        <time>2023-09-03T11:30:13Z</time>
      </trkpt>
      <trkpt lat="49.25527" lon="0.05579">
        <ele>140.2</ele>
        <time>2023-09-03T11:30:14Z</time>
      </trkpt>
      <trkpt lat="49.25531" lon="0.05572">
        <ele>140.1</ele>
        <time>2023-09-03T11:30:15Z</time>
      </trkpt>
      <trkpt lat="49.25536" lon="0.05566">
        <ele>140.1</ele>
        <time>2023-09-03T11:30:16Z</time>
      </trkpt>
      <trkpt lat="49.25541" lon="0.0556">
        <ele>140</ele>
        <time>2023-09-03T11:30:17Z</time>
      </trkpt>
      <trkpt lat="49.25545" lon="0.05553">
        <ele>139.9</ele>
        <time>2023-09-03T11:30:18Z</time>
      </trkpt>
      <trkpt lat="49.25549" lon="0.05547">
        <ele>139.9</ele>
        <time>2023-09-03T11:30:19Z</time>
      </trkpt>
      <trkpt lat="49.25553" lon="0.0554">
        <ele>139.8</ele>
        <time>2023-09-03T11:30:20Z</time>
      </trkpt>
      <trkpt lat="49.25557" lon="0.05532">
        <ele>139.8</ele>
        <time>2023-09-03T11:30:21Z</time>
      </trkpt>
      <trkpt lat="49.25561" lon="0.05525">
        <ele>139.8</ele>
        <time>2023-09-03T11:30:22Z</time>
      </trkpt>
      <trkpt lat="49.25565" lon="0.05517">
        <ele>139.8</ele>
        <time>2023-09-03T11:30:23Z</time>
      </trkpt>
      <trkpt lat="49.2557" lon="0.0551">
        <ele>139.8</ele>
        <time>2023-09-03T11:30:24Z</time>
      </trkpt>
      <trkpt lat="49.25574" lon="0.05504">
        <ele>139.7</ele>
        <time>2023-09-03T11:30:25Z</time>
      </trkpt>
      <trkpt lat="49.25578" lon="0.05497">
        <ele>139.7</ele>
        <time>2023-09-03T11:30:26Z</time>
      </trkpt>
      <trkpt lat="49.25583" lon="0.05491">
        <ele>139.7</ele>
        <time>2023-09-03T11:30:27Z</time>
      </trkpt>
      <trkpt lat="49.25588" lon="0.05485">
        <ele>139.7</ele>
        <time>2023-09-03T11:30:28Z</time>
      </trkpt>
      <trkpt lat="49.25592" lon="0.0548">
        <ele>139.7</ele>
        <time>2023-09-03T11:30:29Z</time>
      </trkpt>
      <trkpt lat="49.25597" lon="0.05475">
        <ele>139.7</ele>
        <time>2023-09-03T11:30:30Z</time>
      </trkpt>
      <trkpt lat="49.25601" lon="0.0547">
        <ele>139.6</ele>
        <time>2023-09-03T11:30:31Z</time>
      </trkpt>
      <trkpt lat="49.25605" lon="0.05466">
        <ele>139.6</ele>
        <time>2023-09-03T11:30:32Z</time>
      </trkpt>
      <trkpt lat="49.25609" lon="0.05461">
        <ele>139.6</ele>
        <time>2023-09-03T11:30:33Z</time>
      </trkpt>
      <trkpt lat="49.25614" lon="0.05457">
        <ele>139.6</ele>
        <time>2023-09-03T11:30:34Z</time>
      </trkpt>
      <trkpt lat="49.25619" lon="0.05452">
        <ele>139.6</ele>
        <time>2023-09-03T11:30:35Z</time>
      </trkpt>
      <trkpt lat="49.25624" lon="0.05448">
        <ele>139.5</ele>
        <time>2023-09-03T11:30:36Z</time>
      </trkpt>
      <trkpt lat="49.25629" lon="0.05443">
        <ele>139.5</ele>
        <time>2023-09-03T11:30:37Z</time>
      </trkpt>
      <trkpt lat="49.25634" lon="0.05439">
        <ele>139.5</ele>
        <time>2023-09-03T11:30:38Z</time>
      </trkpt>
      <trkpt lat="49.25639" lon="0.05434">
        <ele>139.5</ele>
        <time>2023-09-03T11:30:39Z</time>
      </trkpt>
      <trkpt lat="49.25644" lon="0.0543">
        <ele>139.5</ele>
        <time>2023-09-03T11:30:40Z</time>
      </trkpt>
      <trkpt lat="49.25648" lon="0.05425">
        <ele>139.5</ele>
        <time>2023-09-03T11:30:41Z</time>
      </trkpt>
      <trkpt lat="49.25653" lon="0.05421">
        <ele>139.5</ele>
        <time>2023-09-03T11:30:42Z</time>
      </trkpt>
      <trkpt lat="49.25658" lon="0.05415">
        <ele>139.5</ele>
        <time>2023-09-03T11:30:43Z</time>
      </trkpt>
      <trkpt lat="49.25663" lon="0.05411">
        <ele>139.5</ele>
        <time>2023-09-03T11:30:44Z</time>
      </trkpt>
      <trkpt lat="49.25668" lon="0.05406">
        <ele>139.5</ele>
        <time>2023-09-03T11:30:45Z</time>
      </trkpt>
      <trkpt lat="49.25673" lon="0.05401">
        <ele>139.5</ele>
        <time>2023-09-03T11:30:46Z</time>
      </trkpt>
      <trkpt lat="49.25678" lon="0.05396">
        <ele>139.6</ele>
        <time>2023-09-03T11:30:47Z</time>
      </trkpt>
      <trkpt lat="49.25683" lon="0.05391">
        <ele>139.6</ele>
        <time>2023-09-03T11:30:48Z</time>
      </trkpt>
      <trkpt lat="49.25688" lon="0.05386">
        <ele>139.6</ele>
        <time>2023-09-03T11:30:49Z</time>
      </trkpt>
      <trkpt lat="49.25692" lon="0.0538">
        <ele>139.7</ele>
        <time>2023-09-03T11:30:50Z</time>
      </trkpt>
      <trkpt lat="49.25697" lon="0.05375">
        <ele>139.7</ele>
        <time>2023-09-03T11:30:51Z</time>
      </trkpt>
      <trkpt lat="49.25702" lon="0.05369">
        <ele>139.7</ele>
        <time>2023-09-03T11:30:52Z</time>
      </trkpt>
      <trkpt lat="49.25708" lon="0.05363">
        <ele>139.7</ele>
        <time>2023-09-03T11:30:53Z</time>
      </trkpt>
      <trkpt lat="49.25713" lon="0.05357">
        <ele>139.7</ele>
        <time>2023-09-03T11:30:54Z</time>
      </trkpt>
      <trkpt lat="49.25718" lon="0.05351">
        <ele>139.7</ele>
        <time>2023-09-03T11:30:55Z</time>
      </trkpt>
      <trkpt lat="49.25723" lon="0.05346">
        <ele>139.7</ele>
        <time>2023-09-03T11:30:56Z</time>
      </trkpt>
      <trkpt lat="49.25728" lon="0.0534">
        <ele>139.7</ele>
        <time>2023-09-03T11:30:57Z</time>
      </trkpt>
      <trkpt lat="49.25733" lon="0.05335">
        <ele>139.7</ele>
        <time>2023-09-03T11:30:58Z</time>
      </trkpt>
      <trkpt lat="49.25738" lon="0.05329">
        <ele>139.7</ele>
        <time>2023-09-03T11:30:59Z</time>
      </trkpt>
      <trkpt lat="49.25743" lon="0.05324">
        <ele>139.7</ele>
        <time>2023-09-03T11:31:00Z</time>
      </trkpt>
      <trkpt lat="49.25748" lon="0.05319">
        <ele>139.7</ele>
        <time>2023-09-03T11:31:01Z</time>
      </trkpt>
      <trkpt lat="49.25754" lon="0.05313">
        <ele>139.8</ele>
        <time>2023-09-03T11:31:02Z</time>
      </trkpt>
      <trkpt lat="49.25759" lon="0.05307">
        <ele>139.8</ele>
        <time>2023-09-03T11:31:03Z</time>
      </trkpt>
      <trkpt lat="49.25765" lon="0.05301">
        <ele>139.8</ele>
        <time>2023-09-03T11:31:04Z</time>
      </trkpt>
      <trkpt lat="49.2577" lon="0.05296">
        <ele>139.8</ele>
        <time>2023-09-03T11:31:05Z</time>
      </trkpt>
      <trkpt lat="49.25776" lon="0.05289">
        <ele>139.8</ele>
        <time>2023-09-03T11:31:06Z</time>
      </trkpt>
      <trkpt lat="49.25781" lon="0.05283">
        <ele>139.8</ele>
        <time>2023-09-03T11:31:07Z</time>
      </trkpt>
      <trkpt lat="49.25787" lon="0.05277">
        <ele>139.8</ele>
        <time>2023-09-03T11:31:08Z</time>
      </trkpt>
      <trkpt lat="49.25792" lon="0.05271">
        <ele>139.8</ele>
        <time>2023-09-03T11:31:09Z</time>
      </trkpt>
      <trkpt lat="49.25797" lon="0.05265">
        <ele>139.7</ele>
        <time>2023-09-03T11:31:10Z</time>
      </trkpt>
      <trkpt lat="49.25803" lon="0.0526">
        <ele>139.7</ele>
        <time>2023-09-03T11:31:11Z</time>
      </trkpt>
      <trkpt lat="49.25808" lon="0.05254">
        <ele>139.8</ele>
        <time>2023-09-03T11:31:12Z</time>
      </trkpt>
      <trkpt lat="49.25814" lon="0.05248">
        <ele>139.8</ele>
        <time>2023-09-03T11:31:13Z</time>
      </trkpt>
      <trkpt lat="49.25819" lon="0.05243">
        <ele>139.8</ele>
        <time>2023-09-03T11:31:14Z</time>
      </trkpt>
      <trkpt lat="49.25823" lon="0.05238">
        <ele>139.8</ele>
        <time>2023-09-03T11:31:15Z</time>
      </trkpt>
      <trkpt lat="49.25828" lon="0.05233">
        <ele>139.8</ele>
        <time>2023-09-03T11:31:16Z</time>
      </trkpt>
      <trkpt lat="49.25833" lon="0.05228">
        <ele>139.9</ele>
        <time>2023-09-03T11:31:17Z</time>
      </trkpt>
      <trkpt lat="49.25838" lon="0.05224">
        <ele>139.9</ele>
        <time>2023-09-03T11:31:18Z</time>
      </trkpt>
      <trkpt lat="49.25843" lon="0.05218">
        <ele>139.9</ele>
        <time>2023-09-03T11:31:19Z</time>
      </trkpt>
      <trkpt lat="49.25848" lon="0.05213">
        <ele>139.9</ele>
        <time>2023-09-03T11:31:20Z</time>
      </trkpt>
      <trkpt lat="49.25853" lon="0.05207">
        <ele>139.8</ele>
        <time>2023-09-03T11:31:21Z</time>
      </trkpt>
      <trkpt lat="49.25859" lon="0.05201">
        <ele>139.8</ele>
        <time>2023-09-03T11:31:22Z</time>
      </trkpt>
      <trkpt lat="49.25864" lon="0.05195">
        <ele>139.8</ele>
        <time>2023-09-03T11:31:23Z</time>
      </trkpt>
      <trkpt lat="49.2587" lon="0.05189">
        <ele>139.8</ele>
        <time>2023-09-03T11:31:24Z</time>
      </trkpt>
      <trkpt lat="49.25875" lon="0.05183">
        <ele>139.8</ele>
        <time>2023-09-03T11:31:25Z</time>
      </trkpt>
      <trkpt lat="49.2588" lon="0.05178">
        <ele>139.8</ele>
        <time>2023-09-03T11:31:26Z</time>
      </trkpt>
      <trkpt lat="49.25886" lon="0.05172">
        <ele>139.8</ele>
        <time>2023-09-03T11:31:27Z</time>
      </trkpt>
      <trkpt lat="49.25891" lon="0.05165">
        <ele>139.7</ele>
        <time>2023-09-03T11:31:28Z</time>
      </trkpt>
      <trkpt lat="49.25897" lon="0.05159">
        <ele>139.7</ele>
        <time>2023-09-03T11:31:29Z</time>
      </trkpt>
      <trkpt lat="49.25903" lon="0.05154">
        <ele>139.6</ele>
        <time>2023-09-03T11:31:30Z</time>
      </trkpt>
      <trkpt lat="49.25908" lon="0.05149">
        <ele>139.5</ele>
        <time>2023-09-03T11:31:31Z</time>
      </trkpt>
      <trkpt lat="49.25914" lon="0.05142">
        <ele>139.4</ele>
        <time>2023-09-03T11:31:32Z</time>
      </trkpt>
      <trkpt lat="49.25919" lon="0.05136">
        <ele>139.3</ele>
        <time>2023-09-03T11:31:33Z</time>
      </trkpt>
      <trkpt lat="49.25924" lon="0.0513">
        <ele>139.3</ele>
        <time>2023-09-03T11:31:34Z</time>
      </trkpt>
      <trkpt lat="49.2593" lon="0.05124">
        <ele>139.3</ele>
        <time>2023-09-03T11:31:35Z</time>
      </trkpt>
      <trkpt lat="49.25936" lon="0.05118">
        <ele>139.2</ele>
        <time>2023-09-03T11:31:36Z</time>
      </trkpt>
      <trkpt lat="49.25941" lon="0.05112">
        <ele>139.2</ele>
        <time>2023-09-03T11:31:37Z</time>
      </trkpt>
      <trkpt lat="49.25947" lon="0.05106">
        <ele>139.2</ele>
        <time>2023-09-03T11:31:38Z</time>
      </trkpt>
      <trkpt lat="49.25952" lon="0.051">
        <ele>139.2</ele>
        <time>2023-09-03T11:31:39Z</time>
      </trkpt>
      <trkpt lat="49.25957" lon="0.05094">
        <ele>139.2</ele>
        <time>2023-09-03T11:31:40Z</time>
      </trkpt>
      <trkpt lat="49.25963" lon="0.05088">
        <ele>139.2</ele>
        <time>2023-09-03T11:31:41Z</time>
      </trkpt>
      <trkpt lat="49.25968" lon="0.05082">
        <ele>139.2</ele>
        <time>2023-09-03T11:31:42Z</time>
      </trkpt>
      <trkpt lat="49.25974" lon="0.05076">
        <ele>139.2</ele>
        <time>2023-09-03T11:31:43Z</time>
      </trkpt>
      <trkpt lat="49.25979" lon="0.05069">
        <ele>139.1</ele>
        <time>2023-09-03T11:31:44Z</time>
      </trkpt>
      <trkpt lat="49.25985" lon="0.05063">
        <ele>139.1</ele>
        <time>2023-09-03T11:31:45Z</time>
      </trkpt>
      <trkpt lat="49.25991" lon="0.05056">
        <ele>139.1</ele>
        <time>2023-09-03T11:31:46Z</time>
      </trkpt>
      <trkpt lat="49.25996" lon="0.05049">
        <ele>139.1</ele>
        <time>2023-09-03T11:31:47Z</time>
      </trkpt>
      <trkpt lat="49.26002" lon="0.05042">
        <ele>139.1</ele>
        <time>2023-09-03T11:31:48Z</time>
      </trkpt>
      <trkpt lat="49.26007" lon="0.05035">
        <ele>139.2</ele>
        <time>2023-09-03T11:31:49Z</time>
      </trkpt>
      <trkpt lat="49.26012" lon="0.05029">
        <ele>139.2</ele>
        <time>2023-09-03T11:31:50Z</time>
      </trkpt>
      <trkpt lat="49.26018" lon="0.05022">
        <ele>139.2</ele>
        <time>2023-09-03T11:31:51Z</time>
      </trkpt>
      <trkpt lat="49.26023" lon="0.05016">
        <ele>139.2</ele>
        <time>2023-09-03T11:31:52Z</time>
      </trkpt>
      <trkpt lat="49.26028" lon="0.05008">
        <ele>139.2</ele>
        <time>2023-09-03T11:31:53Z</time>
      </trkpt>
      <trkpt lat="49.26034" lon="0.05002">
        <ele>139.2</ele>
        <time>2023-09-03T11:31:54Z</time>
      </trkpt>
      <trkpt lat="49.26039" lon="0.04995">
        <ele>139.2</ele>
        <time>2023-09-03T11:31:55Z</time>
      </trkpt>
      <trkpt lat="49.26044" lon="0.04989">
        <ele>139.2</ele>
        <time>2023-09-03T11:31:56Z</time>
      </trkpt>
      <trkpt lat="49.26049" lon="0.04981">
        <ele>139.2</ele>
        <time>2023-09-03T11:31:57Z</time>
      </trkpt>
      <trkpt lat="49.26055" lon="0.04973">
        <ele>139.2</ele>
        <time>2023-09-03T11:31:58Z</time>
      </trkpt>
      <trkpt lat="49.26061" lon="0.04966">
        <ele>139.1</ele>
        <time>2023-09-03T11:31:59Z</time>
      </trkpt>
      <trkpt lat="49.26067" lon="0.04958">
        <ele>139.1</ele>
        <time>2023-09-03T11:32:00Z</time>
      </trkpt>
      <trkpt lat="49.26072" lon="0.0495">
        <ele>139.1</ele>
        <time>2023-09-03T11:32:01Z</time>
      </trkpt>
      <trkpt lat="49.26077" lon="0.04942">
        <ele>139.1</ele>
        <time>2023-09-03T11:32:02Z</time>
      </trkpt>
      <trkpt lat="49.26081" lon="0.04935">
        <ele>139.1</ele>
        <time>2023-09-03T11:32:03Z</time>
      </trkpt>
      <trkpt lat="49.26087" lon="0.04927">
        <ele>139</ele>
        <time>2023-09-03T11:32:04Z</time>
      </trkpt>
      <trkpt lat="49.26092" lon="0.0492">
        <ele>139</ele>
        <time>2023-09-03T11:32:05Z</time>
      </trkpt>
      <trkpt lat="49.26097" lon="0.04912">
        <ele>139</ele>
        <time>2023-09-03T11:32:06Z</time>
      </trkpt>
      <trkpt lat="49.26102" lon="0.04904">
        <ele>138.9</ele>
        <time>2023-09-03T11:32:07Z</time>
      </trkpt>
      <trkpt lat="49.26107" lon="0.04896">
        <ele>138.9</ele>
        <time>2023-09-03T11:32:08Z</time>
      </trkpt>
      <trkpt lat="49.26112" lon="0.04888">
        <ele>138.9</ele>
        <time>2023-09-03T11:32:09Z</time>
      </trkpt>
      <trkpt lat="49.26117" lon="0.0488">
        <ele>138.9</ele>
        <time>2023-09-03T11:32:10Z</time>
      </trkpt>
      <trkpt lat="49.26122" lon="0.04872">
        <ele>138.9</ele>
        <time>2023-09-03T11:32:11Z</time>
      </trkpt>
      <trkpt lat="49.26127" lon="0.04863">
        <ele>138.9</ele>
        <time>2023-09-03T11:32:12Z</time>
      </trkpt>
      <trkpt lat="49.26132" lon="0.04855">
        <ele>138.9</ele>
        <time>2023-09-03T11:32:13Z</time>
      </trkpt>
      <trkpt lat="49.26137" lon="0.04847">
        <ele>138.8</ele>
        <time>2023-09-03T11:32:14Z</time>
      </trkpt>
      <trkpt lat="49.26142" lon="0.0484">
        <ele>138.8</ele>
        <time>2023-09-03T11:32:15Z</time>
      </trkpt>
      <trkpt lat="49.26147" lon="0.04832">
        <ele>138.8</ele>
        <time>2023-09-03T11:32:16Z</time>
      </trkpt>
      <trkpt lat="49.26152" lon="0.04824">
        <ele>138.8</ele>
        <time>2023-09-03T11:32:17Z</time>
      </trkpt>
      <trkpt lat="49.26156" lon="0.04816">
        <ele>138.8</ele>
        <time>2023-09-03T11:32:18Z</time>
      </trkpt>
      <trkpt lat="49.26161" lon="0.04808">
        <ele>138.7</ele>
        <time>2023-09-03T11:32:19Z</time>
      </trkpt>
      <trkpt lat="49.26166" lon="0.048">
        <ele>138.7</ele>
        <time>2023-09-03T11:32:20Z</time>
      </trkpt>
      <trkpt lat="49.26171" lon="0.04792">
        <ele>138.7</ele>
        <time>2023-09-03T11:32:21Z</time>
      </trkpt>
      <trkpt lat="49.26176" lon="0.04785">
        <ele>138.7</ele>
        <time>2023-09-03T11:32:22Z</time>
      </trkpt>
      <trkpt lat="49.2618" lon="0.04777">
        <ele>138.7</ele>
        <time>2023-09-03T11:32:23Z</time>
      </trkpt>
      <trkpt lat="49.26185" lon="0.04769">
        <ele>138.7</ele>
        <time>2023-09-03T11:32:24Z</time>
      </trkpt>
      <trkpt lat="49.2619" lon="0.04761">
        <ele>138.7</ele>
        <time>2023-09-03T11:32:25Z</time>
      </trkpt>
      <trkpt lat="49.26194" lon="0.04753">
        <ele>138.7</ele>
        <time>2023-09-03T11:32:26Z</time>
      </trkpt>
      <trkpt lat="49.26199" lon="0.04746">
        <ele>138.6</ele>
        <time>2023-09-03T11:32:27Z</time>
      </trkpt>
      <trkpt lat="49.26204" lon="0.04738">
        <ele>138.6</ele>
        <time>2023-09-03T11:32:28Z</time>
      </trkpt>
      <trkpt lat="49.26209" lon="0.0473">
        <ele>138.6</ele>
        <time>2023-09-03T11:32:29Z</time>
      </trkpt>
      <trkpt lat="49.26214" lon="0.04722">
        <ele>138.6</ele>
        <time>2023-09-03T11:32:30Z</time>
      </trkpt>
      <trkpt lat="49.26219" lon="0.04714">
        <ele>138.6</ele>
        <time>2023-09-03T11:32:31Z</time>
      </trkpt>
      <trkpt lat="49.26224" lon="0.04705">
        <ele>138.6</ele>
        <time>2023-09-03T11:32:32Z</time>
      </trkpt>
      <trkpt lat="49.26229" lon="0.04697">
        <ele>138.6</ele>
        <time>2023-09-03T11:32:33Z</time>
      </trkpt>
      <trkpt lat="49.26234" lon="0.04689">
        <ele>138.6</ele>
        <time>2023-09-03T11:32:34Z</time>
      </trkpt>
      <trkpt lat="49.26239" lon="0.04682">
        <ele>138.6</ele>
        <time>2023-09-03T11:32:35Z</time>
      </trkpt>
      <trkpt lat="49.26244" lon="0.04675">
        <ele>138.6</ele>
        <time>2023-09-03T11:32:36Z</time>
      </trkpt>
      <trkpt lat="49.26249" lon="0.04667">
        <ele>138.7</ele>
        <time>2023-09-03T11:32:37Z</time>
      </trkpt>
      <trkpt lat="49.26254" lon="0.04659">
        <ele>138.7</ele>
        <time>2023-09-03T11:32:38Z</time>
      </trkpt>
      <trkpt lat="49.26259" lon="0.04651">
        <ele>138.7</ele>
        <time>2023-09-03T11:32:39Z</time>
      </trkpt>
      <trkpt lat="49.26264" lon="0.04643">
        <ele>138.7</ele>
        <time>2023-09-03T11:32:40Z</time>
      </trkpt>
      <trkpt lat="49.26269" lon="0.04635">
        <ele>138.7</ele>
        <time>2023-09-03T11:32:41Z</time>
      </trkpt>
      <trkpt lat="49.26275" lon="0.04627">
        <ele>138.7</ele>
        <time>2023-09-03T11:32:42Z</time>
      </trkpt>
      <trkpt lat="49.2628" lon="0.04619">
        <ele>138.7</ele>
        <time>2023-09-03T11:32:43Z</time>
      </trkpt>
      <trkpt lat="49.26285" lon="0.04611">
        <ele>138.7</ele>
        <time>2023-09-03T11:32:44Z</time>
      </trkpt>
      <trkpt lat="49.2629" lon="0.04604">
        <ele>138.7</ele>
        <time>2023-09-03T11:32:45Z</time>
      </trkpt>
      <trkpt lat="49.26294" lon="0.04596">
        <ele>138.8</ele>
        <time>2023-09-03T11:32:46Z</time>
      </trkpt>
      <trkpt lat="49.263" lon="0.04589">
        <ele>138.8</ele>
        <time>2023-09-03T11:32:47Z</time>
      </trkpt>
      <trkpt lat="49.26305" lon="0.04582">
        <ele>138.8</ele>
        <time>2023-09-03T11:32:48Z</time>
      </trkpt>
      <trkpt lat="49.26309" lon="0.04575">
        <ele>138.9</ele>
        <time>2023-09-03T11:32:49Z</time>
      </trkpt>
      <trkpt lat="49.26314" lon="0.04567">
        <ele>138.9</ele>
        <time>2023-09-03T11:32:50Z</time>
      </trkpt>
      <trkpt lat="49.2632" lon="0.04559">
        <ele>138.9</ele>
        <time>2023-09-03T11:32:51Z</time>
      </trkpt>
      <trkpt lat="49.26325" lon="0.04551">
        <ele>139</ele>
        <time>2023-09-03T11:32:52Z</time>
      </trkpt>
      <trkpt lat="49.2633" lon="0.04544">
        <ele>139</ele>
        <time>2023-09-03T11:32:53Z</time>
      </trkpt>
      <trkpt lat="49.26334" lon="0.04537">
        <ele>139</ele>
        <time>2023-09-03T11:32:54Z</time>
      </trkpt>
      <trkpt lat="49.26339" lon="0.04529">
        <ele>139</ele>
        <time>2023-09-03T11:32:55Z</time>
      </trkpt>
      <trkpt lat="49.26344" lon="0.04522">
        <ele>139</ele>
        <time>2023-09-03T11:32:56Z</time>
      </trkpt>
      <trkpt lat="49.26349" lon="0.04514">
        <ele>139.1</ele>
        <time>2023-09-03T11:32:57Z</time>
      </trkpt>
      <trkpt lat="49.26354" lon="0.04507">
        <ele>139.1</ele>
        <time>2023-09-03T11:32:58Z</time>
      </trkpt>
      <trkpt lat="49.26359" lon="0.04499">
        <ele>139.1</ele>
        <time>2023-09-03T11:32:59Z</time>
      </trkpt>
      <trkpt lat="49.26364" lon="0.04491">
        <ele>139.1</ele>
        <time>2023-09-03T11:33:00Z</time>
      </trkpt>
      <trkpt lat="49.26369" lon="0.04484">
        <ele>139</ele>
        <time>2023-09-03T11:33:01Z</time>
      </trkpt>
      <trkpt lat="49.26373" lon="0.04477">
        <ele>139</ele>
        <time>2023-09-03T11:33:02Z</time>
      </trkpt>
      <trkpt lat="49.26378" lon="0.04469">
        <ele>139</ele>
        <time>2023-09-03T11:33:03Z</time>
      </trkpt>
      <trkpt lat="49.26383" lon="0.04461">
        <ele>138.9</ele>
        <time>2023-09-03T11:33:04Z</time>
      </trkpt>
      <trkpt lat="49.26389" lon="0.04454">
        <ele>138.9</ele>
        <time>2023-09-03T11:33:05Z</time>
      </trkpt>
      <trkpt lat="49.26394" lon="0.04446">
        <ele>138.9</ele>
        <time>2023-09-03T11:33:06Z</time>
      </trkpt>
      <trkpt lat="49.26398" lon="0.04439">
        <ele>138.9</ele>
        <time>2023-09-03T11:33:07Z</time>
      </trkpt>
      <trkpt lat="49.26403" lon="0.04431">
        <ele>138.9</ele>
        <time>2023-09-03T11:33:08Z</time>
      </trkpt>
      <trkpt lat="49.26408" lon="0.04423">
        <ele>138.9</ele>
        <time>2023-09-03T11:33:09Z</time>
      </trkpt>
      <trkpt lat="49.26414" lon="0.04414">
        <ele>138.9</ele>
        <time>2023-09-03T11:33:10Z</time>
      </trkpt>
      <trkpt lat="49.26419" lon="0.04406">
        <ele>138.9</ele>
        <time>2023-09-03T11:33:11Z</time>
      </trkpt>
      <trkpt lat="49.26423" lon="0.04398">
        <ele>138.9</ele>
        <time>2023-09-03T11:33:12Z</time>
      </trkpt>
      <trkpt lat="49.26428" lon="0.0439">
        <ele>138.9</ele>
        <time>2023-09-03T11:33:13Z</time>
      </trkpt>
      <trkpt lat="49.26433" lon="0.04382">
        <ele>138.8</ele>
        <time>2023-09-03T11:33:14Z</time>
      </trkpt>
      <trkpt lat="49.26439" lon="0.04374">
        <ele>138.8</ele>
        <time>2023-09-03T11:33:15Z</time>
      </trkpt>
      <trkpt lat="49.26444" lon="0.04366">
        <ele>138.8</ele>
        <time>2023-09-03T11:33:16Z</time>
      </trkpt>
      <trkpt lat="49.26449" lon="0.04358">
        <ele>138.8</ele>
        <time>2023-09-03T11:33:17Z</time>
      </trkpt>
      <trkpt lat="49.26454" lon="0.0435">
        <ele>138.7</ele>
        <time>2023-09-03T11:33:18Z</time>
      </trkpt>
      <trkpt lat="49.26459" lon="0.04342">
        <ele>138.7</ele>
        <time>2023-09-03T11:33:19Z</time>
      </trkpt>
      <trkpt lat="49.26464" lon="0.04334">
        <ele>138.7</ele>
        <time>2023-09-03T11:33:20Z</time>
      </trkpt>
      <trkpt lat="49.2647" lon="0.04327">
        <ele>138.7</ele>
        <time>2023-09-03T11:33:21Z</time>
      </trkpt>
      <trkpt lat="49.26475" lon="0.04319">
        <ele>138.7</ele>
        <time>2023-09-03T11:33:22Z</time>
      </trkpt>
      <trkpt lat="49.2648" lon="0.04311">
        <ele>138.6</ele>
        <time>2023-09-03T11:33:23Z</time>
      </trkpt>
      <trkpt lat="49.26484" lon="0.04303">
        <ele>138.6</ele>
        <time>2023-09-03T11:33:24Z</time>
      </trkpt>
      <trkpt lat="49.26489" lon="0.04295">
        <ele>138.6</ele>
        <time>2023-09-03T11:33:25Z</time>
      </trkpt>
      <trkpt lat="49.26494" lon="0.04287">
        <ele>138.6</ele>
        <time>2023-09-03T11:33:26Z</time>
      </trkpt>
      <trkpt lat="49.26499" lon="0.04279">
        <ele>138.6</ele>
        <time>2023-09-03T11:33:27Z</time>
      </trkpt>
      <trkpt lat="49.26503" lon="0.04271">
        <ele>138.6</ele>
        <time>2023-09-03T11:33:28Z</time>
      </trkpt>
      <trkpt lat="49.26508" lon="0.04263">
        <ele>138.6</ele>
        <time>2023-09-03T11:33:29Z</time>
      </trkpt>
      <trkpt lat="49.26513" lon="0.04254">
        <ele>138.5</ele>
        <time>2023-09-03T11:33:30Z</time>
      </trkpt>
      <trkpt lat="49.26517" lon="0.04246">
        <ele>138.5</ele>
        <time>2023-09-03T11:33:31Z</time>
      </trkpt>
      <trkpt lat="49.26522" lon="0.04237">
        <ele>138.5</ele>
        <time>2023-09-03T11:33:32Z</time>
      </trkpt>
      <trkpt lat="49.26526" lon="0.04229">
        <ele>138.5</ele>
        <time>2023-09-03T11:33:33Z</time>
      </trkpt>
      <trkpt lat="49.26531" lon="0.0422">
        <ele>138.5</ele>
        <time>2023-09-03T11:33:34Z</time>
      </trkpt>
      <trkpt lat="49.26535" lon="0.04211">
        <ele>138.6</ele>
        <time>2023-09-03T11:33:35Z</time>
      </trkpt>
      <trkpt lat="49.2654" lon="0.04202">
        <ele>138.6</ele>
        <time>2023-09-03T11:33:36Z</time>
      </trkpt>
      <trkpt lat="49.26544" lon="0.04192">
        <ele>138.5</ele>
        <time>2023-09-03T11:33:37Z</time>
      </trkpt>
      <trkpt lat="49.26548" lon="0.04183">
        <ele>138.5</ele>
        <time>2023-09-03T11:33:38Z</time>
      </trkpt>
      <trkpt lat="49.26553" lon="0.04174">
        <ele>138.5</ele>
        <time>2023-09-03T11:33:39Z</time>
      </trkpt>
      <trkpt lat="49.26557" lon="0.04165">
        <ele>138.5</ele>
        <time>2023-09-03T11:33:40Z</time>
      </trkpt>
      <trkpt lat="49.26562" lon="0.04155">
        <ele>138.5</ele>
        <time>2023-09-03T11:33:41Z</time>
      </trkpt>
      <trkpt lat="49.26566" lon="0.04146">
        <ele>138.4</ele>
        <time>2023-09-03T11:33:42Z</time>
      </trkpt>
      <trkpt lat="49.2657" lon="0.04136">
        <ele>138.4</ele>
        <time>2023-09-03T11:33:43Z</time>
      </trkpt>
      <trkpt lat="49.26574" lon="0.04126">
        <ele>138.4</ele>
        <time>2023-09-03T11:33:44Z</time>
      </trkpt>
      <trkpt lat="49.26579" lon="0.04116">
        <ele>138.4</ele>
        <time>2023-09-03T11:33:45Z</time>
      </trkpt>
      <trkpt lat="49.26583" lon="0.04106">
        <ele>138.4</ele>
        <time>2023-09-03T11:33:46Z</time>
      </trkpt>
      <trkpt lat="49.26587" lon="0.04097">
        <ele>138.4</ele>
        <time>2023-09-03T11:33:47Z</time>
      </trkpt>
      <trkpt lat="49.26592" lon="0.04088">
        <ele>138.3</ele>
        <time>2023-09-03T11:33:48Z</time>
      </trkpt>
      <trkpt lat="49.26596" lon="0.04078">
        <ele>138.3</ele>
        <time>2023-09-03T11:33:49Z</time>
      </trkpt>
      <trkpt lat="49.266" lon="0.04068">
        <ele>138.3</ele>
        <time>2023-09-03T11:33:50Z</time>
      </trkpt>
      <trkpt lat="49.26604" lon="0.04058">
        <ele>138.3</ele>
        <time>2023-09-03T11:33:51Z</time>
      </trkpt>
      <trkpt lat="49.26608" lon="0.04049">
        <ele>138.2</ele>
        <time>2023-09-03T11:33:52Z</time>
      </trkpt>
      <trkpt lat="49.26613" lon="0.04039">
        <ele>138.2</ele>
        <time>2023-09-03T11:33:53Z</time>
      </trkpt>
      <trkpt lat="49.26617" lon="0.04029">
        <ele>138.1</ele>
        <time>2023-09-03T11:33:54Z</time>
      </trkpt>
      <trkpt lat="49.26621" lon="0.04019">
        <ele>138</ele>
        <time>2023-09-03T11:33:55Z</time>
      </trkpt>
      <trkpt lat="49.26626" lon="0.04009">
        <ele>137.9</ele>
        <time>2023-09-03T11:33:56Z</time>
      </trkpt>
      <trkpt lat="49.2663" lon="0.03999">
        <ele>137.8</ele>
        <time>2023-09-03T11:33:57Z</time>
      </trkpt>
      <trkpt lat="49.26634" lon="0.03989">
        <ele>137.7</ele>
        <time>2023-09-03T11:33:58Z</time>
      </trkpt>
      <trkpt lat="49.26638" lon="0.03979">
        <ele>137.7</ele>
        <time>2023-09-03T11:33:59Z</time>
      </trkpt>
      <trkpt lat="49.26643" lon="0.03969">
        <ele>137.6</ele>
        <time>2023-09-03T11:34:00Z</time>
      </trkpt>
      <trkpt lat="49.26647" lon="0.03959">
        <ele>137.5</ele>
        <time>2023-09-03T11:34:01Z</time>
      </trkpt>
      <trkpt lat="49.26651" lon="0.03949">
        <ele>137.4</ele>
        <time>2023-09-03T11:34:02Z</time>
      </trkpt>
      <trkpt lat="49.26656" lon="0.03939">
        <ele>137.3</ele>
        <time>2023-09-03T11:34:03Z</time>
      </trkpt>
      <trkpt lat="49.2666" lon="0.03929">
        <ele>137.2</ele>
        <time>2023-09-03T11:34:04Z</time>
      </trkpt>
      <trkpt lat="49.26664" lon="0.0392">
        <ele>137.1</ele>
        <time>2023-09-03T11:34:05Z</time>
      </trkpt>
      <trkpt lat="49.26669" lon="0.03909">
        <ele>137</ele>
        <time>2023-09-03T11:34:06Z</time>
      </trkpt>
      <trkpt lat="49.26673" lon="0.039">
        <ele>136.9</ele>
        <time>2023-09-03T11:34:07Z</time>
      </trkpt>
      <trkpt lat="49.26677" lon="0.0389">
        <ele>136.8</ele>
        <time>2023-09-03T11:34:08Z</time>
      </trkpt>
      <trkpt lat="49.26681" lon="0.0388">
        <ele>136.8</ele>
        <time>2023-09-03T11:34:09Z</time>
      </trkpt>
      <trkpt lat="49.26685" lon="0.0387">
        <ele>136.7</ele>
        <time>2023-09-03T11:34:10Z</time>
      </trkpt>
      <trkpt lat="49.2669" lon="0.0386">
        <ele>136.7</ele>
        <time>2023-09-03T11:34:11Z</time>
      </trkpt>
      <trkpt lat="49.26694" lon="0.0385">
        <ele>136.6</ele>
        <time>2023-09-03T11:34:12Z</time>
      </trkpt>
      <trkpt lat="49.26697" lon="0.0384">
        <ele>136.6</ele>
        <time>2023-09-03T11:34:13Z</time>
      </trkpt>
      <trkpt lat="49.26701" lon="0.0383">
        <ele>136.5</ele>
        <time>2023-09-03T11:34:14Z</time>
      </trkpt>
      <trkpt lat="49.26705" lon="0.03819">
        <ele>136.5</ele>
        <time>2023-09-03T11:34:15Z</time>
      </trkpt>
      <trkpt lat="49.26708" lon="0.03809">
        <ele>136.4</ele>
        <time>2023-09-03T11:34:16Z</time>
      </trkpt>
      <trkpt lat="49.26712" lon="0.03799">
        <ele>136.4</ele>
        <time>2023-09-03T11:34:17Z</time>
      </trkpt>
      <trkpt lat="49.26715" lon="0.03789">
        <ele>136.3</ele>
        <time>2023-09-03T11:34:18Z</time>
      </trkpt>
      <trkpt lat="49.26719" lon="0.03779">
        <ele>136.2</ele>
        <time>2023-09-03T11:34:19Z</time>
      </trkpt>
      <trkpt lat="49.26723" lon="0.03769">
        <ele>136.2</ele>
        <time>2023-09-03T11:34:20Z</time>
      </trkpt>
      <trkpt lat="49.26726" lon="0.03758">
        <ele>136.1</ele>
        <time>2023-09-03T11:34:21Z</time>
      </trkpt>
      <trkpt lat="49.26729" lon="0.03747">
        <ele>136.1</ele>
        <time>2023-09-03T11:34:22Z</time>
      </trkpt>
      <trkpt lat="49.26733" lon="0.03737">
        <ele>136.1</ele>
        <time>2023-09-03T11:34:23Z</time>
      </trkpt>
      <trkpt lat="49.26736" lon="0.03726">
        <ele>136</ele>
        <time>2023-09-03T11:34:24Z</time>
      </trkpt>
      <trkpt lat="49.2674" lon="0.03716">
        <ele>136</ele>
        <time>2023-09-03T11:34:25Z</time>
      </trkpt>
      <trkpt lat="49.26743" lon="0.03706">
        <ele>136</ele>
        <time>2023-09-03T11:34:26Z</time>
      </trkpt>
      <trkpt lat="49.26747" lon="0.03696">
        <ele>135.9</ele>
        <time>2023-09-03T11:34:27Z</time>
      </trkpt>
      <trkpt lat="49.2675" lon="0.03685">
        <ele>135.9</ele>
        <time>2023-09-03T11:34:28Z</time>
      </trkpt>
      <trkpt lat="49.26753" lon="0.03674">
        <ele>135.9</ele>
        <time>2023-09-03T11:34:29Z</time>
      </trkpt>
      <trkpt lat="49.26756" lon="0.03663">
        <ele>135.9</ele>
        <time>2023-09-03T11:34:30Z</time>
      </trkpt>
      <trkpt lat="49.2676" lon="0.03653">
        <ele>136</ele>
        <time>2023-09-03T11:34:31Z</time>
      </trkpt>
      <trkpt lat="49.26764" lon="0.03643">
        <ele>136.1</ele>
        <time>2023-09-03T11:34:32Z</time>
      </trkpt>
      <trkpt lat="49.26767" lon="0.03633">
        <ele>136.1</ele>
        <time>2023-09-03T11:34:33Z</time>
      </trkpt>
      <trkpt lat="49.26771" lon="0.03623">
        <ele>136.2</ele>
        <time>2023-09-03T11:34:34Z</time>
      </trkpt>
      <trkpt lat="49.26775" lon="0.03614">
        <ele>136.3</ele>
        <time>2023-09-03T11:34:35Z</time>
      </trkpt>
      <trkpt lat="49.26779" lon="0.03605">
        <ele>136.4</ele>
        <time>2023-09-03T11:34:36Z</time>
      </trkpt>
      <trkpt lat="49.26783" lon="0.03596">
        <ele>136.5</ele>
        <time>2023-09-03T11:34:37Z</time>
      </trkpt>
      <trkpt lat="49.26787" lon="0.03587">
        <ele>136.7</ele>
        <time>2023-09-03T11:34:38Z</time>
      </trkpt>
      <trkpt lat="49.26791" lon="0.03578">
        <ele>136.8</ele>
        <time>2023-09-03T11:34:39Z</time>
      </trkpt>
      <trkpt lat="49.26795" lon="0.03569">
        <ele>136.9</ele>
        <time>2023-09-03T11:34:40Z</time>
      </trkpt>
      <trkpt lat="49.26799" lon="0.0356">
        <ele>137.1</ele>
        <time>2023-09-03T11:34:41Z</time>
      </trkpt>
      <trkpt lat="49.26803" lon="0.03552">
        <ele>137.2</ele>
        <time>2023-09-03T11:34:42Z</time>
      </trkpt>
      <trkpt lat="49.26808" lon="0.03544">
        <ele>137.4</ele>
        <time>2023-09-03T11:34:43Z</time>
      </trkpt>
      <trkpt lat="49.26812" lon="0.03535">
        <ele>137.5</ele>
        <time>2023-09-03T11:34:44Z</time>
      </trkpt>
      <trkpt lat="49.26817" lon="0.03527">
        <ele>137.6</ele>
        <time>2023-09-03T11:34:45Z</time>
      </trkpt>
      <trkpt lat="49.26821" lon="0.03519">
        <ele>137.8</ele>
        <time>2023-09-03T11:34:46Z</time>
      </trkpt>
      <trkpt lat="49.26826" lon="0.0351">
        <ele>137.9</ele>
        <time>2023-09-03T11:34:47Z</time>
      </trkpt>
      <trkpt lat="49.2683" lon="0.03501">
        <ele>138.1</ele>
        <time>2023-09-03T11:34:48Z</time>
      </trkpt>
      <trkpt lat="49.26835" lon="0.03492">
        <ele>138.2</ele>
        <time>2023-09-03T11:34:49Z</time>
      </trkpt>
      <trkpt lat="49.26839" lon="0.03483">
        <ele>138.4</ele>
        <time>2023-09-03T11:34:50Z</time>
      </trkpt>
      <trkpt lat="49.26843" lon="0.03475">
        <ele>138.6</ele>
        <time>2023-09-03T11:34:51Z</time>
      </trkpt>
      <trkpt lat="49.26847" lon="0.03466">
        <ele>138.7</ele>
        <time>2023-09-03T11:34:52Z</time>
      </trkpt>
      <trkpt lat="49.26852" lon="0.03458">
        <ele>138.8</ele>
        <time>2023-09-03T11:34:53Z</time>
      </trkpt>
      <trkpt lat="49.26856" lon="0.03449">
        <ele>139</ele>
        <time>2023-09-03T11:34:54Z</time>
      </trkpt>
      <trkpt lat="49.26861" lon="0.03441">
        <ele>139.1</ele>
        <time>2023-09-03T11:34:55Z</time>
      </trkpt>
      <trkpt lat="49.26865" lon="0.03432">
        <ele>139.2</ele>
        <time>2023-09-03T11:34:56Z</time>
      </trkpt>
      <trkpt lat="49.26869" lon="0.03424">
        <ele>139.4</ele>
        <time>2023-09-03T11:34:57Z</time>
      </trkpt>
      <trkpt lat="49.26874" lon="0.03416">
        <ele>139.5</ele>
        <time>2023-09-03T11:34:58Z</time>
      </trkpt>
      <trkpt lat="49.26878" lon="0.03407">
        <ele>139.6</ele>
        <time>2023-09-03T11:34:59Z</time>
      </trkpt>
      <trkpt lat="49.26882" lon="0.03399">
        <ele>139.8</ele>
        <time>2023-09-03T11:35:00Z</time>
      </trkpt>
      <trkpt lat="49.26886" lon="0.0339">
        <ele>139.9</ele>
        <time>2023-09-03T11:35:01Z</time>
      </trkpt>
      <trkpt lat="49.26891" lon="0.03382">
        <ele>140</ele>
        <time>2023-09-03T11:35:02Z</time>
      </trkpt>
      <trkpt lat="49.26895" lon="0.03374">
        <ele>140.2</ele>
        <time>2023-09-03T11:35:03Z</time>
      </trkpt>
      <trkpt lat="49.26899" lon="0.03365">
        <ele>140.3</ele>
        <time>2023-09-03T11:35:04Z</time>
      </trkpt>
      <trkpt lat="49.26903" lon="0.03357">
        <ele>140.4</ele>
        <time>2023-09-03T11:35:05Z</time>
      </trkpt>
      <trkpt lat="49.26907" lon="0.03349">
        <ele>140.5</ele>
        <time>2023-09-03T11:35:06Z</time>
      </trkpt>
      <trkpt lat="49.26911" lon="0.0334">
        <ele>140.6</ele>
        <time>2023-09-03T11:35:07Z</time>
      </trkpt>
      <trkpt lat="49.26916" lon="0.03331">
        <ele>140.7</ele>
        <time>2023-09-03T11:35:08Z</time>
      </trkpt>
      <trkpt lat="49.2692" lon="0.03323">
        <ele>140.8</ele>
        <time>2023-09-03T11:35:09Z</time>
      </trkpt>
      <trkpt lat="49.26924" lon="0.03315">
        <ele>140.9</ele>
        <time>2023-09-03T11:35:10Z</time>
      </trkpt>
      <trkpt lat="49.26928" lon="0.03307">
        <ele>141</ele>
        <time>2023-09-03T11:35:11Z</time>
      </trkpt>
      <trkpt lat="49.26932" lon="0.03299">
        <ele>141.1</ele>
        <time>2023-09-03T11:35:12Z</time>
      </trkpt>
      <trkpt lat="49.26937" lon="0.0329">
        <ele>141.2</ele>
        <time>2023-09-03T11:35:13Z</time>
      </trkpt>
      <trkpt lat="49.26941" lon="0.03281">
        <ele>141.2</ele>
        <time>2023-09-03T11:35:14Z</time>
      </trkpt>
      <trkpt lat="49.26945" lon="0.03273">
        <ele>141.2</ele>
        <time>2023-09-03T11:35:15Z</time>
      </trkpt>
      <trkpt lat="49.26949" lon="0.03264">
        <ele>141.2</ele>
        <time>2023-09-03T11:35:16Z</time>
      </trkpt>
      <trkpt lat="49.26953" lon="0.03255">
        <ele>141.2</ele>
        <time>2023-09-03T11:35:17Z</time>
      </trkpt>
      <trkpt lat="49.26957" lon="0.03246">
        <ele>141.2</ele>
        <time>2023-09-03T11:35:18Z</time>
      </trkpt>
      <trkpt lat="49.26961" lon="0.03237">
        <ele>141.2</ele>
        <time>2023-09-03T11:35:19Z</time>
      </trkpt>
      <trkpt lat="49.26965" lon="0.03228">
        <ele>141.3</ele>
        <time>2023-09-03T11:35:20Z</time>
      </trkpt>
      <trkpt lat="49.26968" lon="0.03219">
        <ele>141.3</ele>
        <time>2023-09-03T11:35:21Z</time>
      </trkpt>
      <trkpt lat="49.26972" lon="0.0321">
        <ele>141.3</ele>
        <time>2023-09-03T11:35:22Z</time>
      </trkpt>
      <trkpt lat="49.26976" lon="0.03201">
        <ele>141.3</ele>
        <time>2023-09-03T11:35:23Z</time>
      </trkpt>
      <trkpt lat="49.2698" lon="0.03191">
        <ele>141.4</ele>
        <time>2023-09-03T11:35:24Z</time>
      </trkpt>
      <trkpt lat="49.26984" lon="0.03182">
        <ele>141.4</ele>
        <time>2023-09-03T11:35:25Z</time>
      </trkpt>
      <trkpt lat="49.26988" lon="0.03172">
        <ele>141.4</ele>
        <time>2023-09-03T11:35:26Z</time>
      </trkpt>
      <trkpt lat="49.26992" lon="0.03163">
        <ele>141.4</ele>
        <time>2023-09-03T11:35:27Z</time>
      </trkpt>
      <trkpt lat="49.26996" lon="0.03153">
        <ele>141.4</ele>
        <time>2023-09-03T11:35:28Z</time>
      </trkpt>
      <trkpt lat="49.27" lon="0.03143">
        <ele>141.3</ele>
        <time>2023-09-03T11:35:29Z</time>
      </trkpt>
      <trkpt lat="49.27004" lon="0.03134">
        <ele>141.3</ele>
        <time>2023-09-03T11:35:30Z</time>
      </trkpt>
      <trkpt lat="49.27008" lon="0.03124">
        <ele>141.3</ele>
        <time>2023-09-03T11:35:31Z</time>
      </trkpt>
      <trkpt lat="49.27013" lon="0.03115">
        <ele>141.3</ele>
        <time>2023-09-03T11:35:32Z</time>
      </trkpt>
      <trkpt lat="49.27016" lon="0.03106">
        <ele>141.3</ele>
        <time>2023-09-03T11:35:33Z</time>
      </trkpt>
      <trkpt lat="49.2702" lon="0.03097">
        <ele>141.3</ele>
        <time>2023-09-03T11:35:34Z</time>
      </trkpt>
      <trkpt lat="49.27024" lon="0.03088">
        <ele>141.3</ele>
        <time>2023-09-03T11:35:35Z</time>
      </trkpt>
      <trkpt lat="49.27028" lon="0.03078">
        <ele>141.3</ele>
        <time>2023-09-03T11:35:36Z</time>
      </trkpt>
      <trkpt lat="49.27032" lon="0.03069">
        <ele>141.3</ele>
        <time>2023-09-03T11:35:37Z</time>
      </trkpt>
      <trkpt lat="49.27036" lon="0.03059">
        <ele>141.3</ele>
        <time>2023-09-03T11:35:38Z</time>
      </trkpt>
      <trkpt lat="49.2704" lon="0.03049">
        <ele>141.3</ele>
        <time>2023-09-03T11:35:39Z</time>
      </trkpt>
      <trkpt lat="49.27044" lon="0.0304">
        <ele>141.3</ele>
        <time>2023-09-03T11:35:40Z</time>
      </trkpt>
      <trkpt lat="49.27048" lon="0.0303">
        <ele>141.3</ele>
        <time>2023-09-03T11:35:41Z</time>
      </trkpt>
      <trkpt lat="49.27052" lon="0.03021">
        <ele>141.3</ele>
        <time>2023-09-03T11:35:42Z</time>
      </trkpt>
      <trkpt lat="49.27056" lon="0.03011">
        <ele>141.4</ele>
        <time>2023-09-03T11:35:43Z</time>
      </trkpt>
      <trkpt lat="49.2706" lon="0.03002">
        <ele>141.4</ele>
        <time>2023-09-03T11:35:44Z</time>
      </trkpt>
      <trkpt lat="49.27064" lon="0.02992">
        <ele>141.4</ele>
        <time>2023-09-03T11:35:45Z</time>
      </trkpt>
      <trkpt lat="49.27068" lon="0.02983">
        <ele>141.4</ele>
        <time>2023-09-03T11:35:46Z</time>
      </trkpt>
      <trkpt lat="49.27072" lon="0.02973">
        <ele>141.4</ele>
        <time>2023-09-03T11:35:47Z</time>
      </trkpt>
      <trkpt lat="49.27076" lon="0.02964">
        <ele>141.5</ele>
        <time>2023-09-03T11:35:48Z</time>
      </trkpt>
      <trkpt lat="49.2708" lon="0.02955">
        <ele>141.5</ele>
        <time>2023-09-03T11:35:49Z</time>
      </trkpt>
      <trkpt lat="49.27084" lon="0.02945">
        <ele>141.5</ele>
        <time>2023-09-03T11:35:50Z</time>
      </trkpt>
      <trkpt lat="49.27088" lon="0.02936">
        <ele>141.5</ele>
        <time>2023-09-03T11:35:51Z</time>
      </trkpt>
      <trkpt lat="49.27092" lon="0.02927">
        <ele>141.6</ele>
        <time>2023-09-03T11:35:52Z</time>
      </trkpt>
      <trkpt lat="49.27095" lon="0.02917">
        <ele>141.6</ele>
        <time>2023-09-03T11:35:53Z</time>
      </trkpt>
      <trkpt lat="49.27099" lon="0.02908">
        <ele>141.6</ele>
        <time>2023-09-03T11:35:54Z</time>
      </trkpt>
      <trkpt lat="49.27103" lon="0.02898">
        <ele>141.7</ele>
        <time>2023-09-03T11:35:55Z</time>
      </trkpt>
      <trkpt lat="49.27107" lon="0.02889">
        <ele>141.7</ele>
        <time>2023-09-03T11:35:56Z</time>
      </trkpt>
      <trkpt lat="49.27111" lon="0.0288">
        <ele>141.7</ele>
        <time>2023-09-03T11:35:57Z</time>
      </trkpt>
      <trkpt lat="49.27115" lon="0.0287">
        <ele>141.8</ele>
        <time>2023-09-03T11:35:58Z</time>
      </trkpt>
      <trkpt lat="49.27119" lon="0.02861">
        <ele>141.8</ele>
        <time>2023-09-03T11:35:59Z</time>
      </trkpt>
      <trkpt lat="49.27123" lon="0.02851">
        <ele>141.8</ele>
        <time>2023-09-03T11:36:00Z</time>
      </trkpt>
      <trkpt lat="49.27127" lon="0.02842">
        <ele>141.8</ele>
        <time>2023-09-03T11:36:01Z</time>
      </trkpt>
      <trkpt lat="49.27131" lon="0.02833">
        <ele>141.8</ele>
        <time>2023-09-03T11:36:02Z</time>
      </trkpt>
      <trkpt lat="49.27134" lon="0.02823">
        <ele>141.8</ele>
        <time>2023-09-03T11:36:03Z</time>
      </trkpt>
      <trkpt lat="49.27138" lon="0.02814">
        <ele>141.8</ele>
        <time>2023-09-03T11:36:04Z</time>
      </trkpt>
      <trkpt lat="49.27142" lon="0.02805">
        <ele>141.8</ele>
        <time>2023-09-03T11:36:05Z</time>
      </trkpt>
      <trkpt lat="49.27146" lon="0.02796">
        <ele>141.8</ele>
        <time>2023-09-03T11:36:06Z</time>
      </trkpt>
      <trkpt lat="49.27149" lon="0.02788">
        <ele>141.8</ele>
        <time>2023-09-03T11:36:07Z</time>
      </trkpt>
      <trkpt lat="49.27152" lon="0.02779">
        <ele>141.9</ele>
        <time>2023-09-03T11:36:08Z</time>
      </trkpt>
      <trkpt lat="49.27156" lon="0.02771">
        <ele>141.9</ele>
        <time>2023-09-03T11:36:09Z</time>
      </trkpt>
      <trkpt lat="49.27159" lon="0.02763">
        <ele>141.9</ele>
        <time>2023-09-03T11:36:10Z</time>
      </trkpt>
      <trkpt lat="49.27163" lon="0.02755">
        <ele>141.9</ele>
        <time>2023-09-03T11:36:11Z</time>
      </trkpt>
      <trkpt lat="49.27167" lon="0.02748">
        <ele>141.9</ele>
        <time>2023-09-03T11:36:12Z</time>
      </trkpt>
      <trkpt lat="49.2717" lon="0.02741">
        <ele>141.9</ele>
        <time>2023-09-03T11:36:13Z</time>
      </trkpt>
      <trkpt lat="49.27174" lon="0.02733">
        <ele>142</ele>
        <time>2023-09-03T11:36:14Z</time>
      </trkpt>
      <trkpt lat="49.27177" lon="0.02726">
        <ele>142</ele>
        <time>2023-09-03T11:36:15Z</time>
      </trkpt>
      <trkpt lat="49.2718" lon="0.02719">
        <ele>142</ele>
        <time>2023-09-03T11:36:16Z</time>
      </trkpt>
      <trkpt lat="49.27184" lon="0.02712">
        <ele>142</ele>
        <time>2023-09-03T11:36:17Z</time>
      </trkpt>
      <trkpt lat="49.27187" lon="0.02704">
        <ele>142</ele>
        <time>2023-09-03T11:36:18Z</time>
      </trkpt>
      <trkpt lat="49.2719" lon="0.02697">
        <ele>142</ele>
        <time>2023-09-03T11:36:19Z</time>
      </trkpt>
      <trkpt lat="49.27193" lon="0.0269">
        <ele>142</ele>
        <time>2023-09-03T11:36:20Z</time>
      </trkpt>
      <trkpt lat="49.27196" lon="0.02683">
        <ele>142</ele>
        <time>2023-09-03T11:36:21Z</time>
      </trkpt>
      <trkpt lat="49.27199" lon="0.02676">
        <ele>142</ele>
        <time>2023-09-03T11:36:22Z</time>
      </trkpt>
      <trkpt lat="49.27202" lon="0.02669">
        <ele>142</ele>
        <time>2023-09-03T11:36:23Z</time>
      </trkpt>
      <trkpt lat="49.27205" lon="0.02663">
        <ele>142</ele>
        <time>2023-09-03T11:36:24Z</time>
      </trkpt>
      <trkpt lat="49.27208" lon="0.02657">
        <ele>142</ele>
        <time>2023-09-03T11:36:25Z</time>
      </trkpt>
      <trkpt lat="49.27211" lon="0.0265">
        <ele>142</ele>
        <time>2023-09-03T11:36:26Z</time>
      </trkpt>
      <trkpt lat="49.27213" lon="0.02643">
        <ele>142</ele>
        <time>2023-09-03T11:36:27Z</time>
      </trkpt>
      <trkpt lat="49.27216" lon="0.02637">
        <ele>141.9</ele>
        <time>2023-09-03T11:36:28Z</time>
      </trkpt>
      <trkpt lat="49.27219" lon="0.0263">
        <ele>141.9</ele>
        <time>2023-09-03T11:36:29Z</time>
      </trkpt>
      <trkpt lat="49.27222" lon="0.02624">
        <ele>141.9</ele>
        <time>2023-09-03T11:36:30Z</time>
      </trkpt>
      <trkpt lat="49.27225" lon="0.02618">
        <ele>141.9</ele>
        <time>2023-09-03T11:36:31Z</time>
      </trkpt>
      <trkpt lat="49.27228" lon="0.02611">
        <ele>141.8</ele>
        <time>2023-09-03T11:36:32Z</time>
      </trkpt>
      <trkpt lat="49.2723" lon="0.02606">
        <ele>141.8</ele>
        <time>2023-09-03T11:36:33Z</time>
      </trkpt>
      <trkpt lat="49.27233" lon="0.026">
        <ele>141.8</ele>
        <time>2023-09-03T11:36:34Z</time>
      </trkpt>
      <trkpt lat="49.27236" lon="0.02594">
        <ele>141.7</ele>
        <time>2023-09-03T11:36:35Z</time>
      </trkpt>
      <trkpt lat="49.27238" lon="0.02588">
        <ele>141.7</ele>
        <time>2023-09-03T11:36:36Z</time>
      </trkpt>
      <trkpt lat="49.27241" lon="0.02582">
        <ele>141.7</ele>
        <time>2023-09-03T11:36:37Z</time>
      </trkpt>
      <trkpt lat="49.27243" lon="0.02577">
        <ele>141.7</ele>
        <time>2023-09-03T11:36:38Z</time>
      </trkpt>
      <trkpt lat="49.27246" lon="0.02571">
        <ele>141.6</ele>
        <time>2023-09-03T11:36:39Z</time>
      </trkpt>
      <trkpt lat="49.27248" lon="0.02565">
        <ele>141.6</ele>
        <time>2023-09-03T11:36:40Z</time>
      </trkpt>
      <trkpt lat="49.27251" lon="0.0256">
        <ele>141.6</ele>
        <time>2023-09-03T11:36:41Z</time>
      </trkpt>
      <trkpt lat="49.27253" lon="0.02555">
        <ele>141.6</ele>
        <time>2023-09-03T11:36:42Z</time>
      </trkpt>
      <trkpt lat="49.27255" lon="0.02549">
        <ele>141.5</ele>
        <time>2023-09-03T11:36:43Z</time>
      </trkpt>
      <trkpt lat="49.27258" lon="0.02544">
        <ele>141.5</ele>
        <time>2023-09-03T11:36:44Z</time>
      </trkpt>
      <trkpt lat="49.2726" lon="0.02539">
        <ele>141.5</ele>
        <time>2023-09-03T11:36:45Z</time>
      </trkpt>
      <trkpt lat="49.27262" lon="0.02533">
        <ele>141.5</ele>
        <time>2023-09-03T11:36:46Z</time>
      </trkpt>
      <trkpt lat="49.27265" lon="0.02528">
        <ele>141.4</ele>
        <time>2023-09-03T11:36:47Z</time>
      </trkpt>
      <trkpt lat="49.27268" lon="0.02523">
        <ele>141.4</ele>
        <time>2023-09-03T11:36:48Z</time>
      </trkpt>
      <trkpt lat="49.2727" lon="0.02518">
        <ele>141.4</ele>
        <time>2023-09-03T11:36:49Z</time>
      </trkpt>
      <trkpt lat="49.27272" lon="0.02512">
        <ele>141.4</ele>
        <time>2023-09-03T11:36:50Z</time>
      </trkpt>
      <trkpt lat="49.27275" lon="0.02506">
        <ele>141.3</ele>
        <time>2023-09-03T11:36:51Z</time>
      </trkpt>
      <trkpt lat="49.27277" lon="0.02501">
        <ele>141.3</ele>
        <time>2023-09-03T11:36:52Z</time>
      </trkpt>
      <trkpt lat="49.27278" lon="0.02497">
        <ele>141.3</ele>
        <time>2023-09-03T11:36:53Z</time>
      </trkpt>
      <trkpt lat="49.2728" lon="0.02494">
        <ele>141.2</ele>
        <time>2023-09-03T11:36:54Z</time>
      </trkpt>
      <trkpt lat="49.27281" lon="0.02493">
        <ele>141.2</ele>
        <time>2023-09-03T11:36:55Z</time>
      </trkpt>
      <trkpt lat="49.27283" lon="0.02492">
        <ele>141.2</ele>
        <time>2023-09-03T11:36:56Z</time>
      </trkpt>
      <trkpt lat="49.27284" lon="0.02491">
        <ele>141.2</ele>
        <time>2023-09-03T11:36:57Z</time>
      </trkpt>
      <trkpt lat="49.27285" lon="0.02489">
        <ele>141.2</ele>
        <time>2023-09-03T11:36:58Z</time>
      </trkpt>
      <trkpt lat="49.27285" lon="0.02487">
        <ele>141.2</ele>
        <time>2023-09-03T11:36:59Z</time>
      </trkpt>
      <trkpt lat="49.27286" lon="0.02485">
        <ele>141.2</ele>
        <time>2023-09-03T11:37:00Z</time>
      </trkpt>
      <trkpt lat="49.27286" lon="0.02485">
        <ele>141.2</ele>
        <time>2023-09-03T11:37:01Z</time>
      </trkpt>
      <trkpt lat="49.27286" lon="0.02485">
        <ele>141.2</ele>
        <time>2023-09-03T11:37:02Z</time>
      </trkpt>
      <trkpt lat="49.27285" lon="0.02486">
        <ele>141.2</ele>
        <time>2023-09-03T11:37:03Z</time>
      </trkpt>
      <trkpt lat="49.27285" lon="0.02486">
        <ele>141.2</ele>
        <time>2023-09-03T11:37:04Z</time>
      </trkpt>
      <trkpt lat="49.27285" lon="0.02486">
        <ele>141.2</ele>
        <time>2023-09-03T11:37:05Z</time>
      </trkpt>
      <trkpt lat="49.27285" lon="0.02486">
        <ele>141.2</ele>
        <time>2023-09-03T11:37:06Z</time>
      </trkpt>
      <trkpt lat="49.27285" lon="0.02486">
        <ele>141.2</ele>
        <time>2023-09-03T11:37:07Z</time>
      </trkpt>
      <trkpt lat="49.27285" lon="0.02486">
        <ele>141.2</ele>
        <time>2023-09-03T11:37:08Z</time>
      </trkpt>
      <trkpt lat="49.27285" lon="0.02486">
        <ele>141.2</ele>
        <time>2023-09-03T11:37:09Z</time>
      </trkpt>
      <trkpt lat="49.27285" lon="0.02486">
        <ele>141.2</ele>
        <time>2023-09-03T11:37:10Z</time>
      </trkpt>
      <trkpt lat="49.27284" lon="0.02483">
        <ele>141.2</ele>
        <time>2023-09-03T11:37:43Z</time>
      </trkpt>
      <trkpt lat="49.27283" lon="0.02482">
        <ele>141.2</ele>
        <time>2023-09-03T11:37:44Z</time>
      </trkpt>
      <trkpt lat="49.27281" lon="0.02482">
        <ele>141.2</ele>
        <time>2023-09-03T11:37:45Z</time>
      </trkpt>
      <trkpt lat="49.2728" lon="0.02483">
        <ele>141.3</ele>
        <time>2023-09-03T11:37:46Z</time>
      </trkpt>
      <trkpt lat="49.27279" lon="0.02485">
        <ele>141.3</ele>
        <time>2023-09-03T11:37:47Z</time>
      </trkpt>
      <trkpt lat="49.27276" lon="0.0249">
        <ele>141.3</ele>
        <time>2023-09-03T11:37:48Z</time>
      </trkpt>
      <trkpt lat="49.27275" lon="0.02492">
        <ele>141.3</ele>
        <time>2023-09-03T11:37:49Z</time>
      </trkpt>
      <trkpt lat="49.27272" lon="0.02496">
        <ele>141.4</ele>
        <time>2023-09-03T11:37:50Z</time>
      </trkpt>
      <trkpt lat="49.2727" lon="0.02501">
        <ele>141.4</ele>
        <time>2023-09-03T11:37:51Z</time>
      </trkpt>
      <trkpt lat="49.27268" lon="0.02506">
        <ele>141.4</ele>
        <time>2023-09-03T11:37:52Z</time>
      </trkpt>
      <trkpt lat="49.27266" lon="0.02512">
        <ele>141.4</ele>
        <time>2023-09-03T11:37:53Z</time>
      </trkpt>
      <trkpt lat="49.27263" lon="0.02517">
        <ele>141.5</ele>
        <time>2023-09-03T11:37:54Z</time>
      </trkpt>
      <trkpt lat="49.27261" lon="0.02524">
        <ele>141.5</ele>
        <time>2023-09-03T11:37:55Z</time>
      </trkpt>
      <trkpt lat="49.27258" lon="0.0253">
        <ele>141.5</ele>
        <time>2023-09-03T11:37:56Z</time>
      </trkpt>
      <trkpt lat="49.27255" lon="0.02536">
        <ele>141.5</ele>
        <time>2023-09-03T11:37:57Z</time>
      </trkpt>
      <trkpt lat="49.27252" lon="0.02542">
        <ele>141.6</ele>
        <time>2023-09-03T11:37:58Z</time>
      </trkpt>
      <trkpt lat="49.27249" lon="0.02548">
        <ele>141.6</ele>
        <time>2023-09-03T11:37:59Z</time>
      </trkpt>
      <trkpt lat="49.27247" lon="0.02554">
        <ele>141.6</ele>
        <time>2023-09-03T11:38:00Z</time>
      </trkpt>
      <trkpt lat="49.27244" lon="0.02559">
        <ele>141.6</ele>
        <time>2023-09-03T11:38:01Z</time>
      </trkpt>
      <trkpt lat="49.27242" lon="0.02565">
        <ele>141.6</ele>
        <time>2023-09-03T11:38:02Z</time>
      </trkpt>
      <trkpt lat="49.27239" lon="0.0257">
        <ele>141.7</ele>
        <time>2023-09-03T11:38:03Z</time>
      </trkpt>
      <trkpt lat="49.27237" lon="0.02576">
        <ele>141.7</ele>
        <time>2023-09-03T11:38:04Z</time>
      </trkpt>
      <trkpt lat="49.27234" lon="0.0258">
        <ele>141.7</ele>
        <time>2023-09-03T11:38:05Z</time>
      </trkpt>
      <trkpt lat="49.27232" lon="0.02585">
        <ele>141.7</ele>
        <time>2023-09-03T11:38:06Z</time>
      </trkpt>
      <trkpt lat="49.27229" lon="0.0259">
        <ele>141.8</ele>
        <time>2023-09-03T11:38:07Z</time>
      </trkpt>
      <trkpt lat="49.27227" lon="0.02594">
        <ele>141.8</ele>
        <time>2023-09-03T11:38:08Z</time>
      </trkpt>
      <trkpt lat="49.27225" lon="0.02598">
        <ele>141.8</ele>
        <time>2023-09-03T11:38:09Z</time>
      </trkpt>
      <trkpt lat="49.27223" lon="0.02602">
        <ele>141.8</ele>
        <time>2023-09-03T11:38:10Z</time>
      </trkpt>
      <trkpt lat="49.27221" lon="0.02606">
        <ele>141.8</ele>
        <time>2023-09-03T11:38:11Z</time>
      </trkpt>
      <trkpt lat="49.2722" lon="0.0261">
        <ele>141.8</ele>
        <time>2023-09-03T11:38:12Z</time>
      </trkpt>
      <trkpt lat="49.27219" lon="0.02612">
        <ele>141.8</ele>
        <time>2023-09-03T11:38:13Z</time>
      </trkpt>
      <trkpt lat="49.27219" lon="0.02615">
        <ele>141.8</ele>
        <time>2023-09-03T11:38:14Z</time>
      </trkpt>
      <trkpt lat="49.27223" lon="0.02614">
        <ele>141.7</ele>
        <time>2023-09-03T11:38:15Z</time>
      </trkpt>
      <trkpt lat="49.27224" lon="0.02613">
        <ele>141.7</ele>
        <time>2023-09-03T11:38:16Z</time>
      </trkpt>
      <trkpt lat="49.27226" lon="0.02609">
        <ele>141.7</ele>
        <time>2023-09-03T11:38:17Z</time>
      </trkpt>
      <trkpt lat="49.27228" lon="0.02604">
        <ele>141.7</ele>
        <time>2023-09-03T11:38:18Z</time>
      </trkpt>
      <trkpt lat="49.2723" lon="0.02599">
        <ele>141.7</ele>
        <time>2023-09-03T11:38:19Z</time>
      </trkpt>
      <trkpt lat="49.27233" lon="0.02594">
        <ele>141.6</ele>
        <time>2023-09-03T11:38:20Z</time>
      </trkpt>
      <trkpt lat="49.27236" lon="0.02588">
        <ele>141.6</ele>
        <time>2023-09-03T11:38:21Z</time>
      </trkpt>
      <trkpt lat="49.27239" lon="0.02582">
        <ele>141.6</ele>
        <time>2023-09-03T11:38:22Z</time>
      </trkpt>
      <trkpt lat="49.27242" lon="0.02575">
        <ele>141.6</ele>
        <time>2023-09-03T11:38:23Z</time>
      </trkpt>
      <trkpt lat="49.27245" lon="0.02568">
        <ele>141.6</ele>
        <time>2023-09-03T11:38:24Z</time>
      </trkpt>
      <trkpt lat="49.27248" lon="0.02561">
        <ele>141.5</ele>
        <time>2023-09-03T11:38:25Z</time>
      </trkpt>
      <trkpt lat="49.27251" lon="0.02555">
        <ele>141.5</ele>
        <time>2023-09-03T11:38:26Z</time>
      </trkpt>
      <trkpt lat="49.27254" lon="0.02548">
        <ele>141.5</ele>
        <time>2023-09-03T11:38:27Z</time>
      </trkpt>
      <trkpt lat="49.27258" lon="0.02542">
        <ele>141.4</ele>
        <time>2023-09-03T11:38:28Z</time>
      </trkpt>
      <trkpt lat="49.27261" lon="0.02534">
        <ele>141.4</ele>
        <time>2023-09-03T11:38:29Z</time>
      </trkpt>
      <trkpt lat="49.27263" lon="0.02528">
        <ele>141.4</ele>
        <time>2023-09-03T11:38:30Z</time>
      </trkpt>
      <trkpt lat="49.27267" lon="0.02522">
        <ele>141.3</ele>
        <time>2023-09-03T11:38:31Z</time>
      </trkpt>
      <trkpt lat="49.2727" lon="0.02516">
        <ele>141.3</ele>
        <time>2023-09-03T11:38:32Z</time>
      </trkpt>
      <trkpt lat="49.27273" lon="0.02509">
        <ele>141.3</ele>
        <time>2023-09-03T11:38:33Z</time>
      </trkpt>
      <trkpt lat="49.27276" lon="0.02503">
        <ele>141.2</ele>
        <time>2023-09-03T11:38:34Z</time>
      </trkpt>
      <trkpt lat="49.27279" lon="0.02496">
        <ele>141.2</ele>
        <time>2023-09-03T11:38:35Z</time>
      </trkpt>
      <trkpt lat="49.27282" lon="0.02489">
        <ele>141.1</ele>
        <time>2023-09-03T11:38:36Z</time>
      </trkpt>
      <trkpt lat="49.27285" lon="0.02483">
        <ele>141.1</ele>
        <time>2023-09-03T11:38:37Z</time>
      </trkpt>
      <trkpt lat="49.27288" lon="0.02477">
        <ele>141</ele>
        <time>2023-09-03T11:38:38Z</time>
      </trkpt>
      <trkpt lat="49.27291" lon="0.02471">
        <ele>141</ele>
        <time>2023-09-03T11:38:39Z</time>
      </trkpt>
      <trkpt lat="49.27294" lon="0.02465">
        <ele>141</ele>
        <time>2023-09-03T11:38:40Z</time>
      </trkpt>
      <trkpt lat="49.27296" lon="0.02459">
        <ele>140.9</ele>
        <time>2023-09-03T11:38:41Z</time>
      </trkpt>
      <trkpt lat="49.273" lon="0.02452">
        <ele>140.9</ele>
        <time>2023-09-03T11:38:42Z</time>
      </trkpt>
      <trkpt lat="49.27303" lon="0.02445">
        <ele>140.9</ele>
        <time>2023-09-03T11:38:43Z</time>
      </trkpt>
      <trkpt lat="49.27307" lon="0.02437">
        <ele>140.9</ele>
        <time>2023-09-03T11:38:44Z</time>
      </trkpt>
      <trkpt lat="49.2731" lon="0.02429">
        <ele>140.9</ele>
        <time>2023-09-03T11:38:45Z</time>
      </trkpt>
      <trkpt lat="49.27314" lon="0.02421">
        <ele>141</ele>
        <time>2023-09-03T11:38:46Z</time>
      </trkpt>
      <trkpt lat="49.27317" lon="0.02414">
        <ele>141</ele>
        <time>2023-09-03T11:38:47Z</time>
      </trkpt>
      <trkpt lat="49.2732" lon="0.02406">
        <ele>140.9</ele>
        <time>2023-09-03T11:38:48Z</time>
      </trkpt>
      <trkpt lat="49.27324" lon="0.02397">
        <ele>140.9</ele>
        <time>2023-09-03T11:38:49Z</time>
      </trkpt>
      <trkpt lat="49.27326" lon="0.02388">
        <ele>140.9</ele>
        <time>2023-09-03T11:38:50Z</time>
      </trkpt>
      <trkpt lat="49.2733" lon="0.0238">
        <ele>140.9</ele>
        <time>2023-09-03T11:38:51Z</time>
      </trkpt>
      <trkpt lat="49.27333" lon="0.0237">
        <ele>140.9</ele>
        <time>2023-09-03T11:38:52Z</time>
      </trkpt>
      <trkpt lat="49.27336" lon="0.02361">
        <ele>140.9</ele>
        <time>2023-09-03T11:38:53Z</time>
      </trkpt>
      <trkpt lat="49.27339" lon="0.02353">
        <ele>140.9</ele>
        <time>2023-09-03T11:38:54Z</time>
      </trkpt>
      <trkpt lat="49.27343" lon="0.02344">
        <ele>140.9</ele>
        <time>2023-09-03T11:38:55Z</time>
      </trkpt>
      <trkpt lat="49.27346" lon="0.02335">
        <ele>140.9</ele>
        <time>2023-09-03T11:38:56Z</time>
      </trkpt>
      <trkpt lat="49.2735" lon="0.02326">
        <ele>140.9</ele>
        <time>2023-09-03T11:38:57Z</time>
      </trkpt>
      <trkpt lat="49.27354" lon="0.02317">
        <ele>141</ele>
        <time>2023-09-03T11:38:58Z</time>
      </trkpt>
      <trkpt lat="49.27357" lon="0.02308">
        <ele>141</ele>
        <time>2023-09-03T11:38:59Z</time>
      </trkpt>
      <trkpt lat="49.2736" lon="0.023">
        <ele>141.1</ele>
        <time>2023-09-03T11:39:00Z</time>
      </trkpt>
      <trkpt lat="49.27364" lon="0.02292">
        <ele>141.2</ele>
        <time>2023-09-03T11:39:01Z</time>
      </trkpt>
      <trkpt lat="49.27367" lon="0.02284">
        <ele>141.3</ele>
        <time>2023-09-03T11:39:02Z</time>
      </trkpt>
      <trkpt lat="49.27371" lon="0.02276">
        <ele>141.4</ele>
        <time>2023-09-03T11:39:03Z</time>
      </trkpt>
      <trkpt lat="49.27374" lon="0.02268">
        <ele>141.4</ele>
        <time>2023-09-03T11:39:04Z</time>
      </trkpt>
      <trkpt lat="49.27377" lon="0.0226">
        <ele>141.4</ele>
        <time>2023-09-03T11:39:05Z</time>
      </trkpt>
      <trkpt lat="49.27381" lon="0.02252">
        <ele>141.4</ele>
        <time>2023-09-03T11:39:06Z</time>
      </trkpt>
      <trkpt lat="49.27384" lon="0.02243">
        <ele>141.5</ele>
        <time>2023-09-03T11:39:07Z</time>
      </trkpt>
      <trkpt lat="49.27387" lon="0.02234">
        <ele>141.5</ele>
        <time>2023-09-03T11:39:08Z</time>
      </trkpt>
      <trkpt lat="49.2739" lon="0.02226">
        <ele>141.5</ele>
        <time>2023-09-03T11:39:09Z</time>
      </trkpt>
      <trkpt lat="49.27393" lon="0.02218">
        <ele>141.5</ele>
        <time>2023-09-03T11:39:10Z</time>
      </trkpt>
      <trkpt lat="49.27396" lon="0.02211">
        <ele>141.5</ele>
        <time>2023-09-03T11:39:11Z</time>
      </trkpt>
      <trkpt lat="49.27399" lon="0.02203">
        <ele>141.5</ele>
        <time>2023-09-03T11:39:12Z</time>
      </trkpt>
      <trkpt lat="49.27402" lon="0.02196">
        <ele>141.5</ele>
        <time>2023-09-03T11:39:13Z</time>
      </trkpt>
      <trkpt lat="49.27405" lon="0.02189">
        <ele>141.5</ele>
        <time>2023-09-03T11:39:14Z</time>
      </trkpt>
      <trkpt lat="49.27408" lon="0.02181">
        <ele>141.5</ele>
        <time>2023-09-03T11:39:15Z</time>
      </trkpt>
      <trkpt lat="49.27411" lon="0.02174">
        <ele>141.6</ele>
        <time>2023-09-03T11:39:16Z</time>
      </trkpt>
      <trkpt lat="49.27414" lon="0.02167">
        <ele>141.6</ele>
        <time>2023-09-03T11:39:17Z</time>
      </trkpt>
      <trkpt lat="49.27417" lon="0.02161">
        <ele>141.6</ele>
        <time>2023-09-03T11:39:18Z</time>
      </trkpt>
      <trkpt lat="49.27419" lon="0.02154">
        <ele>141.6</ele>
        <time>2023-09-03T11:39:19Z</time>
      </trkpt>
      <trkpt lat="49.27422" lon="0.02147">
        <ele>141.6</ele>
        <time>2023-09-03T11:39:20Z</time>
      </trkpt>
      <trkpt lat="49.27424" lon="0.02139">
        <ele>141.6</ele>
        <time>2023-09-03T11:39:21Z</time>
      </trkpt>
      <trkpt lat="49.27427" lon="0.02132">
        <ele>141.7</ele>
        <time>2023-09-03T11:39:22Z</time>
      </trkpt>
      <trkpt lat="49.2743" lon="0.02125">
        <ele>141.7</ele>
        <time>2023-09-03T11:39:23Z</time>
      </trkpt>
      <trkpt lat="49.27434" lon="0.02117">
        <ele>141.7</ele>
        <time>2023-09-03T11:39:24Z</time>
      </trkpt>
      <trkpt lat="49.27437" lon="0.02109">
        <ele>141.7</ele>
        <time>2023-09-03T11:39:25Z</time>
      </trkpt>
      <trkpt lat="49.2744" lon="0.02101">
        <ele>141.7</ele>
        <time>2023-09-03T11:39:26Z</time>
      </trkpt>
      <trkpt lat="49.27444" lon="0.02093">
        <ele>141.7</ele>
        <time>2023-09-03T11:39:27Z</time>
      </trkpt>
      <trkpt lat="49.27447" lon="0.02084">
        <ele>141.8</ele>
        <time>2023-09-03T11:39:28Z</time>
      </trkpt>
      <trkpt lat="49.27451" lon="0.02076">
        <ele>141.8</ele>
        <time>2023-09-03T11:39:29Z</time>
      </trkpt>
      <trkpt lat="49.27454" lon="0.02067">
        <ele>141.8</ele>
        <time>2023-09-03T11:39:30Z</time>
      </trkpt>
      <trkpt lat="49.27457" lon="0.02058">
        <ele>141.7</ele>
        <time>2023-09-03T11:39:31Z</time>
      </trkpt>
      <trkpt lat="49.2746" lon="0.02049">
        <ele>141.7</ele>
        <time>2023-09-03T11:39:32Z</time>
      </trkpt>
      <trkpt lat="49.27463" lon="0.0204">
        <ele>141.7</ele>
        <time>2023-09-03T11:39:33Z</time>
      </trkpt>
      <trkpt lat="49.27466" lon="0.02031">
        <ele>141.7</ele>
        <time>2023-09-03T11:39:34Z</time>
      </trkpt>
      <trkpt lat="49.27469" lon="0.02022">
        <ele>141.6</ele>
        <time>2023-09-03T11:39:35Z</time>
      </trkpt>
      <trkpt lat="49.27472" lon="0.02013">
        <ele>141.6</ele>
        <time>2023-09-03T11:39:36Z</time>
      </trkpt>
      <trkpt lat="49.27475" lon="0.02004">
        <ele>141.5</ele>
        <time>2023-09-03T11:39:37Z</time>
      </trkpt>
      <trkpt lat="49.27477" lon="0.01995">
        <ele>141.5</ele>
        <time>2023-09-03T11:39:38Z</time>
      </trkpt>
      <trkpt lat="49.2748" lon="0.01986">
        <ele>141.4</ele>
        <time>2023-09-03T11:39:39Z</time>
      </trkpt>
      <trkpt lat="49.27483" lon="0.01977">
        <ele>141.4</ele>
        <time>2023-09-03T11:39:40Z</time>
      </trkpt>
      <trkpt lat="49.27486" lon="0.01967">
        <ele>141.4</ele>
        <time>2023-09-03T11:39:41Z</time>
      </trkpt>
      <trkpt lat="49.27489" lon="0.01958">
        <ele>141.4</ele>
        <time>2023-09-03T11:39:42Z</time>
      </trkpt>
      <trkpt lat="49.27492" lon="0.01948">
        <ele>141.4</ele>
        <time>2023-09-03T11:39:43Z</time>
      </trkpt>
      <trkpt lat="49.27495" lon="0.01938">
        <ele>141.3</ele>
        <time>2023-09-03T11:39:44Z</time>
      </trkpt>
      <trkpt lat="49.27498" lon="0.01929">
        <ele>141.3</ele>
        <time>2023-09-03T11:39:45Z</time>
      </trkpt>
      <trkpt lat="49.27502" lon="0.01919">
        <ele>141.2</ele>
        <time>2023-09-03T11:39:46Z</time>
      </trkpt>
      <trkpt lat="49.27504" lon="0.01909">
        <ele>141.2</ele>
        <time>2023-09-03T11:39:47Z</time>
      </trkpt>
      <trkpt lat="49.27508" lon="0.01899">
        <ele>141.2</ele>
        <time>2023-09-03T11:39:48Z</time>
      </trkpt>
      <trkpt lat="49.2751" lon="0.01889">
        <ele>141.1</ele>
        <time>2023-09-03T11:39:49Z</time>
      </trkpt>
      <trkpt lat="49.27513" lon="0.0188">
        <ele>141.1</ele>
        <time>2023-09-03T11:39:50Z</time>
      </trkpt>
      <trkpt lat="49.27515" lon="0.0187">
        <ele>141.1</ele>
        <time>2023-09-03T11:39:51Z</time>
      </trkpt>
      <trkpt lat="49.27518" lon="0.0186">
        <ele>141.1</ele>
        <time>2023-09-03T11:39:52Z</time>
      </trkpt>
      <trkpt lat="49.27521" lon="0.01851">
        <ele>141</ele>
        <time>2023-09-03T11:39:53Z</time>
      </trkpt>
      <trkpt lat="49.27524" lon="0.01842">
        <ele>141</ele>
        <time>2023-09-03T11:39:54Z</time>
      </trkpt>
      <trkpt lat="49.27527" lon="0.01833">
        <ele>140.9</ele>
        <time>2023-09-03T11:39:55Z</time>
      </trkpt>
      <trkpt lat="49.2753" lon="0.01823">
        <ele>140.9</ele>
        <time>2023-09-03T11:39:56Z</time>
      </trkpt>
      <trkpt lat="49.27533" lon="0.01814">
        <ele>140.8</ele>
        <time>2023-09-03T11:39:57Z</time>
      </trkpt>
      <trkpt lat="49.27535" lon="0.01805">
        <ele>140.8</ele>
        <time>2023-09-03T11:39:58Z</time>
      </trkpt>
      <trkpt lat="49.27538" lon="0.01795">
        <ele>140.7</ele>
        <time>2023-09-03T11:39:59Z</time>
      </trkpt>
      <trkpt lat="49.27541" lon="0.01786">
        <ele>140.7</ele>
        <time>2023-09-03T11:40:00Z</time>
      </trkpt>
      <trkpt lat="49.27544" lon="0.01776">
        <ele>140.7</ele>
        <time>2023-09-03T11:40:01Z</time>
      </trkpt>
      <trkpt lat="49.27547" lon="0.01767">
        <ele>140.6</ele>
        <time>2023-09-03T11:40:02Z</time>
      </trkpt>
      <trkpt lat="49.2755" lon="0.01757">
        <ele>140.6</ele>
        <time>2023-09-03T11:40:03Z</time>
      </trkpt>
      <trkpt lat="49.27552" lon="0.01747">
        <ele>140.6</ele>
        <time>2023-09-03T11:40:04Z</time>
      </trkpt>
      <trkpt lat="49.27555" lon="0.01737">
        <ele>140.6</ele>
        <time>2023-09-03T11:40:05Z</time>
      </trkpt>
      <trkpt lat="49.27558" lon="0.01728">
        <ele>140.5</ele>
        <time>2023-09-03T11:40:06Z</time>
      </trkpt>
      <trkpt lat="49.27561" lon="0.01718">
        <ele>140.5</ele>
        <time>2023-09-03T11:40:07Z</time>
      </trkpt>
      <trkpt lat="49.27564" lon="0.01709">
        <ele>140.5</ele>
        <time>2023-09-03T11:40:08Z</time>
      </trkpt>
      <trkpt lat="49.27566" lon="0.01699">
        <ele>140.4</ele>
        <time>2023-09-03T11:40:09Z</time>
      </trkpt>
      <trkpt lat="49.27569" lon="0.0169">
        <ele>140.4</ele>
        <time>2023-09-03T11:40:10Z</time>
      </trkpt>
      <trkpt lat="49.27572" lon="0.0168">
        <ele>140.3</ele>
        <time>2023-09-03T11:40:11Z</time>
      </trkpt>
      <trkpt lat="49.27575" lon="0.0167">
        <ele>140.3</ele>
        <time>2023-09-03T11:40:12Z</time>
      </trkpt>
      <trkpt lat="49.27578" lon="0.0166">
        <ele>140.3</ele>
        <time>2023-09-03T11:40:13Z</time>
      </trkpt>
      <trkpt lat="49.2758" lon="0.0165">
        <ele>140.3</ele>
        <time>2023-09-03T11:40:14Z</time>
      </trkpt>
      <trkpt lat="49.27583" lon="0.0164">
        <ele>140.3</ele>
        <time>2023-09-03T11:40:15Z</time>
      </trkpt>
      <trkpt lat="49.27586" lon="0.01631">
        <ele>140.2</ele>
        <time>2023-09-03T11:40:16Z</time>
      </trkpt>
      <trkpt lat="49.27589" lon="0.01621">
        <ele>140.2</ele>
        <time>2023-09-03T11:40:17Z</time>
      </trkpt>
      <trkpt lat="49.27592" lon="0.01611">
        <ele>140.2</ele>
        <time>2023-09-03T11:40:18Z</time>
      </trkpt>
      <trkpt lat="49.27594" lon="0.01601">
        <ele>140.2</ele>
        <time>2023-09-03T11:40:19Z</time>
      </trkpt>
      <trkpt lat="49.27597" lon="0.01591">
        <ele>140.2</ele>
        <time>2023-09-03T11:40:20Z</time>
      </trkpt>
      <trkpt lat="49.276" lon="0.01581">
        <ele>140.1</ele>
        <time>2023-09-03T11:40:21Z</time>
      </trkpt>
      <trkpt lat="49.27603" lon="0.0157">
        <ele>140.1</ele>
        <time>2023-09-03T11:40:22Z</time>
      </trkpt>
      <trkpt lat="49.27605" lon="0.0156">
        <ele>140</ele>
        <time>2023-09-03T11:40:23Z</time>
      </trkpt>
      <trkpt lat="49.27608" lon="0.01549">
        <ele>140</ele>
        <time>2023-09-03T11:40:24Z</time>
      </trkpt>
      <trkpt lat="49.27611" lon="0.01538">
        <ele>140</ele>
        <time>2023-09-03T11:40:25Z</time>
      </trkpt>
      <trkpt lat="49.27613" lon="0.01527">
        <ele>140</ele>
        <time>2023-09-03T11:40:26Z</time>
      </trkpt>
      <trkpt lat="49.27615" lon="0.01516">
        <ele>140</ele>
        <time>2023-09-03T11:40:27Z</time>
      </trkpt>
      <trkpt lat="49.27617" lon="0.01505">
        <ele>140</ele>
        <time>2023-09-03T11:40:28Z</time>
      </trkpt>
      <trkpt lat="49.27619" lon="0.01494">
        <ele>140</ele>
        <time>2023-09-03T11:40:29Z</time>
      </trkpt>
      <trkpt lat="49.27621" lon="0.01483">
        <ele>139.9</ele>
        <time>2023-09-03T11:40:30Z</time>
      </trkpt>
      <trkpt lat="49.27623" lon="0.01471">
        <ele>139.9</ele>
        <time>2023-09-03T11:40:31Z</time>
      </trkpt>
      <trkpt lat="49.27625" lon="0.0146">
        <ele>139.8</ele>
        <time>2023-09-03T11:40:32Z</time>
      </trkpt>
      <trkpt lat="49.27627" lon="0.01448">
        <ele>139.8</ele>
        <time>2023-09-03T11:40:33Z</time>
      </trkpt>
      <trkpt lat="49.27629" lon="0.01437">
        <ele>139.7</ele>
        <time>2023-09-03T11:40:34Z</time>
      </trkpt>
      <trkpt lat="49.27631" lon="0.01425">
        <ele>139.7</ele>
        <time>2023-09-03T11:40:35Z</time>
      </trkpt>
      <trkpt lat="49.27632" lon="0.01413">
        <ele>139.7</ele>
        <time>2023-09-03T11:40:36Z</time>
      </trkpt>
      <trkpt lat="49.27634" lon="0.01401">
        <ele>139.7</ele>
        <time>2023-09-03T11:40:37Z</time>
      </trkpt>
      <trkpt lat="49.27635" lon="0.01389">
        <ele>139.7</ele>
        <time>2023-09-03T11:40:38Z</time>
      </trkpt>
      <trkpt lat="49.27637" lon="0.01378">
        <ele>139.7</ele>
        <time>2023-09-03T11:40:39Z</time>
      </trkpt>
      <trkpt lat="49.27638" lon="0.01366">
        <ele>139.7</ele>
        <time>2023-09-03T11:40:40Z</time>
      </trkpt>
      <trkpt lat="49.2764" lon="0.01354">
        <ele>139.7</ele>
        <time>2023-09-03T11:40:41Z</time>
      </trkpt>
      <trkpt lat="49.27641" lon="0.01342">
        <ele>139.8</ele>
        <time>2023-09-03T11:40:42Z</time>
      </trkpt>
      <trkpt lat="49.27643" lon="0.01331">
        <ele>139.8</ele>
        <time>2023-09-03T11:40:43Z</time>
      </trkpt>
      <trkpt lat="49.27644" lon="0.0132">
        <ele>139.8</ele>
        <time>2023-09-03T11:40:44Z</time>
      </trkpt>
      <trkpt lat="49.27646" lon="0.01308">
        <ele>139.9</ele>
        <time>2023-09-03T11:40:45Z</time>
      </trkpt>
      <trkpt lat="49.27647" lon="0.01297">
        <ele>139.9</ele>
        <time>2023-09-03T11:40:46Z</time>
      </trkpt>
      <trkpt lat="49.27648" lon="0.01286">
        <ele>140</ele>
        <time>2023-09-03T11:40:47Z</time>
      </trkpt>
      <trkpt lat="49.27649" lon="0.01275">
        <ele>140.1</ele>
        <time>2023-09-03T11:40:48Z</time>
      </trkpt>
      <trkpt lat="49.2765" lon="0.01263">
        <ele>140.1</ele>
        <time>2023-09-03T11:40:49Z</time>
      </trkpt>
      <trkpt lat="49.27652" lon="0.01252">
        <ele>140.2</ele>
        <time>2023-09-03T11:40:50Z</time>
      </trkpt>
      <trkpt lat="49.27653" lon="0.01241">
        <ele>140.4</ele>
        <time>2023-09-03T11:40:51Z</time>
      </trkpt>
      <trkpt lat="49.27655" lon="0.01229">
        <ele>140.5</ele>
        <time>2023-09-03T11:40:52Z</time>
      </trkpt>
      <trkpt lat="49.27656" lon="0.01218">
        <ele>140.6</ele>
        <time>2023-09-03T11:40:53Z</time>
      </trkpt>
      <trkpt lat="49.27657" lon="0.01207">
        <ele>140.8</ele>
        <time>2023-09-03T11:40:54Z</time>
      </trkpt>
      <trkpt lat="49.27658" lon="0.01196">
        <ele>140.8</ele>
        <time>2023-09-03T11:40:55Z</time>
      </trkpt>
      <trkpt lat="49.2766" lon="0.01185">
        <ele>140.9</ele>
        <time>2023-09-03T11:40:56Z</time>
      </trkpt>
      <trkpt lat="49.27661" lon="0.01174">
        <ele>140.9</ele>
        <time>2023-09-03T11:40:57Z</time>
      </trkpt>
      <trkpt lat="49.27662" lon="0.01163">
        <ele>141</ele>
        <time>2023-09-03T11:40:58Z</time>
      </trkpt>
      <trkpt lat="49.27664" lon="0.01152">
        <ele>141.1</ele>
        <time>2023-09-03T11:40:59Z</time>
      </trkpt>
      <trkpt lat="49.27665" lon="0.01141">
        <ele>141.1</ele>
        <time>2023-09-03T11:41:00Z</time>
      </trkpt>
      <trkpt lat="49.27666" lon="0.0113">
        <ele>141.2</ele>
        <time>2023-09-03T11:41:01Z</time>
      </trkpt>
      <trkpt lat="49.27668" lon="0.01119">
        <ele>141.3</ele>
        <time>2023-09-03T11:41:02Z</time>
      </trkpt>
      <trkpt lat="49.27669" lon="0.01108">
        <ele>141.4</ele>
        <time>2023-09-03T11:41:03Z</time>
      </trkpt>
      <trkpt lat="49.2767" lon="0.01097">
        <ele>141.5</ele>
        <time>2023-09-03T11:41:04Z</time>
      </trkpt>
      <trkpt lat="49.27671" lon="0.01087">
        <ele>141.6</ele>
        <time>2023-09-03T11:41:05Z</time>
      </trkpt>
      <trkpt lat="49.27673" lon="0.01076">
        <ele>141.7</ele>
        <time>2023-09-03T11:41:06Z</time>
      </trkpt>
      <trkpt lat="49.27674" lon="0.01065">
        <ele>141.8</ele>
        <time>2023-09-03T11:41:07Z</time>
      </trkpt>
      <trkpt lat="49.27675" lon="0.01055">
        <ele>141.9</ele>
        <time>2023-09-03T11:41:08Z</time>
      </trkpt>
      <trkpt lat="49.27676" lon="0.01044">
        <ele>142</ele>
        <time>2023-09-03T11:41:09Z</time>
      </trkpt>
      <trkpt lat="49.27677" lon="0.01034">
        <ele>142.1</ele>
        <time>2023-09-03T11:41:10Z</time>
      </trkpt>
      <trkpt lat="49.27678" lon="0.01023">
        <ele>142.2</ele>
        <time>2023-09-03T11:41:11Z</time>
      </trkpt>
      <trkpt lat="49.2768" lon="0.01013">
        <ele>142.3</ele>
        <time>2023-09-03T11:41:12Z</time>
      </trkpt>
      <trkpt lat="49.27681" lon="0.01004">
        <ele>142.4</ele>
        <time>2023-09-03T11:41:13Z</time>
      </trkpt>
      <trkpt lat="49.27682" lon="0.00994">
        <ele>142.5</ele>
        <time>2023-09-03T11:41:14Z</time>
      </trkpt>
      <trkpt lat="49.27683" lon="0.00985">
        <ele>142.5</ele>
        <time>2023-09-03T11:41:15Z</time>
      </trkpt>
      <trkpt lat="49.27685" lon="0.00976">
        <ele>142.6</ele>
        <time>2023-09-03T11:41:16Z</time>
      </trkpt>
      <trkpt lat="49.27686" lon="0.00966">
        <ele>142.6</ele>
        <time>2023-09-03T11:41:17Z</time>
      </trkpt>
      <trkpt lat="49.27688" lon="0.00957">
        <ele>142.6</ele>
        <time>2023-09-03T11:41:18Z</time>
      </trkpt>
      <trkpt lat="49.2769" lon="0.00948">
        <ele>142.6</ele>
        <time>2023-09-03T11:41:19Z</time>
      </trkpt>
      <trkpt lat="49.27692" lon="0.00938">
        <ele>142.7</ele>
        <time>2023-09-03T11:41:20Z</time>
      </trkpt>
      <trkpt lat="49.27694" lon="0.00929">
        <ele>142.7</ele>
        <time>2023-09-03T11:41:21Z</time>
      </trkpt>
      <trkpt lat="49.27696" lon="0.00919">
        <ele>142.7</ele>
        <time>2023-09-03T11:41:22Z</time>
      </trkpt>
      <trkpt lat="49.27699" lon="0.00909">
        <ele>142.7</ele>
        <time>2023-09-03T11:41:23Z</time>
      </trkpt>
      <trkpt lat="49.27702" lon="0.009">
        <ele>142.7</ele>
        <time>2023-09-03T11:41:24Z</time>
      </trkpt>
      <trkpt lat="49.27706" lon="0.00891">
        <ele>142.7</ele>
        <time>2023-09-03T11:41:25Z</time>
      </trkpt>
      <trkpt lat="49.27709" lon="0.00881">
        <ele>142.7</ele>
        <time>2023-09-03T11:41:26Z</time>
      </trkpt>
      <trkpt lat="49.27713" lon="0.00872">
        <ele>142.7</ele>
        <time>2023-09-03T11:41:27Z</time>
      </trkpt>
      <trkpt lat="49.27717" lon="0.00863">
        <ele>142.7</ele>
        <time>2023-09-03T11:41:28Z</time>
      </trkpt>
      <trkpt lat="49.2772" lon="0.00854">
        <ele>142.7</ele>
        <time>2023-09-03T11:41:29Z</time>
      </trkpt>
      <trkpt lat="49.27724" lon="0.00845">
        <ele>142.8</ele>
        <time>2023-09-03T11:41:30Z</time>
      </trkpt>
      <trkpt lat="49.27729" lon="0.00837">
        <ele>142.8</ele>
        <time>2023-09-03T11:41:31Z</time>
      </trkpt>
      <trkpt lat="49.27733" lon="0.00828">
        <ele>142.8</ele>
        <time>2023-09-03T11:41:32Z</time>
      </trkpt>
      <trkpt lat="49.27737" lon="0.0082">
        <ele>142.9</ele>
        <time>2023-09-03T11:41:33Z</time>
      </trkpt>
      <trkpt lat="49.27742" lon="0.00812">
        <ele>142.9</ele>
        <time>2023-09-03T11:41:34Z</time>
      </trkpt>
      <trkpt lat="49.27746" lon="0.00804">
        <ele>143</ele>
        <time>2023-09-03T11:41:35Z</time>
      </trkpt>
      <trkpt lat="49.2775" lon="0.00796">
        <ele>143</ele>
        <time>2023-09-03T11:41:36Z</time>
      </trkpt>
      <trkpt lat="49.27755" lon="0.00787">
        <ele>142.9</ele>
        <time>2023-09-03T11:41:37Z</time>
      </trkpt>
      <trkpt lat="49.27759" lon="0.00779">
        <ele>142.9</ele>
        <time>2023-09-03T11:41:38Z</time>
      </trkpt>
      <trkpt lat="49.27764" lon="0.00771">
        <ele>142.9</ele>
        <time>2023-09-03T11:41:39Z</time>
      </trkpt>
      <trkpt lat="49.27768" lon="0.00763">
        <ele>142.9</ele>
        <time>2023-09-03T11:41:40Z</time>
      </trkpt>
      <trkpt lat="49.27772" lon="0.00755">
        <ele>142.9</ele>
        <time>2023-09-03T11:41:41Z</time>
      </trkpt>
      <trkpt lat="49.27777" lon="0.00746">
        <ele>142.9</ele>
        <time>2023-09-03T11:41:42Z</time>
      </trkpt>
      <trkpt lat="49.27782" lon="0.00738">
        <ele>142.9</ele>
        <time>2023-09-03T11:41:43Z</time>
      </trkpt>
      <trkpt lat="49.27786" lon="0.0073">
        <ele>142.9</ele>
        <time>2023-09-03T11:41:44Z</time>
      </trkpt>
      <trkpt lat="49.2779" lon="0.00722">
        <ele>142.9</ele>
        <time>2023-09-03T11:41:45Z</time>
      </trkpt>
      <trkpt lat="49.27795" lon="0.00713">
        <ele>142.9</ele>
        <time>2023-09-03T11:41:46Z</time>
      </trkpt>
      <trkpt lat="49.278" lon="0.00705">
        <ele>143</ele>
        <time>2023-09-03T11:41:47Z</time>
      </trkpt>
      <trkpt lat="49.27804" lon="0.00697">
        <ele>143</ele>
        <time>2023-09-03T11:41:48Z</time>
      </trkpt>
      <trkpt lat="49.27809" lon="0.00689">
        <ele>143</ele>
        <time>2023-09-03T11:41:49Z</time>
      </trkpt>
      <trkpt lat="49.27814" lon="0.00681">
        <ele>143.1</ele>
        <time>2023-09-03T11:41:50Z</time>
      </trkpt>
      <trkpt lat="49.27819" lon="0.00674">
        <ele>143.1</ele>
        <time>2023-09-03T11:41:51Z</time>
      </trkpt>
      <trkpt lat="49.27824" lon="0.00667">
        <ele>143.2</ele>
        <time>2023-09-03T11:41:52Z</time>
      </trkpt>
      <trkpt lat="49.2783" lon="0.0066">
        <ele>143.3</ele>
        <time>2023-09-03T11:41:53Z</time>
      </trkpt>
      <trkpt lat="49.27835" lon="0.00654">
        <ele>143.3</ele>
        <time>2023-09-03T11:41:54Z</time>
      </trkpt>
      <trkpt lat="49.27841" lon="0.00649">
        <ele>143.3</ele>
        <time>2023-09-03T11:41:55Z</time>
      </trkpt>
      <trkpt lat="49.27846" lon="0.00643">
        <ele>143.4</ele>
        <time>2023-09-03T11:41:56Z</time>
      </trkpt>
      <trkpt lat="49.27852" lon="0.00638">
        <ele>143.4</ele>
        <time>2023-09-03T11:41:57Z</time>
      </trkpt>
      <trkpt lat="49.27857" lon="0.00632">
        <ele>143.5</ele>
        <time>2023-09-03T11:41:58Z</time>
      </trkpt>
      <trkpt lat="49.27863" lon="0.00626">
        <ele>143.5</ele>
        <time>2023-09-03T11:41:59Z</time>
      </trkpt>
      <trkpt lat="49.27868" lon="0.0062">
        <ele>143.6</ele>
        <time>2023-09-03T11:42:00Z</time>
      </trkpt>
      <trkpt lat="49.27874" lon="0.00614">
        <ele>143.6</ele>
        <time>2023-09-03T11:42:01Z</time>
      </trkpt>
      <trkpt lat="49.27879" lon="0.00608">
        <ele>143.7</ele>
        <time>2023-09-03T11:42:02Z</time>
      </trkpt>
      <trkpt lat="49.27883" lon="0.00601">
        <ele>143.8</ele>
        <time>2023-09-03T11:42:03Z</time>
      </trkpt>
      <trkpt lat="49.27887" lon="0.00596">
        <ele>143.8</ele>
        <time>2023-09-03T11:42:04Z</time>
      </trkpt>
      <trkpt lat="49.27891" lon="0.00591">
        <ele>143.9</ele>
        <time>2023-09-03T11:42:05Z</time>
      </trkpt>
      <trkpt lat="49.27895" lon="0.00586">
        <ele>144</ele>
        <time>2023-09-03T11:42:06Z</time>
      </trkpt>
      <trkpt lat="49.27899" lon="0.0058">
        <ele>144</ele>
        <time>2023-09-03T11:42:07Z</time>
      </trkpt>
      <trkpt lat="49.27903" lon="0.00575">
        <ele>144.1</ele>
        <time>2023-09-03T11:42:08Z</time>
      </trkpt>
      <trkpt lat="49.27907" lon="0.00569">
        <ele>144.2</ele>
        <time>2023-09-03T11:42:09Z</time>
      </trkpt>
      <trkpt lat="49.27911" lon="0.00563">
        <ele>144.3</ele>
        <time>2023-09-03T11:42:10Z</time>
      </trkpt>
      <trkpt lat="49.27915" lon="0.00557">
        <ele>144.3</ele>
        <time>2023-09-03T11:42:11Z</time>
      </trkpt>
      <trkpt lat="49.27919" lon="0.00551">
        <ele>144.4</ele>
        <time>2023-09-03T11:42:12Z</time>
      </trkpt>
      <trkpt lat="49.27922" lon="0.00545">
        <ele>144.5</ele>
        <time>2023-09-03T11:42:13Z</time>
      </trkpt>
      <trkpt lat="49.27925" lon="0.00539">
        <ele>144.5</ele>
        <time>2023-09-03T11:42:14Z</time>
      </trkpt>
      <trkpt lat="49.27929" lon="0.00533">
        <ele>144.6</ele>
        <time>2023-09-03T11:42:15Z</time>
      </trkpt>
      <trkpt lat="49.27932" lon="0.00526">
        <ele>144.7</ele>
        <time>2023-09-03T11:42:16Z</time>
      </trkpt>
      <trkpt lat="49.27936" lon="0.0052">
        <ele>144.7</ele>
        <time>2023-09-03T11:42:17Z</time>
      </trkpt>
      <trkpt lat="49.27939" lon="0.00514">
        <ele>144.8</ele>
        <time>2023-09-03T11:42:18Z</time>
      </trkpt>
      <trkpt lat="49.27942" lon="0.00507">
        <ele>144.9</ele>
        <time>2023-09-03T11:42:19Z</time>
      </trkpt>
      <trkpt lat="49.27946" lon="0.005">
        <ele>144.9</ele>
        <time>2023-09-03T11:42:20Z</time>
      </trkpt>
      <trkpt lat="49.27949" lon="0.00494">
        <ele>144.9</ele>
        <time>2023-09-03T11:42:21Z</time>
      </trkpt>
      <trkpt lat="49.27952" lon="0.00487">
        <ele>145</ele>
        <time>2023-09-03T11:42:22Z</time>
      </trkpt>
      <trkpt lat="49.27956" lon="0.00481">
        <ele>145</ele>
        <time>2023-09-03T11:42:23Z</time>
      </trkpt>
      <trkpt lat="49.27959" lon="0.00474">
        <ele>145.1</ele>
        <time>2023-09-03T11:42:24Z</time>
      </trkpt>
      <trkpt lat="49.27963" lon="0.00468">
        <ele>145.1</ele>
        <time>2023-09-03T11:42:25Z</time>
      </trkpt>
      <trkpt lat="49.27966" lon="0.00462">
        <ele>145.2</ele>
        <time>2023-09-03T11:42:26Z</time>
      </trkpt>
      <trkpt lat="49.27969" lon="0.00456">
        <ele>145.2</ele>
        <time>2023-09-03T11:42:27Z</time>
      </trkpt>
      <trkpt lat="49.27972" lon="0.00449">
        <ele>145.2</ele>
        <time>2023-09-03T11:42:28Z</time>
      </trkpt>
      <trkpt lat="49.27976" lon="0.00443">
        <ele>145.3</ele>
        <time>2023-09-03T11:42:29Z</time>
      </trkpt>
      <trkpt lat="49.27979" lon="0.00437">
        <ele>145.4</ele>
        <time>2023-09-03T11:42:30Z</time>
      </trkpt>
      <trkpt lat="49.27983" lon="0.00431">
        <ele>145.4</ele>
        <time>2023-09-03T11:42:31Z</time>
      </trkpt>
      <trkpt lat="49.27986" lon="0.00424">
        <ele>145.5</ele>
        <time>2023-09-03T11:42:32Z</time>
      </trkpt>
      <trkpt lat="49.2799" lon="0.00417">
        <ele>145.7</ele>
        <time>2023-09-03T11:42:33Z</time>
      </trkpt>
      <trkpt lat="49.27993" lon="0.0041">
        <ele>145.7</ele>
        <time>2023-09-03T11:42:34Z</time>
      </trkpt>
      <trkpt lat="49.27997" lon="0.00403">
        <ele>145.8</ele>
        <time>2023-09-03T11:42:35Z</time>
      </trkpt>
      <trkpt lat="49.28001" lon="0.00396">
        <ele>145.9</ele>
        <time>2023-09-03T11:42:36Z</time>
      </trkpt>
      <trkpt lat="49.28005" lon="0.00389">
        <ele>145.9</ele>
        <time>2023-09-03T11:42:37Z</time>
      </trkpt>
      <trkpt lat="49.28008" lon="0.00383">
        <ele>145.9</ele>
        <time>2023-09-03T11:42:38Z</time>
      </trkpt>
      <trkpt lat="49.28012" lon="0.00376">
        <ele>146</ele>
        <time>2023-09-03T11:42:39Z</time>
      </trkpt>
      <trkpt lat="49.28015" lon="0.00369">
        <ele>146</ele>
        <time>2023-09-03T11:42:40Z</time>
      </trkpt>
      <trkpt lat="49.28019" lon="0.00361">
        <ele>146</ele>
        <time>2023-09-03T11:42:41Z</time>
      </trkpt>
      <trkpt lat="49.28022" lon="0.00354">
        <ele>146.1</ele>
        <time>2023-09-03T11:42:42Z</time>
      </trkpt>
      <trkpt lat="49.28026" lon="0.00347">
        <ele>146.1</ele>
        <time>2023-09-03T11:42:43Z</time>
      </trkpt>
      <trkpt lat="49.28029" lon="0.00339">
        <ele>146.1</ele>
        <time>2023-09-03T11:42:44Z</time>
      </trkpt>
      <trkpt lat="49.28033" lon="0.00333">
        <ele>146.2</ele>
        <time>2023-09-03T11:42:45Z</time>
      </trkpt>
      <trkpt lat="49.28036" lon="0.00326">
        <ele>146.3</ele>
        <time>2023-09-03T11:42:46Z</time>
      </trkpt>
      <trkpt lat="49.2804" lon="0.0032">
        <ele>146.3</ele>
        <time>2023-09-03T11:42:47Z</time>
      </trkpt>
      <trkpt lat="49.28044" lon="0.00313">
        <ele>146.4</ele>
        <time>2023-09-03T11:42:48Z</time>
      </trkpt>
      <trkpt lat="49.28047" lon="0.00307">
        <ele>146.4</ele>
        <time>2023-09-03T11:42:49Z</time>
      </trkpt>
      <trkpt lat="49.2805" lon="0.003">
        <ele>146.5</ele>
        <time>2023-09-03T11:42:50Z</time>
      </trkpt>
      <trkpt lat="49.28054" lon="0.00293">
        <ele>146.5</ele>
        <time>2023-09-03T11:42:51Z</time>
      </trkpt>
      <trkpt lat="49.28058" lon="0.00286">
        <ele>146.6</ele>
        <time>2023-09-03T11:42:52Z</time>
      </trkpt>
      <trkpt lat="49.28061" lon="0.00279">
        <ele>146.6</ele>
        <time>2023-09-03T11:42:53Z</time>
      </trkpt>
      <trkpt lat="49.28064" lon="0.00273">
        <ele>146.6</ele>
        <time>2023-09-03T11:42:54Z</time>
      </trkpt>
      <trkpt lat="49.28067" lon="0.00266">
        <ele>146.6</ele>
        <time>2023-09-03T11:42:55Z</time>
      </trkpt>
      <trkpt lat="49.28071" lon="0.0026">
        <ele>146.7</ele>
        <time>2023-09-03T11:42:56Z</time>
      </trkpt>
      <trkpt lat="49.28074" lon="0.00253">
        <ele>146.7</ele>
        <time>2023-09-03T11:42:57Z</time>
      </trkpt>
      <trkpt lat="49.28077" lon="0.00246">
        <ele>146.7</ele>
        <time>2023-09-03T11:42:58Z</time>
      </trkpt>
      <trkpt lat="49.2808" lon="0.00239">
        <ele>146.7</ele>
        <time>2023-09-03T11:42:59Z</time>
      </trkpt>
      <trkpt lat="49.28083" lon="0.00232">
        <ele>146.7</ele>
        <time>2023-09-03T11:43:00Z</time>
      </trkpt>
      <trkpt lat="49.28086" lon="0.00225">
        <ele>146.7</ele>
        <time>2023-09-03T11:43:01Z</time>
      </trkpt>
      <trkpt lat="49.28089" lon="0.00217">
        <ele>146.7</ele>
        <time>2023-09-03T11:43:02Z</time>
      </trkpt>
      <trkpt lat="49.28092" lon="0.0021">
        <ele>146.7</ele>
        <time>2023-09-03T11:43:03Z</time>
      </trkpt>
      <trkpt lat="49.28095" lon="0.00202">
        <ele>146.7</ele>
        <time>2023-09-03T11:43:04Z</time>
      </trkpt>
      <trkpt lat="49.28098" lon="0.00195">
        <ele>146.7</ele>
        <time>2023-09-03T11:43:05Z</time>
      </trkpt>
      <trkpt lat="49.28101" lon="0.00187">
        <ele>146.7</ele>
        <time>2023-09-03T11:43:06Z</time>
      </trkpt>
      <trkpt lat="49.28104" lon="0.00179">
        <ele>146.6</ele>
        <time>2023-09-03T11:43:07Z</time>
      </trkpt>
      <trkpt lat="49.28106" lon="0.0017">
        <ele>146.5</ele>
        <time>2023-09-03T11:43:08Z</time>
      </trkpt>
      <trkpt lat="49.28109" lon="0.00162">
        <ele>146.4</ele>
        <time>2023-09-03T11:43:09Z</time>
      </trkpt>
      <trkpt lat="49.28111" lon="0.00154">
        <ele>146.4</ele>
        <time>2023-09-03T11:43:10Z</time>
      </trkpt>
      <trkpt lat="49.28114" lon="0.00146">
        <ele>146.3</ele>
        <time>2023-09-03T11:43:11Z</time>
      </trkpt>
      <trkpt lat="49.28116" lon="0.00137">
        <ele>146.3</ele>
        <time>2023-09-03T11:43:12Z</time>
      </trkpt>
      <trkpt lat="49.28119" lon="0.00129">
        <ele>146.3</ele>
        <time>2023-09-03T11:43:13Z</time>
      </trkpt>
      <trkpt lat="49.28121" lon="0.00121">
        <ele>146.3</ele>
        <time>2023-09-03T11:43:14Z</time>
      </trkpt>
      <trkpt lat="49.28123" lon="0.00113">
        <ele>146.4</ele>
        <time>2023-09-03T11:43:15Z</time>
      </trkpt>
      <trkpt lat="49.28125" lon="0.00105">
        <ele>146.5</ele>
        <time>2023-09-03T11:43:16Z</time>
      </trkpt>
      <trkpt lat="49.28128" lon="0.00098">
        <ele>146.5</ele>
        <time>2023-09-03T11:43:17Z</time>
      </trkpt>
      <trkpt lat="49.2813" lon="0.0009">
        <ele>146.6</ele>
        <time>2023-09-03T11:43:18Z</time>
      </trkpt>
      <trkpt lat="49.28133" lon="0.00082">
        <ele>146.6</ele>
        <time>2023-09-03T11:43:19Z</time>
      </trkpt>
      <trkpt lat="49.28136" lon="0.00075">
        <ele>146.6</ele>
        <time>2023-09-03T11:43:20Z</time>
      </trkpt>
      <trkpt lat="49.28138" lon="0.00068">
        <ele>146.6</ele>
        <time>2023-09-03T11:43:21Z</time>
      </trkpt>
      <trkpt lat="49.28141" lon="0.00062">
        <ele>146.5</ele>
        <time>2023-09-03T11:43:22Z</time>
      </trkpt>
      <trkpt lat="49.28143" lon="0.00057">
        <ele>146.5</ele>
        <time>2023-09-03T11:43:23Z</time>
      </trkpt>
      <trkpt lat="49.28146" lon="0.00052">
        <ele>146.5</ele>
        <time>2023-09-03T11:43:24Z</time>
      </trkpt>
      <trkpt lat="49.2815" lon="0.00048">
        <ele>146.5</ele>
        <time>2023-09-03T11:43:25Z</time>
      </trkpt>
      <trkpt lat="49.28153" lon="0.00045">
        <ele>146.5</ele>
        <time>2023-09-03T11:43:26Z</time>
      </trkpt>
      <trkpt lat="49.28157" lon="0.0004">
        <ele>146.4</ele>
        <time>2023-09-03T11:43:27Z</time>
      </trkpt>
      <trkpt lat="49.2816" lon="0.00034">
        <ele>146.3</ele>
        <time>2023-09-03T11:43:28Z</time>
      </trkpt>
      <trkpt lat="49.28161" lon="0.00026">
        <ele>146.2</ele>
        <time>2023-09-03T11:43:29Z</time>
      </trkpt>
      <trkpt lat="49.28161" lon="0.00018">
        <ele>146.2</ele>
        <time>2023-09-03T11:43:30Z</time>
      </trkpt>
      <trkpt lat="49.28158" lon="0.00011">
        <ele>146.2</ele>
        <time>2023-09-03T11:43:31Z</time>
      </trkpt>
      <trkpt lat="49.28154" lon="6.0E-5">
        <ele>146.3</ele>
        <time>2023-09-03T11:43:32Z</time>
      </trkpt>
      <trkpt lat="49.28149" lon="3.0E-5">
        <ele>146.4</ele>
        <time>2023-09-03T11:43:33Z</time>
      </trkpt>
      <trkpt lat="49.28144" lon="0">
        <ele>146.5</ele>
        <time>2023-09-03T11:43:34Z</time>
      </trkpt>
      <trkpt lat="49.28139" lon="-3.0E-5">
        <ele>146.5</ele>
        <time>2023-09-03T11:43:35Z</time>
      </trkpt>
      <trkpt lat="49.28134" lon="-8.0E-5">
        <ele>146.6</ele>
        <time>2023-09-03T11:43:36Z</time>
      </trkpt>
      <trkpt lat="49.28129" lon="-0.00012">
        <ele>146.6</ele>
        <time>2023-09-03T11:43:37Z</time>
      </trkpt>
      <trkpt lat="49.28125" lon="-0.00018">
        <ele>146.7</ele>
        <time>2023-09-03T11:43:38Z</time>
      </trkpt>
      <trkpt lat="49.28121" lon="-0.00025">
        <ele>146.8</ele>
        <time>2023-09-03T11:43:39Z</time>
      </trkpt>
      <trkpt lat="49.28117" lon="-0.00032">
        <ele>146.8</ele>
        <time>2023-09-03T11:43:40Z</time>
      </trkpt>
      <trkpt lat="49.28113" lon="-0.0004">
        <ele>146.9</ele>
        <time>2023-09-03T11:43:41Z</time>
      </trkpt>
      <trkpt lat="49.28109" lon="-0.00047">
        <ele>146.9</ele>
        <time>2023-09-03T11:43:42Z</time>
      </trkpt>
      <trkpt lat="49.28104" lon="-0.00055">
        <ele>146.9</ele>
        <time>2023-09-03T11:43:43Z</time>
      </trkpt>
      <trkpt lat="49.281" lon="-0.00062">
        <ele>147</ele>
        <time>2023-09-03T11:43:44Z</time>
      </trkpt>
      <trkpt lat="49.28096" lon="-0.00068">
        <ele>147</ele>
        <time>2023-09-03T11:43:45Z</time>
      </trkpt>
      <trkpt lat="49.28092" lon="-0.00074">
        <ele>147</ele>
        <time>2023-09-03T11:43:46Z</time>
      </trkpt>
      <trkpt lat="49.28088" lon="-0.0008">
        <ele>147</ele>
        <time>2023-09-03T11:43:47Z</time>
      </trkpt>
      <trkpt lat="49.28084" lon="-0.00086">
        <ele>147</ele>
        <time>2023-09-03T11:43:48Z</time>
      </trkpt>
      <trkpt lat="49.2808" lon="-0.00093">
        <ele>147</ele>
        <time>2023-09-03T11:43:49Z</time>
      </trkpt>
      <trkpt lat="49.28076" lon="-0.00099">
        <ele>147.1</ele>
        <time>2023-09-03T11:43:50Z</time>
      </trkpt>
      <trkpt lat="49.28072" lon="-0.00106">
        <ele>147.1</ele>
        <time>2023-09-03T11:43:51Z</time>
      </trkpt>
      <trkpt lat="49.28068" lon="-0.00113">
        <ele>147.1</ele>
        <time>2023-09-03T11:43:52Z</time>
      </trkpt>
      <trkpt lat="49.28064" lon="-0.00119">
        <ele>147.1</ele>
        <time>2023-09-03T11:43:53Z</time>
      </trkpt>
      <trkpt lat="49.28059" lon="-0.00125">
        <ele>147.1</ele>
        <time>2023-09-03T11:43:54Z</time>
      </trkpt>
      <trkpt lat="49.28055" lon="-0.00132">
        <ele>147.1</ele>
        <time>2023-09-03T11:43:55Z</time>
      </trkpt>
      <trkpt lat="49.28051" lon="-0.00138">
        <ele>147.1</ele>
        <time>2023-09-03T11:43:56Z</time>
      </trkpt>
      <trkpt lat="49.28047" lon="-0.00145">
        <ele>147.1</ele>
        <time>2023-09-03T11:43:57Z</time>
      </trkpt>
      <trkpt lat="49.28042" lon="-0.00151">
        <ele>147.1</ele>
        <time>2023-09-03T11:43:58Z</time>
      </trkpt>
      <trkpt lat="49.28038" lon="-0.00157">
        <ele>147</ele>
        <time>2023-09-03T11:43:59Z</time>
      </trkpt>
      <trkpt lat="49.28034" lon="-0.00164">
        <ele>147</ele>
        <time>2023-09-03T11:44:00Z</time>
      </trkpt>
      <trkpt lat="49.28029" lon="-0.0017">
        <ele>147</ele>
        <time>2023-09-03T11:44:01Z</time>
      </trkpt>
      <trkpt lat="49.28024" lon="-0.00176">
        <ele>146.9</ele>
        <time>2023-09-03T11:44:02Z</time>
      </trkpt>
      <trkpt lat="49.2802" lon="-0.00182">
        <ele>146.8</ele>
        <time>2023-09-03T11:44:03Z</time>
      </trkpt>
      <trkpt lat="49.28015" lon="-0.00189">
        <ele>146.7</ele>
        <time>2023-09-03T11:44:04Z</time>
      </trkpt>
      <trkpt lat="49.2801" lon="-0.00196">
        <ele>146.6</ele>
        <time>2023-09-03T11:44:05Z</time>
      </trkpt>
      <trkpt lat="49.28006" lon="-0.00203">
        <ele>146.4</ele>
        <time>2023-09-03T11:44:06Z</time>
      </trkpt>
      <trkpt lat="49.28001" lon="-0.0021">
        <ele>146.3</ele>
        <time>2023-09-03T11:44:07Z</time>
      </trkpt>
      <trkpt lat="49.27997" lon="-0.00216">
        <ele>146.1</ele>
        <time>2023-09-03T11:44:08Z</time>
      </trkpt>
      <trkpt lat="49.27992" lon="-0.00223">
        <ele>146</ele>
        <time>2023-09-03T11:44:09Z</time>
      </trkpt>
      <trkpt lat="49.27987" lon="-0.0023">
        <ele>145.8</ele>
        <time>2023-09-03T11:44:10Z</time>
      </trkpt>
      <trkpt lat="49.27982" lon="-0.00237">
        <ele>145.7</ele>
        <time>2023-09-03T11:44:11Z</time>
      </trkpt>
      <trkpt lat="49.27977" lon="-0.00243">
        <ele>145.5</ele>
        <time>2023-09-03T11:44:12Z</time>
      </trkpt>
      <trkpt lat="49.27972" lon="-0.00251">
        <ele>145.3</ele>
        <time>2023-09-03T11:44:13Z</time>
      </trkpt>
      <trkpt lat="49.27967" lon="-0.00259">
        <ele>145.1</ele>
        <time>2023-09-03T11:44:14Z</time>
      </trkpt>
      <trkpt lat="49.27962" lon="-0.00266">
        <ele>144.9</ele>
        <time>2023-09-03T11:44:15Z</time>
      </trkpt>
      <trkpt lat="49.27957" lon="-0.00274">
        <ele>144.6</ele>
        <time>2023-09-03T11:44:16Z</time>
      </trkpt>
      <trkpt lat="49.27952" lon="-0.00282">
        <ele>144.3</ele>
        <time>2023-09-03T11:44:17Z</time>
      </trkpt>
      <trkpt lat="49.27946" lon="-0.0029">
        <ele>144</ele>
        <time>2023-09-03T11:44:18Z</time>
      </trkpt>
      <trkpt lat="49.27941" lon="-0.00298">
        <ele>143.6</ele>
        <time>2023-09-03T11:44:19Z</time>
      </trkpt>
      <trkpt lat="49.27935" lon="-0.00307">
        <ele>143.3</ele>
        <time>2023-09-03T11:44:20Z</time>
      </trkpt>
      <trkpt lat="49.2793" lon="-0.00316">
        <ele>143</ele>
        <time>2023-09-03T11:44:21Z</time>
      </trkpt>
      <trkpt lat="49.27924" lon="-0.00326">
        <ele>142.6</ele>
        <time>2023-09-03T11:44:22Z</time>
      </trkpt>
      <trkpt lat="49.27919" lon="-0.00336">
        <ele>142.3</ele>
        <time>2023-09-03T11:44:23Z</time>
      </trkpt>
      <trkpt lat="49.27914" lon="-0.00346">
        <ele>141.9</ele>
        <time>2023-09-03T11:44:24Z</time>
      </trkpt>
      <trkpt lat="49.27909" lon="-0.00357">
        <ele>141.6</ele>
        <time>2023-09-03T11:44:25Z</time>
      </trkpt>
      <trkpt lat="49.27905" lon="-0.00369">
        <ele>141.3</ele>
        <time>2023-09-03T11:44:26Z</time>
      </trkpt>
      <trkpt lat="49.279" lon="-0.0038">
        <ele>140.9</ele>
        <time>2023-09-03T11:44:27Z</time>
      </trkpt>
      <trkpt lat="49.27896" lon="-0.00393">
        <ele>140.5</ele>
        <time>2023-09-03T11:44:28Z</time>
      </trkpt>
      <trkpt lat="49.27892" lon="-0.00405">
        <ele>140.1</ele>
        <time>2023-09-03T11:44:29Z</time>
      </trkpt>
      <trkpt lat="49.27889" lon="-0.00419">
        <ele>139.7</ele>
        <time>2023-09-03T11:44:30Z</time>
      </trkpt>
      <trkpt lat="49.27886" lon="-0.00433">
        <ele>139.3</ele>
        <time>2023-09-03T11:44:31Z</time>
      </trkpt>
      <trkpt lat="49.27883" lon="-0.00447">
        <ele>139</ele>
        <time>2023-09-03T11:44:32Z</time>
      </trkpt>
      <trkpt lat="49.27881" lon="-0.00461">
        <ele>138.7</ele>
        <time>2023-09-03T11:44:33Z</time>
      </trkpt>
      <trkpt lat="49.27879" lon="-0.00475">
        <ele>138.5</ele>
        <time>2023-09-03T11:44:34Z</time>
      </trkpt>
      <trkpt lat="49.27878" lon="-0.0049">
        <ele>138.4</ele>
        <time>2023-09-03T11:44:35Z</time>
      </trkpt>
      <trkpt lat="49.27877" lon="-0.00504">
        <ele>138.3</ele>
        <time>2023-09-03T11:44:36Z</time>
      </trkpt>
      <trkpt lat="49.27876" lon="-0.00518">
        <ele>138.1</ele>
        <time>2023-09-03T11:44:37Z</time>
      </trkpt>
      <trkpt lat="49.27876" lon="-0.00532">
        <ele>138</ele>
        <time>2023-09-03T11:44:38Z</time>
      </trkpt>
      <trkpt lat="49.27876" lon="-0.00546">
        <ele>138</ele>
        <time>2023-09-03T11:44:39Z</time>
      </trkpt>
      <trkpt lat="49.27876" lon="-0.00561">
        <ele>138</ele>
        <time>2023-09-03T11:44:40Z</time>
      </trkpt>
      <trkpt lat="49.27876" lon="-0.00574">
        <ele>137.9</ele>
        <time>2023-09-03T11:44:41Z</time>
      </trkpt>
      <trkpt lat="49.27875" lon="-0.00588">
        <ele>137.9</ele>
        <time>2023-09-03T11:44:42Z</time>
      </trkpt>
      <trkpt lat="49.27875" lon="-0.00602">
        <ele>138</ele>
        <time>2023-09-03T11:44:43Z</time>
      </trkpt>
      <trkpt lat="49.27875" lon="-0.00616">
        <ele>138</ele>
        <time>2023-09-03T11:44:44Z</time>
      </trkpt>
      <trkpt lat="49.27874" lon="-0.0063">
        <ele>138</ele>
        <time>2023-09-03T11:44:45Z</time>
      </trkpt>
      <trkpt lat="49.27873" lon="-0.00643">
        <ele>138</ele>
        <time>2023-09-03T11:44:46Z</time>
      </trkpt>
      <trkpt lat="49.27872" lon="-0.00657">
        <ele>138</ele>
        <time>2023-09-03T11:44:47Z</time>
      </trkpt>
      <trkpt lat="49.2787" lon="-0.0067">
        <ele>138</ele>
        <time>2023-09-03T11:44:48Z</time>
      </trkpt>
      <trkpt lat="49.27869" lon="-0.00683">
        <ele>138.1</ele>
        <time>2023-09-03T11:44:49Z</time>
      </trkpt>
      <trkpt lat="49.27868" lon="-0.00696">
        <ele>138.1</ele>
        <time>2023-09-03T11:44:50Z</time>
      </trkpt>
      <trkpt lat="49.27867" lon="-0.00709">
        <ele>138.2</ele>
        <time>2023-09-03T11:44:51Z</time>
      </trkpt>
      <trkpt lat="49.27866" lon="-0.00722">
        <ele>138.2</ele>
        <time>2023-09-03T11:44:52Z</time>
      </trkpt>
      <trkpt lat="49.27865" lon="-0.00735">
        <ele>138.3</ele>
        <time>2023-09-03T11:44:53Z</time>
      </trkpt>
      <trkpt lat="49.27864" lon="-0.00747">
        <ele>138.3</ele>
        <time>2023-09-03T11:44:54Z</time>
      </trkpt>
      <trkpt lat="49.27862" lon="-0.0076">
        <ele>138.4</ele>
        <time>2023-09-03T11:44:55Z</time>
      </trkpt>
      <trkpt lat="49.2786" lon="-0.00773">
        <ele>138.4</ele>
        <time>2023-09-03T11:44:56Z</time>
      </trkpt>
      <trkpt lat="49.27858" lon="-0.00785">
        <ele>138.5</ele>
        <time>2023-09-03T11:44:57Z</time>
      </trkpt>
      <trkpt lat="49.27857" lon="-0.00797">
        <ele>138.6</ele>
        <time>2023-09-03T11:44:58Z</time>
      </trkpt>
      <trkpt lat="49.27855" lon="-0.0081">
        <ele>138.6</ele>
        <time>2023-09-03T11:44:59Z</time>
      </trkpt>
      <trkpt lat="49.27853" lon="-0.00822">
        <ele>138.7</ele>
        <time>2023-09-03T11:45:00Z</time>
      </trkpt>
      <trkpt lat="49.27851" lon="-0.00834">
        <ele>138.8</ele>
        <time>2023-09-03T11:45:01Z</time>
      </trkpt>
      <trkpt lat="49.27849" lon="-0.00846">
        <ele>138.8</ele>
        <time>2023-09-03T11:45:02Z</time>
      </trkpt>
      <trkpt lat="49.27847" lon="-0.00858">
        <ele>138.9</ele>
        <time>2023-09-03T11:45:03Z</time>
      </trkpt>
      <trkpt lat="49.27845" lon="-0.0087">
        <ele>138.9</ele>
        <time>2023-09-03T11:45:04Z</time>
      </trkpt>
      <trkpt lat="49.27843" lon="-0.00882">
        <ele>139</ele>
        <time>2023-09-03T11:45:05Z</time>
      </trkpt>
      <trkpt lat="49.27841" lon="-0.00894">
        <ele>139.1</ele>
        <time>2023-09-03T11:45:06Z</time>
      </trkpt>
      <trkpt lat="49.27838" lon="-0.00905">
        <ele>139.1</ele>
        <time>2023-09-03T11:45:07Z</time>
      </trkpt>
      <trkpt lat="49.27835" lon="-0.00917">
        <ele>139.2</ele>
        <time>2023-09-03T11:45:08Z</time>
      </trkpt>
      <trkpt lat="49.27832" lon="-0.00929">
        <ele>139.3</ele>
        <time>2023-09-03T11:45:09Z</time>
      </trkpt>
      <trkpt lat="49.27828" lon="-0.0094">
        <ele>139.3</ele>
        <time>2023-09-03T11:45:10Z</time>
      </trkpt>
      <trkpt lat="49.27825" lon="-0.00951">
        <ele>139.4</ele>
        <time>2023-09-03T11:45:11Z</time>
      </trkpt>
      <trkpt lat="49.27822" lon="-0.00962">
        <ele>139.5</ele>
        <time>2023-09-03T11:45:12Z</time>
      </trkpt>
      <trkpt lat="49.2782" lon="-0.00972">
        <ele>139.5</ele>
        <time>2023-09-03T11:45:13Z</time>
      </trkpt>
      <trkpt lat="49.27817" lon="-0.00982">
        <ele>139.6</ele>
        <time>2023-09-03T11:45:14Z</time>
      </trkpt>
      <trkpt lat="49.27813" lon="-0.00991">
        <ele>139.7</ele>
        <time>2023-09-03T11:45:15Z</time>
      </trkpt>
      <trkpt lat="49.2781" lon="-0.01001">
        <ele>139.8</ele>
        <time>2023-09-03T11:45:16Z</time>
      </trkpt>
      <trkpt lat="49.27807" lon="-0.0101">
        <ele>139.9</ele>
        <time>2023-09-03T11:45:17Z</time>
      </trkpt>
      <trkpt lat="49.27803" lon="-0.01019">
        <ele>139.9</ele>
        <time>2023-09-03T11:45:18Z</time>
      </trkpt>
      <trkpt lat="49.278" lon="-0.01028">
        <ele>140</ele>
        <time>2023-09-03T11:45:19Z</time>
      </trkpt>
      <trkpt lat="49.27796" lon="-0.01037">
        <ele>140.1</ele>
        <time>2023-09-03T11:45:20Z</time>
      </trkpt>
      <trkpt lat="49.27793" lon="-0.01046">
        <ele>140.2</ele>
        <time>2023-09-03T11:45:21Z</time>
      </trkpt>
      <trkpt lat="49.27789" lon="-0.01054">
        <ele>140.2</ele>
        <time>2023-09-03T11:45:22Z</time>
      </trkpt>
      <trkpt lat="49.27785" lon="-0.01063">
        <ele>140.3</ele>
        <time>2023-09-03T11:45:23Z</time>
      </trkpt>
      <trkpt lat="49.27781" lon="-0.01072">
        <ele>140.4</ele>
        <time>2023-09-03T11:45:24Z</time>
      </trkpt>
      <trkpt lat="49.27777" lon="-0.0108">
        <ele>140.5</ele>
        <time>2023-09-03T11:45:25Z</time>
      </trkpt>
      <trkpt lat="49.27773" lon="-0.01088">
        <ele>140.5</ele>
        <time>2023-09-03T11:45:26Z</time>
      </trkpt>
      <trkpt lat="49.27769" lon="-0.01097">
        <ele>140.6</ele>
        <time>2023-09-03T11:45:27Z</time>
      </trkpt>
      <trkpt lat="49.27765" lon="-0.01104">
        <ele>140.7</ele>
        <time>2023-09-03T11:45:28Z</time>
      </trkpt>
      <trkpt lat="49.2776" lon="-0.01112">
        <ele>140.8</ele>
        <time>2023-09-03T11:45:29Z</time>
      </trkpt>
      <trkpt lat="49.27756" lon="-0.0112">
        <ele>140.8</ele>
        <time>2023-09-03T11:45:30Z</time>
      </trkpt>
      <trkpt lat="49.27752" lon="-0.01127">
        <ele>140.9</ele>
        <time>2023-09-03T11:45:31Z</time>
      </trkpt>
      <trkpt lat="49.27748" lon="-0.01134">
        <ele>140.9</ele>
        <time>2023-09-03T11:45:32Z</time>
      </trkpt>
      <trkpt lat="49.27743" lon="-0.01142">
        <ele>141</ele>
        <time>2023-09-03T11:45:33Z</time>
      </trkpt>
      <trkpt lat="49.27739" lon="-0.01148">
        <ele>141.1</ele>
        <time>2023-09-03T11:45:34Z</time>
      </trkpt>
      <trkpt lat="49.27734" lon="-0.01155">
        <ele>141.1</ele>
        <time>2023-09-03T11:45:35Z</time>
      </trkpt>
      <trkpt lat="49.2773" lon="-0.01161">
        <ele>141.2</ele>
        <time>2023-09-03T11:45:36Z</time>
      </trkpt>
      <trkpt lat="49.27726" lon="-0.01167">
        <ele>141.2</ele>
        <time>2023-09-03T11:45:37Z</time>
      </trkpt>
      <trkpt lat="49.27721" lon="-0.01174">
        <ele>141.3</ele>
        <time>2023-09-03T11:45:38Z</time>
      </trkpt>
      <trkpt lat="49.27717" lon="-0.0118">
        <ele>141.3</ele>
        <time>2023-09-03T11:45:39Z</time>
      </trkpt>
      <trkpt lat="49.27712" lon="-0.01186">
        <ele>141.4</ele>
        <time>2023-09-03T11:45:40Z</time>
      </trkpt>
      <trkpt lat="49.27708" lon="-0.01192">
        <ele>141.4</ele>
        <time>2023-09-03T11:45:41Z</time>
      </trkpt>
      <trkpt lat="49.27704" lon="-0.01198">
        <ele>141.5</ele>
        <time>2023-09-03T11:45:42Z</time>
      </trkpt>
      <trkpt lat="49.277" lon="-0.01205">
        <ele>141.6</ele>
        <time>2023-09-03T11:45:43Z</time>
      </trkpt>
      <trkpt lat="49.27695" lon="-0.01211">
        <ele>141.6</ele>
        <time>2023-09-03T11:45:44Z</time>
      </trkpt>
      <trkpt lat="49.27691" lon="-0.01217">
        <ele>141.7</ele>
        <time>2023-09-03T11:45:45Z</time>
      </trkpt>
      <trkpt lat="49.27687" lon="-0.01223">
        <ele>141.7</ele>
        <time>2023-09-03T11:45:46Z</time>
      </trkpt>
      <trkpt lat="49.27683" lon="-0.01229">
        <ele>141.8</ele>
        <time>2023-09-03T11:45:47Z</time>
      </trkpt>
      <trkpt lat="49.27678" lon="-0.01236">
        <ele>141.8</ele>
        <time>2023-09-03T11:45:48Z</time>
      </trkpt>
      <trkpt lat="49.27674" lon="-0.01241">
        <ele>141.9</ele>
        <time>2023-09-03T11:45:49Z</time>
      </trkpt>
      <trkpt lat="49.2767" lon="-0.01248">
        <ele>142</ele>
        <time>2023-09-03T11:45:50Z</time>
      </trkpt>
      <trkpt lat="49.27665" lon="-0.01254">
        <ele>142.1</ele>
        <time>2023-09-03T11:45:51Z</time>
      </trkpt>
      <trkpt lat="49.27661" lon="-0.01261">
        <ele>142.2</ele>
        <time>2023-09-03T11:45:52Z</time>
      </trkpt>
      <trkpt lat="49.27656" lon="-0.01267">
        <ele>142.2</ele>
        <time>2023-09-03T11:45:53Z</time>
      </trkpt>
      <trkpt lat="49.27652" lon="-0.01273">
        <ele>142.3</ele>
        <time>2023-09-03T11:45:54Z</time>
      </trkpt>
      <trkpt lat="49.27647" lon="-0.01279">
        <ele>142.4</ele>
        <time>2023-09-03T11:45:55Z</time>
      </trkpt>
      <trkpt lat="49.27643" lon="-0.01285">
        <ele>142.5</ele>
        <time>2023-09-03T11:45:56Z</time>
      </trkpt>
      <trkpt lat="49.27638" lon="-0.01291">
        <ele>142.6</ele>
        <time>2023-09-03T11:45:57Z</time>
      </trkpt>
      <trkpt lat="49.27634" lon="-0.01298">
        <ele>142.6</ele>
        <time>2023-09-03T11:45:58Z</time>
      </trkpt>
      <trkpt lat="49.2763" lon="-0.01304">
        <ele>142.7</ele>
        <time>2023-09-03T11:45:59Z</time>
      </trkpt>
      <trkpt lat="49.27625" lon="-0.01311">
        <ele>142.8</ele>
        <time>2023-09-03T11:46:00Z</time>
      </trkpt>
      <trkpt lat="49.27621" lon="-0.01318">
        <ele>142.9</ele>
        <time>2023-09-03T11:46:01Z</time>
      </trkpt>
      <trkpt lat="49.27617" lon="-0.01324">
        <ele>142.9</ele>
        <time>2023-09-03T11:46:02Z</time>
      </trkpt>
      <trkpt lat="49.27613" lon="-0.0133">
        <ele>143</ele>
        <time>2023-09-03T11:46:03Z</time>
      </trkpt>
      <trkpt lat="49.27609" lon="-0.01337">
        <ele>143</ele>
        <time>2023-09-03T11:46:04Z</time>
      </trkpt>
      <trkpt lat="49.27605" lon="-0.01343">
        <ele>143.1</ele>
        <time>2023-09-03T11:46:05Z</time>
      </trkpt>
      <trkpt lat="49.27601" lon="-0.0135">
        <ele>143.1</ele>
        <time>2023-09-03T11:46:06Z</time>
      </trkpt>
      <trkpt lat="49.27597" lon="-0.01357">
        <ele>143.2</ele>
        <time>2023-09-03T11:46:07Z</time>
      </trkpt>
      <trkpt lat="49.27593" lon="-0.01364">
        <ele>143.2</ele>
        <time>2023-09-03T11:46:08Z</time>
      </trkpt>
      <trkpt lat="49.27589" lon="-0.01371">
        <ele>143.3</ele>
        <time>2023-09-03T11:46:09Z</time>
      </trkpt>
      <trkpt lat="49.27585" lon="-0.01378">
        <ele>143.3</ele>
        <time>2023-09-03T11:46:10Z</time>
      </trkpt>
      <trkpt lat="49.27582" lon="-0.01386">
        <ele>143.4</ele>
        <time>2023-09-03T11:46:11Z</time>
      </trkpt>
      <trkpt lat="49.27578" lon="-0.01393">
        <ele>143.4</ele>
        <time>2023-09-03T11:46:12Z</time>
      </trkpt>
      <trkpt lat="49.27574" lon="-0.01401">
        <ele>143.5</ele>
        <time>2023-09-03T11:46:13Z</time>
      </trkpt>
      <trkpt lat="49.2757" lon="-0.01409">
        <ele>143.5</ele>
        <time>2023-09-03T11:46:14Z</time>
      </trkpt>
      <trkpt lat="49.27566" lon="-0.01417">
        <ele>143.6</ele>
        <time>2023-09-03T11:46:15Z</time>
      </trkpt>
      <trkpt lat="49.27563" lon="-0.01426">
        <ele>143.6</ele>
        <time>2023-09-03T11:46:16Z</time>
      </trkpt>
      <trkpt lat="49.27559" lon="-0.01434">
        <ele>143.6</ele>
        <time>2023-09-03T11:46:17Z</time>
      </trkpt>
      <trkpt lat="49.27556" lon="-0.01442">
        <ele>143.7</ele>
        <time>2023-09-03T11:46:18Z</time>
      </trkpt>
      <trkpt lat="49.27552" lon="-0.0145">
        <ele>143.7</ele>
        <time>2023-09-03T11:46:19Z</time>
      </trkpt>
      <trkpt lat="49.27549" lon="-0.01459">
        <ele>143.7</ele>
        <time>2023-09-03T11:46:20Z</time>
      </trkpt>
      <trkpt lat="49.27545" lon="-0.01468">
        <ele>143.7</ele>
        <time>2023-09-03T11:46:21Z</time>
      </trkpt>
      <trkpt lat="49.27542" lon="-0.01477">
        <ele>143.7</ele>
        <time>2023-09-03T11:46:22Z</time>
      </trkpt>
      <trkpt lat="49.27539" lon="-0.01485">
        <ele>143.7</ele>
        <time>2023-09-03T11:46:23Z</time>
      </trkpt>
      <trkpt lat="49.27536" lon="-0.01495">
        <ele>143.6</ele>
        <time>2023-09-03T11:46:24Z</time>
      </trkpt>
      <trkpt lat="49.27533" lon="-0.01504">
        <ele>143.6</ele>
        <time>2023-09-03T11:46:25Z</time>
      </trkpt>
      <trkpt lat="49.2753" lon="-0.01513">
        <ele>143.6</ele>
        <time>2023-09-03T11:46:26Z</time>
      </trkpt>
      <trkpt lat="49.27527" lon="-0.01523">
        <ele>143.5</ele>
        <time>2023-09-03T11:46:27Z</time>
      </trkpt>
      <trkpt lat="49.27524" lon="-0.01533">
        <ele>143.5</ele>
        <time>2023-09-03T11:46:28Z</time>
      </trkpt>
      <trkpt lat="49.2752" lon="-0.01543">
        <ele>143.5</ele>
        <time>2023-09-03T11:46:29Z</time>
      </trkpt>
      <trkpt lat="49.27517" lon="-0.01553">
        <ele>143.5</ele>
        <time>2023-09-03T11:46:30Z</time>
      </trkpt>
      <trkpt lat="49.27514" lon="-0.01563">
        <ele>143.4</ele>
        <time>2023-09-03T11:46:31Z</time>
      </trkpt>
      <trkpt lat="49.27512" lon="-0.01573">
        <ele>143.4</ele>
        <time>2023-09-03T11:46:32Z</time>
      </trkpt>
      <trkpt lat="49.27509" lon="-0.01583">
        <ele>143.3</ele>
        <time>2023-09-03T11:46:33Z</time>
      </trkpt>
      <trkpt lat="49.27506" lon="-0.01594">
        <ele>143.3</ele>
        <time>2023-09-03T11:46:34Z</time>
      </trkpt>
      <trkpt lat="49.27503" lon="-0.01604">
        <ele>143.3</ele>
        <time>2023-09-03T11:46:35Z</time>
      </trkpt>
      <trkpt lat="49.275" lon="-0.01615">
        <ele>143.2</ele>
        <time>2023-09-03T11:46:36Z</time>
      </trkpt>
      <trkpt lat="49.27498" lon="-0.01625">
        <ele>143.2</ele>
        <time>2023-09-03T11:46:37Z</time>
      </trkpt>
      <trkpt lat="49.27495" lon="-0.01636">
        <ele>143.1</ele>
        <time>2023-09-03T11:46:38Z</time>
      </trkpt>
      <trkpt lat="49.27493" lon="-0.01646">
        <ele>143.1</ele>
        <time>2023-09-03T11:46:39Z</time>
      </trkpt>
      <trkpt lat="49.2749" lon="-0.01656">
        <ele>143.1</ele>
        <time>2023-09-03T11:46:40Z</time>
      </trkpt>
      <trkpt lat="49.27487" lon="-0.01667">
        <ele>143</ele>
        <time>2023-09-03T11:46:41Z</time>
      </trkpt>
      <trkpt lat="49.27484" lon="-0.01678">
        <ele>143</ele>
        <time>2023-09-03T11:46:42Z</time>
      </trkpt>
      <trkpt lat="49.27481" lon="-0.01688">
        <ele>143</ele>
        <time>2023-09-03T11:46:43Z</time>
      </trkpt>
      <trkpt lat="49.27478" lon="-0.01699">
        <ele>142.9</ele>
        <time>2023-09-03T11:46:44Z</time>
      </trkpt>
      <trkpt lat="49.27475" lon="-0.0171">
        <ele>142.9</ele>
        <time>2023-09-03T11:46:45Z</time>
      </trkpt>
      <trkpt lat="49.27473" lon="-0.01721">
        <ele>142.8</ele>
        <time>2023-09-03T11:46:46Z</time>
      </trkpt>
      <trkpt lat="49.2747" lon="-0.01732">
        <ele>142.8</ele>
        <time>2023-09-03T11:46:47Z</time>
      </trkpt>
      <trkpt lat="49.27467" lon="-0.01742">
        <ele>142.8</ele>
        <time>2023-09-03T11:46:48Z</time>
      </trkpt>
      <trkpt lat="49.27464" lon="-0.01753">
        <ele>142.8</ele>
        <time>2023-09-03T11:46:49Z</time>
      </trkpt>
      <trkpt lat="49.27461" lon="-0.01764">
        <ele>142.8</ele>
        <time>2023-09-03T11:46:50Z</time>
      </trkpt>
      <trkpt lat="49.27458" lon="-0.01775">
        <ele>142.7</ele>
        <time>2023-09-03T11:46:51Z</time>
      </trkpt>
      <trkpt lat="49.27455" lon="-0.01786">
        <ele>142.7</ele>
        <time>2023-09-03T11:46:52Z</time>
      </trkpt>
      <trkpt lat="49.27453" lon="-0.01797">
        <ele>142.7</ele>
        <time>2023-09-03T11:46:53Z</time>
      </trkpt>
      <trkpt lat="49.2745" lon="-0.01808">
        <ele>142.7</ele>
        <time>2023-09-03T11:46:54Z</time>
      </trkpt>
      <trkpt lat="49.27447" lon="-0.01819">
        <ele>142.6</ele>
        <time>2023-09-03T11:46:55Z</time>
      </trkpt>
      <trkpt lat="49.27444" lon="-0.0183">
        <ele>142.6</ele>
        <time>2023-09-03T11:46:56Z</time>
      </trkpt>
      <trkpt lat="49.27441" lon="-0.01841">
        <ele>142.6</ele>
        <time>2023-09-03T11:46:57Z</time>
      </trkpt>
      <trkpt lat="49.27438" lon="-0.01853">
        <ele>142.5</ele>
        <time>2023-09-03T11:46:58Z</time>
      </trkpt>
      <trkpt lat="49.27435" lon="-0.01863">
        <ele>142.5</ele>
        <time>2023-09-03T11:46:59Z</time>
      </trkpt>
      <trkpt lat="49.27432" lon="-0.01875">
        <ele>142.5</ele>
        <time>2023-09-03T11:47:00Z</time>
      </trkpt>
      <trkpt lat="49.27429" lon="-0.01885">
        <ele>142.5</ele>
        <time>2023-09-03T11:47:01Z</time>
      </trkpt>
      <trkpt lat="49.27426" lon="-0.01896">
        <ele>142.4</ele>
        <time>2023-09-03T11:47:02Z</time>
      </trkpt>
      <trkpt lat="49.27424" lon="-0.01907">
        <ele>142.4</ele>
        <time>2023-09-03T11:47:03Z</time>
      </trkpt>
      <trkpt lat="49.27421" lon="-0.01917">
        <ele>142.3</ele>
        <time>2023-09-03T11:47:04Z</time>
      </trkpt>
      <trkpt lat="49.27418" lon="-0.01928">
        <ele>142.3</ele>
        <time>2023-09-03T11:47:05Z</time>
      </trkpt>
      <trkpt lat="49.27416" lon="-0.01938">
        <ele>142.3</ele>
        <time>2023-09-03T11:47:06Z</time>
      </trkpt>
      <trkpt lat="49.27413" lon="-0.01949">
        <ele>142.3</ele>
        <time>2023-09-03T11:47:07Z</time>
      </trkpt>
      <trkpt lat="49.2741" lon="-0.0196">
        <ele>142.2</ele>
        <time>2023-09-03T11:47:08Z</time>
      </trkpt>
      <trkpt lat="49.27408" lon="-0.0197">
        <ele>142.2</ele>
        <time>2023-09-03T11:47:09Z</time>
      </trkpt>
      <trkpt lat="49.27405" lon="-0.01981">
        <ele>142.2</ele>
        <time>2023-09-03T11:47:10Z</time>
      </trkpt>
      <trkpt lat="49.27402" lon="-0.01992">
        <ele>142.1</ele>
        <time>2023-09-03T11:47:11Z</time>
      </trkpt>
      <trkpt lat="49.27399" lon="-0.02002">
        <ele>142.1</ele>
        <time>2023-09-03T11:47:12Z</time>
      </trkpt>
      <trkpt lat="49.27396" lon="-0.02013">
        <ele>142.2</ele>
        <time>2023-09-03T11:47:13Z</time>
      </trkpt>
      <trkpt lat="49.27394" lon="-0.02024">
        <ele>142.2</ele>
        <time>2023-09-03T11:47:14Z</time>
      </trkpt>
      <trkpt lat="49.27391" lon="-0.02034">
        <ele>142.2</ele>
        <time>2023-09-03T11:47:15Z</time>
      </trkpt>
      <trkpt lat="49.27388" lon="-0.02045">
        <ele>142.3</ele>
        <time>2023-09-03T11:47:16Z</time>
      </trkpt>
      <trkpt lat="49.27385" lon="-0.02055">
        <ele>142.3</ele>
        <time>2023-09-03T11:47:17Z</time>
      </trkpt>
      <trkpt lat="49.27382" lon="-0.02066">
        <ele>142.3</ele>
        <time>2023-09-03T11:47:18Z</time>
      </trkpt>
      <trkpt lat="49.2738" lon="-0.02076">
        <ele>142.4</ele>
        <time>2023-09-03T11:47:19Z</time>
      </trkpt>
      <trkpt lat="49.27377" lon="-0.02087">
        <ele>142.5</ele>
        <time>2023-09-03T11:47:20Z</time>
      </trkpt>
      <trkpt lat="49.27374" lon="-0.02097">
        <ele>142.5</ele>
        <time>2023-09-03T11:47:21Z</time>
      </trkpt>
      <trkpt lat="49.27372" lon="-0.02107">
        <ele>142.5</ele>
        <time>2023-09-03T11:47:22Z</time>
      </trkpt>
      <trkpt lat="49.27369" lon="-0.02116">
        <ele>142.6</ele>
        <time>2023-09-03T11:47:23Z</time>
      </trkpt>
      <trkpt lat="49.27367" lon="-0.02126">
        <ele>142.6</ele>
        <time>2023-09-03T11:47:24Z</time>
      </trkpt>
      <trkpt lat="49.27364" lon="-0.02136">
        <ele>142.7</ele>
        <time>2023-09-03T11:47:25Z</time>
      </trkpt>
      <trkpt lat="49.27362" lon="-0.02145">
        <ele>142.7</ele>
        <time>2023-09-03T11:47:26Z</time>
      </trkpt>
      <trkpt lat="49.27359" lon="-0.02155">
        <ele>142.7</ele>
        <time>2023-09-03T11:47:27Z</time>
      </trkpt>
      <trkpt lat="49.27357" lon="-0.02164">
        <ele>142.7</ele>
        <time>2023-09-03T11:47:28Z</time>
      </trkpt>
      <trkpt lat="49.27354" lon="-0.02174">
        <ele>142.8</ele>
        <time>2023-09-03T11:47:29Z</time>
      </trkpt>
      <trkpt lat="49.27352" lon="-0.02184">
        <ele>142.8</ele>
        <time>2023-09-03T11:47:30Z</time>
      </trkpt>
      <trkpt lat="49.27349" lon="-0.02194">
        <ele>142.9</ele>
        <time>2023-09-03T11:47:31Z</time>
      </trkpt>
      <trkpt lat="49.27346" lon="-0.02204">
        <ele>142.9</ele>
        <time>2023-09-03T11:47:32Z</time>
      </trkpt>
      <trkpt lat="49.27343" lon="-0.02213">
        <ele>143</ele>
        <time>2023-09-03T11:47:33Z</time>
      </trkpt>
      <trkpt lat="49.2734" lon="-0.02222">
        <ele>143</ele>
        <time>2023-09-03T11:47:34Z</time>
      </trkpt>
      <trkpt lat="49.27337" lon="-0.02232">
        <ele>143.1</ele>
        <time>2023-09-03T11:47:35Z</time>
      </trkpt>
      <trkpt lat="49.27334" lon="-0.02241">
        <ele>143.1</ele>
        <time>2023-09-03T11:47:36Z</time>
      </trkpt>
      <trkpt lat="49.27331" lon="-0.02251">
        <ele>143.2</ele>
        <time>2023-09-03T11:47:37Z</time>
      </trkpt>
      <trkpt lat="49.27328" lon="-0.0226">
        <ele>143.2</ele>
        <time>2023-09-03T11:47:38Z</time>
      </trkpt>
      <trkpt lat="49.27324" lon="-0.02269">
        <ele>143.2</ele>
        <time>2023-09-03T11:47:39Z</time>
      </trkpt>
      <trkpt lat="49.27321" lon="-0.02278">
        <ele>143.2</ele>
        <time>2023-09-03T11:47:40Z</time>
      </trkpt>
      <trkpt lat="49.27317" lon="-0.02286">
        <ele>143.2</ele>
        <time>2023-09-03T11:47:41Z</time>
      </trkpt>
      <trkpt lat="49.27314" lon="-0.02295">
        <ele>143.2</ele>
        <time>2023-09-03T11:47:42Z</time>
      </trkpt>
      <trkpt lat="49.2731" lon="-0.02304">
        <ele>143.2</ele>
        <time>2023-09-03T11:47:43Z</time>
      </trkpt>
      <trkpt lat="49.27306" lon="-0.02313">
        <ele>143.1</ele>
        <time>2023-09-03T11:47:44Z</time>
      </trkpt>
      <trkpt lat="49.27302" lon="-0.02323">
        <ele>143.1</ele>
        <time>2023-09-03T11:47:45Z</time>
      </trkpt>
      <trkpt lat="49.27298" lon="-0.02332">
        <ele>143.1</ele>
        <time>2023-09-03T11:47:46Z</time>
      </trkpt>
      <trkpt lat="49.27294" lon="-0.02341">
        <ele>143.1</ele>
        <time>2023-09-03T11:47:47Z</time>
      </trkpt>
      <trkpt lat="49.2729" lon="-0.02351">
        <ele>143.1</ele>
        <time>2023-09-03T11:47:48Z</time>
      </trkpt>
      <trkpt lat="49.27286" lon="-0.0236">
        <ele>143.1</ele>
        <time>2023-09-03T11:47:49Z</time>
      </trkpt>
      <trkpt lat="49.27281" lon="-0.02369">
        <ele>143.1</ele>
        <time>2023-09-03T11:47:50Z</time>
      </trkpt>
      <trkpt lat="49.27277" lon="-0.02379">
        <ele>143.1</ele>
        <time>2023-09-03T11:47:51Z</time>
      </trkpt>
      <trkpt lat="49.27273" lon="-0.02388">
        <ele>143</ele>
        <time>2023-09-03T11:47:52Z</time>
      </trkpt>
      <trkpt lat="49.27269" lon="-0.02398">
        <ele>142.9</ele>
        <time>2023-09-03T11:47:53Z</time>
      </trkpt>
      <trkpt lat="49.27265" lon="-0.02407">
        <ele>142.9</ele>
        <time>2023-09-03T11:47:54Z</time>
      </trkpt>
      <trkpt lat="49.27261" lon="-0.02417">
        <ele>142.9</ele>
        <time>2023-09-03T11:47:55Z</time>
      </trkpt>
      <trkpt lat="49.27257" lon="-0.02427">
        <ele>142.8</ele>
        <time>2023-09-03T11:47:56Z</time>
      </trkpt>
      <trkpt lat="49.27253" lon="-0.02437">
        <ele>142.8</ele>
        <time>2023-09-03T11:47:57Z</time>
      </trkpt>
      <trkpt lat="49.27249" lon="-0.02447">
        <ele>142.7</ele>
        <time>2023-09-03T11:47:58Z</time>
      </trkpt>
      <trkpt lat="49.27244" lon="-0.02457">
        <ele>142.6</ele>
        <time>2023-09-03T11:47:59Z</time>
      </trkpt>
      <trkpt lat="49.2724" lon="-0.02467">
        <ele>142.5</ele>
        <time>2023-09-03T11:48:00Z</time>
      </trkpt>
      <trkpt lat="49.27237" lon="-0.02477">
        <ele>142.4</ele>
        <time>2023-09-03T11:48:01Z</time>
      </trkpt>
      <trkpt lat="49.27233" lon="-0.02487">
        <ele>142.3</ele>
        <time>2023-09-03T11:48:02Z</time>
      </trkpt>
      <trkpt lat="49.27229" lon="-0.02498">
        <ele>142.2</ele>
        <time>2023-09-03T11:48:03Z</time>
      </trkpt>
      <trkpt lat="49.27226" lon="-0.02509">
        <ele>142.1</ele>
        <time>2023-09-03T11:48:04Z</time>
      </trkpt>
      <trkpt lat="49.27222" lon="-0.0252">
        <ele>142</ele>
        <time>2023-09-03T11:48:05Z</time>
      </trkpt>
      <trkpt lat="49.27219" lon="-0.02531">
        <ele>142</ele>
        <time>2023-09-03T11:48:06Z</time>
      </trkpt>
      <trkpt lat="49.27216" lon="-0.02542">
        <ele>141.9</ele>
        <time>2023-09-03T11:48:07Z</time>
      </trkpt>
      <trkpt lat="49.27213" lon="-0.02554">
        <ele>141.9</ele>
        <time>2023-09-03T11:48:08Z</time>
      </trkpt>
      <trkpt lat="49.2721" lon="-0.02565">
        <ele>141.8</ele>
        <time>2023-09-03T11:48:09Z</time>
      </trkpt>
      <trkpt lat="49.27207" lon="-0.02576">
        <ele>141.7</ele>
        <time>2023-09-03T11:48:10Z</time>
      </trkpt>
      <trkpt lat="49.27204" lon="-0.02588">
        <ele>141.6</ele>
        <time>2023-09-03T11:48:11Z</time>
      </trkpt>
      <trkpt lat="49.27202" lon="-0.02599">
        <ele>141.5</ele>
        <time>2023-09-03T11:48:12Z</time>
      </trkpt>
      <trkpt lat="49.272" lon="-0.02611">
        <ele>141.5</ele>
        <time>2023-09-03T11:48:13Z</time>
      </trkpt>
      <trkpt lat="49.27198" lon="-0.02622">
        <ele>141.4</ele>
        <time>2023-09-03T11:48:14Z</time>
      </trkpt>
      <trkpt lat="49.27195" lon="-0.02633">
        <ele>141.3</ele>
        <time>2023-09-03T11:48:15Z</time>
      </trkpt>
      <trkpt lat="49.27193" lon="-0.02644">
        <ele>141.3</ele>
        <time>2023-09-03T11:48:16Z</time>
      </trkpt>
      <trkpt lat="49.27191" lon="-0.02655">
        <ele>141.2</ele>
        <time>2023-09-03T11:48:17Z</time>
      </trkpt>
      <trkpt lat="49.27189" lon="-0.02667">
        <ele>141.1</ele>
        <time>2023-09-03T11:48:18Z</time>
      </trkpt>
      <trkpt lat="49.27187" lon="-0.02678">
        <ele>141</ele>
        <time>2023-09-03T11:48:19Z</time>
      </trkpt>
      <trkpt lat="49.27185" lon="-0.0269">
        <ele>140.9</ele>
        <time>2023-09-03T11:48:20Z</time>
      </trkpt>
      <trkpt lat="49.27183" lon="-0.02702">
        <ele>140.8</ele>
        <time>2023-09-03T11:48:21Z</time>
      </trkpt>
      <trkpt lat="49.27181" lon="-0.02713">
        <ele>140.7</ele>
        <time>2023-09-03T11:48:22Z</time>
      </trkpt>
      <trkpt lat="49.27179" lon="-0.02725">
        <ele>140.6</ele>
        <time>2023-09-03T11:48:23Z</time>
      </trkpt>
      <trkpt lat="49.27177" lon="-0.02736">
        <ele>140.6</ele>
        <time>2023-09-03T11:48:24Z</time>
      </trkpt>
      <trkpt lat="49.27175" lon="-0.02748">
        <ele>140.5</ele>
        <time>2023-09-03T11:48:25Z</time>
      </trkpt>
      <trkpt lat="49.27172" lon="-0.02759">
        <ele>140.4</ele>
        <time>2023-09-03T11:48:26Z</time>
      </trkpt>
      <trkpt lat="49.2717" lon="-0.02771">
        <ele>140.4</ele>
        <time>2023-09-03T11:48:27Z</time>
      </trkpt>
      <trkpt lat="49.27168" lon="-0.02782">
        <ele>140.4</ele>
        <time>2023-09-03T11:48:28Z</time>
      </trkpt>
      <trkpt lat="49.27165" lon="-0.02793">
        <ele>140.4</ele>
        <time>2023-09-03T11:48:29Z</time>
      </trkpt>
      <trkpt lat="49.27162" lon="-0.02804">
        <ele>140.3</ele>
        <time>2023-09-03T11:48:30Z</time>
      </trkpt>
      <trkpt lat="49.2716" lon="-0.02814">
        <ele>140.2</ele>
        <time>2023-09-03T11:48:31Z</time>
      </trkpt>
      <trkpt lat="49.27156" lon="-0.02825">
        <ele>140.2</ele>
        <time>2023-09-03T11:48:32Z</time>
      </trkpt>
      <trkpt lat="49.27153" lon="-0.02835">
        <ele>140.1</ele>
        <time>2023-09-03T11:48:33Z</time>
      </trkpt>
      <trkpt lat="49.27151" lon="-0.02846">
        <ele>140</ele>
        <time>2023-09-03T11:48:34Z</time>
      </trkpt>
      <trkpt lat="49.27148" lon="-0.02856">
        <ele>140</ele>
        <time>2023-09-03T11:48:35Z</time>
      </trkpt>
      <trkpt lat="49.27145" lon="-0.02866">
        <ele>139.9</ele>
        <time>2023-09-03T11:48:36Z</time>
      </trkpt>
      <trkpt lat="49.27142" lon="-0.02877">
        <ele>139.8</ele>
        <time>2023-09-03T11:48:37Z</time>
      </trkpt>
      <trkpt lat="49.27138" lon="-0.02888">
        <ele>139.8</ele>
        <time>2023-09-03T11:48:38Z</time>
      </trkpt>
      <trkpt lat="49.27135" lon="-0.02899">
        <ele>139.7</ele>
        <time>2023-09-03T11:48:39Z</time>
      </trkpt>
      <trkpt lat="49.27132" lon="-0.02909">
        <ele>139.7</ele>
        <time>2023-09-03T11:48:40Z</time>
      </trkpt>
      <trkpt lat="49.27129" lon="-0.0292">
        <ele>139.6</ele>
        <time>2023-09-03T11:48:41Z</time>
      </trkpt>
      <trkpt lat="49.27125" lon="-0.0293">
        <ele>139.6</ele>
        <time>2023-09-03T11:48:42Z</time>
      </trkpt>
      <trkpt lat="49.27122" lon="-0.02941">
        <ele>139.6</ele>
        <time>2023-09-03T11:48:43Z</time>
      </trkpt>
      <trkpt lat="49.27119" lon="-0.02951">
        <ele>139.5</ele>
        <time>2023-09-03T11:48:44Z</time>
      </trkpt>
      <trkpt lat="49.27116" lon="-0.02962">
        <ele>139.5</ele>
        <time>2023-09-03T11:48:45Z</time>
      </trkpt>
      <trkpt lat="49.27113" lon="-0.02973">
        <ele>139.5</ele>
        <time>2023-09-03T11:48:46Z</time>
      </trkpt>
      <trkpt lat="49.27109" lon="-0.02983">
        <ele>139.5</ele>
        <time>2023-09-03T11:48:47Z</time>
      </trkpt>
      <trkpt lat="49.27106" lon="-0.02994">
        <ele>139.5</ele>
        <time>2023-09-03T11:48:48Z</time>
      </trkpt>
      <trkpt lat="49.27103" lon="-0.03004">
        <ele>139.5</ele>
        <time>2023-09-03T11:48:49Z</time>
      </trkpt>
      <trkpt lat="49.27099" lon="-0.03015">
        <ele>139.5</ele>
        <time>2023-09-03T11:48:50Z</time>
      </trkpt>
      <trkpt lat="49.27096" lon="-0.03024">
        <ele>139.5</ele>
        <time>2023-09-03T11:48:51Z</time>
      </trkpt>
      <trkpt lat="49.27092" lon="-0.03034">
        <ele>139.6</ele>
        <time>2023-09-03T11:48:52Z</time>
      </trkpt>
      <trkpt lat="49.27088" lon="-0.03044">
        <ele>139.6</ele>
        <time>2023-09-03T11:48:53Z</time>
      </trkpt>
      <trkpt lat="49.27085" lon="-0.03054">
        <ele>139.6</ele>
        <time>2023-09-03T11:48:54Z</time>
      </trkpt>
      <trkpt lat="49.27081" lon="-0.03064">
        <ele>139.6</ele>
        <time>2023-09-03T11:48:55Z</time>
      </trkpt>
      <trkpt lat="49.27077" lon="-0.03073">
        <ele>139.5</ele>
        <time>2023-09-03T11:48:56Z</time>
      </trkpt>
      <trkpt lat="49.27072" lon="-0.03083">
        <ele>139.5</ele>
        <time>2023-09-03T11:48:57Z</time>
      </trkpt>
      <trkpt lat="49.27068" lon="-0.03092">
        <ele>139.5</ele>
        <time>2023-09-03T11:48:58Z</time>
      </trkpt>
      <trkpt lat="49.27064" lon="-0.03102">
        <ele>139.5</ele>
        <time>2023-09-03T11:48:59Z</time>
      </trkpt>
      <trkpt lat="49.27059" lon="-0.03112">
        <ele>139.4</ele>
        <time>2023-09-03T11:49:00Z</time>
      </trkpt>
      <trkpt lat="49.27055" lon="-0.03122">
        <ele>139.4</ele>
        <time>2023-09-03T11:49:01Z</time>
      </trkpt>
      <trkpt lat="49.27051" lon="-0.03132">
        <ele>139.4</ele>
        <time>2023-09-03T11:49:02Z</time>
      </trkpt>
      <trkpt lat="49.27047" lon="-0.03142">
        <ele>139.5</ele>
        <time>2023-09-03T11:49:03Z</time>
      </trkpt>
      <trkpt lat="49.27042" lon="-0.03153">
        <ele>139.5</ele>
        <time>2023-09-03T11:49:04Z</time>
      </trkpt>
      <trkpt lat="49.27039" lon="-0.03164">
        <ele>139.5</ele>
        <time>2023-09-03T11:49:05Z</time>
      </trkpt>
      <trkpt lat="49.27035" lon="-0.03174">
        <ele>139.5</ele>
        <time>2023-09-03T11:49:06Z</time>
      </trkpt>
      <trkpt lat="49.27032" lon="-0.03185">
        <ele>139.5</ele>
        <time>2023-09-03T11:49:07Z</time>
      </trkpt>
      <trkpt lat="49.27029" lon="-0.03196">
        <ele>139.4</ele>
        <time>2023-09-03T11:49:08Z</time>
      </trkpt>
      <trkpt lat="49.27026" lon="-0.03207">
        <ele>139.4</ele>
        <time>2023-09-03T11:49:09Z</time>
      </trkpt>
      <trkpt lat="49.27024" lon="-0.03218">
        <ele>139.3</ele>
        <time>2023-09-03T11:49:10Z</time>
      </trkpt>
      <trkpt lat="49.27021" lon="-0.03229">
        <ele>139.3</ele>
        <time>2023-09-03T11:49:11Z</time>
      </trkpt>
      <trkpt lat="49.27019" lon="-0.0324">
        <ele>139.3</ele>
        <time>2023-09-03T11:49:12Z</time>
      </trkpt>
      <trkpt lat="49.27018" lon="-0.03251">
        <ele>139.3</ele>
        <time>2023-09-03T11:49:13Z</time>
      </trkpt>
      <trkpt lat="49.27016" lon="-0.03263">
        <ele>139.3</ele>
        <time>2023-09-03T11:49:14Z</time>
      </trkpt>
      <trkpt lat="49.27015" lon="-0.03274">
        <ele>139.3</ele>
        <time>2023-09-03T11:49:15Z</time>
      </trkpt>
      <trkpt lat="49.27013" lon="-0.03286">
        <ele>139.3</ele>
        <time>2023-09-03T11:49:16Z</time>
      </trkpt>
      <trkpt lat="49.27012" lon="-0.03298">
        <ele>139.2</ele>
        <time>2023-09-03T11:49:17Z</time>
      </trkpt>
      <trkpt lat="49.2701" lon="-0.03309">
        <ele>139.2</ele>
        <time>2023-09-03T11:49:18Z</time>
      </trkpt>
      <trkpt lat="49.2701" lon="-0.03321">
        <ele>139.2</ele>
        <time>2023-09-03T11:49:19Z</time>
      </trkpt>
      <trkpt lat="49.27009" lon="-0.03332">
        <ele>139.2</ele>
        <time>2023-09-03T11:49:20Z</time>
      </trkpt>
      <trkpt lat="49.27008" lon="-0.03344">
        <ele>139.2</ele>
        <time>2023-09-03T11:49:21Z</time>
      </trkpt>
      <trkpt lat="49.27008" lon="-0.03355">
        <ele>139.2</ele>
        <time>2023-09-03T11:49:22Z</time>
      </trkpt>
      <trkpt lat="49.27008" lon="-0.03367">
        <ele>139.1</ele>
        <time>2023-09-03T11:49:23Z</time>
      </trkpt>
      <trkpt lat="49.27007" lon="-0.03379">
        <ele>139.1</ele>
        <time>2023-09-03T11:49:24Z</time>
      </trkpt>
      <trkpt lat="49.27007" lon="-0.0339">
        <ele>139</ele>
        <time>2023-09-03T11:49:25Z</time>
      </trkpt>
      <trkpt lat="49.27006" lon="-0.03402">
        <ele>138.9</ele>
        <time>2023-09-03T11:49:26Z</time>
      </trkpt>
      <trkpt lat="49.27006" lon="-0.03414">
        <ele>138.8</ele>
        <time>2023-09-03T11:49:27Z</time>
      </trkpt>
      <trkpt lat="49.27005" lon="-0.03425">
        <ele>138.7</ele>
        <time>2023-09-03T11:49:28Z</time>
      </trkpt>
      <trkpt lat="49.27005" lon="-0.03437">
        <ele>138.6</ele>
        <time>2023-09-03T11:49:29Z</time>
      </trkpt>
      <trkpt lat="49.27005" lon="-0.03449">
        <ele>138.5</ele>
        <time>2023-09-03T11:49:30Z</time>
      </trkpt>
      <trkpt lat="49.27005" lon="-0.0346">
        <ele>138.5</ele>
        <time>2023-09-03T11:49:31Z</time>
      </trkpt>
      <trkpt lat="49.27004" lon="-0.03472">
        <ele>138.4</ele>
        <time>2023-09-03T11:49:32Z</time>
      </trkpt>
      <trkpt lat="49.27004" lon="-0.03483">
        <ele>138.3</ele>
        <time>2023-09-03T11:49:33Z</time>
      </trkpt>
      <trkpt lat="49.27004" lon="-0.03495">
        <ele>138.2</ele>
        <time>2023-09-03T11:49:34Z</time>
      </trkpt>
      <trkpt lat="49.27003" lon="-0.03507">
        <ele>138.2</ele>
        <time>2023-09-03T11:49:35Z</time>
      </trkpt>
      <trkpt lat="49.27002" lon="-0.03519">
        <ele>138.1</ele>
        <time>2023-09-03T11:49:36Z</time>
      </trkpt>
      <trkpt lat="49.27" lon="-0.0353">
        <ele>138.1</ele>
        <time>2023-09-03T11:49:37Z</time>
      </trkpt>
      <trkpt lat="49.26998" lon="-0.03542">
        <ele>138</ele>
        <time>2023-09-03T11:49:38Z</time>
      </trkpt>
      <trkpt lat="49.26995" lon="-0.03554">
        <ele>137.9</ele>
        <time>2023-09-03T11:49:39Z</time>
      </trkpt>
      <trkpt lat="49.26993" lon="-0.03566">
        <ele>137.9</ele>
        <time>2023-09-03T11:49:40Z</time>
      </trkpt>
      <trkpt lat="49.2699" lon="-0.03578">
        <ele>137.8</ele>
        <time>2023-09-03T11:49:41Z</time>
      </trkpt>
      <trkpt lat="49.26988" lon="-0.03589">
        <ele>137.8</ele>
        <time>2023-09-03T11:49:42Z</time>
      </trkpt>
      <trkpt lat="49.26985" lon="-0.036">
        <ele>137.7</ele>
        <time>2023-09-03T11:49:43Z</time>
      </trkpt>
      <trkpt lat="49.26982" lon="-0.03612">
        <ele>137.7</ele>
        <time>2023-09-03T11:49:44Z</time>
      </trkpt>
      <trkpt lat="49.2698" lon="-0.03623">
        <ele>137.6</ele>
        <time>2023-09-03T11:49:45Z</time>
      </trkpt>
      <trkpt lat="49.26977" lon="-0.03633">
        <ele>137.6</ele>
        <time>2023-09-03T11:49:46Z</time>
      </trkpt>
      <trkpt lat="49.26974" lon="-0.03644">
        <ele>137.6</ele>
        <time>2023-09-03T11:49:47Z</time>
      </trkpt>
      <trkpt lat="49.26971" lon="-0.03655">
        <ele>137.5</ele>
        <time>2023-09-03T11:49:48Z</time>
      </trkpt>
      <trkpt lat="49.26969" lon="-0.03665">
        <ele>137.5</ele>
        <time>2023-09-03T11:49:49Z</time>
      </trkpt>
      <trkpt lat="49.26966" lon="-0.03675">
        <ele>137.5</ele>
        <time>2023-09-03T11:49:50Z</time>
      </trkpt>
      <trkpt lat="49.26964" lon="-0.03685">
        <ele>137.5</ele>
        <time>2023-09-03T11:49:51Z</time>
      </trkpt>
      <trkpt lat="49.26962" lon="-0.03694">
        <ele>137.5</ele>
        <time>2023-09-03T11:49:52Z</time>
      </trkpt>
      <trkpt lat="49.26959" lon="-0.03703">
        <ele>137.5</ele>
        <time>2023-09-03T11:49:53Z</time>
      </trkpt>
      <trkpt lat="49.26958" lon="-0.03712">
        <ele>137.6</ele>
        <time>2023-09-03T11:49:54Z</time>
      </trkpt>
      <trkpt lat="49.26956" lon="-0.03721">
        <ele>137.6</ele>
        <time>2023-09-03T11:49:55Z</time>
      </trkpt>
      <trkpt lat="49.26955" lon="-0.0373">
        <ele>137.6</ele>
        <time>2023-09-03T11:49:56Z</time>
      </trkpt>
      <trkpt lat="49.26953" lon="-0.03739">
        <ele>137.6</ele>
        <time>2023-09-03T11:49:57Z</time>
      </trkpt>
      <trkpt lat="49.26952" lon="-0.03747">
        <ele>137.7</ele>
        <time>2023-09-03T11:49:58Z</time>
      </trkpt>
      <trkpt lat="49.26951" lon="-0.03756">
        <ele>137.7</ele>
        <time>2023-09-03T11:49:59Z</time>
      </trkpt>
      <trkpt lat="49.2695" lon="-0.03763">
        <ele>137.7</ele>
        <time>2023-09-03T11:50:00Z</time>
      </trkpt>
      <trkpt lat="49.26949" lon="-0.03771">
        <ele>137.8</ele>
        <time>2023-09-03T11:50:01Z</time>
      </trkpt>
      <trkpt lat="49.26949" lon="-0.03779">
        <ele>137.8</ele>
        <time>2023-09-03T11:50:02Z</time>
      </trkpt>
      <trkpt lat="49.26949" lon="-0.03787">
        <ele>137.8</ele>
        <time>2023-09-03T11:50:03Z</time>
      </trkpt>
      <trkpt lat="49.26948" lon="-0.03795">
        <ele>137.9</ele>
        <time>2023-09-03T11:50:04Z</time>
      </trkpt>
      <trkpt lat="49.26948" lon="-0.03802">
        <ele>137.9</ele>
        <time>2023-09-03T11:50:05Z</time>
      </trkpt>
      <trkpt lat="49.26948" lon="-0.03811">
        <ele>137.9</ele>
        <time>2023-09-03T11:50:06Z</time>
      </trkpt>
      <trkpt lat="49.26949" lon="-0.03819">
        <ele>138</ele>
        <time>2023-09-03T11:50:07Z</time>
      </trkpt>
      <trkpt lat="49.26949" lon="-0.03827">
        <ele>138</ele>
        <time>2023-09-03T11:50:08Z</time>
      </trkpt>
      <trkpt lat="49.2695" lon="-0.03836">
        <ele>138.1</ele>
        <time>2023-09-03T11:50:09Z</time>
      </trkpt>
      <trkpt lat="49.2695" lon="-0.03844">
        <ele>138.1</ele>
        <time>2023-09-03T11:50:10Z</time>
      </trkpt>
      <trkpt lat="49.26951" lon="-0.03852">
        <ele>138.1</ele>
        <time>2023-09-03T11:50:11Z</time>
      </trkpt>
      <trkpt lat="49.26952" lon="-0.0386">
        <ele>138.1</ele>
        <time>2023-09-03T11:50:12Z</time>
      </trkpt>
      <trkpt lat="49.26953" lon="-0.03867">
        <ele>138.1</ele>
        <time>2023-09-03T11:50:13Z</time>
      </trkpt>
      <trkpt lat="49.26954" lon="-0.03876">
        <ele>138</ele>
        <time>2023-09-03T11:50:14Z</time>
      </trkpt>
      <trkpt lat="49.26955" lon="-0.03884">
        <ele>138</ele>
        <time>2023-09-03T11:50:15Z</time>
      </trkpt>
      <trkpt lat="49.26956" lon="-0.03892">
        <ele>138</ele>
        <time>2023-09-03T11:50:16Z</time>
      </trkpt>
      <trkpt lat="49.26957" lon="-0.039">
        <ele>138</ele>
        <time>2023-09-03T11:50:17Z</time>
      </trkpt>
      <trkpt lat="49.26958" lon="-0.03908">
        <ele>137.9</ele>
        <time>2023-09-03T11:50:18Z</time>
      </trkpt>
      <trkpt lat="49.26959" lon="-0.03917">
        <ele>137.9</ele>
        <time>2023-09-03T11:50:19Z</time>
      </trkpt>
      <trkpt lat="49.2696" lon="-0.03925">
        <ele>137.8</ele>
        <time>2023-09-03T11:50:20Z</time>
      </trkpt>
      <trkpt lat="49.26961" lon="-0.03934">
        <ele>137.7</ele>
        <time>2023-09-03T11:50:21Z</time>
      </trkpt>
      <trkpt lat="49.26962" lon="-0.03942">
        <ele>137.7</ele>
        <time>2023-09-03T11:50:22Z</time>
      </trkpt>
      <trkpt lat="49.26963" lon="-0.03951">
        <ele>137.7</ele>
        <time>2023-09-03T11:50:23Z</time>
      </trkpt>
      <trkpt lat="49.26964" lon="-0.03959">
        <ele>137.6</ele>
        <time>2023-09-03T11:50:24Z</time>
      </trkpt>
      <trkpt lat="49.26965" lon="-0.03968">
        <ele>137.6</ele>
        <time>2023-09-03T11:50:25Z</time>
      </trkpt>
      <trkpt lat="49.26966" lon="-0.03976">
        <ele>137.6</ele>
        <time>2023-09-03T11:50:26Z</time>
      </trkpt>
      <trkpt lat="49.26967" lon="-0.03984">
        <ele>137.6</ele>
        <time>2023-09-03T11:50:27Z</time>
      </trkpt>
      <trkpt lat="49.26969" lon="-0.03993">
        <ele>137.6</ele>
        <time>2023-09-03T11:50:28Z</time>
      </trkpt>
      <trkpt lat="49.2697" lon="-0.04001">
        <ele>137.6</ele>
        <time>2023-09-03T11:50:29Z</time>
      </trkpt>
      <trkpt lat="49.26971" lon="-0.0401">
        <ele>137.6</ele>
        <time>2023-09-03T11:50:30Z</time>
      </trkpt>
      <trkpt lat="49.26973" lon="-0.04019">
        <ele>137.5</ele>
        <time>2023-09-03T11:50:31Z</time>
      </trkpt>
      <trkpt lat="49.26974" lon="-0.04028">
        <ele>137.5</ele>
        <time>2023-09-03T11:50:32Z</time>
      </trkpt>
      <trkpt lat="49.26975" lon="-0.04037">
        <ele>137.4</ele>
        <time>2023-09-03T11:50:33Z</time>
      </trkpt>
      <trkpt lat="49.26976" lon="-0.04046">
        <ele>137.4</ele>
        <time>2023-09-03T11:50:34Z</time>
      </trkpt>
      <trkpt lat="49.26978" lon="-0.04055">
        <ele>137.3</ele>
        <time>2023-09-03T11:50:35Z</time>
      </trkpt>
      <trkpt lat="49.26979" lon="-0.04064">
        <ele>137.3</ele>
        <time>2023-09-03T11:50:36Z</time>
      </trkpt>
      <trkpt lat="49.26981" lon="-0.04073">
        <ele>137.2</ele>
        <time>2023-09-03T11:50:37Z</time>
      </trkpt>
      <trkpt lat="49.26982" lon="-0.04082">
        <ele>137.2</ele>
        <time>2023-09-03T11:50:38Z</time>
      </trkpt>
      <trkpt lat="49.26983" lon="-0.04091">
        <ele>137.1</ele>
        <time>2023-09-03T11:50:39Z</time>
      </trkpt>
      <trkpt lat="49.26984" lon="-0.04099">
        <ele>137.1</ele>
        <time>2023-09-03T11:50:40Z</time>
      </trkpt>
      <trkpt lat="49.26985" lon="-0.04107">
        <ele>137.1</ele>
        <time>2023-09-03T11:50:41Z</time>
      </trkpt>
      <trkpt lat="49.26987" lon="-0.04113">
        <ele>137.2</ele>
        <time>2023-09-03T11:50:42Z</time>
      </trkpt>
      <trkpt lat="49.26988" lon="-0.04118">
        <ele>137.1</ele>
        <time>2023-09-03T11:50:43Z</time>
      </trkpt>
      <trkpt lat="49.26989" lon="-0.04121">
        <ele>137</ele>
        <time>2023-09-03T11:50:44Z</time>
      </trkpt>
      <trkpt lat="49.26988" lon="-0.04123">
        <ele>137</ele>
        <time>2023-09-03T11:50:45Z</time>
      </trkpt>
      <trkpt lat="49.26988" lon="-0.04123">
        <ele>136.9</ele>
        <time>2023-09-03T11:50:46Z</time>
      </trkpt>
      <trkpt lat="49.26988" lon="-0.04124">
        <ele>136.9</ele>
        <time>2023-09-03T11:50:47Z</time>
      </trkpt>
      <trkpt lat="49.26988" lon="-0.04125">
        <ele>136.9</ele>
        <time>2023-09-03T11:50:48Z</time>
      </trkpt>
      <trkpt lat="49.26988" lon="-0.04126">
        <ele>136.9</ele>
        <time>2023-09-03T11:50:49Z</time>
      </trkpt>
      <trkpt lat="49.26988" lon="-0.04127">
        <ele>136.9</ele>
        <time>2023-09-03T11:50:50Z</time>
      </trkpt>
      <trkpt lat="49.26987" lon="-0.04128">
        <ele>136.9</ele>
        <time>2023-09-03T11:50:51Z</time>
      </trkpt>
      <trkpt lat="49.26987" lon="-0.04129">
        <ele>136.8</ele>
        <time>2023-09-03T11:50:52Z</time>
      </trkpt>
      <trkpt lat="49.26988" lon="-0.04135">
        <ele>136.8</ele>
        <time>2023-09-03T11:50:53Z</time>
      </trkpt>
      <trkpt lat="49.26989" lon="-0.04137">
        <ele>136.7</ele>
        <time>2023-09-03T11:50:54Z</time>
      </trkpt>
      <trkpt lat="49.2699" lon="-0.04142">
        <ele>136.7</ele>
        <time>2023-09-03T11:50:55Z</time>
      </trkpt>
      <trkpt lat="49.26992" lon="-0.04147">
        <ele>136.6</ele>
        <time>2023-09-03T11:50:56Z</time>
      </trkpt>
      <trkpt lat="49.26993" lon="-0.04154">
        <ele>136.5</ele>
        <time>2023-09-03T11:50:57Z</time>
      </trkpt>
      <trkpt lat="49.26995" lon="-0.04161">
        <ele>136.5</ele>
        <time>2023-09-03T11:50:58Z</time>
      </trkpt>
      <trkpt lat="49.26997" lon="-0.0417">
        <ele>136.4</ele>
        <time>2023-09-03T11:50:59Z</time>
      </trkpt>
      <trkpt lat="49.27" lon="-0.04179">
        <ele>136.4</ele>
        <time>2023-09-03T11:51:00Z</time>
      </trkpt>
      <trkpt lat="49.27004" lon="-0.04188">
        <ele>136.3</ele>
        <time>2023-09-03T11:51:01Z</time>
      </trkpt>
      <trkpt lat="49.27008" lon="-0.04198">
        <ele>136.3</ele>
        <time>2023-09-03T11:51:02Z</time>
      </trkpt>
      <trkpt lat="49.27012" lon="-0.04207">
        <ele>136.3</ele>
        <time>2023-09-03T11:51:03Z</time>
      </trkpt>
      <trkpt lat="49.27016" lon="-0.04217">
        <ele>136.2</ele>
        <time>2023-09-03T11:51:04Z</time>
      </trkpt>
      <trkpt lat="49.2702" lon="-0.04228">
        <ele>136.2</ele>
        <time>2023-09-03T11:51:05Z</time>
      </trkpt>
      <trkpt lat="49.27024" lon="-0.04237">
        <ele>136.2</ele>
        <time>2023-09-03T11:51:06Z</time>
      </trkpt>
      <trkpt lat="49.27027" lon="-0.04246">
        <ele>136.2</ele>
        <time>2023-09-03T11:51:07Z</time>
      </trkpt>
      <trkpt lat="49.27032" lon="-0.04255">
        <ele>136.1</ele>
        <time>2023-09-03T11:51:08Z</time>
      </trkpt>
      <trkpt lat="49.27036" lon="-0.04265">
        <ele>136.1</ele>
        <time>2023-09-03T11:51:09Z</time>
      </trkpt>
      <trkpt lat="49.2704" lon="-0.04274">
        <ele>136.1</ele>
        <time>2023-09-03T11:51:10Z</time>
      </trkpt>
      <trkpt lat="49.27044" lon="-0.04283">
        <ele>136.1</ele>
        <time>2023-09-03T11:51:11Z</time>
      </trkpt>
      <trkpt lat="49.27049" lon="-0.04292">
        <ele>136.1</ele>
        <time>2023-09-03T11:51:12Z</time>
      </trkpt>
      <trkpt lat="49.27053" lon="-0.04302">
        <ele>136.1</ele>
        <time>2023-09-03T11:51:13Z</time>
      </trkpt>
      <trkpt lat="49.27057" lon="-0.04311">
        <ele>136.1</ele>
        <time>2023-09-03T11:51:14Z</time>
      </trkpt>
      <trkpt lat="49.2706" lon="-0.04319">
        <ele>136.1</ele>
        <time>2023-09-03T11:51:15Z</time>
      </trkpt>
      <trkpt lat="49.27064" lon="-0.04328">
        <ele>136.2</ele>
        <time>2023-09-03T11:51:16Z</time>
      </trkpt>
      <trkpt lat="49.27068" lon="-0.04336">
        <ele>136.2</ele>
        <time>2023-09-03T11:51:17Z</time>
      </trkpt>
      <trkpt lat="49.27072" lon="-0.04344">
        <ele>136.2</ele>
        <time>2023-09-03T11:51:18Z</time>
      </trkpt>
      <trkpt lat="49.27075" lon="-0.04353">
        <ele>136.2</ele>
        <time>2023-09-03T11:51:19Z</time>
      </trkpt>
      <trkpt lat="49.27079" lon="-0.04361">
        <ele>136.2</ele>
        <time>2023-09-03T11:51:20Z</time>
      </trkpt>
      <trkpt lat="49.27082" lon="-0.0437">
        <ele>136.2</ele>
        <time>2023-09-03T11:51:21Z</time>
      </trkpt>
      <trkpt lat="49.27086" lon="-0.0438">
        <ele>136.2</ele>
        <time>2023-09-03T11:51:22Z</time>
      </trkpt>
      <trkpt lat="49.2709" lon="-0.04389">
        <ele>136.1</ele>
        <time>2023-09-03T11:51:23Z</time>
      </trkpt>
      <trkpt lat="49.27094" lon="-0.04398">
        <ele>136.1</ele>
        <time>2023-09-03T11:51:24Z</time>
      </trkpt>
      <trkpt lat="49.27098" lon="-0.04407">
        <ele>136</ele>
        <time>2023-09-03T11:51:25Z</time>
      </trkpt>
      <trkpt lat="49.27102" lon="-0.04416">
        <ele>136</ele>
        <time>2023-09-03T11:51:26Z</time>
      </trkpt>
      <trkpt lat="49.27105" lon="-0.04425">
        <ele>136</ele>
        <time>2023-09-03T11:51:27Z</time>
      </trkpt>
      <trkpt lat="49.27108" lon="-0.04434">
        <ele>136</ele>
        <time>2023-09-03T11:51:28Z</time>
      </trkpt>
      <trkpt lat="49.27111" lon="-0.04443">
        <ele>136</ele>
        <time>2023-09-03T11:51:29Z</time>
      </trkpt>
      <trkpt lat="49.27114" lon="-0.04452">
        <ele>136</ele>
        <time>2023-09-03T11:51:30Z</time>
      </trkpt>
      <trkpt lat="49.27117" lon="-0.04462">
        <ele>136</ele>
        <time>2023-09-03T11:51:31Z</time>
      </trkpt>
      <trkpt lat="49.2712" lon="-0.04471">
        <ele>136</ele>
        <time>2023-09-03T11:51:32Z</time>
      </trkpt>
      <trkpt lat="49.27123" lon="-0.04481">
        <ele>136</ele>
        <time>2023-09-03T11:51:33Z</time>
      </trkpt>
      <trkpt lat="49.27126" lon="-0.04491">
        <ele>136</ele>
        <time>2023-09-03T11:51:34Z</time>
      </trkpt>
      <trkpt lat="49.27128" lon="-0.045">
        <ele>136</ele>
        <time>2023-09-03T11:51:35Z</time>
      </trkpt>
      <trkpt lat="49.2713" lon="-0.0451">
        <ele>135.9</ele>
        <time>2023-09-03T11:51:36Z</time>
      </trkpt>
      <trkpt lat="49.27132" lon="-0.0452">
        <ele>135.9</ele>
        <time>2023-09-03T11:51:37Z</time>
      </trkpt>
      <trkpt lat="49.27133" lon="-0.0453">
        <ele>135.9</ele>
        <time>2023-09-03T11:51:38Z</time>
      </trkpt>
      <trkpt lat="49.27135" lon="-0.04539">
        <ele>135.9</ele>
        <time>2023-09-03T11:51:39Z</time>
      </trkpt>
      <trkpt lat="49.27137" lon="-0.04549">
        <ele>135.8</ele>
        <time>2023-09-03T11:51:40Z</time>
      </trkpt>
      <trkpt lat="49.27139" lon="-0.04559">
        <ele>135.8</ele>
        <time>2023-09-03T11:51:41Z</time>
      </trkpt>
      <trkpt lat="49.27141" lon="-0.04569">
        <ele>135.8</ele>
        <time>2023-09-03T11:51:42Z</time>
      </trkpt>
      <trkpt lat="49.27143" lon="-0.0458">
        <ele>135.8</ele>
        <time>2023-09-03T11:51:43Z</time>
      </trkpt>
      <trkpt lat="49.27145" lon="-0.0459">
        <ele>135.8</ele>
        <time>2023-09-03T11:51:44Z</time>
      </trkpt>
      <trkpt lat="49.27146" lon="-0.04599">
        <ele>135.8</ele>
        <time>2023-09-03T11:51:45Z</time>
      </trkpt>
      <trkpt lat="49.27148" lon="-0.04609">
        <ele>135.8</ele>
        <time>2023-09-03T11:51:46Z</time>
      </trkpt>
      <trkpt lat="49.27149" lon="-0.04619">
        <ele>135.8</ele>
        <time>2023-09-03T11:51:47Z</time>
      </trkpt>
      <trkpt lat="49.27151" lon="-0.04629">
        <ele>135.8</ele>
        <time>2023-09-03T11:51:48Z</time>
      </trkpt>
      <trkpt lat="49.27152" lon="-0.04639">
        <ele>135.8</ele>
        <time>2023-09-03T11:51:49Z</time>
      </trkpt>
      <trkpt lat="49.27154" lon="-0.04649">
        <ele>135.8</ele>
        <time>2023-09-03T11:51:50Z</time>
      </trkpt>
      <trkpt lat="49.27156" lon="-0.04658">
        <ele>135.8</ele>
        <time>2023-09-03T11:51:51Z</time>
      </trkpt>
      <trkpt lat="49.27157" lon="-0.04669">
        <ele>135.8</ele>
        <time>2023-09-03T11:51:52Z</time>
      </trkpt>
      <trkpt lat="49.27159" lon="-0.04678">
        <ele>135.8</ele>
        <time>2023-09-03T11:51:53Z</time>
      </trkpt>
      <trkpt lat="49.27161" lon="-0.04688">
        <ele>135.8</ele>
        <time>2023-09-03T11:51:54Z</time>
      </trkpt>
      <trkpt lat="49.27163" lon="-0.04698">
        <ele>135.7</ele>
        <time>2023-09-03T11:51:55Z</time>
      </trkpt>
      <trkpt lat="49.27166" lon="-0.04708">
        <ele>135.7</ele>
        <time>2023-09-03T11:51:56Z</time>
      </trkpt>
      <trkpt lat="49.27168" lon="-0.04718">
        <ele>135.6</ele>
        <time>2023-09-03T11:51:57Z</time>
      </trkpt>
      <trkpt lat="49.27171" lon="-0.04727">
        <ele>135.6</ele>
        <time>2023-09-03T11:51:58Z</time>
      </trkpt>
      <trkpt lat="49.27175" lon="-0.04737">
        <ele>135.6</ele>
        <time>2023-09-03T11:51:59Z</time>
      </trkpt>
      <trkpt lat="49.27179" lon="-0.04746">
        <ele>135.5</ele>
        <time>2023-09-03T11:52:00Z</time>
      </trkpt>
      <trkpt lat="49.27183" lon="-0.04755">
        <ele>135.5</ele>
        <time>2023-09-03T11:52:01Z</time>
      </trkpt>
      <trkpt lat="49.27187" lon="-0.04763">
        <ele>135.4</ele>
        <time>2023-09-03T11:52:02Z</time>
      </trkpt>
      <trkpt lat="49.27192" lon="-0.04772">
        <ele>135.4</ele>
        <time>2023-09-03T11:52:03Z</time>
      </trkpt>
      <trkpt lat="49.27197" lon="-0.0478">
        <ele>135.3</ele>
        <time>2023-09-03T11:52:04Z</time>
      </trkpt>
      <trkpt lat="49.27201" lon="-0.04789">
        <ele>135.2</ele>
        <time>2023-09-03T11:52:05Z</time>
      </trkpt>
      <trkpt lat="49.27206" lon="-0.04797">
        <ele>135.2</ele>
        <time>2023-09-03T11:52:06Z</time>
      </trkpt>
      <trkpt lat="49.27211" lon="-0.04805">
        <ele>135.1</ele>
        <time>2023-09-03T11:52:07Z</time>
      </trkpt>
      <trkpt lat="49.27215" lon="-0.04813">
        <ele>135.1</ele>
        <time>2023-09-03T11:52:08Z</time>
      </trkpt>
      <trkpt lat="49.2722" lon="-0.04821">
        <ele>135</ele>
        <time>2023-09-03T11:52:09Z</time>
      </trkpt>
      <trkpt lat="49.27225" lon="-0.04829">
        <ele>135</ele>
        <time>2023-09-03T11:52:10Z</time>
      </trkpt>
      <trkpt lat="49.2723" lon="-0.04837">
        <ele>135</ele>
        <time>2023-09-03T11:52:11Z</time>
      </trkpt>
      <trkpt lat="49.27235" lon="-0.04845">
        <ele>134.9</ele>
        <time>2023-09-03T11:52:12Z</time>
      </trkpt>
      <trkpt lat="49.27239" lon="-0.04853">
        <ele>134.9</ele>
        <time>2023-09-03T11:52:13Z</time>
      </trkpt>
      <trkpt lat="49.27243" lon="-0.04862">
        <ele>134.9</ele>
        <time>2023-09-03T11:52:14Z</time>
      </trkpt>
      <trkpt lat="49.27248" lon="-0.04871">
        <ele>134.9</ele>
        <time>2023-09-03T11:52:15Z</time>
      </trkpt>
      <trkpt lat="49.27252" lon="-0.0488">
        <ele>135</ele>
        <time>2023-09-03T11:52:16Z</time>
      </trkpt>
      <trkpt lat="49.27256" lon="-0.0489">
        <ele>135</ele>
        <time>2023-09-03T11:52:17Z</time>
      </trkpt>
      <trkpt lat="49.2726" lon="-0.04899">
        <ele>135</ele>
        <time>2023-09-03T11:52:18Z</time>
      </trkpt>
      <trkpt lat="49.27263" lon="-0.04908">
        <ele>135</ele>
        <time>2023-09-03T11:52:19Z</time>
      </trkpt>
      <trkpt lat="49.27267" lon="-0.04918">
        <ele>135.1</ele>
        <time>2023-09-03T11:52:20Z</time>
      </trkpt>
      <trkpt lat="49.27271" lon="-0.04928">
        <ele>135</ele>
        <time>2023-09-03T11:52:21Z</time>
      </trkpt>
      <trkpt lat="49.27274" lon="-0.04938">
        <ele>135</ele>
        <time>2023-09-03T11:52:22Z</time>
      </trkpt>
      <trkpt lat="49.27277" lon="-0.04947">
        <ele>135</ele>
        <time>2023-09-03T11:52:23Z</time>
      </trkpt>
      <trkpt lat="49.2728" lon="-0.04956">
        <ele>135</ele>
        <time>2023-09-03T11:52:24Z</time>
      </trkpt>
      <trkpt lat="49.27283" lon="-0.04966">
        <ele>135</ele>
        <time>2023-09-03T11:52:25Z</time>
      </trkpt>
      <trkpt lat="49.27287" lon="-0.04977">
        <ele>134.9</ele>
        <time>2023-09-03T11:52:26Z</time>
      </trkpt>
      <trkpt lat="49.2729" lon="-0.04987">
        <ele>134.9</ele>
        <time>2023-09-03T11:52:27Z</time>
      </trkpt>
      <trkpt lat="49.27294" lon="-0.04997">
        <ele>134.9</ele>
        <time>2023-09-03T11:52:28Z</time>
      </trkpt>
      <trkpt lat="49.27297" lon="-0.05007">
        <ele>134.9</ele>
        <time>2023-09-03T11:52:29Z</time>
      </trkpt>
      <trkpt lat="49.273" lon="-0.05016">
        <ele>134.8</ele>
        <time>2023-09-03T11:52:30Z</time>
      </trkpt>
      <trkpt lat="49.27303" lon="-0.05026">
        <ele>134.8</ele>
        <time>2023-09-03T11:52:31Z</time>
      </trkpt>
      <trkpt lat="49.27307" lon="-0.05036">
        <ele>134.8</ele>
        <time>2023-09-03T11:52:32Z</time>
      </trkpt>
      <trkpt lat="49.2731" lon="-0.05045">
        <ele>134.8</ele>
        <time>2023-09-03T11:52:33Z</time>
      </trkpt>
      <trkpt lat="49.27313" lon="-0.05055">
        <ele>134.8</ele>
        <time>2023-09-03T11:52:34Z</time>
      </trkpt>
      <trkpt lat="49.27316" lon="-0.05064">
        <ele>134.8</ele>
        <time>2023-09-03T11:52:35Z</time>
      </trkpt>
      <trkpt lat="49.27319" lon="-0.05074">
        <ele>134.8</ele>
        <time>2023-09-03T11:52:36Z</time>
      </trkpt>
      <trkpt lat="49.27322" lon="-0.05083">
        <ele>134.8</ele>
        <time>2023-09-03T11:52:37Z</time>
      </trkpt>
      <trkpt lat="49.27325" lon="-0.05092">
        <ele>134.8</ele>
        <time>2023-09-03T11:52:38Z</time>
      </trkpt>
      <trkpt lat="49.27329" lon="-0.05102">
        <ele>134.7</ele>
        <time>2023-09-03T11:52:39Z</time>
      </trkpt>
      <trkpt lat="49.27332" lon="-0.05112">
        <ele>134.7</ele>
        <time>2023-09-03T11:52:40Z</time>
      </trkpt>
      <trkpt lat="49.27335" lon="-0.05121">
        <ele>134.7</ele>
        <time>2023-09-03T11:52:41Z</time>
      </trkpt>
      <trkpt lat="49.27339" lon="-0.05131">
        <ele>134.7</ele>
        <time>2023-09-03T11:52:42Z</time>
      </trkpt>
      <trkpt lat="49.27342" lon="-0.05141">
        <ele>134.7</ele>
        <time>2023-09-03T11:52:43Z</time>
      </trkpt>
      <trkpt lat="49.27345" lon="-0.05151">
        <ele>134.7</ele>
        <time>2023-09-03T11:52:44Z</time>
      </trkpt>
      <trkpt lat="49.27349" lon="-0.05162">
        <ele>134.7</ele>
        <time>2023-09-03T11:52:45Z</time>
      </trkpt>
      <trkpt lat="49.27352" lon="-0.05172">
        <ele>134.7</ele>
        <time>2023-09-03T11:52:46Z</time>
      </trkpt>
      <trkpt lat="49.27355" lon="-0.05183">
        <ele>134.7</ele>
        <time>2023-09-03T11:52:47Z</time>
      </trkpt>
      <trkpt lat="49.27358" lon="-0.05193">
        <ele>134.7</ele>
        <time>2023-09-03T11:52:48Z</time>
      </trkpt>
      <trkpt lat="49.27362" lon="-0.05203">
        <ele>134.7</ele>
        <time>2023-09-03T11:52:49Z</time>
      </trkpt>
      <trkpt lat="49.27365" lon="-0.05214">
        <ele>134.8</ele>
        <time>2023-09-03T11:52:50Z</time>
      </trkpt>
      <trkpt lat="49.27367" lon="-0.05225">
        <ele>134.8</ele>
        <time>2023-09-03T11:52:51Z</time>
      </trkpt>
      <trkpt lat="49.2737" lon="-0.05235">
        <ele>134.8</ele>
        <time>2023-09-03T11:52:52Z</time>
      </trkpt>
      <trkpt lat="49.27372" lon="-0.05246">
        <ele>134.9</ele>
        <time>2023-09-03T11:52:53Z</time>
      </trkpt>
      <trkpt lat="49.27374" lon="-0.05256">
        <ele>134.9</ele>
        <time>2023-09-03T11:52:54Z</time>
      </trkpt>
      <trkpt lat="49.27377" lon="-0.05266">
        <ele>134.9</ele>
        <time>2023-09-03T11:52:55Z</time>
      </trkpt>
      <trkpt lat="49.27379" lon="-0.05276">
        <ele>134.9</ele>
        <time>2023-09-03T11:52:56Z</time>
      </trkpt>
      <trkpt lat="49.27381" lon="-0.05286">
        <ele>134.9</ele>
        <time>2023-09-03T11:52:57Z</time>
      </trkpt>
      <trkpt lat="49.27383" lon="-0.05296">
        <ele>134.9</ele>
        <time>2023-09-03T11:52:58Z</time>
      </trkpt>
      <trkpt lat="49.27385" lon="-0.05306">
        <ele>134.9</ele>
        <time>2023-09-03T11:52:59Z</time>
      </trkpt>
      <trkpt lat="49.27387" lon="-0.05316">
        <ele>134.9</ele>
        <time>2023-09-03T11:53:00Z</time>
      </trkpt>
      <trkpt lat="49.27388" lon="-0.05325">
        <ele>134.9</ele>
        <time>2023-09-03T11:53:01Z</time>
      </trkpt>
      <trkpt lat="49.2739" lon="-0.05334">
        <ele>134.8</ele>
        <time>2023-09-03T11:53:02Z</time>
      </trkpt>
      <trkpt lat="49.27392" lon="-0.05344">
        <ele>134.8</ele>
        <time>2023-09-03T11:53:03Z</time>
      </trkpt>
      <trkpt lat="49.27394" lon="-0.05354">
        <ele>134.8</ele>
        <time>2023-09-03T11:53:04Z</time>
      </trkpt>
      <trkpt lat="49.27396" lon="-0.05364">
        <ele>134.8</ele>
        <time>2023-09-03T11:53:05Z</time>
      </trkpt>
      <trkpt lat="49.27398" lon="-0.05374">
        <ele>134.8</ele>
        <time>2023-09-03T11:53:06Z</time>
      </trkpt>
      <trkpt lat="49.274" lon="-0.05383">
        <ele>134.8</ele>
        <time>2023-09-03T11:53:07Z</time>
      </trkpt>
      <trkpt lat="49.27403" lon="-0.05392">
        <ele>134.8</ele>
        <time>2023-09-03T11:53:08Z</time>
      </trkpt>
      <trkpt lat="49.27405" lon="-0.05403">
        <ele>134.8</ele>
        <time>2023-09-03T11:53:09Z</time>
      </trkpt>
      <trkpt lat="49.27407" lon="-0.05413">
        <ele>134.8</ele>
        <time>2023-09-03T11:53:10Z</time>
      </trkpt>
      <trkpt lat="49.2741" lon="-0.05424">
        <ele>134.8</ele>
        <time>2023-09-03T11:53:11Z</time>
      </trkpt>
      <trkpt lat="49.27412" lon="-0.05434">
        <ele>134.9</ele>
        <time>2023-09-03T11:53:12Z</time>
      </trkpt>
      <trkpt lat="49.27414" lon="-0.05444">
        <ele>134.9</ele>
        <time>2023-09-03T11:53:13Z</time>
      </trkpt>
      <trkpt lat="49.27416" lon="-0.05453">
        <ele>134.9</ele>
        <time>2023-09-03T11:53:14Z</time>
      </trkpt>
      <trkpt lat="49.27418" lon="-0.05462">
        <ele>134.9</ele>
        <time>2023-09-03T11:53:15Z</time>
      </trkpt>
      <trkpt lat="49.2742" lon="-0.05471">
        <ele>134.9</ele>
        <time>2023-09-03T11:53:16Z</time>
      </trkpt>
      <trkpt lat="49.27422" lon="-0.0548">
        <ele>134.8</ele>
        <time>2023-09-03T11:53:17Z</time>
      </trkpt>
      <trkpt lat="49.27424" lon="-0.05491">
        <ele>134.8</ele>
        <time>2023-09-03T11:53:18Z</time>
      </trkpt>
      <trkpt lat="49.27426" lon="-0.05501">
        <ele>134.7</ele>
        <time>2023-09-03T11:53:19Z</time>
      </trkpt>
      <trkpt lat="49.27428" lon="-0.05511">
        <ele>134.6</ele>
        <time>2023-09-03T11:53:20Z</time>
      </trkpt>
      <trkpt lat="49.2743" lon="-0.05521">
        <ele>134.5</ele>
        <time>2023-09-03T11:53:21Z</time>
      </trkpt>
      <trkpt lat="49.27432" lon="-0.05531">
        <ele>134.4</ele>
        <time>2023-09-03T11:53:22Z</time>
      </trkpt>
      <trkpt lat="49.27434" lon="-0.0554">
        <ele>134.4</ele>
        <time>2023-09-03T11:53:23Z</time>
      </trkpt>
      <trkpt lat="49.27436" lon="-0.0555">
        <ele>134.3</ele>
        <time>2023-09-03T11:53:24Z</time>
      </trkpt>
      <trkpt lat="49.27438" lon="-0.05559">
        <ele>134.2</ele>
        <time>2023-09-03T11:53:25Z</time>
      </trkpt>
      <trkpt lat="49.27441" lon="-0.05569">
        <ele>134.1</ele>
        <time>2023-09-03T11:53:26Z</time>
      </trkpt>
      <trkpt lat="49.27443" lon="-0.05579">
        <ele>134.1</ele>
        <time>2023-09-03T11:53:27Z</time>
      </trkpt>
      <trkpt lat="49.27445" lon="-0.0559">
        <ele>134</ele>
        <time>2023-09-03T11:53:28Z</time>
      </trkpt>
      <trkpt lat="49.27448" lon="-0.056">
        <ele>133.9</ele>
        <time>2023-09-03T11:53:29Z</time>
      </trkpt>
      <trkpt lat="49.2745" lon="-0.0561">
        <ele>133.8</ele>
        <time>2023-09-03T11:53:30Z</time>
      </trkpt>
      <trkpt lat="49.27452" lon="-0.05621">
        <ele>133.7</ele>
        <time>2023-09-03T11:53:31Z</time>
      </trkpt>
      <trkpt lat="49.27454" lon="-0.05631">
        <ele>133.6</ele>
        <time>2023-09-03T11:53:32Z</time>
      </trkpt>
      <trkpt lat="49.27457" lon="-0.05641">
        <ele>133.5</ele>
        <time>2023-09-03T11:53:33Z</time>
      </trkpt>
      <trkpt lat="49.2746" lon="-0.05651">
        <ele>133.4</ele>
        <time>2023-09-03T11:53:34Z</time>
      </trkpt>
      <trkpt lat="49.27462" lon="-0.0566">
        <ele>133.3</ele>
        <time>2023-09-03T11:53:35Z</time>
      </trkpt>
      <trkpt lat="49.27465" lon="-0.0567">
        <ele>133.2</ele>
        <time>2023-09-03T11:53:36Z</time>
      </trkpt>
      <trkpt lat="49.27468" lon="-0.05679">
        <ele>133.1</ele>
        <time>2023-09-03T11:53:37Z</time>
      </trkpt>
      <trkpt lat="49.27471" lon="-0.05689">
        <ele>133</ele>
        <time>2023-09-03T11:53:38Z</time>
      </trkpt>
      <trkpt lat="49.27474" lon="-0.05699">
        <ele>132.9</ele>
        <time>2023-09-03T11:53:39Z</time>
      </trkpt>
      <trkpt lat="49.27477" lon="-0.05709">
        <ele>132.9</ele>
        <time>2023-09-03T11:53:40Z</time>
      </trkpt>
      <trkpt lat="49.27479" lon="-0.05719">
        <ele>132.8</ele>
        <time>2023-09-03T11:53:41Z</time>
      </trkpt>
      <trkpt lat="49.27482" lon="-0.05729">
        <ele>132.7</ele>
        <time>2023-09-03T11:53:42Z</time>
      </trkpt>
      <trkpt lat="49.27484" lon="-0.05738">
        <ele>132.6</ele>
        <time>2023-09-03T11:53:43Z</time>
      </trkpt>
      <trkpt lat="49.27487" lon="-0.05748">
        <ele>132.5</ele>
        <time>2023-09-03T11:53:44Z</time>
      </trkpt>
      <trkpt lat="49.2749" lon="-0.05757">
        <ele>132.5</ele>
        <time>2023-09-03T11:53:45Z</time>
      </trkpt>
      <trkpt lat="49.27492" lon="-0.05766">
        <ele>132.4</ele>
        <time>2023-09-03T11:53:46Z</time>
      </trkpt>
      <trkpt lat="49.27495" lon="-0.05775">
        <ele>132.4</ele>
        <time>2023-09-03T11:53:47Z</time>
      </trkpt>
      <trkpt lat="49.27498" lon="-0.05785">
        <ele>132.3</ele>
        <time>2023-09-03T11:53:48Z</time>
      </trkpt>
      <trkpt lat="49.275" lon="-0.05794">
        <ele>132.3</ele>
        <time>2023-09-03T11:53:49Z</time>
      </trkpt>
      <trkpt lat="49.27502" lon="-0.05804">
        <ele>132.2</ele>
        <time>2023-09-03T11:53:50Z</time>
      </trkpt>
      <trkpt lat="49.27505" lon="-0.05813">
        <ele>132.2</ele>
        <time>2023-09-03T11:53:51Z</time>
      </trkpt>
      <trkpt lat="49.27508" lon="-0.05823">
        <ele>132.1</ele>
        <time>2023-09-03T11:53:52Z</time>
      </trkpt>
      <trkpt lat="49.27511" lon="-0.05834">
        <ele>132</ele>
        <time>2023-09-03T11:53:53Z</time>
      </trkpt>
      <trkpt lat="49.27513" lon="-0.05844">
        <ele>132</ele>
        <time>2023-09-03T11:53:54Z</time>
      </trkpt>
      <trkpt lat="49.27516" lon="-0.05854">
        <ele>132</ele>
        <time>2023-09-03T11:53:55Z</time>
      </trkpt>
      <trkpt lat="49.27519" lon="-0.05864">
        <ele>132</ele>
        <time>2023-09-03T11:53:56Z</time>
      </trkpt>
      <trkpt lat="49.27522" lon="-0.05874">
        <ele>131.9</ele>
        <time>2023-09-03T11:53:57Z</time>
      </trkpt>
      <trkpt lat="49.27525" lon="-0.05884">
        <ele>131.9</ele>
        <time>2023-09-03T11:53:58Z</time>
      </trkpt>
      <trkpt lat="49.27528" lon="-0.05894">
        <ele>131.8</ele>
        <time>2023-09-03T11:53:59Z</time>
      </trkpt>
      <trkpt lat="49.2753" lon="-0.05904">
        <ele>131.8</ele>
        <time>2023-09-03T11:54:00Z</time>
      </trkpt>
      <trkpt lat="49.27533" lon="-0.05914">
        <ele>131.8</ele>
        <time>2023-09-03T11:54:01Z</time>
      </trkpt>
      <trkpt lat="49.27536" lon="-0.05924">
        <ele>131.8</ele>
        <time>2023-09-03T11:54:02Z</time>
      </trkpt>
      <trkpt lat="49.27539" lon="-0.05933">
        <ele>131.8</ele>
        <time>2023-09-03T11:54:03Z</time>
      </trkpt>
      <trkpt lat="49.27541" lon="-0.05943">
        <ele>131.7</ele>
        <time>2023-09-03T11:54:04Z</time>
      </trkpt>
      <trkpt lat="49.27544" lon="-0.05953">
        <ele>131.7</ele>
        <time>2023-09-03T11:54:05Z</time>
      </trkpt>
      <trkpt lat="49.27547" lon="-0.05963">
        <ele>131.7</ele>
        <time>2023-09-03T11:54:06Z</time>
      </trkpt>
      <trkpt lat="49.27549" lon="-0.05973">
        <ele>131.7</ele>
        <time>2023-09-03T11:54:07Z</time>
      </trkpt>
      <trkpt lat="49.27552" lon="-0.05983">
        <ele>131.7</ele>
        <time>2023-09-03T11:54:08Z</time>
      </trkpt>
      <trkpt lat="49.27555" lon="-0.05993">
        <ele>131.7</ele>
        <time>2023-09-03T11:54:09Z</time>
      </trkpt>
      <trkpt lat="49.27557" lon="-0.06003">
        <ele>131.7</ele>
        <time>2023-09-03T11:54:10Z</time>
      </trkpt>
      <trkpt lat="49.2756" lon="-0.06013">
        <ele>131.7</ele>
        <time>2023-09-03T11:54:11Z</time>
      </trkpt>
      <trkpt lat="49.27562" lon="-0.06023">
        <ele>131.8</ele>
        <time>2023-09-03T11:54:12Z</time>
      </trkpt>
      <trkpt lat="49.27565" lon="-0.06033">
        <ele>131.8</ele>
        <time>2023-09-03T11:54:13Z</time>
      </trkpt>
      <trkpt lat="49.27568" lon="-0.06043">
        <ele>131.8</ele>
        <time>2023-09-03T11:54:14Z</time>
      </trkpt>
      <trkpt lat="49.2757" lon="-0.06052">
        <ele>131.8</ele>
        <time>2023-09-03T11:54:15Z</time>
      </trkpt>
      <trkpt lat="49.27573" lon="-0.06062">
        <ele>131.8</ele>
        <time>2023-09-03T11:54:16Z</time>
      </trkpt>
      <trkpt lat="49.27576" lon="-0.06072">
        <ele>131.9</ele>
        <time>2023-09-03T11:54:17Z</time>
      </trkpt>
      <trkpt lat="49.27579" lon="-0.06082">
        <ele>131.9</ele>
        <time>2023-09-03T11:54:18Z</time>
      </trkpt>
      <trkpt lat="49.27582" lon="-0.06092">
        <ele>131.9</ele>
        <time>2023-09-03T11:54:19Z</time>
      </trkpt>
      <trkpt lat="49.27584" lon="-0.06102">
        <ele>131.9</ele>
        <time>2023-09-03T11:54:20Z</time>
      </trkpt>
      <trkpt lat="49.27587" lon="-0.06112">
        <ele>132</ele>
        <time>2023-09-03T11:54:21Z</time>
      </trkpt>
      <trkpt lat="49.27589" lon="-0.06121">
        <ele>132</ele>
        <time>2023-09-03T11:54:22Z</time>
      </trkpt>
      <trkpt lat="49.27592" lon="-0.06131">
        <ele>132</ele>
        <time>2023-09-03T11:54:23Z</time>
      </trkpt>
      <trkpt lat="49.27595" lon="-0.06141">
        <ele>132</ele>
        <time>2023-09-03T11:54:24Z</time>
      </trkpt>
      <trkpt lat="49.27597" lon="-0.06151">
        <ele>132</ele>
        <time>2023-09-03T11:54:25Z</time>
      </trkpt>
      <trkpt lat="49.27599" lon="-0.0616">
        <ele>132</ele>
        <time>2023-09-03T11:54:26Z</time>
      </trkpt>
      <trkpt lat="49.27601" lon="-0.06169">
        <ele>132.1</ele>
        <time>2023-09-03T11:54:27Z</time>
      </trkpt>
      <trkpt lat="49.27603" lon="-0.06178">
        <ele>132.1</ele>
        <time>2023-09-03T11:54:28Z</time>
      </trkpt>
      <trkpt lat="49.27605" lon="-0.06187">
        <ele>132.1</ele>
        <time>2023-09-03T11:54:29Z</time>
      </trkpt>
      <trkpt lat="49.27607" lon="-0.06196">
        <ele>132.1</ele>
        <time>2023-09-03T11:54:30Z</time>
      </trkpt>
      <trkpt lat="49.27609" lon="-0.06204">
        <ele>132.2</ele>
        <time>2023-09-03T11:54:31Z</time>
      </trkpt>
      <trkpt lat="49.27611" lon="-0.06213">
        <ele>132.2</ele>
        <time>2023-09-03T11:54:32Z</time>
      </trkpt>
      <trkpt lat="49.27614" lon="-0.06222">
        <ele>132.2</ele>
        <time>2023-09-03T11:54:33Z</time>
      </trkpt>
      <trkpt lat="49.27616" lon="-0.06232">
        <ele>132.2</ele>
        <time>2023-09-03T11:54:34Z</time>
      </trkpt>
      <trkpt lat="49.27618" lon="-0.06241">
        <ele>132.3</ele>
        <time>2023-09-03T11:54:35Z</time>
      </trkpt>
      <trkpt lat="49.27619" lon="-0.06249">
        <ele>132.3</ele>
        <time>2023-09-03T11:54:36Z</time>
      </trkpt>
      <trkpt lat="49.2762" lon="-0.06257">
        <ele>132.3</ele>
        <time>2023-09-03T11:54:37Z</time>
      </trkpt>
      <trkpt lat="49.27621" lon="-0.06265">
        <ele>132.3</ele>
        <time>2023-09-03T11:54:38Z</time>
      </trkpt>
      <trkpt lat="49.27623" lon="-0.06274">
        <ele>132.4</ele>
        <time>2023-09-03T11:54:39Z</time>
      </trkpt>
      <trkpt lat="49.27624" lon="-0.06283">
        <ele>132.4</ele>
        <time>2023-09-03T11:54:40Z</time>
      </trkpt>
      <trkpt lat="49.27624" lon="-0.06292">
        <ele>132.4</ele>
        <time>2023-09-03T11:54:41Z</time>
      </trkpt>
      <trkpt lat="49.27625" lon="-0.063">
        <ele>132.4</ele>
        <time>2023-09-03T11:54:42Z</time>
      </trkpt>
      <trkpt lat="49.27626" lon="-0.06309">
        <ele>132.4</ele>
        <time>2023-09-03T11:54:43Z</time>
      </trkpt>
      <trkpt lat="49.27628" lon="-0.06318">
        <ele>132.4</ele>
        <time>2023-09-03T11:54:44Z</time>
      </trkpt>
      <trkpt lat="49.27629" lon="-0.06326">
        <ele>132.5</ele>
        <time>2023-09-03T11:54:45Z</time>
      </trkpt>
      <trkpt lat="49.27631" lon="-0.06335">
        <ele>132.5</ele>
        <time>2023-09-03T11:54:46Z</time>
      </trkpt>
      <trkpt lat="49.27633" lon="-0.06345">
        <ele>132.5</ele>
        <time>2023-09-03T11:54:47Z</time>
      </trkpt>
      <trkpt lat="49.27636" lon="-0.06356">
        <ele>132.5</ele>
        <time>2023-09-03T11:54:48Z</time>
      </trkpt>
      <trkpt lat="49.27638" lon="-0.06367">
        <ele>132.5</ele>
        <time>2023-09-03T11:54:49Z</time>
      </trkpt>
      <trkpt lat="49.2764" lon="-0.06377">
        <ele>132.5</ele>
        <time>2023-09-03T11:54:50Z</time>
      </trkpt>
      <trkpt lat="49.27642" lon="-0.06387">
        <ele>132.5</ele>
        <time>2023-09-03T11:54:51Z</time>
      </trkpt>
      <trkpt lat="49.27643" lon="-0.06397">
        <ele>132.6</ele>
        <time>2023-09-03T11:54:52Z</time>
      </trkpt>
      <trkpt lat="49.27645" lon="-0.06406">
        <ele>132.6</ele>
        <time>2023-09-03T11:54:53Z</time>
      </trkpt>
      <trkpt lat="49.27647" lon="-0.06415">
        <ele>132.6</ele>
        <time>2023-09-03T11:54:54Z</time>
      </trkpt>
      <trkpt lat="49.27649" lon="-0.06424">
        <ele>132.6</ele>
        <time>2023-09-03T11:54:55Z</time>
      </trkpt>
      <trkpt lat="49.27651" lon="-0.06434">
        <ele>132.6</ele>
        <time>2023-09-03T11:54:56Z</time>
      </trkpt>
      <trkpt lat="49.27653" lon="-0.06444">
        <ele>132.6</ele>
        <time>2023-09-03T11:54:57Z</time>
      </trkpt>
      <trkpt lat="49.27655" lon="-0.06453">
        <ele>132.7</ele>
        <time>2023-09-03T11:54:58Z</time>
      </trkpt>
      <trkpt lat="49.27657" lon="-0.06463">
        <ele>132.7</ele>
        <time>2023-09-03T11:54:59Z</time>
      </trkpt>
      <trkpt lat="49.27659" lon="-0.06472">
        <ele>132.7</ele>
        <time>2023-09-03T11:55:00Z</time>
      </trkpt>
      <trkpt lat="49.2766" lon="-0.06481">
        <ele>132.8</ele>
        <time>2023-09-03T11:55:01Z</time>
      </trkpt>
      <trkpt lat="49.27662" lon="-0.0649">
        <ele>132.8</ele>
        <time>2023-09-03T11:55:02Z</time>
      </trkpt>
      <trkpt lat="49.27664" lon="-0.06498">
        <ele>132.8</ele>
        <time>2023-09-03T11:55:03Z</time>
      </trkpt>
      <trkpt lat="49.27665" lon="-0.06506">
        <ele>132.8</ele>
        <time>2023-09-03T11:55:04Z</time>
      </trkpt>
      <trkpt lat="49.27666" lon="-0.06514">
        <ele>132.8</ele>
        <time>2023-09-03T11:55:05Z</time>
      </trkpt>
      <trkpt lat="49.27668" lon="-0.06523">
        <ele>132.8</ele>
        <time>2023-09-03T11:55:06Z</time>
      </trkpt>
      <trkpt lat="49.27669" lon="-0.0653">
        <ele>132.8</ele>
        <time>2023-09-03T11:55:07Z</time>
      </trkpt>
      <trkpt lat="49.27671" lon="-0.06539">
        <ele>132.8</ele>
        <time>2023-09-03T11:55:08Z</time>
      </trkpt>
      <trkpt lat="49.27672" lon="-0.06548">
        <ele>132.8</ele>
        <time>2023-09-03T11:55:09Z</time>
      </trkpt>
      <trkpt lat="49.27674" lon="-0.06558">
        <ele>132.8</ele>
        <time>2023-09-03T11:55:10Z</time>
      </trkpt>
      <trkpt lat="49.27676" lon="-0.06568">
        <ele>132.8</ele>
        <time>2023-09-03T11:55:11Z</time>
      </trkpt>
      <trkpt lat="49.27678" lon="-0.06577">
        <ele>132.9</ele>
        <time>2023-09-03T11:55:12Z</time>
      </trkpt>
      <trkpt lat="49.27679" lon="-0.06587">
        <ele>132.9</ele>
        <time>2023-09-03T11:55:13Z</time>
      </trkpt>
      <trkpt lat="49.27681" lon="-0.06597">
        <ele>133</ele>
        <time>2023-09-03T11:55:14Z</time>
      </trkpt>
      <trkpt lat="49.27683" lon="-0.06606">
        <ele>133</ele>
        <time>2023-09-03T11:55:15Z</time>
      </trkpt>
      <trkpt lat="49.27685" lon="-0.06616">
        <ele>133</ele>
        <time>2023-09-03T11:55:16Z</time>
      </trkpt>
      <trkpt lat="49.27686" lon="-0.06625">
        <ele>133</ele>
        <time>2023-09-03T11:55:17Z</time>
      </trkpt>
      <trkpt lat="49.27688" lon="-0.06633">
        <ele>133.1</ele>
        <time>2023-09-03T11:55:18Z</time>
      </trkpt>
      <trkpt lat="49.2769" lon="-0.06642">
        <ele>133.1</ele>
        <time>2023-09-03T11:55:19Z</time>
      </trkpt>
      <trkpt lat="49.27692" lon="-0.06651">
        <ele>133.1</ele>
        <time>2023-09-03T11:55:20Z</time>
      </trkpt>
      <trkpt lat="49.27693" lon="-0.0666">
        <ele>133.1</ele>
        <time>2023-09-03T11:55:21Z</time>
      </trkpt>
      <trkpt lat="49.27695" lon="-0.06669">
        <ele>133.1</ele>
        <time>2023-09-03T11:55:22Z</time>
      </trkpt>
      <trkpt lat="49.27697" lon="-0.06678">
        <ele>133.2</ele>
        <time>2023-09-03T11:55:23Z</time>
      </trkpt>
      <trkpt lat="49.27698" lon="-0.06687">
        <ele>133.2</ele>
        <time>2023-09-03T11:55:24Z</time>
      </trkpt>
      <trkpt lat="49.277" lon="-0.06695">
        <ele>133.2</ele>
        <time>2023-09-03T11:55:25Z</time>
      </trkpt>
      <trkpt lat="49.27701" lon="-0.06704">
        <ele>133.3</ele>
        <time>2023-09-03T11:55:26Z</time>
      </trkpt>
      <trkpt lat="49.27703" lon="-0.06713">
        <ele>133.3</ele>
        <time>2023-09-03T11:55:27Z</time>
      </trkpt>
      <trkpt lat="49.27704" lon="-0.06722">
        <ele>133.4</ele>
        <time>2023-09-03T11:55:28Z</time>
      </trkpt>
      <trkpt lat="49.27705" lon="-0.0673">
        <ele>133.4</ele>
        <time>2023-09-03T11:55:29Z</time>
      </trkpt>
      <trkpt lat="49.27707" lon="-0.06739">
        <ele>133.5</ele>
        <time>2023-09-03T11:55:30Z</time>
      </trkpt>
      <trkpt lat="49.27708" lon="-0.06747">
        <ele>133.5</ele>
        <time>2023-09-03T11:55:31Z</time>
      </trkpt>
      <trkpt lat="49.27709" lon="-0.06756">
        <ele>133.5</ele>
        <time>2023-09-03T11:55:32Z</time>
      </trkpt>
      <trkpt lat="49.2771" lon="-0.06765">
        <ele>133.5</ele>
        <time>2023-09-03T11:55:33Z</time>
      </trkpt>
      <trkpt lat="49.27711" lon="-0.06774">
        <ele>133.5</ele>
        <time>2023-09-03T11:55:34Z</time>
      </trkpt>
      <trkpt lat="49.27713" lon="-0.06782">
        <ele>133.6</ele>
        <time>2023-09-03T11:55:35Z</time>
      </trkpt>
      <trkpt lat="49.27715" lon="-0.06791">
        <ele>133.6</ele>
        <time>2023-09-03T11:55:36Z</time>
      </trkpt>
      <trkpt lat="49.27716" lon="-0.068">
        <ele>133.6</ele>
        <time>2023-09-03T11:55:37Z</time>
      </trkpt>
      <trkpt lat="49.27718" lon="-0.06809">
        <ele>133.7</ele>
        <time>2023-09-03T11:55:38Z</time>
      </trkpt>
      <trkpt lat="49.27719" lon="-0.06818">
        <ele>133.7</ele>
        <time>2023-09-03T11:55:39Z</time>
      </trkpt>
      <trkpt lat="49.2772" lon="-0.06827">
        <ele>133.8</ele>
        <time>2023-09-03T11:55:40Z</time>
      </trkpt>
      <trkpt lat="49.27722" lon="-0.06836">
        <ele>133.8</ele>
        <time>2023-09-03T11:55:41Z</time>
      </trkpt>
      <trkpt lat="49.27723" lon="-0.06845">
        <ele>133.9</ele>
        <time>2023-09-03T11:55:42Z</time>
      </trkpt>
      <trkpt lat="49.27725" lon="-0.06854">
        <ele>134</ele>
        <time>2023-09-03T11:55:43Z</time>
      </trkpt>
      <trkpt lat="49.27726" lon="-0.06863">
        <ele>134</ele>
        <time>2023-09-03T11:55:44Z</time>
      </trkpt>
      <trkpt lat="49.27728" lon="-0.06872">
        <ele>134</ele>
        <time>2023-09-03T11:55:45Z</time>
      </trkpt>
      <trkpt lat="49.2773" lon="-0.06881">
        <ele>134.1</ele>
        <time>2023-09-03T11:55:46Z</time>
      </trkpt>
      <trkpt lat="49.27732" lon="-0.06891">
        <ele>134</ele>
        <time>2023-09-03T11:55:47Z</time>
      </trkpt>
      <trkpt lat="49.27734" lon="-0.069">
        <ele>134</ele>
        <time>2023-09-03T11:55:48Z</time>
      </trkpt>
      <trkpt lat="49.27736" lon="-0.06909">
        <ele>134</ele>
        <time>2023-09-03T11:55:49Z</time>
      </trkpt>
      <trkpt lat="49.27738" lon="-0.06917">
        <ele>134</ele>
        <time>2023-09-03T11:55:50Z</time>
      </trkpt>
      <trkpt lat="49.2774" lon="-0.06926">
        <ele>134.1</ele>
        <time>2023-09-03T11:55:51Z</time>
      </trkpt>
      <trkpt lat="49.27743" lon="-0.06935">
        <ele>134.1</ele>
        <time>2023-09-03T11:55:52Z</time>
      </trkpt>
      <trkpt lat="49.27745" lon="-0.06944">
        <ele>134.1</ele>
        <time>2023-09-03T11:55:53Z</time>
      </trkpt>
      <trkpt lat="49.27748" lon="-0.06953">
        <ele>134.1</ele>
        <time>2023-09-03T11:55:54Z</time>
      </trkpt>
      <trkpt lat="49.2775" lon="-0.06961">
        <ele>134.1</ele>
        <time>2023-09-03T11:55:55Z</time>
      </trkpt>
      <trkpt lat="49.27753" lon="-0.0697">
        <ele>134.1</ele>
        <time>2023-09-03T11:55:56Z</time>
      </trkpt>
      <trkpt lat="49.27756" lon="-0.06978">
        <ele>134.1</ele>
        <time>2023-09-03T11:55:57Z</time>
      </trkpt>
      <trkpt lat="49.27759" lon="-0.06986">
        <ele>134.1</ele>
        <time>2023-09-03T11:55:58Z</time>
      </trkpt>
      <trkpt lat="49.27762" lon="-0.06995">
        <ele>134.1</ele>
        <time>2023-09-03T11:55:59Z</time>
      </trkpt>
      <trkpt lat="49.27765" lon="-0.07003">
        <ele>134.1</ele>
        <time>2023-09-03T11:56:00Z</time>
      </trkpt>
      <trkpt lat="49.27768" lon="-0.07012">
        <ele>134.1</ele>
        <time>2023-09-03T11:56:01Z</time>
      </trkpt>
      <trkpt lat="49.27771" lon="-0.0702">
        <ele>134</ele>
        <time>2023-09-03T11:56:02Z</time>
      </trkpt>
      <trkpt lat="49.27774" lon="-0.07029">
        <ele>134</ele>
        <time>2023-09-03T11:56:03Z</time>
      </trkpt>
      <trkpt lat="49.27778" lon="-0.07038">
        <ele>134</ele>
        <time>2023-09-03T11:56:04Z</time>
      </trkpt>
      <trkpt lat="49.27781" lon="-0.07047">
        <ele>133.9</ele>
        <time>2023-09-03T11:56:05Z</time>
      </trkpt>
      <trkpt lat="49.27785" lon="-0.07056">
        <ele>133.9</ele>
        <time>2023-09-03T11:56:06Z</time>
      </trkpt>
      <trkpt lat="49.27788" lon="-0.07065">
        <ele>133.8</ele>
        <time>2023-09-03T11:56:07Z</time>
      </trkpt>
      <trkpt lat="49.27792" lon="-0.07075">
        <ele>133.8</ele>
        <time>2023-09-03T11:56:08Z</time>
      </trkpt>
      <trkpt lat="49.27795" lon="-0.07085">
        <ele>133.7</ele>
        <time>2023-09-03T11:56:09Z</time>
      </trkpt>
      <trkpt lat="49.27798" lon="-0.07094">
        <ele>133.7</ele>
        <time>2023-09-03T11:56:10Z</time>
      </trkpt>
      <trkpt lat="49.27801" lon="-0.07104">
        <ele>133.7</ele>
        <time>2023-09-03T11:56:11Z</time>
      </trkpt>
      <trkpt lat="49.27805" lon="-0.07113">
        <ele>133.6</ele>
        <time>2023-09-03T11:56:12Z</time>
      </trkpt>
      <trkpt lat="49.27808" lon="-0.07122">
        <ele>133.6</ele>
        <time>2023-09-03T11:56:13Z</time>
      </trkpt>
      <trkpt lat="49.27811" lon="-0.07132">
        <ele>133.6</ele>
        <time>2023-09-03T11:56:14Z</time>
      </trkpt>
      <trkpt lat="49.27814" lon="-0.07141">
        <ele>133.5</ele>
        <time>2023-09-03T11:56:15Z</time>
      </trkpt>
      <trkpt lat="49.27818" lon="-0.0715">
        <ele>133.4</ele>
        <time>2023-09-03T11:56:16Z</time>
      </trkpt>
      <trkpt lat="49.27822" lon="-0.07159">
        <ele>133.3</ele>
        <time>2023-09-03T11:56:17Z</time>
      </trkpt>
      <trkpt lat="49.27825" lon="-0.07167">
        <ele>133.3</ele>
        <time>2023-09-03T11:56:18Z</time>
      </trkpt>
      <trkpt lat="49.27829" lon="-0.07176">
        <ele>133.2</ele>
        <time>2023-09-03T11:56:19Z</time>
      </trkpt>
      <trkpt lat="49.27833" lon="-0.07184">
        <ele>133.1</ele>
        <time>2023-09-03T11:56:20Z</time>
      </trkpt>
      <trkpt lat="49.27836" lon="-0.07193">
        <ele>133</ele>
        <time>2023-09-03T11:56:21Z</time>
      </trkpt>
      <trkpt lat="49.2784" lon="-0.07202">
        <ele>132.9</ele>
        <time>2023-09-03T11:56:22Z</time>
      </trkpt>
      <trkpt lat="49.27843" lon="-0.07209">
        <ele>132.8</ele>
        <time>2023-09-03T11:56:23Z</time>
      </trkpt>
      <trkpt lat="49.27847" lon="-0.07217">
        <ele>132.7</ele>
        <time>2023-09-03T11:56:24Z</time>
      </trkpt>
      <trkpt lat="49.2785" lon="-0.07224">
        <ele>132.6</ele>
        <time>2023-09-03T11:56:25Z</time>
      </trkpt>
      <trkpt lat="49.27854" lon="-0.07233">
        <ele>132.5</ele>
        <time>2023-09-03T11:56:26Z</time>
      </trkpt>
      <trkpt lat="49.27858" lon="-0.07241">
        <ele>132.4</ele>
        <time>2023-09-03T11:56:27Z</time>
      </trkpt>
      <trkpt lat="49.27862" lon="-0.0725">
        <ele>132.3</ele>
        <time>2023-09-03T11:56:28Z</time>
      </trkpt>
      <trkpt lat="49.27867" lon="-0.07258">
        <ele>132.3</ele>
        <time>2023-09-03T11:56:29Z</time>
      </trkpt>
      <trkpt lat="49.27871" lon="-0.07266">
        <ele>132.2</ele>
        <time>2023-09-03T11:56:30Z</time>
      </trkpt>
      <trkpt lat="49.27875" lon="-0.07274">
        <ele>132.2</ele>
        <time>2023-09-03T11:56:31Z</time>
      </trkpt>
      <trkpt lat="49.2788" lon="-0.07283">
        <ele>132.2</ele>
        <time>2023-09-03T11:56:32Z</time>
      </trkpt>
      <trkpt lat="49.27885" lon="-0.07291">
        <ele>132.2</ele>
        <time>2023-09-03T11:56:33Z</time>
      </trkpt>
      <trkpt lat="49.27889" lon="-0.07299">
        <ele>132.3</ele>
        <time>2023-09-03T11:56:34Z</time>
      </trkpt>
      <trkpt lat="49.27893" lon="-0.07307">
        <ele>132.4</ele>
        <time>2023-09-03T11:56:35Z</time>
      </trkpt>
      <trkpt lat="49.27898" lon="-0.07316">
        <ele>132.4</ele>
        <time>2023-09-03T11:56:36Z</time>
      </trkpt>
      <trkpt lat="49.27901" lon="-0.07325">
        <ele>132.4</ele>
        <time>2023-09-03T11:56:37Z</time>
      </trkpt>
      <trkpt lat="49.27906" lon="-0.07333">
        <ele>132.4</ele>
        <time>2023-09-03T11:56:38Z</time>
      </trkpt>
      <trkpt lat="49.27909" lon="-0.07341">
        <ele>132.4</ele>
        <time>2023-09-03T11:56:39Z</time>
      </trkpt>
      <trkpt lat="49.27913" lon="-0.0735">
        <ele>132.3</ele>
        <time>2023-09-03T11:56:40Z</time>
      </trkpt>
      <trkpt lat="49.27917" lon="-0.07358">
        <ele>132.3</ele>
        <time>2023-09-03T11:56:41Z</time>
      </trkpt>
      <trkpt lat="49.27921" lon="-0.07366">
        <ele>132.3</ele>
        <time>2023-09-03T11:56:42Z</time>
      </trkpt>
      <trkpt lat="49.27924" lon="-0.07374">
        <ele>132.2</ele>
        <time>2023-09-03T11:56:43Z</time>
      </trkpt>
      <trkpt lat="49.27928" lon="-0.07383">
        <ele>132.2</ele>
        <time>2023-09-03T11:56:44Z</time>
      </trkpt>
      <trkpt lat="49.27931" lon="-0.0739">
        <ele>132.2</ele>
        <time>2023-09-03T11:56:45Z</time>
      </trkpt>
      <trkpt lat="49.27935" lon="-0.07398">
        <ele>132.1</ele>
        <time>2023-09-03T11:56:46Z</time>
      </trkpt>
      <trkpt lat="49.27938" lon="-0.07406">
        <ele>132</ele>
        <time>2023-09-03T11:56:47Z</time>
      </trkpt>
      <trkpt lat="49.27941" lon="-0.07414">
        <ele>132</ele>
        <time>2023-09-03T11:56:48Z</time>
      </trkpt>
      <trkpt lat="49.27944" lon="-0.07422">
        <ele>131.9</ele>
        <time>2023-09-03T11:56:49Z</time>
      </trkpt>
      <trkpt lat="49.27947" lon="-0.0743">
        <ele>131.8</ele>
        <time>2023-09-03T11:56:50Z</time>
      </trkpt>
      <trkpt lat="49.2795" lon="-0.07439">
        <ele>131.6</ele>
        <time>2023-09-03T11:56:51Z</time>
      </trkpt>
      <trkpt lat="49.27954" lon="-0.07449">
        <ele>131.5</ele>
        <time>2023-09-03T11:56:52Z</time>
      </trkpt>
      <trkpt lat="49.27958" lon="-0.07458">
        <ele>131.3</ele>
        <time>2023-09-03T11:56:53Z</time>
      </trkpt>
      <trkpt lat="49.27961" lon="-0.07468">
        <ele>131.1</ele>
        <time>2023-09-03T11:56:54Z</time>
      </trkpt>
      <trkpt lat="49.27965" lon="-0.07478">
        <ele>130.9</ele>
        <time>2023-09-03T11:56:55Z</time>
      </trkpt>
      <trkpt lat="49.27969" lon="-0.07487">
        <ele>130.7</ele>
        <time>2023-09-03T11:56:56Z</time>
      </trkpt>
      <trkpt lat="49.27972" lon="-0.07497">
        <ele>130.5</ele>
        <time>2023-09-03T11:56:57Z</time>
      </trkpt>
      <trkpt lat="49.27975" lon="-0.07506">
        <ele>130.3</ele>
        <time>2023-09-03T11:56:58Z</time>
      </trkpt>
      <trkpt lat="49.27979" lon="-0.07516">
        <ele>130</ele>
        <time>2023-09-03T11:56:59Z</time>
      </trkpt>
      <trkpt lat="49.27982" lon="-0.07527">
        <ele>129.8</ele>
        <time>2023-09-03T11:57:00Z</time>
      </trkpt>
      <trkpt lat="49.27985" lon="-0.07539">
        <ele>129.5</ele>
        <time>2023-09-03T11:57:01Z</time>
      </trkpt>
      <trkpt lat="49.27989" lon="-0.07549">
        <ele>129.2</ele>
        <time>2023-09-03T11:57:02Z</time>
      </trkpt>
      <trkpt lat="49.27992" lon="-0.07559">
        <ele>129</ele>
        <time>2023-09-03T11:57:03Z</time>
      </trkpt>
      <trkpt lat="49.27994" lon="-0.0757">
        <ele>128.7</ele>
        <time>2023-09-03T11:57:04Z</time>
      </trkpt>
      <trkpt lat="49.27997" lon="-0.0758">
        <ele>128.5</ele>
        <time>2023-09-03T11:57:05Z</time>
      </trkpt>
      <trkpt lat="49.27999" lon="-0.07592">
        <ele>128.1</ele>
        <time>2023-09-03T11:57:06Z</time>
      </trkpt>
      <trkpt lat="49.28003" lon="-0.07605">
        <ele>127.7</ele>
        <time>2023-09-03T11:57:07Z</time>
      </trkpt>
      <trkpt lat="49.28006" lon="-0.07618">
        <ele>127.4</ele>
        <time>2023-09-03T11:57:08Z</time>
      </trkpt>
      <trkpt lat="49.28011" lon="-0.07631">
        <ele>127.3</ele>
        <time>2023-09-03T11:57:09Z</time>
      </trkpt>
      <trkpt lat="49.28015" lon="-0.07643">
        <ele>126.9</ele>
        <time>2023-09-03T11:57:10Z</time>
      </trkpt>
      <trkpt lat="49.28019" lon="-0.07654">
        <ele>126.5</ele>
        <time>2023-09-03T11:57:11Z</time>
      </trkpt>
      <trkpt lat="49.28022" lon="-0.07665">
        <ele>126.1</ele>
        <time>2023-09-03T11:57:12Z</time>
      </trkpt>
      <trkpt lat="49.28026" lon="-0.07677">
        <ele>125.7</ele>
        <time>2023-09-03T11:57:13Z</time>
      </trkpt>
      <trkpt lat="49.28029" lon="-0.07689">
        <ele>125.2</ele>
        <time>2023-09-03T11:57:14Z</time>
      </trkpt>
      <trkpt lat="49.28034" lon="-0.07702">
        <ele>124.6</ele>
        <time>2023-09-03T11:57:15Z</time>
      </trkpt>
      <trkpt lat="49.28038" lon="-0.07717">
        <ele>124</ele>
        <time>2023-09-03T11:57:16Z</time>
      </trkpt>
      <trkpt lat="49.28043" lon="-0.07733">
        <ele>123.4</ele>
        <time>2023-09-03T11:57:17Z</time>
      </trkpt>
      <trkpt lat="49.28047" lon="-0.07747">
        <ele>122.8</ele>
        <time>2023-09-03T11:57:18Z</time>
      </trkpt>
      <trkpt lat="49.28052" lon="-0.07761">
        <ele>122.3</ele>
        <time>2023-09-03T11:57:19Z</time>
      </trkpt>
      <trkpt lat="49.28056" lon="-0.07774">
        <ele>121.8</ele>
        <time>2023-09-03T11:57:20Z</time>
      </trkpt>
      <trkpt lat="49.28061" lon="-0.07789">
        <ele>121.3</ele>
        <time>2023-09-03T11:57:21Z</time>
      </trkpt>
      <trkpt lat="49.28067" lon="-0.07804">
        <ele>120.7</ele>
        <time>2023-09-03T11:57:22Z</time>
      </trkpt>
      <trkpt lat="49.28072" lon="-0.07819">
        <ele>120.2</ele>
        <time>2023-09-03T11:57:23Z</time>
      </trkpt>
      <trkpt lat="49.28077" lon="-0.07833">
        <ele>119.8</ele>
        <time>2023-09-03T11:57:24Z</time>
      </trkpt>
      <trkpt lat="49.28082" lon="-0.07847">
        <ele>119.4</ele>
        <time>2023-09-03T11:57:25Z</time>
      </trkpt>
      <trkpt lat="49.28086" lon="-0.07859">
        <ele>119.1</ele>
        <time>2023-09-03T11:57:26Z</time>
      </trkpt>
      <trkpt lat="49.28091" lon="-0.07872">
        <ele>118.7</ele>
        <time>2023-09-03T11:57:27Z</time>
      </trkpt>
      <trkpt lat="49.28095" lon="-0.07884">
        <ele>118.4</ele>
        <time>2023-09-03T11:57:28Z</time>
      </trkpt>
      <trkpt lat="49.28099" lon="-0.07896">
        <ele>118.1</ele>
        <time>2023-09-03T11:57:29Z</time>
      </trkpt>
      <trkpt lat="49.28104" lon="-0.07908">
        <ele>117.8</ele>
        <time>2023-09-03T11:57:30Z</time>
      </trkpt>
      <trkpt lat="49.28109" lon="-0.07919">
        <ele>117.5</ele>
        <time>2023-09-03T11:57:31Z</time>
      </trkpt>
      <trkpt lat="49.28113" lon="-0.0793">
        <ele>117.2</ele>
        <time>2023-09-03T11:57:32Z</time>
      </trkpt>
      <trkpt lat="49.28119" lon="-0.07942">
        <ele>116.8</ele>
        <time>2023-09-03T11:57:33Z</time>
      </trkpt>
      <trkpt lat="49.28125" lon="-0.07953">
        <ele>116.3</ele>
        <time>2023-09-03T11:57:34Z</time>
      </trkpt>
      <trkpt lat="49.28131" lon="-0.07962">
        <ele>115.9</ele>
        <time>2023-09-03T11:57:35Z</time>
      </trkpt>
      <trkpt lat="49.28138" lon="-0.07971">
        <ele>115.4</ele>
        <time>2023-09-03T11:57:36Z</time>
      </trkpt>
      <trkpt lat="49.28146" lon="-0.07981">
        <ele>114.9</ele>
        <time>2023-09-03T11:57:37Z</time>
      </trkpt>
      <trkpt lat="49.28154" lon="-0.07992">
        <ele>114.5</ele>
        <time>2023-09-03T11:57:38Z</time>
      </trkpt>
      <trkpt lat="49.28163" lon="-0.08003">
        <ele>114.1</ele>
        <time>2023-09-03T11:57:39Z</time>
      </trkpt>
      <trkpt lat="49.28171" lon="-0.08014">
        <ele>113.7</ele>
        <time>2023-09-03T11:57:40Z</time>
      </trkpt>
      <trkpt lat="49.28179" lon="-0.08024">
        <ele>113.4</ele>
        <time>2023-09-03T11:57:41Z</time>
      </trkpt>
      <trkpt lat="49.28186" lon="-0.08034">
        <ele>113.1</ele>
        <time>2023-09-03T11:57:42Z</time>
      </trkpt>
      <trkpt lat="49.28194" lon="-0.08044">
        <ele>112.8</ele>
        <time>2023-09-03T11:57:43Z</time>
      </trkpt>
      <trkpt lat="49.28202" lon="-0.08053">
        <ele>112.5</ele>
        <time>2023-09-03T11:57:44Z</time>
      </trkpt>
      <trkpt lat="49.28209" lon="-0.08063">
        <ele>112.2</ele>
        <time>2023-09-03T11:57:45Z</time>
      </trkpt>
      <trkpt lat="49.28218" lon="-0.08073">
        <ele>111.9</ele>
        <time>2023-09-03T11:57:46Z</time>
      </trkpt>
      <trkpt lat="49.28226" lon="-0.08083">
        <ele>111.6</ele>
        <time>2023-09-03T11:57:47Z</time>
      </trkpt>
      <trkpt lat="49.28233" lon="-0.08093">
        <ele>111.3</ele>
        <time>2023-09-03T11:57:48Z</time>
      </trkpt>
      <trkpt lat="49.28241" lon="-0.08103">
        <ele>111</ele>
        <time>2023-09-03T11:57:49Z</time>
      </trkpt>
      <trkpt lat="49.28248" lon="-0.08113">
        <ele>110.8</ele>
        <time>2023-09-03T11:57:50Z</time>
      </trkpt>
      <trkpt lat="49.28256" lon="-0.08123">
        <ele>110.5</ele>
        <time>2023-09-03T11:57:51Z</time>
      </trkpt>
      <trkpt lat="49.28263" lon="-0.08133">
        <ele>110.2</ele>
        <time>2023-09-03T11:57:52Z</time>
      </trkpt>
      <trkpt lat="49.28271" lon="-0.08141">
        <ele>109.9</ele>
        <time>2023-09-03T11:57:53Z</time>
      </trkpt>
      <trkpt lat="49.28279" lon="-0.08148">
        <ele>109.7</ele>
        <time>2023-09-03T11:57:54Z</time>
      </trkpt>
      <trkpt lat="49.28287" lon="-0.08154">
        <ele>109.4</ele>
        <time>2023-09-03T11:57:55Z</time>
      </trkpt>
      <trkpt lat="49.28296" lon="-0.0816">
        <ele>109.1</ele>
        <time>2023-09-03T11:57:56Z</time>
      </trkpt>
      <trkpt lat="49.28304" lon="-0.08166">
        <ele>108.8</ele>
        <time>2023-09-03T11:57:57Z</time>
      </trkpt>
      <trkpt lat="49.28312" lon="-0.08172">
        <ele>108.5</ele>
        <time>2023-09-03T11:57:58Z</time>
      </trkpt>
      <trkpt lat="49.28319" lon="-0.08178">
        <ele>108</ele>
        <time>2023-09-03T11:57:59Z</time>
      </trkpt>
      <trkpt lat="49.28327" lon="-0.08185">
        <ele>107.6</ele>
        <time>2023-09-03T11:58:00Z</time>
      </trkpt>
      <trkpt lat="49.28334" lon="-0.08192">
        <ele>107.1</ele>
        <time>2023-09-03T11:58:01Z</time>
      </trkpt>
      <trkpt lat="49.28341" lon="-0.08201">
        <ele>106.6</ele>
        <time>2023-09-03T11:58:02Z</time>
      </trkpt>
      <trkpt lat="49.28346" lon="-0.08211">
        <ele>106</ele>
        <time>2023-09-03T11:58:03Z</time>
      </trkpt>
      <trkpt lat="49.28352" lon="-0.08223">
        <ele>105.4</ele>
        <time>2023-09-03T11:58:04Z</time>
      </trkpt>
      <trkpt lat="49.28357" lon="-0.08236">
        <ele>104.6</ele>
        <time>2023-09-03T11:58:05Z</time>
      </trkpt>
      <trkpt lat="49.28362" lon="-0.08249">
        <ele>103.9</ele>
        <time>2023-09-03T11:58:06Z</time>
      </trkpt>
      <trkpt lat="49.28367" lon="-0.08263">
        <ele>103.1</ele>
        <time>2023-09-03T11:58:07Z</time>
      </trkpt>
      <trkpt lat="49.28373" lon="-0.08277">
        <ele>102.2</ele>
        <time>2023-09-03T11:58:08Z</time>
      </trkpt>
      <trkpt lat="49.2838" lon="-0.08289">
        <ele>101.3</ele>
        <time>2023-09-03T11:58:09Z</time>
      </trkpt>
      <trkpt lat="49.28388" lon="-0.083">
        <ele>100.4</ele>
        <time>2023-09-03T11:58:10Z</time>
      </trkpt>
      <trkpt lat="49.28398" lon="-0.08309">
        <ele>99.4</ele>
        <time>2023-09-03T11:58:11Z</time>
      </trkpt>
      <trkpt lat="49.28408" lon="-0.08316">
        <ele>98.4</ele>
        <time>2023-09-03T11:58:12Z</time>
      </trkpt>
      <trkpt lat="49.28419" lon="-0.08323">
        <ele>97.4</ele>
        <time>2023-09-03T11:58:13Z</time>
      </trkpt>
      <trkpt lat="49.28431" lon="-0.08329">
        <ele>96.2</ele>
        <time>2023-09-03T11:58:14Z</time>
      </trkpt>
      <trkpt lat="49.28442" lon="-0.08334">
        <ele>95.2</ele>
        <time>2023-09-03T11:58:15Z</time>
      </trkpt>
      <trkpt lat="49.28454" lon="-0.0834">
        <ele>94.1</ele>
        <time>2023-09-03T11:58:16Z</time>
      </trkpt>
      <trkpt lat="49.28465" lon="-0.08345">
        <ele>93.1</ele>
        <time>2023-09-03T11:58:17Z</time>
      </trkpt>
      <trkpt lat="49.28477" lon="-0.0835">
        <ele>92</ele>
        <time>2023-09-03T11:58:18Z</time>
      </trkpt>
      <trkpt lat="49.28489" lon="-0.08356">
        <ele>91</ele>
        <time>2023-09-03T11:58:19Z</time>
      </trkpt>
      <trkpt lat="49.28501" lon="-0.08361">
        <ele>90.2</ele>
        <time>2023-09-03T11:58:20Z</time>
      </trkpt>
      <trkpt lat="49.28513" lon="-0.08367">
        <ele>89.8</ele>
        <time>2023-09-03T11:58:21Z</time>
      </trkpt>
      <trkpt lat="49.28525" lon="-0.08373">
        <ele>89.2</ele>
        <time>2023-09-03T11:58:22Z</time>
      </trkpt>
      <trkpt lat="49.28537" lon="-0.08379">
        <ele>88.3</ele>
        <time>2023-09-03T11:58:23Z</time>
      </trkpt>
      <trkpt lat="49.2855" lon="-0.08385">
        <ele>87.4</ele>
        <time>2023-09-03T11:58:24Z</time>
      </trkpt>
      <trkpt lat="49.28562" lon="-0.08391">
        <ele>86.5</ele>
        <time>2023-09-03T11:58:25Z</time>
      </trkpt>
      <trkpt lat="49.28574" lon="-0.08398">
        <ele>85.7</ele>
        <time>2023-09-03T11:58:26Z</time>
      </trkpt>
      <trkpt lat="49.28586" lon="-0.08404">
        <ele>84.9</ele>
        <time>2023-09-03T11:58:27Z</time>
      </trkpt>
      <trkpt lat="49.28598" lon="-0.08411">
        <ele>84.1</ele>
        <time>2023-09-03T11:58:28Z</time>
      </trkpt>
      <trkpt lat="49.28611" lon="-0.08419">
        <ele>83.3</ele>
        <time>2023-09-03T11:58:29Z</time>
      </trkpt>
      <trkpt lat="49.28622" lon="-0.08428">
        <ele>82.4</ele>
        <time>2023-09-03T11:58:30Z</time>
      </trkpt>
      <trkpt lat="49.28633" lon="-0.08438">
        <ele>81.5</ele>
        <time>2023-09-03T11:58:31Z</time>
      </trkpt>
      <trkpt lat="49.28643" lon="-0.08449">
        <ele>80.7</ele>
        <time>2023-09-03T11:58:32Z</time>
      </trkpt>
      <trkpt lat="49.28653" lon="-0.08462">
        <ele>79.9</ele>
        <time>2023-09-03T11:58:33Z</time>
      </trkpt>
      <trkpt lat="49.28663" lon="-0.08475">
        <ele>79</ele>
        <time>2023-09-03T11:58:34Z</time>
      </trkpt>
      <trkpt lat="49.28672" lon="-0.08489">
        <ele>78.2</ele>
        <time>2023-09-03T11:58:35Z</time>
      </trkpt>
      <trkpt lat="49.28681" lon="-0.08503">
        <ele>77.5</ele>
        <time>2023-09-03T11:58:36Z</time>
      </trkpt>
      <trkpt lat="49.28689" lon="-0.08518">
        <ele>76.8</ele>
        <time>2023-09-03T11:58:37Z</time>
      </trkpt>
      <trkpt lat="49.28698" lon="-0.08531">
        <ele>76.1</ele>
        <time>2023-09-03T11:58:38Z</time>
      </trkpt>
      <trkpt lat="49.28706" lon="-0.08545">
        <ele>75.5</ele>
        <time>2023-09-03T11:58:39Z</time>
      </trkpt>
      <trkpt lat="49.28715" lon="-0.08558">
        <ele>74.7</ele>
        <time>2023-09-03T11:58:40Z</time>
      </trkpt>
      <trkpt lat="49.28724" lon="-0.08572">
        <ele>74</ele>
        <time>2023-09-03T11:58:41Z</time>
      </trkpt>
      <trkpt lat="49.28732" lon="-0.08585">
        <ele>73.3</ele>
        <time>2023-09-03T11:58:42Z</time>
      </trkpt>
      <trkpt lat="49.28741" lon="-0.08599">
        <ele>72.6</ele>
        <time>2023-09-03T11:58:43Z</time>
      </trkpt>
      <trkpt lat="49.28749" lon="-0.08613">
        <ele>71.8</ele>
        <time>2023-09-03T11:58:44Z</time>
      </trkpt>
      <trkpt lat="49.28758" lon="-0.08627">
        <ele>71</ele>
        <time>2023-09-03T11:58:45Z</time>
      </trkpt>
      <trkpt lat="49.28766" lon="-0.08641">
        <ele>70.1</ele>
        <time>2023-09-03T11:58:46Z</time>
      </trkpt>
      <trkpt lat="49.28775" lon="-0.08655">
        <ele>69.3</ele>
        <time>2023-09-03T11:58:47Z</time>
      </trkpt>
      <trkpt lat="49.28784" lon="-0.08669">
        <ele>68.6</ele>
        <time>2023-09-03T11:58:48Z</time>
      </trkpt>
      <trkpt lat="49.28793" lon="-0.08682">
        <ele>67.8</ele>
        <time>2023-09-03T11:58:49Z</time>
      </trkpt>
      <trkpt lat="49.28802" lon="-0.08696">
        <ele>67.1</ele>
        <time>2023-09-03T11:58:50Z</time>
      </trkpt>
      <trkpt lat="49.28812" lon="-0.08711">
        <ele>66.3</ele>
        <time>2023-09-03T11:58:51Z</time>
      </trkpt>
      <trkpt lat="49.28821" lon="-0.08725">
        <ele>65.6</ele>
        <time>2023-09-03T11:58:52Z</time>
      </trkpt>
      <trkpt lat="49.2883" lon="-0.0874">
        <ele>64.7</ele>
        <time>2023-09-03T11:58:53Z</time>
      </trkpt>
      <trkpt lat="49.28839" lon="-0.08754">
        <ele>63.9</ele>
        <time>2023-09-03T11:58:54Z</time>
      </trkpt>
      <trkpt lat="49.28848" lon="-0.08769">
        <ele>63</ele>
        <time>2023-09-03T11:58:55Z</time>
      </trkpt>
      <trkpt lat="49.28857" lon="-0.08783">
        <ele>62</ele>
        <time>2023-09-03T11:58:56Z</time>
      </trkpt>
      <trkpt lat="49.28866" lon="-0.08798">
        <ele>61.1</ele>
        <time>2023-09-03T11:58:57Z</time>
      </trkpt>
      <trkpt lat="49.28876" lon="-0.08812">
        <ele>60.1</ele>
        <time>2023-09-03T11:58:58Z</time>
      </trkpt>
      <trkpt lat="49.28885" lon="-0.08827">
        <ele>59.1</ele>
        <time>2023-09-03T11:58:59Z</time>
      </trkpt>
      <trkpt lat="49.28895" lon="-0.08841">
        <ele>58.2</ele>
        <time>2023-09-03T11:59:00Z</time>
      </trkpt>
      <trkpt lat="49.28903" lon="-0.08854">
        <ele>57.2</ele>
        <time>2023-09-03T11:59:01Z</time>
      </trkpt>
      <trkpt lat="49.28909" lon="-0.08868">
        <ele>56.4</ele>
        <time>2023-09-03T11:59:02Z</time>
      </trkpt>
      <trkpt lat="49.28915" lon="-0.08881">
        <ele>55.5</ele>
        <time>2023-09-03T11:59:03Z</time>
      </trkpt>
      <trkpt lat="49.28918" lon="-0.08896">
        <ele>54.5</ele>
        <time>2023-09-03T11:59:04Z</time>
      </trkpt>
      <trkpt lat="49.28919" lon="-0.08911">
        <ele>53.5</ele>
        <time>2023-09-03T11:59:05Z</time>
      </trkpt>
      <trkpt lat="49.28915" lon="-0.08927">
        <ele>52.4</ele>
        <time>2023-09-03T11:59:06Z</time>
      </trkpt>
      <trkpt lat="49.28907" lon="-0.08941">
        <ele>51.2</ele>
        <time>2023-09-03T11:59:07Z</time>
      </trkpt>
      <trkpt lat="49.28898" lon="-0.08951">
        <ele>50.1</ele>
        <time>2023-09-03T11:59:08Z</time>
      </trkpt>
      <trkpt lat="49.2889" lon="-0.08958">
        <ele>49.1</ele>
        <time>2023-09-03T11:59:09Z</time>
      </trkpt>
      <trkpt lat="49.28881" lon="-0.08963">
        <ele>48.2</ele>
        <time>2023-09-03T11:59:10Z</time>
      </trkpt>
      <trkpt lat="49.28872" lon="-0.08965">
        <ele>47.3</ele>
        <time>2023-09-03T11:59:11Z</time>
      </trkpt>
      <trkpt lat="49.28862" lon="-0.08965">
        <ele>46.5</ele>
        <time>2023-09-03T11:59:12Z</time>
      </trkpt>
      <trkpt lat="49.28852" lon="-0.08963">
        <ele>45.5</ele>
        <time>2023-09-03T11:59:13Z</time>
      </trkpt>
      <trkpt lat="49.28841" lon="-0.0896">
        <ele>44.5</ele>
        <time>2023-09-03T11:59:14Z</time>
      </trkpt>
      <trkpt lat="49.2883" lon="-0.08956">
        <ele>43.4</ele>
        <time>2023-09-03T11:59:15Z</time>
      </trkpt>
      <trkpt lat="49.28819" lon="-0.08953">
        <ele>42.4</ele>
        <time>2023-09-03T11:59:16Z</time>
      </trkpt>
      <trkpt lat="49.28808" lon="-0.0895">
        <ele>41.5</ele>
        <time>2023-09-03T11:59:17Z</time>
      </trkpt>
      <trkpt lat="49.28797" lon="-0.08946">
        <ele>40.6</ele>
        <time>2023-09-03T11:59:18Z</time>
      </trkpt>
      <trkpt lat="49.28785" lon="-0.08942">
        <ele>39.7</ele>
        <time>2023-09-03T11:59:19Z</time>
      </trkpt>
      <trkpt lat="49.28774" lon="-0.08937">
        <ele>38.8</ele>
        <time>2023-09-03T11:59:20Z</time>
      </trkpt>
      <trkpt lat="49.28762" lon="-0.08932">
        <ele>37.9</ele>
        <time>2023-09-03T11:59:21Z</time>
      </trkpt>
      <trkpt lat="49.2875" lon="-0.08928">
        <ele>37</ele>
        <time>2023-09-03T11:59:22Z</time>
      </trkpt>
      <trkpt lat="49.28738" lon="-0.08924">
        <ele>36.2</ele>
        <time>2023-09-03T11:59:23Z</time>
      </trkpt>
      <trkpt lat="49.28726" lon="-0.08921">
        <ele>35.4</ele>
        <time>2023-09-03T11:59:24Z</time>
      </trkpt>
      <trkpt lat="49.28715" lon="-0.08919">
        <ele>34.7</ele>
        <time>2023-09-03T11:59:25Z</time>
      </trkpt>
      <trkpt lat="49.28704" lon="-0.08919">
        <ele>34.1</ele>
        <time>2023-09-03T11:59:26Z</time>
      </trkpt>
      <trkpt lat="49.28693" lon="-0.08923">
        <ele>33.5</ele>
        <time>2023-09-03T11:59:27Z</time>
      </trkpt>
      <trkpt lat="49.28684" lon="-0.08931">
        <ele>32.8</ele>
        <time>2023-09-03T11:59:28Z</time>
      </trkpt>
      <trkpt lat="49.28675" lon="-0.08943">
        <ele>32.8</ele>
        <time>2023-09-03T11:59:29Z</time>
      </trkpt>
      <trkpt lat="49.28668" lon="-0.08958">
        <ele>34.6</ele>
        <time>2023-09-03T11:59:30Z</time>
      </trkpt>
      <trkpt lat="49.28661" lon="-0.08973">
        <ele>32.5</ele>
        <time>2023-09-03T11:59:31Z</time>
      </trkpt>
      <trkpt lat="49.28653" lon="-0.08986">
        <ele>32.1</ele>
        <time>2023-09-03T11:59:32Z</time>
      </trkpt>
      <trkpt lat="49.28647" lon="-0.09002">
        <ele>30</ele>
        <time>2023-09-03T11:59:33Z</time>
      </trkpt>
      <trkpt lat="49.28644" lon="-0.09019">
        <ele>28.4</ele>
        <time>2023-09-03T11:59:34Z</time>
      </trkpt>
      <trkpt lat="49.28642" lon="-0.09036">
        <ele>27.8</ele>
        <time>2023-09-03T11:59:35Z</time>
      </trkpt>
      <trkpt lat="49.28639" lon="-0.09054">
        <ele>27.2</ele>
        <time>2023-09-03T11:59:36Z</time>
      </trkpt>
      <trkpt lat="49.28636" lon="-0.09071">
        <ele>26.6</ele>
        <time>2023-09-03T11:59:37Z</time>
      </trkpt>
      <trkpt lat="49.28632" lon="-0.09087">
        <ele>26.4</ele>
        <time>2023-09-03T11:59:38Z</time>
      </trkpt>
      <trkpt lat="49.28628" lon="-0.09104">
        <ele>25.7</ele>
        <time>2023-09-03T11:59:39Z</time>
      </trkpt>
      <trkpt lat="49.28624" lon="-0.0912">
        <ele>24.9</ele>
        <time>2023-09-03T11:59:40Z</time>
      </trkpt>
      <trkpt lat="49.28621" lon="-0.09136">
        <ele>24.2</ele>
        <time>2023-09-03T11:59:41Z</time>
      </trkpt>
      <trkpt lat="49.28617" lon="-0.09152">
        <ele>23.5</ele>
        <time>2023-09-03T11:59:42Z</time>
      </trkpt>
      <trkpt lat="49.28614" lon="-0.09168">
        <ele>22.9</ele>
        <time>2023-09-03T11:59:43Z</time>
      </trkpt>
      <trkpt lat="49.2861" lon="-0.09185">
        <ele>22.3</ele>
        <time>2023-09-03T11:59:44Z</time>
      </trkpt>
      <trkpt lat="49.28607" lon="-0.092">
        <ele>21.7</ele>
        <time>2023-09-03T11:59:45Z</time>
      </trkpt>
      <trkpt lat="49.28604" lon="-0.09215">
        <ele>21.1</ele>
        <time>2023-09-03T11:59:46Z</time>
      </trkpt>
      <trkpt lat="49.286" lon="-0.09231">
        <ele>20.5</ele>
        <time>2023-09-03T11:59:47Z</time>
      </trkpt>
      <trkpt lat="49.28597" lon="-0.09245">
        <ele>20</ele>
        <time>2023-09-03T11:59:48Z</time>
      </trkpt>
      <trkpt lat="49.28593" lon="-0.09259">
        <ele>19.5</ele>
        <time>2023-09-03T11:59:49Z</time>
      </trkpt>
      <trkpt lat="49.2859" lon="-0.09272">
        <ele>19.1</ele>
        <time>2023-09-03T11:59:50Z</time>
      </trkpt>
      <trkpt lat="49.28585" lon="-0.09284">
        <ele>18.8</ele>
        <time>2023-09-03T11:59:51Z</time>
      </trkpt>
      <trkpt lat="49.2858" lon="-0.09295">
        <ele>18.5</ele>
        <time>2023-09-03T11:59:52Z</time>
      </trkpt>
      <trkpt lat="49.28576" lon="-0.09305">
        <ele>18.2</ele>
        <time>2023-09-03T11:59:53Z</time>
      </trkpt>
      <trkpt lat="49.28571" lon="-0.09314">
        <ele>18.1</ele>
        <time>2023-09-03T11:59:54Z</time>
      </trkpt>
      <trkpt lat="49.28566" lon="-0.09322">
        <ele>17.9</ele>
        <time>2023-09-03T11:59:55Z</time>
      </trkpt>
      <trkpt lat="49.28561" lon="-0.09329">
        <ele>17.8</ele>
        <time>2023-09-03T11:59:56Z</time>
      </trkpt>
      <trkpt lat="49.28555" lon="-0.09336">
        <ele>17.7</ele>
        <time>2023-09-03T11:59:57Z</time>
      </trkpt>
      <trkpt lat="49.2855" lon="-0.09342">
        <ele>17.6</ele>
        <time>2023-09-03T11:59:58Z</time>
      </trkpt>
      <trkpt lat="49.28543" lon="-0.09347">
        <ele>17.5</ele>
        <time>2023-09-03T11:59:59Z</time>
      </trkpt>
      <trkpt lat="49.28537" lon="-0.09351">
        <ele>17.5</ele>
        <time>2023-09-03T12:00:00Z</time>
      </trkpt>
      <trkpt lat="49.28531" lon="-0.09355">
        <ele>17.4</ele>
        <time>2023-09-03T12:00:01Z</time>
      </trkpt>
      <trkpt lat="49.28525" lon="-0.09359">
        <ele>17.3</ele>
        <time>2023-09-03T12:00:02Z</time>
      </trkpt>
      <trkpt lat="49.28519" lon="-0.09363">
        <ele>17.2</ele>
        <time>2023-09-03T12:00:03Z</time>
      </trkpt>
      <trkpt lat="49.28513" lon="-0.09366">
        <ele>17.1</ele>
        <time>2023-09-03T12:00:04Z</time>
      </trkpt>
      <trkpt lat="49.28506" lon="-0.09369">
        <ele>17</ele>
        <time>2023-09-03T12:00:05Z</time>
      </trkpt>
      <trkpt lat="49.285" lon="-0.09371">
        <ele>16.9</ele>
        <time>2023-09-03T12:00:06Z</time>
      </trkpt>
      <trkpt lat="49.28493" lon="-0.09374">
        <ele>16.7</ele>
        <time>2023-09-03T12:00:07Z</time>
      </trkpt>
      <trkpt lat="49.28486" lon="-0.09377">
        <ele>16.6</ele>
        <time>2023-09-03T12:00:08Z</time>
      </trkpt>
      <trkpt lat="49.2848" lon="-0.09379">
        <ele>16.4</ele>
        <time>2023-09-03T12:00:09Z</time>
      </trkpt>
      <trkpt lat="49.28473" lon="-0.09382">
        <ele>16.2</ele>
        <time>2023-09-03T12:00:10Z</time>
      </trkpt>
      <trkpt lat="49.28465" lon="-0.09385">
        <ele>15.9</ele>
        <time>2023-09-03T12:00:11Z</time>
      </trkpt>
      <trkpt lat="49.28458" lon="-0.09388">
        <ele>15.7</ele>
        <time>2023-09-03T12:00:12Z</time>
      </trkpt>
      <trkpt lat="49.28451" lon="-0.09391">
        <ele>15.4</ele>
        <time>2023-09-03T12:00:13Z</time>
      </trkpt>
      <trkpt lat="49.28443" lon="-0.09394">
        <ele>15.1</ele>
        <time>2023-09-03T12:00:14Z</time>
      </trkpt>
      <trkpt lat="49.28436" lon="-0.09396">
        <ele>14.8</ele>
        <time>2023-09-03T12:00:15Z</time>
      </trkpt>
      <trkpt lat="49.28428" lon="-0.094">
        <ele>14.5</ele>
        <time>2023-09-03T12:00:16Z</time>
      </trkpt>
      <trkpt lat="49.2842" lon="-0.09403">
        <ele>14.1</ele>
        <time>2023-09-03T12:00:17Z</time>
      </trkpt>
      <trkpt lat="49.28411" lon="-0.09406">
        <ele>13.8</ele>
        <time>2023-09-03T12:00:18Z</time>
      </trkpt>
      <trkpt lat="49.28403" lon="-0.09409">
        <ele>13.4</ele>
        <time>2023-09-03T12:00:19Z</time>
      </trkpt>
      <trkpt lat="49.28395" lon="-0.09413">
        <ele>13.1</ele>
        <time>2023-09-03T12:00:20Z</time>
      </trkpt>
      <trkpt lat="49.28387" lon="-0.09418">
        <ele>12.7</ele>
        <time>2023-09-03T12:00:21Z</time>
      </trkpt>
      <trkpt lat="49.28378" lon="-0.09424">
        <ele>12.3</ele>
        <time>2023-09-03T12:00:22Z</time>
      </trkpt>
      <trkpt lat="49.2837" lon="-0.0943">
        <ele>11.9</ele>
        <time>2023-09-03T12:00:23Z</time>
      </trkpt>
      <trkpt lat="49.28362" lon="-0.09437">
        <ele>11.5</ele>
        <time>2023-09-03T12:00:24Z</time>
      </trkpt>
      <trkpt lat="49.28355" lon="-0.09446">
        <ele>11.1</ele>
        <time>2023-09-03T12:00:25Z</time>
      </trkpt>
      <trkpt lat="49.28349" lon="-0.09455">
        <ele>10.7</ele>
        <time>2023-09-03T12:00:26Z</time>
      </trkpt>
      <trkpt lat="49.28344" lon="-0.09464">
        <ele>10.3</ele>
        <time>2023-09-03T12:00:27Z</time>
      </trkpt>
      <trkpt lat="49.28339" lon="-0.09474">
        <ele>9.9</ele>
        <time>2023-09-03T12:00:28Z</time>
      </trkpt>
      <trkpt lat="49.28335" lon="-0.09485">
        <ele>9.5</ele>
        <time>2023-09-03T12:00:29Z</time>
      </trkpt>
      <trkpt lat="49.28331" lon="-0.09497">
        <ele>9.1</ele>
        <time>2023-09-03T12:00:30Z</time>
      </trkpt>
      <trkpt lat="49.28327" lon="-0.09509">
        <ele>8.8</ele>
        <time>2023-09-03T12:00:31Z</time>
      </trkpt>
      <trkpt lat="49.28324" lon="-0.09521">
        <ele>8.4</ele>
        <time>2023-09-03T12:00:32Z</time>
      </trkpt>
      <trkpt lat="49.28322" lon="-0.09533">
        <ele>8</ele>
        <time>2023-09-03T12:00:33Z</time>
      </trkpt>
      <trkpt lat="49.2832" lon="-0.09544">
        <ele>7.8</ele>
        <time>2023-09-03T12:00:34Z</time>
      </trkpt>
      <trkpt lat="49.28319" lon="-0.09555">
        <ele>7.5</ele>
        <time>2023-09-03T12:00:35Z</time>
      </trkpt>
      <trkpt lat="49.28319" lon="-0.09568">
        <ele>7.2</ele>
        <time>2023-09-03T12:00:36Z</time>
      </trkpt>
      <trkpt lat="49.28319" lon="-0.09579">
        <ele>6.9</ele>
        <time>2023-09-03T12:00:37Z</time>
      </trkpt>
      <trkpt lat="49.2832" lon="-0.0959">
        <ele>6.7</ele>
        <time>2023-09-03T12:00:38Z</time>
      </trkpt>
      <trkpt lat="49.2832" lon="-0.096">
        <ele>6.5</ele>
        <time>2023-09-03T12:00:39Z</time>
      </trkpt>
      <trkpt lat="49.28321" lon="-0.09611">
        <ele>6.4</ele>
        <time>2023-09-03T12:00:40Z</time>
      </trkpt>
      <trkpt lat="49.28321" lon="-0.09621">
        <ele>6.2</ele>
        <time>2023-09-03T12:00:41Z</time>
      </trkpt>
      <trkpt lat="49.28321" lon="-0.09631">
        <ele>6.1</ele>
        <time>2023-09-03T12:00:42Z</time>
      </trkpt>
      <trkpt lat="49.28321" lon="-0.0964">
        <ele>6</ele>
        <time>2023-09-03T12:00:43Z</time>
      </trkpt>
      <trkpt lat="49.28322" lon="-0.0965">
        <ele>5.9</ele>
        <time>2023-09-03T12:00:44Z</time>
      </trkpt>
      <trkpt lat="49.28322" lon="-0.09659">
        <ele>5.8</ele>
        <time>2023-09-03T12:00:45Z</time>
      </trkpt>
      <trkpt lat="49.28322" lon="-0.09667">
        <ele>5.7</ele>
        <time>2023-09-03T12:00:46Z</time>
      </trkpt>
      <trkpt lat="49.28323" lon="-0.09674">
        <ele>5.6</ele>
        <time>2023-09-03T12:00:47Z</time>
      </trkpt>
      <trkpt lat="49.28323" lon="-0.09679">
        <ele>5.6</ele>
        <time>2023-09-03T12:00:48Z</time>
      </trkpt>
      <trkpt lat="49.28323" lon="-0.09684">
        <ele>5.5</ele>
        <time>2023-09-03T12:00:49Z</time>
      </trkpt>
      <trkpt lat="49.28323" lon="-0.09687">
        <ele>5.5</ele>
        <time>2023-09-03T12:00:50Z</time>
      </trkpt>
      <trkpt lat="49.28324" lon="-0.09689">
        <ele>5.5</ele>
        <time>2023-09-03T12:00:51Z</time>
      </trkpt>
      <trkpt lat="49.28324" lon="-0.0969">
        <ele>5.5</ele>
        <time>2023-09-03T12:00:52Z</time>
      </trkpt>
      <trkpt lat="49.28324" lon="-0.09691">
        <ele>5.5</ele>
        <time>2023-09-03T12:00:53Z</time>
      </trkpt>
      <trkpt lat="49.28323" lon="-0.09692">
        <ele>5.5</ele>
        <time>2023-09-03T12:00:54Z</time>
      </trkpt>
      <trkpt lat="49.28323" lon="-0.09692">
        <ele>5.5</ele>
        <time>2023-09-03T12:00:55Z</time>
      </trkpt>
      <trkpt lat="49.28323" lon="-0.09693">
        <ele>5.5</ele>
        <time>2023-09-03T12:00:56Z</time>
      </trkpt>
      <trkpt lat="49.28323" lon="-0.09694">
        <ele>5.5</ele>
        <time>2023-09-03T12:00:57Z</time>
      </trkpt>
      <trkpt lat="49.28323" lon="-0.09694">
        <ele>5.5</ele>
        <time>2023-09-03T12:00:58Z</time>
      </trkpt>
      <trkpt lat="49.28323" lon="-0.09695">
        <ele>5.5</ele>
        <time>2023-09-03T12:00:59Z</time>
      </trkpt>
      <trkpt lat="49.28323" lon="-0.09696">
        <ele>5.5</ele>
        <time>2023-09-03T12:01:00Z</time>
      </trkpt>
      <trkpt lat="49.28323" lon="-0.09696">
        <ele>5.5</ele>
        <time>2023-09-03T12:01:01Z</time>
      </trkpt>
      <trkpt lat="49.28323" lon="-0.09697">
        <ele>5.5</ele>
        <time>2023-09-03T12:01:02Z</time>
      </trkpt>
      <trkpt lat="49.28323" lon="-0.09698">
        <ele>5.5</ele>
        <time>2023-09-03T12:01:03Z</time>
      </trkpt>
      <trkpt lat="49.28323" lon="-0.09698">
        <ele>5.4</ele>
        <time>2023-09-03T12:01:22Z</time>
      </trkpt>
      <trkpt lat="49.28323" lon="-0.09699">
        <ele>5.4</ele>
        <time>2023-09-03T12:01:23Z</time>
      </trkpt>
      <trkpt lat="49.28323" lon="-0.097">
        <ele>5.4</ele>
        <time>2023-09-03T12:01:24Z</time>
      </trkpt>
      <trkpt lat="49.28324" lon="-0.09705">
        <ele>5.4</ele>
        <time>2023-09-03T12:01:25Z</time>
      </trkpt>
      <trkpt lat="49.28324" lon="-0.09707">
        <ele>5.4</ele>
        <time>2023-09-03T12:01:26Z</time>
      </trkpt>
      <trkpt lat="49.28324" lon="-0.09712">
        <ele>5.3</ele>
        <time>2023-09-03T12:01:27Z</time>
      </trkpt>
      <trkpt lat="49.28324" lon="-0.09714">
        <ele>5.3</ele>
        <time>2023-09-03T12:01:28Z</time>
      </trkpt>
      <trkpt lat="49.28325" lon="-0.09718">
        <ele>5.3</ele>
        <time>2023-09-03T12:01:29Z</time>
      </trkpt>
      <trkpt lat="49.28324" lon="-0.09723">
        <ele>5.3</ele>
        <time>2023-09-03T12:01:30Z</time>
      </trkpt>
      <trkpt lat="49.28324" lon="-0.09729">
        <ele>5.2</ele>
        <time>2023-09-03T12:01:31Z</time>
      </trkpt>
      <trkpt lat="49.28324" lon="-0.09733">
        <ele>5.2</ele>
        <time>2023-09-03T12:01:32Z</time>
      </trkpt>
      <trkpt lat="49.28325" lon="-0.09738">
        <ele>5.1</ele>
        <time>2023-09-03T12:01:33Z</time>
      </trkpt>
      <trkpt lat="49.28325" lon="-0.09742">
        <ele>5.1</ele>
        <time>2023-09-03T12:01:34Z</time>
      </trkpt>
      <trkpt lat="49.28325" lon="-0.09747">
        <ele>5</ele>
        <time>2023-09-03T12:01:35Z</time>
      </trkpt>
      <trkpt lat="49.28325" lon="-0.09752">
        <ele>5</ele>
        <time>2023-09-03T12:01:36Z</time>
      </trkpt>
      <trkpt lat="49.28326" lon="-0.09758">
        <ele>5</ele>
        <time>2023-09-03T12:01:37Z</time>
      </trkpt>
      <trkpt lat="49.28326" lon="-0.09763">
        <ele>4.9</ele>
        <time>2023-09-03T12:01:38Z</time>
      </trkpt>
      <trkpt lat="49.28327" lon="-0.09769">
        <ele>4.9</ele>
        <time>2023-09-03T12:01:39Z</time>
      </trkpt>
      <trkpt lat="49.28327" lon="-0.09774">
        <ele>4.9</ele>
        <time>2023-09-03T12:01:40Z</time>
      </trkpt>
      <trkpt lat="49.28327" lon="-0.0978">
        <ele>4.8</ele>
        <time>2023-09-03T12:01:41Z</time>
      </trkpt>
      <trkpt lat="49.28327" lon="-0.09785">
        <ele>4.8</ele>
        <time>2023-09-03T12:01:42Z</time>
      </trkpt>
      <trkpt lat="49.28327" lon="-0.0979">
        <ele>4.8</ele>
        <time>2023-09-03T12:01:43Z</time>
      </trkpt>
      <trkpt lat="49.28327" lon="-0.09795">
        <ele>4.8</ele>
        <time>2023-09-03T12:01:44Z</time>
      </trkpt>
      <trkpt lat="49.28327" lon="-0.09801">
        <ele>4.8</ele>
        <time>2023-09-03T12:01:45Z</time>
      </trkpt>
      <trkpt lat="49.28328" lon="-0.09807">
        <ele>4.8</ele>
        <time>2023-09-03T12:01:46Z</time>
      </trkpt>
      <trkpt lat="49.28329" lon="-0.09813">
        <ele>4.8</ele>
        <time>2023-09-03T12:01:47Z</time>
      </trkpt>
      <trkpt lat="49.28329" lon="-0.09818">
        <ele>4.8</ele>
        <time>2023-09-03T12:01:48Z</time>
      </trkpt>
      <trkpt lat="49.28329" lon="-0.09823">
        <ele>4.8</ele>
        <time>2023-09-03T12:01:49Z</time>
      </trkpt>
      <trkpt lat="49.28329" lon="-0.09829">
        <ele>4.9</ele>
        <time>2023-09-03T12:01:50Z</time>
      </trkpt>
      <trkpt lat="49.2833" lon="-0.09835">
        <ele>4.9</ele>
        <time>2023-09-03T12:01:51Z</time>
      </trkpt>
      <trkpt lat="49.2833" lon="-0.09842">
        <ele>4.8</ele>
        <time>2023-09-03T12:01:52Z</time>
      </trkpt>
      <trkpt lat="49.28331" lon="-0.09848">
        <ele>4.8</ele>
        <time>2023-09-03T12:01:53Z</time>
      </trkpt>
      <trkpt lat="49.28331" lon="-0.09855">
        <ele>4.8</ele>
        <time>2023-09-03T12:01:54Z</time>
      </trkpt>
      <trkpt lat="49.28331" lon="-0.09861">
        <ele>4.7</ele>
        <time>2023-09-03T12:01:55Z</time>
      </trkpt>
      <trkpt lat="49.28332" lon="-0.09868">
        <ele>4.7</ele>
        <time>2023-09-03T12:01:56Z</time>
      </trkpt>
      <trkpt lat="49.28332" lon="-0.09875">
        <ele>4.7</ele>
        <time>2023-09-03T12:01:57Z</time>
      </trkpt>
      <trkpt lat="49.28332" lon="-0.09883">
        <ele>4.7</ele>
        <time>2023-09-03T12:01:58Z</time>
      </trkpt>
      <trkpt lat="49.28332" lon="-0.0989">
        <ele>4.7</ele>
        <time>2023-09-03T12:01:59Z</time>
      </trkpt>
      <trkpt lat="49.28333" lon="-0.09899">
        <ele>4.7</ele>
        <time>2023-09-03T12:02:00Z</time>
      </trkpt>
      <trkpt lat="49.28333" lon="-0.09906">
        <ele>4.7</ele>
        <time>2023-09-03T12:02:01Z</time>
      </trkpt>
      <trkpt lat="49.28333" lon="-0.09914">
        <ele>4.7</ele>
        <time>2023-09-03T12:02:02Z</time>
      </trkpt>
      <trkpt lat="49.28334" lon="-0.09921">
        <ele>4.7</ele>
        <time>2023-09-03T12:02:03Z</time>
      </trkpt>
      <trkpt lat="49.28334" lon="-0.09928">
        <ele>4.7</ele>
        <time>2023-09-03T12:02:04Z</time>
      </trkpt>
      <trkpt lat="49.28335" lon="-0.09935">
        <ele>4.7</ele>
        <time>2023-09-03T12:02:05Z</time>
      </trkpt>
      <trkpt lat="49.28336" lon="-0.09941">
        <ele>4.7</ele>
        <time>2023-09-03T12:02:06Z</time>
      </trkpt>
      <trkpt lat="49.28336" lon="-0.09948">
        <ele>4.7</ele>
        <time>2023-09-03T12:02:07Z</time>
      </trkpt>
      <trkpt lat="49.28336" lon="-0.09955">
        <ele>4.6</ele>
        <time>2023-09-03T12:02:08Z</time>
      </trkpt>
      <trkpt lat="49.28336" lon="-0.09963">
        <ele>4.6</ele>
        <time>2023-09-03T12:02:09Z</time>
      </trkpt>
      <trkpt lat="49.28337" lon="-0.09972">
        <ele>4.6</ele>
        <time>2023-09-03T12:02:10Z</time>
      </trkpt>
      <trkpt lat="49.28337" lon="-0.0998">
        <ele>4.6</ele>
        <time>2023-09-03T12:02:11Z</time>
      </trkpt>
      <trkpt lat="49.28338" lon="-0.09989">
        <ele>4.5</ele>
        <time>2023-09-03T12:02:12Z</time>
      </trkpt>
      <trkpt lat="49.28338" lon="-0.09998">
        <ele>4.4</ele>
        <time>2023-09-03T12:02:13Z</time>
      </trkpt>
      <trkpt lat="49.28338" lon="-0.10008">
        <ele>4.4</ele>
        <time>2023-09-03T12:02:14Z</time>
      </trkpt>
      <trkpt lat="49.28339" lon="-0.10017">
        <ele>4.3</ele>
        <time>2023-09-03T12:02:15Z</time>
      </trkpt>
      <trkpt lat="49.28339" lon="-0.10026">
        <ele>4.3</ele>
        <time>2023-09-03T12:02:16Z</time>
      </trkpt>
      <trkpt lat="49.28339" lon="-0.10035">
        <ele>4.2</ele>
        <time>2023-09-03T12:02:17Z</time>
      </trkpt>
      <trkpt lat="49.2834" lon="-0.10045">
        <ele>4.2</ele>
        <time>2023-09-03T12:02:18Z</time>
      </trkpt>
      <trkpt lat="49.2834" lon="-0.10054">
        <ele>4.2</ele>
        <time>2023-09-03T12:02:19Z</time>
      </trkpt>
      <trkpt lat="49.2834" lon="-0.10063">
        <ele>4.1</ele>
        <time>2023-09-03T12:02:20Z</time>
      </trkpt>
      <trkpt lat="49.28341" lon="-0.10072">
        <ele>4.1</ele>
        <time>2023-09-03T12:02:21Z</time>
      </trkpt>
      <trkpt lat="49.28341" lon="-0.10081">
        <ele>4.1</ele>
        <time>2023-09-03T12:02:22Z</time>
      </trkpt>
      <trkpt lat="49.28341" lon="-0.1009">
        <ele>4</ele>
        <time>2023-09-03T12:02:23Z</time>
      </trkpt>
      <trkpt lat="49.28342" lon="-0.10099">
        <ele>4</ele>
        <time>2023-09-03T12:02:24Z</time>
      </trkpt>
      <trkpt lat="49.28342" lon="-0.10107">
        <ele>4</ele>
        <time>2023-09-03T12:02:25Z</time>
      </trkpt>
      <trkpt lat="49.28343" lon="-0.10116">
        <ele>4</ele>
        <time>2023-09-03T12:02:26Z</time>
      </trkpt>
      <trkpt lat="49.28343" lon="-0.10125">
        <ele>4</ele>
        <time>2023-09-03T12:02:27Z</time>
      </trkpt>
      <trkpt lat="49.28343" lon="-0.10133">
        <ele>3.9</ele>
        <time>2023-09-03T12:02:28Z</time>
      </trkpt>
      <trkpt lat="49.28344" lon="-0.1014">
        <ele>3.9</ele>
        <time>2023-09-03T12:02:29Z</time>
      </trkpt>
      <trkpt lat="49.28345" lon="-0.10148">
        <ele>3.9</ele>
        <time>2023-09-03T12:02:30Z</time>
      </trkpt>
      <trkpt lat="49.28345" lon="-0.10156">
        <ele>3.8</ele>
        <time>2023-09-03T12:02:31Z</time>
      </trkpt>
      <trkpt lat="49.28345" lon="-0.10165">
        <ele>3.8</ele>
        <time>2023-09-03T12:02:32Z</time>
      </trkpt>
      <trkpt lat="49.28346" lon="-0.10173">
        <ele>3.8</ele>
        <time>2023-09-03T12:02:33Z</time>
      </trkpt>
      <trkpt lat="49.28346" lon="-0.10181">
        <ele>3.8</ele>
        <time>2023-09-03T12:02:34Z</time>
      </trkpt>
      <trkpt lat="49.28346" lon="-0.10189">
        <ele>3.8</ele>
        <time>2023-09-03T12:02:35Z</time>
      </trkpt>
      <trkpt lat="49.28346" lon="-0.10196">
        <ele>3.8</ele>
        <time>2023-09-03T12:02:36Z</time>
      </trkpt>
      <trkpt lat="49.28347" lon="-0.10202">
        <ele>3.9</ele>
        <time>2023-09-03T12:02:37Z</time>
      </trkpt>
      <trkpt lat="49.28348" lon="-0.10208">
        <ele>3.9</ele>
        <time>2023-09-03T12:02:38Z</time>
      </trkpt>
      <trkpt lat="49.28348" lon="-0.10214">
        <ele>3.9</ele>
        <time>2023-09-03T12:02:39Z</time>
      </trkpt>
      <trkpt lat="49.28348" lon="-0.10219">
        <ele>3.9</ele>
        <time>2023-09-03T12:02:40Z</time>
      </trkpt>
      <trkpt lat="49.28348" lon="-0.10225">
        <ele>3.9</ele>
        <time>2023-09-03T12:02:41Z</time>
      </trkpt>
      <trkpt lat="49.28348" lon="-0.10229">
        <ele>3.9</ele>
        <time>2023-09-03T12:02:42Z</time>
      </trkpt>
      <trkpt lat="49.28348" lon="-0.10234">
        <ele>4</ele>
        <time>2023-09-03T12:02:43Z</time>
      </trkpt>
      <trkpt lat="49.28348" lon="-0.10236">
        <ele>4</ele>
        <time>2023-09-03T12:02:44Z</time>
      </trkpt>
      <trkpt lat="49.28348" lon="-0.10241">
        <ele>4</ele>
        <time>2023-09-03T12:02:45Z</time>
      </trkpt>
      <trkpt lat="49.28348" lon="-0.10243">
        <ele>4</ele>
        <time>2023-09-03T12:02:46Z</time>
      </trkpt>
      <trkpt lat="49.28349" lon="-0.10248">
        <ele>4</ele>
        <time>2023-09-03T12:02:47Z</time>
      </trkpt>
      <trkpt lat="49.28349" lon="-0.1025">
        <ele>4</ele>
        <time>2023-09-03T12:02:48Z</time>
      </trkpt>
      <trkpt lat="49.28349" lon="-0.10255">
        <ele>4</ele>
        <time>2023-09-03T12:02:49Z</time>
      </trkpt>
      <trkpt lat="49.28349" lon="-0.10256">
        <ele>4</ele>
        <time>2023-09-03T12:02:50Z</time>
      </trkpt>
      <trkpt lat="49.28349" lon="-0.10259">
        <ele>4</ele>
        <time>2023-09-03T12:02:51Z</time>
      </trkpt>
      <trkpt lat="49.28349" lon="-0.10261">
        <ele>4</ele>
        <time>2023-09-03T12:02:52Z</time>
      </trkpt>
      <trkpt lat="49.28349" lon="-0.10263">
        <ele>4</ele>
        <time>2023-09-03T12:02:53Z</time>
      </trkpt>
      <trkpt lat="49.28349" lon="-0.10264">
        <ele>4</ele>
        <time>2023-09-03T12:02:54Z</time>
      </trkpt>
      <trkpt lat="49.28349" lon="-0.10265">
        <ele>4</ele>
        <time>2023-09-03T12:02:55Z</time>
      </trkpt>
      <trkpt lat="49.28349" lon="-0.10266">
        <ele>4</ele>
        <time>2023-09-03T12:02:56Z</time>
      </trkpt>
      <trkpt lat="49.28349" lon="-0.10267">
        <ele>4</ele>
        <time>2023-09-03T12:02:57Z</time>
      </trkpt>
      <trkpt lat="49.28349" lon="-0.10268">
        <ele>4</ele>
        <time>2023-09-03T12:02:58Z</time>
      </trkpt>
      <trkpt lat="49.28349" lon="-0.10269">
        <ele>4</ele>
        <time>2023-09-03T12:02:59Z</time>
      </trkpt>
      <trkpt lat="49.28349" lon="-0.1027">
        <ele>4</ele>
        <time>2023-09-03T12:03:00Z</time>
      </trkpt>
      <trkpt lat="49.28349" lon="-0.1027">
        <ele>4</ele>
        <time>2023-09-03T12:03:01Z</time>
      </trkpt>
      <trkpt lat="49.28349" lon="-0.10271">
        <ele>4</ele>
        <time>2023-09-03T12:03:02Z</time>
      </trkpt>
      <trkpt lat="49.28349" lon="-0.10272">
        <ele>4</ele>
        <time>2023-09-03T12:03:03Z</time>
      </trkpt>
      <trkpt lat="49.28349" lon="-0.10273">
        <ele>4</ele>
        <time>2023-09-03T12:03:04Z</time>
      </trkpt>
      <trkpt lat="49.28349" lon="-0.10274">
        <ele>4</ele>
        <time>2023-09-03T12:03:26Z</time>
      </trkpt>
      <trkpt lat="49.28349" lon="-0.10275">
        <ele>4</ele>
        <time>2023-09-03T12:03:27Z</time>
      </trkpt>
      <trkpt lat="49.28349" lon="-0.10276">
        <ele>4</ele>
        <time>2023-09-03T12:03:28Z</time>
      </trkpt>
      <trkpt lat="49.28349" lon="-0.1028">
        <ele>4</ele>
        <time>2023-09-03T12:03:29Z</time>
      </trkpt>
      <trkpt lat="49.28349" lon="-0.10285">
        <ele>4</ele>
        <time>2023-09-03T12:03:30Z</time>
      </trkpt>
      <trkpt lat="49.28349" lon="-0.1029">
        <ele>4</ele>
        <time>2023-09-03T12:03:31Z</time>
      </trkpt>
      <trkpt lat="49.28348" lon="-0.10295">
        <ele>4</ele>
        <time>2023-09-03T12:03:32Z</time>
      </trkpt>
      <trkpt lat="49.28347" lon="-0.10301">
        <ele>4</ele>
        <time>2023-09-03T12:03:33Z</time>
      </trkpt>
      <trkpt lat="49.28346" lon="-0.10307">
        <ele>4</ele>
        <time>2023-09-03T12:03:34Z</time>
      </trkpt>
      <trkpt lat="49.28344" lon="-0.10314">
        <ele>4</ele>
        <time>2023-09-03T12:03:35Z</time>
      </trkpt>
      <trkpt lat="49.28343" lon="-0.1032">
        <ele>4</ele>
        <time>2023-09-03T12:03:36Z</time>
      </trkpt>
      <trkpt lat="49.28341" lon="-0.10327">
        <ele>4</ele>
        <time>2023-09-03T12:03:37Z</time>
      </trkpt>
      <trkpt lat="49.28339" lon="-0.10334">
        <ele>4</ele>
        <time>2023-09-03T12:03:38Z</time>
      </trkpt>
      <trkpt lat="49.28338" lon="-0.10341">
        <ele>4</ele>
        <time>2023-09-03T12:03:39Z</time>
      </trkpt>
      <trkpt lat="49.28338" lon="-0.10349">
        <ele>4</ele>
        <time>2023-09-03T12:03:40Z</time>
      </trkpt>
      <trkpt lat="49.28338" lon="-0.10357">
        <ele>4</ele>
        <time>2023-09-03T12:03:41Z</time>
      </trkpt>
      <trkpt lat="49.28339" lon="-0.10366">
        <ele>4</ele>
        <time>2023-09-03T12:03:42Z</time>
      </trkpt>
      <trkpt lat="49.2834" lon="-0.10375">
        <ele>4</ele>
        <time>2023-09-03T12:03:43Z</time>
      </trkpt>
      <trkpt lat="49.2834" lon="-0.10383">
        <ele>4</ele>
        <time>2023-09-03T12:03:44Z</time>
      </trkpt>
      <trkpt lat="49.2834" lon="-0.10391">
        <ele>4</ele>
        <time>2023-09-03T12:03:45Z</time>
      </trkpt>
      <trkpt lat="49.2834" lon="-0.104">
        <ele>4</ele>
        <time>2023-09-03T12:03:46Z</time>
      </trkpt>
      <trkpt lat="49.28341" lon="-0.10408">
        <ele>3.9</ele>
        <time>2023-09-03T12:03:47Z</time>
      </trkpt>
      <trkpt lat="49.28342" lon="-0.10418">
        <ele>3.9</ele>
        <time>2023-09-03T12:03:48Z</time>
      </trkpt>
      <trkpt lat="49.28342" lon="-0.10427">
        <ele>3.9</ele>
        <time>2023-09-03T12:03:49Z</time>
      </trkpt>
      <trkpt lat="49.28343" lon="-0.10435">
        <ele>3.9</ele>
        <time>2023-09-03T12:03:50Z</time>
      </trkpt>
      <trkpt lat="49.28343" lon="-0.10445">
        <ele>3.9</ele>
        <time>2023-09-03T12:03:51Z</time>
      </trkpt>
      <trkpt lat="49.28343" lon="-0.10454">
        <ele>3.9</ele>
        <time>2023-09-03T12:03:52Z</time>
      </trkpt>
      <trkpt lat="49.28344" lon="-0.10463">
        <ele>3.9</ele>
        <time>2023-09-03T12:03:53Z</time>
      </trkpt>
      <trkpt lat="49.28344" lon="-0.10472">
        <ele>3.9</ele>
        <time>2023-09-03T12:03:54Z</time>
      </trkpt>
      <trkpt lat="49.28345" lon="-0.10481">
        <ele>3.9</ele>
        <time>2023-09-03T12:03:55Z</time>
      </trkpt>
      <trkpt lat="49.28345" lon="-0.10489">
        <ele>3.9</ele>
        <time>2023-09-03T12:03:56Z</time>
      </trkpt>
      <trkpt lat="49.28345" lon="-0.10498">
        <ele>3.9</ele>
        <time>2023-09-03T12:03:57Z</time>
      </trkpt>
      <trkpt lat="49.28346" lon="-0.10505">
        <ele>3.9</ele>
        <time>2023-09-03T12:03:58Z</time>
      </trkpt>
      <trkpt lat="49.28346" lon="-0.10512">
        <ele>4</ele>
        <time>2023-09-03T12:03:59Z</time>
      </trkpt>
      <trkpt lat="49.28347" lon="-0.10517">
        <ele>4</ele>
        <time>2023-09-03T12:04:00Z</time>
      </trkpt>
      <trkpt lat="49.28347" lon="-0.10522">
        <ele>4</ele>
        <time>2023-09-03T12:04:01Z</time>
      </trkpt>
      <trkpt lat="49.28347" lon="-0.10527">
        <ele>4</ele>
        <time>2023-09-03T12:04:02Z</time>
      </trkpt>
      <trkpt lat="49.28347" lon="-0.10528">
        <ele>4</ele>
        <time>2023-09-03T12:04:03Z</time>
      </trkpt>
      <trkpt lat="49.28346" lon="-0.1053">
        <ele>4</ele>
        <time>2023-09-03T12:04:04Z</time>
      </trkpt>
      <trkpt lat="49.28346" lon="-0.10532">
        <ele>4</ele>
        <time>2023-09-03T12:04:05Z</time>
      </trkpt>
      <trkpt lat="49.28346" lon="-0.10533">
        <ele>4</ele>
        <time>2023-09-03T12:04:06Z</time>
      </trkpt>
      <trkpt lat="49.28346" lon="-0.10534">
        <ele>4</ele>
        <time>2023-09-03T12:04:07Z</time>
      </trkpt>
      <trkpt lat="49.28346" lon="-0.1054">
        <ele>4</ele>
        <time>2023-09-03T12:04:08Z</time>
      </trkpt>
      <trkpt lat="49.28346" lon="-0.10542">
        <ele>4</ele>
        <time>2023-09-03T12:04:09Z</time>
      </trkpt>
      <trkpt lat="49.28346" lon="-0.10548">
        <ele>4</ele>
        <time>2023-09-03T12:04:10Z</time>
      </trkpt>
      <trkpt lat="49.28347" lon="-0.10553">
        <ele>4</ele>
        <time>2023-09-03T12:04:11Z</time>
      </trkpt>
      <trkpt lat="49.28347" lon="-0.10559">
        <ele>4</ele>
        <time>2023-09-03T12:04:12Z</time>
      </trkpt>
      <trkpt lat="49.28347" lon="-0.10565">
        <ele>4</ele>
        <time>2023-09-03T12:04:13Z</time>
      </trkpt>
      <trkpt lat="49.28348" lon="-0.1057">
        <ele>4</ele>
        <time>2023-09-03T12:04:14Z</time>
      </trkpt>
      <trkpt lat="49.28348" lon="-0.10577">
        <ele>4</ele>
        <time>2023-09-03T12:04:15Z</time>
      </trkpt>
      <trkpt lat="49.28349" lon="-0.10584">
        <ele>4</ele>
        <time>2023-09-03T12:04:16Z</time>
      </trkpt>
      <trkpt lat="49.28349" lon="-0.10591">
        <ele>4</ele>
        <time>2023-09-03T12:04:17Z</time>
      </trkpt>
      <trkpt lat="49.28349" lon="-0.10598">
        <ele>4</ele>
        <time>2023-09-03T12:04:18Z</time>
      </trkpt>
      <trkpt lat="49.2835" lon="-0.10606">
        <ele>4</ele>
        <time>2023-09-03T12:04:19Z</time>
      </trkpt>
      <trkpt lat="49.2835" lon="-0.10613">
        <ele>4</ele>
        <time>2023-09-03T12:04:20Z</time>
      </trkpt>
      <trkpt lat="49.2835" lon="-0.10621">
        <ele>4</ele>
        <time>2023-09-03T12:04:21Z</time>
      </trkpt>
      <trkpt lat="49.2835" lon="-0.10629">
        <ele>4.1</ele>
        <time>2023-09-03T12:04:22Z</time>
      </trkpt>
      <trkpt lat="49.28351" lon="-0.10637">
        <ele>4.1</ele>
        <time>2023-09-03T12:04:23Z</time>
      </trkpt>
      <trkpt lat="49.28351" lon="-0.10644">
        <ele>4.1</ele>
        <time>2023-09-03T12:04:24Z</time>
      </trkpt>
      <trkpt lat="49.28352" lon="-0.10651">
        <ele>4.1</ele>
        <time>2023-09-03T12:04:25Z</time>
      </trkpt>
      <trkpt lat="49.28352" lon="-0.10659">
        <ele>4.1</ele>
        <time>2023-09-03T12:04:26Z</time>
      </trkpt>
      <trkpt lat="49.28353" lon="-0.10666">
        <ele>4.1</ele>
        <time>2023-09-03T12:04:27Z</time>
      </trkpt>
      <trkpt lat="49.28353" lon="-0.10674">
        <ele>4.1</ele>
        <time>2023-09-03T12:04:28Z</time>
      </trkpt>
      <trkpt lat="49.28353" lon="-0.10681">
        <ele>4.1</ele>
        <time>2023-09-03T12:04:29Z</time>
      </trkpt>
      <trkpt lat="49.28353" lon="-0.10688">
        <ele>4.1</ele>
        <time>2023-09-03T12:04:30Z</time>
      </trkpt>
      <trkpt lat="49.28354" lon="-0.10695">
        <ele>4.1</ele>
        <time>2023-09-03T12:04:31Z</time>
      </trkpt>
      <trkpt lat="49.28354" lon="-0.10701">
        <ele>4.1</ele>
        <time>2023-09-03T12:04:32Z</time>
      </trkpt>
      <trkpt lat="49.28354" lon="-0.10708">
        <ele>4.1</ele>
        <time>2023-09-03T12:04:33Z</time>
      </trkpt>
      <trkpt lat="49.28355" lon="-0.10714">
        <ele>4.1</ele>
        <time>2023-09-03T12:04:34Z</time>
      </trkpt>
      <trkpt lat="49.28355" lon="-0.10721">
        <ele>4.1</ele>
        <time>2023-09-03T12:04:35Z</time>
      </trkpt>
      <trkpt lat="49.28355" lon="-0.10727">
        <ele>4.1</ele>
        <time>2023-09-03T12:04:36Z</time>
      </trkpt>
      <trkpt lat="49.28355" lon="-0.10733">
        <ele>4.1</ele>
        <time>2023-09-03T12:04:37Z</time>
      </trkpt>
      <trkpt lat="49.28355" lon="-0.10739">
        <ele>4.1</ele>
        <time>2023-09-03T12:04:38Z</time>
      </trkpt>
      <trkpt lat="49.28356" lon="-0.10745">
        <ele>4.1</ele>
        <time>2023-09-03T12:04:39Z</time>
      </trkpt>
      <trkpt lat="49.28356" lon="-0.1075">
        <ele>4.1</ele>
        <time>2023-09-03T12:04:40Z</time>
      </trkpt>
      <trkpt lat="49.28356" lon="-0.10754">
        <ele>4.1</ele>
        <time>2023-09-03T12:04:41Z</time>
      </trkpt>
      <trkpt lat="49.28356" lon="-0.1076">
        <ele>4.1</ele>
        <time>2023-09-03T12:04:42Z</time>
      </trkpt>
      <trkpt lat="49.28356" lon="-0.10762">
        <ele>4.1</ele>
        <time>2023-09-03T12:04:43Z</time>
      </trkpt>
      <trkpt lat="49.28358" lon="-0.10765">
        <ele>4.1</ele>
        <time>2023-09-03T12:04:44Z</time>
      </trkpt>
      <trkpt lat="49.28359" lon="-0.10766">
        <ele>4.1</ele>
        <time>2023-09-03T12:04:45Z</time>
      </trkpt>
      <trkpt lat="49.28362" lon="-0.10767">
        <ele>4.1</ele>
        <time>2023-09-03T12:04:46Z</time>
      </trkpt>
      <trkpt lat="49.28363" lon="-0.10767">
        <ele>4.1</ele>
        <time>2023-09-03T12:04:47Z</time>
      </trkpt>
      <trkpt lat="49.28366" lon="-0.10767">
        <ele>4.1</ele>
        <time>2023-09-03T12:04:48Z</time>
      </trkpt>
      <trkpt lat="49.28367" lon="-0.10767">
        <ele>4.1</ele>
        <time>2023-09-03T12:04:49Z</time>
      </trkpt>
      <trkpt lat="49.28371" lon="-0.10767">
        <ele>4</ele>
        <time>2023-09-03T12:04:50Z</time>
      </trkpt>
      <trkpt lat="49.28372" lon="-0.10766">
        <ele>4</ele>
        <time>2023-09-03T12:04:51Z</time>
      </trkpt>
      <trkpt lat="49.28375" lon="-0.10765">
        <ele>4</ele>
        <time>2023-09-03T12:04:52Z</time>
      </trkpt>
      <trkpt lat="49.28378" lon="-0.10764">
        <ele>4</ele>
        <time>2023-09-03T12:04:53Z</time>
      </trkpt>
      <trkpt lat="49.28382" lon="-0.10763">
        <ele>4.1</ele>
        <time>2023-09-03T12:04:54Z</time>
      </trkpt>
      <trkpt lat="49.28385" lon="-0.10762">
        <ele>4.1</ele>
        <time>2023-09-03T12:04:55Z</time>
      </trkpt>
      <trkpt lat="49.28388" lon="-0.10761">
        <ele>4.1</ele>
        <time>2023-09-03T12:04:56Z</time>
      </trkpt>
      <trkpt lat="49.28391" lon="-0.1076">
        <ele>4.1</ele>
        <time>2023-09-03T12:04:57Z</time>
      </trkpt>
      <trkpt lat="49.28394" lon="-0.1076">
        <ele>4.1</ele>
        <time>2023-09-03T12:04:58Z</time>
      </trkpt>
      <trkpt lat="49.28397" lon="-0.10759">
        <ele>4.1</ele>
        <time>2023-09-03T12:04:59Z</time>
      </trkpt>
      <trkpt lat="49.28401" lon="-0.10759">
        <ele>4.1</ele>
        <time>2023-09-03T12:05:00Z</time>
      </trkpt>
      <trkpt lat="49.28404" lon="-0.10759">
        <ele>4.1</ele>
        <time>2023-09-03T12:05:01Z</time>
      </trkpt>
      <trkpt lat="49.28407" lon="-0.10757">
        <ele>4.1</ele>
        <time>2023-09-03T12:05:02Z</time>
      </trkpt>
      <trkpt lat="49.2841" lon="-0.10756">
        <ele>4.1</ele>
        <time>2023-09-03T12:05:03Z</time>
      </trkpt>
      <trkpt lat="49.28412" lon="-0.10754">
        <ele>4.1</ele>
        <time>2023-09-03T12:05:04Z</time>
      </trkpt>
      <trkpt lat="49.28415" lon="-0.10753">
        <ele>4.1</ele>
        <time>2023-09-03T12:05:05Z</time>
      </trkpt>
      <trkpt lat="49.28417" lon="-0.10752">
        <ele>4.1</ele>
        <time>2023-09-03T12:05:06Z</time>
      </trkpt>
      <trkpt lat="49.28417" lon="-0.10752">
        <ele>4.1</ele>
        <time>2023-09-03T12:05:07Z</time>
      </trkpt>
      <trkpt lat="49.28417" lon="-0.10752">
        <ele>4.1</ele>
        <time>2023-09-03T12:05:08Z</time>
      </trkpt>
      <trkpt lat="49.28417" lon="-0.10753">
        <ele>4.1</ele>
        <time>2023-09-03T12:05:09Z</time>
      </trkpt>
      <trkpt lat="49.28417" lon="-0.10753">
        <ele>4.1</ele>
        <time>2023-09-03T12:05:10Z</time>
      </trkpt>
      <trkpt lat="49.28417" lon="-0.10753">
        <ele>4.1</ele>
        <time>2023-09-03T12:05:11Z</time>
      </trkpt>
      <trkpt lat="49.28417" lon="-0.10753">
        <ele>4.1</ele>
        <time>2023-09-03T12:05:12Z</time>
      </trkpt>
      <trkpt lat="49.28417" lon="-0.10753">
        <ele>4.1</ele>
        <time>2023-09-03T12:05:13Z</time>
      </trkpt>
      <trkpt lat="49.28417" lon="-0.10753">
        <ele>4.1</ele>
        <time>2023-09-03T12:05:14Z</time>
      </trkpt>
      <trkpt lat="49.28418" lon="-0.10752">
        <ele>4.1</ele>
        <time>2023-09-03T12:05:15Z</time>
      </trkpt>
      <trkpt lat="49.28418" lon="-0.10752">
        <ele>4.1</ele>
        <time>2023-09-03T12:05:16Z</time>
      </trkpt>
      <trkpt lat="49.28419" lon="-0.10754">
        <ele>4</ele>
        <time>2023-09-03T12:05:17Z</time>
      </trkpt>
      <trkpt lat="49.2842" lon="-0.10755">
        <ele>4</ele>
        <time>2023-09-03T12:05:18Z</time>
      </trkpt>
      <trkpt lat="49.28421" lon="-0.10756">
        <ele>4</ele>
        <time>2023-09-03T12:05:19Z</time>
      </trkpt>
      <trkpt lat="49.28421" lon="-0.10761">
        <ele>4</ele>
        <time>2023-09-03T12:05:20Z</time>
      </trkpt>
      <trkpt lat="49.28421" lon="-0.10763">
        <ele>4</ele>
        <time>2023-09-03T12:05:21Z</time>
      </trkpt>
      <trkpt lat="49.28421" lon="-0.10767">
        <ele>3.9</ele>
        <time>2023-09-03T12:05:22Z</time>
      </trkpt>
      <trkpt lat="49.28422" lon="-0.10772">
        <ele>3.8</ele>
        <time>2023-09-03T12:05:23Z</time>
      </trkpt>
      <trkpt lat="49.28423" lon="-0.10778">
        <ele>3.8</ele>
        <time>2023-09-03T12:05:24Z</time>
      </trkpt>
      <trkpt lat="49.28424" lon="-0.10783">
        <ele>3.7</ele>
        <time>2023-09-03T12:05:25Z</time>
      </trkpt>
      <trkpt lat="49.28425" lon="-0.10788">
        <ele>3.6</ele>
        <time>2023-09-03T12:05:26Z</time>
      </trkpt>
      <trkpt lat="49.28425" lon="-0.10793">
        <ele>3.6</ele>
        <time>2023-09-03T12:05:27Z</time>
      </trkpt>
      <trkpt lat="49.28425" lon="-0.10799">
        <ele>3.5</ele>
        <time>2023-09-03T12:05:28Z</time>
      </trkpt>
      <trkpt lat="49.28424" lon="-0.10806">
        <ele>3.5</ele>
        <time>2023-09-03T12:05:29Z</time>
      </trkpt>
      <trkpt lat="49.28424" lon="-0.10813">
        <ele>3.5</ele>
        <time>2023-09-03T12:05:30Z</time>
      </trkpt>
      <trkpt lat="49.28425" lon="-0.10821">
        <ele>3.5</ele>
        <time>2023-09-03T12:05:31Z</time>
      </trkpt>
      <trkpt lat="49.28426" lon="-0.1083">
        <ele>3.5</ele>
        <time>2023-09-03T12:05:32Z</time>
      </trkpt>
      <trkpt lat="49.28427" lon="-0.10838">
        <ele>3.6</ele>
        <time>2023-09-03T12:05:33Z</time>
      </trkpt>
      <trkpt lat="49.28429" lon="-0.10847">
        <ele>3.7</ele>
        <time>2023-09-03T12:05:34Z</time>
      </trkpt>
      <trkpt lat="49.28431" lon="-0.10856">
        <ele>3.8</ele>
        <time>2023-09-03T12:05:35Z</time>
      </trkpt>
      <trkpt lat="49.28432" lon="-0.10864">
        <ele>3.9</ele>
        <time>2023-09-03T12:05:36Z</time>
      </trkpt>
      <trkpt lat="49.28434" lon="-0.10872">
        <ele>4</ele>
        <time>2023-09-03T12:05:37Z</time>
      </trkpt>
      <trkpt lat="49.28436" lon="-0.10879">
        <ele>4.1</ele>
        <time>2023-09-03T12:05:38Z</time>
      </trkpt>
      <trkpt lat="49.28441" lon="-0.10881">
        <ele>4.2</ele>
        <time>2023-09-03T12:05:39Z</time>
      </trkpt>
      <trkpt lat="49.28447" lon="-0.1088">
        <ele>4.2</ele>
        <time>2023-09-03T12:05:40Z</time>
      </trkpt>
      <trkpt lat="49.28454" lon="-0.10878">
        <ele>4.2</ele>
        <time>2023-09-03T12:05:41Z</time>
      </trkpt>
      <trkpt lat="49.28459" lon="-0.10876">
        <ele>4.1</ele>
        <time>2023-09-03T12:05:42Z</time>
      </trkpt>
      <trkpt lat="49.28465" lon="-0.10873">
        <ele>4.1</ele>
        <time>2023-09-03T12:05:43Z</time>
      </trkpt>
      <trkpt lat="49.28471" lon="-0.1087">
        <ele>4.1</ele>
        <time>2023-09-03T12:05:44Z</time>
      </trkpt>
      <trkpt lat="49.28477" lon="-0.10867">
        <ele>4.1</ele>
        <time>2023-09-03T12:05:45Z</time>
      </trkpt>
      <trkpt lat="49.28483" lon="-0.10864">
        <ele>4.2</ele>
        <time>2023-09-03T12:05:46Z</time>
      </trkpt>
      <trkpt lat="49.28489" lon="-0.10861">
        <ele>4.2</ele>
        <time>2023-09-03T12:05:47Z</time>
      </trkpt>
      <trkpt lat="49.28494" lon="-0.10858">
        <ele>4.3</ele>
        <time>2023-09-03T12:05:48Z</time>
      </trkpt>
      <trkpt lat="49.285" lon="-0.10856">
        <ele>4.4</ele>
        <time>2023-09-03T12:05:49Z</time>
      </trkpt>
      <trkpt lat="49.28505" lon="-0.10853">
        <ele>4.5</ele>
        <time>2023-09-03T12:05:50Z</time>
      </trkpt>
      <trkpt lat="49.2851" lon="-0.10851">
        <ele>4.6</ele>
        <time>2023-09-03T12:05:51Z</time>
      </trkpt>
      <trkpt lat="49.28515" lon="-0.10847">
        <ele>4.7</ele>
        <time>2023-09-03T12:05:52Z</time>
      </trkpt>
      <trkpt lat="49.28519" lon="-0.10843">
        <ele>4.8</ele>
        <time>2023-09-03T12:05:53Z</time>
      </trkpt>
      <trkpt lat="49.28522" lon="-0.10839">
        <ele>4.8</ele>
        <time>2023-09-03T12:05:54Z</time>
      </trkpt>
      <trkpt lat="49.28527" lon="-0.10837">
        <ele>4.7</ele>
        <time>2023-09-03T12:05:55Z</time>
      </trkpt>
      <trkpt lat="49.28532" lon="-0.10837">
        <ele>4.7</ele>
        <time>2023-09-03T12:05:56Z</time>
      </trkpt>
      <trkpt lat="49.28535" lon="-0.10841">
        <ele>4.7</ele>
        <time>2023-09-03T12:05:57Z</time>
      </trkpt>
      <trkpt lat="49.28537" lon="-0.10848">
        <ele>4.7</ele>
        <time>2023-09-03T12:05:58Z</time>
      </trkpt>
      <trkpt lat="49.28539" lon="-0.10857">
        <ele>4.6</ele>
        <time>2023-09-03T12:05:59Z</time>
      </trkpt>
      <trkpt lat="49.2854" lon="-0.10865">
        <ele>4.6</ele>
        <time>2023-09-03T12:06:00Z</time>
      </trkpt>
      <trkpt lat="49.2854" lon="-0.10872">
        <ele>4.6</ele>
        <time>2023-09-03T12:06:01Z</time>
      </trkpt>
      <trkpt lat="49.2854" lon="-0.10879">
        <ele>4.6</ele>
        <time>2023-09-03T12:06:02Z</time>
      </trkpt>
      <trkpt lat="49.28539" lon="-0.10886">
        <ele>4.7</ele>
        <time>2023-09-03T12:06:03Z</time>
      </trkpt>
      <trkpt lat="49.28536" lon="-0.10894">
        <ele>4.7</ele>
        <time>2023-09-03T12:06:04Z</time>
      </trkpt>
      <trkpt lat="49.28532" lon="-0.109">
        <ele>4.7</ele>
        <time>2023-09-03T12:06:05Z</time>
      </trkpt>
      <trkpt lat="49.28528" lon="-0.10907">
        <ele>4.8</ele>
        <time>2023-09-03T12:06:06Z</time>
      </trkpt>
      <trkpt lat="49.28526" lon="-0.10915">
        <ele>4.8</ele>
        <time>2023-09-03T12:06:07Z</time>
      </trkpt>
      <trkpt lat="49.28526" lon="-0.10923">
        <ele>4.8</ele>
        <time>2023-09-03T12:06:08Z</time>
      </trkpt>
      <trkpt lat="49.28527" lon="-0.10931">
        <ele>4.9</ele>
        <time>2023-09-03T12:06:09Z</time>
      </trkpt>
      <trkpt lat="49.28528" lon="-0.10939">
        <ele>4.9</ele>
        <time>2023-09-03T12:06:10Z</time>
      </trkpt>
      <trkpt lat="49.28529" lon="-0.10947">
        <ele>4.9</ele>
        <time>2023-09-03T12:06:11Z</time>
      </trkpt>
      <trkpt lat="49.28531" lon="-0.10954">
        <ele>4.9</ele>
        <time>2023-09-03T12:06:12Z</time>
      </trkpt>
      <trkpt lat="49.28532" lon="-0.10962">
        <ele>5</ele>
        <time>2023-09-03T12:06:13Z</time>
      </trkpt>
      <trkpt lat="49.28533" lon="-0.1097">
        <ele>5.1</ele>
        <time>2023-09-03T12:06:14Z</time>
      </trkpt>
      <trkpt lat="49.28534" lon="-0.10978">
        <ele>5.1</ele>
        <time>2023-09-03T12:06:15Z</time>
      </trkpt>
      <trkpt lat="49.28536" lon="-0.10985">
        <ele>5.2</ele>
        <time>2023-09-03T12:06:16Z</time>
      </trkpt>
      <trkpt lat="49.28537" lon="-0.10993">
        <ele>5.2</ele>
        <time>2023-09-03T12:06:17Z</time>
      </trkpt>
      <trkpt lat="49.28539" lon="-0.11">
        <ele>5.3</ele>
        <time>2023-09-03T12:06:18Z</time>
      </trkpt>
      <trkpt lat="49.2854" lon="-0.11007">
        <ele>5.3</ele>
        <time>2023-09-03T12:06:19Z</time>
      </trkpt>
      <trkpt lat="49.28542" lon="-0.11014">
        <ele>5.4</ele>
        <time>2023-09-03T12:06:20Z</time>
      </trkpt>
      <trkpt lat="49.28543" lon="-0.1102">
        <ele>5.4</ele>
        <time>2023-09-03T12:06:21Z</time>
      </trkpt>
      <trkpt lat="49.28545" lon="-0.11027">
        <ele>5.5</ele>
        <time>2023-09-03T12:06:22Z</time>
      </trkpt>
      <trkpt lat="49.28546" lon="-0.11034">
        <ele>5.6</ele>
        <time>2023-09-03T12:06:23Z</time>
      </trkpt>
      <trkpt lat="49.28548" lon="-0.11041">
        <ele>5.6</ele>
        <time>2023-09-03T12:06:24Z</time>
      </trkpt>
      <trkpt lat="49.2855" lon="-0.11048">
        <ele>5.7</ele>
        <time>2023-09-03T12:06:25Z</time>
      </trkpt>
      <trkpt lat="49.28551" lon="-0.11054">
        <ele>5.7</ele>
        <time>2023-09-03T12:06:26Z</time>
      </trkpt>
      <trkpt lat="49.28553" lon="-0.11061">
        <ele>5.8</ele>
        <time>2023-09-03T12:06:27Z</time>
      </trkpt>
      <trkpt lat="49.28555" lon="-0.11068">
        <ele>5.8</ele>
        <time>2023-09-03T12:06:28Z</time>
      </trkpt>
      <trkpt lat="49.28556" lon="-0.11074">
        <ele>5.9</ele>
        <time>2023-09-03T12:06:29Z</time>
      </trkpt>
      <trkpt lat="49.28558" lon="-0.11081">
        <ele>5.9</ele>
        <time>2023-09-03T12:06:30Z</time>
      </trkpt>
      <trkpt lat="49.2856" lon="-0.11088">
        <ele>6</ele>
        <time>2023-09-03T12:06:31Z</time>
      </trkpt>
      <trkpt lat="49.28561" lon="-0.11095">
        <ele>6</ele>
        <time>2023-09-03T12:06:32Z</time>
      </trkpt>
      <trkpt lat="49.28563" lon="-0.11102">
        <ele>6.1</ele>
        <time>2023-09-03T12:06:33Z</time>
      </trkpt>
      <trkpt lat="49.28565" lon="-0.11109">
        <ele>6.2</ele>
        <time>2023-09-03T12:06:34Z</time>
      </trkpt>
      <trkpt lat="49.28567" lon="-0.11116">
        <ele>6.2</ele>
        <time>2023-09-03T12:06:35Z</time>
      </trkpt>
      <trkpt lat="49.28568" lon="-0.11123">
        <ele>6.2</ele>
        <time>2023-09-03T12:06:36Z</time>
      </trkpt>
      <trkpt lat="49.2857" lon="-0.1113">
        <ele>6.3</ele>
        <time>2023-09-03T12:06:37Z</time>
      </trkpt>
      <trkpt lat="49.28573" lon="-0.11137">
        <ele>6.3</ele>
        <time>2023-09-03T12:06:38Z</time>
      </trkpt>
      <trkpt lat="49.28574" lon="-0.11144">
        <ele>6.3</ele>
        <time>2023-09-03T12:06:39Z</time>
      </trkpt>
      <trkpt lat="49.28576" lon="-0.11151">
        <ele>6.4</ele>
        <time>2023-09-03T12:06:40Z</time>
      </trkpt>
      <trkpt lat="49.28578" lon="-0.11159">
        <ele>6.4</ele>
        <time>2023-09-03T12:06:41Z</time>
      </trkpt>
      <trkpt lat="49.2858" lon="-0.11166">
        <ele>6.4</ele>
        <time>2023-09-03T12:06:42Z</time>
      </trkpt>
      <trkpt lat="49.28582" lon="-0.11173">
        <ele>6.4</ele>
        <time>2023-09-03T12:06:43Z</time>
      </trkpt>
      <trkpt lat="49.28584" lon="-0.11181">
        <ele>6.4</ele>
        <time>2023-09-03T12:06:44Z</time>
      </trkpt>
      <trkpt lat="49.28586" lon="-0.11188">
        <ele>6.4</ele>
        <time>2023-09-03T12:06:45Z</time>
      </trkpt>
      <trkpt lat="49.28588" lon="-0.11196">
        <ele>6.4</ele>
        <time>2023-09-03T12:06:46Z</time>
      </trkpt>
      <trkpt lat="49.2859" lon="-0.11203">
        <ele>6.4</ele>
        <time>2023-09-03T12:06:47Z</time>
      </trkpt>
      <trkpt lat="49.28592" lon="-0.1121">
        <ele>6.4</ele>
        <time>2023-09-03T12:06:48Z</time>
      </trkpt>
      <trkpt lat="49.28594" lon="-0.11217">
        <ele>6.4</ele>
        <time>2023-09-03T12:06:49Z</time>
      </trkpt>
      <trkpt lat="49.28597" lon="-0.11224">
        <ele>6.3</ele>
        <time>2023-09-03T12:06:50Z</time>
      </trkpt>
      <trkpt lat="49.28601" lon="-0.1123">
        <ele>6.3</ele>
        <time>2023-09-03T12:06:51Z</time>
      </trkpt>
      <trkpt lat="49.28603" lon="-0.11237">
        <ele>6.4</ele>
        <time>2023-09-03T12:06:52Z</time>
      </trkpt>
      <trkpt lat="49.28604" lon="-0.11246">
        <ele>6.4</ele>
        <time>2023-09-03T12:06:53Z</time>
      </trkpt>
      <trkpt lat="49.28605" lon="-0.11256">
        <ele>6.3</ele>
        <time>2023-09-03T12:06:54Z</time>
      </trkpt>
      <trkpt lat="49.28606" lon="-0.11265">
        <ele>6.1</ele>
        <time>2023-09-03T12:06:55Z</time>
      </trkpt>
      <trkpt lat="49.28608" lon="-0.11274">
        <ele>6</ele>
        <time>2023-09-03T12:06:56Z</time>
      </trkpt>
      <trkpt lat="49.2861" lon="-0.11282">
        <ele>5.9</ele>
        <time>2023-09-03T12:06:57Z</time>
      </trkpt>
      <trkpt lat="49.28612" lon="-0.1129">
        <ele>5.8</ele>
        <time>2023-09-03T12:06:58Z</time>
      </trkpt>
      <trkpt lat="49.28614" lon="-0.11299">
        <ele>5.7</ele>
        <time>2023-09-03T12:06:59Z</time>
      </trkpt>
      <trkpt lat="49.28617" lon="-0.11307">
        <ele>5.6</ele>
        <time>2023-09-03T12:07:00Z</time>
      </trkpt>
      <trkpt lat="49.28619" lon="-0.11315">
        <ele>5.5</ele>
        <time>2023-09-03T12:07:01Z</time>
      </trkpt>
      <trkpt lat="49.28621" lon="-0.11323">
        <ele>5.4</ele>
        <time>2023-09-03T12:07:02Z</time>
      </trkpt>
      <trkpt lat="49.28623" lon="-0.11331">
        <ele>5.4</ele>
        <time>2023-09-03T12:07:03Z</time>
      </trkpt>
      <trkpt lat="49.28626" lon="-0.11339">
        <ele>5.3</ele>
        <time>2023-09-03T12:07:04Z</time>
      </trkpt>
      <trkpt lat="49.28628" lon="-0.11348">
        <ele>5.3</ele>
        <time>2023-09-03T12:07:05Z</time>
      </trkpt>
      <trkpt lat="49.2863" lon="-0.11356">
        <ele>5.2</ele>
        <time>2023-09-03T12:07:06Z</time>
      </trkpt>
      <trkpt lat="49.28632" lon="-0.11364">
        <ele>5.2</ele>
        <time>2023-09-03T12:07:07Z</time>
      </trkpt>
      <trkpt lat="49.28634" lon="-0.11372">
        <ele>5.1</ele>
        <time>2023-09-03T12:07:08Z</time>
      </trkpt>
      <trkpt lat="49.28636" lon="-0.1138">
        <ele>5.1</ele>
        <time>2023-09-03T12:07:09Z</time>
      </trkpt>
      <trkpt lat="49.28639" lon="-0.11388">
        <ele>5</ele>
        <time>2023-09-03T12:07:10Z</time>
      </trkpt>
      <trkpt lat="49.28641" lon="-0.11396">
        <ele>5</ele>
        <time>2023-09-03T12:07:11Z</time>
      </trkpt>
      <trkpt lat="49.28644" lon="-0.11405">
        <ele>5</ele>
        <time>2023-09-03T12:07:12Z</time>
      </trkpt>
      <trkpt lat="49.28646" lon="-0.11413">
        <ele>5</ele>
        <time>2023-09-03T12:07:13Z</time>
      </trkpt>
      <trkpt lat="49.28648" lon="-0.11421">
        <ele>4.9</ele>
        <time>2023-09-03T12:07:14Z</time>
      </trkpt>
      <trkpt lat="49.2865" lon="-0.1143">
        <ele>4.9</ele>
        <time>2023-09-03T12:07:15Z</time>
      </trkpt>
      <trkpt lat="49.28653" lon="-0.11438">
        <ele>4.9</ele>
        <time>2023-09-03T12:07:16Z</time>
      </trkpt>
      <trkpt lat="49.28655" lon="-0.11446">
        <ele>4.9</ele>
        <time>2023-09-03T12:07:17Z</time>
      </trkpt>
      <trkpt lat="49.28656" lon="-0.11454">
        <ele>4.9</ele>
        <time>2023-09-03T12:07:18Z</time>
      </trkpt>
      <trkpt lat="49.28658" lon="-0.11461">
        <ele>4.9</ele>
        <time>2023-09-03T12:07:19Z</time>
      </trkpt>
      <trkpt lat="49.2866" lon="-0.11468">
        <ele>4.9</ele>
        <time>2023-09-03T12:07:20Z</time>
      </trkpt>
      <trkpt lat="49.28662" lon="-0.11475">
        <ele>4.9</ele>
        <time>2023-09-03T12:07:21Z</time>
      </trkpt>
      <trkpt lat="49.28664" lon="-0.11482">
        <ele>4.9</ele>
        <time>2023-09-03T12:07:22Z</time>
      </trkpt>
      <trkpt lat="49.28666" lon="-0.1149">
        <ele>4.9</ele>
        <time>2023-09-03T12:07:23Z</time>
      </trkpt>
      <trkpt lat="49.28667" lon="-0.11496">
        <ele>4.9</ele>
        <time>2023-09-03T12:07:24Z</time>
      </trkpt>
      <trkpt lat="49.28669" lon="-0.11503">
        <ele>4.9</ele>
        <time>2023-09-03T12:07:25Z</time>
      </trkpt>
      <trkpt lat="49.2867" lon="-0.11511">
        <ele>4.9</ele>
        <time>2023-09-03T12:07:26Z</time>
      </trkpt>
      <trkpt lat="49.28672" lon="-0.11518">
        <ele>4.9</ele>
        <time>2023-09-03T12:07:27Z</time>
      </trkpt>
      <trkpt lat="49.28674" lon="-0.11526">
        <ele>4.8</ele>
        <time>2023-09-03T12:07:28Z</time>
      </trkpt>
      <trkpt lat="49.28675" lon="-0.11533">
        <ele>4.8</ele>
        <time>2023-09-03T12:07:29Z</time>
      </trkpt>
      <trkpt lat="49.28676" lon="-0.11542">
        <ele>4.8</ele>
        <time>2023-09-03T12:07:30Z</time>
      </trkpt>
      <trkpt lat="49.28677" lon="-0.11549">
        <ele>4.8</ele>
        <time>2023-09-03T12:07:31Z</time>
      </trkpt>
      <trkpt lat="49.28678" lon="-0.11557">
        <ele>4.8</ele>
        <time>2023-09-03T12:07:32Z</time>
      </trkpt>
      <trkpt lat="49.28679" lon="-0.11565">
        <ele>4.9</ele>
        <time>2023-09-03T12:07:33Z</time>
      </trkpt>
      <trkpt lat="49.2868" lon="-0.11573">
        <ele>4.9</ele>
        <time>2023-09-03T12:07:34Z</time>
      </trkpt>
      <trkpt lat="49.28681" lon="-0.11582">
        <ele>4.9</ele>
        <time>2023-09-03T12:07:35Z</time>
      </trkpt>
      <trkpt lat="49.28682" lon="-0.11591">
        <ele>4.9</ele>
        <time>2023-09-03T12:07:36Z</time>
      </trkpt>
      <trkpt lat="49.28683" lon="-0.11599">
        <ele>4.9</ele>
        <time>2023-09-03T12:07:37Z</time>
      </trkpt>
      <trkpt lat="49.28683" lon="-0.11607">
        <ele>4.9</ele>
        <time>2023-09-03T12:07:38Z</time>
      </trkpt>
      <trkpt lat="49.28684" lon="-0.11615">
        <ele>4.9</ele>
        <time>2023-09-03T12:07:39Z</time>
      </trkpt>
      <trkpt lat="49.28684" lon="-0.11622">
        <ele>4.9</ele>
        <time>2023-09-03T12:07:40Z</time>
      </trkpt>
      <trkpt lat="49.28684" lon="-0.11629">
        <ele>4.9</ele>
        <time>2023-09-03T12:07:41Z</time>
      </trkpt>
      <trkpt lat="49.28685" lon="-0.11633">
        <ele>4.9</ele>
        <time>2023-09-03T12:07:42Z</time>
      </trkpt>
      <trkpt lat="49.28685" lon="-0.11637">
        <ele>4.9</ele>
        <time>2023-09-03T12:07:43Z</time>
      </trkpt>
      <trkpt lat="49.28685" lon="-0.11638">
        <ele>4.9</ele>
        <time>2023-09-03T12:07:44Z</time>
      </trkpt>
      <trkpt lat="49.28685" lon="-0.11639">
        <ele>4.9</ele>
        <time>2023-09-03T12:07:45Z</time>
      </trkpt>
      <trkpt lat="49.28685" lon="-0.1164">
        <ele>4.9</ele>
        <time>2023-09-03T12:07:46Z</time>
      </trkpt>
      <trkpt lat="49.28685" lon="-0.11641">
        <ele>4.9</ele>
        <time>2023-09-03T12:07:47Z</time>
      </trkpt>
      <trkpt lat="49.28685" lon="-0.11642">
        <ele>4.9</ele>
        <time>2023-09-03T12:07:48Z</time>
      </trkpt>
      <trkpt lat="49.28685" lon="-0.11643">
        <ele>4.9</ele>
        <time>2023-09-03T12:07:49Z</time>
      </trkpt>
      <trkpt lat="49.28685" lon="-0.11644">
        <ele>4.9</ele>
        <time>2023-09-03T12:07:50Z</time>
      </trkpt>
      <trkpt lat="49.28685" lon="-0.11645">
        <ele>4.9</ele>
        <time>2023-09-03T12:07:51Z</time>
      </trkpt>
      <trkpt lat="49.28685" lon="-0.11646">
        <ele>4.9</ele>
        <time>2023-09-03T12:07:52Z</time>
      </trkpt>
      <trkpt lat="49.28685" lon="-0.11647">
        <ele>4.9</ele>
        <time>2023-09-03T12:07:53Z</time>
      </trkpt>
      <trkpt lat="49.28685" lon="-0.11648">
        <ele>4.9</ele>
        <time>2023-09-03T12:07:54Z</time>
      </trkpt>
      <trkpt lat="49.28684" lon="-0.11648">
        <ele>4.9</ele>
        <time>2023-09-03T12:07:55Z</time>
      </trkpt>
      <trkpt lat="49.28684" lon="-0.11649">
        <ele>4.9</ele>
        <time>2023-09-03T12:08:02Z</time>
      </trkpt>
      <trkpt lat="49.28684" lon="-0.1165">
        <ele>4.9</ele>
        <time>2023-09-03T12:08:03Z</time>
      </trkpt>
      <trkpt lat="49.28684" lon="-0.11651">
        <ele>4.9</ele>
        <time>2023-09-03T12:08:04Z</time>
      </trkpt>
      <trkpt lat="49.28684" lon="-0.11656">
        <ele>4.9</ele>
        <time>2023-09-03T12:08:05Z</time>
      </trkpt>
      <trkpt lat="49.28684" lon="-0.11661">
        <ele>4.9</ele>
        <time>2023-09-03T12:08:06Z</time>
      </trkpt>
      <trkpt lat="49.28683" lon="-0.11667">
        <ele>4.9</ele>
        <time>2023-09-03T12:08:07Z</time>
      </trkpt>
      <trkpt lat="49.28684" lon="-0.11673">
        <ele>4.9</ele>
        <time>2023-09-03T12:08:08Z</time>
      </trkpt>
      <trkpt lat="49.28684" lon="-0.1168">
        <ele>4.8</ele>
        <time>2023-09-03T12:08:09Z</time>
      </trkpt>
      <trkpt lat="49.28684" lon="-0.11687">
        <ele>4.8</ele>
        <time>2023-09-03T12:08:10Z</time>
      </trkpt>
      <trkpt lat="49.28683" lon="-0.11694">
        <ele>4.8</ele>
        <time>2023-09-03T12:08:11Z</time>
      </trkpt>
      <trkpt lat="49.28683" lon="-0.11702">
        <ele>4.8</ele>
        <time>2023-09-03T12:08:12Z</time>
      </trkpt>
      <trkpt lat="49.28682" lon="-0.1171">
        <ele>4.8</ele>
        <time>2023-09-03T12:08:13Z</time>
      </trkpt>
      <trkpt lat="49.28682" lon="-0.11718">
        <ele>4.7</ele>
        <time>2023-09-03T12:08:14Z</time>
      </trkpt>
      <trkpt lat="49.28682" lon="-0.11726">
        <ele>4.7</ele>
        <time>2023-09-03T12:08:15Z</time>
      </trkpt>
      <trkpt lat="49.28682" lon="-0.11734">
        <ele>4.7</ele>
        <time>2023-09-03T12:08:16Z</time>
      </trkpt>
      <trkpt lat="49.28682" lon="-0.11741">
        <ele>4.6</ele>
        <time>2023-09-03T12:08:17Z</time>
      </trkpt>
      <trkpt lat="49.28682" lon="-0.11749">
        <ele>4.6</ele>
        <time>2023-09-03T12:08:18Z</time>
      </trkpt>
      <trkpt lat="49.28681" lon="-0.11756">
        <ele>4.6</ele>
        <time>2023-09-03T12:08:19Z</time>
      </trkpt>
      <trkpt lat="49.28681" lon="-0.11764">
        <ele>4.6</ele>
        <time>2023-09-03T12:08:20Z</time>
      </trkpt>
      <trkpt lat="49.28681" lon="-0.11771">
        <ele>4.5</ele>
        <time>2023-09-03T12:08:21Z</time>
      </trkpt>
      <trkpt lat="49.28681" lon="-0.11779">
        <ele>4.5</ele>
        <time>2023-09-03T12:08:22Z</time>
      </trkpt>
      <trkpt lat="49.2868" lon="-0.11787">
        <ele>4.5</ele>
        <time>2023-09-03T12:08:23Z</time>
      </trkpt>
      <trkpt lat="49.2868" lon="-0.11795">
        <ele>4.5</ele>
        <time>2023-09-03T12:08:24Z</time>
      </trkpt>
      <trkpt lat="49.28679" lon="-0.11803">
        <ele>4.5</ele>
        <time>2023-09-03T12:08:25Z</time>
      </trkpt>
      <trkpt lat="49.28678" lon="-0.1181">
        <ele>4.5</ele>
        <time>2023-09-03T12:08:26Z</time>
      </trkpt>
      <trkpt lat="49.28678" lon="-0.11818">
        <ele>4.5</ele>
        <time>2023-09-03T12:08:27Z</time>
      </trkpt>
      <trkpt lat="49.28677" lon="-0.11824">
        <ele>4.5</ele>
        <time>2023-09-03T12:08:28Z</time>
      </trkpt>
      <trkpt lat="49.28676" lon="-0.11831">
        <ele>4.5</ele>
        <time>2023-09-03T12:08:29Z</time>
      </trkpt>
      <trkpt lat="49.28675" lon="-0.11837">
        <ele>4.5</ele>
        <time>2023-09-03T12:08:30Z</time>
      </trkpt>
      <trkpt lat="49.28674" lon="-0.11844">
        <ele>4.5</ele>
        <time>2023-09-03T12:08:31Z</time>
      </trkpt>
      <trkpt lat="49.28673" lon="-0.1185">
        <ele>4.5</ele>
        <time>2023-09-03T12:08:32Z</time>
      </trkpt>
      <trkpt lat="49.28672" lon="-0.11856">
        <ele>4.5</ele>
        <time>2023-09-03T12:08:33Z</time>
      </trkpt>
      <trkpt lat="49.28671" lon="-0.11861">
        <ele>4.5</ele>
        <time>2023-09-03T12:08:34Z</time>
      </trkpt>
      <trkpt lat="49.2867" lon="-0.11867">
        <ele>4.5</ele>
        <time>2023-09-03T12:08:35Z</time>
      </trkpt>
      <trkpt lat="49.28669" lon="-0.11872">
        <ele>4.5</ele>
        <time>2023-09-03T12:08:36Z</time>
      </trkpt>
      <trkpt lat="49.28668" lon="-0.11877">
        <ele>4.5</ele>
        <time>2023-09-03T12:08:37Z</time>
      </trkpt>
      <trkpt lat="49.28667" lon="-0.11882">
        <ele>4.5</ele>
        <time>2023-09-03T12:08:38Z</time>
      </trkpt>
      <trkpt lat="49.28666" lon="-0.11887">
        <ele>4.6</ele>
        <time>2023-09-03T12:08:39Z</time>
      </trkpt>
      <trkpt lat="49.28665" lon="-0.11892">
        <ele>4.6</ele>
        <time>2023-09-03T12:08:40Z</time>
      </trkpt>
      <trkpt lat="49.28663" lon="-0.11896">
        <ele>4.6</ele>
        <time>2023-09-03T12:08:41Z</time>
      </trkpt>
      <trkpt lat="49.28661" lon="-0.119">
        <ele>4.6</ele>
        <time>2023-09-03T12:08:42Z</time>
      </trkpt>
      <trkpt lat="49.28657" lon="-0.119">
        <ele>4.7</ele>
        <time>2023-09-03T12:08:43Z</time>
      </trkpt>
      <trkpt lat="49.28655" lon="-0.119">
        <ele>4.7</ele>
        <time>2023-09-03T12:08:44Z</time>
      </trkpt>
      <trkpt lat="49.28652" lon="-0.11897">
        <ele>4.7</ele>
        <time>2023-09-03T12:08:45Z</time>
      </trkpt>
      <trkpt lat="49.28649" lon="-0.11893">
        <ele>4.7</ele>
        <time>2023-09-03T12:08:46Z</time>
      </trkpt>
      <trkpt lat="49.28646" lon="-0.11891">
        <ele>4.8</ele>
        <time>2023-09-03T12:08:47Z</time>
      </trkpt>
      <trkpt lat="49.28643" lon="-0.11892">
        <ele>4.8</ele>
        <time>2023-09-03T12:08:48Z</time>
      </trkpt>
      <trkpt lat="49.28641" lon="-0.11896">
        <ele>4.8</ele>
        <time>2023-09-03T12:08:49Z</time>
      </trkpt>
      <trkpt lat="49.28641" lon="-0.11898">
        <ele>4.8</ele>
        <time>2023-09-03T12:08:50Z</time>
      </trkpt>
      <trkpt lat="49.28639" lon="-0.11903">
        <ele>4.9</ele>
        <time>2023-09-03T12:08:51Z</time>
      </trkpt>
      <trkpt lat="49.28639" lon="-0.11904">
        <ele>4.9</ele>
        <time>2023-09-03T12:08:52Z</time>
      </trkpt>
      <trkpt lat="49.28638" lon="-0.11909">
        <ele>4.9</ele>
        <time>2023-09-03T12:08:53Z</time>
      </trkpt>
      <trkpt lat="49.28637" lon="-0.1191">
        <ele>4.9</ele>
        <time>2023-09-03T12:08:54Z</time>
      </trkpt>
      <trkpt lat="49.28638" lon="-0.11916">
        <ele>4.9</ele>
        <time>2023-09-03T12:08:55Z</time>
      </trkpt>
      <trkpt lat="49.28638" lon="-0.11917">
        <ele>4.9</ele>
        <time>2023-09-03T12:08:56Z</time>
      </trkpt>
      <trkpt lat="49.2864" lon="-0.11921">
        <ele>4.9</ele>
        <time>2023-09-03T12:08:57Z</time>
      </trkpt>
      <trkpt lat="49.28641" lon="-0.11922">
        <ele>4.9</ele>
        <time>2023-09-03T12:08:58Z</time>
      </trkpt>
      <trkpt lat="49.28643" lon="-0.11922">
        <ele>4.9</ele>
        <time>2023-09-03T12:08:59Z</time>
      </trkpt>
      <trkpt lat="49.28644" lon="-0.11921">
        <ele>4.9</ele>
        <time>2023-09-03T12:09:00Z</time>
      </trkpt>
      <trkpt lat="49.28644" lon="-0.11921">
        <ele>4.9</ele>
        <time>2023-09-03T12:09:01Z</time>
      </trkpt>
      <trkpt lat="49.28644" lon="-0.1192">
        <ele>4.9</ele>
        <time>2023-09-03T12:09:02Z</time>
      </trkpt>
      <trkpt lat="49.28644" lon="-0.1192">
        <ele>4.9</ele>
        <time>2023-09-03T12:09:03Z</time>
      </trkpt>
      <trkpt lat="49.28644" lon="-0.11919">
        <ele>4.9</ele>
        <time>2023-09-03T12:09:04Z</time>
      </trkpt>
      <trkpt lat="49.28643" lon="-0.11919">
        <ele>4.9</ele>
        <time>2023-09-03T12:09:05Z</time>
      </trkpt>
      <trkpt lat="49.28643" lon="-0.11918">
        <ele>4.9</ele>
        <time>2023-09-03T12:09:06Z</time>
      </trkpt>
      <trkpt lat="49.28643" lon="-0.11918">
        <ele>4.9</ele>
        <time>2023-09-03T12:09:07Z</time>
      </trkpt>
      <trkpt lat="49.28643" lon="-0.11917">
        <ele>4.9</ele>
        <time>2023-09-03T12:09:08Z</time>
      </trkpt>
      <trkpt lat="49.28643" lon="-0.11917">
        <ele>4.9</ele>
        <time>2023-09-03T12:09:09Z</time>
      </trkpt>
      <trkpt lat="49.28642" lon="-0.11916">
        <ele>4.9</ele>
        <time>2023-09-03T12:09:10Z</time>
      </trkpt>
      <trkpt lat="49.28642" lon="-0.11916">
        <ele>4.9</ele>
        <time>2023-09-03T12:09:11Z</time>
      </trkpt>
      <trkpt lat="49.28642" lon="-0.11915">
        <ele>4.9</ele>
        <time>2023-09-03T12:09:48Z</time>
      </trkpt>
      <trkpt lat="49.28642" lon="-0.11915">
        <ele>4.9</ele>
        <time>2023-09-03T12:09:49Z</time>
      </trkpt>
      <trkpt lat="49.28642" lon="-0.11914">
        <ele>4.9</ele>
        <time>2023-09-03T12:09:50Z</time>
      </trkpt>
      <trkpt lat="49.28642" lon="-0.11914">
        <ele>4.9</ele>
        <time>2023-09-03T12:09:51Z</time>
      </trkpt>
      <trkpt lat="49.28641" lon="-0.11913">
        <ele>4.9</ele>
        <time>2023-09-03T12:09:52Z</time>
      </trkpt>
      <trkpt lat="49.28641" lon="-0.11912">
        <ele>4.9</ele>
        <time>2023-09-03T12:09:53Z</time>
      </trkpt>
      <trkpt lat="49.28641" lon="-0.11912">
        <ele>4.9</ele>
        <time>2023-09-03T12:09:54Z</time>
      </trkpt>
      <trkpt lat="49.28641" lon="-0.11911">
        <ele>4.9</ele>
        <time>2023-09-03T12:09:55Z</time>
      </trkpt>
      <trkpt lat="49.28641" lon="-0.11911">
        <ele>4.9</ele>
        <time>2023-09-03T12:09:56Z</time>
      </trkpt>
      <trkpt lat="49.28641" lon="-0.1191">
        <ele>4.9</ele>
        <time>2023-09-03T12:09:57Z</time>
      </trkpt>
      <trkpt lat="49.2864" lon="-0.1191">
        <ele>4.9</ele>
        <time>2023-09-03T12:09:58Z</time>
      </trkpt>
      <trkpt lat="49.2864" lon="-0.11909">
        <ele>4.9</ele>
        <time>2023-09-03T12:09:59Z</time>
      </trkpt>
      <trkpt lat="49.2864" lon="-0.11909">
        <ele>4.9</ele>
        <time>2023-09-03T12:10:00Z</time>
      </trkpt>
      <trkpt lat="49.2864" lon="-0.11908">
        <ele>4.9</ele>
        <time>2023-09-03T12:10:01Z</time>
      </trkpt>
      <trkpt lat="49.2864" lon="-0.11908">
        <ele>4.9</ele>
        <time>2023-09-03T12:10:02Z</time>
      </trkpt>
      <trkpt lat="49.28639" lon="-0.11907">
        <ele>4.9</ele>
        <time>2023-09-03T12:10:03Z</time>
      </trkpt>
      <trkpt lat="49.28639" lon="-0.11907">
        <ele>4.9</ele>
        <time>2023-09-03T12:10:54Z</time>
      </trkpt>
      <trkpt lat="49.28639" lon="-0.11906">
        <ele>4.9</ele>
        <time>2023-09-03T12:10:55Z</time>
      </trkpt>
      <trkpt lat="49.28639" lon="-0.11906">
        <ele>4.9</ele>
        <time>2023-09-03T12:10:56Z</time>
      </trkpt>
      <trkpt lat="49.28635" lon="-0.11905">
        <ele>4.9</ele>
        <time>2023-09-03T12:10:57Z</time>
      </trkpt>
      <trkpt lat="49.28634" lon="-0.11904">
        <ele>4.9</ele>
        <time>2023-09-03T12:10:58Z</time>
      </trkpt>
      <trkpt lat="49.28631" lon="-0.11904">
        <ele>4.9</ele>
        <time>2023-09-03T12:10:59Z</time>
      </trkpt>
      <trkpt lat="49.28628" lon="-0.11907">
        <ele>4.9</ele>
        <time>2023-09-03T12:11:00Z</time>
      </trkpt>
      <trkpt lat="49.28624" lon="-0.11915">
        <ele>4.9</ele>
        <time>2023-09-03T12:11:01Z</time>
      </trkpt>
      <trkpt lat="49.28621" lon="-0.11924">
        <ele>4.9</ele>
        <time>2023-09-03T12:11:02Z</time>
      </trkpt>
      <trkpt lat="49.28616" lon="-0.11934">
        <ele>4.9</ele>
        <time>2023-09-03T12:11:03Z</time>
      </trkpt>
      <trkpt lat="49.2861" lon="-0.11944">
        <ele>5</ele>
        <time>2023-09-03T12:11:04Z</time>
      </trkpt>
      <trkpt lat="49.28604" lon="-0.11955">
        <ele>5</ele>
        <time>2023-09-03T12:11:05Z</time>
      </trkpt>
      <trkpt lat="49.28598" lon="-0.11967">
        <ele>5</ele>
        <time>2023-09-03T12:11:06Z</time>
      </trkpt>
      <trkpt lat="49.28591" lon="-0.11979">
        <ele>4.9</ele>
        <time>2023-09-03T12:11:07Z</time>
      </trkpt>
      <trkpt lat="49.28584" lon="-0.11991">
        <ele>4.8</ele>
        <time>2023-09-03T12:11:08Z</time>
      </trkpt>
      <trkpt lat="49.28577" lon="-0.12005">
        <ele>4.9</ele>
        <time>2023-09-03T12:11:09Z</time>
      </trkpt>
      <trkpt lat="49.2857" lon="-0.12018">
        <ele>4.9</ele>
        <time>2023-09-03T12:11:10Z</time>
      </trkpt>
      <trkpt lat="49.28562" lon="-0.12032">
        <ele>4.9</ele>
        <time>2023-09-03T12:11:11Z</time>
      </trkpt>
      <trkpt lat="49.28555" lon="-0.12045">
        <ele>5</ele>
        <time>2023-09-03T12:11:12Z</time>
      </trkpt>
      <trkpt lat="49.28547" lon="-0.12059">
        <ele>5</ele>
        <time>2023-09-03T12:11:13Z</time>
      </trkpt>
      <trkpt lat="49.2854" lon="-0.12072">
        <ele>5</ele>
        <time>2023-09-03T12:11:14Z</time>
      </trkpt>
      <trkpt lat="49.28532" lon="-0.12085">
        <ele>5</ele>
        <time>2023-09-03T12:11:15Z</time>
      </trkpt>
      <trkpt lat="49.28526" lon="-0.12097">
        <ele>5</ele>
        <time>2023-09-03T12:11:16Z</time>
      </trkpt>
      <trkpt lat="49.28521" lon="-0.12105">
        <ele>5</ele>
        <time>2023-09-03T12:11:17Z</time>
      </trkpt>
      <trkpt lat="49.28518" lon="-0.12109">
        <ele>5</ele>
        <time>2023-09-03T12:11:18Z</time>
      </trkpt>
      <trkpt lat="49.28516" lon="-0.12112">
        <ele>5</ele>
        <time>2023-09-03T12:11:19Z</time>
      </trkpt>
      <trkpt lat="49.28513" lon="-0.12116">
        <ele>4.9</ele>
        <time>2023-09-03T12:11:20Z</time>
      </trkpt>
      <trkpt lat="49.28511" lon="-0.12122">
        <ele>4.9</ele>
        <time>2023-09-03T12:11:21Z</time>
      </trkpt>
      <trkpt lat="49.28507" lon="-0.12131">
        <ele>4.9</ele>
        <time>2023-09-03T12:11:22Z</time>
      </trkpt>
      <trkpt lat="49.28501" lon="-0.12141">
        <ele>4.9</ele>
        <time>2023-09-03T12:11:23Z</time>
      </trkpt>
      <trkpt lat="49.28494" lon="-0.12153">
        <ele>4.8</ele>
        <time>2023-09-03T12:11:24Z</time>
      </trkpt>
      <trkpt lat="49.28487" lon="-0.12165">
        <ele>4.8</ele>
        <time>2023-09-03T12:11:25Z</time>
      </trkpt>
      <trkpt lat="49.28481" lon="-0.12174">
        <ele>4.8</ele>
        <time>2023-09-03T12:11:26Z</time>
      </trkpt>
      <trkpt lat="49.28477" lon="-0.12182">
        <ele>4.8</ele>
        <time>2023-09-03T12:11:27Z</time>
      </trkpt>
      <trkpt lat="49.28475" lon="-0.12188">
        <ele>4.9</ele>
        <time>2023-09-03T12:11:28Z</time>
      </trkpt>
      <trkpt lat="49.28474" lon="-0.12192">
        <ele>4.9</ele>
        <time>2023-09-03T12:11:29Z</time>
      </trkpt>
      <trkpt lat="49.28475" lon="-0.12197">
        <ele>4.9</ele>
        <time>2023-09-03T12:11:30Z</time>
      </trkpt>
      <trkpt lat="49.28476" lon="-0.12203">
        <ele>4.9</ele>
        <time>2023-09-03T12:11:31Z</time>
      </trkpt>
      <trkpt lat="49.28478" lon="-0.1221">
        <ele>4.9</ele>
        <time>2023-09-03T12:11:32Z</time>
      </trkpt>
      <trkpt lat="49.28483" lon="-0.12219">
        <ele>5</ele>
        <time>2023-09-03T12:11:33Z</time>
      </trkpt>
      <trkpt lat="49.28492" lon="-0.12227">
        <ele>5</ele>
        <time>2023-09-03T12:11:34Z</time>
      </trkpt>
      <trkpt lat="49.28502" lon="-0.12233">
        <ele>5</ele>
        <time>2023-09-03T12:11:35Z</time>
      </trkpt>
      <trkpt lat="49.28515" lon="-0.12238">
        <ele>4.9</ele>
        <time>2023-09-03T12:11:36Z</time>
      </trkpt>
      <trkpt lat="49.28528" lon="-0.12242">
        <ele>4.9</ele>
        <time>2023-09-03T12:11:37Z</time>
      </trkpt>
      <trkpt lat="49.28542" lon="-0.12245">
        <ele>4.8</ele>
        <time>2023-09-03T12:11:38Z</time>
      </trkpt>
      <trkpt lat="49.28556" lon="-0.12247">
        <ele>4.7</ele>
        <time>2023-09-03T12:11:39Z</time>
      </trkpt>
      <trkpt lat="49.28569" lon="-0.12248">
        <ele>4.7</ele>
        <time>2023-09-03T12:11:40Z</time>
      </trkpt>
      <trkpt lat="49.2858" lon="-0.12249">
        <ele>4.6</ele>
        <time>2023-09-03T12:11:41Z</time>
      </trkpt>
      <trkpt lat="49.28587" lon="-0.1225">
        <ele>4.5</ele>
        <time>2023-09-03T12:11:42Z</time>
      </trkpt>
      <trkpt lat="49.2859" lon="-0.1225">
        <ele>4.5</ele>
        <time>2023-09-03T12:11:43Z</time>
      </trkpt>
      <trkpt lat="49.28591" lon="-0.12253">
        <ele>4.5</ele>
        <time>2023-09-03T12:11:44Z</time>
      </trkpt>
      <trkpt lat="49.28591" lon="-0.12254">
        <ele>4.5</ele>
        <time>2023-09-03T12:11:45Z</time>
      </trkpt>
      <trkpt lat="49.28591" lon="-0.12256">
        <ele>4.5</ele>
        <time>2023-09-03T12:11:46Z</time>
      </trkpt>
      <trkpt lat="49.28591" lon="-0.12264">
        <ele>4.4</ele>
        <time>2023-09-03T12:11:47Z</time>
      </trkpt>
      <trkpt lat="49.2859" lon="-0.12275">
        <ele>4.4</ele>
        <time>2023-09-03T12:11:48Z</time>
      </trkpt>
      <trkpt lat="49.28587" lon="-0.12292">
        <ele>4.4</ele>
        <time>2023-09-03T12:11:49Z</time>
      </trkpt>
      <trkpt lat="49.28582" lon="-0.12312">
        <ele>4.3</ele>
        <time>2023-09-03T12:11:50Z</time>
      </trkpt>
      <trkpt lat="49.28578" lon="-0.12333">
        <ele>4.3</ele>
        <time>2023-09-03T12:11:51Z</time>
      </trkpt>
      <trkpt lat="49.28574" lon="-0.12356">
        <ele>4.3</ele>
        <time>2023-09-03T12:11:52Z</time>
      </trkpt>
      <trkpt lat="49.28569" lon="-0.12378">
        <ele>4.3</ele>
        <time>2023-09-03T12:11:53Z</time>
      </trkpt>
      <trkpt lat="49.28565" lon="-0.12401">
        <ele>4.3</ele>
        <time>2023-09-03T12:11:54Z</time>
      </trkpt>
      <trkpt lat="49.28561" lon="-0.12423">
        <ele>4.3</ele>
        <time>2023-09-03T12:11:55Z</time>
      </trkpt>
      <trkpt lat="49.28557" lon="-0.12443">
        <ele>4.3</ele>
        <time>2023-09-03T12:11:56Z</time>
      </trkpt>
      <trkpt lat="49.28554" lon="-0.12462">
        <ele>4.3</ele>
        <time>2023-09-03T12:11:57Z</time>
      </trkpt>
      <trkpt lat="49.2855" lon="-0.1248">
        <ele>4.3</ele>
        <time>2023-09-03T12:11:58Z</time>
      </trkpt>
      <trkpt lat="49.28547" lon="-0.12497">
        <ele>4.3</ele>
        <time>2023-09-03T12:11:59Z</time>
      </trkpt>
      <trkpt lat="49.28545" lon="-0.12513">
        <ele>4.3</ele>
        <time>2023-09-03T12:12:00Z</time>
      </trkpt>
      <trkpt lat="49.28545" lon="-0.12528">
        <ele>4.4</ele>
        <time>2023-09-03T12:12:01Z</time>
      </trkpt>
      <trkpt lat="49.28548" lon="-0.12543">
        <ele>4.5</ele>
        <time>2023-09-03T12:12:02Z</time>
      </trkpt>
      <trkpt lat="49.2855" lon="-0.12556">
        <ele>4.4</ele>
        <time>2023-09-03T12:12:03Z</time>
      </trkpt>
      <trkpt lat="49.28549" lon="-0.12569">
        <ele>4.4</ele>
        <time>2023-09-03T12:12:04Z</time>
      </trkpt>
      <trkpt lat="49.28542" lon="-0.1258">
        <ele>4.3</ele>
        <time>2023-09-03T12:12:05Z</time>
      </trkpt>
      <trkpt lat="49.28534" lon="-0.12591">
        <ele>4.3</ele>
        <time>2023-09-03T12:12:06Z</time>
      </trkpt>
      <trkpt lat="49.28526" lon="-0.12604">
        <ele>4.3</ele>
        <time>2023-09-03T12:12:07Z</time>
      </trkpt>
      <trkpt lat="49.28521" lon="-0.1262">
        <ele>4.2</ele>
        <time>2023-09-03T12:12:08Z</time>
      </trkpt>
      <trkpt lat="49.28517" lon="-0.12636">
        <ele>4.2</ele>
        <time>2023-09-03T12:12:09Z</time>
      </trkpt>
      <trkpt lat="49.28513" lon="-0.12653">
        <ele>4.2</ele>
        <time>2023-09-03T12:12:10Z</time>
      </trkpt>
      <trkpt lat="49.28509" lon="-0.12671">
        <ele>4.2</ele>
        <time>2023-09-03T12:12:11Z</time>
      </trkpt>
      <trkpt lat="49.285" lon="-0.12721">
        <ele>4.1</ele>
        <time>2023-09-03T12:12:14Z</time>
      </trkpt>
      <trkpt lat="49.28495" lon="-0.1275">
        <ele>4.1</ele>
        <time>2023-09-03T12:12:15Z</time>
      </trkpt>
      <trkpt lat="49.28493" lon="-0.12762">
        <ele>4.1</ele>
        <time>2023-09-03T12:12:16Z</time>
      </trkpt>
      <trkpt lat="49.28491" lon="-0.12773">
        <ele>4.1</ele>
        <time>2023-09-03T12:12:17Z</time>
      </trkpt>
      <trkpt lat="49.28484" lon="-0.1281">
        <ele>4</ele>
        <time>2023-09-03T12:12:19Z</time>
      </trkpt>
      <trkpt lat="49.2848" lon="-0.12829">
        <ele>4</ele>
        <time>2023-09-03T12:12:20Z</time>
      </trkpt>
      <trkpt lat="49.28476" lon="-0.12848">
        <ele>4</ele>
        <time>2023-09-03T12:12:21Z</time>
      </trkpt>
      <trkpt lat="49.28472" lon="-0.12868">
        <ele>3.9</ele>
        <time>2023-09-03T12:12:22Z</time>
      </trkpt>
      <trkpt lat="49.28468" lon="-0.12887">
        <ele>3.8</ele>
        <time>2023-09-03T12:12:23Z</time>
      </trkpt>
      <trkpt lat="49.28464" lon="-0.12907">
        <ele>3.8</ele>
        <time>2023-09-03T12:12:24Z</time>
      </trkpt>
      <trkpt lat="49.2846" lon="-0.12927">
        <ele>3.8</ele>
        <time>2023-09-03T12:12:25Z</time>
      </trkpt>
    </trkseg>
  </trk>
</gpx>